<?xml version='1.0' encoding='UTF-8'?><gpx version="1.1" creator="JPX - https://github.com/jenetics/jpx" xmlns="http://www.topografix.com/GPX/1/1"><trk><trkseg><trkpt lat="45.0330174" lon="7.5130595"><ele>298.0</ele><time>2026-04-25T18:37:49.855Z</time></trkpt><trkpt lat="45.0330353" lon="7.5129669"><ele>298.0</ele><time>2026-04-25T18:37:50.994Z</time></trkpt><trkpt lat="45.0331288" lon="7.5129518"><ele>298.0</ele><time>2026-04-25T18:37:57.554Z</time></trkpt></trkseg><trkseg><trkpt lat="45.0335819" lon="7.5128621"><ele>301.0</ele><time>2026-04-26T07:23:20.394Z</time></trkpt><trkpt lat="45.0336603" lon="7.5130063"><ele>301.0</ele><time>2026-04-26T07:23:22.382Z</time></trkpt><trkpt lat="45.0336744" lon="7.5131718"><ele>301.0</ele><time>2026-04-26T07:23:23.381Z</time></trkpt><trkpt lat="45.0336633" lon="7.5133784"><ele>301.0</ele><time>2026-04-26T07:23:24.383Z</time></trkpt><trkpt lat="45.0335711" lon="7.5135998"><ele>301.0</ele><time>2026-04-26T07:23:25.394Z</time></trkpt><trkpt lat="45.0333801" lon="7.5127553"><ele>301.0</ele><time>2026-04-26T07:23:40.007Z</time></trkpt><trkpt lat="45.0332502" lon="7.512784"><ele>301.0</ele><time>2026-04-26T07:27:37.292Z</time></trkpt><trkpt lat="45.0334767" lon="7.5127314"><ele>301.0</ele><time>2026-04-26T07:28:01.385Z</time></trkpt><trkpt lat="45.0333042" lon="7.51275"><ele>301.0</ele><time>2026-04-26T07:28:02.391Z</time></trkpt><trkpt lat="45.0332739" lon="7.5128319"><ele>301.0</ele><time>2026-04-26T07:28:25.407Z</time></trkpt><trkpt lat="45.0332127" lon="7.5128046"><ele>301.0</ele><time>2026-04-26T07:28:56.403Z</time></trkpt><trkpt lat="45.033138" lon="7.5128907"><ele>301.0</ele><time>2026-04-26T07:29:41.397Z</time></trkpt><trkpt lat="45.033184" lon="7.5128193"><ele>301.0</ele><time>2026-04-26T07:30:12.409Z</time></trkpt><trkpt lat="45.0332475" lon="7.5128272"><ele>301.0</ele><time>2026-04-26T07:30:30.407Z</time></trkpt><trkpt lat="45.0333199" lon="7.5128436"><ele>301.0</ele><time>2026-04-26T07:31:38.698Z</time></trkpt><trkpt lat="45.0331539" lon="7.5132447"><ele>300.5</ele><time>2026-04-26T07:34:51.378Z</time></trkpt><trkpt lat="45.0332214" lon="7.5133028"><ele>300.0</ele><time>2026-04-26T07:35:03.377Z</time></trkpt><trkpt lat="45.0332729" lon="7.5132479"><ele>299.5</ele><time>2026-04-26T07:35:08.369Z</time></trkpt><trkpt lat="45.0332056" lon="7.5132969"><ele>299.0</ele><time>2026-04-26T07:35:17.411Z</time></trkpt><trkpt lat="45.0331291" lon="7.513333"><ele>298.5</ele><time>2026-04-26T07:35:19.411Z</time></trkpt><trkpt lat="45.0330942" lon="7.5134633"><ele>298.0</ele><time>2026-04-26T07:35:21.391Z</time></trkpt><trkpt lat="45.0331082" lon="7.5136388"><ele>297.6</ele><time>2026-04-26T07:35:23.39Z</time></trkpt><trkpt lat="45.033136" lon="7.5137752"><ele>297.20000000000005</ele><time>2026-04-26T07:35:25.398Z</time></trkpt><trkpt lat="45.0331156" lon="7.5139306"><ele>296.8</ele><time>2026-04-26T07:35:27.388Z</time></trkpt><trkpt lat="45.0330876" lon="7.5140387"><ele>296.40000000000003</ele><time>2026-04-26T07:35:28.389Z</time></trkpt><trkpt lat="45.0330585" lon="7.5141592"><ele>296.0</ele><time>2026-04-26T07:35:29.389Z</time></trkpt><trkpt lat="45.0330393" lon="7.5142972"><ele>296.0</ele><time>2026-04-26T07:35:30.393Z</time></trkpt><trkpt lat="45.0330154" lon="7.5144319"><ele>296.0</ele><time>2026-04-26T07:35:31.395Z</time></trkpt><trkpt lat="45.0329977" lon="7.5145524"><ele>296.0</ele><time>2026-04-26T07:35:32.412Z</time></trkpt><trkpt lat="45.0329839" lon="7.5146791"><ele>296.0</ele><time>2026-04-26T07:35:33.404Z</time></trkpt><trkpt lat="45.0329772" lon="7.5148088"><ele>296.0</ele><time>2026-04-26T07:35:34.396Z</time></trkpt><trkpt lat="45.0329656" lon="7.5149338"><ele>295.8</ele><time>2026-04-26T07:35:35.39Z</time></trkpt><trkpt lat="45.0329597" lon="7.5150766"><ele>295.6</ele><time>2026-04-26T07:35:36.457Z</time></trkpt><trkpt lat="45.0329535" lon="7.5152286"><ele>295.4</ele><time>2026-04-26T07:35:37.402Z</time></trkpt><trkpt lat="45.0329485" lon="7.5153775"><ele>295.2</ele><time>2026-04-26T07:35:38.413Z</time></trkpt><trkpt lat="45.032949" lon="7.5155382"><ele>295.0</ele><time>2026-04-26T07:35:39.391Z</time></trkpt><trkpt lat="45.0329434" lon="7.5156918"><ele>294.4</ele><time>2026-04-26T07:35:40.394Z</time></trkpt><trkpt lat="45.0329399" lon="7.5158248"><ele>293.8</ele><time>2026-04-26T07:35:41.397Z</time></trkpt><trkpt lat="45.0329151" lon="7.5159418"><ele>293.2</ele><time>2026-04-26T07:35:42.392Z</time></trkpt><trkpt lat="45.0328498" lon="7.5160346"><ele>292.6</ele><time>2026-04-26T07:35:43.4Z</time></trkpt><trkpt lat="45.0327628" lon="7.5161052"><ele>292.0</ele><time>2026-04-26T07:35:44.407Z</time></trkpt><trkpt lat="45.0326443" lon="7.5161392"><ele>292.0</ele><time>2026-04-26T07:35:45.41Z</time></trkpt><trkpt lat="45.0325246" lon="7.5161343"><ele>292.0</ele><time>2026-04-26T07:35:46.426Z</time></trkpt><trkpt lat="45.0323896" lon="7.5161294"><ele>292.0</ele><time>2026-04-26T07:35:47.401Z</time></trkpt><trkpt lat="45.0322459" lon="7.5161296"><ele>292.0</ele><time>2026-04-26T07:35:48.422Z</time></trkpt><trkpt lat="45.0321067" lon="7.5161463"><ele>291.4</ele><time>2026-04-26T07:35:49.404Z</time></trkpt><trkpt lat="45.0319764" lon="7.5161653"><ele>290.79999999999995</ele><time>2026-04-26T07:35:50.412Z</time></trkpt><trkpt lat="45.0318733" lon="7.5161957"><ele>290.2</ele><time>2026-04-26T07:35:51.43Z</time></trkpt><trkpt lat="45.0317921" lon="7.5162241"><ele>289.59999999999997</ele><time>2026-04-26T07:35:52.408Z</time></trkpt><trkpt lat="45.0317125" lon="7.5162492"><ele>289.0</ele><time>2026-04-26T07:35:53.406Z</time></trkpt><trkpt lat="45.0316249" lon="7.5162871"><ele>288.5</ele><time>2026-04-26T07:35:54.419Z</time></trkpt><trkpt lat="45.0315079" lon="7.5163346"><ele>288.0</ele><time>2026-04-26T07:35:55.395Z</time></trkpt><trkpt lat="45.0313845" lon="7.51638"><ele>287.5</ele><time>2026-04-26T07:35:56.405Z</time></trkpt><trkpt lat="45.0312612" lon="7.516424"><ele>287.0</ele><time>2026-04-26T07:35:57.41Z</time></trkpt><trkpt lat="45.0311459" lon="7.516456"><ele>287.0</ele><time>2026-04-26T07:35:58.416Z</time></trkpt><trkpt lat="45.0310385" lon="7.5164649"><ele>287.0</ele><time>2026-04-26T07:35:59.4Z</time></trkpt><trkpt lat="45.0308311" lon="7.516491"><ele>287.0</ele><time>2026-04-26T07:36:01.417Z</time></trkpt><trkpt lat="45.0307226" lon="7.5165509"><ele>287.0</ele><time>2026-04-26T07:36:02.407Z</time></trkpt><trkpt lat="45.0306096" lon="7.5165837"><ele>287.33333333333337</ele><time>2026-04-26T07:36:03.408Z</time></trkpt><trkpt lat="45.0304953" lon="7.5165882"><ele>287.6666666666667</ele><time>2026-04-26T07:36:04.406Z</time></trkpt><trkpt lat="45.0303732" lon="7.5165967"><ele>288.0</ele><time>2026-04-26T07:36:05.401Z</time></trkpt><trkpt lat="45.0301137" lon="7.5165811"><ele>288.0</ele><time>2026-04-26T07:36:07.403Z</time></trkpt><trkpt lat="45.0300001" lon="7.5165734"><ele>288.0</ele><time>2026-04-26T07:36:08.404Z</time></trkpt><trkpt lat="45.0299045" lon="7.5165739"><ele>288.0</ele><time>2026-04-26T07:36:09.39Z</time></trkpt><trkpt lat="45.0298008" lon="7.5165707"><ele>288.0</ele><time>2026-04-26T07:36:10.41Z</time></trkpt><trkpt lat="45.0296922" lon="7.5165743"><ele>288.0</ele><time>2026-04-26T07:36:11.412Z</time></trkpt><trkpt lat="45.0295748" lon="7.5165752"><ele>288.0</ele><time>2026-04-26T07:36:12.399Z</time></trkpt><trkpt lat="45.0294556" lon="7.5165726"><ele>288.0</ele><time>2026-04-26T07:36:13.399Z</time></trkpt><trkpt lat="45.0293362" lon="7.5165757"><ele>288.0</ele><time>2026-04-26T07:36:14.396Z</time></trkpt><trkpt lat="45.0292173" lon="7.5165831"><ele>288.0</ele><time>2026-04-26T07:36:15.401Z</time></trkpt><trkpt lat="45.0290958" lon="7.516594"><ele>288.25</ele><time>2026-04-26T07:36:16.419Z</time></trkpt><trkpt lat="45.0289608" lon="7.5166408"><ele>288.5</ele><time>2026-04-26T07:36:17.405Z</time></trkpt><trkpt lat="45.0288213" lon="7.5167101"><ele>288.75</ele><time>2026-04-26T07:36:18.403Z</time></trkpt><trkpt lat="45.0286874" lon="7.5167825"><ele>289.0</ele><time>2026-04-26T07:36:19.423Z</time></trkpt><trkpt lat="45.0285528" lon="7.5168413"><ele>289.0</ele><time>2026-04-26T07:36:20.404Z</time></trkpt><trkpt lat="45.0284305" lon="7.5168696"><ele>289.0</ele><time>2026-04-26T07:36:21.417Z</time></trkpt><trkpt lat="45.0283188" lon="7.5168887"><ele>289.0</ele><time>2026-04-26T07:36:22.405Z</time></trkpt><trkpt lat="45.0282088" lon="7.5168971"><ele>289.0</ele><time>2026-04-26T07:36:23.396Z</time></trkpt><trkpt lat="45.0281039" lon="7.5169074"><ele>288.8</ele><time>2026-04-26T07:36:24.399Z</time></trkpt><trkpt lat="45.0280082" lon="7.5169188"><ele>288.59999999999997</ele><time>2026-04-26T07:36:25.408Z</time></trkpt><trkpt lat="45.0279158" lon="7.5169223"><ele>288.4</ele><time>2026-04-26T07:36:26.41Z</time></trkpt><trkpt lat="45.0278415" lon="7.5169297"><ele>288.2</ele><time>2026-04-26T07:36:27.405Z</time></trkpt><trkpt lat="45.0277655" lon="7.5170039"><ele>288.0</ele><time>2026-04-26T07:36:29.403Z</time></trkpt><trkpt lat="45.0278152" lon="7.5171478"><ele>287.6</ele><time>2026-04-26T07:36:31.415Z</time></trkpt><trkpt lat="45.0278618" lon="7.5172476"><ele>287.20000000000005</ele><time>2026-04-26T07:36:32.411Z</time></trkpt><trkpt lat="45.0279149" lon="7.517379"><ele>286.8</ele><time>2026-04-26T07:36:33.413Z</time></trkpt><trkpt lat="45.0279606" lon="7.5175181"><ele>286.40000000000003</ele><time>2026-04-26T07:36:34.399Z</time></trkpt><trkpt lat="45.0280096" lon="7.517659"><ele>286.0</ele><time>2026-04-26T07:36:35.408Z</time></trkpt><trkpt lat="45.0280639" lon="7.5178186"><ele>286.0</ele><time>2026-04-26T07:36:36.414Z</time></trkpt><trkpt lat="45.028121" lon="7.5179876"><ele>286.0</ele><time>2026-04-26T07:36:37.414Z</time></trkpt><trkpt lat="45.0281803" lon="7.5181397"><ele>286.0</ele><time>2026-04-26T07:36:38.404Z</time></trkpt><trkpt lat="45.0282343" lon="7.5182965"><ele>286.0</ele><time>2026-04-26T07:36:39.403Z</time></trkpt><trkpt lat="45.0282833" lon="7.5184408"><ele>286.2</ele><time>2026-04-26T07:36:40.401Z</time></trkpt><trkpt lat="45.0283214" lon="7.5185673"><ele>286.40000000000003</ele><time>2026-04-26T07:36:41.419Z</time></trkpt><trkpt lat="45.0283589" lon="7.5186841"><ele>286.6</ele><time>2026-04-26T07:36:42.401Z</time></trkpt><trkpt lat="45.0283936" lon="7.5187972"><ele>286.8</ele><time>2026-04-26T07:36:43.409Z</time></trkpt><trkpt lat="45.0284398" lon="7.5189116"><ele>287.0</ele><time>2026-04-26T07:36:44.412Z</time></trkpt><trkpt lat="45.0284953" lon="7.5190368"><ele>286.5</ele><time>2026-04-26T07:36:45.399Z</time></trkpt><trkpt lat="45.0285508" lon="7.5191718"><ele>286.0</ele><time>2026-04-26T07:36:46.416Z</time></trkpt><trkpt lat="45.0286058" lon="7.5193192"><ele>285.5</ele><time>2026-04-26T07:36:47.403Z</time></trkpt><trkpt lat="45.0286544" lon="7.5194698"><ele>285.0</ele><time>2026-04-26T07:36:48.415Z</time></trkpt><trkpt lat="45.0287083" lon="7.5196171"><ele>285.0</ele><time>2026-04-26T07:36:49.395Z</time></trkpt><trkpt lat="45.0287668" lon="7.5197679"><ele>285.0</ele><time>2026-04-26T07:36:50.415Z</time></trkpt><trkpt lat="45.0288257" lon="7.5199274"><ele>285.0</ele><time>2026-04-26T07:36:51.402Z</time></trkpt><trkpt lat="45.0288862" lon="7.520072"><ele>285.0</ele><time>2026-04-26T07:36:52.405Z</time></trkpt><trkpt lat="45.0289383" lon="7.5202226"><ele>285.0</ele><time>2026-04-26T07:36:53.41Z</time></trkpt><trkpt lat="45.0289911" lon="7.5203529"><ele>285.0</ele><time>2026-04-26T07:36:54.416Z</time></trkpt><trkpt lat="45.0290373" lon="7.5204712"><ele>285.0</ele><time>2026-04-26T07:36:55.402Z</time></trkpt><trkpt lat="45.0290834" lon="7.5205906"><ele>285.0</ele><time>2026-04-26T07:36:56.404Z</time></trkpt><trkpt lat="45.0291301" lon="7.5207187"><ele>285.0</ele><time>2026-04-26T07:36:57.413Z</time></trkpt><trkpt lat="45.0291841" lon="7.5208574"><ele>284.75</ele><time>2026-04-26T07:36:58.397Z</time></trkpt><trkpt lat="45.0292462" lon="7.521011"><ele>284.5</ele><time>2026-04-26T07:36:59.416Z</time></trkpt><trkpt lat="45.0293088" lon="7.5211659"><ele>284.25</ele><time>2026-04-26T07:37:00.405Z</time></trkpt><trkpt lat="45.0293605" lon="7.5213234"><ele>284.0</ele><time>2026-04-26T07:37:01.405Z</time></trkpt><trkpt lat="45.0294154" lon="7.5214748"><ele>284.0</ele><time>2026-04-26T07:37:02.401Z</time></trkpt><trkpt lat="45.0294679" lon="7.5216048"><ele>284.0</ele><time>2026-04-26T07:37:03.401Z</time></trkpt><trkpt lat="45.0295108" lon="7.5217288"><ele>284.0</ele><time>2026-04-26T07:37:04.45Z</time></trkpt><trkpt lat="45.0295518" lon="7.5218425"><ele>284.0</ele><time>2026-04-26T07:37:05.401Z</time></trkpt><trkpt lat="45.0295854" lon="7.5219337"><ele>284.0</ele><time>2026-04-26T07:37:06.41Z</time></trkpt><trkpt lat="45.0296429" lon="7.5220653"><ele>284.0</ele><time>2026-04-26T07:37:08.407Z</time></trkpt><trkpt lat="45.0297025" lon="7.5221063"><ele>284.0</ele><time>2026-04-26T07:37:09.416Z</time></trkpt><trkpt lat="45.0298255" lon="7.522146"><ele>284.0</ele><time>2026-04-26T07:37:11.392Z</time></trkpt><trkpt lat="45.0298862" lon="7.5221744"><ele>284.0</ele><time>2026-04-26T07:37:12.435Z</time></trkpt><trkpt lat="45.0299904" lon="7.5222811"><ele>284.0</ele><time>2026-04-26T07:37:14.41Z</time></trkpt><trkpt lat="45.0300073" lon="7.5224199"><ele>284.0</ele><time>2026-04-26T07:37:16.406Z</time></trkpt><trkpt lat="45.029982" lon="7.5225138"><ele>284.0</ele><time>2026-04-26T07:37:17.405Z</time></trkpt><trkpt lat="45.0299664" lon="7.5226014"><ele>284.0</ele><time>2026-04-26T07:37:18.396Z</time></trkpt><trkpt lat="45.0299191" lon="7.5227547"><ele>284.0</ele><time>2026-04-26T07:37:20.419Z</time></trkpt><trkpt lat="45.0298763" lon="7.5228821"><ele>284.0</ele><time>2026-04-26T07:37:22.402Z</time></trkpt><trkpt lat="45.0297821" lon="7.5230075"><ele>284.1666666666667</ele><time>2026-04-26T07:37:24.407Z</time></trkpt><trkpt lat="45.0297178" lon="7.5230811"><ele>284.33333333333337</ele><time>2026-04-26T07:37:25.392Z</time></trkpt><trkpt lat="45.0296633" lon="7.5231569"><ele>284.5</ele><time>2026-04-26T07:37:26.418Z</time></trkpt><trkpt lat="45.0296145" lon="7.5232228"><ele>284.6666666666667</ele><time>2026-04-26T07:37:27.403Z</time></trkpt><trkpt lat="45.0295611" lon="7.5232797"><ele>284.8333333333333</ele><time>2026-04-26T07:37:28.422Z</time></trkpt><trkpt lat="45.0295082" lon="7.5233361"><ele>285.0</ele><time>2026-04-26T07:37:29.412Z</time></trkpt><trkpt lat="45.0294316" lon="7.5234391"><ele>285.0</ele><time>2026-04-26T07:37:31.413Z</time></trkpt><trkpt lat="45.029382" lon="7.5235557"><ele>285.0</ele><time>2026-04-26T07:37:33.406Z</time></trkpt><trkpt lat="45.029458" lon="7.5236525"><ele>285.0</ele><time>2026-04-26T07:37:35.401Z</time></trkpt><trkpt lat="45.0295211" lon="7.5236726"><ele>285.0</ele><time>2026-04-26T07:37:36.395Z</time></trkpt><trkpt lat="45.0295998" lon="7.5236895"><ele>285.0</ele><time>2026-04-26T07:37:37.406Z</time></trkpt><trkpt lat="45.0296882" lon="7.5237238"><ele>285.0</ele><time>2026-04-26T07:37:38.4Z</time></trkpt><trkpt lat="45.0298038" lon="7.5237815"><ele>285.0</ele><time>2026-04-26T07:37:39.395Z</time></trkpt><trkpt lat="45.0299375" lon="7.5238365"><ele>285.0</ele><time>2026-04-26T07:37:40.4Z</time></trkpt><trkpt lat="45.0300705" lon="7.5239015"><ele>285.0</ele><time>2026-04-26T07:37:41.4Z</time></trkpt><trkpt lat="45.0302085" lon="7.5239665"><ele>285.0</ele><time>2026-04-26T07:37:42.403Z</time></trkpt><trkpt lat="45.0303443" lon="7.5240281"><ele>285.0</ele><time>2026-04-26T07:37:43.405Z</time></trkpt><trkpt lat="45.0304564" lon="7.5240895"><ele>285.0</ele><time>2026-04-26T07:37:44.434Z</time></trkpt><trkpt lat="45.030541" lon="7.5241417"><ele>285.0</ele><time>2026-04-26T07:37:45.405Z</time></trkpt><trkpt lat="45.0306149" lon="7.5241912"><ele>285.0</ele><time>2026-04-26T07:37:46.401Z</time></trkpt><trkpt lat="45.0306864" lon="7.5242499"><ele>285.0</ele><time>2026-04-26T07:37:47.395Z</time></trkpt><trkpt lat="45.0307487" lon="7.5243076"><ele>285.3333333333333</ele><time>2026-04-26T07:37:48.419Z</time></trkpt><trkpt lat="45.0308149" lon="7.5243688"><ele>285.6666666666667</ele><time>2026-04-26T07:37:49.4Z</time></trkpt><trkpt lat="45.0308854" lon="7.5244284"><ele>286.0</ele><time>2026-04-26T07:37:50.397Z</time></trkpt><trkpt lat="45.0309476" lon="7.5244922"><ele>286.33333333333337</ele><time>2026-04-26T07:37:51.4Z</time></trkpt><trkpt lat="45.0310201" lon="7.5245559"><ele>286.6666666666667</ele><time>2026-04-26T07:37:52.396Z</time></trkpt><trkpt lat="45.0310895" lon="7.5246149"><ele>287.0</ele><time>2026-04-26T07:37:53.418Z</time></trkpt><trkpt lat="45.0311568" lon="7.524678"><ele>287.0</ele><time>2026-04-26T07:37:54.412Z</time></trkpt><trkpt lat="45.0312355" lon="7.5247491"><ele>287.0</ele><time>2026-04-26T07:37:56.409Z</time></trkpt><trkpt lat="45.0313102" lon="7.5248211"><ele>287.0</ele><time>2026-04-26T07:37:59.409Z</time></trkpt><trkpt lat="45.0313839" lon="7.5249359"><ele>287.0</ele><time>2026-04-26T07:38:01.402Z</time></trkpt><trkpt lat="45.0314608" lon="7.5250615"><ele>287.0</ele><time>2026-04-26T07:38:03.404Z</time></trkpt><trkpt lat="45.0314987" lon="7.5251479"><ele>287.0</ele><time>2026-04-26T07:38:05.417Z</time></trkpt><trkpt lat="45.0315395" lon="7.5252496"><ele>287.0</ele><time>2026-04-26T07:38:13.397Z</time></trkpt><trkpt lat="45.0315883" lon="7.5253576"><ele>287.0</ele><time>2026-04-26T07:38:23.395Z</time></trkpt><trkpt lat="45.0316464" lon="7.5254186"><ele>287.0</ele><time>2026-04-26T07:38:24.425Z</time></trkpt><trkpt lat="45.0317276" lon="7.5254648"><ele>287.0</ele><time>2026-04-26T07:38:25.407Z</time></trkpt><trkpt lat="45.0318319" lon="7.5254965"><ele>287.0</ele><time>2026-04-26T07:38:26.406Z</time></trkpt><trkpt lat="45.0319347" lon="7.5255246"><ele>287.0</ele><time>2026-04-26T07:38:27.406Z</time></trkpt><trkpt lat="45.0320348" lon="7.525552"><ele>287.0</ele><time>2026-04-26T07:38:28.416Z</time></trkpt><trkpt lat="45.0321235" lon="7.525576"><ele>287.0</ele><time>2026-04-26T07:38:29.411Z</time></trkpt><trkpt lat="45.0322049" lon="7.5256124"><ele>287.0</ele><time>2026-04-26T07:38:30.409Z</time></trkpt><trkpt lat="45.0322717" lon="7.5256603"><ele>287.0</ele><time>2026-04-26T07:38:31.424Z</time></trkpt><trkpt lat="45.032322" lon="7.5257146"><ele>287.0</ele><time>2026-04-26T07:38:32.401Z</time></trkpt><trkpt lat="45.0323924" lon="7.5257825"><ele>287.0</ele><time>2026-04-26T07:38:34.4Z</time></trkpt><trkpt lat="45.0324185" lon="7.525868"><ele>287.0</ele><time>2026-04-26T07:39:34.4Z</time></trkpt><trkpt lat="45.0323569" lon="7.5258323"><ele>287.0</ele><time>2026-04-26T07:40:51.398Z</time></trkpt><trkpt lat="45.0324357" lon="7.5258177"><ele>287.0</ele><time>2026-04-26T07:41:27.407Z</time></trkpt><trkpt lat="45.0325255" lon="7.5257918"><ele>287.0</ele><time>2026-04-26T07:41:30.407Z</time></trkpt><trkpt lat="45.0325827" lon="7.5257103"><ele>287.0</ele><time>2026-04-26T07:41:33.404Z</time></trkpt><trkpt lat="45.032538" lon="7.525634"><ele>287.0</ele><time>2026-04-26T07:41:36.41Z</time></trkpt><trkpt lat="45.0324001" lon="7.5256176"><ele>287.0</ele><time>2026-04-26T07:41:38.403Z</time></trkpt><trkpt lat="45.0323102" lon="7.525603"><ele>287.0</ele><time>2026-04-26T07:41:39.4Z</time></trkpt><trkpt lat="45.0322244" lon="7.5255777"><ele>287.0</ele><time>2026-04-26T07:41:40.399Z</time></trkpt><trkpt lat="45.0321385" lon="7.5255565"><ele>287.0</ele><time>2026-04-26T07:41:41.401Z</time></trkpt><trkpt lat="45.0320635" lon="7.5255403"><ele>287.0</ele><time>2026-04-26T07:41:42.403Z</time></trkpt><trkpt lat="45.0319565" lon="7.5255057"><ele>287.0</ele><time>2026-04-26T07:41:44.403Z</time></trkpt><trkpt lat="45.0318555" lon="7.5254858"><ele>287.0</ele><time>2026-04-26T07:41:47.418Z</time></trkpt><trkpt lat="45.0317298" lon="7.5255063"><ele>287.0</ele><time>2026-04-26T07:41:49.396Z</time></trkpt><trkpt lat="45.0316861" lon="7.5256803"><ele>287.0</ele><time>2026-04-26T07:41:51.395Z</time></trkpt><trkpt lat="45.0317095" lon="7.5258272"><ele>287.0</ele><time>2026-04-26T07:41:52.425Z</time></trkpt><trkpt lat="45.03174" lon="7.525973"><ele>287.0</ele><time>2026-04-26T07:41:53.402Z</time></trkpt><trkpt lat="45.0317594" lon="7.5261175"><ele>287.0</ele><time>2026-04-26T07:41:54.397Z</time></trkpt><trkpt lat="45.0317807" lon="7.5262848"><ele>287.0</ele><time>2026-04-26T07:41:55.412Z</time></trkpt><trkpt lat="45.0318163" lon="7.5264526"><ele>287.25</ele><time>2026-04-26T07:41:56.41Z</time></trkpt><trkpt lat="45.0318655" lon="7.5266325"><ele>287.5</ele><time>2026-04-26T07:41:57.415Z</time></trkpt><trkpt lat="45.0319366" lon="7.5268182"><ele>287.75</ele><time>2026-04-26T07:41:58.412Z</time></trkpt><trkpt lat="45.0320016" lon="7.5270162"><ele>288.0</ele><time>2026-04-26T07:41:59.409Z</time></trkpt><trkpt lat="45.0320664" lon="7.5272215"><ele>289.0</ele><time>2026-04-26T07:42:00.412Z</time></trkpt><trkpt lat="45.0321087" lon="7.5274357"><ele>290.0</ele><time>2026-04-26T07:42:01.4Z</time></trkpt><trkpt lat="45.0321068" lon="7.5276743"><ele>291.0</ele><time>2026-04-26T07:42:02.404Z</time></trkpt><trkpt lat="45.0320905" lon="7.5279078"><ele>292.6666666666667</ele><time>2026-04-26T07:42:03.399Z</time></trkpt><trkpt lat="45.0320469" lon="7.5281302"><ele>294.33333333333337</ele><time>2026-04-26T07:42:04.411Z</time></trkpt><trkpt lat="45.0319939" lon="7.52836"><ele>296.0</ele><time>2026-04-26T07:42:05.412Z</time></trkpt><trkpt lat="45.03194" lon="7.5285692"><ele>296.0</ele><time>2026-04-26T07:42:06.39Z</time></trkpt><trkpt lat="45.0318874" lon="7.5287837"><ele>296.0</ele><time>2026-04-26T07:42:07.432Z</time></trkpt><trkpt lat="45.031833" lon="7.5290098"><ele>296.0</ele><time>2026-04-26T07:42:08.395Z</time></trkpt><trkpt lat="45.0317813" lon="7.5292381"><ele>296.0</ele><time>2026-04-26T07:42:09.396Z</time></trkpt><trkpt lat="45.0317392" lon="7.5294682"><ele>296.0</ele><time>2026-04-26T07:42:10.405Z</time></trkpt><trkpt lat="45.0316968" lon="7.5297018"><ele>296.0</ele><time>2026-04-26T07:42:11.408Z</time></trkpt><trkpt lat="45.0316546" lon="7.5299429"><ele>295.0</ele><time>2026-04-26T07:42:12.419Z</time></trkpt><trkpt lat="45.0316167" lon="7.5301747"><ele>294.0</ele><time>2026-04-26T07:42:13.402Z</time></trkpt><trkpt lat="45.0315636" lon="7.5303824"><ele>293.0</ele><time>2026-04-26T07:42:14.395Z</time></trkpt><trkpt lat="45.0314975" lon="7.5305881"><ele>293.0</ele><time>2026-04-26T07:42:15.398Z</time></trkpt><trkpt lat="45.0314313" lon="7.5307877"><ele>293.0</ele><time>2026-04-26T07:42:16.398Z</time></trkpt><trkpt lat="45.0313709" lon="7.530959"><ele>293.0</ele><time>2026-04-26T07:42:17.396Z</time></trkpt><trkpt lat="45.0313261" lon="7.5311182"><ele>293.0</ele><time>2026-04-26T07:42:18.421Z</time></trkpt><trkpt lat="45.0313111" lon="7.5312826"><ele>293.0</ele><time>2026-04-26T07:42:19.413Z</time></trkpt><trkpt lat="45.0313312" lon="7.5314443"><ele>293.0</ele><time>2026-04-26T07:42:20.406Z</time></trkpt><trkpt lat="45.0313966" lon="7.5315682"><ele>293.0</ele><time>2026-04-26T07:42:21.405Z</time></trkpt><trkpt lat="45.0314925" lon="7.5316707"><ele>293.0</ele><time>2026-04-26T07:42:22.419Z</time></trkpt><trkpt lat="45.0316297" lon="7.5317555"><ele>293.33333333333337</ele><time>2026-04-26T07:42:23.414Z</time></trkpt><trkpt lat="45.0317758" lon="7.5318637"><ele>293.6666666666667</ele><time>2026-04-26T07:42:24.407Z</time></trkpt><trkpt lat="45.031922" lon="7.5319889"><ele>294.0</ele><time>2026-04-26T07:42:25.415Z</time></trkpt><trkpt lat="45.0320736" lon="7.5321634"><ele>294.0</ele><time>2026-04-26T07:42:26.415Z</time></trkpt><trkpt lat="45.0321973" lon="7.5323353"><ele>294.0</ele><time>2026-04-26T07:42:27.407Z</time></trkpt><trkpt lat="45.0323065" lon="7.5325643"><ele>294.0</ele><time>2026-04-26T07:42:28.409Z</time></trkpt><trkpt lat="45.0324112" lon="7.5328008"><ele>293.6666666666667</ele><time>2026-04-26T07:42:29.406Z</time></trkpt><trkpt lat="45.0325136" lon="7.5330401"><ele>293.33333333333337</ele><time>2026-04-26T07:42:30.432Z</time></trkpt><trkpt lat="45.0326249" lon="7.5332803"><ele>293.0</ele><time>2026-04-26T07:42:31.407Z</time></trkpt><trkpt lat="45.0327349" lon="7.5335268"><ele>293.0</ele><time>2026-04-26T07:42:32.421Z</time></trkpt><trkpt lat="45.0328423" lon="7.5337953"><ele>293.0</ele><time>2026-04-26T07:42:33.413Z</time></trkpt><trkpt lat="45.0329536" lon="7.5340487"><ele>293.0</ele><time>2026-04-26T07:42:34.403Z</time></trkpt><trkpt lat="45.0330625" lon="7.5343184"><ele>292.33333333333337</ele><time>2026-04-26T07:42:35.416Z</time></trkpt><trkpt lat="45.0331705" lon="7.5345845"><ele>291.6666666666667</ele><time>2026-04-26T07:42:36.408Z</time></trkpt><trkpt lat="45.0332803" lon="7.5348532"><ele>291.0</ele><time>2026-04-26T07:42:37.403Z</time></trkpt><trkpt lat="45.0333863" lon="7.5351096"><ele>291.0</ele><time>2026-04-26T07:42:38.4Z</time></trkpt><trkpt lat="45.0334868" lon="7.5353652"><ele>291.0</ele><time>2026-04-26T07:42:39.407Z</time></trkpt><trkpt lat="45.0335677" lon="7.5356401"><ele>291.0</ele><time>2026-04-26T07:42:40.403Z</time></trkpt><trkpt lat="45.0336111" lon="7.5359269"><ele>289.3333333333333</ele><time>2026-04-26T07:42:41.418Z</time></trkpt><trkpt lat="45.0336043" lon="7.5362236"><ele>287.66666666666663</ele><time>2026-04-26T07:42:42.391Z</time></trkpt><trkpt lat="45.033569" lon="7.536531"><ele>286.0</ele><time>2026-04-26T07:42:43.4Z</time></trkpt><trkpt lat="45.0335321" lon="7.5368505"><ele>285.0</ele><time>2026-04-26T07:42:44.396Z</time></trkpt><trkpt lat="45.0334966" lon="7.5371709"><ele>284.0</ele><time>2026-04-26T07:42:45.418Z</time></trkpt><trkpt lat="45.0334591" lon="7.5374927"><ele>284.0</ele><time>2026-04-26T07:42:46.419Z</time></trkpt><trkpt lat="45.0334236" lon="7.5378221"><ele>284.0</ele><time>2026-04-26T07:42:47.409Z</time></trkpt><trkpt lat="45.033391" lon="7.5381411"><ele>284.0</ele><time>2026-04-26T07:42:48.401Z</time></trkpt><trkpt lat="45.0333505" lon="7.5384598"><ele>284.0</ele><time>2026-04-26T07:42:49.4Z</time></trkpt><trkpt lat="45.0333159" lon="7.5387684"><ele>283.6666666666667</ele><time>2026-04-26T07:42:50.412Z</time></trkpt><trkpt lat="45.0332904" lon="7.5390616"><ele>283.3333333333333</ele><time>2026-04-26T07:42:51.406Z</time></trkpt><trkpt lat="45.0332764" lon="7.5393538"><ele>283.0</ele><time>2026-04-26T07:42:52.402Z</time></trkpt><trkpt lat="45.0332805" lon="7.5396405"><ele>283.0</ele><time>2026-04-26T07:42:53.402Z</time></trkpt><trkpt lat="45.0332881" lon="7.5399164"><ele>283.0</ele><time>2026-04-26T07:42:54.426Z</time></trkpt><trkpt lat="45.0332819" lon="7.5401753"><ele>283.0</ele><time>2026-04-26T07:42:55.405Z</time></trkpt><trkpt lat="45.0332477" lon="7.5404328"><ele>284.3333333333333</ele><time>2026-04-26T07:42:56.441Z</time></trkpt><trkpt lat="45.0331919" lon="7.5406701"><ele>285.6666666666667</ele><time>2026-04-26T07:42:57.396Z</time></trkpt><trkpt lat="45.0331475" lon="7.5408878"><ele>287.0</ele><time>2026-04-26T07:42:58.405Z</time></trkpt><trkpt lat="45.0331669" lon="7.5411101"><ele>287.33333333333337</ele><time>2026-04-26T07:42:59.401Z</time></trkpt><trkpt lat="45.0332249" lon="7.5412936"><ele>287.6666666666667</ele><time>2026-04-26T07:43:00.412Z</time></trkpt><trkpt lat="45.0333411" lon="7.5414362"><ele>288.0</ele><time>2026-04-26T07:43:01.408Z</time></trkpt><trkpt lat="45.0334717" lon="7.5415785"><ele>288.6666666666667</ele><time>2026-04-26T07:43:02.4Z</time></trkpt><trkpt lat="45.0336125" lon="7.5417326"><ele>289.33333333333337</ele><time>2026-04-26T07:43:03.409Z</time></trkpt><trkpt lat="45.0337462" lon="7.5419151"><ele>290.0</ele><time>2026-04-26T07:43:04.404Z</time></trkpt><trkpt lat="45.033871" lon="7.5421179"><ele>290.6666666666667</ele><time>2026-04-26T07:43:05.406Z</time></trkpt><trkpt lat="45.0339472" lon="7.5423404"><ele>291.3333333333333</ele><time>2026-04-26T07:43:06.404Z</time></trkpt><trkpt lat="45.0339998" lon="7.542598"><ele>292.0</ele><time>2026-04-26T07:43:07.422Z</time></trkpt><trkpt lat="45.034026" lon="7.5428737"><ele>291.3333333333333</ele><time>2026-04-26T07:43:08.405Z</time></trkpt><trkpt lat="45.0340573" lon="7.5431456"><ele>290.6666666666667</ele><time>2026-04-26T07:43:09.402Z</time></trkpt><trkpt lat="45.0340899" lon="7.5434124"><ele>290.0</ele><time>2026-04-26T07:43:10.408Z</time></trkpt><trkpt lat="45.0341362" lon="7.543678"><ele>290.0</ele><time>2026-04-26T07:43:11.409Z</time></trkpt><trkpt lat="45.0341884" lon="7.5439392"><ele>290.0</ele><time>2026-04-26T07:43:12.403Z</time></trkpt><trkpt lat="45.0342447" lon="7.5441997"><ele>290.0</ele><time>2026-04-26T07:43:13.397Z</time></trkpt><trkpt lat="45.0343102" lon="7.54445"><ele>289.6666666666667</ele><time>2026-04-26T07:43:14.399Z</time></trkpt><trkpt lat="45.0343694" lon="7.5446939"><ele>289.3333333333333</ele><time>2026-04-26T07:43:15.4Z</time></trkpt><trkpt lat="45.0344284" lon="7.5449269"><ele>289.0</ele><time>2026-04-26T07:43:16.397Z</time></trkpt><trkpt lat="45.0344725" lon="7.5451696"><ele>290.0</ele><time>2026-04-26T07:43:17.403Z</time></trkpt><trkpt lat="45.0345032" lon="7.545421"><ele>291.0</ele><time>2026-04-26T07:43:18.399Z</time></trkpt><trkpt lat="45.0345163" lon="7.545666"><ele>292.0</ele><time>2026-04-26T07:43:19.401Z</time></trkpt><trkpt lat="45.0344955" lon="7.5459046"><ele>292.0</ele><time>2026-04-26T07:43:20.404Z</time></trkpt><trkpt lat="45.0344427" lon="7.5461292"><ele>292.0</ele><time>2026-04-26T07:43:21.402Z</time></trkpt><trkpt lat="45.0343632" lon="7.5463407"><ele>292.0</ele><time>2026-04-26T07:43:22.404Z</time></trkpt><trkpt lat="45.0342657" lon="7.5465402"><ele>291.66666666666663</ele><time>2026-04-26T07:43:23.401Z</time></trkpt><trkpt lat="45.0341676" lon="7.5467418"><ele>291.3333333333333</ele><time>2026-04-26T07:43:24.417Z</time></trkpt><trkpt lat="45.0340769" lon="7.5469507"><ele>291.0</ele><time>2026-04-26T07:43:25.406Z</time></trkpt><trkpt lat="45.0339944" lon="7.5471671"><ele>290.6666666666667</ele><time>2026-04-26T07:43:26.406Z</time></trkpt><trkpt lat="45.0338919" lon="7.5473739"><ele>290.33333333333337</ele><time>2026-04-26T07:43:27.409Z</time></trkpt><trkpt lat="45.03379" lon="7.5475844"><ele>290.0</ele><time>2026-04-26T07:43:28.407Z</time></trkpt><trkpt lat="45.0336927" lon="7.5477958"><ele>289.6666666666667</ele><time>2026-04-26T07:43:29.407Z</time></trkpt><trkpt lat="45.0335922" lon="7.5480113"><ele>289.3333333333333</ele><time>2026-04-26T07:43:30.406Z</time></trkpt><trkpt lat="45.0334891" lon="7.5482289"><ele>289.0</ele><time>2026-04-26T07:43:31.411Z</time></trkpt><trkpt lat="45.0333938" lon="7.5484408"><ele>289.0</ele><time>2026-04-26T07:43:32.411Z</time></trkpt><trkpt lat="45.0333065" lon="7.5486506"><ele>289.0</ele><time>2026-04-26T07:43:33.401Z</time></trkpt><trkpt lat="45.0332207" lon="7.548845"><ele>289.0</ele><time>2026-04-26T07:43:34.409Z</time></trkpt><trkpt lat="45.0331304" lon="7.5490233"><ele>288.75</ele><time>2026-04-26T07:43:35.415Z</time></trkpt><trkpt lat="45.0330477" lon="7.5491887"><ele>288.5</ele><time>2026-04-26T07:43:36.419Z</time></trkpt><trkpt lat="45.0329729" lon="7.5493506"><ele>288.25</ele><time>2026-04-26T07:43:37.419Z</time></trkpt><trkpt lat="45.032903" lon="7.5495144"><ele>288.0</ele><time>2026-04-26T07:43:38.414Z</time></trkpt><trkpt lat="45.0328349" lon="7.5496582"><ele>287.4</ele><time>2026-04-26T07:43:39.407Z</time></trkpt><trkpt lat="45.0327758" lon="7.5497992"><ele>286.8</ele><time>2026-04-26T07:43:40.406Z</time></trkpt><trkpt lat="45.0327206" lon="7.5499332"><ele>286.2</ele><time>2026-04-26T07:43:41.403Z</time></trkpt><trkpt lat="45.0326674" lon="7.5500644"><ele>285.6</ele><time>2026-04-26T07:43:42.408Z</time></trkpt><trkpt lat="45.0326212" lon="7.5502118"><ele>285.0</ele><time>2026-04-26T07:43:43.402Z</time></trkpt><trkpt lat="45.0325738" lon="7.5503918"><ele>285.0</ele><time>2026-04-26T07:43:44.403Z</time></trkpt><trkpt lat="45.0325357" lon="7.5505909"><ele>285.0</ele><time>2026-04-26T07:43:45.418Z</time></trkpt><trkpt lat="45.0324958" lon="7.5508133"><ele>285.0</ele><time>2026-04-26T07:43:46.411Z</time></trkpt><trkpt lat="45.0324699" lon="7.5510751"><ele>283.3333333333333</ele><time>2026-04-26T07:43:47.408Z</time></trkpt><trkpt lat="45.0324448" lon="7.5513407"><ele>281.66666666666663</ele><time>2026-04-26T07:43:48.406Z</time></trkpt><trkpt lat="45.0324209" lon="7.5516239"><ele>280.0</ele><time>2026-04-26T07:43:49.41Z</time></trkpt><trkpt lat="45.0324022" lon="7.5519177"><ele>280.66666666666663</ele><time>2026-04-26T07:43:50.404Z</time></trkpt><trkpt lat="45.0323722" lon="7.552217"><ele>281.3333333333333</ele><time>2026-04-26T07:43:51.405Z</time></trkpt><trkpt lat="45.0323427" lon="7.5524984"><ele>282.0</ele><time>2026-04-26T07:43:52.406Z</time></trkpt><trkpt lat="45.0323178" lon="7.5527595"><ele>281.3333333333333</ele><time>2026-04-26T07:43:53.403Z</time></trkpt><trkpt lat="45.0322935" lon="7.5530086"><ele>280.66666666666663</ele><time>2026-04-26T07:43:54.401Z</time></trkpt><trkpt lat="45.0322711" lon="7.5532216"><ele>280.0</ele><time>2026-04-26T07:43:55.405Z</time></trkpt><trkpt lat="45.0322421" lon="7.5534232"><ele>280.0</ele><time>2026-04-26T07:43:56.399Z</time></trkpt><trkpt lat="45.0322155" lon="7.5535727"><ele>280.0</ele><time>2026-04-26T07:43:57.412Z</time></trkpt><trkpt lat="45.0321837" lon="7.5536548"><ele>280.0</ele><time>2026-04-26T07:43:58.411Z</time></trkpt><trkpt lat="45.0321373" lon="7.5537284"><ele>280.0</ele><time>2026-04-26T07:44:00.4Z</time></trkpt><trkpt lat="45.0320801" lon="7.5537864"><ele>280.0</ele><time>2026-04-26T07:44:03.404Z</time></trkpt><trkpt lat="45.0320241" lon="7.5538484"><ele>280.0</ele><time>2026-04-26T07:44:04.405Z</time></trkpt><trkpt lat="45.0319517" lon="7.5539724"><ele>280.0</ele><time>2026-04-26T07:44:05.406Z</time></trkpt><trkpt lat="45.0319097" lon="7.5541191"><ele>280.0</ele><time>2026-04-26T07:44:06.41Z</time></trkpt><trkpt lat="45.0319205" lon="7.554271"><ele>280.0</ele><time>2026-04-26T07:44:07.413Z</time></trkpt><trkpt lat="45.0319675" lon="7.5544207"><ele>280.0</ele><time>2026-04-26T07:44:08.414Z</time></trkpt><trkpt lat="45.0320516" lon="7.5545404"><ele>280.0</ele><time>2026-04-26T07:44:09.411Z</time></trkpt><trkpt lat="45.0321631" lon="7.5545792"><ele>280.0</ele><time>2026-04-26T07:44:10.411Z</time></trkpt><trkpt lat="45.0322919" lon="7.5545074"><ele>280.0</ele><time>2026-04-26T07:44:11.404Z</time></trkpt><trkpt lat="45.0324379" lon="7.5544535"><ele>280.0</ele><time>2026-04-26T07:44:12.404Z</time></trkpt><trkpt lat="45.0325895" lon="7.5544489"><ele>280.66666666666663</ele><time>2026-04-26T07:44:13.416Z</time></trkpt><trkpt lat="45.0327604" lon="7.5544689"><ele>281.3333333333333</ele><time>2026-04-26T07:44:14.407Z</time></trkpt><trkpt lat="45.0329317" lon="7.5545041"><ele>282.0</ele><time>2026-04-26T07:44:15.403Z</time></trkpt><trkpt lat="45.0331026" lon="7.5545555"><ele>282.3333333333333</ele><time>2026-04-26T07:44:16.409Z</time></trkpt><trkpt lat="45.0332687" lon="7.5546172"><ele>282.66666666666663</ele><time>2026-04-26T07:44:17.408Z</time></trkpt><trkpt lat="45.033448" lon="7.5546723"><ele>283.0</ele><time>2026-04-26T07:44:18.402Z</time></trkpt><trkpt lat="45.0336367" lon="7.5547293"><ele>283.0</ele><time>2026-04-26T07:44:19.403Z</time></trkpt><trkpt lat="45.0338191" lon="7.554794"><ele>283.0</ele><time>2026-04-26T07:44:20.407Z</time></trkpt><trkpt lat="45.0340131" lon="7.5548639"><ele>283.0</ele><time>2026-04-26T07:44:21.402Z</time></trkpt><trkpt lat="45.0342097" lon="7.5549387"><ele>283.3333333333333</ele><time>2026-04-26T07:44:22.417Z</time></trkpt><trkpt lat="45.0344123" lon="7.5550071"><ele>283.6666666666667</ele><time>2026-04-26T07:44:23.404Z</time></trkpt><trkpt lat="45.0346131" lon="7.5550661"><ele>284.0</ele><time>2026-04-26T07:44:24.409Z</time></trkpt><trkpt lat="45.0348203" lon="7.5551147"><ele>283.0</ele><time>2026-04-26T07:44:25.419Z</time></trkpt><trkpt lat="45.0350286" lon="7.5551276"><ele>282.0</ele><time>2026-04-26T07:44:26.425Z</time></trkpt><trkpt lat="45.0352423" lon="7.5551214"><ele>281.0</ele><time>2026-04-26T07:44:27.415Z</time></trkpt><trkpt lat="45.0354411" lon="7.5550936"><ele>281.0</ele><time>2026-04-26T07:44:28.397Z</time></trkpt><trkpt lat="45.035635" lon="7.5550358"><ele>281.0</ele><time>2026-04-26T07:44:29.398Z</time></trkpt><trkpt lat="45.0358214" lon="7.5549668"><ele>281.0</ele><time>2026-04-26T07:44:30.407Z</time></trkpt><trkpt lat="45.035995" lon="7.5548755"><ele>281.6666666666667</ele><time>2026-04-26T07:44:31.419Z</time></trkpt><trkpt lat="45.0361602" lon="7.5547677"><ele>282.3333333333333</ele><time>2026-04-26T07:44:32.418Z</time></trkpt><trkpt lat="45.0363227" lon="7.5546612"><ele>283.0</ele><time>2026-04-26T07:44:33.405Z</time></trkpt><trkpt lat="45.0364719" lon="7.5545598"><ele>283.75</ele><time>2026-04-26T07:44:34.404Z</time></trkpt><trkpt lat="45.036613" lon="7.554481"><ele>284.5</ele><time>2026-04-26T07:44:35.429Z</time></trkpt><trkpt lat="45.0367481" lon="7.5544379"><ele>285.25</ele><time>2026-04-26T07:44:36.409Z</time></trkpt><trkpt lat="45.0368865" lon="7.554417"><ele>286.0</ele><time>2026-04-26T07:44:37.403Z</time></trkpt><trkpt lat="45.037023" lon="7.5544093"><ele>286.0</ele><time>2026-04-26T07:44:38.4Z</time></trkpt><trkpt lat="45.0371535" lon="7.55442"><ele>286.0</ele><time>2026-04-26T07:44:39.409Z</time></trkpt><trkpt lat="45.0372735" lon="7.5544526"><ele>286.0</ele><time>2026-04-26T07:44:40.406Z</time></trkpt><trkpt lat="45.0373869" lon="7.5545254"><ele>286.0</ele><time>2026-04-26T07:44:41.422Z</time></trkpt><trkpt lat="45.0374945" lon="7.5545998"><ele>286.0</ele><time>2026-04-26T07:44:42.427Z</time></trkpt><trkpt lat="45.0376031" lon="7.5546949"><ele>286.0</ele><time>2026-04-26T07:44:43.405Z</time></trkpt><trkpt lat="45.0376966" lon="7.5548107"><ele>286.0</ele><time>2026-04-26T07:44:44.417Z</time></trkpt><trkpt lat="45.0377871" lon="7.5549559"><ele>286.0</ele><time>2026-04-26T07:44:45.414Z</time></trkpt><trkpt lat="45.0378664" lon="7.5551213"><ele>286.0</ele><time>2026-04-26T07:44:46.403Z</time></trkpt><trkpt lat="45.0379315" lon="7.5553268"><ele>286.0</ele><time>2026-04-26T07:44:47.403Z</time></trkpt><trkpt lat="45.0380019" lon="7.5555566"><ele>286.0</ele><time>2026-04-26T07:44:48.421Z</time></trkpt><trkpt lat="45.0380779" lon="7.5558048"><ele>286.3333333333333</ele><time>2026-04-26T07:44:49.415Z</time></trkpt><trkpt lat="45.0381589" lon="7.5560445"><ele>286.6666666666667</ele><time>2026-04-26T07:44:50.408Z</time></trkpt><trkpt lat="45.0382514" lon="7.5562776"><ele>287.0</ele><time>2026-04-26T07:44:51.401Z</time></trkpt><trkpt lat="45.0383531" lon="7.5564879"><ele>287.0</ele><time>2026-04-26T07:44:52.42Z</time></trkpt><trkpt lat="45.0384537" lon="7.5566714"><ele>287.0</ele><time>2026-04-26T07:44:53.406Z</time></trkpt><trkpt lat="45.0385633" lon="7.5568477"><ele>287.0</ele><time>2026-04-26T07:44:54.419Z</time></trkpt><trkpt lat="45.0386819" lon="7.5570002"><ele>287.0</ele><time>2026-04-26T07:44:55.403Z</time></trkpt><trkpt lat="45.0388122" lon="7.557154"><ele>287.0</ele><time>2026-04-26T07:44:56.424Z</time></trkpt><trkpt lat="45.0389402" lon="7.5572906"><ele>287.0</ele><time>2026-04-26T07:44:57.404Z</time></trkpt><trkpt lat="45.0390757" lon="7.5573961"><ele>286.6666666666667</ele><time>2026-04-26T07:44:58.42Z</time></trkpt><trkpt lat="45.0392382" lon="7.557508"><ele>286.3333333333333</ele><time>2026-04-26T07:44:59.413Z</time></trkpt><trkpt lat="45.0394285" lon="7.5576168"><ele>286.0</ele><time>2026-04-26T07:45:00.402Z</time></trkpt><trkpt lat="45.0396292" lon="7.5577235"><ele>286.0</ele><time>2026-04-26T07:45:01.405Z</time></trkpt><trkpt lat="45.0398333" lon="7.5578365"><ele>286.0</ele><time>2026-04-26T07:45:02.409Z</time></trkpt><trkpt lat="45.0400429" lon="7.5579345"><ele>286.0</ele><time>2026-04-26T07:45:03.414Z</time></trkpt><trkpt lat="45.0402399" lon="7.5580377"><ele>286.66666666666663</ele><time>2026-04-26T07:45:04.41Z</time></trkpt><trkpt lat="45.0404283" lon="7.5581415"><ele>287.3333333333333</ele><time>2026-04-26T07:45:05.409Z</time></trkpt><trkpt lat="45.040611" lon="7.5582417"><ele>288.0</ele><time>2026-04-26T07:45:06.417Z</time></trkpt><trkpt lat="45.0407997" lon="7.5583446"><ele>289.0</ele><time>2026-04-26T07:45:07.413Z</time></trkpt><trkpt lat="45.0409821" lon="7.5584576"><ele>290.0</ele><time>2026-04-26T07:45:08.42Z</time></trkpt><trkpt lat="45.0411471" lon="7.5585847"><ele>291.0</ele><time>2026-04-26T07:45:09.415Z</time></trkpt><trkpt lat="45.0413066" lon="7.5587454"><ele>291.0</ele><time>2026-04-26T07:45:10.419Z</time></trkpt><trkpt lat="45.0414522" lon="7.5589332"><ele>291.0</ele><time>2026-04-26T07:45:11.401Z</time></trkpt><trkpt lat="45.0415734" lon="7.5591511"><ele>291.0</ele><time>2026-04-26T07:45:12.393Z</time></trkpt><trkpt lat="45.0416742" lon="7.5593916"><ele>290.3333333333333</ele><time>2026-04-26T07:45:13.398Z</time></trkpt><trkpt lat="45.041751" lon="7.5596497"><ele>289.66666666666663</ele><time>2026-04-26T07:45:14.4Z</time></trkpt><trkpt lat="45.0418076" lon="7.5599016"><ele>289.0</ele><time>2026-04-26T07:45:15.42Z</time></trkpt><trkpt lat="45.0418537" lon="7.5601327"><ele>289.0</ele><time>2026-04-26T07:45:16.401Z</time></trkpt><trkpt lat="45.0418862" lon="7.5603296"><ele>289.0</ele><time>2026-04-26T07:45:17.404Z</time></trkpt><trkpt lat="45.0418949" lon="7.560529"><ele>289.0</ele><time>2026-04-26T07:45:18.405Z</time></trkpt><trkpt lat="45.0418837" lon="7.5607223"><ele>289.0</ele><time>2026-04-26T07:45:19.401Z</time></trkpt><trkpt lat="45.0418376" lon="7.560928"><ele>289.25</ele><time>2026-04-26T07:45:20.407Z</time></trkpt><trkpt lat="45.041783" lon="7.5611144"><ele>289.5</ele><time>2026-04-26T07:45:21.395Z</time></trkpt><trkpt lat="45.0417539" lon="7.5613226"><ele>289.75</ele><time>2026-04-26T07:45:22.398Z</time></trkpt><trkpt lat="45.0417403" lon="7.5615381"><ele>290.0</ele><time>2026-04-26T07:45:23.401Z</time></trkpt><trkpt lat="45.0417343" lon="7.5617457"><ele>289.0</ele><time>2026-04-26T07:45:24.399Z</time></trkpt><trkpt lat="45.0417071" lon="7.5619256"><ele>288.0</ele><time>2026-04-26T07:45:25.407Z</time></trkpt><trkpt lat="45.0416319" lon="7.5620613"><ele>287.0</ele><time>2026-04-26T07:45:26.401Z</time></trkpt><trkpt lat="45.041536" lon="7.5621736"><ele>286.0</ele><time>2026-04-26T07:45:27.415Z</time></trkpt><trkpt lat="45.0414192" lon="7.5622377"><ele>285.25</ele><time>2026-04-26T07:45:28.396Z</time></trkpt><trkpt lat="45.0412968" lon="7.5622509"><ele>284.5</ele><time>2026-04-26T07:45:29.406Z</time></trkpt><trkpt lat="45.0411753" lon="7.5622174"><ele>283.75</ele><time>2026-04-26T07:45:30.423Z</time></trkpt><trkpt lat="45.041073" lon="7.5621596"><ele>283.0</ele><time>2026-04-26T07:45:31.416Z</time></trkpt><trkpt lat="45.040983" lon="7.5621036"><ele>283.0</ele><time>2026-04-26T07:45:32.4Z</time></trkpt><trkpt lat="45.0409065" lon="7.5620577"><ele>283.0</ele><time>2026-04-26T07:45:33.404Z</time></trkpt><trkpt lat="45.0408428" lon="7.5619865"><ele>283.0</ele><time>2026-04-26T07:45:34.404Z</time></trkpt><trkpt lat="45.040781" lon="7.5619096"><ele>283.0</ele><time>2026-04-26T07:45:35.398Z</time></trkpt><trkpt lat="45.0407252" lon="7.5618619"><ele>283.0</ele><time>2026-04-26T07:45:36.409Z</time></trkpt><trkpt lat="45.0406034" lon="7.561889"><ele>283.0</ele><time>2026-04-26T07:45:38.401Z</time></trkpt><trkpt lat="45.0405315" lon="7.5620272"><ele>283.0</ele><time>2026-04-26T07:45:40.401Z</time></trkpt><trkpt lat="45.0405321" lon="7.5621323"><ele>283.0</ele><time>2026-04-26T07:45:41.396Z</time></trkpt><trkpt lat="45.0405535" lon="7.5622307"><ele>283.0</ele><time>2026-04-26T07:45:42.407Z</time></trkpt><trkpt lat="45.0405786" lon="7.5623433"><ele>283.0</ele><time>2026-04-26T07:45:43.404Z</time></trkpt><trkpt lat="45.0405791" lon="7.5624729"><ele>283.0</ele><time>2026-04-26T07:45:44.401Z</time></trkpt><trkpt lat="45.040545" lon="7.562601"><ele>283.0</ele><time>2026-04-26T07:45:45.407Z</time></trkpt><trkpt lat="45.0404817" lon="7.5627291"><ele>283.0</ele><time>2026-04-26T07:45:46.422Z</time></trkpt><trkpt lat="45.0403946" lon="7.5628345"><ele>283.0</ele><time>2026-04-26T07:45:47.41Z</time></trkpt><trkpt lat="45.0402736" lon="7.5629186"><ele>283.0</ele><time>2026-04-26T07:45:48.413Z</time></trkpt><trkpt lat="45.0401512" lon="7.5629952"><ele>283.0</ele><time>2026-04-26T07:45:49.416Z</time></trkpt><trkpt lat="45.0400264" lon="7.5630937"><ele>284.0</ele><time>2026-04-26T07:45:50.407Z</time></trkpt><trkpt lat="45.0399371" lon="7.5632469"><ele>285.0</ele><time>2026-04-26T07:45:51.411Z</time></trkpt><trkpt lat="45.0398756" lon="7.5634739"><ele>286.0</ele><time>2026-04-26T07:45:52.425Z</time></trkpt><trkpt lat="45.0398112" lon="7.56374"><ele>286.0</ele><time>2026-04-26T07:45:53.4Z</time></trkpt><trkpt lat="45.0397435" lon="7.5639992"><ele>286.0</ele><time>2026-04-26T07:45:54.407Z</time></trkpt><trkpt lat="45.0396691" lon="7.5642582"><ele>286.0</ele><time>2026-04-26T07:45:55.403Z</time></trkpt><trkpt lat="45.0395971" lon="7.5645083"><ele>285.0</ele><time>2026-04-26T07:45:56.398Z</time></trkpt><trkpt lat="45.0395135" lon="7.5647637"><ele>284.0</ele><time>2026-04-26T07:45:57.409Z</time></trkpt><trkpt lat="45.0394377" lon="7.5650307"><ele>283.0</ele><time>2026-04-26T07:45:58.397Z</time></trkpt><trkpt lat="45.0393612" lon="7.5653001"><ele>283.66666666666663</ele><time>2026-04-26T07:45:59.407Z</time></trkpt><trkpt lat="45.0392823" lon="7.5655656"><ele>284.3333333333333</ele><time>2026-04-26T07:46:00.41Z</time></trkpt><trkpt lat="45.0392037" lon="7.5658211"><ele>285.0</ele><time>2026-04-26T07:46:01.401Z</time></trkpt><trkpt lat="45.0391272" lon="7.5660785"><ele>284.6666666666667</ele><time>2026-04-26T07:46:02.413Z</time></trkpt><trkpt lat="45.0390578" lon="7.566339"><ele>284.33333333333337</ele><time>2026-04-26T07:46:03.398Z</time></trkpt><trkpt lat="45.0389856" lon="7.566593"><ele>284.0</ele><time>2026-04-26T07:46:04.411Z</time></trkpt><trkpt lat="45.0389186" lon="7.5668468"><ele>282.6666666666667</ele><time>2026-04-26T07:46:05.409Z</time></trkpt><trkpt lat="45.0388449" lon="7.5671006"><ele>281.3333333333333</ele><time>2026-04-26T07:46:06.396Z</time></trkpt><trkpt lat="45.0387769" lon="7.567353"><ele>280.0</ele><time>2026-04-26T07:46:07.4Z</time></trkpt><trkpt lat="45.0387168" lon="7.5675975"><ele>280.0</ele><time>2026-04-26T07:46:08.399Z</time></trkpt><trkpt lat="45.0386762" lon="7.5678394"><ele>280.0</ele><time>2026-04-26T07:46:09.403Z</time></trkpt><trkpt lat="45.0386639" lon="7.5680902"><ele>280.0</ele><time>2026-04-26T07:46:10.404Z</time></trkpt><trkpt lat="45.0386684" lon="7.5683313"><ele>280.66666666666663</ele><time>2026-04-26T07:46:11.402Z</time></trkpt><trkpt lat="45.0386888" lon="7.5685538"><ele>281.3333333333333</ele><time>2026-04-26T07:46:12.405Z</time></trkpt><trkpt lat="45.0387225" lon="7.5687793"><ele>282.0</ele><time>2026-04-26T07:46:13.415Z</time></trkpt><trkpt lat="45.038738" lon="7.5690201"><ele>282.0</ele><time>2026-04-26T07:46:14.415Z</time></trkpt><trkpt lat="45.0387346" lon="7.5692588"><ele>282.0</ele><time>2026-04-26T07:46:15.397Z</time></trkpt><trkpt lat="45.0386826" lon="7.5695075"><ele>282.0</ele><time>2026-04-26T07:46:16.406Z</time></trkpt><trkpt lat="45.0386052" lon="7.569746"><ele>282.0</ele><time>2026-04-26T07:46:17.414Z</time></trkpt><trkpt lat="45.0385247" lon="7.5699635"><ele>282.0</ele><time>2026-04-26T07:46:18.413Z</time></trkpt><trkpt lat="45.0384371" lon="7.5701503"><ele>282.0</ele><time>2026-04-26T07:46:19.414Z</time></trkpt><trkpt lat="45.0383109" lon="7.570257"><ele>281.75</ele><time>2026-04-26T07:46:20.405Z</time></trkpt><trkpt lat="45.0381744" lon="7.5703279"><ele>281.5</ele><time>2026-04-26T07:46:21.404Z</time></trkpt><trkpt lat="45.0380294" lon="7.5703348"><ele>281.25</ele><time>2026-04-26T07:46:22.402Z</time></trkpt><trkpt lat="45.0378743" lon="7.5703023"><ele>281.0</ele><time>2026-04-26T07:46:23.403Z</time></trkpt><trkpt lat="45.0377173" lon="7.5702326"><ele>281.0</ele><time>2026-04-26T07:46:24.415Z</time></trkpt><trkpt lat="45.0375501" lon="7.5701329"><ele>281.0</ele><time>2026-04-26T07:46:25.409Z</time></trkpt><trkpt lat="45.0373734" lon="7.5700272"><ele>281.0</ele><time>2026-04-26T07:46:26.41Z</time></trkpt><trkpt lat="45.0372008" lon="7.569939"><ele>280.6666666666667</ele><time>2026-04-26T07:46:27.403Z</time></trkpt><trkpt lat="45.0370405" lon="7.5698539"><ele>280.3333333333333</ele><time>2026-04-26T07:46:28.418Z</time></trkpt><trkpt lat="45.0368836" lon="7.5697841"><ele>280.0</ele><time>2026-04-26T07:46:29.403Z</time></trkpt><trkpt lat="45.0367443" lon="7.5697068"><ele>280.0</ele><time>2026-04-26T07:46:30.405Z</time></trkpt><trkpt lat="45.0366627" lon="7.5695544"><ele>280.0</ele><time>2026-04-26T07:46:31.406Z</time></trkpt><trkpt lat="45.0366266" lon="7.569346"><ele>280.0</ele><time>2026-04-26T07:46:32.41Z</time></trkpt><trkpt lat="45.0366059" lon="7.5691439"><ele>280.0</ele><time>2026-04-26T07:46:33.399Z</time></trkpt><trkpt lat="45.0366409" lon="7.5689395"><ele>280.0</ele><time>2026-04-26T07:46:34.405Z</time></trkpt><trkpt lat="45.0366977" lon="7.5687346"><ele>280.0</ele><time>2026-04-26T07:46:35.41Z</time></trkpt><trkpt lat="45.0367549" lon="7.5685631"><ele>280.0</ele><time>2026-04-26T07:46:36.403Z</time></trkpt><trkpt lat="45.0368282" lon="7.5684138"><ele>280.0</ele><time>2026-04-26T07:46:37.401Z</time></trkpt><trkpt lat="45.0369412" lon="7.5683077"><ele>280.0</ele><time>2026-04-26T07:46:38.398Z</time></trkpt><trkpt lat="45.0370525" lon="7.5682557"><ele>280.0</ele><time>2026-04-26T07:46:39.409Z</time></trkpt><trkpt lat="45.0371759" lon="7.5682409"><ele>280.0</ele><time>2026-04-26T07:46:40.405Z</time></trkpt><trkpt lat="45.037294" lon="7.5682679"><ele>280.0</ele><time>2026-04-26T07:46:41.412Z</time></trkpt><trkpt lat="45.0373918" lon="7.5683652"><ele>280.0</ele><time>2026-04-26T07:46:42.391Z</time></trkpt><trkpt lat="45.0374653" lon="7.5684931"><ele>280.0</ele><time>2026-04-26T07:46:43.401Z</time></trkpt><trkpt lat="45.0375169" lon="7.5686325"><ele>280.0</ele><time>2026-04-26T07:46:44.399Z</time></trkpt><trkpt lat="45.0375294" lon="7.568799"><ele>280.0</ele><time>2026-04-26T07:46:45.403Z</time></trkpt><trkpt lat="45.0375028" lon="7.5689637"><ele>280.0</ele><time>2026-04-26T07:46:46.411Z</time></trkpt><trkpt lat="45.037443" lon="7.5691553"><ele>280.0</ele><time>2026-04-26T07:46:47.4Z</time></trkpt><trkpt lat="45.0373909" lon="7.569397"><ele>280.0</ele><time>2026-04-26T07:46:48.406Z</time></trkpt><trkpt lat="45.0373278" lon="7.5696626"><ele>280.0</ele><time>2026-04-26T07:46:49.403Z</time></trkpt><trkpt lat="45.0372568" lon="7.5699396"><ele>280.0</ele><time>2026-04-26T07:46:50.411Z</time></trkpt><trkpt lat="45.0371871" lon="7.5702262"><ele>280.0</ele><time>2026-04-26T07:46:51.4Z</time></trkpt><trkpt lat="45.0371097" lon="7.5705375"><ele>279.0</ele><time>2026-04-26T07:46:52.398Z</time></trkpt><trkpt lat="45.0370236" lon="7.5708758"><ele>278.0</ele><time>2026-04-26T07:46:53.399Z</time></trkpt><trkpt lat="45.0369337" lon="7.5712193"><ele>277.5</ele><time>2026-04-26T07:46:54.4Z</time></trkpt><trkpt lat="45.0368379" lon="7.5715795"><ele>277.0</ele><time>2026-04-26T07:46:55.388Z</time></trkpt><trkpt lat="45.0367413" lon="7.57195"><ele>277.0</ele><time>2026-04-26T07:46:56.404Z</time></trkpt><trkpt lat="45.0366396" lon="7.5723313"><ele>277.0</ele><time>2026-04-26T07:46:57.395Z</time></trkpt><trkpt lat="45.0365391" lon="7.5727259"><ele>276.0</ele><time>2026-04-26T07:46:58.403Z</time></trkpt><trkpt lat="45.0364346" lon="7.5731208"><ele>275.0</ele><time>2026-04-26T07:46:59.39Z</time></trkpt><trkpt lat="45.0363259" lon="7.573526"><ele>274.0</ele><time>2026-04-26T07:47:00.396Z</time></trkpt><trkpt lat="45.0362143" lon="7.5739382"><ele>273.0</ele><time>2026-04-26T07:47:01.392Z</time></trkpt><trkpt lat="45.036101" lon="7.57435"><ele>274.0</ele><time>2026-04-26T07:47:02.421Z</time></trkpt><trkpt lat="45.0359892" lon="7.5747645"><ele>275.0</ele><time>2026-04-26T07:47:03.391Z</time></trkpt><trkpt lat="45.0358791" lon="7.5751874"><ele>274.5</ele><time>2026-04-26T07:47:04.399Z</time></trkpt><trkpt lat="45.0357678" lon="7.5756084"><ele>274.0</ele><time>2026-04-26T07:47:05.392Z</time></trkpt><trkpt lat="45.03566" lon="7.5760351"><ele>274.5</ele><time>2026-04-26T07:47:06.387Z</time></trkpt><trkpt lat="45.0355589" lon="7.576478"><ele>275.0</ele><time>2026-04-26T07:47:07.392Z</time></trkpt><trkpt lat="45.035444" lon="7.576916"><ele>275.0</ele><time>2026-04-26T07:47:08.418Z</time></trkpt><trkpt lat="45.0353285" lon="7.5773461"><ele>275.0</ele><time>2026-04-26T07:47:09.39Z</time></trkpt><trkpt lat="45.0352125" lon="7.5777742"><ele>273.5</ele><time>2026-04-26T07:47:10.395Z</time></trkpt><trkpt lat="45.0350848" lon="7.5782063"><ele>272.0</ele><time>2026-04-26T07:47:11.383Z</time></trkpt><trkpt lat="45.034953" lon="7.5786594"><ele>272.0</ele><time>2026-04-26T07:47:12.389Z</time></trkpt><trkpt lat="45.0348224" lon="7.5791195"><ele>272.0</ele><time>2026-04-26T07:47:13.397Z</time></trkpt><trkpt lat="45.0346938" lon="7.5796042"><ele>272.0</ele><time>2026-04-26T07:47:14.393Z</time></trkpt><trkpt lat="45.0345583" lon="7.5800914"><ele>272.0</ele><time>2026-04-26T07:47:15.405Z</time></trkpt><trkpt lat="45.0344253" lon="7.580582"><ele>269.5</ele><time>2026-04-26T07:47:16.4Z</time></trkpt><trkpt lat="45.0342923" lon="7.5810624"><ele>267.0</ele><time>2026-04-26T07:47:17.404Z</time></trkpt><trkpt lat="45.034157" lon="7.581546"><ele>267.5</ele><time>2026-04-26T07:47:18.401Z</time></trkpt><trkpt lat="45.0340257" lon="7.5820234"><ele>268.0</ele><time>2026-04-26T07:47:19.397Z</time></trkpt><trkpt lat="45.0338971" lon="7.5825028"><ele>266.0</ele><time>2026-04-26T07:47:20.399Z</time></trkpt><trkpt lat="45.0337663" lon="7.5829816"><ele>264.0</ele><time>2026-04-26T07:47:21.399Z</time></trkpt><trkpt lat="45.0336374" lon="7.5834586"><ele>264.5</ele><time>2026-04-26T07:47:22.399Z</time></trkpt><trkpt lat="45.0335093" lon="7.5839285"><ele>265.0</ele><time>2026-04-26T07:47:23.407Z</time></trkpt><trkpt lat="45.0333778" lon="7.5843953"><ele>267.0</ele><time>2026-04-26T07:47:24.414Z</time></trkpt><trkpt lat="45.0332483" lon="7.5848589"><ele>269.0</ele><time>2026-04-26T07:47:25.398Z</time></trkpt><trkpt lat="45.0331176" lon="7.5853227"><ele>268.0</ele><time>2026-04-26T07:47:26.404Z</time></trkpt><trkpt lat="45.0329874" lon="7.5857813"><ele>267.0</ele><time>2026-04-26T07:47:27.399Z</time></trkpt><trkpt lat="45.0328496" lon="7.5862413"><ele>266.5</ele><time>2026-04-26T07:47:28.406Z</time></trkpt><trkpt lat="45.0326993" lon="7.5866827"><ele>266.0</ele><time>2026-04-26T07:47:29.396Z</time></trkpt><trkpt lat="45.0325318" lon="7.5871178"><ele>266.0</ele><time>2026-04-26T07:47:30.413Z</time></trkpt><trkpt lat="45.0323492" lon="7.5875418"><ele>266.0</ele><time>2026-04-26T07:47:31.4Z</time></trkpt><trkpt lat="45.0321598" lon="7.5879446"><ele>266.0</ele><time>2026-04-26T07:47:32.392Z</time></trkpt><trkpt lat="45.0319624" lon="7.5883411"><ele>266.0</ele><time>2026-04-26T07:47:33.39Z</time></trkpt><trkpt lat="45.031748" lon="7.5887288"><ele>266.0</ele><time>2026-04-26T07:47:34.407Z</time></trkpt><trkpt lat="45.0315201" lon="7.5891023"><ele>266.0</ele><time>2026-04-26T07:47:35.395Z</time></trkpt><trkpt lat="45.0312855" lon="7.5894656"><ele>265.5</ele><time>2026-04-26T07:47:36.406Z</time></trkpt><trkpt lat="45.0310482" lon="7.5898164"><ele>265.0</ele><time>2026-04-26T07:47:37.394Z</time></trkpt><trkpt lat="45.0307953" lon="7.5901604"><ele>264.0</ele><time>2026-04-26T07:47:38.406Z</time></trkpt><trkpt lat="45.0305354" lon="7.5904907"><ele>263.0</ele><time>2026-04-26T07:47:39.406Z</time></trkpt><trkpt lat="45.0302733" lon="7.590809"><ele>263.0</ele><time>2026-04-26T07:47:40.403Z</time></trkpt><trkpt lat="45.0300001" lon="7.5911083"><ele>263.0</ele><time>2026-04-26T07:47:41.399Z</time></trkpt><trkpt lat="45.0297218" lon="7.591395"><ele>264.5</ele><time>2026-04-26T07:47:42.401Z</time></trkpt><trkpt lat="45.0294354" lon="7.5916588"><ele>266.0</ele><time>2026-04-26T07:47:43.402Z</time></trkpt><trkpt lat="45.0291456" lon="7.5919104"><ele>265.5</ele><time>2026-04-26T07:47:44.413Z</time></trkpt><trkpt lat="45.0288557" lon="7.5921664"><ele>265.0</ele><time>2026-04-26T07:47:45.411Z</time></trkpt><trkpt lat="45.0285635" lon="7.5924154"><ele>265.5</ele><time>2026-04-26T07:47:46.412Z</time></trkpt><trkpt lat="45.0282711" lon="7.5926659"><ele>266.0</ele><time>2026-04-26T07:47:47.405Z</time></trkpt><trkpt lat="45.0279818" lon="7.5929101"><ele>266.5</ele><time>2026-04-26T07:47:48.406Z</time></trkpt><trkpt lat="45.0276961" lon="7.5931671"><ele>267.0</ele><time>2026-04-26T07:47:49.409Z</time></trkpt><trkpt lat="45.0274089" lon="7.5934138"><ele>266.5</ele><time>2026-04-26T07:47:50.406Z</time></trkpt><trkpt lat="45.0271199" lon="7.5936589"><ele>266.0</ele><time>2026-04-26T07:47:51.398Z</time></trkpt><trkpt lat="45.0268362" lon="7.5938976"><ele>265.5</ele><time>2026-04-26T07:47:52.411Z</time></trkpt><trkpt lat="45.0265532" lon="7.5941406"><ele>265.0</ele><time>2026-04-26T07:47:53.404Z</time></trkpt><trkpt lat="45.026263" lon="7.5943898"><ele>265.0</ele><time>2026-04-26T07:47:54.418Z</time></trkpt><trkpt lat="45.0259764" lon="7.5946356"><ele>265.0</ele><time>2026-04-26T07:47:55.397Z</time></trkpt><trkpt lat="45.0256887" lon="7.5948853"><ele>265.0</ele><time>2026-04-26T07:47:56.396Z</time></trkpt><trkpt lat="45.0254015" lon="7.5951331"><ele>265.0</ele><time>2026-04-26T07:47:57.41Z</time></trkpt><trkpt lat="45.0251122" lon="7.5953778"><ele>264.5</ele><time>2026-04-26T07:47:58.397Z</time></trkpt><trkpt lat="45.0248207" lon="7.5956299"><ele>264.0</ele><time>2026-04-26T07:47:59.417Z</time></trkpt><trkpt lat="45.024532" lon="7.5958848"><ele>264.0</ele><time>2026-04-26T07:48:00.405Z</time></trkpt><trkpt lat="45.0242418" lon="7.596133"><ele>264.0</ele><time>2026-04-26T07:48:01.405Z</time></trkpt><trkpt lat="45.0239573" lon="7.5963807"><ele>262.5</ele><time>2026-04-26T07:48:02.407Z</time></trkpt><trkpt lat="45.023669" lon="7.5966249"><ele>261.0</ele><time>2026-04-26T07:48:03.398Z</time></trkpt><trkpt lat="45.0233786" lon="7.5968705"><ele>259.5</ele><time>2026-04-26T07:48:04.416Z</time></trkpt><trkpt lat="45.023092" lon="7.5971145"><ele>258.0</ele><time>2026-04-26T07:48:05.4Z</time></trkpt><trkpt lat="45.0227959" lon="7.5973606"><ele>258.0</ele><time>2026-04-26T07:48:06.405Z</time></trkpt><trkpt lat="45.0224982" lon="7.5976091"><ele>258.0</ele><time>2026-04-26T07:48:07.411Z</time></trkpt><trkpt lat="45.0222119" lon="7.5978554"><ele>258.0</ele><time>2026-04-26T07:48:08.407Z</time></trkpt><trkpt lat="45.0219186" lon="7.5981077"><ele>258.0</ele><time>2026-04-26T07:48:09.41Z</time></trkpt><trkpt lat="45.0216299" lon="7.5983559"><ele>257.5</ele><time>2026-04-26T07:48:10.4Z</time></trkpt><trkpt lat="45.0213443" lon="7.5986052"><ele>257.0</ele><time>2026-04-26T07:48:11.411Z</time></trkpt><trkpt lat="45.0210549" lon="7.5988497"><ele>256.0</ele><time>2026-04-26T07:48:12.411Z</time></trkpt><trkpt lat="45.0207617" lon="7.5990848"><ele>255.0</ele><time>2026-04-26T07:48:13.4Z</time></trkpt><trkpt lat="45.0204772" lon="7.5993157"><ele>255.0</ele><time>2026-04-26T07:48:14.415Z</time></trkpt><trkpt lat="45.0201893" lon="7.5995404"><ele>255.0</ele><time>2026-04-26T07:48:15.406Z</time></trkpt><trkpt lat="45.01989" lon="7.5997568"><ele>255.0</ele><time>2026-04-26T07:48:16.418Z</time></trkpt><trkpt lat="45.0195944" lon="7.5999648"><ele>255.0</ele><time>2026-04-26T07:48:17.408Z</time></trkpt><trkpt lat="45.0192953" lon="7.6001702"><ele>254.5</ele><time>2026-04-26T07:48:18.403Z</time></trkpt><trkpt lat="45.0189905" lon="7.6003662"><ele>254.0</ele><time>2026-04-26T07:48:19.405Z</time></trkpt><trkpt lat="45.0186849" lon="7.600553"><ele>254.0</ele><time>2026-04-26T07:48:20.407Z</time></trkpt><trkpt lat="45.0183736" lon="7.6007256"><ele>254.0</ele><time>2026-04-26T07:48:21.399Z</time></trkpt><trkpt lat="45.0180582" lon="7.6008923"><ele>254.0</ele><time>2026-04-26T07:48:22.421Z</time></trkpt><trkpt lat="45.0177432" lon="7.6010479"><ele>254.0</ele><time>2026-04-26T07:48:23.403Z</time></trkpt><trkpt lat="45.0174297" lon="7.6012068"><ele>252.5</ele><time>2026-04-26T07:48:24.412Z</time></trkpt><trkpt lat="45.0171079" lon="7.6013539"><ele>251.0</ele><time>2026-04-26T07:48:25.408Z</time></trkpt><trkpt lat="45.016783" lon="7.6015012"><ele>251.0</ele><time>2026-04-26T07:48:26.401Z</time></trkpt><trkpt lat="45.0164613" lon="7.601636"><ele>251.0</ele><time>2026-04-26T07:48:27.394Z</time></trkpt><trkpt lat="45.0161368" lon="7.6017796"><ele>250.0</ele><time>2026-04-26T07:48:28.412Z</time></trkpt><trkpt lat="45.0158124" lon="7.6019241"><ele>249.0</ele><time>2026-04-26T07:48:29.402Z</time></trkpt><trkpt lat="45.015491" lon="7.6020645"><ele>249.0</ele><time>2026-04-26T07:48:30.4Z</time></trkpt><trkpt lat="45.0151666" lon="7.6022097"><ele>249.0</ele><time>2026-04-26T07:48:31.408Z</time></trkpt><trkpt lat="45.0148514" lon="7.6023703"><ele>247.5</ele><time>2026-04-26T07:48:32.43Z</time></trkpt><trkpt lat="45.0145427" lon="7.6025504"><ele>246.0</ele><time>2026-04-26T07:48:33.404Z</time></trkpt><trkpt lat="45.0142401" lon="7.6027484"><ele>245.5</ele><time>2026-04-26T07:48:34.411Z</time></trkpt><trkpt lat="45.0139465" lon="7.6029515"><ele>245.0</ele><time>2026-04-26T07:48:35.38Z</time></trkpt><trkpt lat="45.0136561" lon="7.603174"><ele>245.0</ele><time>2026-04-26T07:48:36.401Z</time></trkpt><trkpt lat="45.0133747" lon="7.6034126"><ele>245.0</ele><time>2026-04-26T07:48:37.393Z</time></trkpt><trkpt lat="45.0131067" lon="7.6036686"><ele>242.5</ele><time>2026-04-26T07:48:38.408Z</time></trkpt><trkpt lat="45.0128383" lon="7.6039455"><ele>240.0</ele><time>2026-04-26T07:48:39.404Z</time></trkpt><trkpt lat="45.012577" lon="7.6042407"><ele>240.5</ele><time>2026-04-26T07:48:40.398Z</time></trkpt><trkpt lat="45.0123264" lon="7.6045507"><ele>241.0</ele><time>2026-04-26T07:48:41.403Z</time></trkpt><trkpt lat="45.0120864" lon="7.6048748"><ele>241.0</ele><time>2026-04-26T07:48:42.408Z</time></trkpt><trkpt lat="45.011854" lon="7.6052217"><ele>241.0</ele><time>2026-04-26T07:48:43.409Z</time></trkpt><trkpt lat="45.0116271" lon="7.6055881"><ele>240.5</ele><time>2026-04-26T07:48:44.408Z</time></trkpt><trkpt lat="45.0114137" lon="7.6059598"><ele>240.0</ele><time>2026-04-26T07:48:45.403Z</time></trkpt><trkpt lat="45.0112129" lon="7.6063439"><ele>240.0</ele><time>2026-04-26T07:48:46.408Z</time></trkpt><trkpt lat="45.0110173" lon="7.6067381"><ele>240.0</ele><time>2026-04-26T07:48:47.408Z</time></trkpt><trkpt lat="45.0108408" lon="7.6071435"><ele>240.0</ele><time>2026-04-26T07:48:48.41Z</time></trkpt><trkpt lat="45.0106745" lon="7.6075673"><ele>240.0</ele><time>2026-04-26T07:48:49.413Z</time></trkpt><trkpt lat="45.0105287" lon="7.6079918"><ele>239.5</ele><time>2026-04-26T07:48:50.401Z</time></trkpt><trkpt lat="45.0103909" lon="7.6084292"><ele>239.0</ele><time>2026-04-26T07:48:51.427Z</time></trkpt><trkpt lat="45.0102724" lon="7.6088708"><ele>238.0</ele><time>2026-04-26T07:48:52.399Z</time></trkpt><trkpt lat="45.0101667" lon="7.6093201"><ele>237.0</ele><time>2026-04-26T07:48:53.404Z</time></trkpt><trkpt lat="45.0100765" lon="7.6097672"><ele>236.5</ele><time>2026-04-26T07:48:54.402Z</time></trkpt><trkpt lat="45.0100012" lon="7.6102145"><ele>236.0</ele><time>2026-04-26T07:48:55.406Z</time></trkpt><trkpt lat="45.0099371" lon="7.6106683"><ele>238.5</ele><time>2026-04-26T07:48:56.401Z</time></trkpt><trkpt lat="45.0098765" lon="7.6111378"><ele>241.0</ele><time>2026-04-26T07:48:57.404Z</time></trkpt><trkpt lat="45.0098277" lon="7.6116141"><ele>240.5</ele><time>2026-04-26T07:48:58.411Z</time></trkpt><trkpt lat="45.009779" lon="7.6120915"><ele>240.0</ele><time>2026-04-26T07:48:59.411Z</time></trkpt><trkpt lat="45.0097307" lon="7.6125661"><ele>239.5</ele><time>2026-04-26T07:49:00.403Z</time></trkpt><trkpt lat="45.0096793" lon="7.6130369"><ele>239.0</ele><time>2026-04-26T07:49:01.399Z</time></trkpt><trkpt lat="45.0096324" lon="7.6135122"><ele>239.0</ele><time>2026-04-26T07:49:02.396Z</time></trkpt><trkpt lat="45.0095855" lon="7.6139851"><ele>239.0</ele><time>2026-04-26T07:49:03.398Z</time></trkpt><trkpt lat="45.0095378" lon="7.6144531"><ele>238.0</ele><time>2026-04-26T07:49:04.408Z</time></trkpt><trkpt lat="45.0094874" lon="7.6149248"><ele>237.0</ele><time>2026-04-26T07:49:05.402Z</time></trkpt><trkpt lat="45.0094305" lon="7.6153863"><ele>237.0</ele><time>2026-04-26T07:49:06.406Z</time></trkpt><trkpt lat="45.009363" lon="7.6158492"><ele>237.0</ele><time>2026-04-26T07:49:07.404Z</time></trkpt><trkpt lat="45.009276" lon="7.6162933"><ele>237.0</ele><time>2026-04-26T07:49:08.401Z</time></trkpt><trkpt lat="45.0091631" lon="7.6167239"><ele>237.0</ele><time>2026-04-26T07:49:09.407Z</time></trkpt><trkpt lat="45.0090206" lon="7.6171373"><ele>235.5</ele><time>2026-04-26T07:49:10.4Z</time></trkpt><trkpt lat="45.008859" lon="7.6175369"><ele>234.0</ele><time>2026-04-26T07:49:11.401Z</time></trkpt><trkpt lat="45.0086748" lon="7.6179378"><ele>233.5</ele><time>2026-04-26T07:49:12.412Z</time></trkpt><trkpt lat="45.0084809" lon="7.6183079"><ele>233.0</ele><time>2026-04-26T07:49:13.405Z</time></trkpt><trkpt lat="45.008267" lon="7.6186625"><ele>236.0</ele><time>2026-04-26T07:49:14.397Z</time></trkpt><trkpt lat="45.0080424" lon="7.6190028"><ele>239.0</ele><time>2026-04-26T07:49:15.401Z</time></trkpt><trkpt lat="45.0078144" lon="7.6193088"><ele>238.0</ele><time>2026-04-26T07:49:16.397Z</time></trkpt><trkpt lat="45.0075723" lon="7.6196137"><ele>237.0</ele><time>2026-04-26T07:49:17.399Z</time></trkpt><trkpt lat="45.0073146" lon="7.6198973"><ele>236.5</ele><time>2026-04-26T07:49:18.414Z</time></trkpt><trkpt lat="45.0070439" lon="7.6201492"><ele>236.0</ele><time>2026-04-26T07:49:19.405Z</time></trkpt><trkpt lat="45.0067665" lon="7.6203844"><ele>235.5</ele><time>2026-04-26T07:49:20.398Z</time></trkpt><trkpt lat="45.0064832" lon="7.6205911"><ele>235.0</ele><time>2026-04-26T07:49:21.396Z</time></trkpt><trkpt lat="45.0061887" lon="7.6207676"><ele>235.0</ele><time>2026-04-26T07:49:22.399Z</time></trkpt><trkpt lat="45.0058898" lon="7.6209251"><ele>235.0</ele><time>2026-04-26T07:49:23.406Z</time></trkpt><trkpt lat="45.0055898" lon="7.6210708"><ele>236.0</ele><time>2026-04-26T07:49:24.395Z</time></trkpt><trkpt lat="45.0052872" lon="7.621206"><ele>237.0</ele><time>2026-04-26T07:49:25.394Z</time></trkpt><trkpt lat="45.0049806" lon="7.6213479"><ele>237.0</ele><time>2026-04-26T07:49:26.39Z</time></trkpt><trkpt lat="45.0046768" lon="7.621493"><ele>237.0</ele><time>2026-04-26T07:49:27.398Z</time></trkpt><trkpt lat="45.004373" lon="7.6216391"><ele>236.0</ele><time>2026-04-26T07:49:28.392Z</time></trkpt><trkpt lat="45.0040728" lon="7.6217827"><ele>235.0</ele><time>2026-04-26T07:49:29.401Z</time></trkpt><trkpt lat="45.0037756" lon="7.6219205"><ele>235.5</ele><time>2026-04-26T07:49:30.399Z</time></trkpt><trkpt lat="45.0034787" lon="7.622063"><ele>236.0</ele><time>2026-04-26T07:49:31.389Z</time></trkpt><trkpt lat="45.0031793" lon="7.6222085"><ele>236.5</ele><time>2026-04-26T07:49:32.406Z</time></trkpt><trkpt lat="45.0028812" lon="7.6223425"><ele>237.0</ele><time>2026-04-26T07:49:33.396Z</time></trkpt><trkpt lat="45.0025768" lon="7.6224777"><ele>237.0</ele><time>2026-04-26T07:49:34.397Z</time></trkpt><trkpt lat="45.0022714" lon="7.622605"><ele>237.0</ele><time>2026-04-26T07:49:35.399Z</time></trkpt><trkpt lat="45.0019652" lon="7.6227369"><ele>236.5</ele><time>2026-04-26T07:49:36.404Z</time></trkpt><trkpt lat="45.0016577" lon="7.6228742"><ele>236.0</ele><time>2026-04-26T07:49:37.405Z</time></trkpt><trkpt lat="45.0013464" lon="7.6230161"><ele>236.0</ele><time>2026-04-26T07:49:38.392Z</time></trkpt><trkpt lat="45.0010369" lon="7.6231626"><ele>236.0</ele><time>2026-04-26T07:49:39.404Z</time></trkpt><trkpt lat="45.0007253" lon="7.6233041"><ele>236.0</ele><time>2026-04-26T07:49:40.401Z</time></trkpt><trkpt lat="45.0004169" lon="7.6234442"><ele>236.0</ele><time>2026-04-26T07:49:41.396Z</time></trkpt><trkpt lat="45.0001088" lon="7.6235915"><ele>236.5</ele><time>2026-04-26T07:49:42.403Z</time></trkpt><trkpt lat="44.9998019" lon="7.6237335"><ele>237.0</ele><time>2026-04-26T07:49:43.396Z</time></trkpt><trkpt lat="44.9994957" lon="7.6238776"><ele>237.0</ele><time>2026-04-26T07:49:44.403Z</time></trkpt><trkpt lat="44.9991858" lon="7.6240209"><ele>237.0</ele><time>2026-04-26T07:49:45.416Z</time></trkpt><trkpt lat="44.9988767" lon="7.6241677"><ele>235.5</ele><time>2026-04-26T07:49:46.407Z</time></trkpt><trkpt lat="44.9985644" lon="7.6243159"><ele>234.0</ele><time>2026-04-26T07:49:47.405Z</time></trkpt><trkpt lat="44.9982528" lon="7.6244632"><ele>233.0</ele><time>2026-04-26T07:49:48.401Z</time></trkpt><trkpt lat="44.9979427" lon="7.6246151"><ele>232.0</ele><time>2026-04-26T07:49:49.4Z</time></trkpt><trkpt lat="44.9976338" lon="7.6247718"><ele>233.5</ele><time>2026-04-26T07:49:50.397Z</time></trkpt><trkpt lat="44.9973267" lon="7.624947"><ele>235.0</ele><time>2026-04-26T07:49:51.412Z</time></trkpt><trkpt lat="44.9970203" lon="7.6251384"><ele>234.5</ele><time>2026-04-26T07:49:52.409Z</time></trkpt><trkpt lat="44.9967079" lon="7.6253321"><ele>234.0</ele><time>2026-04-26T07:49:53.404Z</time></trkpt><trkpt lat="44.9964019" lon="7.6255448"><ele>233.5</ele><time>2026-04-26T07:49:54.406Z</time></trkpt><trkpt lat="44.9960946" lon="7.6257668"><ele>233.0</ele><time>2026-04-26T07:49:55.409Z</time></trkpt><trkpt lat="44.9957827" lon="7.6260064"><ele>233.0</ele><time>2026-04-26T07:49:56.407Z</time></trkpt><trkpt lat="44.9954788" lon="7.626237"><ele>233.0</ele><time>2026-04-26T07:49:57.409Z</time></trkpt><trkpt lat="44.9951772" lon="7.626467"><ele>231.5</ele><time>2026-04-26T07:49:58.408Z</time></trkpt><trkpt lat="44.9948857" lon="7.6266978"><ele>230.0</ele><time>2026-04-26T07:49:59.396Z</time></trkpt><trkpt lat="44.9946024" lon="7.626945"><ele>231.0</ele><time>2026-04-26T07:50:00.39Z</time></trkpt><trkpt lat="44.994325" lon="7.6271892"><ele>232.0</ele><time>2026-04-26T07:50:01.395Z</time></trkpt><trkpt lat="44.9940507" lon="7.6274426"><ele>232.0</ele><time>2026-04-26T07:50:02.395Z</time></trkpt><trkpt lat="44.9937873" lon="7.6277053"><ele>232.0</ele><time>2026-04-26T07:50:03.404Z</time></trkpt><trkpt lat="44.9935267" lon="7.6279672"><ele>234.0</ele><time>2026-04-26T07:50:04.401Z</time></trkpt><trkpt lat="44.9932705" lon="7.6282271"><ele>236.0</ele><time>2026-04-26T07:50:05.403Z</time></trkpt><trkpt lat="44.9930299" lon="7.6284894"><ele>235.5</ele><time>2026-04-26T07:50:06.408Z</time></trkpt><trkpt lat="44.9927943" lon="7.6287583"><ele>235.0</ele><time>2026-04-26T07:50:07.411Z</time></trkpt><trkpt lat="44.9925662" lon="7.6290263"><ele>235.0</ele><time>2026-04-26T07:50:08.397Z</time></trkpt><trkpt lat="44.9923363" lon="7.6293008"><ele>235.0</ele><time>2026-04-26T07:50:09.393Z</time></trkpt><trkpt lat="44.9921117" lon="7.6295872"><ele>235.0</ele><time>2026-04-26T07:50:10.396Z</time></trkpt><trkpt lat="44.9918792" lon="7.6298831"><ele>235.0</ele><time>2026-04-26T07:50:11.388Z</time></trkpt><trkpt lat="44.9916518" lon="7.6301812"><ele>234.0</ele><time>2026-04-26T07:50:12.399Z</time></trkpt><trkpt lat="44.99142" lon="7.6304882"><ele>233.0</ele><time>2026-04-26T07:50:13.391Z</time></trkpt><trkpt lat="44.9911973" lon="7.6308127"><ele>233.0</ele><time>2026-04-26T07:50:14.391Z</time></trkpt><trkpt lat="44.9909738" lon="7.6311407"><ele>233.0</ele><time>2026-04-26T07:50:15.391Z</time></trkpt><trkpt lat="44.9907547" lon="7.6314757"><ele>234.0</ele><time>2026-04-26T07:50:16.403Z</time></trkpt><trkpt lat="44.9905274" lon="7.6318097"><ele>235.0</ele><time>2026-04-26T07:50:17.398Z</time></trkpt><trkpt lat="44.9903026" lon="7.6321501"><ele>235.0</ele><time>2026-04-26T07:50:18.394Z</time></trkpt><trkpt lat="44.9900766" lon="7.6324863"><ele>235.0</ele><time>2026-04-26T07:50:19.402Z</time></trkpt><trkpt lat="44.9898525" lon="7.6328277"><ele>235.0</ele><time>2026-04-26T07:50:20.39Z</time></trkpt><trkpt lat="44.9896316" lon="7.6331606"><ele>235.0</ele><time>2026-04-26T07:50:21.399Z</time></trkpt><trkpt lat="44.9894089" lon="7.6334928"><ele>234.0</ele><time>2026-04-26T07:50:22.408Z</time></trkpt><trkpt lat="44.9891863" lon="7.6338177"><ele>233.0</ele><time>2026-04-26T07:50:23.412Z</time></trkpt><trkpt lat="44.9889685" lon="7.6341471"><ele>233.5</ele><time>2026-04-26T07:50:24.407Z</time></trkpt><trkpt lat="44.9887483" lon="7.6344805"><ele>234.0</ele><time>2026-04-26T07:50:25.403Z</time></trkpt><trkpt lat="44.9885266" lon="7.6348193"><ele>234.0</ele><time>2026-04-26T07:50:26.394Z</time></trkpt><trkpt lat="44.9882985" lon="7.6351635"><ele>234.0</ele><time>2026-04-26T07:50:27.404Z</time></trkpt><trkpt lat="44.9880702" lon="7.6355162"><ele>234.0</ele><time>2026-04-26T07:50:28.411Z</time></trkpt><trkpt lat="44.9878322" lon="7.6358836"><ele>234.0</ele><time>2026-04-26T07:50:29.396Z</time></trkpt><trkpt lat="44.9875871" lon="7.6362569"><ele>234.5</ele><time>2026-04-26T07:50:30.403Z</time></trkpt><trkpt lat="44.9873388" lon="7.6366292"><ele>235.0</ele><time>2026-04-26T07:50:31.394Z</time></trkpt><trkpt lat="44.9870868" lon="7.6370028"><ele>235.0</ele><time>2026-04-26T07:50:32.39Z</time></trkpt><trkpt lat="44.9868413" lon="7.6373928"><ele>235.0</ele><time>2026-04-26T07:50:33.409Z</time></trkpt><trkpt lat="44.9865867" lon="7.6377757"><ele>234.5</ele><time>2026-04-26T07:50:34.393Z</time></trkpt><trkpt lat="44.9863319" lon="7.6381618"><ele>234.0</ele><time>2026-04-26T07:50:35.398Z</time></trkpt><trkpt lat="44.9860811" lon="7.638539"><ele>233.0</ele><time>2026-04-26T07:50:36.402Z</time></trkpt><trkpt lat="44.9858298" lon="7.638907"><ele>232.0</ele><time>2026-04-26T07:50:37.401Z</time></trkpt><trkpt lat="44.9855794" lon="7.6392687"><ele>231.0</ele><time>2026-04-26T07:50:38.4Z</time></trkpt><trkpt lat="44.9853289" lon="7.6396339"><ele>230.0</ele><time>2026-04-26T07:50:39.394Z</time></trkpt><trkpt lat="44.9850874" lon="7.6399974"><ele>231.0</ele><time>2026-04-26T07:50:40.396Z</time></trkpt><trkpt lat="44.98485" lon="7.6403533"><ele>232.0</ele><time>2026-04-26T07:50:41.404Z</time></trkpt><trkpt lat="44.9846148" lon="7.6407077"><ele>232.0</ele><time>2026-04-26T07:50:42.401Z</time></trkpt><trkpt lat="44.9843814" lon="7.6410597"><ele>232.0</ele><time>2026-04-26T07:50:43.398Z</time></trkpt><trkpt lat="44.9841537" lon="7.6414046"><ele>231.5</ele><time>2026-04-26T07:50:44.401Z</time></trkpt><trkpt lat="44.9839237" lon="7.6417548"><ele>231.0</ele><time>2026-04-26T07:50:45.403Z</time></trkpt><trkpt lat="44.9837056" lon="7.6421063"><ele>231.0</ele><time>2026-04-26T07:50:46.399Z</time></trkpt><trkpt lat="44.9834841" lon="7.6424515"><ele>231.0</ele><time>2026-04-26T07:50:47.402Z</time></trkpt><trkpt lat="44.9832648" lon="7.6427957"><ele>230.5</ele><time>2026-04-26T07:50:48.405Z</time></trkpt><trkpt lat="44.983046" lon="7.6431387"><ele>230.0</ele><time>2026-04-26T07:50:49.409Z</time></trkpt><trkpt lat="44.9828337" lon="7.6434781"><ele>230.0</ele><time>2026-04-26T07:50:50.403Z</time></trkpt><trkpt lat="44.9826202" lon="7.6438215"><ele>230.0</ele><time>2026-04-26T07:50:51.401Z</time></trkpt><trkpt lat="44.982416" lon="7.6441649"><ele>228.5</ele><time>2026-04-26T07:50:52.414Z</time></trkpt><trkpt lat="44.9822071" lon="7.6444997"><ele>227.0</ele><time>2026-04-26T07:50:53.406Z</time></trkpt><trkpt lat="44.981996" lon="7.6448373"><ele>227.0</ele><time>2026-04-26T07:50:54.413Z</time></trkpt><trkpt lat="44.981786" lon="7.645182"><ele>227.0</ele><time>2026-04-26T07:50:55.402Z</time></trkpt><trkpt lat="44.9815758" lon="7.6455211"><ele>227.5</ele><time>2026-04-26T07:50:56.405Z</time></trkpt><trkpt lat="44.9813667" lon="7.6458623"><ele>228.0</ele><time>2026-04-26T07:50:57.4Z</time></trkpt><trkpt lat="44.9811555" lon="7.6462101"><ele>228.0</ele><time>2026-04-26T07:50:58.396Z</time></trkpt><trkpt lat="44.9809513" lon="7.6465598"><ele>228.0</ele><time>2026-04-26T07:50:59.399Z</time></trkpt><trkpt lat="44.9807389" lon="7.6469048"><ele>228.0</ele><time>2026-04-26T07:51:00.406Z</time></trkpt><trkpt lat="44.9805279" lon="7.6472552"><ele>228.0</ele><time>2026-04-26T07:51:01.416Z</time></trkpt><trkpt lat="44.980312" lon="7.6476016"><ele>228.0</ele><time>2026-04-26T07:51:02.404Z</time></trkpt><trkpt lat="44.980097" lon="7.6479509"><ele>228.0</ele><time>2026-04-26T07:51:03.394Z</time></trkpt><trkpt lat="44.9798833" lon="7.648299"><ele>227.5</ele><time>2026-04-26T07:51:04.402Z</time></trkpt><trkpt lat="44.9796684" lon="7.6486446"><ele>227.0</ele><time>2026-04-26T07:51:05.39Z</time></trkpt><trkpt lat="44.9794585" lon="7.6489922"><ele>227.0</ele><time>2026-04-26T07:51:06.398Z</time></trkpt><trkpt lat="44.9792475" lon="7.6493361"><ele>227.0</ele><time>2026-04-26T07:51:07.41Z</time></trkpt><trkpt lat="44.9790363" lon="7.6496776"><ele>226.5</ele><time>2026-04-26T07:51:08.405Z</time></trkpt><trkpt lat="44.9788271" lon="7.6500301"><ele>226.0</ele><time>2026-04-26T07:51:09.399Z</time></trkpt><trkpt lat="44.9786177" lon="7.6503823"><ele>225.5</ele><time>2026-04-26T07:51:10.398Z</time></trkpt><trkpt lat="44.9784146" lon="7.6507434"><ele>225.0</ele><time>2026-04-26T07:51:11.396Z</time></trkpt><trkpt lat="44.978216" lon="7.6511122"><ele>225.5</ele><time>2026-04-26T07:51:12.403Z</time></trkpt><trkpt lat="44.978017" lon="7.6514776"><ele>226.0</ele><time>2026-04-26T07:51:13.4Z</time></trkpt><trkpt lat="44.9778183" lon="7.6518493"><ele>225.5</ele><time>2026-04-26T07:51:14.406Z</time></trkpt><trkpt lat="44.9776194" lon="7.6522191"><ele>225.0</ele><time>2026-04-26T07:51:15.4Z</time></trkpt><trkpt lat="44.9774241" lon="7.6525841"><ele>226.0</ele><time>2026-04-26T07:51:16.397Z</time></trkpt><trkpt lat="44.9772359" lon="7.652957"><ele>227.0</ele><time>2026-04-26T07:51:17.394Z</time></trkpt><trkpt lat="44.9770503" lon="7.6533468"><ele>226.0</ele><time>2026-04-26T07:51:18.392Z</time></trkpt><trkpt lat="44.9768667" lon="7.6537365"><ele>225.0</ele><time>2026-04-26T07:51:19.398Z</time></trkpt><trkpt lat="44.9766873" lon="7.6541259"><ele>225.0</ele><time>2026-04-26T07:51:20.394Z</time></trkpt><trkpt lat="44.9765111" lon="7.654521"><ele>225.0</ele><time>2026-04-26T07:51:21.397Z</time></trkpt><trkpt lat="44.9763339" lon="7.6549172"><ele>225.0</ele><time>2026-04-26T07:51:22.396Z</time></trkpt><trkpt lat="44.97616" lon="7.6553129"><ele>225.0</ele><time>2026-04-26T07:51:23.389Z</time></trkpt><trkpt lat="44.9759902" lon="7.6556999"><ele>226.0</ele><time>2026-04-26T07:51:24.389Z</time></trkpt><trkpt lat="44.9758235" lon="7.6560837"><ele>227.0</ele><time>2026-04-26T07:51:25.393Z</time></trkpt><trkpt lat="44.9756611" lon="7.656477"><ele>227.0</ele><time>2026-04-26T07:51:26.387Z</time></trkpt><trkpt lat="44.9755033" lon="7.6568714"><ele>227.0</ele><time>2026-04-26T07:51:27.385Z</time></trkpt><trkpt lat="44.9753487" lon="7.6572732"><ele>226.5</ele><time>2026-04-26T07:51:28.384Z</time></trkpt><trkpt lat="44.9751951" lon="7.6576789"><ele>226.0</ele><time>2026-04-26T07:51:29.397Z</time></trkpt><trkpt lat="44.9750461" lon="7.6580811"><ele>226.0</ele><time>2026-04-26T07:51:30.387Z</time></trkpt><trkpt lat="44.9749026" lon="7.6584896"><ele>226.0</ele><time>2026-04-26T07:51:31.391Z</time></trkpt><trkpt lat="44.9747606" lon="7.6588996"><ele>226.0</ele><time>2026-04-26T07:51:32.392Z</time></trkpt><trkpt lat="44.97462" lon="7.6593114"><ele>226.0</ele><time>2026-04-26T07:51:33.394Z</time></trkpt><trkpt lat="44.9744846" lon="7.6597193"><ele>225.0</ele><time>2026-04-26T07:51:34.419Z</time></trkpt><trkpt lat="44.9743525" lon="7.6601349"><ele>224.0</ele><time>2026-04-26T07:51:35.392Z</time></trkpt><trkpt lat="44.9742193" lon="7.6605483"><ele>223.5</ele><time>2026-04-26T07:51:36.388Z</time></trkpt><trkpt lat="44.9740893" lon="7.6609619"><ele>223.0</ele><time>2026-04-26T07:51:37.399Z</time></trkpt><trkpt lat="44.9739625" lon="7.6613722"><ele>223.0</ele><time>2026-04-26T07:51:38.398Z</time></trkpt><trkpt lat="44.9738423" lon="7.6617846"><ele>223.0</ele><time>2026-04-26T07:51:39.394Z</time></trkpt><trkpt lat="44.9737222" lon="7.6622009"><ele>223.0</ele><time>2026-04-26T07:51:40.391Z</time></trkpt><trkpt lat="44.9736145" lon="7.6626158"><ele>223.0</ele><time>2026-04-26T07:51:41.406Z</time></trkpt><trkpt lat="44.9735007" lon="7.6630348"><ele>223.0</ele><time>2026-04-26T07:51:42.394Z</time></trkpt><trkpt lat="44.9733927" lon="7.6634565"><ele>223.0</ele><time>2026-04-26T07:51:43.395Z</time></trkpt><trkpt lat="44.9732873" lon="7.6638798"><ele>223.0</ele><time>2026-04-26T07:51:44.387Z</time></trkpt><trkpt lat="44.973187" lon="7.6643079"><ele>223.0</ele><time>2026-04-26T07:51:45.394Z</time></trkpt><trkpt lat="44.9730896" lon="7.6647449"><ele>223.0</ele><time>2026-04-26T07:51:46.396Z</time></trkpt><trkpt lat="44.9729917" lon="7.6651848"><ele>223.0</ele><time>2026-04-26T07:51:47.395Z</time></trkpt><trkpt lat="44.9728888" lon="7.6656348"><ele>222.5</ele><time>2026-04-26T07:51:48.391Z</time></trkpt><trkpt lat="44.9727841" lon="7.6660795"><ele>222.0</ele><time>2026-04-26T07:51:49.399Z</time></trkpt><trkpt lat="44.9726792" lon="7.6665231"><ele>222.5</ele><time>2026-04-26T07:51:50.396Z</time></trkpt><trkpt lat="44.9725707" lon="7.6669688"><ele>223.0</ele><time>2026-04-26T07:51:51.4Z</time></trkpt><trkpt lat="44.9724656" lon="7.6674122"><ele>223.5</ele><time>2026-04-26T07:51:52.405Z</time></trkpt><trkpt lat="44.9723625" lon="7.6678592"><ele>224.0</ele><time>2026-04-26T07:51:53.392Z</time></trkpt><trkpt lat="44.9722624" lon="7.6683024"><ele>224.5</ele><time>2026-04-26T07:51:54.405Z</time></trkpt><trkpt lat="44.9721614" lon="7.6687563"><ele>225.0</ele><time>2026-04-26T07:51:55.401Z</time></trkpt><trkpt lat="44.9720647" lon="7.6692057"><ele>224.5</ele><time>2026-04-26T07:51:56.401Z</time></trkpt><trkpt lat="44.9719759" lon="7.6696539"><ele>224.0</ele><time>2026-04-26T07:51:57.397Z</time></trkpt><trkpt lat="44.9718743" lon="7.6701009"><ele>224.0</ele><time>2026-04-26T07:51:58.393Z</time></trkpt><trkpt lat="44.9717656" lon="7.6705448"><ele>224.0</ele><time>2026-04-26T07:51:59.401Z</time></trkpt><trkpt lat="44.9716608" lon="7.6709929"><ele>223.0</ele><time>2026-04-26T07:52:00.403Z</time></trkpt><trkpt lat="44.9715488" lon="7.6714347"><ele>222.0</ele><time>2026-04-26T07:52:01.387Z</time></trkpt><trkpt lat="44.9714413" lon="7.6718773"><ele>222.0</ele><time>2026-04-26T07:52:02.389Z</time></trkpt><trkpt lat="44.9713352" lon="7.6723119"><ele>222.0</ele><time>2026-04-26T07:52:03.389Z</time></trkpt><trkpt lat="44.9712323" lon="7.6727507"><ele>222.0</ele><time>2026-04-26T07:52:04.407Z</time></trkpt><trkpt lat="44.9711336" lon="7.6731923"><ele>222.0</ele><time>2026-04-26T07:52:05.39Z</time></trkpt><trkpt lat="44.9710284" lon="7.6736258"><ele>222.0</ele><time>2026-04-26T07:52:06.394Z</time></trkpt><trkpt lat="44.9709298" lon="7.6740637"><ele>222.0</ele><time>2026-04-26T07:52:07.389Z</time></trkpt><trkpt lat="44.9708256" lon="7.6745057"><ele>222.0</ele><time>2026-04-26T07:52:08.401Z</time></trkpt><trkpt lat="44.9707235" lon="7.6749407"><ele>222.0</ele><time>2026-04-26T07:52:09.386Z</time></trkpt><trkpt lat="44.9706186" lon="7.6753767"><ele>222.0</ele><time>2026-04-26T07:52:10.394Z</time></trkpt><trkpt lat="44.9705156" lon="7.6758085"><ele>222.0</ele><time>2026-04-26T07:52:11.391Z</time></trkpt><trkpt lat="44.9704176" lon="7.6762437"><ele>222.0</ele><time>2026-04-26T07:52:12.394Z</time></trkpt><trkpt lat="44.9703212" lon="7.67668"><ele>222.0</ele><time>2026-04-26T07:52:13.392Z</time></trkpt><trkpt lat="44.9702341" lon="7.6771087"><ele>222.5</ele><time>2026-04-26T07:52:14.39Z</time></trkpt><trkpt lat="44.9701553" lon="7.677549"><ele>223.0</ele><time>2026-04-26T07:52:15.392Z</time></trkpt><trkpt lat="44.9700944" lon="7.6779965"><ele>222.0</ele><time>2026-04-26T07:52:16.386Z</time></trkpt><trkpt lat="44.9700357" lon="7.6784443"><ele>221.0</ele><time>2026-04-26T07:52:17.394Z</time></trkpt><trkpt lat="44.9699803" lon="7.6788918"><ele>221.0</ele><time>2026-04-26T07:52:18.39Z</time></trkpt><trkpt lat="44.9699305" lon="7.6793365"><ele>221.0</ele><time>2026-04-26T07:52:19.391Z</time></trkpt><trkpt lat="44.9698884" lon="7.6797769"><ele>221.0</ele><time>2026-04-26T07:52:20.397Z</time></trkpt><trkpt lat="44.9698536" lon="7.6802285"><ele>221.0</ele><time>2026-04-26T07:52:21.392Z</time></trkpt><trkpt lat="44.9698319" lon="7.6806885"><ele>220.5</ele><time>2026-04-26T07:52:22.403Z</time></trkpt><trkpt lat="44.9698259" lon="7.6811432"><ele>220.0</ele><time>2026-04-26T07:52:23.396Z</time></trkpt><trkpt lat="44.9698308" lon="7.6816007"><ele>221.0</ele><time>2026-04-26T07:52:24.399Z</time></trkpt><trkpt lat="44.969842" lon="7.6820577"><ele>222.0</ele><time>2026-04-26T07:52:25.394Z</time></trkpt><trkpt lat="44.9698606" lon="7.6825174"><ele>224.0</ele><time>2026-04-26T07:52:26.389Z</time></trkpt><trkpt lat="44.9698895" lon="7.6829747"><ele>226.0</ele><time>2026-04-26T07:52:27.387Z</time></trkpt><trkpt lat="44.9699345" lon="7.6834379"><ele>225.0</ele><time>2026-04-26T07:52:28.403Z</time></trkpt><trkpt lat="44.9699803" lon="7.6838864"><ele>224.0</ele><time>2026-04-26T07:52:29.387Z</time></trkpt><trkpt lat="44.9700185" lon="7.6843516"><ele>223.5</ele><time>2026-04-26T07:52:30.392Z</time></trkpt><trkpt lat="44.9700541" lon="7.6848232"><ele>223.0</ele><time>2026-04-26T07:52:31.393Z</time></trkpt><trkpt lat="44.9700893" lon="7.6852971"><ele>223.0</ele><time>2026-04-26T07:52:32.39Z</time></trkpt><trkpt lat="44.9701235" lon="7.685769"><ele>223.0</ele><time>2026-04-26T07:52:33.384Z</time></trkpt><trkpt lat="44.9701558" lon="7.6862442"><ele>223.0</ele><time>2026-04-26T07:52:34.391Z</time></trkpt><trkpt lat="44.9701919" lon="7.6867194"><ele>223.0</ele><time>2026-04-26T07:52:35.396Z</time></trkpt><trkpt lat="44.9702279" lon="7.6871975"><ele>223.0</ele><time>2026-04-26T07:52:36.39Z</time></trkpt><trkpt lat="44.9702682" lon="7.6876689"><ele>223.0</ele><time>2026-04-26T07:52:37.389Z</time></trkpt><trkpt lat="44.9703123" lon="7.688138"><ele>223.0</ele><time>2026-04-26T07:52:38.387Z</time></trkpt><trkpt lat="44.9703501" lon="7.6886079"><ele>223.0</ele><time>2026-04-26T07:52:39.392Z</time></trkpt><trkpt lat="44.9703896" lon="7.6890727"><ele>223.0</ele><time>2026-04-26T07:52:40.387Z</time></trkpt><trkpt lat="44.9704296" lon="7.6895436"><ele>223.0</ele><time>2026-04-26T07:52:41.398Z</time></trkpt><trkpt lat="44.9704737" lon="7.6900052"><ele>223.5</ele><time>2026-04-26T07:52:42.408Z</time></trkpt><trkpt lat="44.970514" lon="7.6904677"><ele>224.0</ele><time>2026-04-26T07:52:43.402Z</time></trkpt><trkpt lat="44.9705557" lon="7.6909264"><ele>224.5</ele><time>2026-04-26T07:52:44.393Z</time></trkpt><trkpt lat="44.9705979" lon="7.6913826"><ele>225.0</ele><time>2026-04-26T07:52:45.397Z</time></trkpt><trkpt lat="44.9706376" lon="7.6918505"><ele>222.0</ele><time>2026-04-26T07:52:46.407Z</time></trkpt><trkpt lat="44.9706791" lon="7.692312"><ele>219.0</ele><time>2026-04-26T07:52:47.392Z</time></trkpt><trkpt lat="44.9707226" lon="7.6927846"><ele>218.5</ele><time>2026-04-26T07:52:48.394Z</time></trkpt><trkpt lat="44.9707609" lon="7.6932534"><ele>218.0</ele><time>2026-04-26T07:52:49.394Z</time></trkpt><trkpt lat="44.970798" lon="7.6937203"><ele>218.0</ele><time>2026-04-26T07:52:50.395Z</time></trkpt><trkpt lat="44.970845" lon="7.6941725"><ele>218.0</ele><time>2026-04-26T07:52:51.402Z</time></trkpt><trkpt lat="44.9708827" lon="7.6946274"><ele>218.5</ele><time>2026-04-26T07:52:52.389Z</time></trkpt><trkpt lat="44.9709179" lon="7.6950777"><ele>219.0</ele><time>2026-04-26T07:52:53.398Z</time></trkpt><trkpt lat="44.9709422" lon="7.6955145"><ele>219.0</ele><time>2026-04-26T07:52:54.4Z</time></trkpt><trkpt lat="44.9709605" lon="7.6959347"><ele>219.0</ele><time>2026-04-26T07:52:55.396Z</time></trkpt><trkpt lat="44.9709807" lon="7.6963356"><ele>221.5</ele><time>2026-04-26T07:52:56.398Z</time></trkpt><trkpt lat="44.9709966" lon="7.6967135"><ele>224.0</ele><time>2026-04-26T07:52:57.4Z</time></trkpt><trkpt lat="44.9710173" lon="7.6970758"><ele>224.0</ele><time>2026-04-26T07:52:58.403Z</time></trkpt><trkpt lat="44.9710269" lon="7.6974232"><ele>224.0</ele><time>2026-04-26T07:52:59.392Z</time></trkpt><trkpt lat="44.9710146" lon="7.6977608"><ele>223.5</ele><time>2026-04-26T07:53:00.4Z</time></trkpt><trkpt lat="44.9709769" lon="7.698085"><ele>223.0</ele><time>2026-04-26T07:53:01.39Z</time></trkpt><trkpt lat="44.9708972" lon="7.6983945"><ele>222.5</ele><time>2026-04-26T07:53:02.399Z</time></trkpt><trkpt lat="44.9707833" lon="7.6986932"><ele>222.0</ele><time>2026-04-26T07:53:03.392Z</time></trkpt><trkpt lat="44.9706422" lon="7.6989548"><ele>222.0</ele><time>2026-04-26T07:53:04.395Z</time></trkpt><trkpt lat="44.9704636" lon="7.6992057"><ele>222.0</ele><time>2026-04-26T07:53:05.393Z</time></trkpt><trkpt lat="44.9702536" lon="7.699435"><ele>221.5</ele><time>2026-04-26T07:53:06.402Z</time></trkpt><trkpt lat="44.9700441" lon="7.6996476"><ele>221.0</ele><time>2026-04-26T07:53:07.394Z</time></trkpt><trkpt lat="44.9698283" lon="7.6998788"><ele>221.0</ele><time>2026-04-26T07:53:08.385Z</time></trkpt><trkpt lat="44.9696268" lon="7.7001299"><ele>221.0</ele><time>2026-04-26T07:53:09.401Z</time></trkpt><trkpt lat="44.9694357" lon="7.7004267"><ele>220.5</ele><time>2026-04-26T07:53:10.385Z</time></trkpt><trkpt lat="44.9692712" lon="7.7007441"><ele>220.0</ele><time>2026-04-26T07:53:11.387Z</time></trkpt><trkpt lat="44.9691066" lon="7.7010837"><ele>220.0</ele><time>2026-04-26T07:53:12.409Z</time></trkpt><trkpt lat="44.9689744" lon="7.7014279"><ele>220.0</ele><time>2026-04-26T07:53:13.398Z</time></trkpt><trkpt lat="44.9688611" lon="7.7017635"><ele>222.0</ele><time>2026-04-26T07:53:14.387Z</time></trkpt><trkpt lat="44.9687411" lon="7.7020686"><ele>224.0</ele><time>2026-04-26T07:53:15.404Z</time></trkpt><trkpt lat="44.9685844" lon="7.7023589"><ele>224.0</ele><time>2026-04-26T07:53:16.397Z</time></trkpt><trkpt lat="44.9684179" lon="7.7026018"><ele>224.0</ele><time>2026-04-26T07:53:17.397Z</time></trkpt><trkpt lat="44.9682347" lon="7.7027663"><ele>223.0</ele><time>2026-04-26T07:53:18.392Z</time></trkpt><trkpt lat="44.9680503" lon="7.7028901"><ele>222.0</ele><time>2026-04-26T07:53:19.402Z</time></trkpt><trkpt lat="44.9678593" lon="7.7029947"><ele>221.0</ele><time>2026-04-26T07:53:20.406Z</time></trkpt><trkpt lat="44.9676621" lon="7.7030966"><ele>221.5</ele><time>2026-04-26T07:53:21.407Z</time></trkpt><trkpt lat="44.9674389" lon="7.7031962"><ele>222.0</ele><time>2026-04-26T07:53:22.397Z</time></trkpt><trkpt lat="44.96719" lon="7.7033012"><ele>222.0</ele><time>2026-04-26T07:53:23.409Z</time></trkpt><trkpt lat="44.9669026" lon="7.7034124"><ele>222.0</ele><time>2026-04-26T07:53:24.408Z</time></trkpt><trkpt lat="44.9665966" lon="7.7035174"><ele>221.5</ele><time>2026-04-26T07:53:25.396Z</time></trkpt><trkpt lat="44.9662709" lon="7.7036158"><ele>221.0</ele><time>2026-04-26T07:53:26.396Z</time></trkpt><trkpt lat="44.9659489" lon="7.7037143"><ele>221.0</ele><time>2026-04-26T07:53:27.396Z</time></trkpt><trkpt lat="44.9656178" lon="7.7038059"><ele>221.0</ele><time>2026-04-26T07:53:28.399Z</time></trkpt><trkpt lat="44.9652919" lon="7.703897"><ele>221.0</ele><time>2026-04-26T07:53:29.389Z</time></trkpt><trkpt lat="44.9649611" lon="7.7039783"><ele>221.0</ele><time>2026-04-26T07:53:30.387Z</time></trkpt><trkpt lat="44.9646321" lon="7.7040564"><ele>221.0</ele><time>2026-04-26T07:53:31.392Z</time></trkpt><trkpt lat="44.9643017" lon="7.7041384"><ele>221.0</ele><time>2026-04-26T07:53:32.396Z</time></trkpt><trkpt lat="44.9639698" lon="7.7042162"><ele>222.0</ele><time>2026-04-26T07:53:33.393Z</time></trkpt><trkpt lat="44.9636394" lon="7.7043015"><ele>223.0</ele><time>2026-04-26T07:53:34.407Z</time></trkpt><trkpt lat="44.9633147" lon="7.7043891"><ele>222.5</ele><time>2026-04-26T07:53:35.393Z</time></trkpt><trkpt lat="44.9629977" lon="7.7044893"><ele>222.0</ele><time>2026-04-26T07:53:36.398Z</time></trkpt><trkpt lat="44.9626822" lon="7.7046084"><ele>222.5</ele><time>2026-04-26T07:53:37.393Z</time></trkpt><trkpt lat="44.962371" lon="7.7047555"><ele>223.0</ele><time>2026-04-26T07:53:38.381Z</time></trkpt><trkpt lat="44.9620716" lon="7.7049125"><ele>223.0</ele><time>2026-04-26T07:53:39.387Z</time></trkpt><trkpt lat="44.9617696" lon="7.7050927"><ele>223.0</ele><time>2026-04-26T07:53:40.394Z</time></trkpt><trkpt lat="44.9614696" lon="7.705294"><ele>223.5</ele><time>2026-04-26T07:53:41.386Z</time></trkpt><trkpt lat="44.9611723" lon="7.7055024"><ele>224.0</ele><time>2026-04-26T07:53:42.384Z</time></trkpt><trkpt lat="44.9608732" lon="7.7057329"><ele>224.0</ele><time>2026-04-26T07:53:43.394Z</time></trkpt><trkpt lat="44.9605822" lon="7.7059749"><ele>224.0</ele><time>2026-04-26T07:53:44.4Z</time></trkpt><trkpt lat="44.9602899" lon="7.706236"><ele>223.5</ele><time>2026-04-26T07:53:45.394Z</time></trkpt><trkpt lat="44.9600117" lon="7.706513"><ele>223.0</ele><time>2026-04-26T07:53:46.389Z</time></trkpt><trkpt lat="44.9597375" lon="7.7067928"><ele>223.0</ele><time>2026-04-26T07:53:47.388Z</time></trkpt><trkpt lat="44.9594729" lon="7.7070827"><ele>223.0</ele><time>2026-04-26T07:53:48.402Z</time></trkpt><trkpt lat="44.9592132" lon="7.7073792"><ele>223.0</ele><time>2026-04-26T07:53:49.392Z</time></trkpt><trkpt lat="44.9589506" lon="7.7076811"><ele>223.0</ele><time>2026-04-26T07:53:50.4Z</time></trkpt><trkpt lat="44.9586923" lon="7.707993"><ele>223.0</ele><time>2026-04-26T07:53:51.404Z</time></trkpt><trkpt lat="44.9584341" lon="7.7082994"><ele>223.0</ele><time>2026-04-26T07:53:52.394Z</time></trkpt><trkpt lat="44.9581754" lon="7.7085993"><ele>223.5</ele><time>2026-04-26T07:53:53.391Z</time></trkpt><trkpt lat="44.9579199" lon="7.7088994"><ele>224.0</ele><time>2026-04-26T07:53:54.388Z</time></trkpt><trkpt lat="44.9576625" lon="7.7091887"><ele>225.5</ele><time>2026-04-26T07:53:55.39Z</time></trkpt><trkpt lat="44.9573981" lon="7.7094745"><ele>227.0</ele><time>2026-04-26T07:53:56.39Z</time></trkpt><trkpt lat="44.9571276" lon="7.7097472"><ele>227.0</ele><time>2026-04-26T07:53:57.393Z</time></trkpt><trkpt lat="44.9568573" lon="7.7100138"><ele>227.0</ele><time>2026-04-26T07:53:58.387Z</time></trkpt><trkpt lat="44.9565765" lon="7.7102723"><ele>226.5</ele><time>2026-04-26T07:53:59.402Z</time></trkpt><trkpt lat="44.9562998" lon="7.7105209"><ele>226.0</ele><time>2026-04-26T07:54:00.386Z</time></trkpt><trkpt lat="44.9560173" lon="7.710755"><ele>225.0</ele><time>2026-04-26T07:54:01.393Z</time></trkpt><trkpt lat="44.9557263" lon="7.7109896"><ele>224.0</ele><time>2026-04-26T07:54:02.388Z</time></trkpt><trkpt lat="44.9554259" lon="7.7112094"><ele>224.0</ele><time>2026-04-26T07:54:03.396Z</time></trkpt><trkpt lat="44.9551158" lon="7.7114294"><ele>224.0</ele><time>2026-04-26T07:54:04.392Z</time></trkpt><trkpt lat="44.9547757" lon="7.7116362"><ele>224.0</ele><time>2026-04-26T07:54:05.385Z</time></trkpt><trkpt lat="44.9544174" lon="7.7118437"><ele>224.0</ele><time>2026-04-26T07:54:06.392Z</time></trkpt><trkpt lat="44.9540396" lon="7.7120421"><ele>224.0</ele><time>2026-04-26T07:54:07.393Z</time></trkpt><trkpt lat="44.9536658" lon="7.7122132"><ele>224.0</ele><time>2026-04-26T07:54:08.397Z</time></trkpt><trkpt lat="44.9532946" lon="7.7123719"><ele>225.5</ele><time>2026-04-26T07:54:09.389Z</time></trkpt><trkpt lat="44.9529289" lon="7.7125194"><ele>227.0</ele><time>2026-04-26T07:54:10.412Z</time></trkpt><trkpt lat="44.9525588" lon="7.7126489"><ele>226.5</ele><time>2026-04-26T07:54:11.387Z</time></trkpt><trkpt lat="44.9521899" lon="7.712774"><ele>226.0</ele><time>2026-04-26T07:54:12.392Z</time></trkpt><trkpt lat="44.9518264" lon="7.7128823"><ele>225.0</ele><time>2026-04-26T07:54:13.393Z</time></trkpt><trkpt lat="44.951465" lon="7.7129965"><ele>224.0</ele><time>2026-04-26T07:54:14.396Z</time></trkpt><trkpt lat="44.9511065" lon="7.7131051"><ele>223.5</ele><time>2026-04-26T07:54:15.382Z</time></trkpt><trkpt lat="44.950746" lon="7.7132172"><ele>223.0</ele><time>2026-04-26T07:54:16.397Z</time></trkpt><trkpt lat="44.9503954" lon="7.7133181"><ele>223.0</ele><time>2026-04-26T07:54:17.408Z</time></trkpt><trkpt lat="44.9500447" lon="7.7134261"><ele>223.0</ele><time>2026-04-26T07:54:18.392Z</time></trkpt><trkpt lat="44.9496965" lon="7.7135396"><ele>223.5</ele><time>2026-04-26T07:54:19.396Z</time></trkpt><trkpt lat="44.9493495" lon="7.713658"><ele>224.0</ele><time>2026-04-26T07:54:20.39Z</time></trkpt><trkpt lat="44.9490018" lon="7.7137894"><ele>224.5</ele><time>2026-04-26T07:54:21.393Z</time></trkpt><trkpt lat="44.9486534" lon="7.71393"><ele>225.0</ele><time>2026-04-26T07:54:22.382Z</time></trkpt><trkpt lat="44.948312" lon="7.7140698"><ele>225.0</ele><time>2026-04-26T07:54:23.398Z</time></trkpt><trkpt lat="44.9479722" lon="7.7142179"><ele>225.0</ele><time>2026-04-26T07:54:24.389Z</time></trkpt><trkpt lat="44.9476326" lon="7.7143762"><ele>224.5</ele><time>2026-04-26T07:54:25.386Z</time></trkpt><trkpt lat="44.9472897" lon="7.7145382"><ele>224.0</ele><time>2026-04-26T07:54:26.391Z</time></trkpt><trkpt lat="44.946955" lon="7.7147117"><ele>226.0</ele><time>2026-04-26T07:54:27.387Z</time></trkpt><trkpt lat="44.9466278" lon="7.7148929"><ele>228.0</ele><time>2026-04-26T07:54:28.4Z</time></trkpt><trkpt lat="44.9463013" lon="7.7150953"><ele>227.5</ele><time>2026-04-26T07:54:29.38Z</time></trkpt><trkpt lat="44.9459819" lon="7.7153025"><ele>227.0</ele><time>2026-04-26T07:54:30.383Z</time></trkpt><trkpt lat="44.945659" lon="7.7155197"><ele>227.0</ele><time>2026-04-26T07:54:31.389Z</time></trkpt><trkpt lat="44.9453304" lon="7.7157471"><ele>227.0</ele><time>2026-04-26T07:54:32.384Z</time></trkpt><trkpt lat="44.9450094" lon="7.7159757"><ele>226.0</ele><time>2026-04-26T07:54:33.386Z</time></trkpt><trkpt lat="44.9446871" lon="7.7162044"><ele>225.0</ele><time>2026-04-26T07:54:34.387Z</time></trkpt><trkpt lat="44.9443726" lon="7.7164314"><ele>225.0</ele><time>2026-04-26T07:54:35.39Z</time></trkpt><trkpt lat="44.9440533" lon="7.716658"><ele>225.0</ele><time>2026-04-26T07:54:36.391Z</time></trkpt><trkpt lat="44.9437356" lon="7.7168738"><ele>225.0</ele><time>2026-04-26T07:54:37.388Z</time></trkpt><trkpt lat="44.9434186" lon="7.7170877"><ele>225.0</ele><time>2026-04-26T07:54:38.39Z</time></trkpt><trkpt lat="44.9431" lon="7.7173036"><ele>225.0</ele><time>2026-04-26T07:54:39.4Z</time></trkpt><trkpt lat="44.9427816" lon="7.7175192"><ele>225.0</ele><time>2026-04-26T07:54:40.389Z</time></trkpt><trkpt lat="44.942468" lon="7.7177368"><ele>226.0</ele><time>2026-04-26T07:54:41.391Z</time></trkpt><trkpt lat="44.9421548" lon="7.7179543"><ele>227.0</ele><time>2026-04-26T07:54:42.385Z</time></trkpt><trkpt lat="44.9418455" lon="7.7181713"><ele>225.5</ele><time>2026-04-26T07:54:43.399Z</time></trkpt><trkpt lat="44.941535" lon="7.7183822"><ele>224.0</ele><time>2026-04-26T07:54:44.388Z</time></trkpt><trkpt lat="44.9412302" lon="7.7185915"><ele>224.0</ele><time>2026-04-26T07:54:45.381Z</time></trkpt><trkpt lat="44.9409191" lon="7.718808"><ele>224.0</ele><time>2026-04-26T07:54:46.39Z</time></trkpt><trkpt lat="44.9406078" lon="7.7190127"><ele>225.0</ele><time>2026-04-26T07:54:47.39Z</time></trkpt><trkpt lat="44.9402995" lon="7.7192273"><ele>226.0</ele><time>2026-04-26T07:54:48.383Z</time></trkpt><trkpt lat="44.9399843" lon="7.7194322"><ele>226.0</ele><time>2026-04-26T07:54:49.381Z</time></trkpt><trkpt lat="44.9396667" lon="7.7196428"><ele>226.0</ele><time>2026-04-26T07:54:50.4Z</time></trkpt><trkpt lat="44.9393577" lon="7.7198566"><ele>225.0</ele><time>2026-04-26T07:54:51.4Z</time></trkpt><trkpt lat="44.9390464" lon="7.7200744"><ele>224.0</ele><time>2026-04-26T07:54:52.392Z</time></trkpt><trkpt lat="44.9387355" lon="7.7202864"><ele>226.0</ele><time>2026-04-26T07:54:53.39Z</time></trkpt><trkpt lat="44.9384218" lon="7.7204974"><ele>228.0</ele><time>2026-04-26T07:54:54.395Z</time></trkpt><trkpt lat="44.9381095" lon="7.7207128"><ele>228.5</ele><time>2026-04-26T07:54:55.396Z</time></trkpt><trkpt lat="44.9377978" lon="7.7209272"><ele>229.0</ele><time>2026-04-26T07:54:56.4Z</time></trkpt><trkpt lat="44.9374871" lon="7.7211423"><ele>228.0</ele><time>2026-04-26T07:54:57.387Z</time></trkpt><trkpt lat="44.9371755" lon="7.721361"><ele>227.0</ele><time>2026-04-26T07:54:58.39Z</time></trkpt><trkpt lat="44.9368589" lon="7.7215731"><ele>226.5</ele><time>2026-04-26T07:54:59.4Z</time></trkpt><trkpt lat="44.9365434" lon="7.7217892"><ele>226.0</ele><time>2026-04-26T07:55:00.398Z</time></trkpt><trkpt lat="44.9362278" lon="7.7220094"><ele>226.5</ele><time>2026-04-26T07:55:01.392Z</time></trkpt><trkpt lat="44.9359116" lon="7.7222295"><ele>227.0</ele><time>2026-04-26T07:55:02.388Z</time></trkpt><trkpt lat="44.9355961" lon="7.7224492"><ele>227.0</ele><time>2026-04-26T07:55:03.397Z</time></trkpt><trkpt lat="44.9352816" lon="7.7226679"><ele>227.0</ele><time>2026-04-26T07:55:04.389Z</time></trkpt><trkpt lat="44.9349675" lon="7.7228821"><ele>225.5</ele><time>2026-04-26T07:55:05.387Z</time></trkpt><trkpt lat="44.934653" lon="7.7230978"><ele>224.0</ele><time>2026-04-26T07:55:06.4Z</time></trkpt><trkpt lat="44.9343378" lon="7.7233077"><ele>224.5</ele><time>2026-04-26T07:55:07.397Z</time></trkpt><trkpt lat="44.9340213" lon="7.7235311"><ele>225.0</ele><time>2026-04-26T07:55:08.389Z</time></trkpt><trkpt lat="44.9336992" lon="7.7237537"><ele>224.5</ele><time>2026-04-26T07:55:09.392Z</time></trkpt><trkpt lat="44.9333778" lon="7.7239749"><ele>224.0</ele><time>2026-04-26T07:55:10.39Z</time></trkpt><trkpt lat="44.9330586" lon="7.7241919"><ele>225.5</ele><time>2026-04-26T07:55:11.387Z</time></trkpt><trkpt lat="44.9327344" lon="7.7244139"><ele>227.0</ele><time>2026-04-26T07:55:12.395Z</time></trkpt><trkpt lat="44.9324101" lon="7.7246351"><ele>227.5</ele><time>2026-04-26T07:55:13.382Z</time></trkpt><trkpt lat="44.9320836" lon="7.7248657"><ele>228.0</ele><time>2026-04-26T07:55:14.383Z</time></trkpt><trkpt lat="44.9317511" lon="7.7251164"><ele>227.0</ele><time>2026-04-26T07:55:15.394Z</time></trkpt><trkpt lat="44.931413" lon="7.725363"><ele>226.0</ele><time>2026-04-26T07:55:16.402Z</time></trkpt><trkpt lat="44.9310659" lon="7.7256067"><ele>226.0</ele><time>2026-04-26T07:55:17.387Z</time></trkpt><trkpt lat="44.9307157" lon="7.7258521"><ele>226.0</ele><time>2026-04-26T07:55:18.393Z</time></trkpt><trkpt lat="44.9303712" lon="7.7260929"><ele>225.5</ele><time>2026-04-26T07:55:19.392Z</time></trkpt><trkpt lat="44.930022" lon="7.7263306"><ele>225.0</ele><time>2026-04-26T07:55:20.385Z</time></trkpt><trkpt lat="44.9296729" lon="7.7265702"><ele>225.0</ele><time>2026-04-26T07:55:21.396Z</time></trkpt><trkpt lat="44.929326" lon="7.7268043"><ele>225.0</ele><time>2026-04-26T07:55:22.384Z</time></trkpt><trkpt lat="44.9289793" lon="7.7270414"><ele>225.0</ele><time>2026-04-26T07:55:23.393Z</time></trkpt><trkpt lat="44.9286332" lon="7.7272733"><ele>225.0</ele><time>2026-04-26T07:55:24.392Z</time></trkpt><trkpt lat="44.928293" lon="7.727509"><ele>225.5</ele><time>2026-04-26T07:55:25.39Z</time></trkpt><trkpt lat="44.9279526" lon="7.7277458"><ele>226.0</ele><time>2026-04-26T07:55:26.396Z</time></trkpt><trkpt lat="44.9276097" lon="7.7279844"><ele>226.0</ele><time>2026-04-26T07:55:27.423Z</time></trkpt><trkpt lat="44.927267" lon="7.7282156"><ele>226.0</ele><time>2026-04-26T07:55:28.384Z</time></trkpt><trkpt lat="44.9269351" lon="7.728451"><ele>225.5</ele><time>2026-04-26T07:55:29.402Z</time></trkpt><trkpt lat="44.9266038" lon="7.7286761"><ele>225.0</ele><time>2026-04-26T07:55:30.387Z</time></trkpt><trkpt lat="44.9262701" lon="7.7288988"><ele>225.0</ele><time>2026-04-26T07:55:31.396Z</time></trkpt><trkpt lat="44.9259364" lon="7.7291173"><ele>225.0</ele><time>2026-04-26T07:55:32.392Z</time></trkpt><trkpt lat="44.9256021" lon="7.7293298"><ele>225.0</ele><time>2026-04-26T07:55:33.391Z</time></trkpt><trkpt lat="44.9252701" lon="7.7295469"><ele>225.0</ele><time>2026-04-26T07:55:34.386Z</time></trkpt><trkpt lat="44.9249464" lon="7.7297671"><ele>226.0</ele><time>2026-04-26T07:55:35.388Z</time></trkpt><trkpt lat="44.9246212" lon="7.7299877"><ele>227.0</ele><time>2026-04-26T07:55:36.388Z</time></trkpt><trkpt lat="44.9242948" lon="7.7302127"><ele>227.5</ele><time>2026-04-26T07:55:37.395Z</time></trkpt><trkpt lat="44.9239696" lon="7.7304352"><ele>228.0</ele><time>2026-04-26T07:55:38.398Z</time></trkpt><trkpt lat="44.9236484" lon="7.7306548"><ele>228.0</ele><time>2026-04-26T07:55:39.388Z</time></trkpt><trkpt lat="44.9233296" lon="7.7308745"><ele>228.0</ele><time>2026-04-26T07:55:40.399Z</time></trkpt><trkpt lat="44.9230053" lon="7.7310959"><ele>229.5</ele><time>2026-04-26T07:55:41.416Z</time></trkpt><trkpt lat="44.9226825" lon="7.7313133"><ele>231.0</ele><time>2026-04-26T07:55:42.387Z</time></trkpt><trkpt lat="44.9223603" lon="7.7315371"><ele>231.5</ele><time>2026-04-26T07:55:43.388Z</time></trkpt><trkpt lat="44.9220357" lon="7.7317609"><ele>232.0</ele><time>2026-04-26T07:55:44.391Z</time></trkpt><trkpt lat="44.9217129" lon="7.7319786"><ele>229.5</ele><time>2026-04-26T07:55:45.395Z</time></trkpt><trkpt lat="44.9213866" lon="7.7321978"><ele>227.0</ele><time>2026-04-26T07:55:46.408Z</time></trkpt><trkpt lat="44.9210604" lon="7.7324221"><ele>227.0</ele><time>2026-04-26T07:55:47.387Z</time></trkpt><trkpt lat="44.9207357" lon="7.7326508"><ele>227.0</ele><time>2026-04-26T07:55:48.404Z</time></trkpt><trkpt lat="44.9204099" lon="7.7328778"><ele>227.0</ele><time>2026-04-26T07:55:49.393Z</time></trkpt><trkpt lat="44.920087" lon="7.7331054"><ele>227.0</ele><time>2026-04-26T07:55:50.397Z</time></trkpt><trkpt lat="44.9197618" lon="7.7333306"><ele>227.5</ele><time>2026-04-26T07:55:51.391Z</time></trkpt><trkpt lat="44.9194345" lon="7.7335545"><ele>228.0</ele><time>2026-04-26T07:55:52.4Z</time></trkpt><trkpt lat="44.9191103" lon="7.7337763"><ele>229.0</ele><time>2026-04-26T07:55:53.395Z</time></trkpt><trkpt lat="44.9187874" lon="7.7340036"><ele>230.0</ele><time>2026-04-26T07:55:54.394Z</time></trkpt><trkpt lat="44.918468" lon="7.7342253"><ele>230.0</ele><time>2026-04-26T07:55:55.396Z</time></trkpt><trkpt lat="44.9181446" lon="7.7344499"><ele>230.0</ele><time>2026-04-26T07:55:56.403Z</time></trkpt><trkpt lat="44.9178176" lon="7.7346732"><ele>229.5</ele><time>2026-04-26T07:55:57.398Z</time></trkpt><trkpt lat="44.9174978" lon="7.7348953"><ele>229.0</ele><time>2026-04-26T07:55:58.396Z</time></trkpt><trkpt lat="44.9171747" lon="7.735116"><ele>228.5</ele><time>2026-04-26T07:55:59.394Z</time></trkpt><trkpt lat="44.916852" lon="7.7353357"><ele>228.0</ele><time>2026-04-26T07:56:00.394Z</time></trkpt><trkpt lat="44.9165279" lon="7.7355493"><ele>228.0</ele><time>2026-04-26T07:56:01.398Z</time></trkpt><trkpt lat="44.9162059" lon="7.7357697"><ele>228.0</ele><time>2026-04-26T07:56:02.388Z</time></trkpt><trkpt lat="44.9158834" lon="7.7359945"><ele>228.0</ele><time>2026-04-26T07:56:03.39Z</time></trkpt><trkpt lat="44.9155579" lon="7.7362235"><ele>228.0</ele><time>2026-04-26T07:56:04.379Z</time></trkpt><trkpt lat="44.9152227" lon="7.7364478"><ele>229.0</ele><time>2026-04-26T07:56:05.391Z</time></trkpt><trkpt lat="44.9148907" lon="7.7366762"><ele>230.0</ele><time>2026-04-26T07:56:06.392Z</time></trkpt><trkpt lat="44.9145554" lon="7.7369109"><ele>230.0</ele><time>2026-04-26T07:56:07.388Z</time></trkpt><trkpt lat="44.9142062" lon="7.737159"><ele>230.0</ele><time>2026-04-26T07:56:08.387Z</time></trkpt><trkpt lat="44.9138434" lon="7.7374151"><ele>230.0</ele><time>2026-04-26T07:56:09.386Z</time></trkpt><trkpt lat="44.9134619" lon="7.7376868"><ele>230.0</ele><time>2026-04-26T07:56:10.39Z</time></trkpt><trkpt lat="44.9130618" lon="7.7379692"><ele>230.0</ele><time>2026-04-26T07:56:11.387Z</time></trkpt><trkpt lat="44.9126624" lon="7.7382481"><ele>230.0</ele><time>2026-04-26T07:56:12.393Z</time></trkpt><trkpt lat="44.9122633" lon="7.7385237"><ele>231.0</ele><time>2026-04-26T07:56:13.392Z</time></trkpt><trkpt lat="44.9118788" lon="7.7387907"><ele>232.0</ele><time>2026-04-26T07:56:14.394Z</time></trkpt><trkpt lat="44.9115011" lon="7.7390559"><ele>232.0</ele><time>2026-04-26T07:56:15.387Z</time></trkpt><trkpt lat="44.9111314" lon="7.7393141"><ele>232.0</ele><time>2026-04-26T07:56:16.39Z</time></trkpt><trkpt lat="44.9107686" lon="7.7395626"><ele>232.0</ele><time>2026-04-26T07:56:17.397Z</time></trkpt><trkpt lat="44.9104088" lon="7.7398046"><ele>232.0</ele><time>2026-04-26T07:56:18.39Z</time></trkpt><trkpt lat="44.910053" lon="7.7400475"><ele>232.0</ele><time>2026-04-26T07:56:19.39Z</time></trkpt><trkpt lat="44.9097" lon="7.7402823"><ele>232.0</ele><time>2026-04-26T07:56:20.383Z</time></trkpt><trkpt lat="44.9093484" lon="7.7405249"><ele>232.0</ele><time>2026-04-26T07:56:21.385Z</time></trkpt><trkpt lat="44.9090012" lon="7.740767"><ele>232.0</ele><time>2026-04-26T07:56:22.391Z</time></trkpt><trkpt lat="44.9086564" lon="7.7410033"><ele>232.5</ele><time>2026-04-26T07:56:23.391Z</time></trkpt><trkpt lat="44.9083082" lon="7.741245"><ele>233.0</ele><time>2026-04-26T07:56:24.405Z</time></trkpt><trkpt lat="44.9079611" lon="7.7414839"><ele>233.0</ele><time>2026-04-26T07:56:25.391Z</time></trkpt><trkpt lat="44.9076145" lon="7.7417141"><ele>233.0</ele><time>2026-04-26T07:56:26.393Z</time></trkpt><trkpt lat="44.9072661" lon="7.7419327"><ele>233.5</ele><time>2026-04-26T07:56:27.381Z</time></trkpt><trkpt lat="44.9069095" lon="7.7421525"><ele>234.0</ele><time>2026-04-26T07:56:28.383Z</time></trkpt><trkpt lat="44.9065619" lon="7.7423645"><ele>234.5</ele><time>2026-04-26T07:56:29.393Z</time></trkpt><trkpt lat="44.9062121" lon="7.7425641"><ele>235.0</ele><time>2026-04-26T07:56:30.391Z</time></trkpt><trkpt lat="44.905855" lon="7.7427561"><ele>235.0</ele><time>2026-04-26T07:56:31.394Z</time></trkpt><trkpt lat="44.9054993" lon="7.7429418"><ele>235.0</ele><time>2026-04-26T07:56:32.394Z</time></trkpt><trkpt lat="44.9051398" lon="7.7431209"><ele>235.0</ele><time>2026-04-26T07:56:33.39Z</time></trkpt><trkpt lat="44.9047779" lon="7.7433027"><ele>235.0</ele><time>2026-04-26T07:56:34.39Z</time></trkpt><trkpt lat="44.9044168" lon="7.7434717"><ele>234.0</ele><time>2026-04-26T07:56:35.387Z</time></trkpt><trkpt lat="44.9040499" lon="7.743628"><ele>233.0</ele><time>2026-04-26T07:56:36.386Z</time></trkpt><trkpt lat="44.9036855" lon="7.7437777"><ele>233.5</ele><time>2026-04-26T07:56:37.394Z</time></trkpt><trkpt lat="44.9033215" lon="7.7439219"><ele>234.0</ele><time>2026-04-26T07:56:38.387Z</time></trkpt><trkpt lat="44.9029543" lon="7.7440606"><ele>234.0</ele><time>2026-04-26T07:56:39.394Z</time></trkpt><trkpt lat="44.9025866" lon="7.7441888"><ele>234.0</ele><time>2026-04-26T07:56:40.387Z</time></trkpt><trkpt lat="44.9022217" lon="7.7443048"><ele>234.0</ele><time>2026-04-26T07:56:41.396Z</time></trkpt><trkpt lat="44.9018553" lon="7.7444162"><ele>234.0</ele><time>2026-04-26T07:56:42.396Z</time></trkpt><trkpt lat="44.9014877" lon="7.7445186"><ele>234.0</ele><time>2026-04-26T07:56:43.395Z</time></trkpt><trkpt lat="44.9011245" lon="7.7446124"><ele>234.0</ele><time>2026-04-26T07:56:44.384Z</time></trkpt><trkpt lat="44.9007602" lon="7.7446987"><ele>234.0</ele><time>2026-04-26T07:56:45.389Z</time></trkpt><trkpt lat="44.9003999" lon="7.7447836"><ele>234.0</ele><time>2026-04-26T07:56:46.393Z</time></trkpt><trkpt lat="44.900037" lon="7.7448613"><ele>235.5</ele><time>2026-04-26T07:56:47.4Z</time></trkpt><trkpt lat="44.8996696" lon="7.7449267"><ele>237.0</ele><time>2026-04-26T07:56:48.388Z</time></trkpt><trkpt lat="44.8993012" lon="7.7449785"><ele>237.0</ele><time>2026-04-26T07:56:49.394Z</time></trkpt><trkpt lat="44.8989237" lon="7.7450188"><ele>237.0</ele><time>2026-04-26T07:56:50.383Z</time></trkpt><trkpt lat="44.8985563" lon="7.7450553"><ele>236.0</ele><time>2026-04-26T07:56:51.395Z</time></trkpt><trkpt lat="44.898189" lon="7.7450942"><ele>235.0</ele><time>2026-04-26T07:56:52.386Z</time></trkpt><trkpt lat="44.8978194" lon="7.7451325"><ele>234.5</ele><time>2026-04-26T07:56:53.392Z</time></trkpt><trkpt lat="44.897457" lon="7.7451656"><ele>234.0</ele><time>2026-04-26T07:56:54.395Z</time></trkpt><trkpt lat="44.8970877" lon="7.7451992"><ele>234.5</ele><time>2026-04-26T07:56:55.389Z</time></trkpt><trkpt lat="44.8967173" lon="7.7452283"><ele>235.0</ele><time>2026-04-26T07:56:56.404Z</time></trkpt><trkpt lat="44.8963476" lon="7.7452601"><ele>235.0</ele><time>2026-04-26T07:56:57.388Z</time></trkpt><trkpt lat="44.8959813" lon="7.7452958"><ele>235.0</ele><time>2026-04-26T07:56:58.384Z</time></trkpt><trkpt lat="44.8956215" lon="7.7453373"><ele>233.5</ele><time>2026-04-26T07:56:59.392Z</time></trkpt><trkpt lat="44.8952566" lon="7.7453736"><ele>232.0</ele><time>2026-04-26T07:57:00.391Z</time></trkpt><trkpt lat="44.8948928" lon="7.7454005"><ele>231.5</ele><time>2026-04-26T07:57:01.386Z</time></trkpt><trkpt lat="44.8945287" lon="7.7454291"><ele>231.0</ele><time>2026-04-26T07:57:02.389Z</time></trkpt><trkpt lat="44.8941643" lon="7.7454545"><ele>232.0</ele><time>2026-04-26T07:57:03.396Z</time></trkpt><trkpt lat="44.893802" lon="7.7454792"><ele>233.0</ele><time>2026-04-26T07:57:04.384Z</time></trkpt><trkpt lat="44.8934389" lon="7.7455076"><ele>234.5</ele><time>2026-04-26T07:57:05.389Z</time></trkpt><trkpt lat="44.893075" lon="7.7455432"><ele>236.0</ele><time>2026-04-26T07:57:06.389Z</time></trkpt><trkpt lat="44.8927116" lon="7.74557"><ele>235.0</ele><time>2026-04-26T07:57:07.396Z</time></trkpt><trkpt lat="44.8923471" lon="7.745596"><ele>234.0</ele><time>2026-04-26T07:57:08.385Z</time></trkpt><trkpt lat="44.8919843" lon="7.7456272"><ele>234.0</ele><time>2026-04-26T07:57:09.395Z</time></trkpt><trkpt lat="44.8916171" lon="7.745658"><ele>234.0</ele><time>2026-04-26T07:57:10.393Z</time></trkpt><trkpt lat="44.8912493" lon="7.74569"><ele>234.0</ele><time>2026-04-26T07:57:11.387Z</time></trkpt><trkpt lat="44.8908764" lon="7.7457226"><ele>234.0</ele><time>2026-04-26T07:57:12.386Z</time></trkpt><trkpt lat="44.8905025" lon="7.7457622"><ele>234.0</ele><time>2026-04-26T07:57:13.393Z</time></trkpt><trkpt lat="44.8901287" lon="7.7457927"><ele>234.0</ele><time>2026-04-26T07:57:14.386Z</time></trkpt><trkpt lat="44.8897577" lon="7.7458248"><ele>235.0</ele><time>2026-04-26T07:57:15.389Z</time></trkpt><trkpt lat="44.8893829" lon="7.7458521"><ele>236.0</ele><time>2026-04-26T07:57:16.409Z</time></trkpt><trkpt lat="44.8890072" lon="7.7458801"><ele>236.0</ele><time>2026-04-26T07:57:17.382Z</time></trkpt><trkpt lat="44.8886273" lon="7.7459013"><ele>236.0</ele><time>2026-04-26T07:57:18.389Z</time></trkpt><trkpt lat="44.8882527" lon="7.7459289"><ele>235.5</ele><time>2026-04-26T07:57:19.398Z</time></trkpt><trkpt lat="44.8878769" lon="7.7459553"><ele>235.0</ele><time>2026-04-26T07:57:20.385Z</time></trkpt><trkpt lat="44.8874991" lon="7.7459934"><ele>235.0</ele><time>2026-04-26T07:57:21.387Z</time></trkpt><trkpt lat="44.8871244" lon="7.7460338"><ele>235.0</ele><time>2026-04-26T07:57:22.391Z</time></trkpt><trkpt lat="44.8867489" lon="7.7460693"><ele>235.0</ele><time>2026-04-26T07:57:23.389Z</time></trkpt><trkpt lat="44.8863711" lon="7.7460947"><ele>235.0</ele><time>2026-04-26T07:57:24.388Z</time></trkpt><trkpt lat="44.885994" lon="7.7461217"><ele>235.0</ele><time>2026-04-26T07:57:25.389Z</time></trkpt><trkpt lat="44.8856187" lon="7.7461486"><ele>235.0</ele><time>2026-04-26T07:57:26.399Z</time></trkpt><trkpt lat="44.8852415" lon="7.7461719"><ele>235.5</ele><time>2026-04-26T07:57:27.388Z</time></trkpt><trkpt lat="44.8848666" lon="7.7462054"><ele>236.0</ele><time>2026-04-26T07:57:28.394Z</time></trkpt><trkpt lat="44.8844884" lon="7.7462371"><ele>235.5</ele><time>2026-04-26T07:57:29.391Z</time></trkpt><trkpt lat="44.8841104" lon="7.7462708"><ele>235.0</ele><time>2026-04-26T07:57:30.395Z</time></trkpt><trkpt lat="44.8837351" lon="7.7463029"><ele>235.0</ele><time>2026-04-26T07:57:31.387Z</time></trkpt><trkpt lat="44.8833624" lon="7.7463344"><ele>235.0</ele><time>2026-04-26T07:57:32.386Z</time></trkpt><trkpt lat="44.8829939" lon="7.746363"><ele>235.0</ele><time>2026-04-26T07:57:33.389Z</time></trkpt><trkpt lat="44.8826239" lon="7.7463931"><ele>235.0</ele><time>2026-04-26T07:57:34.388Z</time></trkpt><trkpt lat="44.8822548" lon="7.7464237"><ele>235.5</ele><time>2026-04-26T07:57:35.384Z</time></trkpt><trkpt lat="44.8818857" lon="7.7464527"><ele>236.0</ele><time>2026-04-26T07:57:36.389Z</time></trkpt><trkpt lat="44.881517" lon="7.746474"><ele>236.5</ele><time>2026-04-26T07:57:37.396Z</time></trkpt><trkpt lat="44.8811497" lon="7.7465024"><ele>237.0</ele><time>2026-04-26T07:57:38.389Z</time></trkpt><trkpt lat="44.8807857" lon="7.7465314"><ele>237.0</ele><time>2026-04-26T07:57:39.387Z</time></trkpt><trkpt lat="44.8804184" lon="7.7465547"><ele>237.0</ele><time>2026-04-26T07:57:40.396Z</time></trkpt><trkpt lat="44.8800557" lon="7.7465847"><ele>236.5</ele><time>2026-04-26T07:57:41.386Z</time></trkpt><trkpt lat="44.8796962" lon="7.7466185"><ele>236.0</ele><time>2026-04-26T07:57:42.419Z</time></trkpt><trkpt lat="44.8793397" lon="7.7466496"><ele>236.5</ele><time>2026-04-26T07:57:43.396Z</time></trkpt><trkpt lat="44.8789807" lon="7.7466806"><ele>237.0</ele><time>2026-04-26T07:57:44.396Z</time></trkpt><trkpt lat="44.8786143" lon="7.7467114"><ele>237.0</ele><time>2026-04-26T07:57:45.389Z</time></trkpt><trkpt lat="44.8782497" lon="7.7467437"><ele>237.0</ele><time>2026-04-26T07:57:46.39Z</time></trkpt><trkpt lat="44.8778819" lon="7.746772"><ele>237.0</ele><time>2026-04-26T07:57:47.386Z</time></trkpt><trkpt lat="44.8775131" lon="7.7468034"><ele>237.0</ele><time>2026-04-26T07:57:48.393Z</time></trkpt><trkpt lat="44.8771453" lon="7.7468358"><ele>237.0</ele><time>2026-04-26T07:57:49.388Z</time></trkpt><trkpt lat="44.8767779" lon="7.7468637"><ele>237.0</ele><time>2026-04-26T07:57:50.384Z</time></trkpt><trkpt lat="44.8764083" lon="7.7468939"><ele>237.0</ele><time>2026-04-26T07:57:51.385Z</time></trkpt><trkpt lat="44.876042" lon="7.7469308"><ele>237.0</ele><time>2026-04-26T07:57:52.394Z</time></trkpt><trkpt lat="44.8756735" lon="7.7469601"><ele>237.0</ele><time>2026-04-26T07:57:53.389Z</time></trkpt><trkpt lat="44.8753057" lon="7.7469894"><ele>237.0</ele><time>2026-04-26T07:57:54.388Z</time></trkpt><trkpt lat="44.8749376" lon="7.7470205"><ele>237.5</ele><time>2026-04-26T07:57:55.386Z</time></trkpt><trkpt lat="44.8745716" lon="7.7470521"><ele>238.0</ele><time>2026-04-26T07:57:56.385Z</time></trkpt><trkpt lat="44.8742006" lon="7.7470856"><ele>239.0</ele><time>2026-04-26T07:57:57.385Z</time></trkpt><trkpt lat="44.8738371" lon="7.7471198"><ele>240.0</ele><time>2026-04-26T07:57:58.388Z</time></trkpt><trkpt lat="44.8734691" lon="7.7471482"><ele>240.0</ele><time>2026-04-26T07:57:59.388Z</time></trkpt><trkpt lat="44.8731037" lon="7.7471748"><ele>240.0</ele><time>2026-04-26T07:58:00.387Z</time></trkpt><trkpt lat="44.8727451" lon="7.7472043"><ele>240.0</ele><time>2026-04-26T07:58:01.388Z</time></trkpt><trkpt lat="44.8723836" lon="7.7472361"><ele>240.0</ele><time>2026-04-26T07:58:02.387Z</time></trkpt><trkpt lat="44.8720239" lon="7.7472664"><ele>239.5</ele><time>2026-04-26T07:58:03.389Z</time></trkpt><trkpt lat="44.8716636" lon="7.7472993"><ele>239.0</ele><time>2026-04-26T07:58:04.389Z</time></trkpt><trkpt lat="44.8713006" lon="7.7473222"><ele>239.5</ele><time>2026-04-26T07:58:05.388Z</time></trkpt><trkpt lat="44.8709407" lon="7.7473492"><ele>240.0</ele><time>2026-04-26T07:58:06.389Z</time></trkpt><trkpt lat="44.8705789" lon="7.7473758"><ele>240.0</ele><time>2026-04-26T07:58:07.389Z</time></trkpt><trkpt lat="44.8702182" lon="7.7473983"><ele>240.0</ele><time>2026-04-26T07:58:08.385Z</time></trkpt><trkpt lat="44.869855" lon="7.7474199"><ele>241.0</ele><time>2026-04-26T07:58:09.39Z</time></trkpt><trkpt lat="44.8694947" lon="7.7474482"><ele>242.0</ele><time>2026-04-26T07:58:10.387Z</time></trkpt><trkpt lat="44.8691326" lon="7.7474768"><ele>242.0</ele><time>2026-04-26T07:58:11.39Z</time></trkpt><trkpt lat="44.8687685" lon="7.747502"><ele>242.0</ele><time>2026-04-26T07:58:12.385Z</time></trkpt><trkpt lat="44.868404" lon="7.7475314"><ele>241.0</ele><time>2026-04-26T07:58:13.386Z</time></trkpt><trkpt lat="44.8680383" lon="7.7475592"><ele>240.0</ele><time>2026-04-26T07:58:14.389Z</time></trkpt><trkpt lat="44.8676694" lon="7.7475801"><ele>239.5</ele><time>2026-04-26T07:58:15.387Z</time></trkpt><trkpt lat="44.867308" lon="7.7476068"><ele>239.0</ele><time>2026-04-26T07:58:16.387Z</time></trkpt><trkpt lat="44.8669443" lon="7.7476295"><ele>239.0</ele><time>2026-04-26T07:58:17.387Z</time></trkpt><trkpt lat="44.8665802" lon="7.7476512"><ele>239.0</ele><time>2026-04-26T07:58:18.389Z</time></trkpt><trkpt lat="44.866215" lon="7.7476736"><ele>239.0</ele><time>2026-04-26T07:58:19.397Z</time></trkpt><trkpt lat="44.8658488" lon="7.7477006"><ele>239.0</ele><time>2026-04-26T07:58:20.389Z</time></trkpt><trkpt lat="44.8654822" lon="7.7477281"><ele>238.5</ele><time>2026-04-26T07:58:21.387Z</time></trkpt><trkpt lat="44.8651211" lon="7.7477525"><ele>238.0</ele><time>2026-04-26T07:58:22.383Z</time></trkpt><trkpt lat="44.8647597" lon="7.7477838"><ele>238.0</ele><time>2026-04-26T07:58:23.382Z</time></trkpt><trkpt lat="44.8643933" lon="7.7478101"><ele>238.0</ele><time>2026-04-26T07:58:24.389Z</time></trkpt><trkpt lat="44.8640316" lon="7.7478426"><ele>238.5</ele><time>2026-04-26T07:58:25.391Z</time></trkpt><trkpt lat="44.8636665" lon="7.7478669"><ele>239.0</ele><time>2026-04-26T07:58:26.393Z</time></trkpt><trkpt lat="44.8633044" lon="7.7478882"><ele>239.5</ele><time>2026-04-26T07:58:27.384Z</time></trkpt><trkpt lat="44.8629387" lon="7.7479116"><ele>240.0</ele><time>2026-04-26T07:58:28.394Z</time></trkpt><trkpt lat="44.86257" lon="7.74793"><ele>240.0</ele><time>2026-04-26T07:58:29.389Z</time></trkpt><trkpt lat="44.8622038" lon="7.7479536"><ele>240.0</ele><time>2026-04-26T07:58:30.382Z</time></trkpt><trkpt lat="44.8618355" lon="7.7479813"><ele>239.5</ele><time>2026-04-26T07:58:31.383Z</time></trkpt><trkpt lat="44.8614699" lon="7.7480101"><ele>239.0</ele><time>2026-04-26T07:58:32.387Z</time></trkpt><trkpt lat="44.8611038" lon="7.7480366"><ele>239.5</ele><time>2026-04-26T07:58:33.393Z</time></trkpt><trkpt lat="44.8607352" lon="7.7480642"><ele>240.0</ele><time>2026-04-26T07:58:34.387Z</time></trkpt><trkpt lat="44.8603683" lon="7.7480875"><ele>240.0</ele><time>2026-04-26T07:58:35.39Z</time></trkpt><trkpt lat="44.8599987" lon="7.7481165"><ele>240.0</ele><time>2026-04-26T07:58:36.385Z</time></trkpt><trkpt lat="44.8596349" lon="7.7481416"><ele>240.0</ele><time>2026-04-26T07:58:37.391Z</time></trkpt><trkpt lat="44.8592728" lon="7.7481679"><ele>240.0</ele><time>2026-04-26T07:58:38.388Z</time></trkpt><trkpt lat="44.8589113" lon="7.7481955"><ele>240.0</ele><time>2026-04-26T07:58:39.385Z</time></trkpt><trkpt lat="44.8585604" lon="7.7482221"><ele>240.0</ele><time>2026-04-26T07:58:40.39Z</time></trkpt><trkpt lat="44.8582254" lon="7.7482406"><ele>240.5</ele><time>2026-04-26T07:58:41.386Z</time></trkpt><trkpt lat="44.8579091" lon="7.7482548"><ele>241.0</ele><time>2026-04-26T07:58:42.392Z</time></trkpt><trkpt lat="44.8576057" lon="7.7482788"><ele>241.0</ele><time>2026-04-26T07:58:43.387Z</time></trkpt><trkpt lat="44.8573006" lon="7.7482998"><ele>241.0</ele><time>2026-04-26T07:58:44.387Z</time></trkpt><trkpt lat="44.8570009" lon="7.7483194"><ele>240.5</ele><time>2026-04-26T07:58:45.394Z</time></trkpt><trkpt lat="44.8567035" lon="7.7483413"><ele>240.0</ele><time>2026-04-26T07:58:46.385Z</time></trkpt><trkpt lat="44.8564089" lon="7.748362"><ele>240.0</ele><time>2026-04-26T07:58:47.388Z</time></trkpt><trkpt lat="44.8561223" lon="7.7483751"><ele>240.0</ele><time>2026-04-26T07:58:48.402Z</time></trkpt><trkpt lat="44.8558587" lon="7.7483778"><ele>241.5</ele><time>2026-04-26T07:58:49.389Z</time></trkpt><trkpt lat="44.8556032" lon="7.7483619"><ele>243.0</ele><time>2026-04-26T07:58:50.388Z</time></trkpt><trkpt lat="44.8553649" lon="7.7483356"><ele>243.0</ele><time>2026-04-26T07:58:51.395Z</time></trkpt><trkpt lat="44.8551507" lon="7.7483178"><ele>243.0</ele><time>2026-04-26T07:58:52.397Z</time></trkpt><trkpt lat="44.8549399" lon="7.7483085"><ele>243.0</ele><time>2026-04-26T07:58:53.39Z</time></trkpt><trkpt lat="44.8547542" lon="7.7483081"><ele>243.0</ele><time>2026-04-26T07:58:54.392Z</time></trkpt><trkpt lat="44.854599" lon="7.7483047"><ele>243.0</ele><time>2026-04-26T07:58:55.398Z</time></trkpt><trkpt lat="44.8544658" lon="7.7483098"><ele>243.0</ele><time>2026-04-26T07:58:56.388Z</time></trkpt><trkpt lat="44.8543578" lon="7.7483172"><ele>243.0</ele><time>2026-04-26T07:58:57.39Z</time></trkpt><trkpt lat="44.8542705" lon="7.7483327"><ele>243.0</ele><time>2026-04-26T07:58:58.39Z</time></trkpt><trkpt lat="44.8541935" lon="7.7483391"><ele>243.0</ele><time>2026-04-26T07:58:59.392Z</time></trkpt><trkpt lat="44.8541146" lon="7.7483543"><ele>243.0</ele><time>2026-04-26T07:59:00.391Z</time></trkpt><trkpt lat="44.8540042" lon="7.7483631"><ele>243.0</ele><time>2026-04-26T07:59:01.397Z</time></trkpt><trkpt lat="44.8538179" lon="7.7483763"><ele>243.0</ele><time>2026-04-26T07:59:02.395Z</time></trkpt><trkpt lat="44.8536023" lon="7.7484006"><ele>243.0</ele><time>2026-04-26T07:59:03.389Z</time></trkpt><trkpt lat="44.8533835" lon="7.7484335"><ele>243.0</ele><time>2026-04-26T07:59:04.388Z</time></trkpt><trkpt lat="44.8531525" lon="7.7484737"><ele>243.5</ele><time>2026-04-26T07:59:05.39Z</time></trkpt><trkpt lat="44.8529068" lon="7.7485247"><ele>244.0</ele><time>2026-04-26T07:59:06.389Z</time></trkpt><trkpt lat="44.8526523" lon="7.7485779"><ele>243.5</ele><time>2026-04-26T07:59:07.388Z</time></trkpt><trkpt lat="44.8523879" lon="7.748607"><ele>243.0</ele><time>2026-04-26T07:59:08.397Z</time></trkpt><trkpt lat="44.8521204" lon="7.7486156"><ele>243.0</ele><time>2026-04-26T07:59:09.389Z</time></trkpt><trkpt lat="44.8518401" lon="7.7486356"><ele>243.0</ele><time>2026-04-26T07:59:10.386Z</time></trkpt><trkpt lat="44.8515529" lon="7.7486485"><ele>243.5</ele><time>2026-04-26T07:59:11.387Z</time></trkpt><trkpt lat="44.8512589" lon="7.7486675"><ele>244.0</ele><time>2026-04-26T07:59:12.39Z</time></trkpt><trkpt lat="44.8509631" lon="7.7486916"><ele>244.0</ele><time>2026-04-26T07:59:13.389Z</time></trkpt><trkpt lat="44.8506627" lon="7.7487244"><ele>244.0</ele><time>2026-04-26T07:59:14.39Z</time></trkpt><trkpt lat="44.8503565" lon="7.7487568"><ele>243.5</ele><time>2026-04-26T07:59:15.388Z</time></trkpt><trkpt lat="44.8500475" lon="7.7487845"><ele>243.0</ele><time>2026-04-26T07:59:16.397Z</time></trkpt><trkpt lat="44.8497366" lon="7.7488108"><ele>243.0</ele><time>2026-04-26T07:59:17.388Z</time></trkpt><trkpt lat="44.8494293" lon="7.7488312"><ele>243.0</ele><time>2026-04-26T07:59:18.39Z</time></trkpt><trkpt lat="44.8491191" lon="7.7488479"><ele>241.5</ele><time>2026-04-26T07:59:19.392Z</time></trkpt><trkpt lat="44.848806" lon="7.7488699"><ele>240.0</ele><time>2026-04-26T07:59:20.383Z</time></trkpt><trkpt lat="44.848491" lon="7.748892"><ele>241.5</ele><time>2026-04-26T07:59:21.39Z</time></trkpt><trkpt lat="44.8481751" lon="7.7489104"><ele>243.0</ele><time>2026-04-26T07:59:22.382Z</time></trkpt><trkpt lat="44.8478571" lon="7.7489266"><ele>244.0</ele><time>2026-04-26T07:59:23.387Z</time></trkpt><trkpt lat="44.8475375" lon="7.748946"><ele>245.0</ele><time>2026-04-26T07:59:24.386Z</time></trkpt><trkpt lat="44.8472175" lon="7.7489662"><ele>245.0</ele><time>2026-04-26T07:59:25.383Z</time></trkpt><trkpt lat="44.8468931" lon="7.7489914"><ele>245.0</ele><time>2026-04-26T07:59:26.39Z</time></trkpt><trkpt lat="44.8465683" lon="7.7490173"><ele>244.0</ele><time>2026-04-26T07:59:27.391Z</time></trkpt><trkpt lat="44.8462446" lon="7.7490402"><ele>243.0</ele><time>2026-04-26T07:59:28.384Z</time></trkpt><trkpt lat="44.8459153" lon="7.7490621"><ele>243.0</ele><time>2026-04-26T07:59:29.387Z</time></trkpt><trkpt lat="44.8455823" lon="7.7490847"><ele>243.0</ele><time>2026-04-26T07:59:30.388Z</time></trkpt><trkpt lat="44.8452495" lon="7.7491055"><ele>242.5</ele><time>2026-04-26T07:59:31.386Z</time></trkpt><trkpt lat="44.8449114" lon="7.7491294"><ele>242.0</ele><time>2026-04-26T07:59:32.381Z</time></trkpt><trkpt lat="44.8445732" lon="7.7491521"><ele>243.0</ele><time>2026-04-26T07:59:33.391Z</time></trkpt><trkpt lat="44.8442367" lon="7.7491762"><ele>244.0</ele><time>2026-04-26T07:59:34.397Z</time></trkpt><trkpt lat="44.843901" lon="7.7492054"><ele>244.0</ele><time>2026-04-26T07:59:35.387Z</time></trkpt><trkpt lat="44.843569" lon="7.7492263"><ele>244.0</ele><time>2026-04-26T07:59:36.385Z</time></trkpt><trkpt lat="44.8432494" lon="7.7492458"><ele>243.5</ele><time>2026-04-26T07:59:37.389Z</time></trkpt><trkpt lat="44.8429415" lon="7.7492698"><ele>243.0</ele><time>2026-04-26T07:59:38.39Z</time></trkpt><trkpt lat="44.8426426" lon="7.7492917"><ele>243.5</ele><time>2026-04-26T07:59:39.387Z</time></trkpt><trkpt lat="44.8423428" lon="7.7493155"><ele>244.0</ele><time>2026-04-26T07:59:40.391Z</time></trkpt><trkpt lat="44.8420443" lon="7.7493359"><ele>244.0</ele><time>2026-04-26T07:59:41.39Z</time></trkpt><trkpt lat="44.8417441" lon="7.7493555"><ele>244.0</ele><time>2026-04-26T07:59:42.397Z</time></trkpt><trkpt lat="44.8414402" lon="7.7493768"><ele>244.0</ele><time>2026-04-26T07:59:43.386Z</time></trkpt><trkpt lat="44.8411316" lon="7.7493965"><ele>244.0</ele><time>2026-04-26T07:59:44.391Z</time></trkpt><trkpt lat="44.8408259" lon="7.7494228"><ele>244.0</ele><time>2026-04-26T07:59:45.396Z</time></trkpt><trkpt lat="44.8405138" lon="7.7494442"><ele>244.0</ele><time>2026-04-26T07:59:46.387Z</time></trkpt><trkpt lat="44.8401997" lon="7.7494704"><ele>244.0</ele><time>2026-04-26T07:59:47.382Z</time></trkpt><trkpt lat="44.8398814" lon="7.7494984"><ele>244.0</ele><time>2026-04-26T07:59:48.384Z</time></trkpt><trkpt lat="44.8395589" lon="7.7495306"><ele>244.0</ele><time>2026-04-26T07:59:49.392Z</time></trkpt><trkpt lat="44.8392332" lon="7.7495589"><ele>244.0</ele><time>2026-04-26T07:59:50.383Z</time></trkpt><trkpt lat="44.838901" lon="7.74958"><ele>244.0</ele><time>2026-04-26T07:59:51.392Z</time></trkpt><trkpt lat="44.8385653" lon="7.7496084"><ele>244.0</ele><time>2026-04-26T07:59:52.386Z</time></trkpt><trkpt lat="44.8382233" lon="7.7496358"><ele>243.5</ele><time>2026-04-26T07:59:53.387Z</time></trkpt><trkpt lat="44.837883" lon="7.7496628"><ele>243.0</ele><time>2026-04-26T07:59:54.385Z</time></trkpt><trkpt lat="44.8375391" lon="7.7496915"><ele>243.0</ele><time>2026-04-26T07:59:55.383Z</time></trkpt><trkpt lat="44.837191" lon="7.7497079"><ele>243.0</ele><time>2026-04-26T07:59:56.407Z</time></trkpt><trkpt lat="44.836844" lon="7.7497172"><ele>243.5</ele><time>2026-04-26T07:59:57.392Z</time></trkpt><trkpt lat="44.8364934" lon="7.7497259"><ele>244.0</ele><time>2026-04-26T07:59:58.39Z</time></trkpt><trkpt lat="44.8361405" lon="7.7497451"><ele>244.5</ele><time>2026-04-26T07:59:59.384Z</time></trkpt><trkpt lat="44.8357869" lon="7.7497685"><ele>245.0</ele><time>2026-04-26T08:00:00.389Z</time></trkpt><trkpt lat="44.8354298" lon="7.7497943"><ele>245.0</ele><time>2026-04-26T08:00:01.386Z</time></trkpt><trkpt lat="44.8350725" lon="7.7498213"><ele>245.0</ele><time>2026-04-26T08:00:02.388Z</time></trkpt><trkpt lat="44.834718" lon="7.7498489"><ele>245.0</ele><time>2026-04-26T08:00:03.387Z</time></trkpt><trkpt lat="44.8343621" lon="7.7498729"><ele>245.0</ele><time>2026-04-26T08:00:04.393Z</time></trkpt><trkpt lat="44.8339996" lon="7.7498982"><ele>245.0</ele><time>2026-04-26T08:00:05.386Z</time></trkpt><trkpt lat="44.833641" lon="7.7499278"><ele>245.0</ele><time>2026-04-26T08:00:06.393Z</time></trkpt><trkpt lat="44.8332859" lon="7.7499548"><ele>245.0</ele><time>2026-04-26T08:00:07.391Z</time></trkpt><trkpt lat="44.8329266" lon="7.7499797"><ele>245.0</ele><time>2026-04-26T08:00:08.385Z</time></trkpt><trkpt lat="44.8325696" lon="7.7500032"><ele>245.0</ele><time>2026-04-26T08:00:09.397Z</time></trkpt><trkpt lat="44.8322086" lon="7.750029"><ele>245.0</ele><time>2026-04-26T08:00:10.39Z</time></trkpt><trkpt lat="44.8318499" lon="7.7500513"><ele>245.5</ele><time>2026-04-26T08:00:11.392Z</time></trkpt><trkpt lat="44.8314913" lon="7.7500775"><ele>246.0</ele><time>2026-04-26T08:00:12.392Z</time></trkpt><trkpt lat="44.8311317" lon="7.7500947"><ele>246.0</ele><time>2026-04-26T08:00:13.387Z</time></trkpt><trkpt lat="44.8307759" lon="7.7501148"><ele>246.0</ele><time>2026-04-26T08:00:14.393Z</time></trkpt><trkpt lat="44.8304207" lon="7.7501366"><ele>245.0</ele><time>2026-04-26T08:00:15.402Z</time></trkpt><trkpt lat="44.8300638" lon="7.7501649"><ele>244.0</ele><time>2026-04-26T08:00:16.388Z</time></trkpt><trkpt lat="44.829708" lon="7.7501858"><ele>244.0</ele><time>2026-04-26T08:00:17.387Z</time></trkpt><trkpt lat="44.8293499" lon="7.7502193"><ele>244.0</ele><time>2026-04-26T08:00:18.381Z</time></trkpt><trkpt lat="44.8289901" lon="7.7502466"><ele>244.5</ele><time>2026-04-26T08:00:19.392Z</time></trkpt><trkpt lat="44.8286311" lon="7.7502756"><ele>245.0</ele><time>2026-04-26T08:00:20.389Z</time></trkpt><trkpt lat="44.8282709" lon="7.7503024"><ele>245.5</ele><time>2026-04-26T08:00:21.391Z</time></trkpt><trkpt lat="44.827913" lon="7.7503272"><ele>246.0</ele><time>2026-04-26T08:00:22.386Z</time></trkpt><trkpt lat="44.8275549" lon="7.7503538"><ele>246.5</ele><time>2026-04-26T08:00:23.376Z</time></trkpt><trkpt lat="44.8271942" lon="7.7503785"><ele>247.0</ele><time>2026-04-26T08:00:24.391Z</time></trkpt><trkpt lat="44.8268339" lon="7.7504056"><ele>246.5</ele><time>2026-04-26T08:00:25.388Z</time></trkpt><trkpt lat="44.82647" lon="7.7504297"><ele>246.0</ele><time>2026-04-26T08:00:26.385Z</time></trkpt><trkpt lat="44.8261064" lon="7.7504578"><ele>245.0</ele><time>2026-04-26T08:00:27.387Z</time></trkpt><trkpt lat="44.8257436" lon="7.750475"><ele>244.0</ele><time>2026-04-26T08:00:28.386Z</time></trkpt><trkpt lat="44.825382" lon="7.7505015"><ele>245.0</ele><time>2026-04-26T08:00:29.389Z</time></trkpt><trkpt lat="44.8250256" lon="7.7505273"><ele>246.0</ele><time>2026-04-26T08:00:30.397Z</time></trkpt><trkpt lat="44.8246708" lon="7.7505505"><ele>246.0</ele><time>2026-04-26T08:00:31.387Z</time></trkpt><trkpt lat="44.8243138" lon="7.7505708"><ele>246.0</ele><time>2026-04-26T08:00:32.389Z</time></trkpt><trkpt lat="44.8239546" lon="7.7506004"><ele>245.5</ele><time>2026-04-26T08:00:33.389Z</time></trkpt><trkpt lat="44.8235954" lon="7.7506283"><ele>245.0</ele><time>2026-04-26T08:00:34.386Z</time></trkpt><trkpt lat="44.8232397" lon="7.7506539"><ele>246.0</ele><time>2026-04-26T08:00:35.392Z</time></trkpt><trkpt lat="44.8228833" lon="7.7506801"><ele>247.0</ele><time>2026-04-26T08:00:36.412Z</time></trkpt><trkpt lat="44.8225271" lon="7.7507064"><ele>247.0</ele><time>2026-04-26T08:00:37.395Z</time></trkpt><trkpt lat="44.8221713" lon="7.7507302"><ele>247.0</ele><time>2026-04-26T08:00:38.389Z</time></trkpt><trkpt lat="44.8218102" lon="7.7507548"><ele>247.0</ele><time>2026-04-26T08:00:39.387Z</time></trkpt><trkpt lat="44.8214492" lon="7.7507817"><ele>247.0</ele><time>2026-04-26T08:00:40.385Z</time></trkpt><trkpt lat="44.8210922" lon="7.7508078"><ele>247.0</ele><time>2026-04-26T08:00:41.388Z</time></trkpt><trkpt lat="44.8207351" lon="7.7508319"><ele>247.0</ele><time>2026-04-26T08:00:42.39Z</time></trkpt><trkpt lat="44.8203741" lon="7.7508659"><ele>247.5</ele><time>2026-04-26T08:00:43.39Z</time></trkpt><trkpt lat="44.8200114" lon="7.7509066"><ele>248.0</ele><time>2026-04-26T08:00:44.387Z</time></trkpt><trkpt lat="44.8196475" lon="7.7509443"><ele>247.5</ele><time>2026-04-26T08:00:45.397Z</time></trkpt><trkpt lat="44.8192867" lon="7.7509773"><ele>247.0</ele><time>2026-04-26T08:00:46.388Z</time></trkpt><trkpt lat="44.8189265" lon="7.7510022"><ele>247.0</ele><time>2026-04-26T08:00:47.388Z</time></trkpt><trkpt lat="44.8185635" lon="7.7510247"><ele>247.0</ele><time>2026-04-26T08:00:48.389Z</time></trkpt><trkpt lat="44.8182012" lon="7.751044"><ele>246.5</ele><time>2026-04-26T08:00:49.391Z</time></trkpt><trkpt lat="44.8178385" lon="7.7510705"><ele>246.0</ele><time>2026-04-26T08:00:50.399Z</time></trkpt><trkpt lat="44.8174775" lon="7.7510982"><ele>247.5</ele><time>2026-04-26T08:00:51.396Z</time></trkpt><trkpt lat="44.8171123" lon="7.7511211"><ele>249.0</ele><time>2026-04-26T08:00:52.384Z</time></trkpt><trkpt lat="44.8167482" lon="7.7511475"><ele>249.5</ele><time>2026-04-26T08:00:53.384Z</time></trkpt><trkpt lat="44.8163843" lon="7.7511762"><ele>250.0</ele><time>2026-04-26T08:00:54.394Z</time></trkpt><trkpt lat="44.8160206" lon="7.7511987"><ele>251.0</ele><time>2026-04-26T08:00:55.388Z</time></trkpt><trkpt lat="44.815659" lon="7.7512265"><ele>252.0</ele><time>2026-04-26T08:00:56.393Z</time></trkpt><trkpt lat="44.8152991" lon="7.7512537"><ele>251.0</ele><time>2026-04-26T08:00:57.383Z</time></trkpt><trkpt lat="44.8149367" lon="7.7512775"><ele>250.0</ele><time>2026-04-26T08:00:58.389Z</time></trkpt><trkpt lat="44.8145688" lon="7.7513018"><ele>250.0</ele><time>2026-04-26T08:00:59.389Z</time></trkpt><trkpt lat="44.8142006" lon="7.751315"><ele>250.0</ele><time>2026-04-26T08:01:00.383Z</time></trkpt><trkpt lat="44.8138347" lon="7.7513282"><ele>250.0</ele><time>2026-04-26T08:01:01.393Z</time></trkpt><trkpt lat="44.8134668" lon="7.751341"><ele>250.0</ele><time>2026-04-26T08:01:02.389Z</time></trkpt><trkpt lat="44.8131006" lon="7.7513624"><ele>250.0</ele><time>2026-04-26T08:01:03.392Z</time></trkpt><trkpt lat="44.8127371" lon="7.7513828"><ele>250.0</ele><time>2026-04-26T08:01:04.407Z</time></trkpt><trkpt lat="44.8123776" lon="7.7514135"><ele>250.0</ele><time>2026-04-26T08:01:05.39Z</time></trkpt><trkpt lat="44.812017" lon="7.7514452"><ele>250.0</ele><time>2026-04-26T08:01:06.392Z</time></trkpt><trkpt lat="44.8116568" lon="7.7514781"><ele>250.0</ele><time>2026-04-26T08:01:07.389Z</time></trkpt><trkpt lat="44.8112907" lon="7.7515047"><ele>250.0</ele><time>2026-04-26T08:01:08.386Z</time></trkpt><trkpt lat="44.8109318" lon="7.7515317"><ele>250.0</ele><time>2026-04-26T08:01:09.394Z</time></trkpt><trkpt lat="44.8105724" lon="7.7515557"><ele>250.0</ele><time>2026-04-26T08:01:10.387Z</time></trkpt><trkpt lat="44.8102147" lon="7.7515764"><ele>251.5</ele><time>2026-04-26T08:01:11.388Z</time></trkpt><trkpt lat="44.8098581" lon="7.751596"><ele>253.0</ele><time>2026-04-26T08:01:12.397Z</time></trkpt><trkpt lat="44.8094996" lon="7.7516115"><ele>253.5</ele><time>2026-04-26T08:01:13.388Z</time></trkpt><trkpt lat="44.8091376" lon="7.7516352"><ele>254.0</ele><time>2026-04-26T08:01:14.395Z</time></trkpt><trkpt lat="44.8087734" lon="7.7516566"><ele>253.5</ele><time>2026-04-26T08:01:15.389Z</time></trkpt><trkpt lat="44.8084128" lon="7.7516849"><ele>253.0</ele><time>2026-04-26T08:01:16.389Z</time></trkpt><trkpt lat="44.8080558" lon="7.7517088"><ele>253.0</ele><time>2026-04-26T08:01:17.387Z</time></trkpt><trkpt lat="44.8076941" lon="7.7517395"><ele>253.0</ele><time>2026-04-26T08:01:18.388Z</time></trkpt><trkpt lat="44.8073329" lon="7.7517638"><ele>253.5</ele><time>2026-04-26T08:01:19.388Z</time></trkpt><trkpt lat="44.8069672" lon="7.7517949"><ele>254.0</ele><time>2026-04-26T08:01:20.387Z</time></trkpt><trkpt lat="44.8066067" lon="7.7518202"><ele>254.0</ele><time>2026-04-26T08:01:21.385Z</time></trkpt><trkpt lat="44.8062381" lon="7.7518416"><ele>254.0</ele><time>2026-04-26T08:01:22.39Z</time></trkpt><trkpt lat="44.8058771" lon="7.7518701"><ele>253.5</ele><time>2026-04-26T08:01:23.384Z</time></trkpt><trkpt lat="44.8055164" lon="7.7519038"><ele>253.0</ele><time>2026-04-26T08:01:24.385Z</time></trkpt><trkpt lat="44.8051467" lon="7.7519297"><ele>252.5</ele><time>2026-04-26T08:01:25.388Z</time></trkpt><trkpt lat="44.8047832" lon="7.7519572"><ele>252.0</ele><time>2026-04-26T08:01:26.398Z</time></trkpt><trkpt lat="44.8044174" lon="7.7519839"><ele>252.5</ele><time>2026-04-26T08:01:27.39Z</time></trkpt><trkpt lat="44.8040507" lon="7.7520093"><ele>253.0</ele><time>2026-04-26T08:01:28.382Z</time></trkpt><trkpt lat="44.8036869" lon="7.7520358"><ele>253.0</ele><time>2026-04-26T08:01:29.393Z</time></trkpt><trkpt lat="44.8033287" lon="7.7520632"><ele>253.0</ele><time>2026-04-26T08:01:30.388Z</time></trkpt><trkpt lat="44.802967" lon="7.7520881"><ele>253.0</ele><time>2026-04-26T08:01:31.386Z</time></trkpt><trkpt lat="44.802609" lon="7.7521055"><ele>253.0</ele><time>2026-04-26T08:01:32.388Z</time></trkpt><trkpt lat="44.8022559" lon="7.7521324"><ele>253.0</ele><time>2026-04-26T08:01:33.391Z</time></trkpt><trkpt lat="44.8019008" lon="7.7521531"><ele>253.0</ele><time>2026-04-26T08:01:34.387Z</time></trkpt><trkpt lat="44.8015473" lon="7.7521729"><ele>253.0</ele><time>2026-04-26T08:01:35.389Z</time></trkpt><trkpt lat="44.8011879" lon="7.7522002"><ele>253.0</ele><time>2026-04-26T08:01:36.389Z</time></trkpt><trkpt lat="44.8008299" lon="7.7522301"><ele>253.5</ele><time>2026-04-26T08:01:37.393Z</time></trkpt><trkpt lat="44.8004727" lon="7.7522596"><ele>254.0</ele><time>2026-04-26T08:01:38.387Z</time></trkpt><trkpt lat="44.800115" lon="7.7522876"><ele>254.5</ele><time>2026-04-26T08:01:39.384Z</time></trkpt><trkpt lat="44.7997543" lon="7.7523154"><ele>255.0</ele><time>2026-04-26T08:01:40.386Z</time></trkpt><trkpt lat="44.7993957" lon="7.7523426"><ele>255.0</ele><time>2026-04-26T08:01:41.389Z</time></trkpt><trkpt lat="44.799038" lon="7.752366"><ele>255.0</ele><time>2026-04-26T08:01:42.388Z</time></trkpt><trkpt lat="44.7986818" lon="7.7523918"><ele>255.0</ele><time>2026-04-26T08:01:43.385Z</time></trkpt><trkpt lat="44.7983242" lon="7.7524237"><ele>255.0</ele><time>2026-04-26T08:01:44.393Z</time></trkpt><trkpt lat="44.7979673" lon="7.7524588"><ele>255.5</ele><time>2026-04-26T08:01:45.387Z</time></trkpt><trkpt lat="44.797608" lon="7.752495"><ele>256.0</ele><time>2026-04-26T08:01:46.383Z</time></trkpt><trkpt lat="44.7972548" lon="7.7525209"><ele>256.0</ele><time>2026-04-26T08:01:47.385Z</time></trkpt><trkpt lat="44.796902" lon="7.7525486"><ele>256.0</ele><time>2026-04-26T08:01:48.401Z</time></trkpt><trkpt lat="44.7965517" lon="7.7525719"><ele>256.0</ele><time>2026-04-26T08:01:49.388Z</time></trkpt><trkpt lat="44.7961989" lon="7.7526018"><ele>256.0</ele><time>2026-04-26T08:01:50.393Z</time></trkpt><trkpt lat="44.7958406" lon="7.7526229"><ele>255.5</ele><time>2026-04-26T08:01:51.387Z</time></trkpt><trkpt lat="44.7954841" lon="7.7526437"><ele>255.0</ele><time>2026-04-26T08:01:52.388Z</time></trkpt><trkpt lat="44.7951221" lon="7.7526672"><ele>255.0</ele><time>2026-04-26T08:01:53.386Z</time></trkpt><trkpt lat="44.7947636" lon="7.7526928"><ele>255.0</ele><time>2026-04-26T08:01:54.384Z</time></trkpt><trkpt lat="44.7944037" lon="7.7527175"><ele>253.5</ele><time>2026-04-26T08:01:55.388Z</time></trkpt><trkpt lat="44.7940448" lon="7.7527465"><ele>252.0</ele><time>2026-04-26T08:01:56.394Z</time></trkpt><trkpt lat="44.7936831" lon="7.7527718"><ele>252.0</ele><time>2026-04-26T08:01:57.386Z</time></trkpt><trkpt lat="44.7933215" lon="7.752797"><ele>252.0</ele><time>2026-04-26T08:01:58.404Z</time></trkpt><trkpt lat="44.7929605" lon="7.7528197"><ele>253.0</ele><time>2026-04-26T08:01:59.384Z</time></trkpt><trkpt lat="44.792597" lon="7.7528382"><ele>254.0</ele><time>2026-04-26T08:02:00.403Z</time></trkpt><trkpt lat="44.7922389" lon="7.7528604"><ele>254.0</ele><time>2026-04-26T08:02:01.389Z</time></trkpt><trkpt lat="44.7918805" lon="7.7528804"><ele>254.0</ele><time>2026-04-26T08:02:02.382Z</time></trkpt><trkpt lat="44.7915154" lon="7.7529003"><ele>254.0</ele><time>2026-04-26T08:02:03.39Z</time></trkpt><trkpt lat="44.7911537" lon="7.7529199"><ele>254.0</ele><time>2026-04-26T08:02:04.383Z</time></trkpt><trkpt lat="44.7907818" lon="7.7529364"><ele>254.0</ele><time>2026-04-26T08:02:05.385Z</time></trkpt><trkpt lat="44.7904146" lon="7.7529539"><ele>254.0</ele><time>2026-04-26T08:02:06.389Z</time></trkpt><trkpt lat="44.7900482" lon="7.7529752"><ele>254.0</ele><time>2026-04-26T08:02:07.384Z</time></trkpt><trkpt lat="44.7896829" lon="7.7529966"><ele>254.0</ele><time>2026-04-26T08:02:08.389Z</time></trkpt><trkpt lat="44.7893205" lon="7.7530117"><ele>254.0</ele><time>2026-04-26T08:02:09.388Z</time></trkpt><trkpt lat="44.7889615" lon="7.7530217"><ele>254.0</ele><time>2026-04-26T08:02:10.392Z</time></trkpt><trkpt lat="44.7885988" lon="7.7530266"><ele>255.5</ele><time>2026-04-26T08:02:11.386Z</time></trkpt><trkpt lat="44.7882338" lon="7.7530332"><ele>257.0</ele><time>2026-04-26T08:02:12.39Z</time></trkpt><trkpt lat="44.7878749" lon="7.7530337"><ele>256.0</ele><time>2026-04-26T08:02:13.389Z</time></trkpt><trkpt lat="44.7875102" lon="7.7530314"><ele>255.0</ele><time>2026-04-26T08:02:14.389Z</time></trkpt><trkpt lat="44.7871418" lon="7.753025"><ele>254.0</ele><time>2026-04-26T08:02:15.392Z</time></trkpt><trkpt lat="44.7867804" lon="7.7530146"><ele>253.0</ele><time>2026-04-26T08:02:16.385Z</time></trkpt><trkpt lat="44.786418" lon="7.7529954"><ele>253.0</ele><time>2026-04-26T08:02:17.389Z</time></trkpt><trkpt lat="44.7860562" lon="7.7529825"><ele>253.0</ele><time>2026-04-26T08:02:18.381Z</time></trkpt><trkpt lat="44.7856949" lon="7.7529546"><ele>253.5</ele><time>2026-04-26T08:02:19.385Z</time></trkpt><trkpt lat="44.7853317" lon="7.7529272"><ele>254.0</ele><time>2026-04-26T08:02:20.387Z</time></trkpt><trkpt lat="44.7849702" lon="7.752891"><ele>254.5</ele><time>2026-04-26T08:02:21.386Z</time></trkpt><trkpt lat="44.7846114" lon="7.7528482"><ele>255.0</ele><time>2026-04-26T08:02:22.387Z</time></trkpt><trkpt lat="44.7842523" lon="7.7528059"><ele>255.0</ele><time>2026-04-26T08:02:23.395Z</time></trkpt><trkpt lat="44.7838923" lon="7.7527651"><ele>255.0</ele><time>2026-04-26T08:02:24.384Z</time></trkpt><trkpt lat="44.7835335" lon="7.7527319"><ele>255.0</ele><time>2026-04-26T08:02:25.39Z</time></trkpt><trkpt lat="44.7831766" lon="7.7526955"><ele>255.0</ele><time>2026-04-26T08:02:26.388Z</time></trkpt><trkpt lat="44.7828241" lon="7.7526569"><ele>256.5</ele><time>2026-04-26T08:02:27.383Z</time></trkpt><trkpt lat="44.7824649" lon="7.7526171"><ele>258.0</ele><time>2026-04-26T08:02:28.386Z</time></trkpt><trkpt lat="44.7821069" lon="7.7525808"><ele>258.0</ele><time>2026-04-26T08:02:29.381Z</time></trkpt><trkpt lat="44.7817461" lon="7.7525439"><ele>258.0</ele><time>2026-04-26T08:02:30.386Z</time></trkpt><trkpt lat="44.7813852" lon="7.752506"><ele>258.0</ele><time>2026-04-26T08:02:31.387Z</time></trkpt><trkpt lat="44.7810239" lon="7.7524714"><ele>258.0</ele><time>2026-04-26T08:02:32.381Z</time></trkpt><trkpt lat="44.7806633" lon="7.7524335"><ele>257.5</ele><time>2026-04-26T08:02:33.392Z</time></trkpt><trkpt lat="44.7802985" lon="7.7524031"><ele>257.0</ele><time>2026-04-26T08:02:34.389Z</time></trkpt><trkpt lat="44.7799334" lon="7.7523707"><ele>256.0</ele><time>2026-04-26T08:02:35.398Z</time></trkpt><trkpt lat="44.7795646" lon="7.7523369"><ele>255.0</ele><time>2026-04-26T08:02:36.389Z</time></trkpt><trkpt lat="44.7791972" lon="7.752301"><ele>255.0</ele><time>2026-04-26T08:02:37.395Z</time></trkpt><trkpt lat="44.7788285" lon="7.7522744"><ele>255.0</ele><time>2026-04-26T08:02:38.388Z</time></trkpt><trkpt lat="44.7784561" lon="7.7522457"><ele>255.0</ele><time>2026-04-26T08:02:39.398Z</time></trkpt><trkpt lat="44.7780881" lon="7.7522125"><ele>255.0</ele><time>2026-04-26T08:02:40.407Z</time></trkpt><trkpt lat="44.7777245" lon="7.7521762"><ele>255.5</ele><time>2026-04-26T08:02:41.404Z</time></trkpt><trkpt lat="44.7773701" lon="7.752142"><ele>256.0</ele><time>2026-04-26T08:02:42.389Z</time></trkpt><trkpt lat="44.7770265" lon="7.7521096"><ele>255.0</ele><time>2026-04-26T08:02:43.386Z</time></trkpt><trkpt lat="44.7766932" lon="7.7520776"><ele>254.0</ele><time>2026-04-26T08:02:44.383Z</time></trkpt><trkpt lat="44.7763691" lon="7.7520413"><ele>254.0</ele><time>2026-04-26T08:02:45.391Z</time></trkpt><trkpt lat="44.7760402" lon="7.7520105"><ele>254.0</ele><time>2026-04-26T08:02:46.385Z</time></trkpt><trkpt lat="44.7757068" lon="7.7519766"><ele>254.5</ele><time>2026-04-26T08:02:47.391Z</time></trkpt><trkpt lat="44.7753733" lon="7.751943"><ele>255.0</ele><time>2026-04-26T08:02:48.387Z</time></trkpt><trkpt lat="44.7750364" lon="7.7519115"><ele>255.0</ele><time>2026-04-26T08:02:49.39Z</time></trkpt><trkpt lat="44.7746912" lon="7.7518799"><ele>255.0</ele><time>2026-04-26T08:02:50.387Z</time></trkpt><trkpt lat="44.7743426" lon="7.7518441"><ele>254.5</ele><time>2026-04-26T08:02:51.389Z</time></trkpt><trkpt lat="44.7739814" lon="7.7518135"><ele>254.0</ele><time>2026-04-26T08:02:52.399Z</time></trkpt><trkpt lat="44.7736174" lon="7.7517763"><ele>254.0</ele><time>2026-04-26T08:02:53.397Z</time></trkpt><trkpt lat="44.7732423" lon="7.7517268"><ele>254.0</ele><time>2026-04-26T08:02:54.388Z</time></trkpt><trkpt lat="44.7728656" lon="7.7516738"><ele>255.0</ele><time>2026-04-26T08:02:55.386Z</time></trkpt><trkpt lat="44.7724973" lon="7.7516201"><ele>256.0</ele><time>2026-04-26T08:02:56.387Z</time></trkpt><trkpt lat="44.7721251" lon="7.7515691"><ele>255.5</ele><time>2026-04-26T08:02:57.389Z</time></trkpt><trkpt lat="44.7717535" lon="7.7515316"><ele>255.0</ele><time>2026-04-26T08:02:58.395Z</time></trkpt><trkpt lat="44.7713845" lon="7.7514937"><ele>256.5</ele><time>2026-04-26T08:02:59.392Z</time></trkpt><trkpt lat="44.7710192" lon="7.7514578"><ele>258.0</ele><time>2026-04-26T08:03:00.388Z</time></trkpt><trkpt lat="44.7706508" lon="7.7514119"><ele>258.0</ele><time>2026-04-26T08:03:01.384Z</time></trkpt><trkpt lat="44.7702859" lon="7.7513676"><ele>258.0</ele><time>2026-04-26T08:03:02.384Z</time></trkpt><trkpt lat="44.769922" lon="7.7513394"><ele>257.5</ele><time>2026-04-26T08:03:03.392Z</time></trkpt><trkpt lat="44.7695585" lon="7.7513074"><ele>257.0</ele><time>2026-04-26T08:03:04.39Z</time></trkpt><trkpt lat="44.7692024" lon="7.7512722"><ele>257.0</ele><time>2026-04-26T08:03:05.387Z</time></trkpt><trkpt lat="44.7688394" lon="7.7512351"><ele>257.0</ele><time>2026-04-26T08:03:06.388Z</time></trkpt><trkpt lat="44.768483" lon="7.7511963"><ele>257.0</ele><time>2026-04-26T08:03:07.385Z</time></trkpt><trkpt lat="44.768125" lon="7.7511644"><ele>257.0</ele><time>2026-04-26T08:03:08.403Z</time></trkpt><trkpt lat="44.7677678" lon="7.7511423"><ele>257.0</ele><time>2026-04-26T08:03:09.387Z</time></trkpt><trkpt lat="44.767406" lon="7.7511208"><ele>257.0</ele><time>2026-04-26T08:03:10.385Z</time></trkpt><trkpt lat="44.7670438" lon="7.7510966"><ele>258.0</ele><time>2026-04-26T08:03:11.397Z</time></trkpt><trkpt lat="44.7666817" lon="7.7510651"><ele>259.0</ele><time>2026-04-26T08:03:12.395Z</time></trkpt><trkpt lat="44.7663207" lon="7.7510308"><ele>258.5</ele><time>2026-04-26T08:03:13.391Z</time></trkpt><trkpt lat="44.7659636" lon="7.7509954"><ele>258.0</ele><time>2026-04-26T08:03:14.39Z</time></trkpt><trkpt lat="44.7656066" lon="7.7509578"><ele>258.0</ele><time>2026-04-26T08:03:15.411Z</time></trkpt><trkpt lat="44.7652511" lon="7.7509227"><ele>258.0</ele><time>2026-04-26T08:03:16.389Z</time></trkpt><trkpt lat="44.7648976" lon="7.7508816"><ele>258.0</ele><time>2026-04-26T08:03:17.397Z</time></trkpt><trkpt lat="44.7645442" lon="7.7508411"><ele>258.0</ele><time>2026-04-26T08:03:18.384Z</time></trkpt><trkpt lat="44.7641924" lon="7.7508019"><ele>258.0</ele><time>2026-04-26T08:03:19.387Z</time></trkpt><trkpt lat="44.7638413" lon="7.750766"><ele>258.0</ele><time>2026-04-26T08:03:20.382Z</time></trkpt><trkpt lat="44.7634869" lon="7.7507345"><ele>258.0</ele><time>2026-04-26T08:03:21.392Z</time></trkpt><trkpt lat="44.7631344" lon="7.7507025"><ele>258.0</ele><time>2026-04-26T08:03:22.389Z</time></trkpt><trkpt lat="44.7627827" lon="7.7506736"><ele>258.0</ele><time>2026-04-26T08:03:23.387Z</time></trkpt><trkpt lat="44.7624249" lon="7.7506392"><ele>258.0</ele><time>2026-04-26T08:03:24.384Z</time></trkpt><trkpt lat="44.7620671" lon="7.7505997"><ele>258.0</ele><time>2026-04-26T08:03:25.392Z</time></trkpt><trkpt lat="44.7617082" lon="7.7505589"><ele>258.0</ele><time>2026-04-26T08:03:26.385Z</time></trkpt><trkpt lat="44.7613479" lon="7.7505234"><ele>259.0</ele><time>2026-04-26T08:03:27.427Z</time></trkpt><trkpt lat="44.7609842" lon="7.7504833"><ele>260.0</ele><time>2026-04-26T08:03:28.381Z</time></trkpt><trkpt lat="44.7606228" lon="7.7504498"><ele>260.0</ele><time>2026-04-26T08:03:29.393Z</time></trkpt><trkpt lat="44.7602633" lon="7.7504147"><ele>260.0</ele><time>2026-04-26T08:03:30.389Z</time></trkpt><trkpt lat="44.7599028" lon="7.750385"><ele>260.0</ele><time>2026-04-26T08:03:31.392Z</time></trkpt><trkpt lat="44.7595398" lon="7.7503486"><ele>260.0</ele><time>2026-04-26T08:03:32.387Z</time></trkpt><trkpt lat="44.7591793" lon="7.7503049"><ele>259.5</ele><time>2026-04-26T08:03:33.387Z</time></trkpt><trkpt lat="44.7588147" lon="7.7502688"><ele>259.0</ele><time>2026-04-26T08:03:34.397Z</time></trkpt><trkpt lat="44.7584552" lon="7.7502305"><ele>259.5</ele><time>2026-04-26T08:03:35.391Z</time></trkpt><trkpt lat="44.7580912" lon="7.7501949"><ele>260.0</ele><time>2026-04-26T08:03:36.388Z</time></trkpt><trkpt lat="44.7577247" lon="7.7501575"><ele>261.0</ele><time>2026-04-26T08:03:37.394Z</time></trkpt><trkpt lat="44.7573644" lon="7.7501243"><ele>262.0</ele><time>2026-04-26T08:03:38.387Z</time></trkpt><trkpt lat="44.7569983" lon="7.7500979"><ele>260.0</ele><time>2026-04-26T08:03:39.383Z</time></trkpt><trkpt lat="44.7566285" lon="7.7500661"><ele>258.0</ele><time>2026-04-26T08:03:40.389Z</time></trkpt><trkpt lat="44.7562587" lon="7.7500417"><ele>258.5</ele><time>2026-04-26T08:03:41.387Z</time></trkpt><trkpt lat="44.755893" lon="7.7500184"><ele>259.0</ele><time>2026-04-26T08:03:42.388Z</time></trkpt><trkpt lat="44.7555241" lon="7.7499985"><ele>260.0</ele><time>2026-04-26T08:03:43.388Z</time></trkpt><trkpt lat="44.7551556" lon="7.7499911"><ele>261.0</ele><time>2026-04-26T08:03:44.387Z</time></trkpt><trkpt lat="44.7547847" lon="7.7499847"><ele>261.0</ele><time>2026-04-26T08:03:45.391Z</time></trkpt><trkpt lat="44.7544182" lon="7.7499825"><ele>261.0</ele><time>2026-04-26T08:03:46.383Z</time></trkpt><trkpt lat="44.7540523" lon="7.7499898"><ele>261.5</ele><time>2026-04-26T08:03:47.391Z</time></trkpt><trkpt lat="44.7536815" lon="7.7499976"><ele>262.0</ele><time>2026-04-26T08:03:48.378Z</time></trkpt><trkpt lat="44.7533144" lon="7.7500044"><ele>262.5</ele><time>2026-04-26T08:03:49.382Z</time></trkpt><trkpt lat="44.7529511" lon="7.750015"><ele>263.0</ele><time>2026-04-26T08:03:50.386Z</time></trkpt><trkpt lat="44.7525819" lon="7.7500273"><ele>263.0</ele><time>2026-04-26T08:03:51.399Z</time></trkpt><trkpt lat="44.7522126" lon="7.7500512"><ele>263.0</ele><time>2026-04-26T08:03:52.385Z</time></trkpt><trkpt lat="44.7518491" lon="7.7500753"><ele>263.0</ele><time>2026-04-26T08:03:53.385Z</time></trkpt><trkpt lat="44.7514848" lon="7.7501011"><ele>263.0</ele><time>2026-04-26T08:03:54.383Z</time></trkpt><trkpt lat="44.7511212" lon="7.7501292"><ele>263.5</ele><time>2026-04-26T08:03:55.386Z</time></trkpt><trkpt lat="44.7507619" lon="7.7501645"><ele>264.0</ele><time>2026-04-26T08:03:56.392Z</time></trkpt><trkpt lat="44.7504056" lon="7.7502039"><ele>262.5</ele><time>2026-04-26T08:03:57.388Z</time></trkpt><trkpt lat="44.7500477" lon="7.7502481"><ele>261.0</ele><time>2026-04-26T08:03:58.383Z</time></trkpt><trkpt lat="44.7496926" lon="7.7502961"><ele>261.5</ele><time>2026-04-26T08:03:59.398Z</time></trkpt><trkpt lat="44.7493409" lon="7.7503502"><ele>262.0</ele><time>2026-04-26T08:04:00.383Z</time></trkpt><trkpt lat="44.7489914" lon="7.7504092"><ele>262.0</ele><time>2026-04-26T08:04:01.388Z</time></trkpt><trkpt lat="44.7486452" lon="7.750466"><ele>262.0</ele><time>2026-04-26T08:04:02.388Z</time></trkpt><trkpt lat="44.7483018" lon="7.7505273"><ele>262.0</ele><time>2026-04-26T08:04:03.385Z</time></trkpt><trkpt lat="44.7479619" lon="7.7505945"><ele>262.0</ele><time>2026-04-26T08:04:04.384Z</time></trkpt><trkpt lat="44.7476139" lon="7.7506615"><ele>263.5</ele><time>2026-04-26T08:04:05.386Z</time></trkpt><trkpt lat="44.7472721" lon="7.7507306"><ele>265.0</ele><time>2026-04-26T08:04:06.39Z</time></trkpt><trkpt lat="44.7469258" lon="7.7508089"><ele>264.0</ele><time>2026-04-26T08:04:07.392Z</time></trkpt><trkpt lat="44.7465818" lon="7.750888"><ele>263.0</ele><time>2026-04-26T08:04:08.386Z</time></trkpt><trkpt lat="44.7462361" lon="7.7509688"><ele>263.5</ele><time>2026-04-26T08:04:09.387Z</time></trkpt><trkpt lat="44.7458863" lon="7.7510499"><ele>264.0</ele><time>2026-04-26T08:04:10.388Z</time></trkpt><trkpt lat="44.745538" lon="7.7511404"><ele>263.0</ele><time>2026-04-26T08:04:11.389Z</time></trkpt><trkpt lat="44.7451905" lon="7.7512312"><ele>262.0</ele><time>2026-04-26T08:04:12.395Z</time></trkpt><trkpt lat="44.7448433" lon="7.7513193"><ele>262.0</ele><time>2026-04-26T08:04:13.39Z</time></trkpt><trkpt lat="44.7444914" lon="7.7514157"><ele>262.0</ele><time>2026-04-26T08:04:14.391Z</time></trkpt><trkpt lat="44.7441379" lon="7.7515168"><ele>262.5</ele><time>2026-04-26T08:04:15.388Z</time></trkpt><trkpt lat="44.7437915" lon="7.7516186"><ele>263.0</ele><time>2026-04-26T08:04:16.387Z</time></trkpt><trkpt lat="44.7434434" lon="7.7517151"><ele>263.5</ele><time>2026-04-26T08:04:17.387Z</time></trkpt><trkpt lat="44.7430948" lon="7.7518118"><ele>264.0</ele><time>2026-04-26T08:04:18.388Z</time></trkpt><trkpt lat="44.7427411" lon="7.7519146"><ele>265.0</ele><time>2026-04-26T08:04:19.377Z</time></trkpt><trkpt lat="44.7423908" lon="7.7520157"><ele>266.0</ele><time>2026-04-26T08:04:20.39Z</time></trkpt><trkpt lat="44.7420389" lon="7.7521186"><ele>265.0</ele><time>2026-04-26T08:04:21.379Z</time></trkpt><trkpt lat="44.7416885" lon="7.7522227"><ele>264.0</ele><time>2026-04-26T08:04:22.385Z</time></trkpt><trkpt lat="44.7413379" lon="7.7523274"><ele>265.0</ele><time>2026-04-26T08:04:23.39Z</time></trkpt><trkpt lat="44.7409834" lon="7.7524254"><ele>266.0</ele><time>2026-04-26T08:04:24.39Z</time></trkpt><trkpt lat="44.7406276" lon="7.7525246"><ele>266.0</ele><time>2026-04-26T08:04:25.386Z</time></trkpt><trkpt lat="44.7402723" lon="7.7526231"><ele>266.0</ele><time>2026-04-26T08:04:26.388Z</time></trkpt><trkpt lat="44.7399199" lon="7.7527293"><ele>266.0</ele><time>2026-04-26T08:04:27.39Z</time></trkpt><trkpt lat="44.7395611" lon="7.7528339"><ele>266.0</ele><time>2026-04-26T08:04:28.381Z</time></trkpt><trkpt lat="44.7392006" lon="7.7529368"><ele>266.0</ele><time>2026-04-26T08:04:29.397Z</time></trkpt><trkpt lat="44.7388446" lon="7.7530445"><ele>266.0</ele><time>2026-04-26T08:04:30.39Z</time></trkpt><trkpt lat="44.738484" lon="7.7531418"><ele>266.0</ele><time>2026-04-26T08:04:31.392Z</time></trkpt><trkpt lat="44.7381271" lon="7.7532421"><ele>266.0</ele><time>2026-04-26T08:04:32.39Z</time></trkpt><trkpt lat="44.7377653" lon="7.7533437"><ele>266.0</ele><time>2026-04-26T08:04:33.387Z</time></trkpt><trkpt lat="44.7374073" lon="7.7534458"><ele>266.0</ele><time>2026-04-26T08:04:34.386Z</time></trkpt><trkpt lat="44.737049" lon="7.7535448"><ele>266.5</ele><time>2026-04-26T08:04:35.39Z</time></trkpt><trkpt lat="44.7366879" lon="7.7536509"><ele>267.0</ele><time>2026-04-26T08:04:36.389Z</time></trkpt><trkpt lat="44.7363237" lon="7.7537537"><ele>267.0</ele><time>2026-04-26T08:04:37.388Z</time></trkpt><trkpt lat="44.7359593" lon="7.753859"><ele>267.0</ele><time>2026-04-26T08:04:38.385Z</time></trkpt><trkpt lat="44.7355943" lon="7.7539642"><ele>267.0</ele><time>2026-04-26T08:04:39.391Z</time></trkpt><trkpt lat="44.7352323" lon="7.7540692"><ele>267.0</ele><time>2026-04-26T08:04:40.383Z</time></trkpt><trkpt lat="44.7348633" lon="7.7541783"><ele>267.5</ele><time>2026-04-26T08:04:41.378Z</time></trkpt><trkpt lat="44.7344941" lon="7.7542959"><ele>268.0</ele><time>2026-04-26T08:04:42.386Z</time></trkpt><trkpt lat="44.7341241" lon="7.7544145"><ele>268.0</ele><time>2026-04-26T08:04:43.389Z</time></trkpt><trkpt lat="44.733755" lon="7.7545304"><ele>268.0</ele><time>2026-04-26T08:04:44.4Z</time></trkpt><trkpt lat="44.7333933" lon="7.7546429"><ele>268.5</ele><time>2026-04-26T08:04:45.391Z</time></trkpt><trkpt lat="44.7330258" lon="7.7547501"><ele>269.0</ele><time>2026-04-26T08:04:46.404Z</time></trkpt><trkpt lat="44.732665" lon="7.7548583"><ele>269.0</ele><time>2026-04-26T08:04:47.387Z</time></trkpt><trkpt lat="44.7323036" lon="7.7549627"><ele>269.0</ele><time>2026-04-26T08:04:48.384Z</time></trkpt><trkpt lat="44.7319432" lon="7.7550681"><ele>269.0</ele><time>2026-04-26T08:04:49.392Z</time></trkpt><trkpt lat="44.7315857" lon="7.7551711"><ele>269.0</ele><time>2026-04-26T08:04:50.383Z</time></trkpt><trkpt lat="44.7312295" lon="7.7552734"><ele>268.5</ele><time>2026-04-26T08:04:51.39Z</time></trkpt><trkpt lat="44.7308799" lon="7.7553732"><ele>268.0</ele><time>2026-04-26T08:04:52.389Z</time></trkpt><trkpt lat="44.7305333" lon="7.7554711"><ele>268.5</ele><time>2026-04-26T08:04:53.378Z</time></trkpt><trkpt lat="44.7301766" lon="7.7555701"><ele>269.0</ele><time>2026-04-26T08:04:54.39Z</time></trkpt><trkpt lat="44.7298215" lon="7.7556713"><ele>269.0</ele><time>2026-04-26T08:04:55.393Z</time></trkpt><trkpt lat="44.7294705" lon="7.7557634"><ele>269.0</ele><time>2026-04-26T08:04:56.395Z</time></trkpt><trkpt lat="44.7291203" lon="7.7558663"><ele>269.0</ele><time>2026-04-26T08:04:57.393Z</time></trkpt><trkpt lat="44.7287685" lon="7.7559709"><ele>269.0</ele><time>2026-04-26T08:04:58.399Z</time></trkpt><trkpt lat="44.7284108" lon="7.7560659"><ele>269.0</ele><time>2026-04-26T08:04:59.386Z</time></trkpt><trkpt lat="44.7280549" lon="7.7561571"><ele>269.0</ele><time>2026-04-26T08:05:00.397Z</time></trkpt><trkpt lat="44.7277003" lon="7.7562458"><ele>268.5</ele><time>2026-04-26T08:05:01.389Z</time></trkpt><trkpt lat="44.7273486" lon="7.7563352"><ele>268.0</ele><time>2026-04-26T08:05:02.383Z</time></trkpt><trkpt lat="44.7269926" lon="7.7564356"><ele>268.5</ele><time>2026-04-26T08:05:03.387Z</time></trkpt><trkpt lat="44.7266373" lon="7.7565355"><ele>269.0</ele><time>2026-04-26T08:05:04.388Z</time></trkpt><trkpt lat="44.7262836" lon="7.7566461"><ele>270.0</ele><time>2026-04-26T08:05:05.4Z</time></trkpt><trkpt lat="44.7259281" lon="7.7567501"><ele>271.0</ele><time>2026-04-26T08:05:06.388Z</time></trkpt><trkpt lat="44.7255728" lon="7.7568479"><ele>270.0</ele><time>2026-04-26T08:05:07.388Z</time></trkpt><trkpt lat="44.725219" lon="7.7569536"><ele>269.0</ele><time>2026-04-26T08:05:08.385Z</time></trkpt><trkpt lat="44.7248547" lon="7.7570542"><ele>269.0</ele><time>2026-04-26T08:05:09.385Z</time></trkpt><trkpt lat="44.7244929" lon="7.7571599"><ele>269.0</ele><time>2026-04-26T08:05:10.389Z</time></trkpt><trkpt lat="44.7241315" lon="7.7572622"><ele>270.0</ele><time>2026-04-26T08:05:11.395Z</time></trkpt><trkpt lat="44.7237718" lon="7.7573629"><ele>271.0</ele><time>2026-04-26T08:05:12.393Z</time></trkpt><trkpt lat="44.7234083" lon="7.7574682"><ele>271.0</ele><time>2026-04-26T08:05:13.386Z</time></trkpt><trkpt lat="44.7230434" lon="7.7575701"><ele>271.0</ele><time>2026-04-26T08:05:14.388Z</time></trkpt><trkpt lat="44.722681" lon="7.7576795"><ele>272.5</ele><time>2026-04-26T08:05:15.386Z</time></trkpt><trkpt lat="44.7223181" lon="7.7577885"><ele>274.0</ele><time>2026-04-26T08:05:16.387Z</time></trkpt><trkpt lat="44.7219561" lon="7.7578943"><ele>273.0</ele><time>2026-04-26T08:05:17.387Z</time></trkpt><trkpt lat="44.721595" lon="7.7579989"><ele>272.0</ele><time>2026-04-26T08:05:18.398Z</time></trkpt><trkpt lat="44.7212332" lon="7.7581047"><ele>272.0</ele><time>2026-04-26T08:05:19.39Z</time></trkpt><trkpt lat="44.720877" lon="7.7582067"><ele>272.0</ele><time>2026-04-26T08:05:20.391Z</time></trkpt><trkpt lat="44.7205232" lon="7.7583066"><ele>272.0</ele><time>2026-04-26T08:05:21.388Z</time></trkpt><trkpt lat="44.7201669" lon="7.7584114"><ele>272.0</ele><time>2026-04-26T08:05:22.389Z</time></trkpt><trkpt lat="44.7198106" lon="7.7585192"><ele>272.5</ele><time>2026-04-26T08:05:23.385Z</time></trkpt><trkpt lat="44.719458" lon="7.7586288"><ele>273.0</ele><time>2026-04-26T08:05:24.384Z</time></trkpt><trkpt lat="44.7191037" lon="7.7587384"><ele>273.0</ele><time>2026-04-26T08:05:25.391Z</time></trkpt><trkpt lat="44.7187609" lon="7.7588466"><ele>273.0</ele><time>2026-04-26T08:05:26.399Z</time></trkpt><trkpt lat="44.7184199" lon="7.7589446"><ele>273.5</ele><time>2026-04-26T08:05:27.385Z</time></trkpt><trkpt lat="44.7180795" lon="7.759037"><ele>274.0</ele><time>2026-04-26T08:05:28.398Z</time></trkpt><trkpt lat="44.7177387" lon="7.7591298"><ele>275.0</ele><time>2026-04-26T08:05:29.397Z</time></trkpt><trkpt lat="44.7173963" lon="7.7592226"><ele>276.0</ele><time>2026-04-26T08:05:30.39Z</time></trkpt><trkpt lat="44.7170554" lon="7.7593107"><ele>275.0</ele><time>2026-04-26T08:05:31.392Z</time></trkpt><trkpt lat="44.7167103" lon="7.7594001"><ele>274.0</ele><time>2026-04-26T08:05:32.401Z</time></trkpt><trkpt lat="44.716365" lon="7.7594946"><ele>274.0</ele><time>2026-04-26T08:05:33.395Z</time></trkpt><trkpt lat="44.716022" lon="7.7595902"><ele>274.0</ele><time>2026-04-26T08:05:34.385Z</time></trkpt><trkpt lat="44.7156746" lon="7.7596857"><ele>274.0</ele><time>2026-04-26T08:05:35.389Z</time></trkpt><trkpt lat="44.7153257" lon="7.7597835"><ele>274.0</ele><time>2026-04-26T08:05:36.398Z</time></trkpt><trkpt lat="44.7149773" lon="7.7598833"><ele>273.5</ele><time>2026-04-26T08:05:37.398Z</time></trkpt><trkpt lat="44.7146287" lon="7.7599857"><ele>273.0</ele><time>2026-04-26T08:05:38.401Z</time></trkpt><trkpt lat="44.7142822" lon="7.760081"><ele>273.0</ele><time>2026-04-26T08:05:39.391Z</time></trkpt><trkpt lat="44.7139349" lon="7.7601832"><ele>273.0</ele><time>2026-04-26T08:05:40.394Z</time></trkpt><trkpt lat="44.7135822" lon="7.7602852"><ele>273.5</ele><time>2026-04-26T08:05:41.383Z</time></trkpt><trkpt lat="44.7132306" lon="7.7603885"><ele>274.0</ele><time>2026-04-26T08:05:42.387Z</time></trkpt><trkpt lat="44.712877" lon="7.7604914"><ele>275.0</ele><time>2026-04-26T08:05:43.393Z</time></trkpt><trkpt lat="44.7125284" lon="7.7605934"><ele>276.0</ele><time>2026-04-26T08:05:44.383Z</time></trkpt><trkpt lat="44.7121771" lon="7.7606914"><ele>276.5</ele><time>2026-04-26T08:05:45.395Z</time></trkpt><trkpt lat="44.7118245" lon="7.7607907"><ele>277.0</ele><time>2026-04-26T08:05:46.406Z</time></trkpt><trkpt lat="44.7114708" lon="7.7608927"><ele>277.0</ele><time>2026-04-26T08:05:47.39Z</time></trkpt><trkpt lat="44.7111219" lon="7.7609955"><ele>277.0</ele><time>2026-04-26T08:05:48.402Z</time></trkpt><trkpt lat="44.7107693" lon="7.7610999"><ele>276.5</ele><time>2026-04-26T08:05:49.389Z</time></trkpt><trkpt lat="44.7104184" lon="7.7612117"><ele>276.0</ele><time>2026-04-26T08:05:50.392Z</time></trkpt><trkpt lat="44.710065" lon="7.761314"><ele>276.5</ele><time>2026-04-26T08:05:51.403Z</time></trkpt><trkpt lat="44.7097143" lon="7.7614119"><ele>277.0</ele><time>2026-04-26T08:05:52.382Z</time></trkpt><trkpt lat="44.7093584" lon="7.7615107"><ele>277.0</ele><time>2026-04-26T08:05:53.386Z</time></trkpt><trkpt lat="44.7090084" lon="7.7616142"><ele>277.0</ele><time>2026-04-26T08:05:54.401Z</time></trkpt><trkpt lat="44.7086562" lon="7.7617154"><ele>277.5</ele><time>2026-04-26T08:05:55.386Z</time></trkpt><trkpt lat="44.7083062" lon="7.7618127"><ele>278.0</ele><time>2026-04-26T08:05:56.387Z</time></trkpt><trkpt lat="44.7079589" lon="7.7619187"><ele>277.5</ele><time>2026-04-26T08:05:57.397Z</time></trkpt><trkpt lat="44.7076077" lon="7.7620209"><ele>277.0</ele><time>2026-04-26T08:05:58.392Z</time></trkpt><trkpt lat="44.7072566" lon="7.7621196"><ele>276.5</ele><time>2026-04-26T08:05:59.388Z</time></trkpt><trkpt lat="44.7069046" lon="7.7622149"><ele>276.0</ele><time>2026-04-26T08:06:00.393Z</time></trkpt><trkpt lat="44.7065526" lon="7.7623187"><ele>276.0</ele><time>2026-04-26T08:06:01.386Z</time></trkpt><trkpt lat="44.7061988" lon="7.7624245"><ele>276.0</ele><time>2026-04-26T08:06:02.387Z</time></trkpt><trkpt lat="44.7058504" lon="7.7625366"><ele>276.5</ele><time>2026-04-26T08:06:03.395Z</time></trkpt><trkpt lat="44.7055011" lon="7.7626544"><ele>277.0</ele><time>2026-04-26T08:06:04.386Z</time></trkpt><trkpt lat="44.7051449" lon="7.7627643"><ele>278.5</ele><time>2026-04-26T08:06:05.41Z</time></trkpt><trkpt lat="44.7047886" lon="7.7628705"><ele>280.0</ele><time>2026-04-26T08:06:06.389Z</time></trkpt><trkpt lat="44.7044346" lon="7.7629735"><ele>280.0</ele><time>2026-04-26T08:06:07.392Z</time></trkpt><trkpt lat="44.7040837" lon="7.7630766"><ele>280.0</ele><time>2026-04-26T08:06:08.389Z</time></trkpt><trkpt lat="44.7037296" lon="7.7631751"><ele>279.5</ele><time>2026-04-26T08:06:09.385Z</time></trkpt><trkpt lat="44.7033773" lon="7.7632649"><ele>279.0</ele><time>2026-04-26T08:06:10.387Z</time></trkpt><trkpt lat="44.7030247" lon="7.7633527"><ele>279.0</ele><time>2026-04-26T08:06:11.385Z</time></trkpt><trkpt lat="44.7026659" lon="7.7634419"><ele>279.0</ele><time>2026-04-26T08:06:12.384Z</time></trkpt><trkpt lat="44.702316" lon="7.7635366"><ele>279.0</ele><time>2026-04-26T08:06:13.392Z</time></trkpt><trkpt lat="44.7019616" lon="7.7636319"><ele>279.0</ele><time>2026-04-26T08:06:14.39Z</time></trkpt><trkpt lat="44.7016055" lon="7.7637329"><ele>279.5</ele><time>2026-04-26T08:06:15.395Z</time></trkpt><trkpt lat="44.7012526" lon="7.7638351"><ele>280.0</ele><time>2026-04-26T08:06:16.388Z</time></trkpt><trkpt lat="44.7009044" lon="7.7639319"><ele>281.0</ele><time>2026-04-26T08:06:17.394Z</time></trkpt><trkpt lat="44.7005504" lon="7.7640327"><ele>282.0</ele><time>2026-04-26T08:06:18.395Z</time></trkpt><trkpt lat="44.700197" lon="7.7641334"><ele>282.0</ele><time>2026-04-26T08:06:19.395Z</time></trkpt><trkpt lat="44.6998432" lon="7.7642411"><ele>282.0</ele><time>2026-04-26T08:06:20.38Z</time></trkpt><trkpt lat="44.6994843" lon="7.7643435"><ele>282.0</ele><time>2026-04-26T08:06:21.397Z</time></trkpt><trkpt lat="44.6991289" lon="7.7644502"><ele>282.0</ele><time>2026-04-26T08:06:22.387Z</time></trkpt><trkpt lat="44.6987726" lon="7.7645541"><ele>282.5</ele><time>2026-04-26T08:06:23.391Z</time></trkpt><trkpt lat="44.6984148" lon="7.7646554"><ele>283.0</ele><time>2026-04-26T08:06:24.398Z</time></trkpt><trkpt lat="44.6980592" lon="7.7647577"><ele>284.0</ele><time>2026-04-26T08:06:25.396Z</time></trkpt><trkpt lat="44.6976997" lon="7.7648659"><ele>285.0</ele><time>2026-04-26T08:06:26.39Z</time></trkpt><trkpt lat="44.6973406" lon="7.7649662"><ele>285.0</ele><time>2026-04-26T08:06:27.385Z</time></trkpt><trkpt lat="44.6969854" lon="7.7650767"><ele>285.0</ele><time>2026-04-26T08:06:28.385Z</time></trkpt><trkpt lat="44.6966308" lon="7.7651945"><ele>285.0</ele><time>2026-04-26T08:06:29.381Z</time></trkpt><trkpt lat="44.6962772" lon="7.7653061"><ele>285.0</ele><time>2026-04-26T08:06:30.383Z</time></trkpt><trkpt lat="44.6959175" lon="7.765411"><ele>285.0</ele><time>2026-04-26T08:06:31.389Z</time></trkpt><trkpt lat="44.6955578" lon="7.7655159"><ele>285.0</ele><time>2026-04-26T08:06:32.405Z</time></trkpt><trkpt lat="44.6951932" lon="7.765621"><ele>285.5</ele><time>2026-04-26T08:06:33.394Z</time></trkpt><trkpt lat="44.6948275" lon="7.7657242"><ele>286.0</ele><time>2026-04-26T08:06:34.417Z</time></trkpt><trkpt lat="44.6944633" lon="7.7658276"><ele>285.5</ele><time>2026-04-26T08:06:35.396Z</time></trkpt><trkpt lat="44.694102" lon="7.7659316"><ele>285.0</ele><time>2026-04-26T08:06:36.389Z</time></trkpt><trkpt lat="44.6937471" lon="7.7660366"><ele>285.0</ele><time>2026-04-26T08:06:37.388Z</time></trkpt><trkpt lat="44.6933876" lon="7.7661411"><ele>285.0</ele><time>2026-04-26T08:06:38.399Z</time></trkpt><trkpt lat="44.6930329" lon="7.7662426"><ele>285.0</ele><time>2026-04-26T08:06:39.383Z</time></trkpt><trkpt lat="44.6926716" lon="7.7663454"><ele>285.0</ele><time>2026-04-26T08:06:40.382Z</time></trkpt><trkpt lat="44.6923074" lon="7.7664486"><ele>285.0</ele><time>2026-04-26T08:06:41.384Z</time></trkpt><trkpt lat="44.6919462" lon="7.7665524"><ele>285.0</ele><time>2026-04-26T08:06:42.389Z</time></trkpt><trkpt lat="44.691585" lon="7.76666"><ele>285.0</ele><time>2026-04-26T08:06:43.386Z</time></trkpt><trkpt lat="44.6912219" lon="7.766768"><ele>285.0</ele><time>2026-04-26T08:06:44.391Z</time></trkpt><trkpt lat="44.6908602" lon="7.7668768"><ele>285.0</ele><time>2026-04-26T08:06:45.378Z</time></trkpt><trkpt lat="44.6904987" lon="7.7669816"><ele>285.0</ele><time>2026-04-26T08:06:46.381Z</time></trkpt><trkpt lat="44.6901385" lon="7.7670879"><ele>285.0</ele><time>2026-04-26T08:06:47.385Z</time></trkpt><trkpt lat="44.689779" lon="7.7671974"><ele>285.0</ele><time>2026-04-26T08:06:48.388Z</time></trkpt><trkpt lat="44.6894227" lon="7.7672991"><ele>285.5</ele><time>2026-04-26T08:06:49.386Z</time></trkpt><trkpt lat="44.6890666" lon="7.767402"><ele>286.0</ele><time>2026-04-26T08:06:50.378Z</time></trkpt><trkpt lat="44.6887127" lon="7.767507"><ele>286.0</ele><time>2026-04-26T08:06:51.385Z</time></trkpt><trkpt lat="44.6883603" lon="7.7676072"><ele>286.0</ele><time>2026-04-26T08:06:52.382Z</time></trkpt><trkpt lat="44.6880113" lon="7.7677056"><ele>286.0</ele><time>2026-04-26T08:06:53.389Z</time></trkpt><trkpt lat="44.6876625" lon="7.7677993"><ele>286.0</ele><time>2026-04-26T08:06:54.387Z</time></trkpt><trkpt lat="44.6873145" lon="7.7679014"><ele>286.0</ele><time>2026-04-26T08:06:55.388Z</time></trkpt><trkpt lat="44.6869673" lon="7.7679987"><ele>286.0</ele><time>2026-04-26T08:06:56.385Z</time></trkpt><trkpt lat="44.6866184" lon="7.7680993"><ele>287.0</ele><time>2026-04-26T08:06:57.388Z</time></trkpt><trkpt lat="44.6862742" lon="7.7681969"><ele>288.0</ele><time>2026-04-26T08:06:58.392Z</time></trkpt><trkpt lat="44.6859242" lon="7.7682951"><ele>288.0</ele><time>2026-04-26T08:06:59.385Z</time></trkpt><trkpt lat="44.6855806" lon="7.7683949"><ele>288.0</ele><time>2026-04-26T08:07:00.393Z</time></trkpt><trkpt lat="44.6852358" lon="7.7684877"><ele>287.0</ele><time>2026-04-26T08:07:01.388Z</time></trkpt><trkpt lat="44.6848903" lon="7.7685841"><ele>286.0</ele><time>2026-04-26T08:07:02.389Z</time></trkpt><trkpt lat="44.6845482" lon="7.7686797"><ele>286.5</ele><time>2026-04-26T08:07:03.383Z</time></trkpt><trkpt lat="44.6842077" lon="7.7687756"><ele>287.0</ele><time>2026-04-26T08:07:04.382Z</time></trkpt><trkpt lat="44.6838634" lon="7.768874"><ele>287.0</ele><time>2026-04-26T08:07:05.391Z</time></trkpt><trkpt lat="44.6835224" lon="7.7689785"><ele>287.0</ele><time>2026-04-26T08:07:06.382Z</time></trkpt><trkpt lat="44.6831841" lon="7.769076"><ele>287.0</ele><time>2026-04-26T08:07:07.382Z</time></trkpt><trkpt lat="44.6828471" lon="7.7691721"><ele>287.0</ele><time>2026-04-26T08:07:08.385Z</time></trkpt><trkpt lat="44.6825148" lon="7.7692725"><ele>287.0</ele><time>2026-04-26T08:07:09.385Z</time></trkpt><trkpt lat="44.6821779" lon="7.769371"><ele>287.0</ele><time>2026-04-26T08:07:10.399Z</time></trkpt><trkpt lat="44.6818429" lon="7.7694719"><ele>287.5</ele><time>2026-04-26T08:07:11.385Z</time></trkpt><trkpt lat="44.6815076" lon="7.7695689"><ele>288.0</ele><time>2026-04-26T08:07:12.386Z</time></trkpt><trkpt lat="44.6811729" lon="7.7696657"><ele>288.5</ele><time>2026-04-26T08:07:13.384Z</time></trkpt><trkpt lat="44.6808353" lon="7.7697619"><ele>289.0</ele><time>2026-04-26T08:07:14.391Z</time></trkpt><trkpt lat="44.680498" lon="7.7698548"><ele>289.5</ele><time>2026-04-26T08:07:15.384Z</time></trkpt><trkpt lat="44.6801593" lon="7.7699477"><ele>290.0</ele><time>2026-04-26T08:07:16.384Z</time></trkpt><trkpt lat="44.6798214" lon="7.7700439"><ele>290.0</ele><time>2026-04-26T08:07:17.394Z</time></trkpt><trkpt lat="44.6794826" lon="7.7701446"><ele>290.0</ele><time>2026-04-26T08:07:18.386Z</time></trkpt><trkpt lat="44.6791431" lon="7.7702513"><ele>290.5</ele><time>2026-04-26T08:07:19.386Z</time></trkpt><trkpt lat="44.678797" lon="7.7703443"><ele>291.0</ele><time>2026-04-26T08:07:20.4Z</time></trkpt><trkpt lat="44.6784588" lon="7.770444"><ele>292.5</ele><time>2026-04-26T08:07:21.389Z</time></trkpt><trkpt lat="44.6781142" lon="7.7705436"><ele>294.0</ele><time>2026-04-26T08:07:22.386Z</time></trkpt><trkpt lat="44.6777723" lon="7.7706377"><ele>292.5</ele><time>2026-04-26T08:07:23.391Z</time></trkpt><trkpt lat="44.677429" lon="7.770739"><ele>291.0</ele><time>2026-04-26T08:07:24.402Z</time></trkpt><trkpt lat="44.6770819" lon="7.7708385"><ele>291.0</ele><time>2026-04-26T08:07:25.379Z</time></trkpt><trkpt lat="44.6767342" lon="7.770942"><ele>291.0</ele><time>2026-04-26T08:07:26.406Z</time></trkpt><trkpt lat="44.676386" lon="7.7710408"><ele>292.5</ele><time>2026-04-26T08:07:27.396Z</time></trkpt><trkpt lat="44.6760372" lon="7.7711382"><ele>294.0</ele><time>2026-04-26T08:07:28.382Z</time></trkpt><trkpt lat="44.6756874" lon="7.7712368"><ele>294.0</ele><time>2026-04-26T08:07:29.404Z</time></trkpt><trkpt lat="44.6753372" lon="7.7713404"><ele>294.0</ele><time>2026-04-26T08:07:30.386Z</time></trkpt><trkpt lat="44.6749846" lon="7.7714403"><ele>294.0</ele><time>2026-04-26T08:07:31.388Z</time></trkpt><trkpt lat="44.6746298" lon="7.771544"><ele>294.0</ele><time>2026-04-26T08:07:32.386Z</time></trkpt><trkpt lat="44.674276" lon="7.7716449"><ele>294.0</ele><time>2026-04-26T08:07:33.392Z</time></trkpt><trkpt lat="44.6739202" lon="7.7717449"><ele>294.0</ele><time>2026-04-26T08:07:34.393Z</time></trkpt><trkpt lat="44.6735621" lon="7.7718497"><ele>293.5</ele><time>2026-04-26T08:07:35.389Z</time></trkpt><trkpt lat="44.6732012" lon="7.7719509"><ele>293.0</ele><time>2026-04-26T08:07:36.395Z</time></trkpt><trkpt lat="44.6728421" lon="7.7720539"><ele>293.5</ele><time>2026-04-26T08:07:37.384Z</time></trkpt><trkpt lat="44.6724801" lon="7.7721591"><ele>294.0</ele><time>2026-04-26T08:07:38.388Z</time></trkpt><trkpt lat="44.6721186" lon="7.7722646"><ele>294.0</ele><time>2026-04-26T08:07:39.395Z</time></trkpt><trkpt lat="44.6717538" lon="7.7723708"><ele>294.0</ele><time>2026-04-26T08:07:40.384Z</time></trkpt><trkpt lat="44.6713911" lon="7.772477"><ele>295.5</ele><time>2026-04-26T08:07:41.383Z</time></trkpt><trkpt lat="44.6710312" lon="7.7725738"><ele>297.0</ele><time>2026-04-26T08:07:42.388Z</time></trkpt><trkpt lat="44.6706728" lon="7.7726728"><ele>296.0</ele><time>2026-04-26T08:07:43.402Z</time></trkpt><trkpt lat="44.6703146" lon="7.7727766"><ele>295.0</ele><time>2026-04-26T08:07:44.389Z</time></trkpt><trkpt lat="44.6699614" lon="7.7728797"><ele>295.0</ele><time>2026-04-26T08:07:45.395Z</time></trkpt><trkpt lat="44.6696105" lon="7.7729779"><ele>295.0</ele><time>2026-04-26T08:07:46.394Z</time></trkpt><trkpt lat="44.6692569" lon="7.7730775"><ele>295.0</ele><time>2026-04-26T08:07:47.389Z</time></trkpt><trkpt lat="44.668908" lon="7.7731786"><ele>295.0</ele><time>2026-04-26T08:07:48.394Z</time></trkpt><trkpt lat="44.6685596" lon="7.7732833"><ele>295.5</ele><time>2026-04-26T08:07:49.386Z</time></trkpt><trkpt lat="44.6682082" lon="7.7733862"><ele>296.0</ele><time>2026-04-26T08:07:50.392Z</time></trkpt><trkpt lat="44.6678618" lon="7.7734861"><ele>295.5</ele><time>2026-04-26T08:07:51.394Z</time></trkpt><trkpt lat="44.6675155" lon="7.7735864"><ele>295.0</ele><time>2026-04-26T08:07:52.388Z</time></trkpt><trkpt lat="44.6671674" lon="7.7736821"><ele>296.0</ele><time>2026-04-26T08:07:53.389Z</time></trkpt><trkpt lat="44.666819" lon="7.7737734"><ele>297.0</ele><time>2026-04-26T08:07:54.401Z</time></trkpt><trkpt lat="44.666467" lon="7.7738761"><ele>297.0</ele><time>2026-04-26T08:07:55.389Z</time></trkpt><trkpt lat="44.6661223" lon="7.773977"><ele>297.0</ele><time>2026-04-26T08:07:56.396Z</time></trkpt><trkpt lat="44.665779" lon="7.7740714"><ele>298.0</ele><time>2026-04-26T08:07:57.385Z</time></trkpt><trkpt lat="44.665444" lon="7.7741639"><ele>299.0</ele><time>2026-04-26T08:07:58.401Z</time></trkpt><trkpt lat="44.6651182" lon="7.7742546"><ele>299.0</ele><time>2026-04-26T08:07:59.404Z</time></trkpt><trkpt lat="44.664797" lon="7.7743342"><ele>299.0</ele><time>2026-04-26T08:08:00.39Z</time></trkpt><trkpt lat="44.6644785" lon="7.7744138"><ele>300.5</ele><time>2026-04-26T08:08:01.386Z</time></trkpt><trkpt lat="44.664162" lon="7.7744942"><ele>302.0</ele><time>2026-04-26T08:08:02.385Z</time></trkpt><trkpt lat="44.6638611" lon="7.7745739"><ele>300.0</ele><time>2026-04-26T08:08:03.388Z</time></trkpt><trkpt lat="44.6635625" lon="7.7746452"><ele>298.0</ele><time>2026-04-26T08:08:04.392Z</time></trkpt><trkpt lat="44.6632816" lon="7.7747219"><ele>298.0</ele><time>2026-04-26T08:08:05.378Z</time></trkpt><trkpt lat="44.6630401" lon="7.7747842"><ele>298.0</ele><time>2026-04-26T08:08:06.399Z</time></trkpt><trkpt lat="44.6628021" lon="7.7748486"><ele>298.5</ele><time>2026-04-26T08:08:07.385Z</time></trkpt><trkpt lat="44.6625712" lon="7.7749134"><ele>299.0</ele><time>2026-04-26T08:08:08.384Z</time></trkpt><trkpt lat="44.6623601" lon="7.7749756"><ele>299.0</ele><time>2026-04-26T08:08:09.388Z</time></trkpt><trkpt lat="44.6621567" lon="7.775036"><ele>299.0</ele><time>2026-04-26T08:08:10.389Z</time></trkpt><trkpt lat="44.66197" lon="7.7750912"><ele>299.0</ele><time>2026-04-26T08:08:11.389Z</time></trkpt><trkpt lat="44.661791" lon="7.7751271"><ele>299.6666666666667</ele><time>2026-04-26T08:08:12.393Z</time></trkpt><trkpt lat="44.661615" lon="7.7751467"><ele>300.3333333333333</ele><time>2026-04-26T08:08:13.389Z</time></trkpt><trkpt lat="44.6614392" lon="7.775128"><ele>301.0</ele><time>2026-04-26T08:08:14.39Z</time></trkpt><trkpt lat="44.6612845" lon="7.7750677"><ele>301.0</ele><time>2026-04-26T08:08:15.388Z</time></trkpt><trkpt lat="44.6611421" lon="7.7749612"><ele>301.0</ele><time>2026-04-26T08:08:16.388Z</time></trkpt><trkpt lat="44.6610081" lon="7.7748"><ele>301.0</ele><time>2026-04-26T08:08:17.389Z</time></trkpt><trkpt lat="44.6608947" lon="7.7746292"><ele>300.25</ele><time>2026-04-26T08:08:18.393Z</time></trkpt><trkpt lat="44.6608024" lon="7.7744353"><ele>299.5</ele><time>2026-04-26T08:08:19.396Z</time></trkpt><trkpt lat="44.6607423" lon="7.7742366"><ele>298.75</ele><time>2026-04-26T08:08:20.394Z</time></trkpt><trkpt lat="44.6607196" lon="7.7740577"><ele>298.0</ele><time>2026-04-26T08:08:21.386Z</time></trkpt><trkpt lat="44.6607291" lon="7.7738914"><ele>298.0</ele><time>2026-04-26T08:08:22.41Z</time></trkpt><trkpt lat="44.6607653" lon="7.7737336"><ele>298.0</ele><time>2026-04-26T08:08:23.402Z</time></trkpt><trkpt lat="44.6608392" lon="7.7735728"><ele>298.0</ele><time>2026-04-26T08:08:24.399Z</time></trkpt><trkpt lat="44.6609313" lon="7.773441"><ele>298.0</ele><time>2026-04-26T08:08:25.426Z</time></trkpt><trkpt lat="44.6610501" lon="7.7733358"><ele>298.5</ele><time>2026-04-26T08:08:26.4Z</time></trkpt><trkpt lat="44.6611723" lon="7.7732784"><ele>299.0</ele><time>2026-04-26T08:08:27.395Z</time></trkpt><trkpt lat="44.6612934" lon="7.7732788"><ele>299.5</ele><time>2026-04-26T08:08:28.391Z</time></trkpt><trkpt lat="44.6614235" lon="7.7733179"><ele>300.0</ele><time>2026-04-26T08:08:29.407Z</time></trkpt><trkpt lat="44.6615439" lon="7.7733903"><ele>300.0</ele><time>2026-04-26T08:08:30.393Z</time></trkpt><trkpt lat="44.661647" lon="7.7734985"><ele>300.0</ele><time>2026-04-26T08:08:31.388Z</time></trkpt><trkpt lat="44.6617141" lon="7.7736483"><ele>300.0</ele><time>2026-04-26T08:08:32.394Z</time></trkpt><trkpt lat="44.6617669" lon="7.7738099"><ele>300.0</ele><time>2026-04-26T08:08:33.397Z</time></trkpt><trkpt lat="44.6618026" lon="7.7739717"><ele>300.0</ele><time>2026-04-26T08:08:34.386Z</time></trkpt><trkpt lat="44.6618304" lon="7.7741576"><ele>300.0</ele><time>2026-04-26T08:08:35.391Z</time></trkpt><trkpt lat="44.6618502" lon="7.7743441"><ele>300.0</ele><time>2026-04-26T08:08:36.385Z</time></trkpt><trkpt lat="44.66187" lon="7.7745475"><ele>300.0</ele><time>2026-04-26T08:08:37.381Z</time></trkpt><trkpt lat="44.6618976" lon="7.7747576"><ele>300.3333333333333</ele><time>2026-04-26T08:08:38.391Z</time></trkpt><trkpt lat="44.6619317" lon="7.7749819"><ele>300.66666666666663</ele><time>2026-04-26T08:08:39.397Z</time></trkpt><trkpt lat="44.661969" lon="7.7752102"><ele>301.0</ele><time>2026-04-26T08:08:40.386Z</time></trkpt><trkpt lat="44.6620073" lon="7.7754452"><ele>300.3333333333333</ele><time>2026-04-26T08:08:41.384Z</time></trkpt><trkpt lat="44.6620462" lon="7.7756821"><ele>299.6666666666667</ele><time>2026-04-26T08:08:42.385Z</time></trkpt><trkpt lat="44.6620809" lon="7.775934"><ele>299.0</ele><time>2026-04-26T08:08:43.382Z</time></trkpt><trkpt lat="44.6621145" lon="7.7761901"><ele>299.0</ele><time>2026-04-26T08:08:44.38Z</time></trkpt><trkpt lat="44.6621466" lon="7.776455"><ele>299.0</ele><time>2026-04-26T08:08:45.4Z</time></trkpt><trkpt lat="44.6621772" lon="7.7767222"><ele>299.0</ele><time>2026-04-26T08:08:46.385Z</time></trkpt><trkpt lat="44.6622038" lon="7.7769776"><ele>299.0</ele><time>2026-04-26T08:08:47.379Z</time></trkpt><trkpt lat="44.6622293" lon="7.7772275"><ele>299.0</ele><time>2026-04-26T08:08:48.399Z</time></trkpt><trkpt lat="44.6622523" lon="7.7774842"><ele>299.0</ele><time>2026-04-26T08:08:49.389Z</time></trkpt><trkpt lat="44.6622789" lon="7.7777278"><ele>299.0</ele><time>2026-04-26T08:08:50.385Z</time></trkpt><trkpt lat="44.662303" lon="7.7779658"><ele>299.0</ele><time>2026-04-26T08:08:51.389Z</time></trkpt><trkpt lat="44.6623311" lon="7.7781822"><ele>299.0</ele><time>2026-04-26T08:08:52.397Z</time></trkpt><trkpt lat="44.6623614" lon="7.7783759"><ele>299.0</ele><time>2026-04-26T08:08:53.381Z</time></trkpt><trkpt lat="44.6623816" lon="7.7785366"><ele>299.0</ele><time>2026-04-26T08:08:54.386Z</time></trkpt><trkpt lat="44.6624054" lon="7.778654"><ele>299.0</ele><time>2026-04-26T08:08:55.425Z</time></trkpt><trkpt lat="44.6624235" lon="7.7787563"><ele>299.0</ele><time>2026-04-26T08:08:56.401Z</time></trkpt><trkpt lat="44.6624407" lon="7.7788855"><ele>299.0</ele><time>2026-04-26T08:08:57.386Z</time></trkpt><trkpt lat="44.6624718" lon="7.7790694"><ele>299.0</ele><time>2026-04-26T08:08:58.386Z</time></trkpt><trkpt lat="44.6625075" lon="7.779284"><ele>299.0</ele><time>2026-04-26T08:08:59.392Z</time></trkpt><trkpt lat="44.6625358" lon="7.7795206"><ele>299.0</ele><time>2026-04-26T08:09:00.383Z</time></trkpt><trkpt lat="44.6625855" lon="7.7797664"><ele>299.0</ele><time>2026-04-26T08:09:01.381Z</time></trkpt><trkpt lat="44.6626207" lon="7.7800304"><ele>299.0</ele><time>2026-04-26T08:09:02.379Z</time></trkpt><trkpt lat="44.6626594" lon="7.7803202"><ele>299.0</ele><time>2026-04-26T08:09:03.385Z</time></trkpt><trkpt lat="44.6627053" lon="7.7806137"><ele>299.0</ele><time>2026-04-26T08:09:04.387Z</time></trkpt><trkpt lat="44.6627513" lon="7.7809244"><ele>299.0</ele><time>2026-04-26T08:09:05.378Z</time></trkpt><trkpt lat="44.662797" lon="7.7812513"><ele>299.0</ele><time>2026-04-26T08:09:06.379Z</time></trkpt><trkpt lat="44.6628462" lon="7.7815935"><ele>299.0</ele><time>2026-04-26T08:09:07.41Z</time></trkpt><trkpt lat="44.6628859" lon="7.7819481"><ele>299.0</ele><time>2026-04-26T08:09:08.38Z</time></trkpt><trkpt lat="44.6629283" lon="7.7823173"><ele>299.0</ele><time>2026-04-26T08:09:09.384Z</time></trkpt><trkpt lat="44.6629761" lon="7.7826875"><ele>299.0</ele><time>2026-04-26T08:09:10.375Z</time></trkpt><trkpt lat="44.6630234" lon="7.7830654"><ele>299.0</ele><time>2026-04-26T08:09:11.388Z</time></trkpt><trkpt lat="44.6630648" lon="7.783449"><ele>299.0</ele><time>2026-04-26T08:09:12.394Z</time></trkpt><trkpt lat="44.6631064" lon="7.7838363"><ele>299.0</ele><time>2026-04-26T08:09:13.384Z</time></trkpt><trkpt lat="44.6631495" lon="7.7842302"><ele>299.0</ele><time>2026-04-26T08:09:14.379Z</time></trkpt><trkpt lat="44.6631971" lon="7.7846266"><ele>299.0</ele><time>2026-04-26T08:09:15.372Z</time></trkpt><trkpt lat="44.6632405" lon="7.7850351"><ele>298.5</ele><time>2026-04-26T08:09:16.378Z</time></trkpt><trkpt lat="44.6632847" lon="7.7854506"><ele>298.0</ele><time>2026-04-26T08:09:17.374Z</time></trkpt><trkpt lat="44.663326" lon="7.7858785"><ele>298.5</ele><time>2026-04-26T08:09:18.369Z</time></trkpt><trkpt lat="44.6633642" lon="7.786302"><ele>299.0</ele><time>2026-04-26T08:09:19.376Z</time></trkpt><trkpt lat="44.6634036" lon="7.7867252"><ele>299.0</ele><time>2026-04-26T08:09:20.377Z</time></trkpt><trkpt lat="44.6634383" lon="7.7871537"><ele>299.0</ele><time>2026-04-26T08:09:21.384Z</time></trkpt><trkpt lat="44.6634685" lon="7.7875798"><ele>298.5</ele><time>2026-04-26T08:09:22.381Z</time></trkpt><trkpt lat="44.6635033" lon="7.7880087"><ele>298.0</ele><time>2026-04-26T08:09:23.385Z</time></trkpt><trkpt lat="44.6635392" lon="7.7884335"><ele>296.5</ele><time>2026-04-26T08:09:24.382Z</time></trkpt><trkpt lat="44.6635744" lon="7.7888677"><ele>295.0</ele><time>2026-04-26T08:09:25.387Z</time></trkpt><trkpt lat="44.6636106" lon="7.7892926"><ele>295.0</ele><time>2026-04-26T08:09:26.377Z</time></trkpt><trkpt lat="44.6636491" lon="7.7897238"><ele>295.0</ele><time>2026-04-26T08:09:27.387Z</time></trkpt><trkpt lat="44.663686" lon="7.7901536"><ele>295.5</ele><time>2026-04-26T08:09:28.383Z</time></trkpt><trkpt lat="44.663728" lon="7.7905949"><ele>296.0</ele><time>2026-04-26T08:09:29.388Z</time></trkpt><trkpt lat="44.6637639" lon="7.7910372"><ele>296.0</ele><time>2026-04-26T08:09:30.394Z</time></trkpt><trkpt lat="44.6638021" lon="7.7914872"><ele>296.0</ele><time>2026-04-26T08:09:31.381Z</time></trkpt><trkpt lat="44.6638414" lon="7.7919459"><ele>295.5</ele><time>2026-04-26T08:09:32.381Z</time></trkpt><trkpt lat="44.6638833" lon="7.7924091"><ele>295.0</ele><time>2026-04-26T08:09:33.391Z</time></trkpt><trkpt lat="44.6639262" lon="7.7928742"><ele>295.0</ele><time>2026-04-26T08:09:34.387Z</time></trkpt><trkpt lat="44.663963" lon="7.793346"><ele>295.0</ele><time>2026-04-26T08:09:35.382Z</time></trkpt><trkpt lat="44.6640015" lon="7.7938131"><ele>295.5</ele><time>2026-04-26T08:09:36.377Z</time></trkpt><trkpt lat="44.6640391" lon="7.7942802"><ele>296.0</ele><time>2026-04-26T08:09:37.383Z</time></trkpt><trkpt lat="44.6640724" lon="7.7947512"><ele>297.0</ele><time>2026-04-26T08:09:38.384Z</time></trkpt><trkpt lat="44.6641129" lon="7.7952206"><ele>298.0</ele><time>2026-04-26T08:09:39.39Z</time></trkpt><trkpt lat="44.6641581" lon="7.7956902"><ele>296.5</ele><time>2026-04-26T08:09:40.386Z</time></trkpt><trkpt lat="44.6641994" lon="7.7961639"><ele>295.0</ele><time>2026-04-26T08:09:41.39Z</time></trkpt><trkpt lat="44.6642409" lon="7.7966408"><ele>295.5</ele><time>2026-04-26T08:09:42.38Z</time></trkpt><trkpt lat="44.6642746" lon="7.7971156"><ele>296.0</ele><time>2026-04-26T08:09:43.396Z</time></trkpt><trkpt lat="44.6643148" lon="7.7975908"><ele>296.0</ele><time>2026-04-26T08:09:44.379Z</time></trkpt><trkpt lat="44.6643518" lon="7.7980623"><ele>296.0</ele><time>2026-04-26T08:09:45.39Z</time></trkpt><trkpt lat="44.6643964" lon="7.798543"><ele>295.5</ele><time>2026-04-26T08:09:46.392Z</time></trkpt><trkpt lat="44.6644484" lon="7.7990343"><ele>295.0</ele><time>2026-04-26T08:09:47.384Z</time></trkpt><trkpt lat="44.6645079" lon="7.7995543"><ele>295.0</ele><time>2026-04-26T08:09:48.387Z</time></trkpt><trkpt lat="44.6645712" lon="7.8001091"><ele>295.0</ele><time>2026-04-26T08:09:49.383Z</time></trkpt><trkpt lat="44.6646253" lon="7.8006715"><ele>295.0</ele><time>2026-04-26T08:09:50.377Z</time></trkpt><trkpt lat="44.6646686" lon="7.8012306"><ele>295.0</ele><time>2026-04-26T08:09:51.385Z</time></trkpt><trkpt lat="44.6646993" lon="7.8017763"><ele>294.5</ele><time>2026-04-26T08:09:52.387Z</time></trkpt><trkpt lat="44.6647254" lon="7.8022968"><ele>294.0</ele><time>2026-04-26T08:09:53.404Z</time></trkpt><trkpt lat="44.6647473" lon="7.8028094"><ele>294.0</ele><time>2026-04-26T08:09:54.403Z</time></trkpt><trkpt lat="44.6647667" lon="7.8033091"><ele>294.0</ele><time>2026-04-26T08:09:55.393Z</time></trkpt><trkpt lat="44.6647879" lon="7.8038076"><ele>295.0</ele><time>2026-04-26T08:09:56.388Z</time></trkpt><trkpt lat="44.6647929" lon="7.8042891"><ele>296.0</ele><time>2026-04-26T08:09:57.384Z</time></trkpt><trkpt lat="44.6647938" lon="7.8047604"><ele>294.5</ele><time>2026-04-26T08:09:58.384Z</time></trkpt><trkpt lat="44.664787" lon="7.8052381"><ele>293.0</ele><time>2026-04-26T08:09:59.388Z</time></trkpt><trkpt lat="44.6647729" lon="7.8057107"><ele>294.0</ele><time>2026-04-26T08:10:00.385Z</time></trkpt><trkpt lat="44.6647514" lon="7.8061864"><ele>295.0</ele><time>2026-04-26T08:10:01.392Z</time></trkpt><trkpt lat="44.6647154" lon="7.8066623"><ele>295.0</ele><time>2026-04-26T08:10:02.387Z</time></trkpt><trkpt lat="44.6646701" lon="7.8071351"><ele>295.0</ele><time>2026-04-26T08:10:03.39Z</time></trkpt><trkpt lat="44.6646103" lon="7.8075984"><ele>294.5</ele><time>2026-04-26T08:10:04.387Z</time></trkpt><trkpt lat="44.6645441" lon="7.8080637"><ele>294.0</ele><time>2026-04-26T08:10:05.384Z</time></trkpt><trkpt lat="44.6644697" lon="7.8085286"><ele>294.5</ele><time>2026-04-26T08:10:06.386Z</time></trkpt><trkpt lat="44.6643788" lon="7.8089928"><ele>295.0</ele><time>2026-04-26T08:10:07.388Z</time></trkpt><trkpt lat="44.6642799" lon="7.8094453"><ele>295.0</ele><time>2026-04-26T08:10:08.388Z</time></trkpt><trkpt lat="44.664175" lon="7.809904"><ele>295.0</ele><time>2026-04-26T08:10:09.39Z</time></trkpt><trkpt lat="44.6640549" lon="7.8103492"><ele>295.0</ele><time>2026-04-26T08:10:10.386Z</time></trkpt><trkpt lat="44.6639209" lon="7.8107898"><ele>295.0</ele><time>2026-04-26T08:10:11.389Z</time></trkpt><trkpt lat="44.6637815" lon="7.8112265"><ele>294.5</ele><time>2026-04-26T08:10:12.379Z</time></trkpt><trkpt lat="44.6636325" lon="7.811666"><ele>294.0</ele><time>2026-04-26T08:10:13.396Z</time></trkpt><trkpt lat="44.6634782" lon="7.812098"><ele>294.5</ele><time>2026-04-26T08:10:14.381Z</time></trkpt><trkpt lat="44.6633123" lon="7.8125244"><ele>295.0</ele><time>2026-04-26T08:10:15.382Z</time></trkpt><trkpt lat="44.663133" lon="7.812933"><ele>295.0</ele><time>2026-04-26T08:10:16.388Z</time></trkpt><trkpt lat="44.6629545" lon="7.8133394"><ele>295.0</ele><time>2026-04-26T08:10:17.385Z</time></trkpt><trkpt lat="44.6627673" lon="7.813735"><ele>295.0</ele><time>2026-04-26T08:10:18.384Z</time></trkpt><trkpt lat="44.6625768" lon="7.8141286"><ele>295.0</ele><time>2026-04-26T08:10:19.388Z</time></trkpt><trkpt lat="44.6623859" lon="7.8145158"><ele>295.5</ele><time>2026-04-26T08:10:20.385Z</time></trkpt><trkpt lat="44.6621927" lon="7.8149041"><ele>296.0</ele><time>2026-04-26T08:10:21.391Z</time></trkpt><trkpt lat="44.6580971" lon="7.8232082"><ele>272.5</ele><time>2026-04-26T08:10:41.376Z</time></trkpt><trkpt lat="44.6579643" lon="7.8237092"><ele>249.0</ele><time>2026-04-26T08:10:42.368Z</time></trkpt><trkpt lat="44.6578325" lon="7.8241631"><ele>242.5</ele><time>2026-04-26T08:10:43.375Z</time></trkpt><trkpt lat="44.6577071" lon="7.8246348"><ele>236.0</ele><time>2026-04-26T08:10:44.387Z</time></trkpt><trkpt lat="44.6575938" lon="7.8251337"><ele>234.5</ele><time>2026-04-26T08:10:45.38Z</time></trkpt><trkpt lat="44.6574999" lon="7.8256301"><ele>233.0</ele><time>2026-04-26T08:10:46.379Z</time></trkpt><trkpt lat="44.6574078" lon="7.826129"><ele>233.0</ele><time>2026-04-26T08:10:47.384Z</time></trkpt><trkpt lat="44.6573258" lon="7.8266201"><ele>233.0</ele><time>2026-04-26T08:10:48.372Z</time></trkpt><trkpt lat="44.6572557" lon="7.8271105"><ele>233.0</ele><time>2026-04-26T08:10:49.378Z</time></trkpt><trkpt lat="44.6571972" lon="7.8276113"><ele>233.0</ele><time>2026-04-26T08:10:50.385Z</time></trkpt><trkpt lat="44.657146" lon="7.8281108"><ele>233.0</ele><time>2026-04-26T08:10:51.389Z</time></trkpt><trkpt lat="44.6571043" lon="7.8286048"><ele>233.0</ele><time>2026-04-26T08:10:52.382Z</time></trkpt><trkpt lat="44.6570692" lon="7.8290911"><ele>232.0</ele><time>2026-04-26T08:10:53.38Z</time></trkpt><trkpt lat="44.6570473" lon="7.8295762"><ele>231.0</ele><time>2026-04-26T08:10:54.381Z</time></trkpt><trkpt lat="44.6570305" lon="7.8300608"><ele>231.5</ele><time>2026-04-26T08:10:55.388Z</time></trkpt><trkpt lat="44.6570227" lon="7.830548"><ele>232.0</ele><time>2026-04-26T08:10:56.375Z</time></trkpt><trkpt lat="44.6570189" lon="7.8310266"><ele>231.0</ele><time>2026-04-26T08:10:57.385Z</time></trkpt><trkpt lat="44.6570315" lon="7.8314951"><ele>230.0</ele><time>2026-04-26T08:10:58.39Z</time></trkpt><trkpt lat="44.6570509" lon="7.8319645"><ele>229.5</ele><time>2026-04-26T08:10:59.39Z</time></trkpt><trkpt lat="44.6570878" lon="7.8324363"><ele>229.0</ele><time>2026-04-26T08:11:00.384Z</time></trkpt><trkpt lat="44.6571297" lon="7.8329022"><ele>230.0</ele><time>2026-04-26T08:11:01.389Z</time></trkpt><trkpt lat="44.6571768" lon="7.8333697"><ele>231.0</ele><time>2026-04-26T08:11:02.387Z</time></trkpt><trkpt lat="44.6572417" lon="7.8338523"><ele>229.0</ele><time>2026-04-26T08:11:03.392Z</time></trkpt><trkpt lat="44.6573147" lon="7.834338"><ele>227.0</ele><time>2026-04-26T08:11:04.383Z</time></trkpt><trkpt lat="44.6574011" lon="7.8348165"><ele>225.0</ele><time>2026-04-26T08:11:05.385Z</time></trkpt><trkpt lat="44.6574923" lon="7.8352966"><ele>223.0</ele><time>2026-04-26T08:11:06.389Z</time></trkpt><trkpt lat="44.6575968" lon="7.8357694"><ele>222.5</ele><time>2026-04-26T08:11:07.387Z</time></trkpt><trkpt lat="44.6577083" lon="7.8362376"><ele>222.0</ele><time>2026-04-26T08:11:08.381Z</time></trkpt><trkpt lat="44.6578263" lon="7.836704"><ele>222.5</ele><time>2026-04-26T08:11:09.391Z</time></trkpt><trkpt lat="44.6579544" lon="7.8371763"><ele>223.0</ele><time>2026-04-26T08:11:10.385Z</time></trkpt><trkpt lat="44.6580809" lon="7.8376421"><ele>223.0</ele><time>2026-04-26T08:11:11.387Z</time></trkpt><trkpt lat="44.6582165" lon="7.8381047"><ele>223.0</ele><time>2026-04-26T08:11:12.398Z</time></trkpt><trkpt lat="44.6583564" lon="7.8385682"><ele>222.5</ele><time>2026-04-26T08:11:13.391Z</time></trkpt><trkpt lat="44.6584943" lon="7.8390283"><ele>222.0</ele><time>2026-04-26T08:11:14.401Z</time></trkpt><trkpt lat="44.6586371" lon="7.8394898"><ele>222.0</ele><time>2026-04-26T08:11:15.39Z</time></trkpt><trkpt lat="44.6587873" lon="7.8399497"><ele>222.0</ele><time>2026-04-26T08:11:16.389Z</time></trkpt><trkpt lat="44.6589376" lon="7.8404051"><ele>222.0</ele><time>2026-04-26T08:11:17.408Z</time></trkpt><trkpt lat="44.6590945" lon="7.8408587"><ele>222.0</ele><time>2026-04-26T08:11:18.394Z</time></trkpt><trkpt lat="44.6592466" lon="7.8413148"><ele>222.5</ele><time>2026-04-26T08:11:19.386Z</time></trkpt><trkpt lat="44.6593983" lon="7.841765"><ele>223.0</ele><time>2026-04-26T08:11:20.385Z</time></trkpt><trkpt lat="44.6595421" lon="7.8422119"><ele>222.5</ele><time>2026-04-26T08:11:21.383Z</time></trkpt><trkpt lat="44.6596887" lon="7.8426498"><ele>222.0</ele><time>2026-04-26T08:11:22.392Z</time></trkpt><trkpt lat="44.659834" lon="7.8430853"><ele>222.5</ele><time>2026-04-26T08:11:23.393Z</time></trkpt><trkpt lat="44.6599863" lon="7.8435231"><ele>223.0</ele><time>2026-04-26T08:11:24.395Z</time></trkpt><trkpt lat="44.6601266" lon="7.8439516"><ele>223.0</ele><time>2026-04-26T08:11:25.389Z</time></trkpt><trkpt lat="44.6602685" lon="7.8443845"><ele>223.0</ele><time>2026-04-26T08:11:26.381Z</time></trkpt><trkpt lat="44.6604137" lon="7.8448222"><ele>221.5</ele><time>2026-04-26T08:11:27.403Z</time></trkpt><trkpt lat="44.6605509" lon="7.8452611"><ele>220.0</ele><time>2026-04-26T08:11:28.396Z</time></trkpt><trkpt lat="44.6606848" lon="7.8457096"><ele>220.0</ele><time>2026-04-26T08:11:29.389Z</time></trkpt><trkpt lat="44.6608184" lon="7.8461545"><ele>220.0</ele><time>2026-04-26T08:11:30.379Z</time></trkpt><trkpt lat="44.6609491" lon="7.8466002"><ele>220.5</ele><time>2026-04-26T08:11:31.39Z</time></trkpt><trkpt lat="44.6610709" lon="7.8470544"><ele>221.0</ele><time>2026-04-26T08:11:32.392Z</time></trkpt><trkpt lat="44.6611935" lon="7.8475043"><ele>220.5</ele><time>2026-04-26T08:11:33.391Z</time></trkpt><trkpt lat="44.6613123" lon="7.8479664"><ele>220.0</ele><time>2026-04-26T08:11:34.395Z</time></trkpt><trkpt lat="44.6614197" lon="7.8484213"><ele>218.5</ele><time>2026-04-26T08:11:35.397Z</time></trkpt><trkpt lat="44.6615202" lon="7.8488888"><ele>217.0</ele><time>2026-04-26T08:11:36.384Z</time></trkpt><trkpt lat="44.66161" lon="7.8493504"><ele>217.0</ele><time>2026-04-26T08:11:37.391Z</time></trkpt><trkpt lat="44.6617" lon="7.8498135"><ele>217.0</ele><time>2026-04-26T08:11:38.385Z</time></trkpt><trkpt lat="44.6617801" lon="7.8502737"><ele>217.0</ele><time>2026-04-26T08:11:39.385Z</time></trkpt><trkpt lat="44.661858" lon="7.8507415"><ele>217.0</ele><time>2026-04-26T08:11:40.383Z</time></trkpt><trkpt lat="44.6619315" lon="7.8512116"><ele>217.5</ele><time>2026-04-26T08:11:41.388Z</time></trkpt><trkpt lat="44.6620036" lon="7.8516807"><ele>218.0</ele><time>2026-04-26T08:11:42.387Z</time></trkpt><trkpt lat="44.6620658" lon="7.8521635"><ele>217.5</ele><time>2026-04-26T08:11:43.393Z</time></trkpt><trkpt lat="44.6621222" lon="7.8526397"><ele>217.0</ele><time>2026-04-26T08:11:44.387Z</time></trkpt><trkpt lat="44.6621807" lon="7.8531259"><ele>217.0</ele><time>2026-04-26T08:11:45.393Z</time></trkpt><trkpt lat="44.6622344" lon="7.8536164"><ele>217.0</ele><time>2026-04-26T08:11:46.391Z</time></trkpt><trkpt lat="44.6622853" lon="7.8541083"><ele>217.0</ele><time>2026-04-26T08:11:47.393Z</time></trkpt><trkpt lat="44.662337" lon="7.8545999"><ele>217.0</ele><time>2026-04-26T08:11:48.387Z</time></trkpt><trkpt lat="44.6623914" lon="7.8550876"><ele>217.0</ele><time>2026-04-26T08:11:49.385Z</time></trkpt><trkpt lat="44.6624462" lon="7.8555682"><ele>217.0</ele><time>2026-04-26T08:11:50.399Z</time></trkpt><trkpt lat="44.6625069" lon="7.8560439"><ele>217.0</ele><time>2026-04-26T08:11:51.391Z</time></trkpt><trkpt lat="44.6625627" lon="7.8565163"><ele>217.0</ele><time>2026-04-26T08:11:52.39Z</time></trkpt><trkpt lat="44.6626242" lon="7.8569912"><ele>216.0</ele><time>2026-04-26T08:11:53.385Z</time></trkpt><trkpt lat="44.6626849" lon="7.8574658"><ele>215.0</ele><time>2026-04-26T08:11:54.391Z</time></trkpt><trkpt lat="44.662743" lon="7.8579376"><ele>215.5</ele><time>2026-04-26T08:11:55.392Z</time></trkpt><trkpt lat="44.6628024" lon="7.8584287"><ele>216.0</ele><time>2026-04-26T08:11:56.386Z</time></trkpt><trkpt lat="44.662861" lon="7.8589251"><ele>215.5</ele><time>2026-04-26T08:11:57.393Z</time></trkpt><trkpt lat="44.6629161" lon="7.8594076"><ele>215.0</ele><time>2026-04-26T08:11:58.387Z</time></trkpt><trkpt lat="44.6629751" lon="7.8598908"><ele>215.0</ele><time>2026-04-26T08:11:59.387Z</time></trkpt><trkpt lat="44.6630332" lon="7.8603795"><ele>215.0</ele><time>2026-04-26T08:12:00.392Z</time></trkpt><trkpt lat="44.6630911" lon="7.8608612"><ele>214.0</ele><time>2026-04-26T08:12:01.391Z</time></trkpt><trkpt lat="44.6631472" lon="7.8613375"><ele>213.0</ele><time>2026-04-26T08:12:02.399Z</time></trkpt><trkpt lat="44.6632038" lon="7.8618078"><ele>212.5</ele><time>2026-04-26T08:12:03.441Z</time></trkpt><trkpt lat="44.6632609" lon="7.8622848"><ele>212.0</ele><time>2026-04-26T08:12:04.393Z</time></trkpt><trkpt lat="44.6633158" lon="7.8627614"><ele>212.0</ele><time>2026-04-26T08:12:05.391Z</time></trkpt><trkpt lat="44.6633676" lon="7.8632387"><ele>212.0</ele><time>2026-04-26T08:12:06.388Z</time></trkpt><trkpt lat="44.6634225" lon="7.8637209"><ele>212.0</ele><time>2026-04-26T08:12:07.39Z</time></trkpt><trkpt lat="44.6634811" lon="7.8642048"><ele>212.0</ele><time>2026-04-26T08:12:08.407Z</time></trkpt><trkpt lat="44.6635381" lon="7.8646824"><ele>212.0</ele><time>2026-04-26T08:12:09.381Z</time></trkpt><trkpt lat="44.6635919" lon="7.8651635"><ele>212.0</ele><time>2026-04-26T08:12:10.398Z</time></trkpt><trkpt lat="44.6636435" lon="7.8656461"><ele>211.5</ele><time>2026-04-26T08:12:11.385Z</time></trkpt><trkpt lat="44.663699" lon="7.8661213"><ele>211.0</ele><time>2026-04-26T08:12:12.386Z</time></trkpt><trkpt lat="44.6637577" lon="7.8666004"><ele>211.0</ele><time>2026-04-26T08:12:13.384Z</time></trkpt><trkpt lat="44.66381" lon="7.8670766"><ele>211.0</ele><time>2026-04-26T08:12:14.387Z</time></trkpt><trkpt lat="44.6638537" lon="7.8675487"><ele>211.0</ele><time>2026-04-26T08:12:15.387Z</time></trkpt><trkpt lat="44.6638918" lon="7.8680162"><ele>211.0</ele><time>2026-04-26T08:12:16.383Z</time></trkpt><trkpt lat="44.663924" lon="7.8684849"><ele>210.5</ele><time>2026-04-26T08:12:17.38Z</time></trkpt><trkpt lat="44.6639522" lon="7.8689418"><ele>210.0</ele><time>2026-04-26T08:12:18.388Z</time></trkpt><trkpt lat="44.6639671" lon="7.869384"><ele>209.5</ele><time>2026-04-26T08:12:19.387Z</time></trkpt><trkpt lat="44.6639736" lon="7.8698126"><ele>209.0</ele><time>2026-04-26T08:12:20.385Z</time></trkpt><trkpt lat="44.6639667" lon="7.8702299"><ele>209.0</ele><time>2026-04-26T08:12:21.393Z</time></trkpt><trkpt lat="44.6639526" lon="7.8706539"><ele>209.0</ele><time>2026-04-26T08:12:22.391Z</time></trkpt><trkpt lat="44.663935" lon="7.8710916"><ele>208.5</ele><time>2026-04-26T08:12:23.388Z</time></trkpt><trkpt lat="44.6639103" lon="7.8715347"><ele>208.0</ele><time>2026-04-26T08:12:24.388Z</time></trkpt><trkpt lat="44.6638812" lon="7.8719908"><ele>208.0</ele><time>2026-04-26T08:12:25.398Z</time></trkpt><trkpt lat="44.6638418" lon="7.8724337"><ele>208.0</ele><time>2026-04-26T08:12:26.385Z</time></trkpt><trkpt lat="44.6637953" lon="7.8728708"><ele>208.0</ele><time>2026-04-26T08:12:27.388Z</time></trkpt><trkpt lat="44.6637459" lon="7.8733073"><ele>208.0</ele><time>2026-04-26T08:12:28.398Z</time></trkpt><trkpt lat="44.6636909" lon="7.8737506"><ele>208.0</ele><time>2026-04-26T08:12:29.382Z</time></trkpt><trkpt lat="44.6636355" lon="7.8741908"><ele>208.0</ele><time>2026-04-26T08:12:30.387Z</time></trkpt><trkpt lat="44.6635792" lon="7.874634"><ele>208.0</ele><time>2026-04-26T08:12:31.382Z</time></trkpt><trkpt lat="44.6635163" lon="7.8750781"><ele>208.0</ele><time>2026-04-26T08:12:32.387Z</time></trkpt><trkpt lat="44.6634547" lon="7.8755233"><ele>208.0</ele><time>2026-04-26T08:12:33.39Z</time></trkpt><trkpt lat="44.6633968" lon="7.8759681"><ele>208.0</ele><time>2026-04-26T08:12:34.39Z</time></trkpt><trkpt lat="44.6633361" lon="7.8764219"><ele>208.5</ele><time>2026-04-26T08:12:35.394Z</time></trkpt><trkpt lat="44.6632764" lon="7.8768744"><ele>209.0</ele><time>2026-04-26T08:12:36.382Z</time></trkpt><trkpt lat="44.6632162" lon="7.8773282"><ele>208.5</ele><time>2026-04-26T08:12:37.377Z</time></trkpt><trkpt lat="44.6631612" lon="7.8777899"><ele>208.0</ele><time>2026-04-26T08:12:38.381Z</time></trkpt><trkpt lat="44.6630971" lon="7.8782462"><ele>206.5</ele><time>2026-04-26T08:12:39.387Z</time></trkpt><trkpt lat="44.6630412" lon="7.8786985"><ele>205.0</ele><time>2026-04-26T08:12:40.384Z</time></trkpt><trkpt lat="44.6629853" lon="7.8791489"><ele>205.5</ele><time>2026-04-26T08:12:41.389Z</time></trkpt><trkpt lat="44.6629347" lon="7.8796045"><ele>206.0</ele><time>2026-04-26T08:12:42.386Z</time></trkpt><trkpt lat="44.6628992" lon="7.8800615"><ele>206.5</ele><time>2026-04-26T08:12:43.388Z</time></trkpt><trkpt lat="44.6628668" lon="7.8805199"><ele>207.0</ele><time>2026-04-26T08:12:44.392Z</time></trkpt><trkpt lat="44.6628414" lon="7.8809932"><ele>204.5</ele><time>2026-04-26T08:12:45.398Z</time></trkpt><trkpt lat="44.6628239" lon="7.8814764"><ele>202.0</ele><time>2026-04-26T08:12:46.393Z</time></trkpt><trkpt lat="44.662821" lon="7.8819516"><ele>201.5</ele><time>2026-04-26T08:12:47.405Z</time></trkpt><trkpt lat="44.6628286" lon="7.8824307"><ele>201.0</ele><time>2026-04-26T08:12:48.384Z</time></trkpt><trkpt lat="44.6628424" lon="7.8829114"><ele>199.5</ele><time>2026-04-26T08:12:49.401Z</time></trkpt><trkpt lat="44.6628726" lon="7.8833941"><ele>198.0</ele><time>2026-04-26T08:12:50.389Z</time></trkpt><trkpt lat="44.6629257" lon="7.8838839"><ele>195.0</ele><time>2026-04-26T08:12:51.387Z</time></trkpt><trkpt lat="44.6629863" lon="7.8843961"><ele>192.0</ele><time>2026-04-26T08:12:52.403Z</time></trkpt><trkpt lat="44.6630517" lon="7.8849089"><ele>192.5</ele><time>2026-04-26T08:12:53.385Z</time></trkpt><trkpt lat="44.6631262" lon="7.885416"><ele>193.0</ele><time>2026-04-26T08:12:54.392Z</time></trkpt><trkpt lat="44.6631944" lon="7.8859033"><ele>193.0</ele><time>2026-04-26T08:12:55.393Z</time></trkpt><trkpt lat="44.6632708" lon="7.8863897"><ele>193.0</ele><time>2026-04-26T08:12:56.395Z</time></trkpt><trkpt lat="44.6633438" lon="7.886864"><ele>192.0</ele><time>2026-04-26T08:12:57.395Z</time></trkpt><trkpt lat="44.6634133" lon="7.8873186"><ele>191.0</ele><time>2026-04-26T08:12:58.4Z</time></trkpt><trkpt lat="44.6634748" lon="7.887769"><ele>190.5</ele><time>2026-04-26T08:12:59.389Z</time></trkpt><trkpt lat="44.6635391" lon="7.8882209"><ele>190.0</ele><time>2026-04-26T08:13:00.396Z</time></trkpt><trkpt lat="44.6636072" lon="7.888683"><ele>190.5</ele><time>2026-04-26T08:13:01.412Z</time></trkpt><trkpt lat="44.6636798" lon="7.8891535"><ele>191.0</ele><time>2026-04-26T08:13:02.389Z</time></trkpt><trkpt lat="44.6637425" lon="7.8896303"><ele>191.5</ele><time>2026-04-26T08:13:03.388Z</time></trkpt><trkpt lat="44.6638154" lon="7.8901308"><ele>192.0</ele><time>2026-04-26T08:13:04.393Z</time></trkpt><trkpt lat="44.6638851" lon="7.8906308"><ele>194.5</ele><time>2026-04-26T08:13:05.388Z</time></trkpt><trkpt lat="44.6639548" lon="7.8911129"><ele>197.0</ele><time>2026-04-26T08:13:06.394Z</time></trkpt><trkpt lat="44.6640204" lon="7.8915812"><ele>198.0</ele><time>2026-04-26T08:13:07.391Z</time></trkpt><trkpt lat="44.6640881" lon="7.8920482"><ele>199.0</ele><time>2026-04-26T08:13:08.388Z</time></trkpt><trkpt lat="44.6641547" lon="7.8925159"><ele>199.5</ele><time>2026-04-26T08:13:09.39Z</time></trkpt><trkpt lat="44.6642274" lon="7.8929724"><ele>200.0</ele><time>2026-04-26T08:13:10.392Z</time></trkpt><trkpt lat="44.6643043" lon="7.8934537"><ele>202.0</ele><time>2026-04-26T08:13:11.397Z</time></trkpt><trkpt lat="44.6643857" lon="7.8939424"><ele>204.0</ele><time>2026-04-26T08:13:12.38Z</time></trkpt><trkpt lat="44.6644723" lon="7.8944333"><ele>204.0</ele><time>2026-04-26T08:13:13.388Z</time></trkpt><trkpt lat="44.664579" lon="7.894919"><ele>204.0</ele><time>2026-04-26T08:13:14.385Z</time></trkpt><trkpt lat="44.6646943" lon="7.8954009"><ele>204.5</ele><time>2026-04-26T08:13:15.393Z</time></trkpt><trkpt lat="44.6648224" lon="7.8958855"><ele>205.0</ele><time>2026-04-26T08:13:16.39Z</time></trkpt><trkpt lat="44.6649701" lon="7.8963809"><ele>206.0</ele><time>2026-04-26T08:13:17.389Z</time></trkpt><trkpt lat="44.6651292" lon="7.896875"><ele>207.0</ele><time>2026-04-26T08:13:18.394Z</time></trkpt><trkpt lat="44.6653051" lon="7.8973667"><ele>210.0</ele><time>2026-04-26T08:13:19.381Z</time></trkpt><trkpt lat="44.6654962" lon="7.8978598"><ele>213.0</ele><time>2026-04-26T08:13:20.393Z</time></trkpt><trkpt lat="44.6656991" lon="7.898345"><ele>213.5</ele><time>2026-04-26T08:13:21.382Z</time></trkpt><trkpt lat="44.6659071" lon="7.8988067"><ele>214.0</ele><time>2026-04-26T08:13:22.385Z</time></trkpt><trkpt lat="44.6661275" lon="7.8992519"><ele>213.0</ele><time>2026-04-26T08:13:23.388Z</time></trkpt><trkpt lat="44.6663597" lon="7.8996888"><ele>212.0</ele><time>2026-04-26T08:13:24.382Z</time></trkpt><trkpt lat="44.6666026" lon="7.9001193"><ele>212.0</ele><time>2026-04-26T08:13:25.379Z</time></trkpt><trkpt lat="44.6668557" lon="7.9005401"><ele>212.0</ele><time>2026-04-26T08:13:26.385Z</time></trkpt><trkpt lat="44.6671248" lon="7.9009644"><ele>215.0</ele><time>2026-04-26T08:13:27.383Z</time></trkpt><trkpt lat="44.6674042" lon="7.9013827"><ele>218.0</ele><time>2026-04-26T08:13:28.38Z</time></trkpt><trkpt lat="44.667695" lon="7.9017794"><ele>222.5</ele><time>2026-04-26T08:13:29.388Z</time></trkpt><trkpt lat="44.6679904" lon="7.9021514"><ele>227.0</ele><time>2026-04-26T08:13:30.403Z</time></trkpt><trkpt lat="44.6682897" lon="7.9025155"><ele>229.0</ele><time>2026-04-26T08:13:31.384Z</time></trkpt><trkpt lat="44.6685873" lon="7.902884"><ele>231.0</ele><time>2026-04-26T08:13:32.377Z</time></trkpt><trkpt lat="44.6688825" lon="7.903249"><ele>228.0</ele><time>2026-04-26T08:13:33.38Z</time></trkpt><trkpt lat="44.6691686" lon="7.9036045"><ele>225.0</ele><time>2026-04-26T08:13:34.385Z</time></trkpt><trkpt lat="44.6694495" lon="7.9039643"><ele>222.5</ele><time>2026-04-26T08:13:35.383Z</time></trkpt><trkpt lat="44.6697388" lon="7.904319"><ele>220.0</ele><time>2026-04-26T08:13:36.385Z</time></trkpt><trkpt lat="44.6700233" lon="7.904672"><ele>220.5</ele><time>2026-04-26T08:13:37.391Z</time></trkpt><trkpt lat="44.6703085" lon="7.9050338"><ele>221.0</ele><time>2026-04-26T08:13:38.39Z</time></trkpt><trkpt lat="44.6705987" lon="7.9054006"><ele>221.0</ele><time>2026-04-26T08:13:39.394Z</time></trkpt><trkpt lat="44.6708879" lon="7.9057599"><ele>221.0</ele><time>2026-04-26T08:13:40.389Z</time></trkpt><trkpt lat="44.6711779" lon="7.9061155"><ele>220.5</ele><time>2026-04-26T08:13:41.39Z</time></trkpt><trkpt lat="44.6714654" lon="7.9064684"><ele>220.0</ele><time>2026-04-26T08:13:42.387Z</time></trkpt><trkpt lat="44.6717592" lon="7.9068209"><ele>218.5</ele><time>2026-04-26T08:13:43.389Z</time></trkpt><trkpt lat="44.6720515" lon="7.9071661"><ele>217.0</ele><time>2026-04-26T08:13:44.391Z</time></trkpt><trkpt lat="44.6723431" lon="7.9075125"><ele>217.0</ele><time>2026-04-26T08:13:45.39Z</time></trkpt><trkpt lat="44.6726308" lon="7.907863"><ele>217.0</ele><time>2026-04-26T08:13:46.409Z</time></trkpt><trkpt lat="44.6729175" lon="7.9082103"><ele>219.5</ele><time>2026-04-26T08:13:47.394Z</time></trkpt><trkpt lat="44.6732019" lon="7.9085483"><ele>222.0</ele><time>2026-04-26T08:13:48.397Z</time></trkpt><trkpt lat="44.6734768" lon="7.9088906"><ele>220.5</ele><time>2026-04-26T08:13:49.394Z</time></trkpt><trkpt lat="44.673746" lon="7.9092398"><ele>219.0</ele><time>2026-04-26T08:13:50.391Z</time></trkpt><trkpt lat="44.6740156" lon="7.9095886"><ele>217.0</ele><time>2026-04-26T08:13:51.4Z</time></trkpt><trkpt lat="44.6742817" lon="7.9099369"><ele>215.0</ele><time>2026-04-26T08:13:52.394Z</time></trkpt><trkpt lat="44.6745565" lon="7.9102781"><ele>215.0</ele><time>2026-04-26T08:13:53.389Z</time></trkpt><trkpt lat="44.6748281" lon="7.910612"><ele>215.0</ele><time>2026-04-26T08:13:54.411Z</time></trkpt><trkpt lat="44.6751061" lon="7.9109436"><ele>211.5</ele><time>2026-04-26T08:13:55.389Z</time></trkpt><trkpt lat="44.6753775" lon="7.9112873"><ele>208.0</ele><time>2026-04-26T08:13:56.393Z</time></trkpt><trkpt lat="44.6756469" lon="7.9116169"><ele>209.0</ele><time>2026-04-26T08:13:57.383Z</time></trkpt><trkpt lat="44.6759114" lon="7.9119476"><ele>210.0</ele><time>2026-04-26T08:13:58.388Z</time></trkpt><trkpt lat="44.6761751" lon="7.9122679"><ele>206.5</ele><time>2026-04-26T08:13:59.391Z</time></trkpt><trkpt lat="44.6764416" lon="7.9125826"><ele>203.0</ele><time>2026-04-26T08:14:00.397Z</time></trkpt><trkpt lat="44.6767038" lon="7.9129032"><ele>202.0</ele><time>2026-04-26T08:14:01.386Z</time></trkpt><trkpt lat="44.6769512" lon="7.9132361"><ele>201.0</ele><time>2026-04-26T08:14:02.381Z</time></trkpt><trkpt lat="44.67719" lon="7.9135755"><ele>201.0</ele><time>2026-04-26T08:14:03.395Z</time></trkpt><trkpt lat="44.677426" lon="7.9139191"><ele>201.0</ele><time>2026-04-26T08:14:04.396Z</time></trkpt><trkpt lat="44.6776526" lon="7.9142675"><ele>198.0</ele><time>2026-04-26T08:14:05.387Z</time></trkpt><trkpt lat="44.6778676" lon="7.9146132"><ele>195.0</ele><time>2026-04-26T08:14:06.386Z</time></trkpt><trkpt lat="44.6780717" lon="7.9149756"><ele>196.5</ele><time>2026-04-26T08:14:07.393Z</time></trkpt><trkpt lat="44.6782674" lon="7.9153519"><ele>198.0</ele><time>2026-04-26T08:14:08.385Z</time></trkpt><trkpt lat="44.6784646" lon="7.9157262"><ele>194.5</ele><time>2026-04-26T08:14:09.396Z</time></trkpt><trkpt lat="44.678649" lon="7.9161122"><ele>191.0</ele><time>2026-04-26T08:14:10.395Z</time></trkpt><trkpt lat="44.6788267" lon="7.9165056"><ele>191.0</ele><time>2026-04-26T08:14:11.398Z</time></trkpt><trkpt lat="44.6790009" lon="7.916913"><ele>191.0</ele><time>2026-04-26T08:14:12.395Z</time></trkpt><trkpt lat="44.6791625" lon="7.9173241"><ele>190.0</ele><time>2026-04-26T08:14:13.391Z</time></trkpt><trkpt lat="44.6793167" lon="7.9177462"><ele>189.0</ele><time>2026-04-26T08:14:14.389Z</time></trkpt><trkpt lat="44.6794592" lon="7.918177"><ele>188.0</ele><time>2026-04-26T08:14:15.385Z</time></trkpt><trkpt lat="44.6795887" lon="7.9186216"><ele>187.0</ele><time>2026-04-26T08:14:16.386Z</time></trkpt><trkpt lat="44.6797119" lon="7.9190843"><ele>188.0</ele><time>2026-04-26T08:14:17.391Z</time></trkpt><trkpt lat="44.6798253" lon="7.9195462"><ele>189.0</ele><time>2026-04-26T08:14:18.384Z</time></trkpt><trkpt lat="44.6799347" lon="7.9200143"><ele>188.5</ele><time>2026-04-26T08:14:19.395Z</time></trkpt><trkpt lat="44.6800325" lon="7.9204921"><ele>188.0</ele><time>2026-04-26T08:14:20.391Z</time></trkpt><trkpt lat="44.6801255" lon="7.92098"><ele>188.0</ele><time>2026-04-26T08:14:21.387Z</time></trkpt><trkpt lat="44.6802109" lon="7.9214704"><ele>188.0</ele><time>2026-04-26T08:14:22.401Z</time></trkpt><trkpt lat="44.680284" lon="7.9219621"><ele>187.0</ele><time>2026-04-26T08:14:23.396Z</time></trkpt><trkpt lat="44.6803437" lon="7.9224585"><ele>186.0</ele><time>2026-04-26T08:14:24.404Z</time></trkpt><trkpt lat="44.6803842" lon="7.9229519"><ele>187.0</ele><time>2026-04-26T08:14:25.4Z</time></trkpt><trkpt lat="44.6804166" lon="7.923452"><ele>188.0</ele><time>2026-04-26T08:14:26.389Z</time></trkpt><trkpt lat="44.6804428" lon="7.9239571"><ele>187.0</ele><time>2026-04-26T08:14:27.395Z</time></trkpt><trkpt lat="44.6804668" lon="7.9244556"><ele>186.0</ele><time>2026-04-26T08:14:28.388Z</time></trkpt><trkpt lat="44.6804935" lon="7.9249511"><ele>185.5</ele><time>2026-04-26T08:14:29.4Z</time></trkpt><trkpt lat="44.6805156" lon="7.9254496"><ele>185.0</ele><time>2026-04-26T08:14:30.389Z</time></trkpt><trkpt lat="44.6805391" lon="7.9259469"><ele>185.0</ele><time>2026-04-26T08:14:31.394Z</time></trkpt><trkpt lat="44.6805765" lon="7.9264389"><ele>185.0</ele><time>2026-04-26T08:14:32.384Z</time></trkpt><trkpt lat="44.680615" lon="7.9269341"><ele>185.5</ele><time>2026-04-26T08:14:33.395Z</time></trkpt><trkpt lat="44.6806729" lon="7.9274262"><ele>186.0</ele><time>2026-04-26T08:14:34.391Z</time></trkpt><trkpt lat="44.6807357" lon="7.9279183"><ele>188.0</ele><time>2026-04-26T08:14:35.388Z</time></trkpt><trkpt lat="44.6808162" lon="7.9283997"><ele>190.0</ele><time>2026-04-26T08:14:36.395Z</time></trkpt><trkpt lat="44.6809127" lon="7.9288832"><ele>191.5</ele><time>2026-04-26T08:14:37.401Z</time></trkpt><trkpt lat="44.6810234" lon="7.9293545"><ele>193.0</ele><time>2026-04-26T08:14:38.386Z</time></trkpt><trkpt lat="44.6811487" lon="7.9298239"><ele>190.5</ele><time>2026-04-26T08:14:39.4Z</time></trkpt><trkpt lat="44.6812847" lon="7.9302818"><ele>188.0</ele><time>2026-04-26T08:14:40.39Z</time></trkpt><trkpt lat="44.6814344" lon="7.9307334"><ele>187.5</ele><time>2026-04-26T08:14:41.401Z</time></trkpt><trkpt lat="44.6815942" lon="7.9311786"><ele>187.0</ele><time>2026-04-26T08:14:42.384Z</time></trkpt><trkpt lat="44.6817578" lon="7.9316238"><ele>187.0</ele><time>2026-04-26T08:14:43.39Z</time></trkpt><trkpt lat="44.6819236" lon="7.9320732"><ele>187.0</ele><time>2026-04-26T08:14:44.395Z</time></trkpt><trkpt lat="44.6820872" lon="7.9325193"><ele>187.5</ele><time>2026-04-26T08:14:45.393Z</time></trkpt><trkpt lat="44.68225" lon="7.9329677"><ele>188.0</ele><time>2026-04-26T08:14:46.391Z</time></trkpt><trkpt lat="44.6824173" lon="7.9334191"><ele>187.5</ele><time>2026-04-26T08:14:47.407Z</time></trkpt><trkpt lat="44.6825896" lon="7.9338747"><ele>187.0</ele><time>2026-04-26T08:14:48.402Z</time></trkpt><trkpt lat="44.6827631" lon="7.9343353"><ele>186.5</ele><time>2026-04-26T08:14:49.382Z</time></trkpt><trkpt lat="44.6829237" lon="7.9347998"><ele>186.0</ele><time>2026-04-26T08:14:50.398Z</time></trkpt><trkpt lat="44.6830779" lon="7.935264"><ele>186.0</ele><time>2026-04-26T08:14:51.401Z</time></trkpt><trkpt lat="44.6832247" lon="7.9357283"><ele>186.0</ele><time>2026-04-26T08:14:52.393Z</time></trkpt><trkpt lat="44.6833624" lon="7.9362008"><ele>185.0</ele><time>2026-04-26T08:14:53.392Z</time></trkpt><trkpt lat="44.6834917" lon="7.9366716"><ele>184.0</ele><time>2026-04-26T08:14:54.391Z</time></trkpt><trkpt lat="44.6836169" lon="7.9371475"><ele>185.0</ele><time>2026-04-26T08:14:55.4Z</time></trkpt><trkpt lat="44.683729" lon="7.9376367"><ele>186.0</ele><time>2026-04-26T08:14:56.393Z</time></trkpt><trkpt lat="44.683835" lon="7.9381203"><ele>186.0</ele><time>2026-04-26T08:14:57.391Z</time></trkpt><trkpt lat="44.6839324" lon="7.9386168"><ele>186.0</ele><time>2026-04-26T08:14:58.395Z</time></trkpt><trkpt lat="44.6840267" lon="7.9391151"><ele>186.0</ele><time>2026-04-26T08:14:59.394Z</time></trkpt><trkpt lat="44.6841102" lon="7.9396165"><ele>186.0</ele><time>2026-04-26T08:15:00.389Z</time></trkpt><trkpt lat="44.6841963" lon="7.9401142"><ele>186.0</ele><time>2026-04-26T08:15:01.389Z</time></trkpt><trkpt lat="44.6842697" lon="7.9406222"><ele>186.0</ele><time>2026-04-26T08:15:02.387Z</time></trkpt><trkpt lat="44.6843358" lon="7.9411316"><ele>186.0</ele><time>2026-04-26T08:15:03.399Z</time></trkpt><trkpt lat="44.6844032" lon="7.9416404"><ele>186.0</ele><time>2026-04-26T08:15:04.383Z</time></trkpt><trkpt lat="44.6844687" lon="7.942141"><ele>184.5</ele><time>2026-04-26T08:15:05.394Z</time></trkpt><trkpt lat="44.684532" lon="7.9426373"><ele>183.0</ele><time>2026-04-26T08:15:06.389Z</time></trkpt><trkpt lat="44.6845979" lon="7.9431309"><ele>183.5</ele><time>2026-04-26T08:15:07.401Z</time></trkpt><trkpt lat="44.6846613" lon="7.9436209"><ele>184.0</ele><time>2026-04-26T08:15:08.388Z</time></trkpt><trkpt lat="44.6847267" lon="7.9441171"><ele>183.0</ele><time>2026-04-26T08:15:09.393Z</time></trkpt><trkpt lat="44.6847897" lon="7.9446185"><ele>182.0</ele><time>2026-04-26T08:15:10.399Z</time></trkpt><trkpt lat="44.6848516" lon="7.9451205"><ele>182.0</ele><time>2026-04-26T08:15:11.384Z</time></trkpt><trkpt lat="44.6849141" lon="7.9456081"><ele>182.0</ele><time>2026-04-26T08:15:12.389Z</time></trkpt><trkpt lat="44.6849772" lon="7.9460895"><ele>182.5</ele><time>2026-04-26T08:15:13.391Z</time></trkpt><trkpt lat="44.6850419" lon="7.9465537"><ele>183.0</ele><time>2026-04-26T08:15:14.383Z</time></trkpt><trkpt lat="44.6851016" lon="7.9469862"><ele>183.0</ele><time>2026-04-26T08:15:15.39Z</time></trkpt><trkpt lat="44.6851619" lon="7.9473952"><ele>183.0</ele><time>2026-04-26T08:15:16.387Z</time></trkpt><trkpt lat="44.6852238" lon="7.9477933"><ele>183.0</ele><time>2026-04-26T08:15:17.389Z</time></trkpt><trkpt lat="44.6852898" lon="7.9481711"><ele>183.0</ele><time>2026-04-26T08:15:18.394Z</time></trkpt><trkpt lat="44.6853413" lon="7.9485321"><ele>183.5</ele><time>2026-04-26T08:15:19.39Z</time></trkpt><trkpt lat="44.685396" lon="7.9488863"><ele>184.0</ele><time>2026-04-26T08:15:20.392Z</time></trkpt><trkpt lat="44.6854559" lon="7.9492369"><ele>184.0</ele><time>2026-04-26T08:15:21.392Z</time></trkpt><trkpt lat="44.6855152" lon="7.9495893"><ele>184.0</ele><time>2026-04-26T08:15:22.399Z</time></trkpt><trkpt lat="44.6855724" lon="7.949949"><ele>182.5</ele><time>2026-04-26T08:15:23.393Z</time></trkpt><trkpt lat="44.6856302" lon="7.9503163"><ele>181.0</ele><time>2026-04-26T08:15:24.389Z</time></trkpt><trkpt lat="44.6856915" lon="7.9506948"><ele>182.5</ele><time>2026-04-26T08:15:25.392Z</time></trkpt><trkpt lat="44.6857526" lon="7.9510878"><ele>184.0</ele><time>2026-04-26T08:15:26.384Z</time></trkpt><trkpt lat="44.6858162" lon="7.9514991"><ele>183.0</ele><time>2026-04-26T08:15:27.393Z</time></trkpt><trkpt lat="44.6858831" lon="7.9519078"><ele>182.0</ele><time>2026-04-26T08:15:28.387Z</time></trkpt><trkpt lat="44.685958" lon="7.9523256"><ele>182.0</ele><time>2026-04-26T08:15:29.39Z</time></trkpt><trkpt lat="44.6860284" lon="7.9527479"><ele>182.0</ele><time>2026-04-26T08:15:30.394Z</time></trkpt><trkpt lat="44.6861105" lon="7.9531789"><ele>182.0</ele><time>2026-04-26T08:15:31.389Z</time></trkpt><trkpt lat="44.6861928" lon="7.9536209"><ele>182.0</ele><time>2026-04-26T08:15:32.389Z</time></trkpt><trkpt lat="44.6862768" lon="7.9540678"><ele>181.0</ele><time>2026-04-26T08:15:33.391Z</time></trkpt><trkpt lat="44.6863661" lon="7.9545083"><ele>180.0</ele><time>2026-04-26T08:15:34.389Z</time></trkpt><trkpt lat="44.6864592" lon="7.9549564"><ele>179.5</ele><time>2026-04-26T08:15:35.39Z</time></trkpt><trkpt lat="44.6865451" lon="7.955406"><ele>179.0</ele><time>2026-04-26T08:15:36.395Z</time></trkpt><trkpt lat="44.6866335" lon="7.9558536"><ele>180.0</ele><time>2026-04-26T08:15:37.381Z</time></trkpt><trkpt lat="44.6867211" lon="7.9563032"><ele>181.0</ele><time>2026-04-26T08:15:38.383Z</time></trkpt><trkpt lat="44.6868042" lon="7.9567487"><ele>181.0</ele><time>2026-04-26T08:15:39.392Z</time></trkpt><trkpt lat="44.6868802" lon="7.9571814"><ele>181.0</ele><time>2026-04-26T08:15:40.389Z</time></trkpt><trkpt lat="44.6869511" lon="7.9576014"><ele>181.0</ele><time>2026-04-26T08:15:41.385Z</time></trkpt><trkpt lat="44.6870124" lon="7.9579914"><ele>181.0</ele><time>2026-04-26T08:15:42.391Z</time></trkpt><trkpt lat="44.6870753" lon="7.9583597"><ele>180.5</ele><time>2026-04-26T08:15:43.388Z</time></trkpt><trkpt lat="44.6871376" lon="7.9587136"><ele>180.0</ele><time>2026-04-26T08:15:44.397Z</time></trkpt><trkpt lat="44.6871923" lon="7.9590533"><ele>180.0</ele><time>2026-04-26T08:15:45.396Z</time></trkpt><trkpt lat="44.6872451" lon="7.9593758"><ele>180.0</ele><time>2026-04-26T08:15:46.393Z</time></trkpt><trkpt lat="44.6872867" lon="7.9596804"><ele>180.0</ele><time>2026-04-26T08:15:47.392Z</time></trkpt><trkpt lat="44.6873148" lon="7.959966"><ele>180.0</ele><time>2026-04-26T08:15:48.391Z</time></trkpt><trkpt lat="44.6873234" lon="7.9602452"><ele>180.0</ele><time>2026-04-26T08:15:49.401Z</time></trkpt><trkpt lat="44.6873036" lon="7.960526"><ele>180.0</ele><time>2026-04-26T08:15:50.386Z</time></trkpt><trkpt lat="44.6872551" lon="7.9608005"><ele>180.0</ele><time>2026-04-26T08:15:51.385Z</time></trkpt><trkpt lat="44.6871715" lon="7.9610613"><ele>180.0</ele><time>2026-04-26T08:15:52.385Z</time></trkpt><trkpt lat="44.6870604" lon="7.9613078"><ele>180.66666666666666</ele><time>2026-04-26T08:15:53.389Z</time></trkpt><trkpt lat="44.6869235" lon="7.9615128"><ele>181.33333333333331</ele><time>2026-04-26T08:15:54.381Z</time></trkpt><trkpt lat="44.6867708" lon="7.96169"><ele>182.0</ele><time>2026-04-26T08:15:55.387Z</time></trkpt><trkpt lat="44.6866226" lon="7.9617945"><ele>182.33333333333331</ele><time>2026-04-26T08:15:56.392Z</time></trkpt><trkpt lat="44.6864605" lon="7.9618475"><ele>182.66666666666666</ele><time>2026-04-26T08:15:57.391Z</time></trkpt><trkpt lat="44.686293" lon="7.96184"><ele>183.0</ele><time>2026-04-26T08:15:58.388Z</time></trkpt><trkpt lat="44.6861312" lon="7.9617938"><ele>183.0</ele><time>2026-04-26T08:15:59.394Z</time></trkpt><trkpt lat="44.6860059" lon="7.9616835"><ele>183.0</ele><time>2026-04-26T08:16:00.397Z</time></trkpt><trkpt lat="44.6858932" lon="7.9615379"><ele>183.0</ele><time>2026-04-26T08:16:01.392Z</time></trkpt><trkpt lat="44.6858112" lon="7.9613312"><ele>183.0</ele><time>2026-04-26T08:16:02.39Z</time></trkpt><trkpt lat="44.6857512" lon="7.9610852"><ele>183.0</ele><time>2026-04-26T08:16:03.394Z</time></trkpt><trkpt lat="44.6857005" lon="7.9608008"><ele>183.0</ele><time>2026-04-26T08:16:04.405Z</time></trkpt><trkpt lat="44.6856576" lon="7.9605166"><ele>183.0</ele><time>2026-04-26T08:16:05.385Z</time></trkpt><trkpt lat="44.6856121" lon="7.9602141"><ele>183.0</ele><time>2026-04-26T08:16:06.391Z</time></trkpt><trkpt lat="44.6855599" lon="7.9598953"><ele>183.0</ele><time>2026-04-26T08:16:07.417Z</time></trkpt><trkpt lat="44.6855006" lon="7.9595599"><ele>183.0</ele><time>2026-04-26T08:16:08.388Z</time></trkpt><trkpt lat="44.6854419" lon="7.9592389"><ele>183.33333333333334</ele><time>2026-04-26T08:16:09.389Z</time></trkpt><trkpt lat="44.6853822" lon="7.958929"><ele>183.66666666666669</ele><time>2026-04-26T08:16:10.391Z</time></trkpt><trkpt lat="44.685325" lon="7.9586378"><ele>184.0</ele><time>2026-04-26T08:16:11.393Z</time></trkpt><trkpt lat="44.6852737" lon="7.9583758"><ele>184.33333333333334</ele><time>2026-04-26T08:16:12.4Z</time></trkpt><trkpt lat="44.685212" lon="7.9581293"><ele>184.66666666666666</ele><time>2026-04-26T08:16:13.396Z</time></trkpt><trkpt lat="44.6851491" lon="7.957923"><ele>185.0</ele><time>2026-04-26T08:16:14.404Z</time></trkpt><trkpt lat="44.6851011" lon="7.9577738"><ele>185.0</ele><time>2026-04-26T08:16:15.391Z</time></trkpt><trkpt lat="44.6850561" lon="7.9576331"><ele>185.0</ele><time>2026-04-26T08:16:16.391Z</time></trkpt><trkpt lat="44.6850413" lon="7.9574766"><ele>185.0</ele><time>2026-04-26T08:16:17.386Z</time></trkpt><trkpt lat="44.685031" lon="7.9573247"><ele>185.0</ele><time>2026-04-26T08:16:18.397Z</time></trkpt><trkpt lat="44.6849854" lon="7.9572097"><ele>185.0</ele><time>2026-04-26T08:16:19.39Z</time></trkpt><trkpt lat="44.6848967" lon="7.9571434"><ele>184.75</ele><time>2026-04-26T08:16:20.388Z</time></trkpt><trkpt lat="44.684805" lon="7.9570984"><ele>184.5</ele><time>2026-04-26T08:16:21.395Z</time></trkpt><trkpt lat="44.6847116" lon="7.9570455"><ele>184.25</ele><time>2026-04-26T08:16:22.386Z</time></trkpt><trkpt lat="44.6846521" lon="7.9569116"><ele>184.0</ele><time>2026-04-26T08:16:23.388Z</time></trkpt><trkpt lat="44.6845791" lon="7.9567352"><ele>184.0</ele><time>2026-04-26T08:16:24.399Z</time></trkpt><trkpt lat="44.6845524" lon="7.9565427"><ele>184.0</ele><time>2026-04-26T08:16:25.39Z</time></trkpt><trkpt lat="44.6845191" lon="7.95636"><ele>184.0</ele><time>2026-04-26T08:16:26.39Z</time></trkpt><trkpt lat="44.6844878" lon="7.9561594"><ele>184.0</ele><time>2026-04-26T08:16:27.39Z</time></trkpt><trkpt lat="44.6844545" lon="7.9559433"><ele>184.33333333333334</ele><time>2026-04-26T08:16:28.397Z</time></trkpt><trkpt lat="44.6844239" lon="7.9557022"><ele>184.66666666666666</ele><time>2026-04-26T08:16:29.388Z</time></trkpt><trkpt lat="44.684396" lon="7.9554319"><ele>185.0</ele><time>2026-04-26T08:16:30.404Z</time></trkpt><trkpt lat="44.6843609" lon="7.9551492"><ele>185.0</ele><time>2026-04-26T08:16:31.389Z</time></trkpt><trkpt lat="44.6843222" lon="7.9548633"><ele>185.0</ele><time>2026-04-26T08:16:32.401Z</time></trkpt><trkpt lat="44.6842809" lon="7.9545598"><ele>185.0</ele><time>2026-04-26T08:16:33.382Z</time></trkpt><trkpt lat="44.6842446" lon="7.9542578"><ele>184.5</ele><time>2026-04-26T08:16:34.391Z</time></trkpt><trkpt lat="44.6842033" lon="7.953944"><ele>184.0</ele><time>2026-04-26T08:16:35.403Z</time></trkpt><trkpt lat="44.6841644" lon="7.9536233"><ele>184.0</ele><time>2026-04-26T08:16:36.392Z</time></trkpt><trkpt lat="44.6841175" lon="7.9533011"><ele>184.0</ele><time>2026-04-26T08:16:37.385Z</time></trkpt><trkpt lat="44.6840717" lon="7.9529775"><ele>184.0</ele><time>2026-04-26T08:16:38.4Z</time></trkpt><trkpt lat="44.6840253" lon="7.9526479"><ele>184.0</ele><time>2026-04-26T08:16:39.39Z</time></trkpt><trkpt lat="44.6839817" lon="7.9523187"><ele>185.0</ele><time>2026-04-26T08:16:40.374Z</time></trkpt><trkpt lat="44.6839375" lon="7.9519931"><ele>186.0</ele><time>2026-04-26T08:16:41.387Z</time></trkpt><trkpt lat="44.6838904" lon="7.9516754"><ele>186.0</ele><time>2026-04-26T08:16:42.388Z</time></trkpt><trkpt lat="44.6838475" lon="7.9513692"><ele>186.0</ele><time>2026-04-26T08:16:43.388Z</time></trkpt><trkpt lat="44.6838053" lon="7.9510695"><ele>186.0</ele><time>2026-04-26T08:16:44.387Z</time></trkpt><trkpt lat="44.6837686" lon="7.9507726"><ele>185.0</ele><time>2026-04-26T08:16:45.386Z</time></trkpt><trkpt lat="44.6837268" lon="7.9504667"><ele>184.0</ele><time>2026-04-26T08:16:46.404Z</time></trkpt><trkpt lat="44.683673" lon="7.9501749"><ele>183.0</ele><time>2026-04-26T08:16:47.389Z</time></trkpt><trkpt lat="44.6835994" lon="7.9499113"><ele>184.0</ele><time>2026-04-26T08:16:48.381Z</time></trkpt><trkpt lat="44.683513" lon="7.9496585"><ele>185.0</ele><time>2026-04-26T08:16:49.394Z</time></trkpt><trkpt lat="44.6834177" lon="7.9494121"><ele>186.0</ele><time>2026-04-26T08:16:50.395Z</time></trkpt><trkpt lat="44.6833265" lon="7.9491619"><ele>186.33333333333334</ele><time>2026-04-26T08:16:51.399Z</time></trkpt><trkpt lat="44.6832577" lon="7.948892"><ele>186.66666666666669</ele><time>2026-04-26T08:16:52.395Z</time></trkpt><trkpt lat="44.6832214" lon="7.948593"><ele>187.0</ele><time>2026-04-26T08:16:53.401Z</time></trkpt><trkpt lat="44.6832269" lon="7.9483058"><ele>186.33333333333334</ele><time>2026-04-26T08:16:54.411Z</time></trkpt><trkpt lat="44.6832613" lon="7.9480259"><ele>185.66666666666666</ele><time>2026-04-26T08:16:55.441Z</time></trkpt><trkpt lat="44.6833131" lon="7.9477491"><ele>185.0</ele><time>2026-04-26T08:16:56.393Z</time></trkpt><trkpt lat="44.6833739" lon="7.9474789"><ele>185.0</ele><time>2026-04-26T08:16:57.403Z</time></trkpt><trkpt lat="44.6834324" lon="7.9472017"><ele>185.0</ele><time>2026-04-26T08:16:58.399Z</time></trkpt><trkpt lat="44.6834868" lon="7.9469153"><ele>185.0</ele><time>2026-04-26T08:16:59.39Z</time></trkpt><trkpt lat="44.6835208" lon="7.9466284"><ele>185.33333333333331</ele><time>2026-04-26T08:17:00.396Z</time></trkpt><trkpt lat="44.6835382" lon="7.9463304"><ele>185.66666666666666</ele><time>2026-04-26T08:17:01.396Z</time></trkpt><trkpt lat="44.6835403" lon="7.9460278"><ele>186.0</ele><time>2026-04-26T08:17:02.392Z</time></trkpt><trkpt lat="44.6835377" lon="7.9457129"><ele>186.0</ele><time>2026-04-26T08:17:03.404Z</time></trkpt><trkpt lat="44.6835351" lon="7.9453863"><ele>186.0</ele><time>2026-04-26T08:17:04.395Z</time></trkpt><trkpt lat="44.6835359" lon="7.9450502"><ele>186.0</ele><time>2026-04-26T08:17:05.393Z</time></trkpt><trkpt lat="44.6835366" lon="7.9447225"><ele>186.0</ele><time>2026-04-26T08:17:06.4Z</time></trkpt><trkpt lat="44.6835369" lon="7.9443956"><ele>186.0</ele><time>2026-04-26T08:17:07.399Z</time></trkpt><trkpt lat="44.6835339" lon="7.9440665"><ele>186.0</ele><time>2026-04-26T08:17:08.389Z</time></trkpt><trkpt lat="44.6835291" lon="7.94374"><ele>186.0</ele><time>2026-04-26T08:17:09.392Z</time></trkpt><trkpt lat="44.6835253" lon="7.9434172"><ele>186.0</ele><time>2026-04-26T08:17:10.38Z</time></trkpt><trkpt lat="44.6835158" lon="7.9430968"><ele>186.5</ele><time>2026-04-26T08:17:11.381Z</time></trkpt><trkpt lat="44.6835137" lon="7.9427665"><ele>187.0</ele><time>2026-04-26T08:17:12.392Z</time></trkpt><trkpt lat="44.6835117" lon="7.9424433"><ele>187.5</ele><time>2026-04-26T08:17:13.393Z</time></trkpt><trkpt lat="44.6835135" lon="7.9421121"><ele>188.0</ele><time>2026-04-26T08:17:14.389Z</time></trkpt><trkpt lat="44.6835138" lon="7.941777"><ele>187.5</ele><time>2026-04-26T08:17:15.398Z</time></trkpt><trkpt lat="44.6835077" lon="7.9414403"><ele>187.0</ele><time>2026-04-26T08:17:16.387Z</time></trkpt><trkpt lat="44.6835055" lon="7.9411057"><ele>187.33333333333334</ele><time>2026-04-26T08:17:17.39Z</time></trkpt><trkpt lat="44.683504" lon="7.9407858"><ele>187.66666666666666</ele><time>2026-04-26T08:17:18.393Z</time></trkpt><trkpt lat="44.6835033" lon="7.9404764"><ele>188.0</ele><time>2026-04-26T08:17:19.396Z</time></trkpt><trkpt lat="44.6834885" lon="7.9401788"><ele>187.66666666666666</ele><time>2026-04-26T08:17:20.385Z</time></trkpt><trkpt lat="44.6834613" lon="7.9398776"><ele>187.33333333333334</ele><time>2026-04-26T08:17:21.395Z</time></trkpt><trkpt lat="44.6834201" lon="7.9395704"><ele>187.0</ele><time>2026-04-26T08:17:22.405Z</time></trkpt><trkpt lat="44.6833678" lon="7.9392544"><ele>186.0</ele><time>2026-04-26T08:17:23.392Z</time></trkpt><trkpt lat="44.6833018" lon="7.9389333"><ele>185.0</ele><time>2026-04-26T08:17:24.402Z</time></trkpt><trkpt lat="44.6832296" lon="7.9386249"><ele>186.0</ele><time>2026-04-26T08:17:25.392Z</time></trkpt><trkpt lat="44.6831489" lon="7.9383211"><ele>187.0</ele><time>2026-04-26T08:17:26.391Z</time></trkpt><trkpt lat="44.6830511" lon="7.9380172"><ele>187.0</ele><time>2026-04-26T08:17:27.425Z</time></trkpt><trkpt lat="44.6829365" lon="7.9377197"><ele>187.0</ele><time>2026-04-26T08:17:28.4Z</time></trkpt><trkpt lat="44.6828185" lon="7.9374251"><ele>187.0</ele><time>2026-04-26T08:17:29.4Z</time></trkpt><trkpt lat="44.6827098" lon="7.9371235"><ele>187.0</ele><time>2026-04-26T08:17:30.383Z</time></trkpt><trkpt lat="44.6826014" lon="7.9368174"><ele>186.0</ele><time>2026-04-26T08:17:31.396Z</time></trkpt><trkpt lat="44.6824882" lon="7.9365151"><ele>185.0</ele><time>2026-04-26T08:17:32.392Z</time></trkpt><trkpt lat="44.6823802" lon="7.9362071"><ele>185.0</ele><time>2026-04-26T08:17:33.386Z</time></trkpt><trkpt lat="44.6822661" lon="7.9359074"><ele>185.0</ele><time>2026-04-26T08:17:34.397Z</time></trkpt><trkpt lat="44.682162" lon="7.9356109"><ele>185.33333333333331</ele><time>2026-04-26T08:17:35.392Z</time></trkpt><trkpt lat="44.6820563" lon="7.9353243"><ele>185.66666666666666</ele><time>2026-04-26T08:17:36.385Z</time></trkpt><trkpt lat="44.6819576" lon="7.9350543"><ele>186.0</ele><time>2026-04-26T08:17:37.379Z</time></trkpt><trkpt lat="44.6818728" lon="7.934813"><ele>187.0</ele><time>2026-04-26T08:17:38.386Z</time></trkpt><trkpt lat="44.6817814" lon="7.9345741"><ele>188.0</ele><time>2026-04-26T08:17:39.414Z</time></trkpt><trkpt lat="44.6816944" lon="7.9343298"><ele>189.0</ele><time>2026-04-26T08:17:40.389Z</time></trkpt><trkpt lat="44.6816127" lon="7.9340782"><ele>189.0</ele><time>2026-04-26T08:17:41.392Z</time></trkpt><trkpt lat="44.6815212" lon="7.9338112"><ele>189.0</ele><time>2026-04-26T08:17:42.388Z</time></trkpt><trkpt lat="44.6814256" lon="7.9335548"><ele>189.0</ele><time>2026-04-26T08:17:43.399Z</time></trkpt><trkpt lat="44.681312" lon="7.9332978"><ele>188.66666666666666</ele><time>2026-04-26T08:17:44.398Z</time></trkpt><trkpt lat="44.6811832" lon="7.9330498"><ele>188.33333333333331</ele><time>2026-04-26T08:17:45.393Z</time></trkpt><trkpt lat="44.681045" lon="7.9328064"><ele>188.0</ele><time>2026-04-26T08:17:46.383Z</time></trkpt><trkpt lat="44.6809305" lon="7.9325551"><ele>188.66666666666666</ele><time>2026-04-26T08:17:47.386Z</time></trkpt><trkpt lat="44.6808362" lon="7.9323142"><ele>189.33333333333334</ele><time>2026-04-26T08:17:48.388Z</time></trkpt><trkpt lat="44.6807826" lon="7.9320846"><ele>190.0</ele><time>2026-04-26T08:17:49.388Z</time></trkpt><trkpt lat="44.6807402" lon="7.9318344"><ele>190.0</ele><time>2026-04-26T08:17:50.399Z</time></trkpt><trkpt lat="44.6806933" lon="7.9315557"><ele>190.0</ele><time>2026-04-26T08:17:51.392Z</time></trkpt><trkpt lat="44.6806424" lon="7.9312371"><ele>190.0</ele><time>2026-04-26T08:17:52.382Z</time></trkpt><trkpt lat="44.68058" lon="7.9308953"><ele>190.0</ele><time>2026-04-26T08:17:53.385Z</time></trkpt><trkpt lat="44.6805325" lon="7.9305612"><ele>190.0</ele><time>2026-04-26T08:17:54.39Z</time></trkpt><trkpt lat="44.6804953" lon="7.9302514"><ele>191.0</ele><time>2026-04-26T08:17:55.387Z</time></trkpt><trkpt lat="44.6804594" lon="7.9299736"><ele>192.0</ele><time>2026-04-26T08:17:56.389Z</time></trkpt><trkpt lat="44.6804221" lon="7.9297323"><ele>193.0</ele><time>2026-04-26T08:17:57.376Z</time></trkpt><trkpt lat="44.6804018" lon="7.929533"><ele>193.0</ele><time>2026-04-26T08:17:58.406Z</time></trkpt><trkpt lat="44.6803925" lon="7.9293765"><ele>193.0</ele><time>2026-04-26T08:17:59.391Z</time></trkpt><trkpt lat="44.6803832" lon="7.9292393"><ele>193.0</ele><time>2026-04-26T08:18:00.409Z</time></trkpt><trkpt lat="44.6803601" lon="7.9291041"><ele>193.0</ele><time>2026-04-26T08:18:01.39Z</time></trkpt><trkpt lat="44.6803073" lon="7.9289542"><ele>193.0</ele><time>2026-04-26T08:18:02.399Z</time></trkpt><trkpt lat="44.6802125" lon="7.9287849"><ele>194.0</ele><time>2026-04-26T08:18:03.404Z</time></trkpt><trkpt lat="44.6800883" lon="7.9286088"><ele>195.0</ele><time>2026-04-26T08:18:04.386Z</time></trkpt><trkpt lat="44.6799637" lon="7.9284226"><ele>196.0</ele><time>2026-04-26T08:18:05.407Z</time></trkpt><trkpt lat="44.6798479" lon="7.9282072"><ele>196.0</ele><time>2026-04-26T08:18:06.399Z</time></trkpt><trkpt lat="44.6797401" lon="7.9279652"><ele>196.0</ele><time>2026-04-26T08:18:07.397Z</time></trkpt><trkpt lat="44.6796496" lon="7.9276849"><ele>196.0</ele><time>2026-04-26T08:18:08.417Z</time></trkpt><trkpt lat="44.6795734" lon="7.9273842"><ele>194.0</ele><time>2026-04-26T08:18:09.388Z</time></trkpt><trkpt lat="44.6795099" lon="7.927076"><ele>192.0</ele><time>2026-04-26T08:18:10.379Z</time></trkpt><trkpt lat="44.6794707" lon="7.9267633"><ele>197.5</ele><time>2026-04-26T08:18:11.401Z</time></trkpt><trkpt lat="44.6794329" lon="7.9264388"><ele>203.0</ele><time>2026-04-26T08:18:12.409Z</time></trkpt><trkpt lat="44.6793937" lon="7.9261133"><ele>201.0</ele><time>2026-04-26T08:18:13.384Z</time></trkpt><trkpt lat="44.6793715" lon="7.9257993"><ele>199.0</ele><time>2026-04-26T08:18:14.398Z</time></trkpt><trkpt lat="44.6793691" lon="7.9254609"><ele>199.0</ele><time>2026-04-26T08:18:15.403Z</time></trkpt><trkpt lat="44.6793838" lon="7.9251195"><ele>199.0</ele><time>2026-04-26T08:18:16.393Z</time></trkpt><trkpt lat="44.6794022" lon="7.924775"><ele>199.5</ele><time>2026-04-26T08:18:17.39Z</time></trkpt><trkpt lat="44.679415" lon="7.9244269"><ele>200.0</ele><time>2026-04-26T08:18:18.385Z</time></trkpt><trkpt lat="44.6794256" lon="7.9240743"><ele>195.0</ele><time>2026-04-26T08:18:19.385Z</time></trkpt><trkpt lat="44.679438" lon="7.9237281"><ele>190.0</ele><time>2026-04-26T08:18:20.401Z</time></trkpt><trkpt lat="44.6794533" lon="7.923382"><ele>189.0</ele><time>2026-04-26T08:18:21.389Z</time></trkpt><trkpt lat="44.6794674" lon="7.9230443"><ele>188.0</ele><time>2026-04-26T08:18:22.4Z</time></trkpt><trkpt lat="44.6794793" lon="7.9227287"><ele>188.33333333333331</ele><time>2026-04-26T08:18:23.388Z</time></trkpt><trkpt lat="44.6794901" lon="7.9224312"><ele>188.66666666666666</ele><time>2026-04-26T08:18:24.386Z</time></trkpt><trkpt lat="44.6794958" lon="7.9221466"><ele>189.0</ele><time>2026-04-26T08:18:25.403Z</time></trkpt><trkpt lat="44.6794828" lon="7.9218793"><ele>191.0</ele><time>2026-04-26T08:18:26.397Z</time></trkpt><trkpt lat="44.679427" lon="7.9216415"><ele>193.0</ele><time>2026-04-26T08:18:27.389Z</time></trkpt><trkpt lat="44.6793397" lon="7.9214179"><ele>195.0</ele><time>2026-04-26T08:18:28.385Z</time></trkpt><trkpt lat="44.6792309" lon="7.9212129"><ele>195.0</ele><time>2026-04-26T08:18:29.386Z</time></trkpt><trkpt lat="44.6791354" lon="7.9209794"><ele>195.0</ele><time>2026-04-26T08:18:30.389Z</time></trkpt><trkpt lat="44.6790287" lon="7.9207714"><ele>195.0</ele><time>2026-04-26T08:18:31.393Z</time></trkpt><trkpt lat="44.6789517" lon="7.9205412"><ele>194.66666666666669</ele><time>2026-04-26T08:18:32.389Z</time></trkpt><trkpt lat="44.6789041" lon="7.9203029"><ele>194.33333333333334</ele><time>2026-04-26T08:18:33.385Z</time></trkpt><trkpt lat="44.6788666" lon="7.9200899"><ele>194.0</ele><time>2026-04-26T08:18:34.391Z</time></trkpt><trkpt lat="44.6788404" lon="7.9198968"><ele>193.5</ele><time>2026-04-26T08:18:35.376Z</time></trkpt><trkpt lat="44.6788178" lon="7.9197231"><ele>193.0</ele><time>2026-04-26T08:18:36.391Z</time></trkpt><trkpt lat="44.6788001" lon="7.9195723"><ele>192.5</ele><time>2026-04-26T08:18:37.389Z</time></trkpt><trkpt lat="44.6787802" lon="7.9194105"><ele>192.0</ele><time>2026-04-26T08:18:38.386Z</time></trkpt><trkpt lat="44.6787597" lon="7.9192608"><ele>191.5</ele><time>2026-04-26T08:18:39.382Z</time></trkpt><trkpt lat="44.6787414" lon="7.9191105"><ele>191.0</ele><time>2026-04-26T08:18:40.397Z</time></trkpt><trkpt lat="44.6787252" lon="7.918966"><ele>190.5</ele><time>2026-04-26T08:18:41.383Z</time></trkpt><trkpt lat="44.6787154" lon="7.9188522"><ele>190.0</ele><time>2026-04-26T08:18:42.387Z</time></trkpt><trkpt lat="44.6787167" lon="7.9187448"><ele>189.5</ele><time>2026-04-26T08:18:43.391Z</time></trkpt><trkpt lat="44.6787413" lon="7.9186589"><ele>189.0</ele><time>2026-04-26T08:18:44.391Z</time></trkpt><trkpt lat="44.6787841" lon="7.9185875"><ele>189.0</ele><time>2026-04-26T08:18:45.389Z</time></trkpt><trkpt lat="44.6789059" lon="7.9185146"><ele>189.0</ele><time>2026-04-26T08:18:47.4Z</time></trkpt><trkpt lat="44.6790001" lon="7.9185079"><ele>189.0</ele><time>2026-04-26T08:18:48.398Z</time></trkpt><trkpt lat="44.6791077" lon="7.918495"><ele>189.0</ele><time>2026-04-26T08:18:49.394Z</time></trkpt><trkpt lat="44.6792147" lon="7.9184806"><ele>189.0</ele><time>2026-04-26T08:18:50.393Z</time></trkpt><trkpt lat="44.6793295" lon="7.9184583"><ele>188.33333333333334</ele><time>2026-04-26T08:18:51.394Z</time></trkpt><trkpt lat="44.6794592" lon="7.9183979"><ele>187.66666666666669</ele><time>2026-04-26T08:18:52.397Z</time></trkpt><trkpt lat="44.679615" lon="7.9183148"><ele>187.0</ele><time>2026-04-26T08:18:53.393Z</time></trkpt><trkpt lat="44.6798069" lon="7.9181721"><ele>187.0</ele><time>2026-04-26T08:18:54.429Z</time></trkpt><trkpt lat="44.6800165" lon="7.9179746"><ele>187.0</ele><time>2026-04-26T08:18:55.384Z</time></trkpt><trkpt lat="44.6802211" lon="7.9177422"><ele>185.5</ele><time>2026-04-26T08:18:56.383Z</time></trkpt><trkpt lat="44.6804318" lon="7.9175084"><ele>184.0</ele><time>2026-04-26T08:18:57.4Z</time></trkpt><trkpt lat="44.6806243" lon="7.9172758"><ele>184.0</ele><time>2026-04-26T08:18:58.402Z</time></trkpt><trkpt lat="44.6808192" lon="7.9170364"><ele>184.0</ele><time>2026-04-26T08:18:59.392Z</time></trkpt><trkpt lat="44.6810133" lon="7.916805"><ele>184.0</ele><time>2026-04-26T08:19:00.393Z</time></trkpt><trkpt lat="44.6812044" lon="7.9165688"><ele>184.0</ele><time>2026-04-26T08:19:01.394Z</time></trkpt><trkpt lat="44.6813938" lon="7.9163465"><ele>184.0</ele><time>2026-04-26T08:19:02.389Z</time></trkpt><trkpt lat="44.6815846" lon="7.9161181"><ele>184.0</ele><time>2026-04-26T08:19:03.399Z</time></trkpt><trkpt lat="44.6817797" lon="7.9158796"><ele>184.0</ele><time>2026-04-26T08:19:04.39Z</time></trkpt><trkpt lat="44.6819773" lon="7.9156342"><ele>184.0</ele><time>2026-04-26T08:19:05.393Z</time></trkpt><trkpt lat="44.6821757" lon="7.9153881"><ele>184.0</ele><time>2026-04-26T08:19:06.393Z</time></trkpt><trkpt lat="44.6823777" lon="7.9151497"><ele>184.0</ele><time>2026-04-26T08:19:07.389Z</time></trkpt><trkpt lat="44.682578" lon="7.9149125"><ele>184.0</ele><time>2026-04-26T08:19:08.393Z</time></trkpt><trkpt lat="44.6827784" lon="7.914673"><ele>184.0</ele><time>2026-04-26T08:19:09.399Z</time></trkpt><trkpt lat="44.682977" lon="7.9144529"><ele>184.0</ele><time>2026-04-26T08:19:10.385Z</time></trkpt><trkpt lat="44.6831796" lon="7.9142602"><ele>184.0</ele><time>2026-04-26T08:19:11.403Z</time></trkpt><trkpt lat="44.6833923" lon="7.914086"><ele>184.5</ele><time>2026-04-26T08:19:12.388Z</time></trkpt><trkpt lat="44.6836093" lon="7.9139289"><ele>185.0</ele><time>2026-04-26T08:19:13.395Z</time></trkpt><trkpt lat="44.6838348" lon="7.9137695"><ele>185.0</ele><time>2026-04-26T08:19:14.403Z</time></trkpt><trkpt lat="44.6840494" lon="7.9135956"><ele>185.0</ele><time>2026-04-26T08:19:15.399Z</time></trkpt><trkpt lat="44.6842674" lon="7.9134264"><ele>185.5</ele><time>2026-04-26T08:19:16.39Z</time></trkpt><trkpt lat="44.6844696" lon="7.9132581"><ele>186.0</ele><time>2026-04-26T08:19:17.401Z</time></trkpt><trkpt lat="44.6846678" lon="7.9131094"><ele>186.0</ele><time>2026-04-26T08:19:18.395Z</time></trkpt><trkpt lat="44.6848587" lon="7.9129646"><ele>186.0</ele><time>2026-04-26T08:19:19.398Z</time></trkpt><trkpt lat="44.6850371" lon="7.9128318"><ele>186.0</ele><time>2026-04-26T08:19:20.391Z</time></trkpt><trkpt lat="44.6852076" lon="7.9127012"><ele>186.0</ele><time>2026-04-26T08:19:21.388Z</time></trkpt><trkpt lat="44.6853568" lon="7.9125776"><ele>186.0</ele><time>2026-04-26T08:19:22.397Z</time></trkpt><trkpt lat="44.6854812" lon="7.9124495"><ele>186.0</ele><time>2026-04-26T08:19:23.388Z</time></trkpt><trkpt lat="44.6855668" lon="7.9122773"><ele>187.33333333333334</ele><time>2026-04-26T08:19:24.384Z</time></trkpt><trkpt lat="44.6856139" lon="7.91209"><ele>188.66666666666669</ele><time>2026-04-26T08:19:25.389Z</time></trkpt><trkpt lat="44.6856097" lon="7.9118648"><ele>190.0</ele><time>2026-04-26T08:19:26.399Z</time></trkpt><trkpt lat="44.6855507" lon="7.9116398"><ele>190.66666666666669</ele><time>2026-04-26T08:19:27.398Z</time></trkpt><trkpt lat="44.6854529" lon="7.9114002"><ele>191.33333333333334</ele><time>2026-04-26T08:19:28.389Z</time></trkpt><trkpt lat="44.6853478" lon="7.9111473"><ele>192.0</ele><time>2026-04-26T08:19:29.401Z</time></trkpt><trkpt lat="44.6852335" lon="7.9108659"><ele>193.5</ele><time>2026-04-26T08:19:30.403Z</time></trkpt><trkpt lat="44.6851137" lon="7.9105675"><ele>195.0</ele><time>2026-04-26T08:19:31.392Z</time></trkpt><trkpt lat="44.6849934" lon="7.9102725"><ele>194.5</ele><time>2026-04-26T08:19:32.394Z</time></trkpt><trkpt lat="44.6848757" lon="7.9099724"><ele>194.0</ele><time>2026-04-26T08:19:33.393Z</time></trkpt><trkpt lat="44.6847549" lon="7.9096764"><ele>194.0</ele><time>2026-04-26T08:19:34.403Z</time></trkpt><trkpt lat="44.6846268" lon="7.909377"><ele>194.0</ele><time>2026-04-26T08:19:35.398Z</time></trkpt><trkpt lat="44.6845043" lon="7.9090811"><ele>192.5</ele><time>2026-04-26T08:19:36.385Z</time></trkpt><trkpt lat="44.6843838" lon="7.9087761"><ele>191.0</ele><time>2026-04-26T08:19:37.406Z</time></trkpt><trkpt lat="44.6842561" lon="7.9084662"><ele>191.5</ele><time>2026-04-26T08:19:38.425Z</time></trkpt><trkpt lat="44.6841266" lon="7.90815"><ele>192.0</ele><time>2026-04-26T08:19:39.394Z</time></trkpt><trkpt lat="44.6839979" lon="7.907839"><ele>192.5</ele><time>2026-04-26T08:19:40.389Z</time></trkpt><trkpt lat="44.6838762" lon="7.9075288"><ele>193.0</ele><time>2026-04-26T08:19:41.403Z</time></trkpt><trkpt lat="44.6837601" lon="7.9072224"><ele>193.0</ele><time>2026-04-26T08:19:42.393Z</time></trkpt><trkpt lat="44.6836667" lon="7.9069227"><ele>193.0</ele><time>2026-04-26T08:19:43.399Z</time></trkpt><trkpt lat="44.6836036" lon="7.90661"><ele>192.5</ele><time>2026-04-26T08:19:44.424Z</time></trkpt><trkpt lat="44.6835709" lon="7.906277"><ele>192.0</ele><time>2026-04-26T08:19:45.392Z</time></trkpt><trkpt lat="44.6835822" lon="7.9059505"><ele>192.5</ele><time>2026-04-26T08:19:46.392Z</time></trkpt><trkpt lat="44.6836137" lon="7.9056176"><ele>193.0</ele><time>2026-04-26T08:19:47.404Z</time></trkpt><trkpt lat="44.6836437" lon="7.9052684"><ele>193.5</ele><time>2026-04-26T08:19:48.401Z</time></trkpt><trkpt lat="44.6836811" lon="7.9048933"><ele>194.0</ele><time>2026-04-26T08:19:49.397Z</time></trkpt><trkpt lat="44.6837062" lon="7.9045179"><ele>194.5</ele><time>2026-04-26T08:19:50.401Z</time></trkpt><trkpt lat="44.6837339" lon="7.9041331"><ele>195.0</ele><time>2026-04-26T08:19:51.395Z</time></trkpt><trkpt lat="44.6837619" lon="7.9037511"><ele>195.0</ele><time>2026-04-26T08:19:52.402Z</time></trkpt><trkpt lat="44.6837881" lon="7.9033822"><ele>195.0</ele><time>2026-04-26T08:19:53.386Z</time></trkpt><trkpt lat="44.6838124" lon="7.9030123"><ele>195.0</ele><time>2026-04-26T08:19:54.39Z</time></trkpt><trkpt lat="44.6838374" lon="7.9026402"><ele>195.0</ele><time>2026-04-26T08:19:55.421Z</time></trkpt><trkpt lat="44.6838612" lon="7.9022577"><ele>195.0</ele><time>2026-04-26T08:19:56.394Z</time></trkpt><trkpt lat="44.6838888" lon="7.9018893"><ele>195.0</ele><time>2026-04-26T08:19:57.407Z</time></trkpt><trkpt lat="44.6839182" lon="7.9015341"><ele>195.0</ele><time>2026-04-26T08:19:58.389Z</time></trkpt><trkpt lat="44.683948" lon="7.9011895"><ele>195.0</ele><time>2026-04-26T08:19:59.4Z</time></trkpt><trkpt lat="44.6839793" lon="7.9008688"><ele>195.0</ele><time>2026-04-26T08:20:00.401Z</time></trkpt><trkpt lat="44.684015" lon="7.9005593"><ele>195.0</ele><time>2026-04-26T08:20:01.396Z</time></trkpt><trkpt lat="44.6840484" lon="7.9002814"><ele>195.0</ele><time>2026-04-26T08:20:02.39Z</time></trkpt><trkpt lat="44.6840824" lon="7.9000334"><ele>195.33333333333331</ele><time>2026-04-26T08:20:03.391Z</time></trkpt><trkpt lat="44.6841211" lon="7.8998036"><ele>195.66666666666666</ele><time>2026-04-26T08:20:04.389Z</time></trkpt><trkpt lat="44.6841662" lon="7.8996015"><ele>196.0</ele><time>2026-04-26T08:20:05.388Z</time></trkpt><trkpt lat="44.6842167" lon="7.8994006"><ele>196.66666666666666</ele><time>2026-04-26T08:20:06.39Z</time></trkpt><trkpt lat="44.684265" lon="7.8992024"><ele>197.33333333333331</ele><time>2026-04-26T08:20:07.389Z</time></trkpt><trkpt lat="44.6843242" lon="7.8989924"><ele>198.0</ele><time>2026-04-26T08:20:08.392Z</time></trkpt><trkpt lat="44.6843901" lon="7.8987966"><ele>198.25</ele><time>2026-04-26T08:20:09.392Z</time></trkpt><trkpt lat="44.6844498" lon="7.8986061"><ele>198.5</ele><time>2026-04-26T08:20:10.389Z</time></trkpt><trkpt lat="44.6845118" lon="7.8984389"><ele>198.75</ele><time>2026-04-26T08:20:11.388Z</time></trkpt><trkpt lat="44.6845694" lon="7.898299"><ele>199.0</ele><time>2026-04-26T08:20:12.384Z</time></trkpt><trkpt lat="44.6846263" lon="7.8981732"><ele>199.0</ele><time>2026-04-26T08:20:13.387Z</time></trkpt><trkpt lat="44.6846851" lon="7.8980529"><ele>199.0</ele><time>2026-04-26T08:20:14.39Z</time></trkpt><trkpt lat="44.6847554" lon="7.8979301"><ele>199.0</ele><time>2026-04-26T08:20:15.404Z</time></trkpt><trkpt lat="44.6848185" lon="7.8978204"><ele>199.0</ele><time>2026-04-26T08:20:16.403Z</time></trkpt><trkpt lat="44.6848629" lon="7.8977436"><ele>199.0</ele><time>2026-04-26T08:20:17.39Z</time></trkpt><trkpt lat="44.6849117" lon="7.8976691"><ele>199.5</ele><time>2026-04-26T08:20:20.387Z</time></trkpt><trkpt lat="44.6849607" lon="7.8975727"><ele>200.0</ele><time>2026-04-26T08:20:27.404Z</time></trkpt><trkpt lat="44.6850235" lon="7.8974565"><ele>200.5</ele><time>2026-04-26T08:20:28.392Z</time></trkpt><trkpt lat="44.685112" lon="7.8973398"><ele>201.0</ele><time>2026-04-26T08:20:29.392Z</time></trkpt><trkpt lat="44.6852414" lon="7.8972187"><ele>201.66666666666669</ele><time>2026-04-26T08:20:30.391Z</time></trkpt><trkpt lat="44.6853984" lon="7.8970957"><ele>202.33333333333334</ele><time>2026-04-26T08:20:31.396Z</time></trkpt><trkpt lat="44.6855616" lon="7.8969566"><ele>203.0</ele><time>2026-04-26T08:20:32.391Z</time></trkpt><trkpt lat="44.6857311" lon="7.8968161"><ele>202.66666666666669</ele><time>2026-04-26T08:20:33.39Z</time></trkpt><trkpt lat="44.6859005" lon="7.8966753"><ele>202.33333333333331</ele><time>2026-04-26T08:20:34.387Z</time></trkpt><trkpt lat="44.6860616" lon="7.8965611"><ele>202.0</ele><time>2026-04-26T08:20:35.392Z</time></trkpt><trkpt lat="44.6862073" lon="7.8964502"><ele>202.0</ele><time>2026-04-26T08:20:36.391Z</time></trkpt><trkpt lat="44.686343" lon="7.8963604"><ele>202.0</ele><time>2026-04-26T08:20:37.397Z</time></trkpt><trkpt lat="44.6864722" lon="7.8962948"><ele>202.0</ele><time>2026-04-26T08:20:38.405Z</time></trkpt><trkpt lat="44.68659" lon="7.8962377"><ele>202.0</ele><time>2026-04-26T08:20:39.422Z</time></trkpt><trkpt lat="44.686704" lon="7.8962016"><ele>201.99999999999997</ele><time>2026-04-26T08:20:40.394Z</time></trkpt><trkpt lat="44.6868072" lon="7.8961809"><ele>202.0</ele><time>2026-04-26T08:20:41.394Z</time></trkpt><trkpt lat="44.6868962" lon="7.8961535"><ele>202.0</ele><time>2026-04-26T08:20:42.392Z</time></trkpt><trkpt lat="44.6869405" lon="7.8960716"><ele>202.0</ele><time>2026-04-26T08:20:43.399Z</time></trkpt><trkpt lat="44.6869415" lon="7.8959545"><ele>201.99999999999997</ele><time>2026-04-26T08:20:44.445Z</time></trkpt><trkpt lat="44.6869101" lon="7.8958697"><ele>202.0</ele><time>2026-04-26T08:20:45.391Z</time></trkpt><trkpt lat="44.6868314" lon="7.8957679"><ele>201.75</ele><time>2026-04-26T08:20:46.387Z</time></trkpt><trkpt lat="44.6867347" lon="7.8956421"><ele>201.5</ele><time>2026-04-26T08:20:47.406Z</time></trkpt><trkpt lat="44.6866479" lon="7.8954909"><ele>201.25</ele><time>2026-04-26T08:20:48.398Z</time></trkpt><trkpt lat="44.6865616" lon="7.8953314"><ele>201.0</ele><time>2026-04-26T08:20:49.381Z</time></trkpt><trkpt lat="44.6864888" lon="7.895174"><ele>201.0</ele><time>2026-04-26T08:20:50.403Z</time></trkpt><trkpt lat="44.6864221" lon="7.8950076"><ele>201.0</ele><time>2026-04-26T08:20:51.392Z</time></trkpt><trkpt lat="44.6863506" lon="7.8948375"><ele>201.0</ele><time>2026-04-26T08:20:52.39Z</time></trkpt><trkpt lat="44.6862862" lon="7.8946496"><ele>201.0</ele><time>2026-04-26T08:20:53.397Z</time></trkpt><trkpt lat="44.6862117" lon="7.8944343"><ele>201.0</ele><time>2026-04-26T08:20:54.386Z</time></trkpt><trkpt lat="44.6861176" lon="7.8942021"><ele>201.0</ele><time>2026-04-26T08:20:55.405Z</time></trkpt><trkpt lat="44.6860086" lon="7.8939551"><ele>201.0</ele><time>2026-04-26T08:20:56.396Z</time></trkpt><trkpt lat="44.6858953" lon="7.8937147"><ele>201.0</ele><time>2026-04-26T08:20:57.404Z</time></trkpt><trkpt lat="44.6857931" lon="7.8935197"><ele>201.0</ele><time>2026-04-26T08:20:58.389Z</time></trkpt><trkpt lat="44.6856972" lon="7.8933686"><ele>201.0</ele><time>2026-04-26T08:20:59.387Z</time></trkpt><trkpt lat="44.6856101" lon="7.893237"><ele>201.0</ele><time>2026-04-26T08:21:00.405Z</time></trkpt><trkpt lat="44.6855228" lon="7.8931361"><ele>201.25</ele><time>2026-04-26T08:21:01.403Z</time></trkpt><trkpt lat="44.6854294" lon="7.893049"><ele>201.5</ele><time>2026-04-26T08:21:02.4Z</time></trkpt><trkpt lat="44.6853221" lon="7.8929552"><ele>201.75</ele><time>2026-04-26T08:21:03.403Z</time></trkpt><trkpt lat="44.6852147" lon="7.8928704"><ele>202.0</ele><time>2026-04-26T08:21:04.394Z</time></trkpt><trkpt lat="44.6851061" lon="7.892792"><ele>202.0</ele><time>2026-04-26T08:21:05.404Z</time></trkpt><trkpt lat="44.6849964" lon="7.8927152"><ele>202.0</ele><time>2026-04-26T08:21:06.411Z</time></trkpt><trkpt lat="44.6848847" lon="7.8926437"><ele>202.0</ele><time>2026-04-26T08:21:07.391Z</time></trkpt><trkpt lat="44.6847676" lon="7.8925802"><ele>202.0</ele><time>2026-04-26T08:21:08.389Z</time></trkpt><trkpt lat="44.6846445" lon="7.8925298"><ele>202.25</ele><time>2026-04-26T08:21:09.39Z</time></trkpt><trkpt lat="44.6845155" lon="7.8924835"><ele>202.5</ele><time>2026-04-26T08:21:10.392Z</time></trkpt><trkpt lat="44.6843796" lon="7.8924368"><ele>202.75</ele><time>2026-04-26T08:21:11.399Z</time></trkpt><trkpt lat="44.6842437" lon="7.8923906"><ele>203.0</ele><time>2026-04-26T08:21:12.403Z</time></trkpt><trkpt lat="44.6841234" lon="7.8923402"><ele>202.5</ele><time>2026-04-26T08:21:13.385Z</time></trkpt><trkpt lat="44.684002" lon="7.8922941"><ele>202.0</ele><time>2026-04-26T08:21:14.396Z</time></trkpt><trkpt lat="44.683875" lon="7.892246"><ele>201.5</ele><time>2026-04-26T08:21:15.406Z</time></trkpt><trkpt lat="44.6837484" lon="7.8921952"><ele>201.0</ele><time>2026-04-26T08:21:16.392Z</time></trkpt><trkpt lat="44.683617" lon="7.8921497"><ele>201.0</ele><time>2026-04-26T08:21:17.394Z</time></trkpt><trkpt lat="44.6834878" lon="7.8921054"><ele>201.0</ele><time>2026-04-26T08:21:18.447Z</time></trkpt><trkpt lat="44.6833319" lon="7.8920497"><ele>201.0</ele><time>2026-04-26T08:21:19.387Z</time></trkpt><trkpt lat="44.6831594" lon="7.8919722"><ele>201.0</ele><time>2026-04-26T08:21:20.393Z</time></trkpt><trkpt lat="44.6829677" lon="7.8918863"><ele>201.0</ele><time>2026-04-26T08:21:21.4Z</time></trkpt><trkpt lat="44.6827698" lon="7.8918043"><ele>201.0</ele><time>2026-04-26T08:21:22.403Z</time></trkpt><trkpt lat="44.6825658" lon="7.891731"><ele>201.0</ele><time>2026-04-26T08:21:23.39Z</time></trkpt><trkpt lat="44.6823551" lon="7.891652"><ele>201.0</ele><time>2026-04-26T08:21:24.397Z</time></trkpt><trkpt lat="44.6821414" lon="7.891565"><ele>201.0</ele><time>2026-04-26T08:21:25.398Z</time></trkpt><trkpt lat="44.6819146" lon="7.8914769"><ele>201.0</ele><time>2026-04-26T08:21:26.416Z</time></trkpt><trkpt lat="44.6816892" lon="7.8913843"><ele>201.0</ele><time>2026-04-26T08:21:27.388Z</time></trkpt><trkpt lat="44.6814582" lon="7.891295"><ele>201.0</ele><time>2026-04-26T08:21:28.4Z</time></trkpt><trkpt lat="44.681236" lon="7.8912059"><ele>201.0</ele><time>2026-04-26T08:21:29.406Z</time></trkpt><trkpt lat="44.681022" lon="7.8911173"><ele>201.0</ele><time>2026-04-26T08:21:30.417Z</time></trkpt><trkpt lat="44.6808163" lon="7.891012"><ele>201.0</ele><time>2026-04-26T08:21:31.393Z</time></trkpt><trkpt lat="44.6806221" lon="7.8908619"><ele>201.0</ele><time>2026-04-26T08:21:32.387Z</time></trkpt><trkpt lat="44.6804479" lon="7.8906869"><ele>200.66666666666669</ele><time>2026-04-26T08:21:33.389Z</time></trkpt><trkpt lat="44.6802951" lon="7.8904742"><ele>200.33333333333334</ele><time>2026-04-26T08:21:34.396Z</time></trkpt><trkpt lat="44.6801685" lon="7.8902354"><ele>200.0</ele><time>2026-04-26T08:21:35.403Z</time></trkpt><trkpt lat="44.6800653" lon="7.8899678"><ele>202.0</ele><time>2026-04-26T08:21:36.388Z</time></trkpt><trkpt lat="44.6800079" lon="7.8896719"><ele>204.0</ele><time>2026-04-26T08:21:37.387Z</time></trkpt><trkpt lat="44.679975" lon="7.8893679"><ele>206.0</ele><time>2026-04-26T08:21:38.402Z</time></trkpt><trkpt lat="44.679948" lon="7.8890293"><ele>206.0</ele><time>2026-04-26T08:21:39.4Z</time></trkpt><trkpt lat="44.6799155" lon="7.8886949"><ele>206.0</ele><time>2026-04-26T08:21:40.406Z</time></trkpt><trkpt lat="44.6798776" lon="7.8883625"><ele>205.0</ele><time>2026-04-26T08:21:41.388Z</time></trkpt><trkpt lat="44.6798435" lon="7.8880496"><ele>204.0</ele><time>2026-04-26T08:21:42.383Z</time></trkpt><trkpt lat="44.6798116" lon="7.8877508"><ele>203.0</ele><time>2026-04-26T08:21:43.4Z</time></trkpt><trkpt lat="44.6797818" lon="7.8874656"><ele>203.0</ele><time>2026-04-26T08:21:44.389Z</time></trkpt><trkpt lat="44.6797496" lon="7.8871799"><ele>203.0</ele><time>2026-04-26T08:21:45.39Z</time></trkpt><trkpt lat="44.6797165" lon="7.8869076"><ele>203.0</ele><time>2026-04-26T08:21:46.388Z</time></trkpt><trkpt lat="44.679687" lon="7.8866414"><ele>203.0</ele><time>2026-04-26T08:21:47.391Z</time></trkpt><trkpt lat="44.679659" lon="7.8863617"><ele>203.0</ele><time>2026-04-26T08:21:48.389Z</time></trkpt><trkpt lat="44.6796308" lon="7.8860894"><ele>203.0</ele><time>2026-04-26T08:21:49.402Z</time></trkpt><trkpt lat="44.6796047" lon="7.8858264"><ele>203.0</ele><time>2026-04-26T08:21:50.389Z</time></trkpt><trkpt lat="44.6795813" lon="7.8855576"><ele>203.0</ele><time>2026-04-26T08:21:51.396Z</time></trkpt><trkpt lat="44.6795549" lon="7.8852829"><ele>203.0</ele><time>2026-04-26T08:21:52.392Z</time></trkpt><trkpt lat="44.6795189" lon="7.8849876"><ele>202.5</ele><time>2026-04-26T08:21:53.393Z</time></trkpt><trkpt lat="44.679481" lon="7.8846605"><ele>202.0</ele><time>2026-04-26T08:21:54.402Z</time></trkpt><trkpt lat="44.679451" lon="7.8843053"><ele>203.0</ele><time>2026-04-26T08:21:55.408Z</time></trkpt><trkpt lat="44.6794209" lon="7.8839471"><ele>204.0</ele><time>2026-04-26T08:21:56.402Z</time></trkpt><trkpt lat="44.6793898" lon="7.8835891"><ele>204.5</ele><time>2026-04-26T08:21:57.388Z</time></trkpt><trkpt lat="44.6793537" lon="7.8832375"><ele>205.0</ele><time>2026-04-26T08:21:58.398Z</time></trkpt><trkpt lat="44.6793227" lon="7.882892"><ele>205.5</ele><time>2026-04-26T08:21:59.391Z</time></trkpt><trkpt lat="44.6792869" lon="7.8825618"><ele>206.0</ele><time>2026-04-26T08:22:00.386Z</time></trkpt><trkpt lat="44.679257" lon="7.8822355"><ele>206.0</ele><time>2026-04-26T08:22:01.386Z</time></trkpt><trkpt lat="44.679229" lon="7.8819102"><ele>206.0</ele><time>2026-04-26T08:22:02.397Z</time></trkpt><trkpt lat="44.6791991" lon="7.8815836"><ele>206.5</ele><time>2026-04-26T08:22:03.402Z</time></trkpt><trkpt lat="44.6791685" lon="7.8812575"><ele>207.0</ele><time>2026-04-26T08:22:04.401Z</time></trkpt><trkpt lat="44.6791348" lon="7.8809309"><ele>208.0</ele><time>2026-04-26T08:22:05.404Z</time></trkpt><trkpt lat="44.6791015" lon="7.8806012"><ele>209.0</ele><time>2026-04-26T08:22:06.392Z</time></trkpt><trkpt lat="44.6790651" lon="7.8802712"><ele>208.0</ele><time>2026-04-26T08:22:07.415Z</time></trkpt><trkpt lat="44.6790249" lon="7.8799359"><ele>207.0</ele><time>2026-04-26T08:22:08.402Z</time></trkpt><trkpt lat="44.6789744" lon="7.8796092"><ele>207.0</ele><time>2026-04-26T08:22:09.405Z</time></trkpt><trkpt lat="44.678904" lon="7.8792851"><ele>207.0</ele><time>2026-04-26T08:22:10.404Z</time></trkpt><trkpt lat="44.6788092" lon="7.8789705"><ele>207.0</ele><time>2026-04-26T08:22:11.392Z</time></trkpt><trkpt lat="44.6786948" lon="7.8786638"><ele>207.0</ele><time>2026-04-26T08:22:12.408Z</time></trkpt><trkpt lat="44.6785758" lon="7.8783577"><ele>206.5</ele><time>2026-04-26T08:22:13.396Z</time></trkpt><trkpt lat="44.6784643" lon="7.8780383"><ele>206.0</ele><time>2026-04-26T08:22:14.409Z</time></trkpt><trkpt lat="44.6783507" lon="7.8777194"><ele>206.5</ele><time>2026-04-26T08:22:15.397Z</time></trkpt><trkpt lat="44.6782392" lon="7.8773965"><ele>207.0</ele><time>2026-04-26T08:22:16.398Z</time></trkpt><trkpt lat="44.6781241" lon="7.8770653"><ele>207.0</ele><time>2026-04-26T08:22:17.388Z</time></trkpt><trkpt lat="44.6780045" lon="7.8767381"><ele>207.0</ele><time>2026-04-26T08:22:18.389Z</time></trkpt><trkpt lat="44.6778958" lon="7.8764028"><ele>207.0</ele><time>2026-04-26T08:22:19.388Z</time></trkpt><trkpt lat="44.6777952" lon="7.876068"><ele>207.0</ele><time>2026-04-26T08:22:20.384Z</time></trkpt><trkpt lat="44.6777062" lon="7.8757091"><ele>208.5</ele><time>2026-04-26T08:22:21.385Z</time></trkpt><trkpt lat="44.6776233" lon="7.8753483"><ele>210.0</ele><time>2026-04-26T08:22:22.386Z</time></trkpt><trkpt lat="44.6775347" lon="7.8749937"><ele>210.0</ele><time>2026-04-26T08:22:23.391Z</time></trkpt><trkpt lat="44.677441" lon="7.8746302"><ele>210.0</ele><time>2026-04-26T08:22:24.385Z</time></trkpt><trkpt lat="44.6773498" lon="7.8742705"><ele>210.0</ele><time>2026-04-26T08:22:25.383Z</time></trkpt><trkpt lat="44.677264" lon="7.8739001"><ele>210.0</ele><time>2026-04-26T08:22:26.389Z</time></trkpt><trkpt lat="44.6771734" lon="7.8735273"><ele>210.0</ele><time>2026-04-26T08:22:27.441Z</time></trkpt><trkpt lat="44.6770843" lon="7.8731546"><ele>210.0</ele><time>2026-04-26T08:22:28.391Z</time></trkpt><trkpt lat="44.6769947" lon="7.8727783"><ele>209.5</ele><time>2026-04-26T08:22:29.39Z</time></trkpt><trkpt lat="44.6769047" lon="7.8724111"><ele>209.0</ele><time>2026-04-26T08:22:30.391Z</time></trkpt><trkpt lat="44.6768165" lon="7.8720395"><ele>210.0</ele><time>2026-04-26T08:22:31.391Z</time></trkpt><trkpt lat="44.6767304" lon="7.8716689"><ele>211.0</ele><time>2026-04-26T08:22:32.404Z</time></trkpt><trkpt lat="44.6766442" lon="7.8712989"><ele>211.0</ele><time>2026-04-26T08:22:33.397Z</time></trkpt><trkpt lat="44.6765562" lon="7.8709299"><ele>211.0</ele><time>2026-04-26T08:22:34.38Z</time></trkpt><trkpt lat="44.6764701" lon="7.8705608"><ele>211.0</ele><time>2026-04-26T08:22:35.408Z</time></trkpt><trkpt lat="44.6763834" lon="7.8701999"><ele>211.0</ele><time>2026-04-26T08:22:36.386Z</time></trkpt><trkpt lat="44.6762997" lon="7.8698389"><ele>211.0</ele><time>2026-04-26T08:22:37.392Z</time></trkpt><trkpt lat="44.6762122" lon="7.8694855"><ele>211.0</ele><time>2026-04-26T08:22:38.39Z</time></trkpt><trkpt lat="44.676125" lon="7.8691384"><ele>211.0</ele><time>2026-04-26T08:22:39.388Z</time></trkpt><trkpt lat="44.6760428" lon="7.8687885"><ele>211.0</ele><time>2026-04-26T08:22:40.384Z</time></trkpt><trkpt lat="44.675959" lon="7.8684453"><ele>210.5</ele><time>2026-04-26T08:22:41.389Z</time></trkpt><trkpt lat="44.6758789" lon="7.8680974"><ele>210.0</ele><time>2026-04-26T08:22:42.392Z</time></trkpt><trkpt lat="44.6758024" lon="7.8677505"><ele>210.5</ele><time>2026-04-26T08:22:43.39Z</time></trkpt><trkpt lat="44.6757237" lon="7.8673982"><ele>211.0</ele><time>2026-04-26T08:22:44.394Z</time></trkpt><trkpt lat="44.6756421" lon="7.8670459"><ele>212.0</ele><time>2026-04-26T08:22:45.395Z</time></trkpt><trkpt lat="44.6755586" lon="7.8666941"><ele>213.0</ele><time>2026-04-26T08:22:46.392Z</time></trkpt><trkpt lat="44.6754753" lon="7.8663487"><ele>213.0</ele><time>2026-04-26T08:22:47.384Z</time></trkpt><trkpt lat="44.6753872" lon="7.8660047"><ele>213.0</ele><time>2026-04-26T08:22:48.401Z</time></trkpt><trkpt lat="44.6752864" lon="7.8656656"><ele>213.5</ele><time>2026-04-26T08:22:49.392Z</time></trkpt><trkpt lat="44.6751777" lon="7.8653225"><ele>214.0</ele><time>2026-04-26T08:22:50.393Z</time></trkpt><trkpt lat="44.6750621" lon="7.8649941"><ele>214.0</ele><time>2026-04-26T08:22:51.387Z</time></trkpt><trkpt lat="44.6749311" lon="7.8646729"><ele>214.0</ele><time>2026-04-26T08:22:52.391Z</time></trkpt><trkpt lat="44.6747841" lon="7.8643667"><ele>213.5</ele><time>2026-04-26T08:22:53.389Z</time></trkpt><trkpt lat="44.6746274" lon="7.8640732"><ele>213.0</ele><time>2026-04-26T08:22:54.391Z</time></trkpt><trkpt lat="44.6744601" lon="7.8637962"><ele>214.5</ele><time>2026-04-26T08:22:55.393Z</time></trkpt><trkpt lat="44.6742929" lon="7.8635412"><ele>216.0</ele><time>2026-04-26T08:22:56.412Z</time></trkpt><trkpt lat="44.6741237" lon="7.8633111"><ele>216.0</ele><time>2026-04-26T08:22:57.384Z</time></trkpt><trkpt lat="44.673954" lon="7.8631028"><ele>216.0</ele><time>2026-04-26T08:22:58.387Z</time></trkpt><trkpt lat="44.6737956" lon="7.8629308"><ele>216.0</ele><time>2026-04-26T08:22:59.396Z</time></trkpt><trkpt lat="44.673655" lon="7.8627972"><ele>215.33333333333331</ele><time>2026-04-26T08:23:00.388Z</time></trkpt><trkpt lat="44.6735148" lon="7.8626787"><ele>214.66666666666666</ele><time>2026-04-26T08:23:01.385Z</time></trkpt><trkpt lat="44.6733805" lon="7.8625602"><ele>214.0</ele><time>2026-04-26T08:23:02.395Z</time></trkpt><trkpt lat="44.6732457" lon="7.8624541"><ele>214.0</ele><time>2026-04-26T08:23:03.379Z</time></trkpt><trkpt lat="44.6731104" lon="7.8623488"><ele>214.0</ele><time>2026-04-26T08:23:04.403Z</time></trkpt><trkpt lat="44.6729599" lon="7.8622569"><ele>214.0</ele><time>2026-04-26T08:23:05.398Z</time></trkpt><trkpt lat="44.6728066" lon="7.8621645"><ele>213.66666666666666</ele><time>2026-04-26T08:23:06.405Z</time></trkpt><trkpt lat="44.6726514" lon="7.8620683"><ele>213.33333333333331</ele><time>2026-04-26T08:23:07.396Z</time></trkpt><trkpt lat="44.6724861" lon="7.8619806"><ele>213.0</ele><time>2026-04-26T08:23:08.391Z</time></trkpt><trkpt lat="44.6723078" lon="7.8619031"><ele>213.0</ele><time>2026-04-26T08:23:09.399Z</time></trkpt><trkpt lat="44.6721143" lon="7.8618409"><ele>213.0</ele><time>2026-04-26T08:23:10.39Z</time></trkpt><trkpt lat="44.6719197" lon="7.8617777"><ele>213.0</ele><time>2026-04-26T08:23:11.393Z</time></trkpt><trkpt lat="44.6717135" lon="7.8617021"><ele>213.33333333333331</ele><time>2026-04-26T08:23:12.392Z</time></trkpt><trkpt lat="44.6715071" lon="7.8616291"><ele>213.66666666666666</ele><time>2026-04-26T08:23:13.397Z</time></trkpt><trkpt lat="44.6713044" lon="7.861568"><ele>214.0</ele><time>2026-04-26T08:23:14.384Z</time></trkpt><trkpt lat="44.6711142" lon="7.8615095"><ele>214.0</ele><time>2026-04-26T08:23:15.397Z</time></trkpt><trkpt lat="44.6709349" lon="7.8614579"><ele>214.0</ele><time>2026-04-26T08:23:16.398Z</time></trkpt><trkpt lat="44.6707652" lon="7.8614058"><ele>214.0</ele><time>2026-04-26T08:23:17.392Z</time></trkpt><trkpt lat="44.6706042" lon="7.8613569"><ele>214.0</ele><time>2026-04-26T08:23:18.403Z</time></trkpt><trkpt lat="44.6704467" lon="7.8613069"><ele>214.0</ele><time>2026-04-26T08:23:19.396Z</time></trkpt><trkpt lat="44.6702842" lon="7.8612583"><ele>214.0</ele><time>2026-04-26T08:23:20.384Z</time></trkpt><trkpt lat="44.6701116" lon="7.8611965"><ele>214.33333333333331</ele><time>2026-04-26T08:23:21.392Z</time></trkpt><trkpt lat="44.6699263" lon="7.8611226"><ele>214.66666666666669</ele><time>2026-04-26T08:23:22.389Z</time></trkpt><trkpt lat="44.669735" lon="7.8610349"><ele>215.0</ele><time>2026-04-26T08:23:23.403Z</time></trkpt><trkpt lat="44.6695458" lon="7.8609318"><ele>216.0</ele><time>2026-04-26T08:23:24.401Z</time></trkpt><trkpt lat="44.6693619" lon="7.8608071"><ele>217.0</ele><time>2026-04-26T08:23:25.425Z</time></trkpt><trkpt lat="44.6691888" lon="7.8606771"><ele>218.0</ele><time>2026-04-26T08:23:26.384Z</time></trkpt><trkpt lat="44.6690096" lon="7.8605246"><ele>218.0</ele><time>2026-04-26T08:23:27.384Z</time></trkpt><trkpt lat="44.6688299" lon="7.8603581"><ele>218.0</ele><time>2026-04-26T08:23:28.394Z</time></trkpt><trkpt lat="44.6686673" lon="7.8601781"><ele>218.0</ele><time>2026-04-26T08:23:29.389Z</time></trkpt><trkpt lat="44.6685096" lon="7.8599932"><ele>217.0</ele><time>2026-04-26T08:23:30.393Z</time></trkpt><trkpt lat="44.6683782" lon="7.8598016"><ele>216.0</ele><time>2026-04-26T08:23:31.386Z</time></trkpt><trkpt lat="44.6682443" lon="7.8595945"><ele>215.0</ele><time>2026-04-26T08:23:32.391Z</time></trkpt><trkpt lat="44.6681117" lon="7.8593702"><ele>215.33333333333334</ele><time>2026-04-26T08:23:33.387Z</time></trkpt><trkpt lat="44.6679842" lon="7.8591242"><ele>215.66666666666669</ele><time>2026-04-26T08:23:34.413Z</time></trkpt><trkpt lat="44.6678611" lon="7.8588589"><ele>216.0</ele><time>2026-04-26T08:23:35.395Z</time></trkpt><trkpt lat="44.667754" lon="7.8585832"><ele>216.0</ele><time>2026-04-26T08:23:36.402Z</time></trkpt><trkpt lat="44.6676604" lon="7.8583003"><ele>216.0</ele><time>2026-04-26T08:23:37.391Z</time></trkpt><trkpt lat="44.667567" lon="7.8580328"><ele>216.0</ele><time>2026-04-26T08:23:38.395Z</time></trkpt><trkpt lat="44.6674756" lon="7.8577751"><ele>216.66666666666669</ele><time>2026-04-26T08:23:39.385Z</time></trkpt><trkpt lat="44.667386" lon="7.8575171"><ele>217.33333333333334</ele><time>2026-04-26T08:23:40.383Z</time></trkpt><trkpt lat="44.6673029" lon="7.857277"><ele>218.0</ele><time>2026-04-26T08:23:41.393Z</time></trkpt><trkpt lat="44.6672233" lon="7.8570537"><ele>218.0</ele><time>2026-04-26T08:23:42.396Z</time></trkpt><trkpt lat="44.6671503" lon="7.8568417"><ele>218.0</ele><time>2026-04-26T08:23:43.397Z</time></trkpt><trkpt lat="44.6670847" lon="7.856638"><ele>218.0</ele><time>2026-04-26T08:23:44.389Z</time></trkpt><trkpt lat="44.6670209" lon="7.856449"><ele>217.75</ele><time>2026-04-26T08:23:45.387Z</time></trkpt><trkpt lat="44.6669626" lon="7.8562693"><ele>217.5</ele><time>2026-04-26T08:23:46.384Z</time></trkpt><trkpt lat="44.6669062" lon="7.8560988"><ele>217.25</ele><time>2026-04-26T08:23:47.387Z</time></trkpt><trkpt lat="44.6668528" lon="7.8559335"><ele>217.0</ele><time>2026-04-26T08:23:48.395Z</time></trkpt><trkpt lat="44.666804" lon="7.8557711"><ele>217.0</ele><time>2026-04-26T08:23:49.397Z</time></trkpt><trkpt lat="44.6667497" lon="7.8555985"><ele>217.0</ele><time>2026-04-26T08:23:50.399Z</time></trkpt><trkpt lat="44.6667003" lon="7.8554101"><ele>217.0</ele><time>2026-04-26T08:23:51.382Z</time></trkpt><trkpt lat="44.666657" lon="7.8552236"><ele>217.0</ele><time>2026-04-26T08:23:52.394Z</time></trkpt><trkpt lat="44.6666287" lon="7.8550535"><ele>217.0</ele><time>2026-04-26T08:23:53.398Z</time></trkpt><trkpt lat="44.6666091" lon="7.8548983"><ele>217.0</ele><time>2026-04-26T08:23:54.393Z</time></trkpt><trkpt lat="44.6666199" lon="7.8547601"><ele>217.0</ele><time>2026-04-26T08:23:55.399Z</time></trkpt><trkpt lat="44.6666424" lon="7.8546332"><ele>217.0</ele><time>2026-04-26T08:23:56.394Z</time></trkpt><trkpt lat="44.6666738" lon="7.8545281"><ele>217.0</ele><time>2026-04-26T08:23:57.393Z</time></trkpt><trkpt lat="44.6666883" lon="7.8544164"><ele>217.0</ele><time>2026-04-26T08:23:58.385Z</time></trkpt><trkpt lat="44.666646" lon="7.8543091"><ele>217.0</ele><time>2026-04-26T08:23:59.377Z</time></trkpt><trkpt lat="44.6665632" lon="7.8542489"><ele>217.0</ele><time>2026-04-26T08:24:00.389Z</time></trkpt><trkpt lat="44.6664663" lon="7.8542558"><ele>217.0</ele><time>2026-04-26T08:24:01.396Z</time></trkpt><trkpt lat="44.6663682" lon="7.8543215"><ele>217.0</ele><time>2026-04-26T08:24:02.382Z</time></trkpt><trkpt lat="44.6662591" lon="7.8544082"><ele>217.0</ele><time>2026-04-26T08:24:03.391Z</time></trkpt><trkpt lat="44.6661276" lon="7.8544789"><ele>217.0</ele><time>2026-04-26T08:24:04.409Z</time></trkpt><trkpt lat="44.6659661" lon="7.8545326"><ele>217.0</ele><time>2026-04-26T08:24:05.394Z</time></trkpt><trkpt lat="44.6658033" lon="7.8545573"><ele>217.66666666666666</ele><time>2026-04-26T08:24:06.392Z</time></trkpt><trkpt lat="44.6656329" lon="7.8545624"><ele>218.33333333333331</ele><time>2026-04-26T08:24:07.396Z</time></trkpt><trkpt lat="44.665441" lon="7.8545572"><ele>219.0</ele><time>2026-04-26T08:24:08.389Z</time></trkpt><trkpt lat="44.6652414" lon="7.8545417"><ele>219.0</ele><time>2026-04-26T08:24:09.389Z</time></trkpt><trkpt lat="44.6650266" lon="7.8545296"><ele>219.0</ele><time>2026-04-26T08:24:10.391Z</time></trkpt><trkpt lat="44.664818" lon="7.8545381"><ele>219.0</ele><time>2026-04-26T08:24:11.385Z</time></trkpt><trkpt lat="44.6646192" lon="7.8545397"><ele>219.33333333333331</ele><time>2026-04-26T08:24:12.4Z</time></trkpt><trkpt lat="44.6644349" lon="7.8545445"><ele>219.66666666666666</ele><time>2026-04-26T08:24:13.388Z</time></trkpt><trkpt lat="44.6642531" lon="7.8545427"><ele>220.0</ele><time>2026-04-26T08:24:14.394Z</time></trkpt><trkpt lat="44.6640734" lon="7.8545438"><ele>220.0</ele><time>2026-04-26T08:24:15.384Z</time></trkpt><trkpt lat="44.6638911" lon="7.854543"><ele>220.0</ele><time>2026-04-26T08:24:16.386Z</time></trkpt><trkpt lat="44.6637163" lon="7.8545425"><ele>220.0</ele><time>2026-04-26T08:24:17.387Z</time></trkpt><trkpt lat="44.6635525" lon="7.85454"><ele>219.0</ele><time>2026-04-26T08:24:18.391Z</time></trkpt><trkpt lat="44.663396" lon="7.8545333"><ele>218.0</ele><time>2026-04-26T08:24:19.4Z</time></trkpt><trkpt lat="44.663248" lon="7.8545313"><ele>217.0</ele><time>2026-04-26T08:24:20.396Z</time></trkpt><trkpt lat="44.6631029" lon="7.8545312"><ele>217.0</ele><time>2026-04-26T08:24:21.393Z</time></trkpt><trkpt lat="44.6629706" lon="7.8545299"><ele>217.0</ele><time>2026-04-26T08:24:22.377Z</time></trkpt><trkpt lat="44.662869" lon="7.8545315"><ele>217.0</ele><time>2026-04-26T08:24:23.391Z</time></trkpt><trkpt lat="44.6627825" lon="7.8545158"><ele>217.0</ele><time>2026-04-26T08:24:24.386Z</time></trkpt><trkpt lat="44.6627052" lon="7.854484"><ele>217.0</ele><time>2026-04-26T08:24:25.391Z</time></trkpt><trkpt lat="44.662637" lon="7.8544376"><ele>216.99999999999997</ele><time>2026-04-26T08:24:26.397Z</time></trkpt><trkpt lat="44.6625705" lon="7.8543614"><ele>217.0</ele><time>2026-04-26T08:24:27.391Z</time></trkpt><trkpt lat="44.6625059" lon="7.8542939"><ele>217.0</ele><time>2026-04-26T08:24:28.383Z</time></trkpt><trkpt lat="44.6624305" lon="7.8542504"><ele>217.0</ele><time>2026-04-26T08:24:29.402Z</time></trkpt><trkpt lat="44.6623586" lon="7.8542168"><ele>216.99999999999997</ele><time>2026-04-26T08:24:30.391Z</time></trkpt><trkpt lat="44.6622793" lon="7.8542018"><ele>217.0</ele><time>2026-04-26T08:24:31.391Z</time></trkpt><trkpt lat="44.6622152" lon="7.8542057"><ele>217.0</ele><time>2026-04-26T08:24:32.398Z</time></trkpt><trkpt lat="44.6621435" lon="7.8542718"><ele>217.0</ele><time>2026-04-26T08:24:33.397Z</time></trkpt><trkpt lat="44.662059" lon="7.8543663"><ele>217.0</ele><time>2026-04-26T08:24:34.383Z</time></trkpt><trkpt lat="44.6619505" lon="7.8544495"><ele>217.0</ele><time>2026-04-26T08:24:35.392Z</time></trkpt><trkpt lat="44.6618281" lon="7.8545092"><ele>217.0</ele><time>2026-04-26T08:24:36.404Z</time></trkpt><trkpt lat="44.6616768" lon="7.8545223"><ele>217.33333333333331</ele><time>2026-04-26T08:24:37.399Z</time></trkpt><trkpt lat="44.6615268" lon="7.8545458"><ele>217.66666666666669</ele><time>2026-04-26T08:24:38.388Z</time></trkpt><trkpt lat="44.6613716" lon="7.8545769"><ele>218.0</ele><time>2026-04-26T08:24:39.407Z</time></trkpt><trkpt lat="44.6612171" lon="7.8546202"><ele>214.66666666666669</ele><time>2026-04-26T08:24:40.395Z</time></trkpt><trkpt lat="44.6610612" lon="7.8546605"><ele>211.33333333333331</ele><time>2026-04-26T08:24:41.387Z</time></trkpt><trkpt lat="44.6608931" lon="7.8547166"><ele>208.0</ele><time>2026-04-26T08:24:42.388Z</time></trkpt><trkpt lat="44.6607222" lon="7.8547809"><ele>208.0</ele><time>2026-04-26T08:24:43.386Z</time></trkpt><trkpt lat="44.6605417" lon="7.8548608"><ele>208.0</ele><time>2026-04-26T08:24:44.381Z</time></trkpt><trkpt lat="44.6603465" lon="7.8549477"><ele>208.0</ele><time>2026-04-26T08:24:45.395Z</time></trkpt><trkpt lat="44.6601394" lon="7.8550275"><ele>208.5</ele><time>2026-04-26T08:24:46.388Z</time></trkpt><trkpt lat="44.6599168" lon="7.8551041"><ele>209.0</ele><time>2026-04-26T08:24:47.388Z</time></trkpt><trkpt lat="44.6596907" lon="7.8551837"><ele>207.0</ele><time>2026-04-26T08:24:48.395Z</time></trkpt><trkpt lat="44.6594628" lon="7.8552677"><ele>205.0</ele><time>2026-04-26T08:24:49.384Z</time></trkpt><trkpt lat="44.6592348" lon="7.8553534"><ele>204.0</ele><time>2026-04-26T08:24:50.383Z</time></trkpt><trkpt lat="44.6590004" lon="7.8554433"><ele>203.0</ele><time>2026-04-26T08:24:51.391Z</time></trkpt><trkpt lat="44.6587705" lon="7.8555339"><ele>206.5</ele><time>2026-04-26T08:24:52.388Z</time></trkpt><trkpt lat="44.6585498" lon="7.855616"><ele>210.0</ele><time>2026-04-26T08:24:53.39Z</time></trkpt><trkpt lat="44.6583335" lon="7.8556947"><ele>210.0</ele><time>2026-04-26T08:24:54.395Z</time></trkpt><trkpt lat="44.6581286" lon="7.8557735"><ele>210.0</ele><time>2026-04-26T08:24:55.399Z</time></trkpt><trkpt lat="44.6579331" lon="7.8558482"><ele>210.0</ele><time>2026-04-26T08:24:56.385Z</time></trkpt><trkpt lat="44.6577501" lon="7.8559185"><ele>210.66666666666669</ele><time>2026-04-26T08:24:57.385Z</time></trkpt><trkpt lat="44.6575817" lon="7.8559903"><ele>211.33333333333334</ele><time>2026-04-26T08:24:58.385Z</time></trkpt><trkpt lat="44.6574251" lon="7.8560667"><ele>212.0</ele><time>2026-04-26T08:24:59.396Z</time></trkpt><trkpt lat="44.6572929" lon="7.8561743"><ele>212.0</ele><time>2026-04-26T08:25:00.396Z</time></trkpt><trkpt lat="44.6571866" lon="7.8563291"><ele>212.0</ele><time>2026-04-26T08:25:01.391Z</time></trkpt><trkpt lat="44.6571007" lon="7.8565313"><ele>212.0</ele><time>2026-04-26T08:25:02.388Z</time></trkpt><trkpt lat="44.6570427" lon="7.856781"><ele>212.0</ele><time>2026-04-26T08:25:03.396Z</time></trkpt><trkpt lat="44.6570213" lon="7.8570507"><ele>212.0</ele><time>2026-04-26T08:25:04.384Z</time></trkpt><trkpt lat="44.6570106" lon="7.8573467"><ele>212.0</ele><time>2026-04-26T08:25:05.388Z</time></trkpt><trkpt lat="44.6569925" lon="7.8576524"><ele>215.0</ele><time>2026-04-26T08:25:06.386Z</time></trkpt><trkpt lat="44.6569525" lon="7.8579708"><ele>218.0</ele><time>2026-04-26T08:25:07.389Z</time></trkpt><trkpt lat="44.6569211" lon="7.8582852"><ele>218.66666666666669</ele><time>2026-04-26T08:25:08.384Z</time></trkpt><trkpt lat="44.6568947" lon="7.8586052"><ele>219.33333333333331</ele><time>2026-04-26T08:25:09.382Z</time></trkpt><trkpt lat="44.6568696" lon="7.8589126"><ele>220.0</ele><time>2026-04-26T08:25:10.382Z</time></trkpt><trkpt lat="44.6568478" lon="7.8592278"><ele>221.0</ele><time>2026-04-26T08:25:11.392Z</time></trkpt><trkpt lat="44.6568304" lon="7.8595549"><ele>222.0</ele><time>2026-04-26T08:25:12.381Z</time></trkpt><trkpt lat="44.6568159" lon="7.8599017"><ele>221.0</ele><time>2026-04-26T08:25:13.385Z</time></trkpt><trkpt lat="44.656799" lon="7.8602538"><ele>220.0</ele><time>2026-04-26T08:25:14.387Z</time></trkpt><trkpt lat="44.6567687" lon="7.8606186"><ele>218.5</ele><time>2026-04-26T08:25:15.392Z</time></trkpt><trkpt lat="44.656736" lon="7.8609712"><ele>217.0</ele><time>2026-04-26T08:25:16.382Z</time></trkpt><trkpt lat="44.6567077" lon="7.8613174"><ele>217.0</ele><time>2026-04-26T08:25:17.375Z</time></trkpt><trkpt lat="44.6566847" lon="7.8616688"><ele>217.0</ele><time>2026-04-26T08:25:18.384Z</time></trkpt><trkpt lat="44.6566594" lon="7.8620055"><ele>216.5</ele><time>2026-04-26T08:25:19.39Z</time></trkpt><trkpt lat="44.656632" lon="7.8623392"><ele>216.0</ele><time>2026-04-26T08:25:20.392Z</time></trkpt><trkpt lat="44.6566016" lon="7.8626659"><ele>214.0</ele><time>2026-04-26T08:25:21.389Z</time></trkpt><trkpt lat="44.6565516" lon="7.8630009"><ele>212.0</ele><time>2026-04-26T08:25:22.41Z</time></trkpt><trkpt lat="44.6564757" lon="7.8633166"><ele>210.0</ele><time>2026-04-26T08:25:23.384Z</time></trkpt><trkpt lat="44.656384" lon="7.8636335"><ele>208.0</ele><time>2026-04-26T08:25:24.384Z</time></trkpt><trkpt lat="44.6562619" lon="7.863938"><ele>208.0</ele><time>2026-04-26T08:25:25.393Z</time></trkpt><trkpt lat="44.6561234" lon="7.864235"><ele>208.0</ele><time>2026-04-26T08:25:26.395Z</time></trkpt><trkpt lat="44.6559737" lon="7.8645139"><ele>210.0</ele><time>2026-04-26T08:25:27.394Z</time></trkpt><trkpt lat="44.6558011" lon="7.8647673"><ele>212.0</ele><time>2026-04-26T08:25:28.392Z</time></trkpt><trkpt lat="44.6556152" lon="7.8650042"><ele>210.0</ele><time>2026-04-26T08:25:29.383Z</time></trkpt><trkpt lat="44.6554027" lon="7.8652193"><ele>208.0</ele><time>2026-04-26T08:25:30.392Z</time></trkpt><trkpt lat="44.655173" lon="7.865396"><ele>208.0</ele><time>2026-04-26T08:25:31.389Z</time></trkpt><trkpt lat="44.6549414" lon="7.8655635"><ele>208.0</ele><time>2026-04-26T08:25:32.379Z</time></trkpt><trkpt lat="44.6547003" lon="7.8656778"><ele>210.0</ele><time>2026-04-26T08:25:33.394Z</time></trkpt><trkpt lat="44.6544507" lon="7.8657604"><ele>212.0</ele><time>2026-04-26T08:25:34.395Z</time></trkpt><trkpt lat="44.6542019" lon="7.8658197"><ele>212.0</ele><time>2026-04-26T08:25:35.423Z</time></trkpt><trkpt lat="44.653942" lon="7.8658662"><ele>212.0</ele><time>2026-04-26T08:25:36.396Z</time></trkpt><trkpt lat="44.6536798" lon="7.8658994"><ele>211.5</ele><time>2026-04-26T08:25:37.38Z</time></trkpt><trkpt lat="44.6534152" lon="7.8659296"><ele>211.0</ele><time>2026-04-26T08:25:38.4Z</time></trkpt><trkpt lat="44.6531399" lon="7.8659698"><ele>211.0</ele><time>2026-04-26T08:25:39.394Z</time></trkpt><trkpt lat="44.6528675" lon="7.866"><ele>211.0</ele><time>2026-04-26T08:25:40.394Z</time></trkpt><trkpt lat="44.6525974" lon="7.8660286"><ele>211.5</ele><time>2026-04-26T08:25:41.385Z</time></trkpt><trkpt lat="44.6523429" lon="7.8660518"><ele>212.0</ele><time>2026-04-26T08:25:42.381Z</time></trkpt><trkpt lat="44.6521072" lon="7.8660704"><ele>212.33333333333334</ele><time>2026-04-26T08:25:43.386Z</time></trkpt><trkpt lat="44.6518736" lon="7.8660741"><ele>212.66666666666669</ele><time>2026-04-26T08:25:44.396Z</time></trkpt><trkpt lat="44.6516757" lon="7.8660358"><ele>213.0</ele><time>2026-04-26T08:25:45.387Z</time></trkpt><trkpt lat="44.6514961" lon="7.8659626"><ele>214.25</ele><time>2026-04-26T08:25:46.379Z</time></trkpt><trkpt lat="44.6513288" lon="7.8658851"><ele>215.5</ele><time>2026-04-26T08:25:47.387Z</time></trkpt><trkpt lat="44.6511983" lon="7.8658234"><ele>216.75</ele><time>2026-04-26T08:25:48.399Z</time></trkpt><trkpt lat="44.6510766" lon="7.8657493"><ele>218.0</ele><time>2026-04-26T08:25:49.384Z</time></trkpt><trkpt lat="44.6509732" lon="7.8657164"><ele>218.0</ele><time>2026-04-26T08:25:50.397Z</time></trkpt><trkpt lat="44.6508986" lon="7.8657665"><ele>218.0</ele><time>2026-04-26T08:25:51.393Z</time></trkpt><trkpt lat="44.6508175" lon="7.8658805"><ele>218.0</ele><time>2026-04-26T08:25:52.392Z</time></trkpt><trkpt lat="44.6507489" lon="7.8660643"><ele>218.0</ele><time>2026-04-26T08:25:53.381Z</time></trkpt><trkpt lat="44.6506981" lon="7.8662673"><ele>218.0</ele><time>2026-04-26T08:25:54.412Z</time></trkpt><trkpt lat="44.650659" lon="7.8664704"><ele>218.0</ele><time>2026-04-26T08:25:55.397Z</time></trkpt><trkpt lat="44.6506287" lon="7.8666953"><ele>218.0</ele><time>2026-04-26T08:25:56.389Z</time></trkpt><trkpt lat="44.6506301" lon="7.8668823"><ele>218.0</ele><time>2026-04-26T08:25:57.394Z</time></trkpt><trkpt lat="44.6506663" lon="7.8670585"><ele>217.33333333333334</ele><time>2026-04-26T08:25:58.393Z</time></trkpt><trkpt lat="44.650732" lon="7.8672309"><ele>216.66666666666669</ele><time>2026-04-26T08:25:59.402Z</time></trkpt><trkpt lat="44.6508168" lon="7.8674095"><ele>216.0</ele><time>2026-04-26T08:26:00.384Z</time></trkpt><trkpt lat="44.6509012" lon="7.8676126"><ele>216.0</ele><time>2026-04-26T08:26:01.395Z</time></trkpt><trkpt lat="44.6509766" lon="7.8678069"><ele>216.0</ele><time>2026-04-26T08:26:02.389Z</time></trkpt><trkpt lat="44.6510355" lon="7.8680074"><ele>216.0</ele><time>2026-04-26T08:26:03.384Z</time></trkpt><trkpt lat="44.6510691" lon="7.8682233"><ele>216.0</ele><time>2026-04-26T08:26:04.4Z</time></trkpt><trkpt lat="44.6510863" lon="7.8684471"><ele>216.0</ele><time>2026-04-26T08:26:05.39Z</time></trkpt><trkpt lat="44.6510998" lon="7.8686833"><ele>216.0</ele><time>2026-04-26T08:26:06.392Z</time></trkpt><trkpt lat="44.6511023" lon="7.8689097"><ele>216.0</ele><time>2026-04-26T08:26:07.39Z</time></trkpt><trkpt lat="44.6511086" lon="7.8691163"><ele>216.0</ele><time>2026-04-26T08:26:08.395Z</time></trkpt><trkpt lat="44.6510926" lon="7.8693054"><ele>216.0</ele><time>2026-04-26T08:26:09.402Z</time></trkpt><trkpt lat="44.6510561" lon="7.8694549"><ele>216.0</ele><time>2026-04-26T08:26:10.409Z</time></trkpt><trkpt lat="44.6509758" lon="7.8695838"><ele>215.75</ele><time>2026-04-26T08:26:11.393Z</time></trkpt><trkpt lat="44.6508864" lon="7.8697229"><ele>215.5</ele><time>2026-04-26T08:26:12.385Z</time></trkpt><trkpt lat="44.6507689" lon="7.8698638"><ele>215.25</ele><time>2026-04-26T08:26:13.403Z</time></trkpt><trkpt lat="44.6506319" lon="7.869967"><ele>215.0</ele><time>2026-04-26T08:26:14.405Z</time></trkpt><trkpt lat="44.65048" lon="7.8700104"><ele>215.0</ele><time>2026-04-26T08:26:15.405Z</time></trkpt><trkpt lat="44.6503086" lon="7.8700274"><ele>215.0</ele><time>2026-04-26T08:26:16.394Z</time></trkpt><trkpt lat="44.6501182" lon="7.8700271"><ele>215.0</ele><time>2026-04-26T08:26:17.395Z</time></trkpt><trkpt lat="44.6499286" lon="7.8700233"><ele>215.0</ele><time>2026-04-26T08:26:18.39Z</time></trkpt><trkpt lat="44.6497373" lon="7.8700325"><ele>215.0</ele><time>2026-04-26T08:26:19.392Z</time></trkpt><trkpt lat="44.6495433" lon="7.8700282"><ele>215.0</ele><time>2026-04-26T08:26:20.393Z</time></trkpt><trkpt lat="44.6493421" lon="7.8700117"><ele>215.0</ele><time>2026-04-26T08:26:21.389Z</time></trkpt><trkpt lat="44.6491302" lon="7.8699715"><ele>215.0</ele><time>2026-04-26T08:26:22.385Z</time></trkpt><trkpt lat="44.6489154" lon="7.8699073"><ele>215.0</ele><time>2026-04-26T08:26:23.396Z</time></trkpt><trkpt lat="44.6486947" lon="7.8698205"><ele>216.5</ele><time>2026-04-26T08:26:24.401Z</time></trkpt><trkpt lat="44.648474" lon="7.8697105"><ele>218.0</ele><time>2026-04-26T08:26:25.396Z</time></trkpt><trkpt lat="44.6482568" lon="7.8695701"><ele>218.0</ele><time>2026-04-26T08:26:26.393Z</time></trkpt><trkpt lat="44.6480549" lon="7.8694083"><ele>218.0</ele><time>2026-04-26T08:26:27.394Z</time></trkpt><trkpt lat="44.6478619" lon="7.8692208"><ele>216.66666666666669</ele><time>2026-04-26T08:26:28.399Z</time></trkpt><trkpt lat="44.6476828" lon="7.8690285"><ele>215.33333333333331</ele><time>2026-04-26T08:26:29.392Z</time></trkpt><trkpt lat="44.6475205" lon="7.8688211"><ele>214.0</ele><time>2026-04-26T08:26:30.384Z</time></trkpt><trkpt lat="44.6473691" lon="7.8686124"><ele>215.33333333333331</ele><time>2026-04-26T08:26:31.392Z</time></trkpt><trkpt lat="44.647233" lon="7.8684057"><ele>216.66666666666669</ele><time>2026-04-26T08:26:32.394Z</time></trkpt><trkpt lat="44.647103" lon="7.8682065"><ele>218.0</ele><time>2026-04-26T08:26:33.395Z</time></trkpt><trkpt lat="44.6469826" lon="7.8680055"><ele>217.0</ele><time>2026-04-26T08:26:34.405Z</time></trkpt><trkpt lat="44.6468686" lon="7.8678221"><ele>216.0</ele><time>2026-04-26T08:26:35.401Z</time></trkpt><trkpt lat="44.6467671" lon="7.8676418"><ele>215.0</ele><time>2026-04-26T08:26:36.391Z</time></trkpt><trkpt lat="44.646694" lon="7.8674992"><ele>215.0</ele><time>2026-04-26T08:26:37.413Z</time></trkpt><trkpt lat="44.6466234" lon="7.867371"><ele>215.0</ele><time>2026-04-26T08:26:38.394Z</time></trkpt><trkpt lat="44.6465459" lon="7.8672379"><ele>215.0</ele><time>2026-04-26T08:26:39.385Z</time></trkpt><trkpt lat="44.6464432" lon="7.8671057"><ele>215.0</ele><time>2026-04-26T08:26:40.396Z</time></trkpt><trkpt lat="44.6463291" lon="7.8669762"><ele>215.0</ele><time>2026-04-26T08:26:41.4Z</time></trkpt><trkpt lat="44.646222" lon="7.866834"><ele>215.0</ele><time>2026-04-26T08:26:42.394Z</time></trkpt><trkpt lat="44.6461117" lon="7.8666859"><ele>215.0</ele><time>2026-04-26T08:26:43.391Z</time></trkpt><trkpt lat="44.646004" lon="7.8665168"><ele>213.33333333333334</ele><time>2026-04-26T08:26:44.394Z</time></trkpt><trkpt lat="44.6458967" lon="7.8663576"><ele>211.66666666666669</ele><time>2026-04-26T08:26:45.393Z</time></trkpt><trkpt lat="44.6457885" lon="7.866196"><ele>210.0</ele><time>2026-04-26T08:26:46.388Z</time></trkpt><trkpt lat="44.6456895" lon="7.8660408"><ele>210.0</ele><time>2026-04-26T08:26:47.387Z</time></trkpt><trkpt lat="44.6455874" lon="7.8658918"><ele>210.0</ele><time>2026-04-26T08:26:48.383Z</time></trkpt><trkpt lat="44.645488" lon="7.8657531"><ele>210.0</ele><time>2026-04-26T08:26:49.39Z</time></trkpt><trkpt lat="44.6453895" lon="7.8656252"><ele>210.0</ele><time>2026-04-26T08:26:50.382Z</time></trkpt><trkpt lat="44.6452916" lon="7.8655075"><ele>210.0</ele><time>2026-04-26T08:26:51.395Z</time></trkpt><trkpt lat="44.6451884" lon="7.8654039"><ele>210.0</ele><time>2026-04-26T08:26:52.389Z</time></trkpt><trkpt lat="44.6450785" lon="7.8653004"><ele>210.0</ele><time>2026-04-26T08:26:53.396Z</time></trkpt><trkpt lat="44.6449619" lon="7.8652"><ele>210.0</ele><time>2026-04-26T08:26:54.38Z</time></trkpt><trkpt lat="44.6448387" lon="7.8651013"><ele>210.33333333333331</ele><time>2026-04-26T08:26:55.391Z</time></trkpt><trkpt lat="44.6446973" lon="7.8650088"><ele>210.66666666666666</ele><time>2026-04-26T08:26:56.389Z</time></trkpt><trkpt lat="44.644548" lon="7.8649214"><ele>211.0</ele><time>2026-04-26T08:26:57.388Z</time></trkpt><trkpt lat="44.6443926" lon="7.8648408"><ele>211.0</ele><time>2026-04-26T08:26:58.403Z</time></trkpt><trkpt lat="44.6442354" lon="7.8647689"><ele>211.0</ele><time>2026-04-26T08:26:59.399Z</time></trkpt><trkpt lat="44.644086" lon="7.8647002"><ele>211.0</ele><time>2026-04-26T08:27:00.393Z</time></trkpt><trkpt lat="44.6439429" lon="7.8646347"><ele>211.0</ele><time>2026-04-26T08:27:01.395Z</time></trkpt><trkpt lat="44.6437976" lon="7.8645772"><ele>211.0</ele><time>2026-04-26T08:27:02.39Z</time></trkpt><trkpt lat="44.6436606" lon="7.8645235"><ele>211.0</ele><time>2026-04-26T08:27:03.386Z</time></trkpt><trkpt lat="44.6435247" lon="7.8644677"><ele>211.0</ele><time>2026-04-26T08:27:04.392Z</time></trkpt><trkpt lat="44.643376" lon="7.8644101"><ele>209.33333333333331</ele><time>2026-04-26T08:27:05.391Z</time></trkpt><trkpt lat="44.6432235" lon="7.8643542"><ele>207.66666666666669</ele><time>2026-04-26T08:27:06.387Z</time></trkpt><trkpt lat="44.6430632" lon="7.8642874"><ele>206.0</ele><time>2026-04-26T08:27:07.397Z</time></trkpt><trkpt lat="44.6429039" lon="7.8642226"><ele>208.66666666666669</ele><time>2026-04-26T08:27:08.401Z</time></trkpt><trkpt lat="44.6427382" lon="7.8641569"><ele>211.33333333333331</ele><time>2026-04-26T08:27:09.379Z</time></trkpt><trkpt lat="44.6425775" lon="7.8640956"><ele>214.0</ele><time>2026-04-26T08:27:10.406Z</time></trkpt><trkpt lat="44.6424213" lon="7.8640276"><ele>214.0</ele><time>2026-04-26T08:27:11.387Z</time></trkpt><trkpt lat="44.6422633" lon="7.8639575"><ele>214.0</ele><time>2026-04-26T08:27:12.409Z</time></trkpt><trkpt lat="44.6421018" lon="7.8638945"><ele>214.0</ele><time>2026-04-26T08:27:13.383Z</time></trkpt><trkpt lat="44.6419399" lon="7.8638346"><ele>213.33333333333331</ele><time>2026-04-26T08:27:14.404Z</time></trkpt><trkpt lat="44.641771" lon="7.8637806"><ele>212.66666666666669</ele><time>2026-04-26T08:27:15.39Z</time></trkpt><trkpt lat="44.6415984" lon="7.8637436"><ele>212.0</ele><time>2026-04-26T08:27:16.388Z</time></trkpt><trkpt lat="44.6414149" lon="7.863718"><ele>212.0</ele><time>2026-04-26T08:27:17.397Z</time></trkpt><trkpt lat="44.6412284" lon="7.8636982"><ele>212.0</ele><time>2026-04-26T08:27:18.404Z</time></trkpt><trkpt lat="44.6410296" lon="7.8637109"><ele>212.0</ele><time>2026-04-26T08:27:19.387Z</time></trkpt><trkpt lat="44.6408385" lon="7.8637332"><ele>213.0</ele><time>2026-04-26T08:27:20.395Z</time></trkpt><trkpt lat="44.6406598" lon="7.8637746"><ele>214.0</ele><time>2026-04-26T08:27:21.4Z</time></trkpt><trkpt lat="44.6404863" lon="7.8638445"><ele>215.0</ele><time>2026-04-26T08:27:22.386Z</time></trkpt><trkpt lat="44.6403127" lon="7.8639281"><ele>214.0</ele><time>2026-04-26T08:27:23.391Z</time></trkpt><trkpt lat="44.6401376" lon="7.8640191"><ele>213.0</ele><time>2026-04-26T08:27:24.383Z</time></trkpt><trkpt lat="44.6399634" lon="7.8641396"><ele>212.0</ele><time>2026-04-26T08:27:25.381Z</time></trkpt><trkpt lat="44.6397934" lon="7.8642841"><ele>212.0</ele><time>2026-04-26T08:27:26.389Z</time></trkpt><trkpt lat="44.6396168" lon="7.8644593"><ele>212.0</ele><time>2026-04-26T08:27:27.391Z</time></trkpt><trkpt lat="44.6394397" lon="7.8646625"><ele>212.0</ele><time>2026-04-26T08:27:28.385Z</time></trkpt><trkpt lat="44.6392615" lon="7.8648822"><ele>218.0</ele><time>2026-04-26T08:27:29.394Z</time></trkpt><trkpt lat="44.6390885" lon="7.8651263"><ele>224.0</ele><time>2026-04-26T08:27:30.399Z</time></trkpt><trkpt lat="44.6389141" lon="7.8653809"><ele>224.0</ele><time>2026-04-26T08:27:31.383Z</time></trkpt><trkpt lat="44.6387259" lon="7.8656381"><ele>224.0</ele><time>2026-04-26T08:27:32.397Z</time></trkpt><trkpt lat="44.6385274" lon="7.8658962"><ele>225.0</ele><time>2026-04-26T08:27:33.395Z</time></trkpt><trkpt lat="44.6383235" lon="7.8661439"><ele>226.0</ele><time>2026-04-26T08:27:34.402Z</time></trkpt><trkpt lat="44.6381197" lon="7.8663914"><ele>226.0</ele><time>2026-04-26T08:27:35.385Z</time></trkpt><trkpt lat="44.6379148" lon="7.8666369"><ele>226.0</ele><time>2026-04-26T08:27:36.388Z</time></trkpt><trkpt lat="44.637721" lon="7.866876"><ele>225.5</ele><time>2026-04-26T08:27:37.394Z</time></trkpt><trkpt lat="44.6375352" lon="7.867114"><ele>225.0</ele><time>2026-04-26T08:27:38.387Z</time></trkpt><trkpt lat="44.6373577" lon="7.8673487"><ele>225.0</ele><time>2026-04-26T08:27:39.382Z</time></trkpt><trkpt lat="44.6371804" lon="7.8675894"><ele>225.0</ele><time>2026-04-26T08:27:40.389Z</time></trkpt><trkpt lat="44.6370178" lon="7.8678105"><ele>224.66666666666669</ele><time>2026-04-26T08:27:41.386Z</time></trkpt><trkpt lat="44.6368619" lon="7.8680156"><ele>224.33333333333334</ele><time>2026-04-26T08:27:42.386Z</time></trkpt><trkpt lat="44.6367114" lon="7.868208"><ele>224.0</ele><time>2026-04-26T08:27:43.401Z</time></trkpt><trkpt lat="44.636573" lon="7.8683989"><ele>224.33333333333334</ele><time>2026-04-26T08:27:44.39Z</time></trkpt><trkpt lat="44.6364391" lon="7.8685722"><ele>224.66666666666669</ele><time>2026-04-26T08:27:45.387Z</time></trkpt><trkpt lat="44.6363129" lon="7.8687394"><ele>225.0</ele><time>2026-04-26T08:27:46.379Z</time></trkpt><trkpt lat="44.6361961" lon="7.8688965"><ele>225.0</ele><time>2026-04-26T08:27:47.379Z</time></trkpt><trkpt lat="44.63608" lon="7.8690399"><ele>225.0</ele><time>2026-04-26T08:27:48.391Z</time></trkpt><trkpt lat="44.6359719" lon="7.8691715"><ele>225.0</ele><time>2026-04-26T08:27:49.379Z</time></trkpt><trkpt lat="44.635862" lon="7.8692782"><ele>225.0</ele><time>2026-04-26T08:27:50.379Z</time></trkpt><trkpt lat="44.6357461" lon="7.869346"><ele>225.0</ele><time>2026-04-26T08:27:51.387Z</time></trkpt><trkpt lat="44.635634" lon="7.8694096"><ele>225.0</ele><time>2026-04-26T08:27:52.387Z</time></trkpt><trkpt lat="44.6355527" lon="7.8694964"><ele>225.0</ele><time>2026-04-26T08:27:53.387Z</time></trkpt><trkpt lat="44.6354943" lon="7.869631"><ele>225.0</ele><time>2026-04-26T08:27:54.395Z</time></trkpt><trkpt lat="44.6354364" lon="7.8697949"><ele>225.0</ele><time>2026-04-26T08:27:55.395Z</time></trkpt><trkpt lat="44.6353279" lon="7.8699783"><ele>225.0</ele><time>2026-04-26T08:27:56.38Z</time></trkpt><trkpt lat="44.6351972" lon="7.8701534"><ele>225.0</ele><time>2026-04-26T08:27:57.388Z</time></trkpt><trkpt lat="44.6350537" lon="7.8703354"><ele>224.66666666666669</ele><time>2026-04-26T08:27:58.388Z</time></trkpt><trkpt lat="44.6349003" lon="7.8705408"><ele>224.33333333333334</ele><time>2026-04-26T08:27:59.387Z</time></trkpt><trkpt lat="44.6347369" lon="7.8707568"><ele>224.0</ele><time>2026-04-26T08:28:00.398Z</time></trkpt><trkpt lat="44.634567" lon="7.8709874"><ele>222.0</ele><time>2026-04-26T08:28:01.394Z</time></trkpt><trkpt lat="44.6344" lon="7.8712091"><ele>220.0</ele><time>2026-04-26T08:28:02.389Z</time></trkpt><trkpt lat="44.6342271" lon="7.8714475"><ele>220.0</ele><time>2026-04-26T08:28:03.38Z</time></trkpt><trkpt lat="44.6340445" lon="7.8716922"><ele>220.0</ele><time>2026-04-26T08:28:04.394Z</time></trkpt><trkpt lat="44.6338586" lon="7.8719324"><ele>217.5</ele><time>2026-04-26T08:28:05.387Z</time></trkpt><trkpt lat="44.6336708" lon="7.8721817"><ele>215.0</ele><time>2026-04-26T08:28:06.389Z</time></trkpt><trkpt lat="44.6334813" lon="7.8724368"><ele>213.0</ele><time>2026-04-26T08:28:07.391Z</time></trkpt><trkpt lat="44.6332911" lon="7.8726907"><ele>211.0</ele><time>2026-04-26T08:28:08.387Z</time></trkpt><trkpt lat="44.6330925" lon="7.8729375"><ele>211.0</ele><time>2026-04-26T08:28:09.382Z</time></trkpt><trkpt lat="44.6328931" lon="7.8731953"><ele>211.0</ele><time>2026-04-26T08:28:10.383Z</time></trkpt><trkpt lat="44.6326945" lon="7.8734488"><ele>210.5</ele><time>2026-04-26T08:28:11.393Z</time></trkpt><trkpt lat="44.6324892" lon="7.8737046"><ele>210.0</ele><time>2026-04-26T08:28:12.383Z</time></trkpt><trkpt lat="44.6322893" lon="7.8739609"><ele>210.0</ele><time>2026-04-26T08:28:13.389Z</time></trkpt><trkpt lat="44.6320906" lon="7.8742149"><ele>210.0</ele><time>2026-04-26T08:28:14.383Z</time></trkpt><trkpt lat="44.6318952" lon="7.8744669"><ele>210.0</ele><time>2026-04-26T08:28:15.388Z</time></trkpt><trkpt lat="44.6316982" lon="7.87472"><ele>210.0</ele><time>2026-04-26T08:28:16.387Z</time></trkpt><trkpt lat="44.6315022" lon="7.8749779"><ele>210.0</ele><time>2026-04-26T08:28:17.385Z</time></trkpt><trkpt lat="44.6312983" lon="7.8752214"><ele>210.0</ele><time>2026-04-26T08:28:18.387Z</time></trkpt><trkpt lat="44.6310877" lon="7.8754418"><ele>210.5</ele><time>2026-04-26T08:28:19.389Z</time></trkpt><trkpt lat="44.630874" lon="7.8756368"><ele>211.0</ele><time>2026-04-26T08:28:20.393Z</time></trkpt><trkpt lat="44.6306524" lon="7.8758181"><ele>211.5</ele><time>2026-04-26T08:28:21.389Z</time></trkpt><trkpt lat="44.6304221" lon="7.8760009"><ele>212.0</ele><time>2026-04-26T08:28:22.383Z</time></trkpt><trkpt lat="44.6301945" lon="7.8761867"><ele>212.0</ele><time>2026-04-26T08:28:23.381Z</time></trkpt><trkpt lat="44.6299652" lon="7.8763722"><ele>212.0</ele><time>2026-04-26T08:28:24.389Z</time></trkpt><trkpt lat="44.6297325" lon="7.8765616"><ele>212.0</ele><time>2026-04-26T08:28:25.392Z</time></trkpt><trkpt lat="44.6294967" lon="7.8767579"><ele>212.0</ele><time>2026-04-26T08:28:26.386Z</time></trkpt><trkpt lat="44.629258" lon="7.8769523"><ele>211.5</ele><time>2026-04-26T08:28:27.391Z</time></trkpt><trkpt lat="44.6290149" lon="7.8771509"><ele>211.0</ele><time>2026-04-26T08:28:28.392Z</time></trkpt><trkpt lat="44.6287674" lon="7.8773486"><ele>211.0</ele><time>2026-04-26T08:28:29.398Z</time></trkpt><trkpt lat="44.6285146" lon="7.8775527"><ele>211.0</ele><time>2026-04-26T08:28:30.378Z</time></trkpt><trkpt lat="44.6282571" lon="7.8777563"><ele>210.0</ele><time>2026-04-26T08:28:31.388Z</time></trkpt><trkpt lat="44.6279989" lon="7.877965"><ele>209.0</ele><time>2026-04-26T08:28:32.386Z</time></trkpt><trkpt lat="44.627739" lon="7.8781746"><ele>208.5</ele><time>2026-04-26T08:28:33.395Z</time></trkpt><trkpt lat="44.6274779" lon="7.8783905"><ele>208.0</ele><time>2026-04-26T08:28:34.38Z</time></trkpt><trkpt lat="44.6272169" lon="7.8786046"><ele>203.0</ele><time>2026-04-26T08:28:35.392Z</time></trkpt><trkpt lat="44.6269574" lon="7.8788251"><ele>198.0</ele><time>2026-04-26T08:28:36.389Z</time></trkpt><trkpt lat="44.626697" lon="7.879042"><ele>198.0</ele><time>2026-04-26T08:28:37.394Z</time></trkpt><trkpt lat="44.6264331" lon="7.879252"><ele>198.0</ele><time>2026-04-26T08:28:38.39Z</time></trkpt><trkpt lat="44.6261713" lon="7.87946"><ele>199.0</ele><time>2026-04-26T08:28:39.386Z</time></trkpt><trkpt lat="44.6259106" lon="7.879668"><ele>200.0</ele><time>2026-04-26T08:28:40.383Z</time></trkpt><trkpt lat="44.6256561" lon="7.8798652"><ele>200.0</ele><time>2026-04-26T08:28:41.393Z</time></trkpt><trkpt lat="44.6254094" lon="7.8800556"><ele>200.0</ele><time>2026-04-26T08:28:42.397Z</time></trkpt><trkpt lat="44.6251684" lon="7.880235"><ele>202.5</ele><time>2026-04-26T08:28:43.394Z</time></trkpt><trkpt lat="44.6249149" lon="7.8803772"><ele>205.0</ele><time>2026-04-26T08:28:44.382Z</time></trkpt><trkpt lat="44.6246462" lon="7.8804723"><ele>207.0</ele><time>2026-04-26T08:28:45.394Z</time></trkpt><trkpt lat="44.6243636" lon="7.8805359"><ele>209.0</ele><time>2026-04-26T08:28:46.399Z</time></trkpt><trkpt lat="44.6240723" lon="7.8805406"><ele>209.0</ele><time>2026-04-26T08:28:47.389Z</time></trkpt><trkpt lat="44.6238006" lon="7.880519"><ele>209.0</ele><time>2026-04-26T08:28:48.376Z</time></trkpt><trkpt lat="44.6235216" lon="7.8804733"><ele>210.0</ele><time>2026-04-26T08:28:49.394Z</time></trkpt><trkpt lat="44.6232489" lon="7.8804332"><ele>211.0</ele><time>2026-04-26T08:28:50.387Z</time></trkpt><trkpt lat="44.6229656" lon="7.8803882"><ele>209.0</ele><time>2026-04-26T08:28:51.379Z</time></trkpt><trkpt lat="44.6226845" lon="7.8803437"><ele>207.0</ele><time>2026-04-26T08:28:52.397Z</time></trkpt><trkpt lat="44.6223995" lon="7.8803021"><ele>207.0</ele><time>2026-04-26T08:28:53.395Z</time></trkpt><trkpt lat="44.6221193" lon="7.8802605"><ele>207.0</ele><time>2026-04-26T08:28:54.386Z</time></trkpt><trkpt lat="44.6218325" lon="7.8802179"><ele>206.5</ele><time>2026-04-26T08:28:55.398Z</time></trkpt><trkpt lat="44.6215401" lon="7.8801726"><ele>206.0</ele><time>2026-04-26T08:28:56.407Z</time></trkpt><trkpt lat="44.6212468" lon="7.8801318"><ele>201.5</ele><time>2026-04-26T08:28:57.387Z</time></trkpt><trkpt lat="44.6209477" lon="7.8800854"><ele>197.0</ele><time>2026-04-26T08:28:58.396Z</time></trkpt><trkpt lat="44.6206426" lon="7.8800376"><ele>197.0</ele><time>2026-04-26T08:28:59.391Z</time></trkpt><trkpt lat="44.6203464" lon="7.8800019"><ele>197.0</ele><time>2026-04-26T08:29:00.393Z</time></trkpt><trkpt lat="44.6200554" lon="7.8799603"><ele>200.5</ele><time>2026-04-26T08:29:01.397Z</time></trkpt><trkpt lat="44.6197766" lon="7.8799354"><ele>204.0</ele><time>2026-04-26T08:29:02.409Z</time></trkpt><trkpt lat="44.6195087" lon="7.8799278"><ele>204.0</ele><time>2026-04-26T08:29:03.397Z</time></trkpt><trkpt lat="44.6192401" lon="7.8799438"><ele>204.0</ele><time>2026-04-26T08:29:04.404Z</time></trkpt><trkpt lat="44.6189745" lon="7.879997"><ele>204.0</ele><time>2026-04-26T08:29:05.393Z</time></trkpt><trkpt lat="44.6187109" lon="7.8800746"><ele>204.0</ele><time>2026-04-26T08:29:06.423Z</time></trkpt><trkpt lat="44.6184591" lon="7.8801863"><ele>204.0</ele><time>2026-04-26T08:29:07.403Z</time></trkpt><trkpt lat="44.6182168" lon="7.8803113"><ele>204.0</ele><time>2026-04-26T08:29:08.397Z</time></trkpt><trkpt lat="44.6179856" lon="7.8804475"><ele>203.5</ele><time>2026-04-26T08:29:09.391Z</time></trkpt><trkpt lat="44.6177493" lon="7.8805843"><ele>203.0</ele><time>2026-04-26T08:29:10.393Z</time></trkpt><trkpt lat="44.6175076" lon="7.8807161"><ele>203.0</ele><time>2026-04-26T08:29:11.39Z</time></trkpt><trkpt lat="44.6172769" lon="7.8808384"><ele>203.0</ele><time>2026-04-26T08:29:12.398Z</time></trkpt><trkpt lat="44.6170616" lon="7.8809581"><ele>204.0</ele><time>2026-04-26T08:29:13.391Z</time></trkpt><trkpt lat="44.6168547" lon="7.8810729"><ele>205.0</ele><time>2026-04-26T08:29:14.403Z</time></trkpt><trkpt lat="44.6166613" lon="7.8811809"><ele>206.0</ele><time>2026-04-26T08:29:15.389Z</time></trkpt><trkpt lat="44.6164736" lon="7.881303"><ele>206.0</ele><time>2026-04-26T08:29:16.39Z</time></trkpt><trkpt lat="44.6162612" lon="7.881429"><ele>206.0</ele><time>2026-04-26T08:29:17.383Z</time></trkpt><trkpt lat="44.6160303" lon="7.881561"><ele>205.5</ele><time>2026-04-26T08:29:18.398Z</time></trkpt><trkpt lat="44.6157974" lon="7.8816873"><ele>205.0</ele><time>2026-04-26T08:29:19.384Z</time></trkpt><trkpt lat="44.6155566" lon="7.8818055"><ele>202.5</ele><time>2026-04-26T08:29:20.391Z</time></trkpt><trkpt lat="44.6153011" lon="7.8819333"><ele>200.0</ele><time>2026-04-26T08:29:21.383Z</time></trkpt><trkpt lat="44.6150352" lon="7.8820741"><ele>200.0</ele><time>2026-04-26T08:29:22.389Z</time></trkpt><trkpt lat="44.6147416" lon="7.8822227"><ele>200.0</ele><time>2026-04-26T08:29:23.386Z</time></trkpt><trkpt lat="44.6144226" lon="7.882398"><ele>201.0</ele><time>2026-04-26T08:29:24.402Z</time></trkpt><trkpt lat="44.6141052" lon="7.8825646"><ele>202.0</ele><time>2026-04-26T08:29:25.393Z</time></trkpt><trkpt lat="44.6138021" lon="7.8827191"><ele>203.5</ele><time>2026-04-26T08:29:26.392Z</time></trkpt><trkpt lat="44.6135242" lon="7.8828551"><ele>205.0</ele><time>2026-04-26T08:29:27.389Z</time></trkpt><trkpt lat="44.6132478" lon="7.8829975"><ele>205.0</ele><time>2026-04-26T08:29:28.381Z</time></trkpt><trkpt lat="44.6129768" lon="7.8831512"><ele>205.0</ele><time>2026-04-26T08:29:29.383Z</time></trkpt><trkpt lat="44.6127061" lon="7.883294"><ele>205.0</ele><time>2026-04-26T08:29:30.382Z</time></trkpt><trkpt lat="44.6124418" lon="7.8834324"><ele>205.0</ele><time>2026-04-26T08:29:31.392Z</time></trkpt><trkpt lat="44.6121765" lon="7.8835719"><ele>204.5</ele><time>2026-04-26T08:29:32.385Z</time></trkpt><trkpt lat="44.6119101" lon="7.8837169"><ele>204.0</ele><time>2026-04-26T08:29:33.384Z</time></trkpt><trkpt lat="44.6116358" lon="7.8838607"><ele>204.0</ele><time>2026-04-26T08:29:34.384Z</time></trkpt><trkpt lat="44.6113558" lon="7.8840061"><ele>204.0</ele><time>2026-04-26T08:29:35.395Z</time></trkpt><trkpt lat="44.6110776" lon="7.8841594"><ele>206.5</ele><time>2026-04-26T08:29:36.391Z</time></trkpt><trkpt lat="44.6107999" lon="7.8843065"><ele>209.0</ele><time>2026-04-26T08:29:37.392Z</time></trkpt><trkpt lat="44.6105262" lon="7.8844533"><ele>212.0</ele><time>2026-04-26T08:29:38.393Z</time></trkpt><trkpt lat="44.6102568" lon="7.8846023"><ele>215.0</ele><time>2026-04-26T08:29:39.396Z</time></trkpt><trkpt lat="44.6099877" lon="7.8847454"><ele>215.0</ele><time>2026-04-26T08:29:40.408Z</time></trkpt><trkpt lat="44.6097232" lon="7.8848939"><ele>215.0</ele><time>2026-04-26T08:29:41.391Z</time></trkpt><trkpt lat="44.6094575" lon="7.88504"><ele>217.5</ele><time>2026-04-26T08:29:42.392Z</time></trkpt><trkpt lat="44.609193" lon="7.8851856"><ele>220.0</ele><time>2026-04-26T08:29:43.386Z</time></trkpt><trkpt lat="44.608932" lon="7.8853278"><ele>220.0</ele><time>2026-04-26T08:29:44.386Z</time></trkpt><trkpt lat="44.6086739" lon="7.8854669"><ele>220.0</ele><time>2026-04-26T08:29:45.393Z</time></trkpt><trkpt lat="44.6084144" lon="7.8856043"><ele>220.5</ele><time>2026-04-26T08:29:46.396Z</time></trkpt><trkpt lat="44.6081614" lon="7.8857383"><ele>221.0</ele><time>2026-04-26T08:29:47.389Z</time></trkpt><trkpt lat="44.6079066" lon="7.8858721"><ele>221.5</ele><time>2026-04-26T08:29:48.397Z</time></trkpt><trkpt lat="44.607654" lon="7.8860114"><ele>222.0</ele><time>2026-04-26T08:29:49.398Z</time></trkpt><trkpt lat="44.6073974" lon="7.8861475"><ele>222.0</ele><time>2026-04-26T08:29:50.412Z</time></trkpt><trkpt lat="44.6071412" lon="7.8862847"><ele>222.0</ele><time>2026-04-26T08:29:51.39Z</time></trkpt><trkpt lat="44.6068848" lon="7.8864245"><ele>223.0</ele><time>2026-04-26T08:29:52.399Z</time></trkpt><trkpt lat="44.6066341" lon="7.8865619"><ele>224.0</ele><time>2026-04-26T08:29:53.394Z</time></trkpt><trkpt lat="44.6063904" lon="7.8867093"><ele>226.0</ele><time>2026-04-26T08:29:54.383Z</time></trkpt><trkpt lat="44.6061421" lon="7.886881"><ele>228.0</ele><time>2026-04-26T08:29:55.395Z</time></trkpt><trkpt lat="44.6058985" lon="7.8870643"><ele>228.0</ele><time>2026-04-26T08:29:56.396Z</time></trkpt><trkpt lat="44.6056603" lon="7.887255"><ele>228.0</ele><time>2026-04-26T08:29:57.404Z</time></trkpt><trkpt lat="44.6054238" lon="7.8874641"><ele>229.5</ele><time>2026-04-26T08:29:58.405Z</time></trkpt><trkpt lat="44.6051818" lon="7.8876746"><ele>231.0</ele><time>2026-04-26T08:29:59.398Z</time></trkpt><trkpt lat="44.6049458" lon="7.8878928"><ele>231.0</ele><time>2026-04-26T08:30:00.409Z</time></trkpt><trkpt lat="44.6047101" lon="7.8881079"><ele>231.0</ele><time>2026-04-26T08:30:01.388Z</time></trkpt><trkpt lat="44.6044756" lon="7.8883267"><ele>232.5</ele><time>2026-04-26T08:30:02.405Z</time></trkpt><trkpt lat="44.6042464" lon="7.8885333"><ele>234.0</ele><time>2026-04-26T08:30:03.397Z</time></trkpt><trkpt lat="44.6040222" lon="7.8887429"><ele>234.0</ele><time>2026-04-26T08:30:04.404Z</time></trkpt><trkpt lat="44.6037971" lon="7.8889464"><ele>234.0</ele><time>2026-04-26T08:30:05.393Z</time></trkpt><trkpt lat="44.6035698" lon="7.8891592"><ele>233.5</ele><time>2026-04-26T08:30:06.41Z</time></trkpt><trkpt lat="44.6033399" lon="7.8893735"><ele>233.0</ele><time>2026-04-26T08:30:07.395Z</time></trkpt><trkpt lat="44.6031096" lon="7.8895869"><ele>233.0</ele><time>2026-04-26T08:30:08.39Z</time></trkpt><trkpt lat="44.6028802" lon="7.8897963"><ele>233.0</ele><time>2026-04-26T08:30:09.39Z</time></trkpt><trkpt lat="44.6026412" lon="7.890002"><ele>232.5</ele><time>2026-04-26T08:30:10.393Z</time></trkpt><trkpt lat="44.6024018" lon="7.8902209"><ele>232.0</ele><time>2026-04-26T08:30:11.386Z</time></trkpt><trkpt lat="44.60216" lon="7.8904414"><ele>229.0</ele><time>2026-04-26T08:30:12.388Z</time></trkpt><trkpt lat="44.6019123" lon="7.8906677"><ele>226.0</ele><time>2026-04-26T08:30:13.396Z</time></trkpt><trkpt lat="44.6016633" lon="7.8908851"><ele>229.5</ele><time>2026-04-26T08:30:14.396Z</time></trkpt><trkpt lat="44.6014192" lon="7.8910715"><ele>233.0</ele><time>2026-04-26T08:30:15.4Z</time></trkpt><trkpt lat="44.6011776" lon="7.8912183"><ele>232.0</ele><time>2026-04-26T08:30:16.396Z</time></trkpt><trkpt lat="44.6009471" lon="7.8913292"><ele>231.0</ele><time>2026-04-26T08:30:17.401Z</time></trkpt><trkpt lat="44.6007543" lon="7.8914179"><ele>230.0</ele><time>2026-04-26T08:30:18.388Z</time></trkpt><trkpt lat="44.6005891" lon="7.8914707"><ele>230.0</ele><time>2026-04-26T08:30:19.389Z</time></trkpt><trkpt lat="44.6004181" lon="7.8915376"><ele>230.0</ele><time>2026-04-26T08:30:20.389Z</time></trkpt><trkpt lat="44.6002506" lon="7.8916092"><ele>230.0</ele><time>2026-04-26T08:30:21.394Z</time></trkpt><trkpt lat="44.6000849" lon="7.8916802"><ele>229.66666666666669</ele><time>2026-04-26T08:30:22.398Z</time></trkpt><trkpt lat="44.5999091" lon="7.8917503"><ele>229.33333333333331</ele><time>2026-04-26T08:30:23.391Z</time></trkpt><trkpt lat="44.5997328" lon="7.8918251"><ele>229.0</ele><time>2026-04-26T08:30:24.434Z</time></trkpt><trkpt lat="44.5995267" lon="7.8919005"><ele>229.5</ele><time>2026-04-26T08:30:25.39Z</time></trkpt><trkpt lat="44.599309" lon="7.8919942"><ele>230.0</ele><time>2026-04-26T08:30:26.39Z</time></trkpt><trkpt lat="44.5990924" lon="7.8920857"><ele>230.0</ele><time>2026-04-26T08:30:27.401Z</time></trkpt><trkpt lat="44.5988715" lon="7.8921589"><ele>230.0</ele><time>2026-04-26T08:30:28.387Z</time></trkpt><trkpt lat="44.5986622" lon="7.8922006"><ele>230.0</ele><time>2026-04-26T08:30:29.385Z</time></trkpt><trkpt lat="44.5984469" lon="7.8921923"><ele>229.0</ele><time>2026-04-26T08:30:30.384Z</time></trkpt><trkpt lat="44.5982306" lon="7.8921385"><ele>228.0</ele><time>2026-04-26T08:30:31.393Z</time></trkpt><trkpt lat="44.5980393" lon="7.8920585"><ele>227.0</ele><time>2026-04-26T08:30:32.397Z</time></trkpt><trkpt lat="44.5978647" lon="7.891975"><ele>226.75</ele><time>2026-04-26T08:30:33.393Z</time></trkpt><trkpt lat="44.597708" lon="7.8919096"><ele>226.5</ele><time>2026-04-26T08:30:34.393Z</time></trkpt><trkpt lat="44.5975853" lon="7.8918653"><ele>226.25</ele><time>2026-04-26T08:30:35.39Z</time></trkpt><trkpt lat="44.5974764" lon="7.8918203"><ele>226.0</ele><time>2026-04-26T08:30:36.392Z</time></trkpt><trkpt lat="44.5973931" lon="7.8917405"><ele>226.0</ele><time>2026-04-26T08:30:37.396Z</time></trkpt><trkpt lat="44.5973281" lon="7.8916515"><ele>226.00000000000003</ele><time>2026-04-26T08:30:38.397Z</time></trkpt><trkpt lat="44.5972482" lon="7.8915967"><ele>226.00000000000003</ele><time>2026-04-26T08:30:39.389Z</time></trkpt><trkpt lat="44.5971815" lon="7.8916419"><ele>226.0</ele><time>2026-04-26T08:30:40.385Z</time></trkpt><trkpt lat="44.5971277" lon="7.891783"><ele>226.0</ele><time>2026-04-26T08:30:41.392Z</time></trkpt><trkpt lat="44.5970876" lon="7.8919425"><ele>226.0</ele><time>2026-04-26T08:30:42.383Z</time></trkpt><trkpt lat="44.597043" lon="7.8921329"><ele>226.0</ele><time>2026-04-26T08:30:43.387Z</time></trkpt><trkpt lat="44.5969682" lon="7.8923359"><ele>226.0</ele><time>2026-04-26T08:30:44.408Z</time></trkpt><trkpt lat="44.5968808" lon="7.892559"><ele>226.0</ele><time>2026-04-26T08:30:45.404Z</time></trkpt><trkpt lat="44.5967806" lon="7.8927642"><ele>226.0</ele><time>2026-04-26T08:30:46.389Z</time></trkpt><trkpt lat="44.5966619" lon="7.8929456"><ele>226.0</ele><time>2026-04-26T08:30:47.383Z</time></trkpt><trkpt lat="44.5965289" lon="7.8930866"><ele>226.0</ele><time>2026-04-26T08:30:48.396Z</time></trkpt><trkpt lat="44.5963833" lon="7.8932017"><ele>226.0</ele><time>2026-04-26T08:30:49.381Z</time></trkpt><trkpt lat="44.5962268" lon="7.8932857"><ele>226.0</ele><time>2026-04-26T08:30:50.397Z</time></trkpt><trkpt lat="44.5960425" lon="7.8933281"><ele>224.66666666666666</ele><time>2026-04-26T08:30:51.407Z</time></trkpt><trkpt lat="44.5958571" lon="7.8933416"><ele>223.33333333333331</ele><time>2026-04-26T08:30:52.387Z</time></trkpt><trkpt lat="44.5956659" lon="7.8933291"><ele>222.0</ele><time>2026-04-26T08:30:53.396Z</time></trkpt><trkpt lat="44.5954682" lon="7.893345"><ele>221.33333333333331</ele><time>2026-04-26T08:30:54.398Z</time></trkpt><trkpt lat="44.5952753" lon="7.893395"><ele>220.66666666666666</ele><time>2026-04-26T08:30:55.392Z</time></trkpt><trkpt lat="44.595079" lon="7.8934801"><ele>220.0</ele><time>2026-04-26T08:30:56.393Z</time></trkpt><trkpt lat="44.5948742" lon="7.893594"><ele>220.0</ele><time>2026-04-26T08:30:57.391Z</time></trkpt><trkpt lat="44.5946533" lon="7.8937286"><ele>220.0</ele><time>2026-04-26T08:30:58.4Z</time></trkpt><trkpt lat="44.5944295" lon="7.8938555"><ele>218.33333333333331</ele><time>2026-04-26T08:30:59.388Z</time></trkpt><trkpt lat="44.5942214" lon="7.8939798"><ele>216.66666666666669</ele><time>2026-04-26T08:31:00.39Z</time></trkpt><trkpt lat="44.5940216" lon="7.8940677"><ele>215.0</ele><time>2026-04-26T08:31:01.392Z</time></trkpt><trkpt lat="44.5938269" lon="7.8940988"><ele>215.66666666666669</ele><time>2026-04-26T08:31:02.388Z</time></trkpt><trkpt lat="44.5936142" lon="7.89409"><ele>216.33333333333331</ele><time>2026-04-26T08:31:03.391Z</time></trkpt><trkpt lat="44.5934026" lon="7.8940622"><ele>217.0</ele><time>2026-04-26T08:31:04.388Z</time></trkpt><trkpt lat="44.59319" lon="7.8940037"><ele>217.0</ele><time>2026-04-26T08:31:05.399Z</time></trkpt><trkpt lat="44.5929786" lon="7.8939463"><ele>217.0</ele><time>2026-04-26T08:31:06.399Z</time></trkpt><trkpt lat="44.5927661" lon="7.8939054"><ele>217.0</ele><time>2026-04-26T08:31:07.385Z</time></trkpt><trkpt lat="44.5925616" lon="7.8938994"><ele>217.0</ele><time>2026-04-26T08:31:08.398Z</time></trkpt><trkpt lat="44.5923662" lon="7.8939275"><ele>217.0</ele><time>2026-04-26T08:31:09.387Z</time></trkpt><trkpt lat="44.5921731" lon="7.8939654"><ele>217.0</ele><time>2026-04-26T08:31:10.387Z</time></trkpt><trkpt lat="44.5919729" lon="7.8940182"><ele>217.0</ele><time>2026-04-26T08:31:11.394Z</time></trkpt><trkpt lat="44.5917571" lon="7.8940741"><ele>217.0</ele><time>2026-04-26T08:31:12.4Z</time></trkpt><trkpt lat="44.5915252" lon="7.8941265"><ele>217.0</ele><time>2026-04-26T08:31:13.39Z</time></trkpt><trkpt lat="44.5912824" lon="7.8941803"><ele>217.0</ele><time>2026-04-26T08:31:14.399Z</time></trkpt><trkpt lat="44.5910353" lon="7.8942368"><ele>217.0</ele><time>2026-04-26T08:31:15.412Z</time></trkpt><trkpt lat="44.5907887" lon="7.894287"><ele>217.0</ele><time>2026-04-26T08:31:16.396Z</time></trkpt><trkpt lat="44.5905493" lon="7.894345"><ele>217.0</ele><time>2026-04-26T08:31:17.395Z</time></trkpt><trkpt lat="44.5903088" lon="7.8944071"><ele>217.0</ele><time>2026-04-26T08:31:18.415Z</time></trkpt><trkpt lat="44.5900707" lon="7.8944821"><ele>217.0</ele><time>2026-04-26T08:31:19.397Z</time></trkpt><trkpt lat="44.5898306" lon="7.8945933"><ele>217.0</ele><time>2026-04-26T08:31:20.4Z</time></trkpt><trkpt lat="44.5895993" lon="7.8947295"><ele>217.0</ele><time>2026-04-26T08:31:21.397Z</time></trkpt><trkpt lat="44.5893734" lon="7.8948883"><ele>217.0</ele><time>2026-04-26T08:31:22.403Z</time></trkpt><trkpt lat="44.5891541" lon="7.8950539"><ele>217.5</ele><time>2026-04-26T08:31:23.4Z</time></trkpt><trkpt lat="44.5889407" lon="7.8952374"><ele>218.0</ele><time>2026-04-26T08:31:24.393Z</time></trkpt><trkpt lat="44.5887462" lon="7.8954422"><ele>219.0</ele><time>2026-04-26T08:31:25.386Z</time></trkpt><trkpt lat="44.5885631" lon="7.8956548"><ele>220.0</ele><time>2026-04-26T08:31:26.391Z</time></trkpt><trkpt lat="44.5884141" lon="7.895866"><ele>221.0</ele><time>2026-04-26T08:31:27.406Z</time></trkpt><trkpt lat="44.5882696" lon="7.896076"><ele>221.0</ele><time>2026-04-26T08:31:28.396Z</time></trkpt><trkpt lat="44.5881355" lon="7.896304"><ele>221.0</ele><time>2026-04-26T08:31:29.388Z</time></trkpt><trkpt lat="44.5880038" lon="7.8965488"><ele>221.0</ele><time>2026-04-26T08:31:30.395Z</time></trkpt><trkpt lat="44.5878568" lon="7.896818"><ele>220.5</ele><time>2026-04-26T08:31:31.404Z</time></trkpt><trkpt lat="44.5876954" lon="7.8971055"><ele>220.0</ele><time>2026-04-26T08:31:32.401Z</time></trkpt><trkpt lat="44.587529" lon="7.8973863"><ele>220.5</ele><time>2026-04-26T08:31:33.39Z</time></trkpt><trkpt lat="44.5873621" lon="7.8976718"><ele>221.0</ele><time>2026-04-26T08:31:34.386Z</time></trkpt><trkpt lat="44.5871859" lon="7.8979612"><ele>221.0</ele><time>2026-04-26T08:31:35.398Z</time></trkpt><trkpt lat="44.5870122" lon="7.8982514"><ele>221.0</ele><time>2026-04-26T08:31:36.391Z</time></trkpt><trkpt lat="44.5868392" lon="7.8985517"><ele>221.0</ele><time>2026-04-26T08:31:37.399Z</time></trkpt><trkpt lat="44.5866622" lon="7.898861"><ele>221.0</ele><time>2026-04-26T08:31:38.388Z</time></trkpt><trkpt lat="44.5864882" lon="7.8991684"><ele>221.0</ele><time>2026-04-26T08:31:39.385Z</time></trkpt><trkpt lat="44.5863201" lon="7.8994778"><ele>221.0</ele><time>2026-04-26T08:31:40.39Z</time></trkpt><trkpt lat="44.5861546" lon="7.899788"><ele>223.0</ele><time>2026-04-26T08:31:41.388Z</time></trkpt><trkpt lat="44.5860024" lon="7.9000835"><ele>225.0</ele><time>2026-04-26T08:31:42.384Z</time></trkpt><trkpt lat="44.5858501" lon="7.9003685"><ele>225.0</ele><time>2026-04-26T08:31:43.398Z</time></trkpt><trkpt lat="44.585701" lon="7.9006451"><ele>225.0</ele><time>2026-04-26T08:31:44.389Z</time></trkpt><trkpt lat="44.5855534" lon="7.9009075"><ele>226.0</ele><time>2026-04-26T08:31:45.392Z</time></trkpt><trkpt lat="44.5854052" lon="7.9011549"><ele>227.0</ele><time>2026-04-26T08:31:46.393Z</time></trkpt><trkpt lat="44.5852538" lon="7.9014043"><ele>228.0</ele><time>2026-04-26T08:31:47.396Z</time></trkpt><trkpt lat="44.5850924" lon="7.9016709"><ele>229.0</ele><time>2026-04-26T08:31:48.399Z</time></trkpt><trkpt lat="44.5849221" lon="7.9019414"><ele>229.5</ele><time>2026-04-26T08:31:49.401Z</time></trkpt><trkpt lat="44.5847497" lon="7.9022307"><ele>230.0</ele><time>2026-04-26T08:31:50.395Z</time></trkpt><trkpt lat="44.5845816" lon="7.9025276"><ele>228.0</ele><time>2026-04-26T08:31:51.4Z</time></trkpt><trkpt lat="44.5844192" lon="7.9028262"><ele>226.0</ele><time>2026-04-26T08:31:52.395Z</time></trkpt><trkpt lat="44.5842652" lon="7.9031207"><ele>226.0</ele><time>2026-04-26T08:31:53.39Z</time></trkpt><trkpt lat="44.584119" lon="7.9034137"><ele>226.0</ele><time>2026-04-26T08:31:54.387Z</time></trkpt><trkpt lat="44.5839798" lon="7.9036997"><ele>228.0</ele><time>2026-04-26T08:31:55.376Z</time></trkpt><trkpt lat="44.5838498" lon="7.90398"><ele>230.0</ele><time>2026-04-26T08:31:56.395Z</time></trkpt><trkpt lat="44.5837199" lon="7.9042535"><ele>227.5</ele><time>2026-04-26T08:31:57.397Z</time></trkpt><trkpt lat="44.583585" lon="7.9045271"><ele>225.0</ele><time>2026-04-26T08:31:58.394Z</time></trkpt><trkpt lat="44.5834415" lon="7.9048021"><ele>225.0</ele><time>2026-04-26T08:31:59.386Z</time></trkpt><trkpt lat="44.5832979" lon="7.9050687"><ele>225.0</ele><time>2026-04-26T08:32:00.405Z</time></trkpt><trkpt lat="44.5831517" lon="7.9053347"><ele>225.5</ele><time>2026-04-26T08:32:01.39Z</time></trkpt><trkpt lat="44.5830065" lon="7.9056049"><ele>226.0</ele><time>2026-04-26T08:32:02.394Z</time></trkpt><trkpt lat="44.5828598" lon="7.9058798"><ele>225.0</ele><time>2026-04-26T08:32:03.394Z</time></trkpt><trkpt lat="44.5827192" lon="7.9061555"><ele>224.0</ele><time>2026-04-26T08:32:04.377Z</time></trkpt><trkpt lat="44.5825787" lon="7.9064292"><ele>224.0</ele><time>2026-04-26T08:32:05.388Z</time></trkpt><trkpt lat="44.5824399" lon="7.9066805"><ele>224.0</ele><time>2026-04-26T08:32:06.386Z</time></trkpt><trkpt lat="44.5822988" lon="7.9069127"><ele>224.0</ele><time>2026-04-26T08:32:07.379Z</time></trkpt><trkpt lat="44.5821651" lon="7.907137"><ele>224.33333333333334</ele><time>2026-04-26T08:32:08.386Z</time></trkpt><trkpt lat="44.5820332" lon="7.9073437"><ele>224.66666666666669</ele><time>2026-04-26T08:32:09.404Z</time></trkpt><trkpt lat="44.5819125" lon="7.9075464"><ele>225.0</ele><time>2026-04-26T08:32:10.39Z</time></trkpt><trkpt lat="44.5817994" lon="7.9077303"><ele>224.33333333333331</ele><time>2026-04-26T08:32:11.387Z</time></trkpt><trkpt lat="44.5816899" lon="7.9078943"><ele>223.66666666666666</ele><time>2026-04-26T08:32:12.381Z</time></trkpt><trkpt lat="44.5815791" lon="7.9080473"><ele>223.0</ele><time>2026-04-26T08:32:13.383Z</time></trkpt><trkpt lat="44.5814723" lon="7.9081864"><ele>223.0</ele><time>2026-04-26T08:32:14.381Z</time></trkpt><trkpt lat="44.5813711" lon="7.908313"><ele>223.0</ele><time>2026-04-26T08:32:15.386Z</time></trkpt><trkpt lat="44.5812741" lon="7.9084216"><ele>223.0</ele><time>2026-04-26T08:32:16.384Z</time></trkpt><trkpt lat="44.5811856" lon="7.9085167"><ele>223.0</ele><time>2026-04-26T08:32:17.402Z</time></trkpt><trkpt lat="44.5811097" lon="7.9085841"><ele>223.33333333333331</ele><time>2026-04-26T08:32:18.379Z</time></trkpt><trkpt lat="44.5810246" lon="7.9086228"><ele>223.66666666666666</ele><time>2026-04-26T08:32:19.378Z</time></trkpt><trkpt lat="44.5809429" lon="7.9086245"><ele>224.0</ele><time>2026-04-26T08:32:20.383Z</time></trkpt><trkpt lat="44.5808639" lon="7.9086214"><ele>224.33333333333331</ele><time>2026-04-26T08:32:21.393Z</time></trkpt><trkpt lat="44.5807875" lon="7.9086405"><ele>224.66666666666666</ele><time>2026-04-26T08:32:22.391Z</time></trkpt><trkpt lat="44.5807204" lon="7.908696"><ele>225.0</ele><time>2026-04-26T08:32:23.396Z</time></trkpt><trkpt lat="44.5806889" lon="7.9087821"><ele>225.0</ele><time>2026-04-26T08:32:24.392Z</time></trkpt><trkpt lat="44.580683" lon="7.9089117"><ele>225.0</ele><time>2026-04-26T08:32:25.382Z</time></trkpt><trkpt lat="44.5806863" lon="7.9091024"><ele>225.0</ele><time>2026-04-26T08:32:26.404Z</time></trkpt><trkpt lat="44.5806718" lon="7.9093127"><ele>225.0</ele><time>2026-04-26T08:32:27.398Z</time></trkpt><trkpt lat="44.5806294" lon="7.9095222"><ele>225.33333333333331</ele><time>2026-04-26T08:32:28.38Z</time></trkpt><trkpt lat="44.5805245" lon="7.9097222"><ele>225.66666666666666</ele><time>2026-04-26T08:32:29.396Z</time></trkpt><trkpt lat="44.5803782" lon="7.9099206"><ele>226.0</ele><time>2026-04-26T08:32:30.375Z</time></trkpt><trkpt lat="44.580227" lon="7.910107"><ele>226.33333333333331</ele><time>2026-04-26T08:32:31.386Z</time></trkpt><trkpt lat="44.5800874" lon="7.9102826"><ele>226.66666666666669</ele><time>2026-04-26T08:32:32.405Z</time></trkpt><trkpt lat="44.579959" lon="7.910448"><ele>227.0</ele><time>2026-04-26T08:32:33.402Z</time></trkpt><trkpt lat="44.5798354" lon="7.910604"><ele>227.0</ele><time>2026-04-26T08:32:34.394Z</time></trkpt><trkpt lat="44.5797227" lon="7.910753"><ele>227.0</ele><time>2026-04-26T08:32:35.393Z</time></trkpt><trkpt lat="44.5796191" lon="7.9108812"><ele>227.0</ele><time>2026-04-26T08:32:36.386Z</time></trkpt><trkpt lat="44.5795236" lon="7.9110008"><ele>227.0</ele><time>2026-04-26T08:32:37.387Z</time></trkpt><trkpt lat="44.5794305" lon="7.9111181"><ele>227.25</ele><time>2026-04-26T08:32:38.38Z</time></trkpt><trkpt lat="44.5793344" lon="7.911244"><ele>227.5</ele><time>2026-04-26T08:32:39.375Z</time></trkpt><trkpt lat="44.5792306" lon="7.9113863"><ele>227.75</ele><time>2026-04-26T08:32:40.385Z</time></trkpt><trkpt lat="44.5791093" lon="7.9115422"><ele>228.0</ele><time>2026-04-26T08:32:41.391Z</time></trkpt><trkpt lat="44.5789664" lon="7.9117129"><ele>228.0</ele><time>2026-04-26T08:32:42.379Z</time></trkpt><trkpt lat="44.5788175" lon="7.9118774"><ele>228.0</ele><time>2026-04-26T08:32:43.394Z</time></trkpt><trkpt lat="44.5786686" lon="7.912047"><ele>228.0</ele><time>2026-04-26T08:32:44.396Z</time></trkpt><trkpt lat="44.5785243" lon="7.9122317"><ele>228.0</ele><time>2026-04-26T08:32:45.395Z</time></trkpt><trkpt lat="44.5783909" lon="7.9123997"><ele>228.0</ele><time>2026-04-26T08:32:46.383Z</time></trkpt><trkpt lat="44.5782625" lon="7.912574"><ele>228.0</ele><time>2026-04-26T08:32:47.396Z</time></trkpt><trkpt lat="44.5781323" lon="7.912735"><ele>228.0</ele><time>2026-04-26T08:32:48.383Z</time></trkpt><trkpt lat="44.578003" lon="7.9128913"><ele>228.0</ele><time>2026-04-26T08:32:49.378Z</time></trkpt><trkpt lat="44.577876" lon="7.9130418"><ele>228.0</ele><time>2026-04-26T08:32:50.383Z</time></trkpt><trkpt lat="44.5777463" lon="7.9131951"><ele>228.0</ele><time>2026-04-26T08:32:51.382Z</time></trkpt><trkpt lat="44.577625" lon="7.9133527"><ele>228.0</ele><time>2026-04-26T08:32:52.376Z</time></trkpt><trkpt lat="44.5775146" lon="7.9134984"><ele>228.0</ele><time>2026-04-26T08:32:53.396Z</time></trkpt><trkpt lat="44.5774086" lon="7.9136322"><ele>229.5</ele><time>2026-04-26T08:32:54.382Z</time></trkpt><trkpt lat="44.5773118" lon="7.9137606"><ele>231.0</ele><time>2026-04-26T08:32:55.379Z</time></trkpt><trkpt lat="44.5772166" lon="7.9138806"><ele>232.5</ele><time>2026-04-26T08:32:56.38Z</time></trkpt><trkpt lat="44.577123" lon="7.9139861"><ele>234.0</ele><time>2026-04-26T08:32:57.384Z</time></trkpt><trkpt lat="44.5770272" lon="7.9140978"><ele>233.25</ele><time>2026-04-26T08:32:58.397Z</time></trkpt><trkpt lat="44.5769371" lon="7.9142154"><ele>232.5</ele><time>2026-04-26T08:32:59.389Z</time></trkpt><trkpt lat="44.5768426" lon="7.9143304"><ele>231.75</ele><time>2026-04-26T08:33:00.381Z</time></trkpt><trkpt lat="44.5767387" lon="7.9144578"><ele>231.0</ele><time>2026-04-26T08:33:01.384Z</time></trkpt><trkpt lat="44.5766232" lon="7.9146022"><ele>231.0</ele><time>2026-04-26T08:33:02.386Z</time></trkpt><trkpt lat="44.5764997" lon="7.9147577"><ele>231.0</ele><time>2026-04-26T08:33:03.383Z</time></trkpt><trkpt lat="44.5763599" lon="7.9149273"><ele>231.0</ele><time>2026-04-26T08:33:04.378Z</time></trkpt><trkpt lat="44.5762137" lon="7.9151079"><ele>230.66666666666669</ele><time>2026-04-26T08:33:05.384Z</time></trkpt><trkpt lat="44.5760687" lon="7.915297"><ele>230.33333333333334</ele><time>2026-04-26T08:33:06.393Z</time></trkpt><trkpt lat="44.5759156" lon="7.9154885"><ele>230.0</ele><time>2026-04-26T08:33:07.386Z</time></trkpt><trkpt lat="44.5757693" lon="7.9156711"><ele>230.0</ele><time>2026-04-26T08:33:08.38Z</time></trkpt><trkpt lat="44.5756209" lon="7.9158591"><ele>230.0</ele><time>2026-04-26T08:33:09.386Z</time></trkpt><trkpt lat="44.5754794" lon="7.9160383"><ele>230.0</ele><time>2026-04-26T08:33:10.392Z</time></trkpt><trkpt lat="44.5753413" lon="7.9162108"><ele>229.0</ele><time>2026-04-26T08:33:11.388Z</time></trkpt><trkpt lat="44.5752015" lon="7.9163666"><ele>228.0</ele><time>2026-04-26T08:33:12.399Z</time></trkpt><trkpt lat="44.5750453" lon="7.9164748"><ele>227.0</ele><time>2026-04-26T08:33:13.38Z</time></trkpt><trkpt lat="44.5748531" lon="7.9165393"><ele>227.0</ele><time>2026-04-26T08:33:14.394Z</time></trkpt><trkpt lat="44.5746649" lon="7.9165857"><ele>227.0</ele><time>2026-04-26T08:33:15.397Z</time></trkpt><trkpt lat="44.5744714" lon="7.9166278"><ele>227.0</ele><time>2026-04-26T08:33:16.385Z</time></trkpt><trkpt lat="44.5742864" lon="7.9166653"><ele>227.0</ele><time>2026-04-26T08:33:17.383Z</time></trkpt><trkpt lat="44.5741073" lon="7.9167005"><ele>227.0</ele><time>2026-04-26T08:33:18.395Z</time></trkpt><trkpt lat="44.5739343" lon="7.9167284"><ele>227.0</ele><time>2026-04-26T08:33:19.396Z</time></trkpt><trkpt lat="44.5737656" lon="7.9167635"><ele>228.66666666666669</ele><time>2026-04-26T08:33:20.391Z</time></trkpt><trkpt lat="44.5735982" lon="7.9167946"><ele>230.33333333333331</ele><time>2026-04-26T08:33:21.399Z</time></trkpt><trkpt lat="44.5734422" lon="7.9168215"><ele>232.0</ele><time>2026-04-26T08:33:22.391Z</time></trkpt><trkpt lat="44.5732948" lon="7.9168421"><ele>232.0</ele><time>2026-04-26T08:33:23.39Z</time></trkpt><trkpt lat="44.5731593" lon="7.9168687"><ele>232.0</ele><time>2026-04-26T08:33:24.38Z</time></trkpt><trkpt lat="44.5730336" lon="7.9168869"><ele>232.0</ele><time>2026-04-26T08:33:25.376Z</time></trkpt><trkpt lat="44.5729076" lon="7.9169071"><ele>232.0</ele><time>2026-04-26T08:33:26.393Z</time></trkpt><trkpt lat="44.572788" lon="7.9169307"><ele>232.0</ele><time>2026-04-26T08:33:27.387Z</time></trkpt><trkpt lat="44.572672" lon="7.9169453"><ele>232.0</ele><time>2026-04-26T08:33:28.389Z</time></trkpt><trkpt lat="44.5725627" lon="7.9169653"><ele>232.0</ele><time>2026-04-26T08:33:29.396Z</time></trkpt><trkpt lat="44.5724447" lon="7.9169916"><ele>232.0</ele><time>2026-04-26T08:33:30.391Z</time></trkpt><trkpt lat="44.572323" lon="7.9170274"><ele>232.0</ele><time>2026-04-26T08:33:31.39Z</time></trkpt><trkpt lat="44.5721996" lon="7.9170583"><ele>232.0</ele><time>2026-04-26T08:33:32.384Z</time></trkpt><trkpt lat="44.5720685" lon="7.9170934"><ele>232.0</ele><time>2026-04-26T08:33:33.392Z</time></trkpt><trkpt lat="44.5719401" lon="7.9171281"><ele>232.0</ele><time>2026-04-26T08:33:34.391Z</time></trkpt><trkpt lat="44.5718116" lon="7.9171581"><ele>231.66666666666666</ele><time>2026-04-26T08:33:35.399Z</time></trkpt><trkpt lat="44.5716694" lon="7.9171925"><ele>231.33333333333331</ele><time>2026-04-26T08:33:36.393Z</time></trkpt><trkpt lat="44.5715204" lon="7.9172246"><ele>231.0</ele><time>2026-04-26T08:33:37.387Z</time></trkpt><trkpt lat="44.5713641" lon="7.9172565"><ele>231.0</ele><time>2026-04-26T08:33:38.395Z</time></trkpt><trkpt lat="44.5712057" lon="7.9172877"><ele>231.0</ele><time>2026-04-26T08:33:39.394Z</time></trkpt><trkpt lat="44.5710409" lon="7.9173073"><ele>231.0</ele><time>2026-04-26T08:33:40.383Z</time></trkpt><trkpt lat="44.5708813" lon="7.9173425"><ele>230.25</ele><time>2026-04-26T08:33:41.387Z</time></trkpt><trkpt lat="44.570728" lon="7.9173662"><ele>229.5</ele><time>2026-04-26T08:33:42.386Z</time></trkpt><trkpt lat="44.5705832" lon="7.9173876"><ele>228.75</ele><time>2026-04-26T08:33:43.382Z</time></trkpt><trkpt lat="44.5704402" lon="7.9174113"><ele>228.0</ele><time>2026-04-26T08:33:44.385Z</time></trkpt><trkpt lat="44.5703018" lon="7.9174354"><ele>227.5</ele><time>2026-04-26T08:33:45.384Z</time></trkpt><trkpt lat="44.570173" lon="7.9174586"><ele>227.0</ele><time>2026-04-26T08:33:46.389Z</time></trkpt><trkpt lat="44.5700471" lon="7.9174758"><ele>226.5</ele><time>2026-04-26T08:33:47.393Z</time></trkpt><trkpt lat="44.5699214" lon="7.9174976"><ele>226.0</ele><time>2026-04-26T08:33:48.385Z</time></trkpt><trkpt lat="44.5698045" lon="7.917515"><ele>226.0</ele><time>2026-04-26T08:33:49.397Z</time></trkpt><trkpt lat="44.5696897" lon="7.9175353"><ele>226.00000000000003</ele><time>2026-04-26T08:33:50.388Z</time></trkpt><trkpt lat="44.569576" lon="7.9175464"><ele>226.00000000000003</ele><time>2026-04-26T08:33:51.375Z</time></trkpt><trkpt lat="44.5694694" lon="7.9175535"><ele>226.0</ele><time>2026-04-26T08:33:52.381Z</time></trkpt><trkpt lat="44.5693742" lon="7.9175474"><ele>226.0</ele><time>2026-04-26T08:33:53.383Z</time></trkpt><trkpt lat="44.5692903" lon="7.9175379"><ele>225.66666666666666</ele><time>2026-04-26T08:33:54.388Z</time></trkpt><trkpt lat="44.5692263" lon="7.9175355"><ele>225.33333333333331</ele><time>2026-04-26T08:33:55.387Z</time></trkpt><trkpt lat="44.5691258" lon="7.9175125"><ele>225.0</ele><time>2026-04-26T08:33:57.388Z</time></trkpt><trkpt lat="44.569023" lon="7.9175304"><ele>224.66666666666669</ele><time>2026-04-26T08:34:00.381Z</time></trkpt><trkpt lat="44.5689553" lon="7.917644"><ele>224.33333333333334</ele><time>2026-04-26T08:34:02.427Z</time></trkpt><trkpt lat="44.5689099" lon="7.9177089"><ele>224.0</ele><time>2026-04-26T08:34:03.387Z</time></trkpt><trkpt lat="44.5688436" lon="7.9177804"><ele>225.0</ele><time>2026-04-26T08:34:04.379Z</time></trkpt><trkpt lat="44.56876" lon="7.9178771"><ele>226.0</ele><time>2026-04-26T08:34:05.384Z</time></trkpt><trkpt lat="44.5686244" lon="7.9179931"><ele>227.0</ele><time>2026-04-26T08:34:06.383Z</time></trkpt><trkpt lat="44.5684624" lon="7.9181199"><ele>227.0</ele><time>2026-04-26T08:34:07.387Z</time></trkpt><trkpt lat="44.5682994" lon="7.918259"><ele>227.0</ele><time>2026-04-26T08:34:08.397Z</time></trkpt><trkpt lat="44.5681362" lon="7.9183963"><ele>227.0</ele><time>2026-04-26T08:34:09.376Z</time></trkpt><trkpt lat="44.5679783" lon="7.9185224"><ele>227.66666666666669</ele><time>2026-04-26T08:34:10.379Z</time></trkpt><trkpt lat="44.5678189" lon="7.9186489"><ele>228.33333333333331</ele><time>2026-04-26T08:34:11.38Z</time></trkpt><trkpt lat="44.5676634" lon="7.9187656"><ele>229.0</ele><time>2026-04-26T08:34:12.389Z</time></trkpt><trkpt lat="44.5675246" lon="7.9188744"><ele>229.0</ele><time>2026-04-26T08:34:13.401Z</time></trkpt><trkpt lat="44.5673927" lon="7.9189794"><ele>229.0</ele><time>2026-04-26T08:34:14.39Z</time></trkpt><trkpt lat="44.5672767" lon="7.9190733"><ele>229.0</ele><time>2026-04-26T08:34:15.384Z</time></trkpt><trkpt lat="44.5671535" lon="7.9191664"><ele>229.0</ele><time>2026-04-26T08:34:16.392Z</time></trkpt><trkpt lat="44.5670319" lon="7.9192639"><ele>228.33333333333331</ele><time>2026-04-26T08:34:17.387Z</time></trkpt><trkpt lat="44.5668924" lon="7.9193699"><ele>227.66666666666669</ele><time>2026-04-26T08:34:18.383Z</time></trkpt><trkpt lat="44.5667386" lon="7.9194784"><ele>227.0</ele><time>2026-04-26T08:34:19.384Z</time></trkpt><trkpt lat="44.5665705" lon="7.919594"><ele>227.0</ele><time>2026-04-26T08:34:20.383Z</time></trkpt><trkpt lat="44.5663956" lon="7.9197156"><ele>227.0</ele><time>2026-04-26T08:34:21.379Z</time></trkpt><trkpt lat="44.5662141" lon="7.919842"><ele>227.0</ele><time>2026-04-26T08:34:22.409Z</time></trkpt><trkpt lat="44.5660429" lon="7.9199655"><ele>226.66666666666669</ele><time>2026-04-26T08:34:23.398Z</time></trkpt><trkpt lat="44.5658885" lon="7.9200816"><ele>226.33333333333331</ele><time>2026-04-26T08:34:24.386Z</time></trkpt><trkpt lat="44.5657426" lon="7.9201982"><ele>226.0</ele><time>2026-04-26T08:34:25.385Z</time></trkpt><trkpt lat="44.5655989" lon="7.920315"><ele>226.0</ele><time>2026-04-26T08:34:26.431Z</time></trkpt><trkpt lat="44.5654475" lon="7.9204315"><ele>226.0</ele><time>2026-04-26T08:34:27.39Z</time></trkpt><trkpt lat="44.5652928" lon="7.9205546"><ele>226.0</ele><time>2026-04-26T08:34:28.375Z</time></trkpt><trkpt lat="44.5651352" lon="7.9206725"><ele>226.66666666666666</ele><time>2026-04-26T08:34:29.382Z</time></trkpt><trkpt lat="44.5649761" lon="7.9207972"><ele>227.33333333333331</ele><time>2026-04-26T08:34:30.391Z</time></trkpt><trkpt lat="44.5648074" lon="7.9209197"><ele>228.0</ele><time>2026-04-26T08:34:31.374Z</time></trkpt><trkpt lat="44.5646429" lon="7.9210416"><ele>229.66666666666669</ele><time>2026-04-26T08:34:32.388Z</time></trkpt><trkpt lat="44.5644796" lon="7.9211599"><ele>231.33333333333334</ele><time>2026-04-26T08:34:33.383Z</time></trkpt><trkpt lat="44.564322" lon="7.9212856"><ele>233.0</ele><time>2026-04-26T08:34:34.386Z</time></trkpt><trkpt lat="44.5641574" lon="7.9214105"><ele>233.0</ele><time>2026-04-26T08:34:35.382Z</time></trkpt><trkpt lat="44.5639915" lon="7.9215377"><ele>233.0</ele><time>2026-04-26T08:34:36.389Z</time></trkpt><trkpt lat="44.5638289" lon="7.9216488"><ele>233.0</ele><time>2026-04-26T08:34:37.389Z</time></trkpt><trkpt lat="44.5636658" lon="7.9217544"><ele>232.66666666666669</ele><time>2026-04-26T08:34:38.389Z</time></trkpt><trkpt lat="44.5634994" lon="7.9218486"><ele>232.33333333333331</ele><time>2026-04-26T08:34:39.394Z</time></trkpt><trkpt lat="44.5633427" lon="7.9219441"><ele>232.0</ele><time>2026-04-26T08:34:40.382Z</time></trkpt><trkpt lat="44.5631758" lon="7.9220356"><ele>232.0</ele><time>2026-04-26T08:34:41.398Z</time></trkpt><trkpt lat="44.5630017" lon="7.9221244"><ele>232.0</ele><time>2026-04-26T08:34:42.404Z</time></trkpt><trkpt lat="44.5628227" lon="7.9222043"><ele>232.0</ele><time>2026-04-26T08:34:43.38Z</time></trkpt><trkpt lat="44.5626518" lon="7.9222828"><ele>232.0</ele><time>2026-04-26T08:34:44.391Z</time></trkpt><trkpt lat="44.5624869" lon="7.9223534"><ele>232.0</ele><time>2026-04-26T08:34:45.416Z</time></trkpt><trkpt lat="44.5623199" lon="7.9224207"><ele>232.0</ele><time>2026-04-26T08:34:46.388Z</time></trkpt><trkpt lat="44.5621503" lon="7.9224842"><ele>232.0</ele><time>2026-04-26T08:34:47.388Z</time></trkpt><trkpt lat="44.5619628" lon="7.9225441"><ele>232.0</ele><time>2026-04-26T08:34:48.404Z</time></trkpt><trkpt lat="44.5617672" lon="7.922604"><ele>232.0</ele><time>2026-04-26T08:34:49.39Z</time></trkpt><trkpt lat="44.5615688" lon="7.9226522"><ele>231.66666666666666</ele><time>2026-04-26T08:34:50.377Z</time></trkpt><trkpt lat="44.5613617" lon="7.9226986"><ele>231.33333333333331</ele><time>2026-04-26T08:34:51.388Z</time></trkpt><trkpt lat="44.5611491" lon="7.9227463"><ele>231.0</ele><time>2026-04-26T08:34:52.405Z</time></trkpt><trkpt lat="44.5609337" lon="7.9227848"><ele>230.5</ele><time>2026-04-26T08:34:53.412Z</time></trkpt><trkpt lat="44.5607082" lon="7.9228155"><ele>230.0</ele><time>2026-04-26T08:34:54.404Z</time></trkpt><trkpt lat="44.5604793" lon="7.9228421"><ele>229.5</ele><time>2026-04-26T08:34:55.385Z</time></trkpt><trkpt lat="44.5602502" lon="7.9228604"><ele>229.0</ele><time>2026-04-26T08:34:56.406Z</time></trkpt><trkpt lat="44.5600075" lon="7.922871"><ele>229.0</ele><time>2026-04-26T08:34:57.388Z</time></trkpt><trkpt lat="44.5597742" lon="7.9228621"><ele>229.0</ele><time>2026-04-26T08:34:58.389Z</time></trkpt><trkpt lat="44.5595367" lon="7.9228399"><ele>229.0</ele><time>2026-04-26T08:34:59.392Z</time></trkpt><trkpt lat="44.5592996" lon="7.9228169"><ele>229.0</ele><time>2026-04-26T08:35:00.377Z</time></trkpt><trkpt lat="44.5590653" lon="7.9227911"><ele>229.0</ele><time>2026-04-26T08:35:01.389Z</time></trkpt><trkpt lat="44.558827" lon="7.9227564"><ele>229.0</ele><time>2026-04-26T08:35:02.384Z</time></trkpt><trkpt lat="44.5585903" lon="7.9227191"><ele>230.5</ele><time>2026-04-26T08:35:03.4Z</time></trkpt><trkpt lat="44.5583527" lon="7.9226817"><ele>232.0</ele><time>2026-04-26T08:35:04.388Z</time></trkpt><trkpt lat="44.5581124" lon="7.9226452"><ele>232.0</ele><time>2026-04-26T08:35:05.411Z</time></trkpt><trkpt lat="44.5578746" lon="7.9226089"><ele>232.0</ele><time>2026-04-26T08:35:06.399Z</time></trkpt><trkpt lat="44.5576361" lon="7.9225724"><ele>233.5</ele><time>2026-04-26T08:35:07.4Z</time></trkpt><trkpt lat="44.5574016" lon="7.9225323"><ele>235.0</ele><time>2026-04-26T08:35:08.397Z</time></trkpt><trkpt lat="44.5571685" lon="7.9224846"><ele>235.5</ele><time>2026-04-26T08:35:09.389Z</time></trkpt><trkpt lat="44.556933" lon="7.9224331"><ele>236.0</ele><time>2026-04-26T08:35:10.388Z</time></trkpt><trkpt lat="44.5567034" lon="7.9223849"><ele>236.0</ele><time>2026-04-26T08:35:11.389Z</time></trkpt><trkpt lat="44.5564674" lon="7.9223432"><ele>236.0</ele><time>2026-04-26T08:35:12.394Z</time></trkpt><trkpt lat="44.5562277" lon="7.9223014"><ele>236.0</ele><time>2026-04-26T08:35:13.404Z</time></trkpt><trkpt lat="44.555987" lon="7.9222635"><ele>236.0</ele><time>2026-04-26T08:35:14.384Z</time></trkpt><trkpt lat="44.5557471" lon="7.9222254"><ele>236.0</ele><time>2026-04-26T08:35:15.397Z</time></trkpt><trkpt lat="44.5555068" lon="7.9221842"><ele>236.0</ele><time>2026-04-26T08:35:16.396Z</time></trkpt><trkpt lat="44.5552695" lon="7.9221446"><ele>236.0</ele><time>2026-04-26T08:35:17.39Z</time></trkpt><trkpt lat="44.5550297" lon="7.9220971"><ele>236.0</ele><time>2026-04-26T08:35:18.402Z</time></trkpt><trkpt lat="44.5547905" lon="7.9220579"><ele>236.0</ele><time>2026-04-26T08:35:19.39Z</time></trkpt><trkpt lat="44.5545509" lon="7.9220209"><ele>236.0</ele><time>2026-04-26T08:35:20.399Z</time></trkpt><trkpt lat="44.5543156" lon="7.9219812"><ele>237.0</ele><time>2026-04-26T08:35:21.392Z</time></trkpt><trkpt lat="44.5540799" lon="7.9219415"><ele>238.0</ele><time>2026-04-26T08:35:22.403Z</time></trkpt><trkpt lat="44.5538464" lon="7.9219018"><ele>238.33333333333331</ele><time>2026-04-26T08:35:23.401Z</time></trkpt><trkpt lat="44.5536231" lon="7.9218761"><ele>238.66666666666669</ele><time>2026-04-26T08:35:24.391Z</time></trkpt><trkpt lat="44.5534075" lon="7.9218493"><ele>239.0</ele><time>2026-04-26T08:35:25.382Z</time></trkpt><trkpt lat="44.5531937" lon="7.9218267"><ele>239.0</ele><time>2026-04-26T08:35:26.394Z</time></trkpt><trkpt lat="44.5529836" lon="7.9218208"><ele>239.0</ele><time>2026-04-26T08:35:27.389Z</time></trkpt><trkpt lat="44.5527729" lon="7.9218212"><ele>239.0</ele><time>2026-04-26T08:35:28.392Z</time></trkpt><trkpt lat="44.5525708" lon="7.9218168"><ele>240.0</ele><time>2026-04-26T08:35:29.385Z</time></trkpt><trkpt lat="44.5523629" lon="7.9218295"><ele>241.0</ele><time>2026-04-26T08:35:30.403Z</time></trkpt><trkpt lat="44.5521525" lon="7.9218405"><ele>242.0</ele><time>2026-04-26T08:35:31.381Z</time></trkpt><trkpt lat="44.5519382" lon="7.9218612"><ele>242.33333333333334</ele><time>2026-04-26T08:35:32.385Z</time></trkpt><trkpt lat="44.5517193" lon="7.9218904"><ele>242.66666666666669</ele><time>2026-04-26T08:35:33.386Z</time></trkpt><trkpt lat="44.5514991" lon="7.9219317"><ele>243.0</ele><time>2026-04-26T08:35:34.394Z</time></trkpt><trkpt lat="44.5512758" lon="7.9219832"><ele>243.0</ele><time>2026-04-26T08:35:35.395Z</time></trkpt><trkpt lat="44.5510509" lon="7.9220383"><ele>243.0</ele><time>2026-04-26T08:35:36.382Z</time></trkpt><trkpt lat="44.550828" lon="7.9220902"><ele>243.0</ele><time>2026-04-26T08:35:37.414Z</time></trkpt><trkpt lat="44.5506027" lon="7.9221585"><ele>243.0</ele><time>2026-04-26T08:35:38.387Z</time></trkpt><trkpt lat="44.5503822" lon="7.9222456"><ele>243.0</ele><time>2026-04-26T08:35:39.385Z</time></trkpt><trkpt lat="44.5501568" lon="7.9223423"><ele>243.0</ele><time>2026-04-26T08:35:40.388Z</time></trkpt><trkpt lat="44.549941" lon="7.9224473"><ele>243.0</ele><time>2026-04-26T08:35:41.403Z</time></trkpt><trkpt lat="44.549732" lon="7.922546"><ele>243.0</ele><time>2026-04-26T08:35:42.392Z</time></trkpt><trkpt lat="44.5495337" lon="7.9226418"><ele>243.0</ele><time>2026-04-26T08:35:43.378Z</time></trkpt><trkpt lat="44.5493475" lon="7.9227481"><ele>243.33333333333331</ele><time>2026-04-26T08:35:44.383Z</time></trkpt><trkpt lat="44.5491653" lon="7.9228603"><ele>243.66666666666666</ele><time>2026-04-26T08:35:45.395Z</time></trkpt><trkpt lat="44.5489867" lon="7.9229745"><ele>244.0</ele><time>2026-04-26T08:35:46.392Z</time></trkpt><trkpt lat="44.5488138" lon="7.9230873"><ele>244.66666666666666</ele><time>2026-04-26T08:35:47.382Z</time></trkpt><trkpt lat="44.5486451" lon="7.9232069"><ele>245.33333333333331</ele><time>2026-04-26T08:35:48.394Z</time></trkpt><trkpt lat="44.54848" lon="7.9233176"><ele>246.0</ele><time>2026-04-26T08:35:49.388Z</time></trkpt><trkpt lat="44.5483171" lon="7.9234324"><ele>246.75</ele><time>2026-04-26T08:35:50.389Z</time></trkpt><trkpt lat="44.5481653" lon="7.923532"><ele>247.5</ele><time>2026-04-26T08:35:51.388Z</time></trkpt><trkpt lat="44.5480343" lon="7.9236048"><ele>248.25</ele><time>2026-04-26T08:35:52.388Z</time></trkpt><trkpt lat="44.547925" lon="7.9236608"><ele>249.0</ele><time>2026-04-26T08:35:53.377Z</time></trkpt><trkpt lat="44.5478309" lon="7.9237247"><ele>249.25</ele><time>2026-04-26T08:35:54.384Z</time></trkpt><trkpt lat="44.5477354" lon="7.9238338"><ele>249.5</ele><time>2026-04-26T08:35:55.381Z</time></trkpt><trkpt lat="44.5476188" lon="7.923951"><ele>249.75</ele><time>2026-04-26T08:35:56.379Z</time></trkpt><trkpt lat="44.5474951" lon="7.9240566"><ele>250.0</ele><time>2026-04-26T08:35:57.393Z</time></trkpt><trkpt lat="44.5473608" lon="7.9241653"><ele>251.66666666666666</ele><time>2026-04-26T08:35:58.383Z</time></trkpt><trkpt lat="44.5472269" lon="7.9242644"><ele>253.33333333333331</ele><time>2026-04-26T08:35:59.391Z</time></trkpt><trkpt lat="44.5470873" lon="7.9243857"><ele>255.0</ele><time>2026-04-26T08:36:00.399Z</time></trkpt><trkpt lat="44.5469371" lon="7.9245007"><ele>255.0</ele><time>2026-04-26T08:36:01.387Z</time></trkpt><trkpt lat="44.5467866" lon="7.9246155"><ele>255.0</ele><time>2026-04-26T08:36:02.383Z</time></trkpt><trkpt lat="44.546634" lon="7.9247389"><ele>255.0</ele><time>2026-04-26T08:36:03.382Z</time></trkpt><trkpt lat="44.5464797" lon="7.9248631"><ele>255.0</ele><time>2026-04-26T08:36:04.382Z</time></trkpt><trkpt lat="44.5463241" lon="7.924991"><ele>255.0</ele><time>2026-04-26T08:36:05.38Z</time></trkpt><trkpt lat="44.5461643" lon="7.9251133"><ele>255.0</ele><time>2026-04-26T08:36:06.413Z</time></trkpt><trkpt lat="44.546007" lon="7.9252345"><ele>259.3333333333333</ele><time>2026-04-26T08:36:07.387Z</time></trkpt><trkpt lat="44.5458562" lon="7.9253622"><ele>263.66666666666663</ele><time>2026-04-26T08:36:08.378Z</time></trkpt><trkpt lat="44.5456999" lon="7.9254847"><ele>268.0</ele><time>2026-04-26T08:36:09.402Z</time></trkpt><trkpt lat="44.5455525" lon="7.9256143"><ele>268.0</ele><time>2026-04-26T08:36:10.381Z</time></trkpt><trkpt lat="44.5453928" lon="7.9257364"><ele>268.0</ele><time>2026-04-26T08:36:11.38Z</time></trkpt><trkpt lat="44.5452373" lon="7.9258538"><ele>268.0</ele><time>2026-04-26T08:36:12.386Z</time></trkpt><trkpt lat="44.5450835" lon="7.9259671"><ele>268.0</ele><time>2026-04-26T08:36:13.395Z</time></trkpt><trkpt lat="44.5449212" lon="7.9260926"><ele>268.0</ele><time>2026-04-26T08:36:14.397Z</time></trkpt><trkpt lat="44.5447606" lon="7.9262239"><ele>268.0</ele><time>2026-04-26T08:36:15.385Z</time></trkpt><trkpt lat="44.5445805" lon="7.9263661"><ele>267.0</ele><time>2026-04-26T08:36:16.382Z</time></trkpt><trkpt lat="44.5444004" lon="7.9265109"><ele>266.0</ele><time>2026-04-26T08:36:17.387Z</time></trkpt><trkpt lat="44.5442176" lon="7.9266535"><ele>265.0</ele><time>2026-04-26T08:36:18.406Z</time></trkpt><trkpt lat="44.544034" lon="7.9267965"><ele>265.0</ele><time>2026-04-26T08:36:19.386Z</time></trkpt><trkpt lat="44.5438475" lon="7.926938"><ele>265.0</ele><time>2026-04-26T08:36:20.384Z</time></trkpt><trkpt lat="44.5436674" lon="7.9270815"><ele>265.0</ele><time>2026-04-26T08:36:21.387Z</time></trkpt><trkpt lat="44.5434922" lon="7.9272217"><ele>265.0</ele><time>2026-04-26T08:36:22.429Z</time></trkpt><trkpt lat="44.5433168" lon="7.9273628"><ele>265.0</ele><time>2026-04-26T08:36:23.391Z</time></trkpt><trkpt lat="44.5431311" lon="7.9275096"><ele>265.0</ele><time>2026-04-26T08:36:24.393Z</time></trkpt><trkpt lat="44.5429493" lon="7.9276484"><ele>263.66666666666663</ele><time>2026-04-26T08:36:25.385Z</time></trkpt><trkpt lat="44.5427738" lon="7.9277853"><ele>262.3333333333333</ele><time>2026-04-26T08:36:26.381Z</time></trkpt><trkpt lat="44.5426092" lon="7.9279235"><ele>261.0</ele><time>2026-04-26T08:36:27.393Z</time></trkpt><trkpt lat="44.5424482" lon="7.9280628"><ele>261.0</ele><time>2026-04-26T08:36:28.39Z</time></trkpt><trkpt lat="44.5422836" lon="7.9281961"><ele>261.0</ele><time>2026-04-26T08:36:29.382Z</time></trkpt><trkpt lat="44.5421147" lon="7.9283321"><ele>261.0</ele><time>2026-04-26T08:36:30.388Z</time></trkpt><trkpt lat="44.5419552" lon="7.9284716"><ele>262.0</ele><time>2026-04-26T08:36:31.391Z</time></trkpt><trkpt lat="44.5417939" lon="7.9286175"><ele>263.0</ele><time>2026-04-26T08:36:32.41Z</time></trkpt><trkpt lat="44.5416404" lon="7.9287751"><ele>264.0</ele><time>2026-04-26T08:36:33.385Z</time></trkpt><trkpt lat="44.5414875" lon="7.9289359"><ele>264.0</ele><time>2026-04-26T08:36:34.384Z</time></trkpt><trkpt lat="44.5413393" lon="7.9290981"><ele>264.0</ele><time>2026-04-26T08:36:35.381Z</time></trkpt><trkpt lat="44.5411944" lon="7.9292713"><ele>264.0</ele><time>2026-04-26T08:36:36.381Z</time></trkpt><trkpt lat="44.5410491" lon="7.9294443"><ele>263.6666666666667</ele><time>2026-04-26T08:36:37.392Z</time></trkpt><trkpt lat="44.5409063" lon="7.929608"><ele>263.33333333333337</ele><time>2026-04-26T08:36:38.393Z</time></trkpt><trkpt lat="44.5407611" lon="7.9297706"><ele>263.0</ele><time>2026-04-26T08:36:39.384Z</time></trkpt><trkpt lat="44.540621" lon="7.9299317"><ele>263.6666666666667</ele><time>2026-04-26T08:36:40.386Z</time></trkpt><trkpt lat="44.5404792" lon="7.9300934"><ele>264.3333333333333</ele><time>2026-04-26T08:36:41.383Z</time></trkpt><trkpt lat="44.5403379" lon="7.9302541"><ele>265.0</ele><time>2026-04-26T08:36:42.397Z</time></trkpt><trkpt lat="44.5401964" lon="7.9304153"><ele>265.0</ele><time>2026-04-26T08:36:43.39Z</time></trkpt><trkpt lat="44.5400591" lon="7.9305762"><ele>265.0</ele><time>2026-04-26T08:36:44.382Z</time></trkpt><trkpt lat="44.5399288" lon="7.930734"><ele>265.0</ele><time>2026-04-26T08:36:45.384Z</time></trkpt><trkpt lat="44.5397999" lon="7.9308823"><ele>265.66666666666663</ele><time>2026-04-26T08:36:46.385Z</time></trkpt><trkpt lat="44.5396787" lon="7.9310222"><ele>266.3333333333333</ele><time>2026-04-26T08:36:47.385Z</time></trkpt><trkpt lat="44.5395548" lon="7.9311579"><ele>267.0</ele><time>2026-04-26T08:36:48.407Z</time></trkpt><trkpt lat="44.539436" lon="7.9312911"><ele>267.0</ele><time>2026-04-26T08:36:49.387Z</time></trkpt><trkpt lat="44.5393195" lon="7.9314328"><ele>267.0</ele><time>2026-04-26T08:36:50.388Z</time></trkpt><trkpt lat="44.5391984" lon="7.9315718"><ele>267.0</ele><time>2026-04-26T08:36:51.39Z</time></trkpt><trkpt lat="44.539072" lon="7.9317096"><ele>266.6666666666667</ele><time>2026-04-26T08:36:52.396Z</time></trkpt><trkpt lat="44.5389431" lon="7.9318584"><ele>266.33333333333337</ele><time>2026-04-26T08:36:53.376Z</time></trkpt><trkpt lat="44.5388162" lon="7.9320104"><ele>266.0</ele><time>2026-04-26T08:36:54.376Z</time></trkpt><trkpt lat="44.5386978" lon="7.9321508"><ele>266.0</ele><time>2026-04-26T08:36:55.375Z</time></trkpt><trkpt lat="44.5385831" lon="7.932295"><ele>266.0</ele><time>2026-04-26T08:36:56.38Z</time></trkpt><trkpt lat="44.5384671" lon="7.9324322"><ele>266.0</ele><time>2026-04-26T08:36:57.388Z</time></trkpt><trkpt lat="44.5383425" lon="7.9325727"><ele>268.6666666666667</ele><time>2026-04-26T08:36:58.391Z</time></trkpt><trkpt lat="44.5382184" lon="7.9327114"><ele>271.3333333333333</ele><time>2026-04-26T08:36:59.379Z</time></trkpt><trkpt lat="44.538099" lon="7.9328478"><ele>274.0</ele><time>2026-04-26T08:37:00.375Z</time></trkpt><trkpt lat="44.5379813" lon="7.9329841"><ele>273.25</ele><time>2026-04-26T08:37:01.392Z</time></trkpt><trkpt lat="44.5378678" lon="7.9331162"><ele>272.5</ele><time>2026-04-26T08:37:02.381Z</time></trkpt><trkpt lat="44.5377561" lon="7.9332431"><ele>271.75</ele><time>2026-04-26T08:37:03.38Z</time></trkpt><trkpt lat="44.5376428" lon="7.9333744"><ele>271.0</ele><time>2026-04-26T08:37:04.38Z</time></trkpt><trkpt lat="44.5375322" lon="7.9335103"><ele>271.0</ele><time>2026-04-26T08:37:05.391Z</time></trkpt><trkpt lat="44.5374172" lon="7.933645"><ele>271.0</ele><time>2026-04-26T08:37:06.381Z</time></trkpt><trkpt lat="44.5373156" lon="7.9337798"><ele>271.0</ele><time>2026-04-26T08:37:07.383Z</time></trkpt><trkpt lat="44.5372137" lon="7.9339197"><ele>271.0</ele><time>2026-04-26T08:37:08.39Z</time></trkpt><trkpt lat="44.5371204" lon="7.9340561"><ele>270.75</ele><time>2026-04-26T08:37:09.387Z</time></trkpt><trkpt lat="44.5370179" lon="7.9341997"><ele>270.5</ele><time>2026-04-26T08:37:10.376Z</time></trkpt><trkpt lat="44.5369187" lon="7.9343432"><ele>270.25</ele><time>2026-04-26T08:37:11.39Z</time></trkpt><trkpt lat="44.5368251" lon="7.9344821"><ele>270.0</ele><time>2026-04-26T08:37:12.381Z</time></trkpt><trkpt lat="44.5367334" lon="7.9346155"><ele>270.4</ele><time>2026-04-26T08:37:13.379Z</time></trkpt><trkpt lat="44.5366485" lon="7.9347303"><ele>270.8</ele><time>2026-04-26T08:37:14.388Z</time></trkpt><trkpt lat="44.5365852" lon="7.9348322"><ele>271.2</ele><time>2026-04-26T08:37:15.394Z</time></trkpt><trkpt lat="44.5365342" lon="7.9349013"><ele>271.6</ele><time>2026-04-26T08:37:16.384Z</time></trkpt><trkpt lat="44.5364502" lon="7.9349984"><ele>272.0</ele><time>2026-04-26T08:37:18.383Z</time></trkpt><trkpt lat="44.5363533" lon="7.9350533"><ele>272.0</ele><time>2026-04-26T08:37:20.393Z</time></trkpt><trkpt lat="44.5362567" lon="7.9351404"><ele>272.0</ele><time>2026-04-26T08:37:22.39Z</time></trkpt><trkpt lat="44.5361976" lon="7.9352973"><ele>272.0</ele><time>2026-04-26T08:37:24.393Z</time></trkpt><trkpt lat="44.5361801" lon="7.9353873"><ele>272.0</ele><time>2026-04-26T08:37:25.393Z</time></trkpt><trkpt lat="44.5361459" lon="7.9354882"><ele>272.0</ele><time>2026-04-26T08:37:26.382Z</time></trkpt><trkpt lat="44.5360917" lon="7.9355996"><ele>272.0</ele><time>2026-04-26T08:37:27.396Z</time></trkpt><trkpt lat="44.5360156" lon="7.9357116"><ele>272.0</ele><time>2026-04-26T08:37:28.382Z</time></trkpt><trkpt lat="44.5359379" lon="7.9358436"><ele>272.0</ele><time>2026-04-26T08:37:29.394Z</time></trkpt><trkpt lat="44.5358397" lon="7.936006"><ele>272.0</ele><time>2026-04-26T08:37:30.384Z</time></trkpt><trkpt lat="44.5357148" lon="7.936202"><ele>272.6666666666667</ele><time>2026-04-26T08:37:31.396Z</time></trkpt><trkpt lat="44.5355778" lon="7.9363934"><ele>273.3333333333333</ele><time>2026-04-26T08:37:32.383Z</time></trkpt><trkpt lat="44.5354355" lon="7.9365847"><ele>274.0</ele><time>2026-04-26T08:37:33.383Z</time></trkpt><trkpt lat="44.53531" lon="7.9367647"><ele>274.66666666666663</ele><time>2026-04-26T08:37:34.397Z</time></trkpt><trkpt lat="44.5351863" lon="7.9369499"><ele>275.3333333333333</ele><time>2026-04-26T08:37:35.418Z</time></trkpt><trkpt lat="44.5350746" lon="7.9371299"><ele>276.0</ele><time>2026-04-26T08:37:36.399Z</time></trkpt><trkpt lat="44.5349563" lon="7.9373036"><ele>276.0</ele><time>2026-04-26T08:37:37.378Z</time></trkpt><trkpt lat="44.5348413" lon="7.9374805"><ele>276.0</ele><time>2026-04-26T08:37:38.388Z</time></trkpt><trkpt lat="44.5347201" lon="7.9376683"><ele>276.0</ele><time>2026-04-26T08:37:39.386Z</time></trkpt><trkpt lat="44.5345981" lon="7.9378567"><ele>276.0</ele><time>2026-04-26T08:37:40.383Z</time></trkpt><trkpt lat="44.5344807" lon="7.9380414"><ele>276.0</ele><time>2026-04-26T08:37:41.396Z</time></trkpt><trkpt lat="44.5343609" lon="7.9382296"><ele>276.0</ele><time>2026-04-26T08:37:42.39Z</time></trkpt><trkpt lat="44.5342428" lon="7.9384047"><ele>277.3333333333333</ele><time>2026-04-26T08:37:43.38Z</time></trkpt><trkpt lat="44.5341209" lon="7.9385911"><ele>278.66666666666663</ele><time>2026-04-26T08:37:44.381Z</time></trkpt><trkpt lat="44.5339967" lon="7.9387741"><ele>280.0</ele><time>2026-04-26T08:37:45.385Z</time></trkpt><trkpt lat="44.5338747" lon="7.9389603"><ele>280.0</ele><time>2026-04-26T08:37:46.384Z</time></trkpt><trkpt lat="44.5337487" lon="7.9391483"><ele>280.0</ele><time>2026-04-26T08:37:47.384Z</time></trkpt><trkpt lat="44.5336216" lon="7.9393356"><ele>280.0</ele><time>2026-04-26T08:37:48.39Z</time></trkpt><trkpt lat="44.5335003" lon="7.9395145"><ele>280.3333333333333</ele><time>2026-04-26T08:37:49.387Z</time></trkpt><trkpt lat="44.5333903" lon="7.939683"><ele>280.6666666666667</ele><time>2026-04-26T08:37:50.382Z</time></trkpt><trkpt lat="44.5332692" lon="7.9398537"><ele>281.0</ele><time>2026-04-26T08:37:51.377Z</time></trkpt><trkpt lat="44.53315" lon="7.940033"><ele>281.0</ele><time>2026-04-26T08:37:52.375Z</time></trkpt><trkpt lat="44.5330324" lon="7.9402118"><ele>281.0</ele><time>2026-04-26T08:37:53.385Z</time></trkpt><trkpt lat="44.5329209" lon="7.9403818"><ele>281.0</ele><time>2026-04-26T08:37:54.385Z</time></trkpt><trkpt lat="44.5328135" lon="7.9405565"><ele>281.0</ele><time>2026-04-26T08:37:55.389Z</time></trkpt><trkpt lat="44.5327161" lon="7.9407471"><ele>281.0</ele><time>2026-04-26T08:37:56.384Z</time></trkpt><trkpt lat="44.5326358" lon="7.9409441"><ele>281.0</ele><time>2026-04-26T08:37:57.379Z</time></trkpt><trkpt lat="44.5325811" lon="7.9411695"><ele>281.33333333333337</ele><time>2026-04-26T08:37:58.379Z</time></trkpt><trkpt lat="44.5325422" lon="7.9413958"><ele>281.6666666666667</ele><time>2026-04-26T08:37:59.38Z</time></trkpt><trkpt lat="44.532514" lon="7.9416341"><ele>282.0</ele><time>2026-04-26T08:38:00.39Z</time></trkpt><trkpt lat="44.5325077" lon="7.9418764"><ele>282.3333333333333</ele><time>2026-04-26T08:38:01.391Z</time></trkpt><trkpt lat="44.5325071" lon="7.9421144"><ele>282.66666666666663</ele><time>2026-04-26T08:38:02.38Z</time></trkpt><trkpt lat="44.532505" lon="7.9423501"><ele>283.0</ele><time>2026-04-26T08:38:03.392Z</time></trkpt><trkpt lat="44.5324995" lon="7.9425895"><ele>283.3333333333333</ele><time>2026-04-26T08:38:04.387Z</time></trkpt><trkpt lat="44.532488" lon="7.9428471"><ele>283.6666666666667</ele><time>2026-04-26T08:38:05.374Z</time></trkpt><trkpt lat="44.532484" lon="7.9431001"><ele>284.0</ele><time>2026-04-26T08:38:06.382Z</time></trkpt><trkpt lat="44.5324777" lon="7.9433459"><ele>284.0</ele><time>2026-04-26T08:38:07.391Z</time></trkpt><trkpt lat="44.5324698" lon="7.9435814"><ele>284.0</ele><time>2026-04-26T08:38:08.384Z</time></trkpt><trkpt lat="44.5324637" lon="7.9438288"><ele>284.0</ele><time>2026-04-26T08:38:09.391Z</time></trkpt><trkpt lat="44.5324599" lon="7.9440705"><ele>284.25</ele><time>2026-04-26T08:38:10.374Z</time></trkpt><trkpt lat="44.5324577" lon="7.9442849"><ele>284.5</ele><time>2026-04-26T08:38:11.39Z</time></trkpt><trkpt lat="44.5324579" lon="7.9444977"><ele>284.75</ele><time>2026-04-26T08:38:12.391Z</time></trkpt><trkpt lat="44.5324612" lon="7.9446977"><ele>285.0</ele><time>2026-04-26T08:38:13.391Z</time></trkpt><trkpt lat="44.5324563" lon="7.9448851"><ele>285.4</ele><time>2026-04-26T08:38:14.378Z</time></trkpt><trkpt lat="44.5324487" lon="7.9450581"><ele>285.8</ele><time>2026-04-26T08:38:15.374Z</time></trkpt><trkpt lat="44.5324339" lon="7.9452145"><ele>286.2</ele><time>2026-04-26T08:38:16.378Z</time></trkpt><trkpt lat="44.5324185" lon="7.9453504"><ele>286.6</ele><time>2026-04-26T08:38:17.391Z</time></trkpt><trkpt lat="44.5323955" lon="7.9454727"><ele>287.0</ele><time>2026-04-26T08:38:18.383Z</time></trkpt><trkpt lat="44.5323528" lon="7.9455629"><ele>287.0</ele><time>2026-04-26T08:38:19.379Z</time></trkpt><trkpt lat="44.5322834" lon="7.945614"><ele>287.0</ele><time>2026-04-26T08:38:20.381Z</time></trkpt><trkpt lat="44.5321938" lon="7.9456242"><ele>287.0</ele><time>2026-04-26T08:38:21.377Z</time></trkpt><trkpt lat="44.5320616" lon="7.945602"><ele>287.0</ele><time>2026-04-26T08:38:22.391Z</time></trkpt><trkpt lat="44.531915" lon="7.9455499"><ele>286.0</ele><time>2026-04-26T08:38:23.378Z</time></trkpt><trkpt lat="44.5317597" lon="7.9455306"><ele>285.0</ele><time>2026-04-26T08:38:24.384Z</time></trkpt><trkpt lat="44.5316018" lon="7.9454911"><ele>284.0</ele><time>2026-04-26T08:38:25.382Z</time></trkpt><trkpt lat="44.531442" lon="7.9454381"><ele>284.0</ele><time>2026-04-26T08:38:26.382Z</time></trkpt><trkpt lat="44.5312912" lon="7.945392"><ele>284.0</ele><time>2026-04-26T08:38:27.395Z</time></trkpt><trkpt lat="44.5311593" lon="7.9453549"><ele>284.0</ele><time>2026-04-26T08:38:28.391Z</time></trkpt><trkpt lat="44.5310345" lon="7.9453186"><ele>284.0</ele><time>2026-04-26T08:38:29.379Z</time></trkpt><trkpt lat="44.5309084" lon="7.9452805"><ele>284.5</ele><time>2026-04-26T08:38:30.418Z</time></trkpt><trkpt lat="44.530782" lon="7.9452413"><ele>285.0</ele><time>2026-04-26T08:38:31.377Z</time></trkpt><trkpt lat="44.5306586" lon="7.9452012"><ele>285.5</ele><time>2026-04-26T08:38:32.377Z</time></trkpt><trkpt lat="44.5305387" lon="7.9451642"><ele>286.0</ele><time>2026-04-26T08:38:33.373Z</time></trkpt><trkpt lat="44.5304642" lon="7.9450634"><ele>285.25</ele><time>2026-04-26T08:38:34.376Z</time></trkpt><trkpt lat="44.5304212" lon="7.9449138"><ele>284.5</ele><time>2026-04-26T08:38:35.402Z</time></trkpt><trkpt lat="44.5303998" lon="7.9447152"><ele>283.75</ele><time>2026-04-26T08:38:36.398Z</time></trkpt><trkpt lat="44.5303982" lon="7.9444959"><ele>283.0</ele><time>2026-04-26T08:38:37.38Z</time></trkpt><trkpt lat="44.530392" lon="7.9442672"><ele>285.0</ele><time>2026-04-26T08:38:38.389Z</time></trkpt><trkpt lat="44.5303819" lon="7.9440406"><ele>287.0</ele><time>2026-04-26T08:38:39.39Z</time></trkpt><trkpt lat="44.5303781" lon="7.9437987"><ele>289.0</ele><time>2026-04-26T08:38:40.375Z</time></trkpt><trkpt lat="44.530363" lon="7.9435741"><ele>289.0</ele><time>2026-04-26T08:38:41.381Z</time></trkpt><trkpt lat="44.5303455" lon="7.943349"><ele>289.0</ele><time>2026-04-26T08:38:42.402Z</time></trkpt><trkpt lat="44.5303269" lon="7.9431529"><ele>289.0</ele><time>2026-04-26T08:38:43.388Z</time></trkpt><trkpt lat="44.5302973" lon="7.9429772"><ele>289.0</ele><time>2026-04-26T08:38:44.372Z</time></trkpt><trkpt lat="44.5302184" lon="7.9428815"><ele>289.0</ele><time>2026-04-26T08:38:45.388Z</time></trkpt><trkpt lat="44.5300865" lon="7.9428063"><ele>289.0</ele><time>2026-04-26T08:38:46.387Z</time></trkpt><trkpt lat="44.5299599" lon="7.9427906"><ele>289.0</ele><time>2026-04-26T08:38:47.374Z</time></trkpt><trkpt lat="44.5298174" lon="7.9428303"><ele>289.0</ele><time>2026-04-26T08:38:48.399Z</time></trkpt><trkpt lat="44.5297028" lon="7.9429287"><ele>289.0</ele><time>2026-04-26T08:38:49.383Z</time></trkpt><trkpt lat="44.529614" lon="7.943081"><ele>289.0</ele><time>2026-04-26T08:38:50.393Z</time></trkpt><trkpt lat="44.5295712" lon="7.9432435"><ele>289.0</ele><time>2026-04-26T08:38:51.376Z</time></trkpt><trkpt lat="44.5295582" lon="7.9434524"><ele>289.0</ele><time>2026-04-26T08:38:52.374Z</time></trkpt><trkpt lat="44.5295421" lon="7.9436735"><ele>297.66666666666663</ele><time>2026-04-26T08:38:53.373Z</time></trkpt><trkpt lat="44.5295215" lon="7.9439116"><ele>306.3333333333333</ele><time>2026-04-26T08:38:54.387Z</time></trkpt><trkpt lat="44.5294901" lon="7.9441452"><ele>315.0</ele><time>2026-04-26T08:38:55.387Z</time></trkpt><trkpt lat="44.5294701" lon="7.944357"><ele>316.0</ele><time>2026-04-26T08:38:56.378Z</time></trkpt><trkpt lat="44.529448" lon="7.9445582"><ele>317.0</ele><time>2026-04-26T08:38:57.374Z</time></trkpt><trkpt lat="44.529436" lon="7.9447391"><ele>318.0</ele><time>2026-04-26T08:38:58.388Z</time></trkpt><trkpt lat="44.529422" lon="7.9449118"><ele>319.0</ele><time>2026-04-26T08:38:59.381Z</time></trkpt><trkpt lat="44.5294118" lon="7.9450727"><ele>317.0</ele><time>2026-04-26T08:39:00.378Z</time></trkpt><trkpt lat="44.5294007" lon="7.9452197"><ele>315.0</ele><time>2026-04-26T08:39:01.381Z</time></trkpt><trkpt lat="44.5293829" lon="7.9453454"><ele>313.0</ele><time>2026-04-26T08:39:02.392Z</time></trkpt><trkpt lat="44.5293475" lon="7.9454761"><ele>311.0</ele><time>2026-04-26T08:39:03.381Z</time></trkpt><trkpt lat="44.5292836" lon="7.945588"><ele>309.0</ele><time>2026-04-26T08:39:04.386Z</time></trkpt><trkpt lat="44.5292061" lon="7.9456755"><ele>309.0</ele><time>2026-04-26T08:39:05.388Z</time></trkpt><trkpt lat="44.5291189" lon="7.9457472"><ele>309.0</ele><time>2026-04-26T08:39:06.387Z</time></trkpt><trkpt lat="44.5290038" lon="7.9458388"><ele>309.0</ele><time>2026-04-26T08:39:07.393Z</time></trkpt><trkpt lat="44.5288796" lon="7.9459214"><ele>309.0</ele><time>2026-04-26T08:39:08.396Z</time></trkpt><trkpt lat="44.5287426" lon="7.9460231"><ele>312.3333333333333</ele><time>2026-04-26T08:39:09.395Z</time></trkpt><trkpt lat="44.5285894" lon="7.9461481"><ele>315.66666666666663</ele><time>2026-04-26T08:39:10.383Z</time></trkpt><trkpt lat="44.5284376" lon="7.9463165"><ele>319.0</ele><time>2026-04-26T08:39:11.379Z</time></trkpt><trkpt lat="44.5282914" lon="7.9465232"><ele>321.0</ele><time>2026-04-26T08:39:12.398Z</time></trkpt><trkpt lat="44.5281628" lon="7.9467434"><ele>323.0</ele><time>2026-04-26T08:39:13.38Z</time></trkpt><trkpt lat="44.5280497" lon="7.946946"><ele>325.0</ele><time>2026-04-26T08:39:14.382Z</time></trkpt><trkpt lat="44.5279281" lon="7.9471016"><ele>326.0</ele><time>2026-04-26T08:39:15.388Z</time></trkpt><trkpt lat="44.5277894" lon="7.9471696"><ele>327.0</ele><time>2026-04-26T08:39:16.373Z</time></trkpt><trkpt lat="44.5276539" lon="7.9472494"><ele>328.0</ele><time>2026-04-26T08:39:17.386Z</time></trkpt><trkpt lat="44.527541" lon="7.9473535"><ele>329.0</ele><time>2026-04-26T08:39:18.382Z</time></trkpt><trkpt lat="44.5274719" lon="7.9475051"><ele>330.25</ele><time>2026-04-26T08:39:19.394Z</time></trkpt><trkpt lat="44.5274473" lon="7.9476616"><ele>331.5</ele><time>2026-04-26T08:39:20.397Z</time></trkpt><trkpt lat="44.5274544" lon="7.9478432"><ele>332.75</ele><time>2026-04-26T08:39:21.383Z</time></trkpt><trkpt lat="44.5274474" lon="7.9480102"><ele>334.0</ele><time>2026-04-26T08:39:22.381Z</time></trkpt><trkpt lat="44.5274081" lon="7.9481704"><ele>334.0</ele><time>2026-04-26T08:39:23.386Z</time></trkpt><trkpt lat="44.5273315" lon="7.9482825"><ele>334.0</ele><time>2026-04-26T08:39:24.389Z</time></trkpt><trkpt lat="44.5272475" lon="7.9483188"><ele>334.0</ele><time>2026-04-26T08:39:25.38Z</time></trkpt><trkpt lat="44.5271878" lon="7.9482774"><ele>334.0</ele><time>2026-04-26T08:39:26.382Z</time></trkpt><trkpt lat="44.5271241" lon="7.9481954"><ele>334.0</ele><time>2026-04-26T08:39:27.377Z</time></trkpt><trkpt lat="44.5270442" lon="7.948131"><ele>334.0</ele><time>2026-04-26T08:39:28.389Z</time></trkpt><trkpt lat="44.5269409" lon="7.9480587"><ele>336.0</ele><time>2026-04-26T08:39:29.389Z</time></trkpt><trkpt lat="44.5268049" lon="7.947993"><ele>338.0</ele><time>2026-04-26T08:39:30.396Z</time></trkpt><trkpt lat="44.5266466" lon="7.9479314"><ele>340.0</ele><time>2026-04-26T08:39:31.403Z</time></trkpt><trkpt lat="44.5264797" lon="7.9478706"><ele>340.0</ele><time>2026-04-26T08:39:32.382Z</time></trkpt><trkpt lat="44.5263111" lon="7.9478227"><ele>340.0</ele><time>2026-04-26T08:39:33.389Z</time></trkpt><trkpt lat="44.5261493" lon="7.9477637"><ele>340.0</ele><time>2026-04-26T08:39:34.396Z</time></trkpt><trkpt lat="44.5260064" lon="7.9476943"><ele>341.3333333333333</ele><time>2026-04-26T08:39:35.399Z</time></trkpt><trkpt lat="44.5258701" lon="7.947604"><ele>342.6666666666667</ele><time>2026-04-26T08:39:36.397Z</time></trkpt><trkpt lat="44.5257498" lon="7.9474322"><ele>344.0</ele><time>2026-04-26T08:39:37.387Z</time></trkpt><trkpt lat="44.5256546" lon="7.9472043"><ele>344.0</ele><time>2026-04-26T08:39:38.377Z</time></trkpt><trkpt lat="44.5255652" lon="7.9469721"><ele>344.0</ele><time>2026-04-26T08:39:39.376Z</time></trkpt><trkpt lat="44.5254871" lon="7.9467112"><ele>344.0</ele><time>2026-04-26T08:39:40.394Z</time></trkpt><trkpt lat="44.5254093" lon="7.9464547"><ele>347.33333333333337</ele><time>2026-04-26T08:39:41.377Z</time></trkpt><trkpt lat="44.5253304" lon="7.9462092"><ele>350.6666666666667</ele><time>2026-04-26T08:39:42.399Z</time></trkpt><trkpt lat="44.5252516" lon="7.9459722"><ele>354.0</ele><time>2026-04-26T08:39:43.375Z</time></trkpt><trkpt lat="44.5251563" lon="7.9457692"><ele>354.0</ele><time>2026-04-26T08:39:44.392Z</time></trkpt><trkpt lat="44.5250438" lon="7.9455843"><ele>354.0</ele><time>2026-04-26T08:39:45.382Z</time></trkpt><trkpt lat="44.5249118" lon="7.9454157"><ele>354.0</ele><time>2026-04-26T08:39:46.389Z</time></trkpt><trkpt lat="44.5247735" lon="7.9452378"><ele>354.0</ele><time>2026-04-26T08:39:47.385Z</time></trkpt><trkpt lat="44.5246458" lon="7.945073"><ele>354.0</ele><time>2026-04-26T08:39:48.393Z</time></trkpt><trkpt lat="44.5245135" lon="7.9449098"><ele>354.0</ele><time>2026-04-26T08:39:49.389Z</time></trkpt><trkpt lat="44.5243912" lon="7.9447879"><ele>356.5</ele><time>2026-04-26T08:39:50.387Z</time></trkpt><trkpt lat="44.5242673" lon="7.9446793"><ele>359.0</ele><time>2026-04-26T08:39:51.382Z</time></trkpt><trkpt lat="44.524133" lon="7.9446252"><ele>361.5</ele><time>2026-04-26T08:39:52.385Z</time></trkpt><trkpt lat="44.5239719" lon="7.9446111"><ele>364.0</ele><time>2026-04-26T08:39:53.375Z</time></trkpt><trkpt lat="44.5238072" lon="7.9445739"><ele>367.66666666666663</ele><time>2026-04-26T08:39:54.378Z</time></trkpt><trkpt lat="44.5236343" lon="7.9445315"><ele>371.3333333333333</ele><time>2026-04-26T08:39:55.385Z</time></trkpt><trkpt lat="44.5234492" lon="7.9445133"><ele>375.0</ele><time>2026-04-26T08:39:56.397Z</time></trkpt><trkpt lat="44.5232573" lon="7.9444946"><ele>375.0</ele><time>2026-04-26T08:39:57.385Z</time></trkpt><trkpt lat="44.5230743" lon="7.9444775"><ele>375.0</ele><time>2026-04-26T08:39:58.378Z</time></trkpt><trkpt lat="44.5228967" lon="7.9444568"><ele>375.0</ele><time>2026-04-26T08:39:59.393Z</time></trkpt><trkpt lat="44.5227251" lon="7.9444376"><ele>377.6666666666667</ele><time>2026-04-26T08:40:00.391Z</time></trkpt><trkpt lat="44.5225668" lon="7.944414"><ele>380.33333333333337</ele><time>2026-04-26T08:40:01.386Z</time></trkpt><trkpt lat="44.5224171" lon="7.9443918"><ele>383.0</ele><time>2026-04-26T08:40:02.39Z</time></trkpt><trkpt lat="44.522273" lon="7.9443612"><ele>383.0</ele><time>2026-04-26T08:40:03.389Z</time></trkpt><trkpt lat="44.5221436" lon="7.944306"><ele>383.0</ele><time>2026-04-26T08:40:04.386Z</time></trkpt><trkpt lat="44.5220287" lon="7.9442288"><ele>383.0</ele><time>2026-04-26T08:40:05.394Z</time></trkpt><trkpt lat="44.521922" lon="7.9441481"><ele>383.0</ele><time>2026-04-26T08:40:06.385Z</time></trkpt><trkpt lat="44.5218376" lon="7.9440877"><ele>383.33333333333337</ele><time>2026-04-26T08:40:07.384Z</time></trkpt><trkpt lat="44.5217643" lon="7.944051"><ele>383.6666666666667</ele><time>2026-04-26T08:40:08.4Z</time></trkpt><trkpt lat="44.5216957" lon="7.9441539"><ele>384.0</ele><time>2026-04-26T08:40:10.399Z</time></trkpt><trkpt lat="44.5217129" lon="7.944239"><ele>384.33333333333337</ele><time>2026-04-26T08:40:11.402Z</time></trkpt><trkpt lat="44.521754" lon="7.944342"><ele>384.6666666666667</ele><time>2026-04-26T08:40:12.394Z</time></trkpt><trkpt lat="44.521807" lon="7.9444604"><ele>385.0</ele><time>2026-04-26T08:40:13.39Z</time></trkpt><trkpt lat="44.5218619" lon="7.9445961"><ele>387.25</ele><time>2026-04-26T08:40:14.398Z</time></trkpt><trkpt lat="44.5219348" lon="7.9447446"><ele>389.5</ele><time>2026-04-26T08:40:15.393Z</time></trkpt><trkpt lat="44.5220011" lon="7.9449098"><ele>391.75</ele><time>2026-04-26T08:40:16.385Z</time></trkpt><trkpt lat="44.5220642" lon="7.9450873"><ele>394.0</ele><time>2026-04-26T08:40:17.389Z</time></trkpt><trkpt lat="44.522133" lon="7.9452661"><ele>394.0</ele><time>2026-04-26T08:40:18.393Z</time></trkpt><trkpt lat="44.5222012" lon="7.9454592"><ele>394.0</ele><time>2026-04-26T08:40:19.402Z</time></trkpt><trkpt lat="44.5222681" lon="7.9456562"><ele>394.0</ele><time>2026-04-26T08:40:20.396Z</time></trkpt><trkpt lat="44.5223365" lon="7.9458539"><ele>396.5</ele><time>2026-04-26T08:40:21.385Z</time></trkpt><trkpt lat="44.522401" lon="7.9460367"><ele>399.0</ele><time>2026-04-26T08:40:22.39Z</time></trkpt><trkpt lat="44.5224614" lon="7.9461918"><ele>401.5</ele><time>2026-04-26T08:40:23.389Z</time></trkpt><trkpt lat="44.5225121" lon="7.9463165"><ele>404.0</ele><time>2026-04-26T08:40:24.383Z</time></trkpt><trkpt lat="44.5225564" lon="7.9464306"><ele>404.0</ele><time>2026-04-26T08:40:25.395Z</time></trkpt><trkpt lat="44.52259" lon="7.9465555"><ele>404.0</ele><time>2026-04-26T08:40:26.388Z</time></trkpt><trkpt lat="44.5225945" lon="7.9467099"><ele>404.0</ele><time>2026-04-26T08:40:27.382Z</time></trkpt><trkpt lat="44.5225668" lon="7.9468613"><ele>404.0</ele><time>2026-04-26T08:40:28.374Z</time></trkpt><trkpt lat="44.5225042" lon="7.9469987"><ele>404.0</ele><time>2026-04-26T08:40:29.401Z</time></trkpt><trkpt lat="44.522421" lon="7.9471268"><ele>405.25</ele><time>2026-04-26T08:40:30.408Z</time></trkpt><trkpt lat="44.5223291" lon="7.947252"><ele>406.5</ele><time>2026-04-26T08:40:31.388Z</time></trkpt><trkpt lat="44.5222257" lon="7.9473842"><ele>407.75</ele><time>2026-04-26T08:40:32.378Z</time></trkpt><trkpt lat="44.5221204" lon="7.9475233"><ele>409.0</ele><time>2026-04-26T08:40:33.387Z</time></trkpt><trkpt lat="44.5220104" lon="7.9476519"><ele>409.0</ele><time>2026-04-26T08:40:34.398Z</time></trkpt><trkpt lat="44.5218943" lon="7.9477943"><ele>409.0</ele><time>2026-04-26T08:40:35.387Z</time></trkpt><trkpt lat="44.5217832" lon="7.9479508"><ele>409.0</ele><time>2026-04-26T08:40:36.382Z</time></trkpt><trkpt lat="44.5216749" lon="7.9481294"><ele>409.0</ele><time>2026-04-26T08:40:37.398Z</time></trkpt><trkpt lat="44.5215826" lon="7.9483311"><ele>409.0</ele><time>2026-04-26T08:40:38.387Z</time></trkpt><trkpt lat="44.5215224" lon="7.9485434"><ele>409.0</ele><time>2026-04-26T08:40:39.373Z</time></trkpt><trkpt lat="44.5214946" lon="7.9487617"><ele>410.0</ele><time>2026-04-26T08:40:40.379Z</time></trkpt><trkpt lat="44.5214865" lon="7.9489973"><ele>411.0</ele><time>2026-04-26T08:40:41.382Z</time></trkpt><trkpt lat="44.5214654" lon="7.9492471"><ele>412.0</ele><time>2026-04-26T08:40:42.388Z</time></trkpt><trkpt lat="44.5214302" lon="7.9495006"><ele>412.6666666666667</ele><time>2026-04-26T08:40:43.388Z</time></trkpt><trkpt lat="44.5213887" lon="7.9497545"><ele>413.33333333333337</ele><time>2026-04-26T08:40:44.387Z</time></trkpt><trkpt lat="44.521349" lon="7.9500174"><ele>414.0</ele><time>2026-04-26T08:40:45.393Z</time></trkpt><trkpt lat="44.5213115" lon="7.9502818"><ele>415.33333333333337</ele><time>2026-04-26T08:40:46.384Z</time></trkpt><trkpt lat="44.5212879" lon="7.9505328"><ele>416.6666666666667</ele><time>2026-04-26T08:40:47.384Z</time></trkpt><trkpt lat="44.521291" lon="7.9507488"><ele>418.0</ele><time>2026-04-26T08:40:48.388Z</time></trkpt><trkpt lat="44.5213228" lon="7.9509169"><ele>418.5</ele><time>2026-04-26T08:40:49.392Z</time></trkpt><trkpt lat="44.521306" lon="7.9510784"><ele>419.0</ele><time>2026-04-26T08:40:50.384Z</time></trkpt><trkpt lat="44.5212413" lon="7.9512064"><ele>419.5</ele><time>2026-04-26T08:40:51.428Z</time></trkpt><trkpt lat="44.5211337" lon="7.9513076"><ele>420.0</ele><time>2026-04-26T08:40:52.383Z</time></trkpt><trkpt lat="44.5209907" lon="7.9513824"><ele>422.0</ele><time>2026-04-26T08:40:53.388Z</time></trkpt><trkpt lat="44.5208422" lon="7.9514912"><ele>424.0</ele><time>2026-04-26T08:40:54.399Z</time></trkpt><trkpt lat="44.5206839" lon="7.9516008"><ele>426.0</ele><time>2026-04-26T08:40:55.377Z</time></trkpt><trkpt lat="44.5205224" lon="7.9517256"><ele>431.66666666666663</ele><time>2026-04-26T08:40:56.401Z</time></trkpt><trkpt lat="44.5203539" lon="7.9518519"><ele>437.3333333333333</ele><time>2026-04-26T08:40:57.405Z</time></trkpt><trkpt lat="44.5201847" lon="7.9519873"><ele>443.0</ele><time>2026-04-26T08:40:58.394Z</time></trkpt><trkpt lat="44.5200291" lon="7.9521234"><ele>443.0</ele><time>2026-04-26T08:40:59.393Z</time></trkpt><trkpt lat="44.5198855" lon="7.9522815"><ele>443.0</ele><time>2026-04-26T08:41:00.402Z</time></trkpt><trkpt lat="44.5197589" lon="7.952492"><ele>443.0</ele><time>2026-04-26T08:41:01.393Z</time></trkpt><trkpt lat="44.5196328" lon="7.9527279"><ele>446.0</ele><time>2026-04-26T08:41:02.387Z</time></trkpt><trkpt lat="44.5194906" lon="7.9529784"><ele>449.0</ele><time>2026-04-26T08:41:03.388Z</time></trkpt><trkpt lat="44.5193588" lon="7.9532086"><ele>452.0</ele><time>2026-04-26T08:41:04.385Z</time></trkpt><trkpt lat="44.5192404" lon="7.9534216"><ele>452.0</ele><time>2026-04-26T08:41:05.381Z</time></trkpt><trkpt lat="44.519153" lon="7.9536574"><ele>452.0</ele><time>2026-04-26T08:41:06.377Z</time></trkpt><trkpt lat="44.5190876" lon="7.9539052"><ele>452.0</ele><time>2026-04-26T08:41:07.384Z</time></trkpt><trkpt lat="44.5190358" lon="7.9541674"><ele>452.3333333333333</ele><time>2026-04-26T08:41:08.376Z</time></trkpt><trkpt lat="44.5189832" lon="7.9544454"><ele>452.66666666666663</ele><time>2026-04-26T08:41:09.385Z</time></trkpt><trkpt lat="44.5189319" lon="7.9547315"><ele>453.0</ele><time>2026-04-26T08:41:10.39Z</time></trkpt><trkpt lat="44.5188835" lon="7.9550214"><ele>452.66666666666663</ele><time>2026-04-26T08:41:11.391Z</time></trkpt><trkpt lat="44.5188278" lon="7.9553197"><ele>452.3333333333333</ele><time>2026-04-26T08:41:12.383Z</time></trkpt><trkpt lat="44.5187752" lon="7.9556241"><ele>452.0</ele><time>2026-04-26T08:41:13.386Z</time></trkpt><trkpt lat="44.5187277" lon="7.955911"><ele>457.66666666666663</ele><time>2026-04-26T08:41:14.392Z</time></trkpt><trkpt lat="44.5186839" lon="7.9561491"><ele>463.33333333333337</ele><time>2026-04-26T08:41:15.388Z</time></trkpt><trkpt lat="44.518645" lon="7.9563591"><ele>469.0</ele><time>2026-04-26T08:41:16.376Z</time></trkpt><trkpt lat="44.5185776" lon="7.9565175"><ele>469.0</ele><time>2026-04-26T08:41:17.383Z</time></trkpt><trkpt lat="44.518477" lon="7.9566157"><ele>469.0</ele><time>2026-04-26T08:41:18.389Z</time></trkpt><trkpt lat="44.5183702" lon="7.9566797"><ele>469.0</ele><time>2026-04-26T08:41:19.377Z</time></trkpt><trkpt lat="44.5182612" lon="7.9567518"><ele>469.0</ele><time>2026-04-26T08:41:20.375Z</time></trkpt><trkpt lat="44.5181627" lon="7.9568658"><ele>471.6666666666667</ele><time>2026-04-26T08:41:21.39Z</time></trkpt><trkpt lat="44.5181086" lon="7.9570663"><ele>474.33333333333337</ele><time>2026-04-26T08:41:22.391Z</time></trkpt><trkpt lat="44.5180951" lon="7.9573502"><ele>477.0</ele><time>2026-04-26T08:41:23.381Z</time></trkpt><trkpt lat="44.5180575" lon="7.9576153"><ele>478.0</ele><time>2026-04-26T08:41:24.381Z</time></trkpt><trkpt lat="44.5180122" lon="7.9578843"><ele>479.0</ele><time>2026-04-26T08:41:25.386Z</time></trkpt><trkpt lat="44.5179478" lon="7.9581848"><ele>480.0</ele><time>2026-04-26T08:41:26.389Z</time></trkpt><trkpt lat="44.5178904" lon="7.9584707"><ele>480.0</ele><time>2026-04-26T08:41:27.384Z</time></trkpt><trkpt lat="44.5178309" lon="7.9587644"><ele>480.0</ele><time>2026-04-26T08:41:28.378Z</time></trkpt><trkpt lat="44.5177734" lon="7.9590523"><ele>480.0</ele><time>2026-04-26T08:41:29.374Z</time></trkpt><trkpt lat="44.5177032" lon="7.9593302"><ele>483.33333333333337</ele><time>2026-04-26T08:41:30.381Z</time></trkpt><trkpt lat="44.5176098" lon="7.9595982"><ele>486.6666666666667</ele><time>2026-04-26T08:41:31.385Z</time></trkpt><trkpt lat="44.5175188" lon="7.9598508"><ele>490.0</ele><time>2026-04-26T08:41:32.397Z</time></trkpt><trkpt lat="44.5174563" lon="7.9601119"><ele>493.6666666666667</ele><time>2026-04-26T08:41:33.378Z</time></trkpt><trkpt lat="44.5174051" lon="7.9603855"><ele>497.33333333333337</ele><time>2026-04-26T08:41:34.38Z</time></trkpt><trkpt lat="44.5173533" lon="7.9606144"><ele>501.0</ele><time>2026-04-26T08:41:35.39Z</time></trkpt><trkpt lat="44.5172643" lon="7.9608056"><ele>501.33333333333337</ele><time>2026-04-26T08:41:36.383Z</time></trkpt><trkpt lat="44.5171519" lon="7.960962"><ele>501.6666666666667</ele><time>2026-04-26T08:41:37.391Z</time></trkpt><trkpt lat="44.5170194" lon="7.9610788"><ele>502.0</ele><time>2026-04-26T08:41:38.38Z</time></trkpt><trkpt lat="44.5168609" lon="7.9611507"><ele>503.6666666666667</ele><time>2026-04-26T08:41:39.383Z</time></trkpt><trkpt lat="44.5166775" lon="7.961211"><ele>505.33333333333337</ele><time>2026-04-26T08:41:40.409Z</time></trkpt><trkpt lat="44.5164871" lon="7.9612419"><ele>507.0</ele><time>2026-04-26T08:41:41.376Z</time></trkpt><trkpt lat="44.5163099" lon="7.9612401"><ele>508.75</ele><time>2026-04-26T08:41:42.388Z</time></trkpt><trkpt lat="44.5161554" lon="7.9612279"><ele>510.5</ele><time>2026-04-26T08:41:43.383Z</time></trkpt><trkpt lat="44.5160111" lon="7.9612468"><ele>512.25</ele><time>2026-04-26T08:41:44.403Z</time></trkpt><trkpt lat="44.515877" lon="7.9613351"><ele>514.0</ele><time>2026-04-26T08:41:45.376Z</time></trkpt><trkpt lat="44.5157619" lon="7.9614575"><ele>514.0</ele><time>2026-04-26T08:41:46.385Z</time></trkpt><trkpt lat="44.515634" lon="7.9615822"><ele>514.0</ele><time>2026-04-26T08:41:47.388Z</time></trkpt><trkpt lat="44.5154793" lon="7.9616529"><ele>514.0</ele><time>2026-04-26T08:41:48.391Z</time></trkpt><trkpt lat="44.5152894" lon="7.9616347"><ele>516.3333333333334</ele><time>2026-04-26T08:41:49.381Z</time></trkpt><trkpt lat="44.51512" lon="7.9615703"><ele>518.6666666666666</ele><time>2026-04-26T08:41:50.377Z</time></trkpt><trkpt lat="44.5149711" lon="7.9614532"><ele>521.0</ele><time>2026-04-26T08:41:51.383Z</time></trkpt><trkpt lat="44.5148279" lon="7.9612766"><ele>521.0</ele><time>2026-04-26T08:41:52.381Z</time></trkpt><trkpt lat="44.5146877" lon="7.9610671"><ele>521.0</ele><time>2026-04-26T08:41:53.398Z</time></trkpt><trkpt lat="44.514551" lon="7.9608477"><ele>521.0</ele><time>2026-04-26T08:41:54.383Z</time></trkpt><trkpt lat="44.5144123" lon="7.9606206"><ele>524.0</ele><time>2026-04-26T08:41:55.388Z</time></trkpt><trkpt lat="44.5142702" lon="7.9604033"><ele>527.0</ele><time>2026-04-26T08:41:56.398Z</time></trkpt><trkpt lat="44.5141393" lon="7.9602198"><ele>530.0</ele><time>2026-04-26T08:41:57.378Z</time></trkpt><trkpt lat="44.5140141" lon="7.9600961"><ele>530.0</ele><time>2026-04-26T08:41:58.382Z</time></trkpt><trkpt lat="44.513873" lon="7.9600379"><ele>530.0</ele><time>2026-04-26T08:41:59.379Z</time></trkpt><trkpt lat="44.513737" lon="7.9600514"><ele>530.0</ele><time>2026-04-26T08:42:00.394Z</time></trkpt><trkpt lat="44.5135901" lon="7.9601124"><ele>530.0</ele><time>2026-04-26T08:42:01.39Z</time></trkpt><trkpt lat="44.5134142" lon="7.9602103"><ele>534.0</ele><time>2026-04-26T08:42:02.405Z</time></trkpt><trkpt lat="44.5132066" lon="7.9603006"><ele>538.0</ele><time>2026-04-26T08:42:03.388Z</time></trkpt><trkpt lat="44.5129794" lon="7.9603761"><ele>536.5</ele><time>2026-04-26T08:42:04.376Z</time></trkpt><trkpt lat="44.5127354" lon="7.9604419"><ele>535.0</ele><time>2026-04-26T08:42:05.381Z</time></trkpt><trkpt lat="44.5124774" lon="7.9605101"><ele>535.0</ele><time>2026-04-26T08:42:06.385Z</time></trkpt><trkpt lat="44.5122143" lon="7.9606037"><ele>535.0</ele><time>2026-04-26T08:42:07.384Z</time></trkpt><trkpt lat="44.5119494" lon="7.9606943"><ele>534.5</ele><time>2026-04-26T08:42:08.386Z</time></trkpt><trkpt lat="44.5116844" lon="7.9607902"><ele>534.0</ele><time>2026-04-26T08:42:09.399Z</time></trkpt><trkpt lat="44.5114278" lon="7.9608824"><ele>531.5</ele><time>2026-04-26T08:42:10.391Z</time></trkpt><trkpt lat="44.5111862" lon="7.960964"><ele>529.0</ele><time>2026-04-26T08:42:11.38Z</time></trkpt><trkpt lat="44.5109328" lon="7.9610435"><ele>529.0</ele><time>2026-04-26T08:42:12.396Z</time></trkpt><trkpt lat="44.5106734" lon="7.9611107"><ele>529.0</ele><time>2026-04-26T08:42:13.413Z</time></trkpt><trkpt lat="44.5104116" lon="7.9611755"><ele>535.5</ele><time>2026-04-26T08:42:14.4Z</time></trkpt><trkpt lat="44.5101594" lon="7.9612304"><ele>542.0</ele><time>2026-04-26T08:42:15.387Z</time></trkpt><trkpt lat="44.5099127" lon="7.9612693"><ele>542.0</ele><time>2026-04-26T08:42:16.382Z</time></trkpt><trkpt lat="44.5096716" lon="7.9613022"><ele>542.0</ele><time>2026-04-26T08:42:17.383Z</time></trkpt><trkpt lat="44.5094331" lon="7.961342"><ele>541.5</ele><time>2026-04-26T08:42:18.382Z</time></trkpt><trkpt lat="44.5091912" lon="7.96138"><ele>541.0</ele><time>2026-04-26T08:42:19.386Z</time></trkpt><trkpt lat="44.5089446" lon="7.9614163"><ele>539.5</ele><time>2026-04-26T08:42:20.384Z</time></trkpt><trkpt lat="44.5086934" lon="7.9614618"><ele>538.0</ele><time>2026-04-26T08:42:21.386Z</time></trkpt><trkpt lat="44.5084444" lon="7.961509"><ele>538.0</ele><time>2026-04-26T08:42:22.38Z</time></trkpt><trkpt lat="44.5081879" lon="7.9615581"><ele>538.0</ele><time>2026-04-26T08:42:23.392Z</time></trkpt><trkpt lat="44.5079256" lon="7.9616181"><ele>535.5</ele><time>2026-04-26T08:42:24.38Z</time></trkpt><trkpt lat="44.5076567" lon="7.9616829"><ele>533.0</ele><time>2026-04-26T08:42:25.385Z</time></trkpt><trkpt lat="44.5073919" lon="7.9617468"><ele>529.0</ele><time>2026-04-26T08:42:26.39Z</time></trkpt><trkpt lat="44.5071324" lon="7.9618127"><ele>525.0</ele><time>2026-04-26T08:42:27.38Z</time></trkpt><trkpt lat="44.5068677" lon="7.9618711"><ele>525.0</ele><time>2026-04-26T08:42:28.387Z</time></trkpt><trkpt lat="44.5066073" lon="7.9619351"><ele>525.0</ele><time>2026-04-26T08:42:29.39Z</time></trkpt><trkpt lat="44.5063475" lon="7.9620023"><ele>529.0</ele><time>2026-04-26T08:42:30.386Z</time></trkpt><trkpt lat="44.5060835" lon="7.9620721"><ele>533.0</ele><time>2026-04-26T08:42:31.403Z</time></trkpt><trkpt lat="44.5058361" lon="7.9621332"><ele>533.0</ele><time>2026-04-26T08:42:32.387Z</time></trkpt><trkpt lat="44.5056046" lon="7.9621862"><ele>533.0</ele><time>2026-04-26T08:42:33.387Z</time></trkpt><trkpt lat="44.5053891" lon="7.9622292"><ele>534.0</ele><time>2026-04-26T08:42:34.403Z</time></trkpt><trkpt lat="44.5051821" lon="7.9622493"><ele>535.0</ele><time>2026-04-26T08:42:35.394Z</time></trkpt><trkpt lat="44.5049706" lon="7.9622192"><ele>536.0</ele><time>2026-04-26T08:42:36.387Z</time></trkpt><trkpt lat="44.504755" lon="7.9621719"><ele>535.3333333333333</ele><time>2026-04-26T08:42:37.394Z</time></trkpt><trkpt lat="44.5045401" lon="7.9621376"><ele>534.6666666666666</ele><time>2026-04-26T08:42:38.386Z</time></trkpt><trkpt lat="44.5043234" lon="7.9621499"><ele>534.0</ele><time>2026-04-26T08:42:39.381Z</time></trkpt><trkpt lat="44.5040935" lon="7.9621935"><ele>534.0</ele><time>2026-04-26T08:42:40.378Z</time></trkpt><trkpt lat="44.5038535" lon="7.9622463"><ele>534.0</ele><time>2026-04-26T08:42:41.392Z</time></trkpt><trkpt lat="44.5036089" lon="7.9622986"><ele>539.0</ele><time>2026-04-26T08:42:42.383Z</time></trkpt><trkpt lat="44.503361" lon="7.9623698"><ele>544.0</ele><time>2026-04-26T08:42:43.383Z</time></trkpt><trkpt lat="44.5031316" lon="7.962471"><ele>543.5</ele><time>2026-04-26T08:42:44.383Z</time></trkpt><trkpt lat="44.502904" lon="7.9625993"><ele>543.0</ele><time>2026-04-26T08:42:45.401Z</time></trkpt><trkpt lat="44.5026856" lon="7.9627322"><ele>543.0</ele><time>2026-04-26T08:42:46.384Z</time></trkpt><trkpt lat="44.5024651" lon="7.962878"><ele>543.0</ele><time>2026-04-26T08:42:47.4Z</time></trkpt><trkpt lat="44.5022462" lon="7.9630247"><ele>550.5</ele><time>2026-04-26T08:42:48.373Z</time></trkpt><trkpt lat="44.5020286" lon="7.9631652"><ele>558.0</ele><time>2026-04-26T08:42:49.379Z</time></trkpt><trkpt lat="44.501812" lon="7.9632795"><ele>557.6666666666666</ele><time>2026-04-26T08:42:50.396Z</time></trkpt><trkpt lat="44.5015978" lon="7.9633717"><ele>557.3333333333333</ele><time>2026-04-26T08:42:51.422Z</time></trkpt><trkpt lat="44.5013859" lon="7.9634455"><ele>557.0</ele><time>2026-04-26T08:42:52.4Z</time></trkpt><trkpt lat="44.5011683" lon="7.9635077"><ele>562.3333333333333</ele><time>2026-04-26T08:42:53.389Z</time></trkpt><trkpt lat="44.50095" lon="7.963569"><ele>567.6666666666666</ele><time>2026-04-26T08:42:54.391Z</time></trkpt><trkpt lat="44.5007299" lon="7.9636352"><ele>573.0</ele><time>2026-04-26T08:42:55.387Z</time></trkpt><trkpt lat="44.5005108" lon="7.9636893"><ele>574.6666666666666</ele><time>2026-04-26T08:42:56.391Z</time></trkpt><trkpt lat="44.5003035" lon="7.9637001"><ele>576.3333333333333</ele><time>2026-04-26T08:42:57.4Z</time></trkpt><trkpt lat="44.5001123" lon="7.9636719"><ele>578.0</ele><time>2026-04-26T08:42:58.388Z</time></trkpt><trkpt lat="44.4999393" lon="7.963611"><ele>578.0</ele><time>2026-04-26T08:42:59.388Z</time></trkpt><trkpt lat="44.4997688" lon="7.9635038"><ele>578.0</ele><time>2026-04-26T08:43:00.398Z</time></trkpt><trkpt lat="44.499608" lon="7.963392"><ele>578.0</ele><time>2026-04-26T08:43:01.387Z</time></trkpt><trkpt lat="44.4994743" lon="7.9632984"><ele>577.8</ele><time>2026-04-26T08:43:02.381Z</time></trkpt><trkpt lat="44.4993757" lon="7.9632301"><ele>577.5999999999999</ele><time>2026-04-26T08:43:03.38Z</time></trkpt><trkpt lat="44.4993087" lon="7.9632181"><ele>577.4000000000001</ele><time>2026-04-26T08:43:04.378Z</time></trkpt><trkpt lat="44.4992309" lon="7.9633465"><ele>577.2</ele><time>2026-04-26T08:43:06.377Z</time></trkpt><trkpt lat="44.499262" lon="7.9635009"><ele>577.0</ele><time>2026-04-26T08:43:07.38Z</time></trkpt><trkpt lat="44.4992965" lon="7.9636887"><ele>577.0</ele><time>2026-04-26T08:43:08.387Z</time></trkpt><trkpt lat="44.4993463" lon="7.9638737"><ele>577.0</ele><time>2026-04-26T08:43:09.378Z</time></trkpt><trkpt lat="44.4993631" lon="7.9640787"><ele>577.0</ele><time>2026-04-26T08:43:10.381Z</time></trkpt><trkpt lat="44.4993752" lon="7.9643106"><ele>577.6666666666667</ele><time>2026-04-26T08:43:11.383Z</time></trkpt><trkpt lat="44.4994031" lon="7.964559"><ele>578.3333333333334</ele><time>2026-04-26T08:43:12.417Z</time></trkpt><trkpt lat="44.4994523" lon="7.9648211"><ele>579.0</ele><time>2026-04-26T08:43:13.373Z</time></trkpt><trkpt lat="44.4995112" lon="7.9650559"><ele>579.0</ele><time>2026-04-26T08:43:14.384Z</time></trkpt><trkpt lat="44.4995584" lon="7.9652621"><ele>579.0</ele><time>2026-04-26T08:43:15.382Z</time></trkpt><trkpt lat="44.4995516" lon="7.9654577"><ele>579.0</ele><time>2026-04-26T08:43:16.391Z</time></trkpt><trkpt lat="44.4995093" lon="7.9656407"><ele>579.0</ele><time>2026-04-26T08:43:17.379Z</time></trkpt><trkpt lat="44.4994239" lon="7.9657775"><ele>583.3333333333334</ele><time>2026-04-26T08:43:18.404Z</time></trkpt><trkpt lat="44.4993027" lon="7.9659324"><ele>587.6666666666667</ele><time>2026-04-26T08:43:19.379Z</time></trkpt><trkpt lat="44.4991814" lon="7.9660932"><ele>592.0</ele><time>2026-04-26T08:43:20.38Z</time></trkpt><trkpt lat="44.499068" lon="7.9662696"><ele>592.0</ele><time>2026-04-26T08:43:21.379Z</time></trkpt><trkpt lat="44.498951" lon="7.9664368"><ele>592.0</ele><time>2026-04-26T08:43:22.38Z</time></trkpt><trkpt lat="44.4988356" lon="7.9666047"><ele>592.0</ele><time>2026-04-26T08:43:23.382Z</time></trkpt><trkpt lat="44.4987071" lon="7.9667673"><ele>592.0</ele><time>2026-04-26T08:43:24.387Z</time></trkpt><trkpt lat="44.4985577" lon="7.9669191"><ele>592.0</ele><time>2026-04-26T08:43:25.38Z</time></trkpt><trkpt lat="44.4983965" lon="7.9670798"><ele>592.0</ele><time>2026-04-26T08:43:26.399Z</time></trkpt><trkpt lat="44.4982312" lon="7.9672425"><ele>592.0</ele><time>2026-04-26T08:43:27.392Z</time></trkpt><trkpt lat="44.4980627" lon="7.9674293"><ele>592.0</ele><time>2026-04-26T08:43:28.381Z</time></trkpt><trkpt lat="44.497898" lon="7.9676147"><ele>592.0</ele><time>2026-04-26T08:43:29.382Z</time></trkpt><trkpt lat="44.4977498" lon="7.9678034"><ele>592.0</ele><time>2026-04-26T08:43:30.377Z</time></trkpt><trkpt lat="44.4975995" lon="7.9679756"><ele>592.0</ele><time>2026-04-26T08:43:31.382Z</time></trkpt><trkpt lat="44.4974586" lon="7.9681485"><ele>592.0</ele><time>2026-04-26T08:43:32.381Z</time></trkpt><trkpt lat="44.497317" lon="7.9683042"><ele>591.6666666666667</ele><time>2026-04-26T08:43:33.378Z</time></trkpt><trkpt lat="44.4971691" lon="7.9684521"><ele>591.3333333333334</ele><time>2026-04-26T08:43:34.379Z</time></trkpt><trkpt lat="44.4970284" lon="7.9685917"><ele>591.0</ele><time>2026-04-26T08:43:35.376Z</time></trkpt><trkpt lat="44.4968876" lon="7.9687192"><ele>591.0</ele><time>2026-04-26T08:43:36.385Z</time></trkpt><trkpt lat="44.4967481" lon="7.9688442"><ele>591.0</ele><time>2026-04-26T08:43:37.384Z</time></trkpt><trkpt lat="44.4966035" lon="7.9689775"><ele>591.0</ele><time>2026-04-26T08:43:38.391Z</time></trkpt><trkpt lat="44.496457" lon="7.9690975"><ele>592.0</ele><time>2026-04-26T08:43:39.39Z</time></trkpt><trkpt lat="44.4963131" lon="7.9692195"><ele>593.0</ele><time>2026-04-26T08:43:40.387Z</time></trkpt><trkpt lat="44.4961706" lon="7.9693423"><ele>594.0</ele><time>2026-04-26T08:43:41.393Z</time></trkpt><trkpt lat="44.4960316" lon="7.9694649"><ele>594.0</ele><time>2026-04-26T08:43:42.392Z</time></trkpt><trkpt lat="44.4958895" lon="7.9695814"><ele>594.0</ele><time>2026-04-26T08:43:43.398Z</time></trkpt><trkpt lat="44.4957436" lon="7.9697072"><ele>594.0</ele><time>2026-04-26T08:43:44.38Z</time></trkpt><trkpt lat="44.4956073" lon="7.9698227"><ele>594.0</ele><time>2026-04-26T08:43:45.385Z</time></trkpt><trkpt lat="44.495471" lon="7.969942"><ele>594.0</ele><time>2026-04-26T08:43:46.379Z</time></trkpt><trkpt lat="44.4953411" lon="7.9700759"><ele>594.0</ele><time>2026-04-26T08:43:47.381Z</time></trkpt><trkpt lat="44.4952329" lon="7.9702308"><ele>596.6666666666666</ele><time>2026-04-26T08:43:48.386Z</time></trkpt><trkpt lat="44.4951303" lon="7.9704087"><ele>599.3333333333333</ele><time>2026-04-26T08:43:49.393Z</time></trkpt><trkpt lat="44.49503" lon="7.9705776"><ele>602.0</ele><time>2026-04-26T08:43:50.379Z</time></trkpt><trkpt lat="44.494928" lon="7.9707455"><ele>603.6666666666666</ele><time>2026-04-26T08:43:51.383Z</time></trkpt><trkpt lat="44.4948202" lon="7.970912"><ele>605.3333333333334</ele><time>2026-04-26T08:43:52.405Z</time></trkpt><trkpt lat="44.4947065" lon="7.9710769"><ele>607.0</ele><time>2026-04-26T08:43:53.38Z</time></trkpt><trkpt lat="44.4945918" lon="7.9712525"><ele>607.6666666666667</ele><time>2026-04-26T08:43:54.39Z</time></trkpt><trkpt lat="44.4944607" lon="7.9714122"><ele>608.3333333333334</ele><time>2026-04-26T08:43:55.396Z</time></trkpt><trkpt lat="44.4943178" lon="7.9715502"><ele>609.0</ele><time>2026-04-26T08:43:56.378Z</time></trkpt><trkpt lat="44.4941649" lon="7.9716739"><ele>611.6666666666666</ele><time>2026-04-26T08:43:57.378Z</time></trkpt><trkpt lat="44.4940105" lon="7.9717917"><ele>614.3333333333333</ele><time>2026-04-26T08:43:58.381Z</time></trkpt><trkpt lat="44.4938574" lon="7.9719134"><ele>617.0</ele><time>2026-04-26T08:43:59.38Z</time></trkpt><trkpt lat="44.4937067" lon="7.9720496"><ele>617.0</ele><time>2026-04-26T08:44:00.387Z</time></trkpt><trkpt lat="44.4935574" lon="7.9721875"><ele>617.0</ele><time>2026-04-26T08:44:01.402Z</time></trkpt><trkpt lat="44.493415" lon="7.9723223"><ele>617.0</ele><time>2026-04-26T08:44:02.379Z</time></trkpt><trkpt lat="44.4932849" lon="7.9724237"><ele>617.0</ele><time>2026-04-26T08:44:03.374Z</time></trkpt><trkpt lat="44.4931554" lon="7.9724666"><ele>617.0</ele><time>2026-04-26T08:44:04.388Z</time></trkpt><trkpt lat="44.4930238" lon="7.97246"><ele>617.0</ele><time>2026-04-26T08:44:05.39Z</time></trkpt><trkpt lat="44.4929044" lon="7.972415"><ele>617.0</ele><time>2026-04-26T08:44:06.388Z</time></trkpt><trkpt lat="44.4927815" lon="7.9723641"><ele>617.25</ele><time>2026-04-26T08:44:07.39Z</time></trkpt><trkpt lat="44.4926463" lon="7.9723369"><ele>617.5</ele><time>2026-04-26T08:44:08.399Z</time></trkpt><trkpt lat="44.4925017" lon="7.9723321"><ele>617.75</ele><time>2026-04-26T08:44:09.413Z</time></trkpt><trkpt lat="44.4923554" lon="7.9723663"><ele>618.0</ele><time>2026-04-26T08:44:10.391Z</time></trkpt><trkpt lat="44.4922251" lon="7.9724261"><ele>618.0</ele><time>2026-04-26T08:44:11.394Z</time></trkpt><trkpt lat="44.4921191" lon="7.9725215"><ele>618.0</ele><time>2026-04-26T08:44:12.376Z</time></trkpt><trkpt lat="44.4920447" lon="7.972637"><ele>618.0</ele><time>2026-04-26T08:44:13.375Z</time></trkpt><trkpt lat="44.492004" lon="7.9728154"><ele>618.0</ele><time>2026-04-26T08:44:14.382Z</time></trkpt><trkpt lat="44.4919799" lon="7.9729943"><ele>618.0</ele><time>2026-04-26T08:44:15.373Z</time></trkpt><trkpt lat="44.4919475" lon="7.9731997"><ele>618.0</ele><time>2026-04-26T08:44:16.399Z</time></trkpt><trkpt lat="44.4919088" lon="7.973412"><ele>618.0</ele><time>2026-04-26T08:44:17.38Z</time></trkpt><trkpt lat="44.4918533" lon="7.9736288"><ele>620.6666666666666</ele><time>2026-04-26T08:44:18.389Z</time></trkpt><trkpt lat="44.4917923" lon="7.9738457"><ele>623.3333333333333</ele><time>2026-04-26T08:44:19.382Z</time></trkpt><trkpt lat="44.491722" lon="7.9740617"><ele>626.0</ele><time>2026-04-26T08:44:20.381Z</time></trkpt><trkpt lat="44.4916446" lon="7.9742765"><ele>627.3333333333333</ele><time>2026-04-26T08:44:21.375Z</time></trkpt><trkpt lat="44.4915755" lon="7.9744767"><ele>628.6666666666666</ele><time>2026-04-26T08:44:22.383Z</time></trkpt><trkpt lat="44.4914945" lon="7.9746579"><ele>630.0</ele><time>2026-04-26T08:44:23.387Z</time></trkpt><trkpt lat="44.4914028" lon="7.9748033"><ele>630.0</ele><time>2026-04-26T08:44:24.401Z</time></trkpt><trkpt lat="44.491278" lon="7.9749104"><ele>630.0</ele><time>2026-04-26T08:44:25.389Z</time></trkpt><trkpt lat="44.4911443" lon="7.9749968"><ele>630.0</ele><time>2026-04-26T08:44:26.377Z</time></trkpt><trkpt lat="44.4909921" lon="7.9750653"><ele>631.0</ele><time>2026-04-26T08:44:27.376Z</time></trkpt><trkpt lat="44.4908239" lon="7.9751297"><ele>632.0</ele><time>2026-04-26T08:44:28.388Z</time></trkpt><trkpt lat="44.4906473" lon="7.9752008"><ele>633.0</ele><time>2026-04-26T08:44:29.39Z</time></trkpt><trkpt lat="44.4904556" lon="7.9752842"><ele>632.6666666666666</ele><time>2026-04-26T08:44:30.385Z</time></trkpt><trkpt lat="44.4902678" lon="7.9753722"><ele>632.3333333333333</ele><time>2026-04-26T08:44:31.377Z</time></trkpt><trkpt lat="44.4900728" lon="7.9754553"><ele>632.0</ele><time>2026-04-26T08:44:32.382Z</time></trkpt><trkpt lat="44.4898677" lon="7.9755413"><ele>632.0</ele><time>2026-04-26T08:44:33.384Z</time></trkpt><trkpt lat="44.4896625" lon="7.9756271"><ele>632.0</ele><time>2026-04-26T08:44:34.389Z</time></trkpt><trkpt lat="44.4894473" lon="7.975719"><ele>632.0</ele><time>2026-04-26T08:44:35.395Z</time></trkpt><trkpt lat="44.4892258" lon="7.9758107"><ele>634.5</ele><time>2026-04-26T08:44:36.392Z</time></trkpt><trkpt lat="44.4889992" lon="7.9759046"><ele>637.0</ele><time>2026-04-26T08:44:37.387Z</time></trkpt><trkpt lat="44.4887749" lon="7.9760025"><ele>636.0</ele><time>2026-04-26T08:44:38.379Z</time></trkpt><trkpt lat="44.4885494" lon="7.9761032"><ele>635.0</ele><time>2026-04-26T08:44:39.377Z</time></trkpt><trkpt lat="44.4883241" lon="7.9762027"><ele>635.0</ele><time>2026-04-26T08:44:40.382Z</time></trkpt><trkpt lat="44.488101" lon="7.976306"><ele>635.0</ele><time>2026-04-26T08:44:41.403Z</time></trkpt><trkpt lat="44.4878814" lon="7.9763953"><ele>636.3333333333333</ele><time>2026-04-26T08:44:42.378Z</time></trkpt><trkpt lat="44.4876802" lon="7.9764804"><ele>637.6666666666666</ele><time>2026-04-26T08:44:43.381Z</time></trkpt><trkpt lat="44.4875164" lon="7.9765569"><ele>639.0</ele><time>2026-04-26T08:44:44.379Z</time></trkpt><trkpt lat="44.4873777" lon="7.9766669"><ele>641.3333333333334</ele><time>2026-04-26T08:44:45.395Z</time></trkpt><trkpt lat="44.4872612" lon="7.9768071"><ele>643.6666666666667</ele><time>2026-04-26T08:44:46.381Z</time></trkpt><trkpt lat="44.4871885" lon="7.9769827"><ele>646.0</ele><time>2026-04-26T08:44:47.382Z</time></trkpt><trkpt lat="44.4871403" lon="7.9771964"><ele>642.0</ele><time>2026-04-26T08:44:48.382Z</time></trkpt><trkpt lat="44.4870809" lon="7.9774182"><ele>638.0</ele><time>2026-04-26T08:44:49.392Z</time></trkpt><trkpt lat="44.4870255" lon="7.9776561"><ele>634.0</ele><time>2026-04-26T08:44:50.388Z</time></trkpt><trkpt lat="44.4869678" lon="7.9778998"><ele>634.0</ele><time>2026-04-26T08:44:51.392Z</time></trkpt><trkpt lat="44.4868914" lon="7.9781626"><ele>634.0</ele><time>2026-04-26T08:44:52.392Z</time></trkpt><trkpt lat="44.4868104" lon="7.9784354"><ele>634.0</ele><time>2026-04-26T08:44:53.388Z</time></trkpt><trkpt lat="44.4867347" lon="7.9787297"><ele>635.5</ele><time>2026-04-26T08:44:54.377Z</time></trkpt><trkpt lat="44.4866542" lon="7.9790393"><ele>637.0</ele><time>2026-04-26T08:44:55.387Z</time></trkpt><trkpt lat="44.4865779" lon="7.9793531"><ele>639.5</ele><time>2026-04-26T08:44:56.395Z</time></trkpt><trkpt lat="44.4864974" lon="7.979665"><ele>642.0</ele><time>2026-04-26T08:44:57.39Z</time></trkpt><trkpt lat="44.4864095" lon="7.9799846"><ele>642.0</ele><time>2026-04-26T08:44:58.389Z</time></trkpt><trkpt lat="44.4863199" lon="7.9803041"><ele>642.0</ele><time>2026-04-26T08:44:59.385Z</time></trkpt><trkpt lat="44.4862288" lon="7.9806222"><ele>646.5</ele><time>2026-04-26T08:45:00.384Z</time></trkpt><trkpt lat="44.4861343" lon="7.9809257"><ele>651.0</ele><time>2026-04-26T08:45:01.379Z</time></trkpt><trkpt lat="44.4860376" lon="7.9812244"><ele>651.0</ele><time>2026-04-26T08:45:02.386Z</time></trkpt><trkpt lat="44.4859414" lon="7.9815188"><ele>651.0</ele><time>2026-04-26T08:45:03.384Z</time></trkpt><trkpt lat="44.4858386" lon="7.981824"><ele>650.0</ele><time>2026-04-26T08:45:04.376Z</time></trkpt><trkpt lat="44.4857293" lon="7.9821058"><ele>649.0</ele><time>2026-04-26T08:45:05.393Z</time></trkpt><trkpt lat="44.4856076" lon="7.9823633"><ele>648.0</ele><time>2026-04-26T08:45:06.388Z</time></trkpt><trkpt lat="44.4854665" lon="7.9825792"><ele>650.3333333333334</ele><time>2026-04-26T08:45:07.396Z</time></trkpt><trkpt lat="44.4853063" lon="7.9827675"><ele>652.6666666666667</ele><time>2026-04-26T08:45:08.385Z</time></trkpt><trkpt lat="44.4851446" lon="7.9829586"><ele>655.0</ele><time>2026-04-26T08:45:09.373Z</time></trkpt><trkpt lat="44.4849878" lon="7.9831828"><ele>655.3333333333334</ele><time>2026-04-26T08:45:10.386Z</time></trkpt><trkpt lat="44.4848382" lon="7.9834123"><ele>655.6666666666666</ele><time>2026-04-26T08:45:11.39Z</time></trkpt><trkpt lat="44.4846917" lon="7.9836538"><ele>656.0</ele><time>2026-04-26T08:45:12.394Z</time></trkpt><trkpt lat="44.4845529" lon="7.9839012"><ele>655.0</ele><time>2026-04-26T08:45:13.392Z</time></trkpt><trkpt lat="44.4844165" lon="7.9841571"><ele>654.0</ele><time>2026-04-26T08:45:14.381Z</time></trkpt><trkpt lat="44.4842825" lon="7.9844078"><ele>657.3333333333334</ele><time>2026-04-26T08:45:15.387Z</time></trkpt><trkpt lat="44.4841667" lon="7.9846271"><ele>660.6666666666667</ele><time>2026-04-26T08:45:16.387Z</time></trkpt><trkpt lat="44.4840804" lon="7.9848168"><ele>664.0</ele><time>2026-04-26T08:45:17.383Z</time></trkpt><trkpt lat="44.4840174" lon="7.9849992"><ele>663.3333333333334</ele><time>2026-04-26T08:45:18.39Z</time></trkpt><trkpt lat="44.4839783" lon="7.9852104"><ele>662.6666666666666</ele><time>2026-04-26T08:45:19.379Z</time></trkpt><trkpt lat="44.4839691" lon="7.9854703"><ele>662.0</ele><time>2026-04-26T08:45:20.401Z</time></trkpt><trkpt lat="44.483967" lon="7.9857615"><ele>658.5</ele><time>2026-04-26T08:45:21.385Z</time></trkpt><trkpt lat="44.4839418" lon="7.9861162"><ele>655.0</ele><time>2026-04-26T08:45:22.386Z</time></trkpt><trkpt lat="44.4839015" lon="7.9865006"><ele>653.0</ele><time>2026-04-26T08:45:23.384Z</time></trkpt><trkpt lat="44.4838415" lon="7.9868774"><ele>651.0</ele><time>2026-04-26T08:45:24.389Z</time></trkpt><trkpt lat="44.4837896" lon="7.9872609"><ele>659.5</ele><time>2026-04-26T08:45:25.38Z</time></trkpt><trkpt lat="44.483739" lon="7.9876463"><ele>668.0</ele><time>2026-04-26T08:45:26.384Z</time></trkpt><trkpt lat="44.4836801" lon="7.9880333"><ele>671.5</ele><time>2026-04-26T08:45:27.387Z</time></trkpt><trkpt lat="44.4836201" lon="7.9884038"><ele>675.0</ele><time>2026-04-26T08:45:28.389Z</time></trkpt><trkpt lat="44.4835584" lon="7.9887663"><ele>675.0</ele><time>2026-04-26T08:45:29.401Z</time></trkpt><trkpt lat="44.4834981" lon="7.9891134"><ele>675.0</ele><time>2026-04-26T08:45:30.38Z</time></trkpt><trkpt lat="44.4834426" lon="7.9894421"><ele>677.0</ele><time>2026-04-26T08:45:31.384Z</time></trkpt><trkpt lat="44.4833855" lon="7.9897475"><ele>679.0</ele><time>2026-04-26T08:45:32.387Z</time></trkpt><trkpt lat="44.483331" lon="7.9900281"><ele>681.0</ele><time>2026-04-26T08:45:33.381Z</time></trkpt><trkpt lat="44.4832702" lon="7.9902746"><ele>682.0</ele><time>2026-04-26T08:45:34.383Z</time></trkpt><trkpt lat="44.4831945" lon="7.9904975"><ele>683.0</ele><time>2026-04-26T08:45:35.382Z</time></trkpt><trkpt lat="44.4831094" lon="7.9907194"><ele>684.0</ele><time>2026-04-26T08:45:36.384Z</time></trkpt><trkpt lat="44.4830306" lon="7.9909401"><ele>684.6666666666666</ele><time>2026-04-26T08:45:37.39Z</time></trkpt><trkpt lat="44.4829635" lon="7.9911678"><ele>685.3333333333333</ele><time>2026-04-26T08:45:38.393Z</time></trkpt><trkpt lat="44.4829087" lon="7.9914364"><ele>686.0</ele><time>2026-04-26T08:45:39.402Z</time></trkpt><trkpt lat="44.4828732" lon="7.9917402"><ele>677.5</ele><time>2026-04-26T08:45:40.381Z</time></trkpt><trkpt lat="44.482851" lon="7.9920664"><ele>669.0</ele><time>2026-04-26T08:45:41.393Z</time></trkpt><trkpt lat="44.4828297" lon="7.9924106"><ele>669.5</ele><time>2026-04-26T08:45:42.387Z</time></trkpt><trkpt lat="44.4828121" lon="7.9927592"><ele>670.0</ele><time>2026-04-26T08:45:43.39Z</time></trkpt><trkpt lat="44.482795" lon="7.9931176"><ele>673.0</ele><time>2026-04-26T08:45:44.392Z</time></trkpt><trkpt lat="44.4827729" lon="7.9934699"><ele>676.0</ele><time>2026-04-26T08:45:45.384Z</time></trkpt><trkpt lat="44.4827453" lon="7.9938077"><ele>676.0</ele><time>2026-04-26T08:45:46.381Z</time></trkpt><trkpt lat="44.4827095" lon="7.9941293"><ele>676.0</ele><time>2026-04-26T08:45:47.391Z</time></trkpt><trkpt lat="44.482655" lon="7.9944316"><ele>676.3333333333334</ele><time>2026-04-26T08:45:48.399Z</time></trkpt><trkpt lat="44.4825409" lon="7.9946726"><ele>676.6666666666666</ele><time>2026-04-26T08:45:49.377Z</time></trkpt><trkpt lat="44.4823873" lon="7.9949146"><ele>677.0</ele><time>2026-04-26T08:45:50.374Z</time></trkpt><trkpt lat="44.4822446" lon="7.9951575"><ele>675.5</ele><time>2026-04-26T08:45:51.393Z</time></trkpt><trkpt lat="44.4820882" lon="7.9954138"><ele>674.0</ele><time>2026-04-26T08:45:52.377Z</time></trkpt><trkpt lat="44.4819143" lon="7.9956766"><ele>672.5</ele><time>2026-04-26T08:45:53.385Z</time></trkpt><trkpt lat="44.4817315" lon="7.9959369"><ele>671.0</ele><time>2026-04-26T08:45:54.381Z</time></trkpt><trkpt lat="44.4815323" lon="7.996161"><ele>671.0</ele><time>2026-04-26T08:45:55.386Z</time></trkpt><trkpt lat="44.4813186" lon="7.9963674"><ele>671.0</ele><time>2026-04-26T08:45:56.395Z</time></trkpt><trkpt lat="44.4810982" lon="7.996581"><ele>675.0</ele><time>2026-04-26T08:45:57.394Z</time></trkpt><trkpt lat="44.4808869" lon="7.996793"><ele>679.0</ele><time>2026-04-26T08:45:58.391Z</time></trkpt><trkpt lat="44.4806727" lon="7.9970044"><ele>679.0</ele><time>2026-04-26T08:45:59.403Z</time></trkpt><trkpt lat="44.4804584" lon="7.9972146"><ele>679.0</ele><time>2026-04-26T08:46:00.405Z</time></trkpt><trkpt lat="44.4802528" lon="7.9974169"><ele>684.5</ele><time>2026-04-26T08:46:01.389Z</time></trkpt><trkpt lat="44.4800511" lon="7.9976212"><ele>690.0</ele><time>2026-04-26T08:46:02.385Z</time></trkpt><trkpt lat="44.4798514" lon="7.9978171"><ele>690.0</ele><time>2026-04-26T08:46:03.389Z</time></trkpt><trkpt lat="44.4796527" lon="7.998014"><ele>690.0</ele><time>2026-04-26T08:46:04.394Z</time></trkpt><trkpt lat="44.4794616" lon="7.998169"><ele>691.0</ele><time>2026-04-26T08:46:05.389Z</time></trkpt><trkpt lat="44.4792789" lon="7.9982697"><ele>692.0</ele><time>2026-04-26T08:46:06.386Z</time></trkpt><trkpt lat="44.4790784" lon="7.9983281"><ele>693.0</ele><time>2026-04-26T08:46:07.376Z</time></trkpt><trkpt lat="44.4788618" lon="7.9983966"><ele>698.5</ele><time>2026-04-26T08:46:08.399Z</time></trkpt><trkpt lat="44.4786432" lon="7.9984664"><ele>704.0</ele><time>2026-04-26T08:46:09.383Z</time></trkpt><trkpt lat="44.4784247" lon="7.9985443"><ele>704.0</ele><time>2026-04-26T08:46:10.399Z</time></trkpt><trkpt lat="44.4782155" lon="7.9986111"><ele>704.0</ele><time>2026-04-26T08:46:11.382Z</time></trkpt><trkpt lat="44.4780174" lon="7.9986634"><ele>704.0</ele><time>2026-04-26T08:46:12.387Z</time></trkpt><trkpt lat="44.4778371" lon="7.9987105"><ele>705.25</ele><time>2026-04-26T08:46:13.39Z</time></trkpt><trkpt lat="44.4776828" lon="7.998742"><ele>706.5</ele><time>2026-04-26T08:46:14.385Z</time></trkpt><trkpt lat="44.4775619" lon="7.9987641"><ele>707.75</ele><time>2026-04-26T08:46:15.389Z</time></trkpt><trkpt lat="44.4774654" lon="7.9987837"><ele>709.0</ele><time>2026-04-26T08:46:16.396Z</time></trkpt><trkpt lat="44.4773771" lon="7.9987932"><ele>709.0</ele><time>2026-04-26T08:46:17.384Z</time></trkpt><trkpt lat="44.4772975" lon="7.9989255"><ele>709.0</ele><time>2026-04-26T08:46:19.385Z</time></trkpt><trkpt lat="44.4773075" lon="7.9990143"><ele>709.0</ele><time>2026-04-26T08:46:20.39Z</time></trkpt><trkpt lat="44.4774093" lon="7.9991483"><ele>709.0</ele><time>2026-04-26T08:46:22.392Z</time></trkpt><trkpt lat="44.4774722" lon="7.9992102"><ele>709.0</ele><time>2026-04-26T08:46:23.396Z</time></trkpt><trkpt lat="44.4775416" lon="7.9992753"><ele>710.6666666666667</ele><time>2026-04-26T08:46:24.399Z</time></trkpt><trkpt lat="44.4776179" lon="7.9993507"><ele>712.3333333333334</ele><time>2026-04-26T08:46:25.391Z</time></trkpt><trkpt lat="44.4776982" lon="7.9994217"><ele>714.0</ele><time>2026-04-26T08:46:26.382Z</time></trkpt><trkpt lat="44.4777675" lon="7.9994967"><ele>715.6666666666666</ele><time>2026-04-26T08:46:27.392Z</time></trkpt><trkpt lat="44.4778303" lon="7.9995755"><ele>717.3333333333333</ele><time>2026-04-26T08:46:28.393Z</time></trkpt><trkpt lat="44.4778706" lon="7.9996628"><ele>719.0</ele><time>2026-04-26T08:46:29.404Z</time></trkpt><trkpt lat="44.4778829" lon="7.9997729"><ele>719.0</ele><time>2026-04-26T08:46:30.395Z</time></trkpt><trkpt lat="44.4778652" lon="7.9998974"><ele>719.0</ele><time>2026-04-26T08:46:31.404Z</time></trkpt><trkpt lat="44.4778309" lon="8.0000205"><ele>719.0</ele><time>2026-04-26T08:46:32.393Z</time></trkpt><trkpt lat="44.4777752" lon="8.0001439"><ele>719.0</ele><time>2026-04-26T08:46:33.384Z</time></trkpt><trkpt lat="44.4777201" lon="8.0002691"><ele>719.0</ele><time>2026-04-26T08:46:34.39Z</time></trkpt><trkpt lat="44.4776568" lon="8.0003971"><ele>719.0</ele><time>2026-04-26T08:46:35.388Z</time></trkpt><trkpt lat="44.4775742" lon="8.0005594"><ele>719.0</ele><time>2026-04-26T08:46:36.398Z</time></trkpt><trkpt lat="44.4774937" lon="8.0007252"><ele>719.0</ele><time>2026-04-26T08:46:37.386Z</time></trkpt><trkpt lat="44.4774192" lon="8.0008816"><ele>719.0</ele><time>2026-04-26T08:46:38.375Z</time></trkpt><trkpt lat="44.4773397" lon="8.0010526"><ele>717.25</ele><time>2026-04-26T08:46:39.387Z</time></trkpt><trkpt lat="44.4772612" lon="8.0012146"><ele>715.5</ele><time>2026-04-26T08:46:40.387Z</time></trkpt><trkpt lat="44.4771798" lon="8.0013842"><ele>713.75</ele><time>2026-04-26T08:46:41.381Z</time></trkpt><trkpt lat="44.4770931" lon="8.0015535"><ele>712.0</ele><time>2026-04-26T08:46:42.391Z</time></trkpt><trkpt lat="44.4770061" lon="8.0017271"><ele>711.6666666666667</ele><time>2026-04-26T08:46:43.382Z</time></trkpt><trkpt lat="44.4769101" lon="8.0019106"><ele>711.3333333333334</ele><time>2026-04-26T08:46:44.378Z</time></trkpt><trkpt lat="44.4768155" lon="8.0021009"><ele>711.0</ele><time>2026-04-26T08:46:45.38Z</time></trkpt><trkpt lat="44.476733" lon="8.0022865"><ele>711.0</ele><time>2026-04-26T08:46:46.387Z</time></trkpt><trkpt lat="44.4766629" lon="8.0024778"><ele>711.0</ele><time>2026-04-26T08:46:47.387Z</time></trkpt><trkpt lat="44.4766005" lon="8.0027162"><ele>711.0</ele><time>2026-04-26T08:46:48.414Z</time></trkpt><trkpt lat="44.4765529" lon="8.0030116"><ele>710.3333333333334</ele><time>2026-04-26T08:46:49.382Z</time></trkpt><trkpt lat="44.4765108" lon="8.0033188"><ele>709.6666666666667</ele><time>2026-04-26T08:46:50.386Z</time></trkpt><trkpt lat="44.4764742" lon="8.0036298"><ele>709.0</ele><time>2026-04-26T08:46:51.382Z</time></trkpt><trkpt lat="44.4764414" lon="8.0039223"><ele>705.0</ele><time>2026-04-26T08:46:52.388Z</time></trkpt><trkpt lat="44.4764125" lon="8.0041899"><ele>701.0</ele><time>2026-04-26T08:46:53.383Z</time></trkpt><trkpt lat="44.4763828" lon="8.0044403"><ele>697.0</ele><time>2026-04-26T08:46:54.383Z</time></trkpt><trkpt lat="44.4763506" lon="8.0046846"><ele>697.0</ele><time>2026-04-26T08:46:55.381Z</time></trkpt><trkpt lat="44.4763165" lon="8.0049214"><ele>697.0</ele><time>2026-04-26T08:46:56.388Z</time></trkpt><trkpt lat="44.4762754" lon="8.0051365"><ele>697.0</ele><time>2026-04-26T08:46:57.391Z</time></trkpt><trkpt lat="44.4762355" lon="8.0053571"><ele>697.6666666666667</ele><time>2026-04-26T08:46:58.38Z</time></trkpt><trkpt lat="44.4761929" lon="8.0055765"><ele>698.3333333333334</ele><time>2026-04-26T08:46:59.375Z</time></trkpt><trkpt lat="44.4761464" lon="8.0058034"><ele>699.0</ele><time>2026-04-26T08:47:00.382Z</time></trkpt><trkpt lat="44.4760978" lon="8.0060203"><ele>699.0</ele><time>2026-04-26T08:47:01.382Z</time></trkpt><trkpt lat="44.4760525" lon="8.0062331"><ele>699.0</ele><time>2026-04-26T08:47:02.381Z</time></trkpt><trkpt lat="44.4760046" lon="8.0064551"><ele>699.0</ele><time>2026-04-26T08:47:03.382Z</time></trkpt><trkpt lat="44.4759605" lon="8.0066752"><ele>699.0</ele><time>2026-04-26T08:47:04.386Z</time></trkpt><trkpt lat="44.4759096" lon="8.0068962"><ele>699.0</ele><time>2026-04-26T08:47:05.373Z</time></trkpt><trkpt lat="44.4758607" lon="8.0071107"><ele>699.0</ele><time>2026-04-26T08:47:06.4Z</time></trkpt><trkpt lat="44.4758133" lon="8.007324"><ele>701.3333333333334</ele><time>2026-04-26T08:47:07.375Z</time></trkpt><trkpt lat="44.4757716" lon="8.0075441"><ele>703.6666666666667</ele><time>2026-04-26T08:47:08.385Z</time></trkpt><trkpt lat="44.4757393" lon="8.0077699"><ele>706.0</ele><time>2026-04-26T08:47:09.397Z</time></trkpt><trkpt lat="44.4757177" lon="8.007998"><ele>706.0</ele><time>2026-04-26T08:47:10.424Z</time></trkpt><trkpt lat="44.4756884" lon="8.008228"><ele>706.0</ele><time>2026-04-26T08:47:11.375Z</time></trkpt><trkpt lat="44.4756437" lon="8.0084518"><ele>706.0</ele><time>2026-04-26T08:47:12.383Z</time></trkpt><trkpt lat="44.4755807" lon="8.0086672"><ele>705.3333333333334</ele><time>2026-04-26T08:47:13.392Z</time></trkpt><trkpt lat="44.4755069" lon="8.0088852"><ele>704.6666666666666</ele><time>2026-04-26T08:47:14.386Z</time></trkpt><trkpt lat="44.4754383" lon="8.0091097"><ele>704.0</ele><time>2026-04-26T08:47:15.386Z</time></trkpt><trkpt lat="44.4753797" lon="8.0093261"><ele>705.0</ele><time>2026-04-26T08:47:16.406Z</time></trkpt><trkpt lat="44.4753315" lon="8.0095494"><ele>706.0</ele><time>2026-04-26T08:47:17.385Z</time></trkpt><trkpt lat="44.4752839" lon="8.0097708"><ele>707.0</ele><time>2026-04-26T08:47:18.391Z</time></trkpt><trkpt lat="44.4752372" lon="8.0099997"><ele>707.0</ele><time>2026-04-26T08:47:19.382Z</time></trkpt><trkpt lat="44.4751932" lon="8.0102249"><ele>707.0</ele><time>2026-04-26T08:47:20.401Z</time></trkpt><trkpt lat="44.4751478" lon="8.01045"><ele>707.0</ele><time>2026-04-26T08:47:21.38Z</time></trkpt><trkpt lat="44.4750966" lon="8.0106739"><ele>707.3333333333333</ele><time>2026-04-26T08:47:22.403Z</time></trkpt><trkpt lat="44.4750466" lon="8.0109034"><ele>707.6666666666666</ele><time>2026-04-26T08:47:23.383Z</time></trkpt><trkpt lat="44.4749925" lon="8.0111236"><ele>708.0</ele><time>2026-04-26T08:47:24.389Z</time></trkpt><trkpt lat="44.4749244" lon="8.0113503"><ele>708.0</ele><time>2026-04-26T08:47:25.384Z</time></trkpt><trkpt lat="44.4748477" lon="8.0115631"><ele>708.0</ele><time>2026-04-26T08:47:26.387Z</time></trkpt><trkpt lat="44.4747726" lon="8.0117718"><ele>708.0</ele><time>2026-04-26T08:47:27.386Z</time></trkpt><trkpt lat="44.4746931" lon="8.0119735"><ele>707.6666666666666</ele><time>2026-04-26T08:47:28.381Z</time></trkpt><trkpt lat="44.4746068" lon="8.0121814"><ele>707.3333333333333</ele><time>2026-04-26T08:47:29.386Z</time></trkpt><trkpt lat="44.4745269" lon="8.0123881"><ele>707.0</ele><time>2026-04-26T08:47:30.392Z</time></trkpt><trkpt lat="44.4744486" lon="8.0125967"><ele>708.0</ele><time>2026-04-26T08:47:31.383Z</time></trkpt><trkpt lat="44.4743718" lon="8.0128036"><ele>709.0</ele><time>2026-04-26T08:47:32.377Z</time></trkpt><trkpt lat="44.4742941" lon="8.0130115"><ele>710.0</ele><time>2026-04-26T08:47:33.387Z</time></trkpt><trkpt lat="44.4742184" lon="8.0132117"><ele>710.6666666666666</ele><time>2026-04-26T08:47:34.379Z</time></trkpt><trkpt lat="44.4741419" lon="8.013409"><ele>711.3333333333334</ele><time>2026-04-26T08:47:35.385Z</time></trkpt><trkpt lat="44.4740744" lon="8.0136075"><ele>712.0</ele><time>2026-04-26T08:47:36.38Z</time></trkpt><trkpt lat="44.4740142" lon="8.0137925"><ele>712.0</ele><time>2026-04-26T08:47:37.387Z</time></trkpt><trkpt lat="44.4739575" lon="8.0139563"><ele>712.0</ele><time>2026-04-26T08:47:38.384Z</time></trkpt><trkpt lat="44.4739009" lon="8.0141138"><ele>712.0</ele><time>2026-04-26T08:47:39.392Z</time></trkpt><trkpt lat="44.4738341" lon="8.0142629"><ele>712.0</ele><time>2026-04-26T08:47:40.397Z</time></trkpt><trkpt lat="44.4737656" lon="8.0144073"><ele>711.25</ele><time>2026-04-26T08:47:41.386Z</time></trkpt><trkpt lat="44.4736893" lon="8.0145671"><ele>710.5</ele><time>2026-04-26T08:47:42.374Z</time></trkpt><trkpt lat="44.4736107" lon="8.014747"><ele>709.75</ele><time>2026-04-26T08:47:43.392Z</time></trkpt><trkpt lat="44.4735299" lon="8.0149227"><ele>709.0</ele><time>2026-04-26T08:47:44.379Z</time></trkpt><trkpt lat="44.473438" lon="8.0151051"><ele>709.0</ele><time>2026-04-26T08:47:45.383Z</time></trkpt><trkpt lat="44.4733533" lon="8.0153034"><ele>709.0</ele><time>2026-04-26T08:47:46.379Z</time></trkpt><trkpt lat="44.4732851" lon="8.0155367"><ele>709.0</ele><time>2026-04-26T08:47:47.376Z</time></trkpt><trkpt lat="44.4732342" lon="8.0157837"><ele>709.3333333333334</ele><time>2026-04-26T08:47:48.383Z</time></trkpt><trkpt lat="44.4731963" lon="8.0160523"><ele>709.6666666666666</ele><time>2026-04-26T08:47:49.393Z</time></trkpt><trkpt lat="44.4731803" lon="8.0163341"><ele>710.0</ele><time>2026-04-26T08:47:50.39Z</time></trkpt><trkpt lat="44.4731507" lon="8.0166113"><ele>710.0</ele><time>2026-04-26T08:47:51.38Z</time></trkpt><trkpt lat="44.4731194" lon="8.0168938"><ele>710.0</ele><time>2026-04-26T08:47:52.391Z</time></trkpt><trkpt lat="44.473085" lon="8.0171647"><ele>710.0</ele><time>2026-04-26T08:47:53.395Z</time></trkpt><trkpt lat="44.4730509" lon="8.0174304"><ele>710.6666666666666</ele><time>2026-04-26T08:47:54.397Z</time></trkpt><trkpt lat="44.473007" lon="8.0176779"><ele>711.3333333333334</ele><time>2026-04-26T08:47:55.385Z</time></trkpt><trkpt lat="44.4729428" lon="8.0179266"><ele>712.0</ele><time>2026-04-26T08:47:56.383Z</time></trkpt><trkpt lat="44.4728553" lon="8.0181644"><ele>708.0</ele><time>2026-04-26T08:47:57.374Z</time></trkpt><trkpt lat="44.4727486" lon="8.0183613"><ele>704.0</ele><time>2026-04-26T08:47:58.376Z</time></trkpt><trkpt lat="44.4726186" lon="8.0185383"><ele>700.0</ele><time>2026-04-26T08:47:59.385Z</time></trkpt><trkpt lat="44.4724917" lon="8.0187208"><ele>700.0</ele><time>2026-04-26T08:48:00.373Z</time></trkpt><trkpt lat="44.4723825" lon="8.0189028"><ele>700.0</ele><time>2026-04-26T08:48:01.375Z</time></trkpt><trkpt lat="44.4723181" lon="8.0190922"><ele>700.0</ele><time>2026-04-26T08:48:02.385Z</time></trkpt><trkpt lat="44.4723159" lon="8.0192817"><ele>703.25</ele><time>2026-04-26T08:48:03.374Z</time></trkpt><trkpt lat="44.4723677" lon="8.0194546"><ele>706.5</ele><time>2026-04-26T08:48:04.389Z</time></trkpt><trkpt lat="44.4724256" lon="8.0196291"><ele>709.75</ele><time>2026-04-26T08:48:05.392Z</time></trkpt><trkpt lat="44.4725344" lon="8.0197708"><ele>713.0</ele><time>2026-04-26T08:48:06.374Z</time></trkpt><trkpt lat="44.4726447" lon="8.019929"><ele>711.75</ele><time>2026-04-26T08:48:07.379Z</time></trkpt><trkpt lat="44.4727409" lon="8.020102"><ele>710.5</ele><time>2026-04-26T08:48:08.375Z</time></trkpt><trkpt lat="44.4727945" lon="8.0203012"><ele>709.25</ele><time>2026-04-26T08:48:09.379Z</time></trkpt><trkpt lat="44.4728024" lon="8.0204975"><ele>708.0</ele><time>2026-04-26T08:48:10.38Z</time></trkpt><trkpt lat="44.4727703" lon="8.0206923"><ele>707.6666666666666</ele><time>2026-04-26T08:48:11.376Z</time></trkpt><trkpt lat="44.4726797" lon="8.0208985"><ele>707.3333333333333</ele><time>2026-04-26T08:48:12.377Z</time></trkpt><trkpt lat="44.4725704" lon="8.0210839"><ele>707.0</ele><time>2026-04-26T08:48:13.376Z</time></trkpt><trkpt lat="44.4724341" lon="8.0212707"><ele>707.0</ele><time>2026-04-26T08:48:14.373Z</time></trkpt><trkpt lat="44.4723012" lon="8.0214858"><ele>707.0</ele><time>2026-04-26T08:48:15.377Z</time></trkpt><trkpt lat="44.4721546" lon="8.0217024"><ele>707.0</ele><time>2026-04-26T08:48:16.388Z</time></trkpt><trkpt lat="44.4720028" lon="8.0219226"><ele>705.6666666666666</ele><time>2026-04-26T08:48:17.381Z</time></trkpt><trkpt lat="44.4718527" lon="8.0221441"><ele>704.3333333333334</ele><time>2026-04-26T08:48:18.388Z</time></trkpt><trkpt lat="44.471699" lon="8.0223745"><ele>703.0</ele><time>2026-04-26T08:48:19.382Z</time></trkpt><trkpt lat="44.4715481" lon="8.0225991"><ele>703.0</ele><time>2026-04-26T08:48:20.389Z</time></trkpt><trkpt lat="44.4713869" lon="8.0228326"><ele>703.0</ele><time>2026-04-26T08:48:21.382Z</time></trkpt><trkpt lat="44.4712362" lon="8.023065"><ele>701.6666666666667</ele><time>2026-04-26T08:48:22.381Z</time></trkpt><trkpt lat="44.4710831" lon="8.0232853"><ele>700.3333333333334</ele><time>2026-04-26T08:48:23.376Z</time></trkpt><trkpt lat="44.4709386" lon="8.023493"><ele>699.0</ele><time>2026-04-26T08:48:24.387Z</time></trkpt><trkpt lat="44.4708084" lon="8.0237032"><ele>699.0</ele><time>2026-04-26T08:48:25.386Z</time></trkpt><trkpt lat="44.4706995" lon="8.0239214"><ele>699.0</ele><time>2026-04-26T08:48:26.376Z</time></trkpt><trkpt lat="44.4705975" lon="8.0241526"><ele>699.0</ele><time>2026-04-26T08:48:27.391Z</time></trkpt><trkpt lat="44.4705154" lon="8.0244054"><ele>700.6666666666666</ele><time>2026-04-26T08:48:28.379Z</time></trkpt><trkpt lat="44.4704589" lon="8.0246623"><ele>702.3333333333333</ele><time>2026-04-26T08:48:29.383Z</time></trkpt><trkpt lat="44.4703971" lon="8.0249291"><ele>704.0</ele><time>2026-04-26T08:48:30.378Z</time></trkpt><trkpt lat="44.4703372" lon="8.0252011"><ele>703.0</ele><time>2026-04-26T08:48:31.386Z</time></trkpt><trkpt lat="44.4702777" lon="8.0254469"><ele>702.0</ele><time>2026-04-26T08:48:32.382Z</time></trkpt><trkpt lat="44.4702152" lon="8.0256815"><ele>701.0</ele><time>2026-04-26T08:48:33.379Z</time></trkpt><trkpt lat="44.4701433" lon="8.0259005"><ele>701.0</ele><time>2026-04-26T08:48:34.381Z</time></trkpt><trkpt lat="44.4700323" lon="8.0260968"><ele>701.0</ele><time>2026-04-26T08:48:35.385Z</time></trkpt><trkpt lat="44.4698901" lon="8.0262816"><ele>701.0</ele><time>2026-04-26T08:48:36.386Z</time></trkpt><trkpt lat="44.4697374" lon="8.0264593"><ele>702.0</ele><time>2026-04-26T08:48:37.383Z</time></trkpt><trkpt lat="44.4695975" lon="8.0266401"><ele>703.0</ele><time>2026-04-26T08:48:38.381Z</time></trkpt><trkpt lat="44.4694646" lon="8.0268559"><ele>704.0</ele><time>2026-04-26T08:48:39.384Z</time></trkpt><trkpt lat="44.4693486" lon="8.0270663"><ele>704.0</ele><time>2026-04-26T08:48:40.383Z</time></trkpt><trkpt lat="44.4692648" lon="8.0272855"><ele>704.0</ele><time>2026-04-26T08:48:41.389Z</time></trkpt><trkpt lat="44.4691959" lon="8.0275346"><ele>704.0</ele><time>2026-04-26T08:48:42.389Z</time></trkpt><trkpt lat="44.4691626" lon="8.0278049"><ele>707.6666666666666</ele><time>2026-04-26T08:48:43.399Z</time></trkpt><trkpt lat="44.4691429" lon="8.0280564"><ele>711.3333333333334</ele><time>2026-04-26T08:48:44.381Z</time></trkpt><trkpt lat="44.4691324" lon="8.0282996"><ele>715.0</ele><time>2026-04-26T08:48:45.388Z</time></trkpt><trkpt lat="44.4691007" lon="8.0285077"><ele>715.75</ele><time>2026-04-26T08:48:46.39Z</time></trkpt><trkpt lat="44.4690188" lon="8.028633"><ele>716.5</ele><time>2026-04-26T08:48:47.388Z</time></trkpt><trkpt lat="44.468909" lon="8.0287114"><ele>717.25</ele><time>2026-04-26T08:48:48.392Z</time></trkpt><trkpt lat="44.4687757" lon="8.0287439"><ele>718.0</ele><time>2026-04-26T08:48:49.381Z</time></trkpt><trkpt lat="44.4686262" lon="8.0287504"><ele>718.0</ele><time>2026-04-26T08:48:50.376Z</time></trkpt><trkpt lat="44.468466" lon="8.0287173"><ele>718.0</ele><time>2026-04-26T08:48:51.387Z</time></trkpt><trkpt lat="44.4683164" lon="8.028719"><ele>718.0</ele><time>2026-04-26T08:48:52.384Z</time></trkpt><trkpt lat="44.4681789" lon="8.0288007"><ele>718.0</ele><time>2026-04-26T08:48:53.379Z</time></trkpt><trkpt lat="44.4680477" lon="8.0289375"><ele>718.0</ele><time>2026-04-26T08:48:54.377Z</time></trkpt><trkpt lat="44.4679172" lon="8.029106"><ele>718.0</ele><time>2026-04-26T08:48:55.381Z</time></trkpt><trkpt lat="44.4677954" lon="8.0293122"><ele>721.0</ele><time>2026-04-26T08:48:56.375Z</time></trkpt><trkpt lat="44.4676673" lon="8.0295198"><ele>724.0</ele><time>2026-04-26T08:48:57.371Z</time></trkpt><trkpt lat="44.4675168" lon="8.0296741"><ele>727.0</ele><time>2026-04-26T08:48:58.385Z</time></trkpt><trkpt lat="44.4673522" lon="8.0297358"><ele>727.0</ele><time>2026-04-26T08:48:59.375Z</time></trkpt><trkpt lat="44.4671925" lon="8.0297511"><ele>727.0</ele><time>2026-04-26T08:49:00.39Z</time></trkpt><trkpt lat="44.4669967" lon="8.0297554"><ele>727.0</ele><time>2026-04-26T08:49:01.378Z</time></trkpt><trkpt lat="44.4668045" lon="8.0297676"><ele>728.3333333333334</ele><time>2026-04-26T08:49:02.398Z</time></trkpt><trkpt lat="44.4666256" lon="8.0298092"><ele>729.6666666666666</ele><time>2026-04-26T08:49:03.379Z</time></trkpt><trkpt lat="44.4664581" lon="8.0298799"><ele>731.0</ele><time>2026-04-26T08:49:04.385Z</time></trkpt><trkpt lat="44.4663143" lon="8.0299786"><ele>731.75</ele><time>2026-04-26T08:49:05.378Z</time></trkpt><trkpt lat="44.4662076" lon="8.030097"><ele>732.5</ele><time>2026-04-26T08:49:06.375Z</time></trkpt><trkpt lat="44.4661365" lon="8.0302365"><ele>733.25</ele><time>2026-04-26T08:49:07.382Z</time></trkpt><trkpt lat="44.4660919" lon="8.0304091"><ele>734.0</ele><time>2026-04-26T08:49:08.369Z</time></trkpt><trkpt lat="44.4660762" lon="8.0305931"><ele>734.0</ele><time>2026-04-26T08:49:09.377Z</time></trkpt><trkpt lat="44.4661075" lon="8.0307973"><ele>734.0</ele><time>2026-04-26T08:49:10.389Z</time></trkpt><trkpt lat="44.4661973" lon="8.0310701"><ele>734.0</ele><time>2026-04-26T08:49:11.373Z</time></trkpt><trkpt lat="44.466297" lon="8.0313602"><ele>741.3333333333333</ele><time>2026-04-26T08:49:12.381Z</time></trkpt><trkpt lat="44.4663723" lon="8.0316353"><ele>748.6666666666666</ele><time>2026-04-26T08:49:13.392Z</time></trkpt><trkpt lat="44.4664255" lon="8.0318711"><ele>756.0</ele><time>2026-04-26T08:49:14.402Z</time></trkpt><trkpt lat="44.4664216" lon="8.0320995"><ele>754.3333333333334</ele><time>2026-04-26T08:49:15.375Z</time></trkpt><trkpt lat="44.4663702" lon="8.0323196"><ele>752.6666666666667</ele><time>2026-04-26T08:49:16.372Z</time></trkpt><trkpt lat="44.466281" lon="8.0325025"><ele>751.0</ele><time>2026-04-26T08:49:17.38Z</time></trkpt><trkpt lat="44.4661423" lon="8.0326571"><ele>751.0</ele><time>2026-04-26T08:49:18.391Z</time></trkpt><trkpt lat="44.4659897" lon="8.0327754"><ele>751.0</ele><time>2026-04-26T08:49:19.378Z</time></trkpt><trkpt lat="44.4658438" lon="8.0329135"><ele>751.0</ele><time>2026-04-26T08:49:20.383Z</time></trkpt><trkpt lat="44.4657325" lon="8.0331036"><ele>749.0</ele><time>2026-04-26T08:49:21.378Z</time></trkpt><trkpt lat="44.4656165" lon="8.0333442"><ele>747.0</ele><time>2026-04-26T08:49:22.381Z</time></trkpt><trkpt lat="44.4654871" lon="8.0335996"><ele>745.0</ele><time>2026-04-26T08:49:23.377Z</time></trkpt><trkpt lat="44.4653486" lon="8.0338409"><ele>745.0</ele><time>2026-04-26T08:49:24.376Z</time></trkpt><trkpt lat="44.4651853" lon="8.0340527"><ele>745.0</ele><time>2026-04-26T08:49:25.387Z</time></trkpt><trkpt lat="44.4650142" lon="8.0342492"><ele>745.0</ele><time>2026-04-26T08:49:26.381Z</time></trkpt><trkpt lat="44.4648368" lon="8.0344318"><ele>747.0</ele><time>2026-04-26T08:49:27.379Z</time></trkpt><trkpt lat="44.4646439" lon="8.0346117"><ele>749.0</ele><time>2026-04-26T08:49:28.381Z</time></trkpt><trkpt lat="44.4644496" lon="8.0347923"><ele>749.0</ele><time>2026-04-26T08:49:29.372Z</time></trkpt><trkpt lat="44.4642694" lon="8.0349599"><ele>749.0</ele><time>2026-04-26T08:49:30.372Z</time></trkpt><trkpt lat="44.4640961" lon="8.0351165"><ele>749.0</ele><time>2026-04-26T08:49:31.384Z</time></trkpt><trkpt lat="44.4639337" lon="8.0352739"><ele>753.3333333333333</ele><time>2026-04-26T08:49:32.379Z</time></trkpt><trkpt lat="44.4637737" lon="8.0354287"><ele>757.6666666666666</ele><time>2026-04-26T08:49:33.378Z</time></trkpt><trkpt lat="44.4636161" lon="8.035579"><ele>762.0</ele><time>2026-04-26T08:49:34.365Z</time></trkpt><trkpt lat="44.4634608" lon="8.0356919"><ele>762.0</ele><time>2026-04-26T08:49:35.378Z</time></trkpt><trkpt lat="44.463288" lon="8.0357456"><ele>762.0</ele><time>2026-04-26T08:49:36.384Z</time></trkpt><trkpt lat="44.4631032" lon="8.035766"><ele>762.0</ele><time>2026-04-26T08:49:37.369Z</time></trkpt><trkpt lat="44.4629157" lon="8.0357781"><ele>769.3333333333333</ele><time>2026-04-26T08:49:38.39Z</time></trkpt><trkpt lat="44.4627118" lon="8.0358219"><ele>776.6666666666666</ele><time>2026-04-26T08:49:39.392Z</time></trkpt><trkpt lat="44.4625138" lon="8.0358965"><ele>784.0</ele><time>2026-04-26T08:49:40.391Z</time></trkpt><trkpt lat="44.4623099" lon="8.0360035"><ele>783.0</ele><time>2026-04-26T08:49:41.389Z</time></trkpt><trkpt lat="44.4621023" lon="8.0361356"><ele>782.0</ele><time>2026-04-26T08:49:42.376Z</time></trkpt><trkpt lat="44.4618852" lon="8.0362549"><ele>782.0</ele><time>2026-04-26T08:49:43.381Z</time></trkpt><trkpt lat="44.4616795" lon="8.0363523"><ele>782.0</ele><time>2026-04-26T08:49:44.387Z</time></trkpt><trkpt lat="44.4614986" lon="8.0364118"><ele>782.0</ele><time>2026-04-26T08:49:45.378Z</time></trkpt><trkpt lat="44.4613295" lon="8.0364657"><ele>782.75</ele><time>2026-04-26T08:49:46.378Z</time></trkpt><trkpt lat="44.4611957" lon="8.0365122"><ele>783.5</ele><time>2026-04-26T08:49:47.381Z</time></trkpt><trkpt lat="44.4610741" lon="8.0365502"><ele>784.25</ele><time>2026-04-26T08:49:48.422Z</time></trkpt><trkpt lat="44.4609762" lon="8.0365925"><ele>785.0</ele><time>2026-04-26T08:49:49.381Z</time></trkpt><trkpt lat="44.4609008" lon="8.0366657"><ele>787.5</ele><time>2026-04-26T08:49:50.388Z</time></trkpt><trkpt lat="44.4608297" lon="8.0367885"><ele>790.0</ele><time>2026-04-26T08:49:51.374Z</time></trkpt><trkpt lat="44.4607526" lon="8.0369439"><ele>792.5</ele><time>2026-04-26T08:49:52.396Z</time></trkpt><trkpt lat="44.4606703" lon="8.0371537"><ele>795.0</ele><time>2026-04-26T08:49:53.382Z</time></trkpt><trkpt lat="44.4605411" lon="8.0373627"><ele>793.0</ele><time>2026-04-26T08:49:54.39Z</time></trkpt><trkpt lat="44.4603874" lon="8.0375479"><ele>791.0</ele><time>2026-04-26T08:49:55.379Z</time></trkpt><trkpt lat="44.4602117" lon="8.0377275"><ele>789.0</ele><time>2026-04-26T08:49:56.382Z</time></trkpt><trkpt lat="44.4600035" lon="8.0378995"><ele>789.0</ele><time>2026-04-26T08:49:57.381Z</time></trkpt><trkpt lat="44.4597923" lon="8.0380247"><ele>789.0</ele><time>2026-04-26T08:49:58.377Z</time></trkpt><trkpt lat="44.4595573" lon="8.0381204"><ele>784.5</ele><time>2026-04-26T08:49:59.38Z</time></trkpt><trkpt lat="44.4593187" lon="8.03816"><ele>780.0</ele><time>2026-04-26T08:50:00.409Z</time></trkpt><trkpt lat="44.4590911" lon="8.0381612"><ele>780.0</ele><time>2026-04-26T08:50:01.389Z</time></trkpt><trkpt lat="44.4588703" lon="8.0381263"><ele>780.0</ele><time>2026-04-26T08:50:02.389Z</time></trkpt><trkpt lat="44.4586718" lon="8.0380711"><ele>780.0</ele><time>2026-04-26T08:50:03.384Z</time></trkpt><trkpt lat="44.4585027" lon="8.0380448"><ele>779.3333333333333</ele><time>2026-04-26T08:50:04.38Z</time></trkpt><trkpt lat="44.4583442" lon="8.0380814"><ele>778.6666666666666</ele><time>2026-04-26T08:50:05.379Z</time></trkpt><trkpt lat="44.4582058" lon="8.0381867"><ele>778.0</ele><time>2026-04-26T08:50:06.396Z</time></trkpt><trkpt lat="44.458117" lon="8.0383551"><ele>782.3333333333333</ele><time>2026-04-26T08:50:07.377Z</time></trkpt><trkpt lat="44.4580767" lon="8.0385538"><ele>786.6666666666667</ele><time>2026-04-26T08:50:08.396Z</time></trkpt><trkpt lat="44.4580988" lon="8.0387599"><ele>791.0</ele><time>2026-04-26T08:50:09.391Z</time></trkpt><trkpt lat="44.4581338" lon="8.0389941"><ele>790.3333333333334</ele><time>2026-04-26T08:50:10.382Z</time></trkpt><trkpt lat="44.4582096" lon="8.0392355"><ele>789.6666666666667</ele><time>2026-04-26T08:50:11.386Z</time></trkpt><trkpt lat="44.4582931" lon="8.0394912"><ele>789.0</ele><time>2026-04-26T08:50:12.389Z</time></trkpt><trkpt lat="44.4583696" lon="8.0397648"><ele>786.0</ele><time>2026-04-26T08:50:13.393Z</time></trkpt><trkpt lat="44.4584084" lon="8.0400451"><ele>783.0</ele><time>2026-04-26T08:50:14.396Z</time></trkpt><trkpt lat="44.4584035" lon="8.0403507"><ele>780.0</ele><time>2026-04-26T08:50:15.42Z</time></trkpt><trkpt lat="44.4583687" lon="8.0406538"><ele>779.0</ele><time>2026-04-26T08:50:16.386Z</time></trkpt><trkpt lat="44.458316" lon="8.0409415"><ele>778.0</ele><time>2026-04-26T08:50:17.394Z</time></trkpt><trkpt lat="44.4582632" lon="8.0412247"><ele>777.0</ele><time>2026-04-26T08:50:18.377Z</time></trkpt><trkpt lat="44.458191" lon="8.0415001"><ele>776.0</ele><time>2026-04-26T08:50:19.387Z</time></trkpt><trkpt lat="44.4580846" lon="8.0417485"><ele>775.0</ele><time>2026-04-26T08:50:20.38Z</time></trkpt><trkpt lat="44.4579498" lon="8.0419477"><ele>774.0</ele><time>2026-04-26T08:50:21.38Z</time></trkpt><trkpt lat="44.457809" lon="8.0421268"><ele>771.6666666666666</ele><time>2026-04-26T08:50:22.377Z</time></trkpt><trkpt lat="44.4576849" lon="8.0422826"><ele>769.3333333333333</ele><time>2026-04-26T08:50:23.379Z</time></trkpt><trkpt lat="44.457556" lon="8.0424356"><ele>767.0</ele><time>2026-04-26T08:50:24.387Z</time></trkpt><trkpt lat="44.4574099" lon="8.0426028"><ele>767.0</ele><time>2026-04-26T08:50:25.382Z</time></trkpt><trkpt lat="44.4572666" lon="8.0427863"><ele>767.0</ele><time>2026-04-26T08:50:26.377Z</time></trkpt><trkpt lat="44.4571278" lon="8.042997"><ele>767.0</ele><time>2026-04-26T08:50:27.378Z</time></trkpt><trkpt lat="44.457004" lon="8.0432486"><ele>763.0</ele><time>2026-04-26T08:50:28.393Z</time></trkpt><trkpt lat="44.4569181" lon="8.0435159"><ele>759.0</ele><time>2026-04-26T08:50:29.383Z</time></trkpt><trkpt lat="44.4568538" lon="8.0437878"><ele>755.0</ele><time>2026-04-26T08:50:30.39Z</time></trkpt><trkpt lat="44.4567919" lon="8.0440494"><ele>757.3333333333333</ele><time>2026-04-26T08:50:31.403Z</time></trkpt><trkpt lat="44.4567059" lon="8.044289"><ele>759.6666666666666</ele><time>2026-04-26T08:50:32.379Z</time></trkpt><trkpt lat="44.4565764" lon="8.0444991"><ele>762.0</ele><time>2026-04-26T08:50:33.376Z</time></trkpt><trkpt lat="44.4564588" lon="8.0447071"><ele>762.0</ele><time>2026-04-26T08:50:34.383Z</time></trkpt><trkpt lat="44.4563227" lon="8.0449462"><ele>762.0</ele><time>2026-04-26T08:50:35.373Z</time></trkpt><trkpt lat="44.4561905" lon="8.0451933"><ele>762.0</ele><time>2026-04-26T08:50:36.377Z</time></trkpt><trkpt lat="44.456059" lon="8.0454464"><ele>761.0</ele><time>2026-04-26T08:50:37.373Z</time></trkpt><trkpt lat="44.4559309" lon="8.0457042"><ele>760.0</ele><time>2026-04-26T08:50:38.384Z</time></trkpt><trkpt lat="44.4558243" lon="8.0459386"><ele>759.0</ele><time>2026-04-26T08:50:39.382Z</time></trkpt><trkpt lat="44.4557029" lon="8.0461334"><ele>759.0</ele><time>2026-04-26T08:50:40.382Z</time></trkpt><trkpt lat="44.4555559" lon="8.0462987"><ele>759.0</ele><time>2026-04-26T08:50:41.378Z</time></trkpt><trkpt lat="44.4553896" lon="8.0464348"><ele>759.0</ele><time>2026-04-26T08:50:42.388Z</time></trkpt><trkpt lat="44.4552366" lon="8.046556"><ele>759.0</ele><time>2026-04-26T08:50:43.375Z</time></trkpt><trkpt lat="44.4551162" lon="8.0467143"><ele>759.0</ele><time>2026-04-26T08:50:44.397Z</time></trkpt><trkpt lat="44.4550379" lon="8.0469043"><ele>759.0</ele><time>2026-04-26T08:50:45.38Z</time></trkpt><trkpt lat="44.4550007" lon="8.0471312"><ele>759.0</ele><time>2026-04-26T08:50:46.378Z</time></trkpt><trkpt lat="44.4549664" lon="8.0474008"><ele>759.0</ele><time>2026-04-26T08:50:47.379Z</time></trkpt><trkpt lat="44.4549242" lon="8.0476668"><ele>759.0</ele><time>2026-04-26T08:50:48.382Z</time></trkpt><trkpt lat="44.4548622" lon="8.0479236"><ele>761.0</ele><time>2026-04-26T08:50:49.382Z</time></trkpt><trkpt lat="44.4547876" lon="8.0481582"><ele>763.0</ele><time>2026-04-26T08:50:50.373Z</time></trkpt><trkpt lat="44.4546914" lon="8.0483826"><ele>765.0</ele><time>2026-04-26T08:50:51.374Z</time></trkpt><trkpt lat="44.4545833" lon="8.0486082"><ele>764.6666666666666</ele><time>2026-04-26T08:50:52.38Z</time></trkpt><trkpt lat="44.4544705" lon="8.0488446"><ele>764.3333333333333</ele><time>2026-04-26T08:50:53.382Z</time></trkpt><trkpt lat="44.4543731" lon="8.0490914"><ele>764.0</ele><time>2026-04-26T08:50:54.38Z</time></trkpt><trkpt lat="44.4542836" lon="8.049343"><ele>764.0</ele><time>2026-04-26T08:50:55.38Z</time></trkpt><trkpt lat="44.4541959" lon="8.0495928"><ele>764.0</ele><time>2026-04-26T08:50:56.387Z</time></trkpt><trkpt lat="44.4541098" lon="8.0498106"><ele>764.0</ele><time>2026-04-26T08:50:57.379Z</time></trkpt><trkpt lat="44.4540162" lon="8.0500121"><ele>762.3333333333333</ele><time>2026-04-26T08:50:58.374Z</time></trkpt><trkpt lat="44.4539173" lon="8.0501901"><ele>760.6666666666666</ele><time>2026-04-26T08:50:59.376Z</time></trkpt><trkpt lat="44.4538066" lon="8.0503602"><ele>759.0</ele><time>2026-04-26T08:51:00.382Z</time></trkpt><trkpt lat="44.4536873" lon="8.0505172"><ele>759.0</ele><time>2026-04-26T08:51:01.392Z</time></trkpt><trkpt lat="44.4535363" lon="8.0506516"><ele>759.0</ele><time>2026-04-26T08:51:02.384Z</time></trkpt><trkpt lat="44.4533658" lon="8.0507689"><ele>759.0</ele><time>2026-04-26T08:51:03.385Z</time></trkpt><trkpt lat="44.4532041" lon="8.0508721"><ele>761.3333333333334</ele><time>2026-04-26T08:51:04.384Z</time></trkpt><trkpt lat="44.4530311" lon="8.0509387"><ele>763.6666666666667</ele><time>2026-04-26T08:51:05.388Z</time></trkpt><trkpt lat="44.4528496" lon="8.0509622"><ele>766.0</ele><time>2026-04-26T08:51:06.393Z</time></trkpt><trkpt lat="44.4526563" lon="8.0509687"><ele>766.0</ele><time>2026-04-26T08:51:07.389Z</time></trkpt><trkpt lat="44.4524731" lon="8.0509856"><ele>766.0</ele><time>2026-04-26T08:51:08.393Z</time></trkpt><trkpt lat="44.4523104" lon="8.0510546"><ele>766.0</ele><time>2026-04-26T08:51:09.381Z</time></trkpt><trkpt lat="44.4521762" lon="8.051171"><ele>763.3333333333334</ele><time>2026-04-26T08:51:10.386Z</time></trkpt><trkpt lat="44.4520515" lon="8.0513326"><ele>760.6666666666666</ele><time>2026-04-26T08:51:11.381Z</time></trkpt><trkpt lat="44.4519456" lon="8.0515217"><ele>758.0</ele><time>2026-04-26T08:51:12.383Z</time></trkpt><trkpt lat="44.4518755" lon="8.0517505"><ele>758.0</ele><time>2026-04-26T08:51:13.397Z</time></trkpt><trkpt lat="44.4518104" lon="8.051999"><ele>758.0</ele><time>2026-04-26T08:51:14.368Z</time></trkpt><trkpt lat="44.451739" lon="8.0522697"><ele>758.0</ele><time>2026-04-26T08:51:15.396Z</time></trkpt><trkpt lat="44.4516404" lon="8.052528"><ele>761.3333333333333</ele><time>2026-04-26T08:51:16.377Z</time></trkpt><trkpt lat="44.451524" lon="8.0527743"><ele>764.6666666666666</ele><time>2026-04-26T08:51:17.38Z</time></trkpt><trkpt lat="44.4513995" lon="8.0529862"><ele>768.0</ele><time>2026-04-26T08:51:18.375Z</time></trkpt><trkpt lat="44.4512773" lon="8.0531992"><ele>762.3333333333334</ele><time>2026-04-26T08:51:19.376Z</time></trkpt><trkpt lat="44.4511757" lon="8.053429"><ele>756.6666666666667</ele><time>2026-04-26T08:51:20.378Z</time></trkpt><trkpt lat="44.4511221" lon="8.0536982"><ele>751.0</ele><time>2026-04-26T08:51:21.39Z</time></trkpt><trkpt lat="44.4510875" lon="8.0539793"><ele>752.0</ele><time>2026-04-26T08:51:22.382Z</time></trkpt><trkpt lat="44.451039" lon="8.0542614"><ele>753.0</ele><time>2026-04-26T08:51:23.383Z</time></trkpt><trkpt lat="44.4509639" lon="8.0545465"><ele>754.0</ele><time>2026-04-26T08:51:24.427Z</time></trkpt><trkpt lat="44.4508756" lon="8.0548306"><ele>755.3333333333334</ele><time>2026-04-26T08:51:25.394Z</time></trkpt><trkpt lat="44.450775" lon="8.0550832"><ele>756.6666666666666</ele><time>2026-04-26T08:51:26.382Z</time></trkpt><trkpt lat="44.4506475" lon="8.0553113"><ele>758.0</ele><time>2026-04-26T08:51:27.385Z</time></trkpt><trkpt lat="44.4504913" lon="8.0555315"><ele>758.6666666666666</ele><time>2026-04-26T08:51:28.394Z</time></trkpt><trkpt lat="44.4503207" lon="8.0557073"><ele>759.3333333333334</ele><time>2026-04-26T08:51:29.382Z</time></trkpt><trkpt lat="44.4501435" lon="8.0558436"><ele>760.0</ele><time>2026-04-26T08:51:30.372Z</time></trkpt><trkpt lat="44.4499437" lon="8.0559667"><ele>760.0</ele><time>2026-04-26T08:51:31.385Z</time></trkpt><trkpt lat="44.4497315" lon="8.0560897"><ele>760.0</ele><time>2026-04-26T08:51:32.385Z</time></trkpt><trkpt lat="44.4495244" lon="8.0561988"><ele>759.0</ele><time>2026-04-26T08:51:33.386Z</time></trkpt><trkpt lat="44.4493079" lon="8.0563038"><ele>758.0</ele><time>2026-04-26T08:51:34.4Z</time></trkpt><trkpt lat="44.4490995" lon="8.0563879"><ele>757.0</ele><time>2026-04-26T08:51:35.388Z</time></trkpt><trkpt lat="44.4489002" lon="8.0564546"><ele>755.3333333333334</ele><time>2026-04-26T08:51:36.38Z</time></trkpt><trkpt lat="44.4487142" lon="8.0565522"><ele>753.6666666666666</ele><time>2026-04-26T08:51:37.389Z</time></trkpt><trkpt lat="44.4485403" lon="8.0566705"><ele>752.0</ele><time>2026-04-26T08:51:38.385Z</time></trkpt><trkpt lat="44.448368" lon="8.0568249"><ele>755.6666666666666</ele><time>2026-04-26T08:51:39.375Z</time></trkpt><trkpt lat="44.4482011" lon="8.0569999"><ele>759.3333333333334</ele><time>2026-04-26T08:51:40.378Z</time></trkpt><trkpt lat="44.4480425" lon="8.0571955"><ele>763.0</ele><time>2026-04-26T08:51:41.391Z</time></trkpt><trkpt lat="44.4478919" lon="8.0574113"><ele>768.0</ele><time>2026-04-26T08:51:42.375Z</time></trkpt><trkpt lat="44.4477319" lon="8.0576086"><ele>773.0</ele><time>2026-04-26T08:51:43.391Z</time></trkpt><trkpt lat="44.447567" lon="8.0577922"><ele>778.0</ele><time>2026-04-26T08:51:44.383Z</time></trkpt><trkpt lat="44.4473936" lon="8.0579703"><ele>778.0</ele><time>2026-04-26T08:51:45.378Z</time></trkpt><trkpt lat="44.4472311" lon="8.0581331"><ele>778.0</ele><time>2026-04-26T08:51:46.377Z</time></trkpt><trkpt lat="44.4470784" lon="8.0582817"><ele>778.0</ele><time>2026-04-26T08:51:47.39Z</time></trkpt><trkpt lat="44.4469412" lon="8.0584351"><ele>782.0</ele><time>2026-04-26T08:51:48.381Z</time></trkpt><trkpt lat="44.4468333" lon="8.0586139"><ele>786.0</ele><time>2026-04-26T08:51:49.38Z</time></trkpt><trkpt lat="44.4467672" lon="8.0588117"><ele>790.0</ele><time>2026-04-26T08:51:50.383Z</time></trkpt><trkpt lat="44.4467364" lon="8.0590288"><ele>790.6666666666666</ele><time>2026-04-26T08:51:51.376Z</time></trkpt><trkpt lat="44.4467183" lon="8.0592697"><ele>791.3333333333333</ele><time>2026-04-26T08:51:52.379Z</time></trkpt><trkpt lat="44.4467385" lon="8.0595166"><ele>792.0</ele><time>2026-04-26T08:51:53.381Z</time></trkpt><trkpt lat="44.4467672" lon="8.0597807"><ele>790.3333333333333</ele><time>2026-04-26T08:51:54.373Z</time></trkpt><trkpt lat="44.4467995" lon="8.0600601"><ele>788.6666666666666</ele><time>2026-04-26T08:51:55.379Z</time></trkpt><trkpt lat="44.4468313" lon="8.0603495"><ele>787.0</ele><time>2026-04-26T08:51:56.386Z</time></trkpt><trkpt lat="44.4468992" lon="8.0605915"><ele>789.3333333333333</ele><time>2026-04-26T08:51:57.376Z</time></trkpt><trkpt lat="44.4469853" lon="8.060828"><ele>791.6666666666667</ele><time>2026-04-26T08:51:58.391Z</time></trkpt><trkpt lat="44.4470894" lon="8.0610354"><ele>794.0</ele><time>2026-04-26T08:51:59.38Z</time></trkpt><trkpt lat="44.4471683" lon="8.0612541"><ele>794.0</ele><time>2026-04-26T08:52:00.382Z</time></trkpt><trkpt lat="44.447194" lon="8.0614842"><ele>794.0</ele><time>2026-04-26T08:52:01.382Z</time></trkpt><trkpt lat="44.4471992" lon="8.0617343"><ele>794.0</ele><time>2026-04-26T08:52:02.381Z</time></trkpt><trkpt lat="44.4471876" lon="8.0619801"><ele>791.0</ele><time>2026-04-26T08:52:03.379Z</time></trkpt><trkpt lat="44.4471598" lon="8.062247"><ele>788.0</ele><time>2026-04-26T08:52:04.386Z</time></trkpt><trkpt lat="44.4471368" lon="8.0625325"><ele>785.0</ele><time>2026-04-26T08:52:05.388Z</time></trkpt><trkpt lat="44.4471205" lon="8.0628314"><ele>776.0</ele><time>2026-04-26T08:52:06.386Z</time></trkpt><trkpt lat="44.447106" lon="8.0631438"><ele>767.0</ele><time>2026-04-26T08:52:07.393Z</time></trkpt><trkpt lat="44.4470827" lon="8.063471"><ele>767.0</ele><time>2026-04-26T08:52:08.383Z</time></trkpt><trkpt lat="44.4470624" lon="8.0637985"><ele>767.0</ele><time>2026-04-26T08:52:09.38Z</time></trkpt><trkpt lat="44.4470396" lon="8.0641118"><ele>768.6666666666666</ele><time>2026-04-26T08:52:10.381Z</time></trkpt><trkpt lat="44.4470018" lon="8.0643925"><ele>770.3333333333333</ele><time>2026-04-26T08:52:11.384Z</time></trkpt><trkpt lat="44.4469328" lon="8.0646453"><ele>772.0</ele><time>2026-04-26T08:52:12.385Z</time></trkpt><trkpt lat="44.4468317" lon="8.0648749"><ele>774.3333333333333</ele><time>2026-04-26T08:52:13.393Z</time></trkpt><trkpt lat="44.4467284" lon="8.0650912"><ele>776.6666666666667</ele><time>2026-04-26T08:52:14.389Z</time></trkpt><trkpt lat="44.4466481" lon="8.0653365"><ele>779.0</ele><time>2026-04-26T08:52:15.385Z</time></trkpt><trkpt lat="44.4466003" lon="8.0656122"><ele>780.0</ele><time>2026-04-26T08:52:16.385Z</time></trkpt><trkpt lat="44.4465954" lon="8.0658948"><ele>781.0</ele><time>2026-04-26T08:52:17.388Z</time></trkpt><trkpt lat="44.4466134" lon="8.066207"><ele>782.0</ele><time>2026-04-26T08:52:18.38Z</time></trkpt><trkpt lat="44.4466302" lon="8.0665193"><ele>780.3333333333334</ele><time>2026-04-26T08:52:19.38Z</time></trkpt><trkpt lat="44.4466392" lon="8.0668284"><ele>778.6666666666667</ele><time>2026-04-26T08:52:20.385Z</time></trkpt><trkpt lat="44.4466304" lon="8.06712"><ele>777.0</ele><time>2026-04-26T08:52:21.389Z</time></trkpt><trkpt lat="44.4465908" lon="8.067385"><ele>778.3333333333333</ele><time>2026-04-26T08:52:22.384Z</time></trkpt><trkpt lat="44.4465087" lon="8.0676315"><ele>779.6666666666666</ele><time>2026-04-26T08:52:23.397Z</time></trkpt><trkpt lat="44.4464175" lon="8.06786"><ele>781.0</ele><time>2026-04-26T08:52:24.388Z</time></trkpt><trkpt lat="44.4463238" lon="8.0680955"><ele>776.0</ele><time>2026-04-26T08:52:25.371Z</time></trkpt><trkpt lat="44.4462373" lon="8.0683286"><ele>771.0</ele><time>2026-04-26T08:52:26.387Z</time></trkpt><trkpt lat="44.4461854" lon="8.0685725"><ele>766.0</ele><time>2026-04-26T08:52:27.384Z</time></trkpt><trkpt lat="44.446201" lon="8.0688291"><ele>767.6666666666667</ele><time>2026-04-26T08:52:28.374Z</time></trkpt><trkpt lat="44.4462331" lon="8.0691148"><ele>769.3333333333334</ele><time>2026-04-26T08:52:29.385Z</time></trkpt><trkpt lat="44.4462617" lon="8.0694092"><ele>771.0</ele><time>2026-04-26T08:52:30.382Z</time></trkpt><trkpt lat="44.4463055" lon="8.0697105"><ele>776.5</ele><time>2026-04-26T08:52:31.378Z</time></trkpt><trkpt lat="44.446347" lon="8.0700413"><ele>782.0</ele><time>2026-04-26T08:52:32.396Z</time></trkpt><trkpt lat="44.446389" lon="8.0703809"><ele>782.0</ele><time>2026-04-26T08:52:33.382Z</time></trkpt><trkpt lat="44.4464375" lon="8.0707164"><ele>782.0</ele><time>2026-04-26T08:52:34.375Z</time></trkpt><trkpt lat="44.44649" lon="8.0710517"><ele>782.0</ele><time>2026-04-26T08:52:35.375Z</time></trkpt><trkpt lat="44.4465403" lon="8.0713942"><ele>782.0</ele><time>2026-04-26T08:52:36.379Z</time></trkpt><trkpt lat="44.4466043" lon="8.0717429"><ele>780.0</ele><time>2026-04-26T08:52:37.385Z</time></trkpt><trkpt lat="44.4466848" lon="8.0720874"><ele>778.0</ele><time>2026-04-26T08:52:38.379Z</time></trkpt><trkpt lat="44.4467749" lon="8.072443"><ele>776.5</ele><time>2026-04-26T08:52:39.384Z</time></trkpt><trkpt lat="44.4468512" lon="8.072788"><ele>775.0</ele><time>2026-04-26T08:52:40.371Z</time></trkpt><trkpt lat="44.4469043" lon="8.0731274"><ele>771.5</ele><time>2026-04-26T08:52:41.384Z</time></trkpt><trkpt lat="44.4469494" lon="8.0734598"><ele>768.0</ele><time>2026-04-26T08:52:42.383Z</time></trkpt><trkpt lat="44.4469909" lon="8.073769"><ele>768.0</ele><time>2026-04-26T08:52:43.389Z</time></trkpt><trkpt lat="44.4470221" lon="8.0740681"><ele>768.0</ele><time>2026-04-26T08:52:44.379Z</time></trkpt><trkpt lat="44.4470469" lon="8.0743484"><ele>768.0</ele><time>2026-04-26T08:52:45.382Z</time></trkpt><trkpt lat="44.4470755" lon="8.074603"><ele>767.3333333333334</ele><time>2026-04-26T08:52:46.38Z</time></trkpt><trkpt lat="44.4470841" lon="8.0748637"><ele>766.6666666666667</ele><time>2026-04-26T08:52:47.388Z</time></trkpt><trkpt lat="44.4470382" lon="8.075105"><ele>766.0</ele><time>2026-04-26T08:52:48.4Z</time></trkpt><trkpt lat="44.4469514" lon="8.0753439"><ele>766.0</ele><time>2026-04-26T08:52:49.378Z</time></trkpt><trkpt lat="44.4468448" lon="8.0755636"><ele>766.0</ele><time>2026-04-26T08:52:50.371Z</time></trkpt><trkpt lat="44.4467374" lon="8.0757765"><ele>766.0</ele><time>2026-04-26T08:52:51.382Z</time></trkpt><trkpt lat="44.4466489" lon="8.0759832"><ele>769.0</ele><time>2026-04-26T08:52:52.385Z</time></trkpt><trkpt lat="44.4465833" lon="8.0762177"><ele>772.0</ele><time>2026-04-26T08:52:53.382Z</time></trkpt><trkpt lat="44.4465543" lon="8.076487"><ele>775.0</ele><time>2026-04-26T08:52:54.386Z</time></trkpt><trkpt lat="44.4465311" lon="8.0767714"><ele>777.6666666666666</ele><time>2026-04-26T08:52:55.384Z</time></trkpt><trkpt lat="44.4464923" lon="8.0770443"><ele>780.3333333333333</ele><time>2026-04-26T08:52:56.376Z</time></trkpt><trkpt lat="44.4464437" lon="8.077338"><ele>783.0</ele><time>2026-04-26T08:52:57.38Z</time></trkpt><trkpt lat="44.4463984" lon="8.0776296"><ele>786.0</ele><time>2026-04-26T08:52:58.379Z</time></trkpt><trkpt lat="44.4463782" lon="8.0779407"><ele>789.0</ele><time>2026-04-26T08:52:59.375Z</time></trkpt><trkpt lat="44.4463615" lon="8.0782515"><ele>792.0</ele><time>2026-04-26T08:53:00.373Z</time></trkpt><trkpt lat="44.4463399" lon="8.0785482"><ele>792.3333333333333</ele><time>2026-04-26T08:53:01.382Z</time></trkpt><trkpt lat="44.4463048" lon="8.0788307"><ele>792.6666666666666</ele><time>2026-04-26T08:53:02.388Z</time></trkpt><trkpt lat="44.4462366" lon="8.0790928"><ele>793.0</ele><time>2026-04-26T08:53:03.379Z</time></trkpt><trkpt lat="44.4461327" lon="8.0793377"><ele>788.0</ele><time>2026-04-26T08:53:04.369Z</time></trkpt><trkpt lat="44.4460245" lon="8.0795938"><ele>783.0</ele><time>2026-04-26T08:53:05.368Z</time></trkpt><trkpt lat="44.4459154" lon="8.0798667"><ele>778.0</ele><time>2026-04-26T08:53:06.372Z</time></trkpt><trkpt lat="44.4458042" lon="8.0801449"><ele>778.0</ele><time>2026-04-26T08:53:07.373Z</time></trkpt><trkpt lat="44.4456864" lon="8.0804111"><ele>778.0</ele><time>2026-04-26T08:53:08.375Z</time></trkpt><trkpt lat="44.4455766" lon="8.0806639"><ele>778.0</ele><time>2026-04-26T08:53:09.376Z</time></trkpt><trkpt lat="44.4454654" lon="8.0809219"><ele>775.0</ele><time>2026-04-26T08:53:10.371Z</time></trkpt><trkpt lat="44.4453571" lon="8.081178"><ele>772.0</ele><time>2026-04-26T08:53:11.383Z</time></trkpt><trkpt lat="44.4452598" lon="8.0814209"><ele>769.0</ele><time>2026-04-26T08:53:12.378Z</time></trkpt><trkpt lat="44.4451849" lon="8.0816571"><ele>769.0</ele><time>2026-04-26T08:53:13.372Z</time></trkpt><trkpt lat="44.4451378" lon="8.081926"><ele>769.0</ele><time>2026-04-26T08:53:14.377Z</time></trkpt><trkpt lat="44.4451147" lon="8.0822128"><ele>769.0</ele><time>2026-04-26T08:53:15.378Z</time></trkpt><trkpt lat="44.4450902" lon="8.0825062"><ele>770.6666666666666</ele><time>2026-04-26T08:53:16.38Z</time></trkpt><trkpt lat="44.4450675" lon="8.0828049"><ele>772.3333333333333</ele><time>2026-04-26T08:53:17.377Z</time></trkpt><trkpt lat="44.4450366" lon="8.0831039"><ele>774.0</ele><time>2026-04-26T08:53:18.378Z</time></trkpt><trkpt lat="44.4450054" lon="8.0833915"><ele>775.0</ele><time>2026-04-26T08:53:19.378Z</time></trkpt><trkpt lat="44.4449853" lon="8.0836402"><ele>776.0</ele><time>2026-04-26T08:53:20.379Z</time></trkpt><trkpt lat="44.4449466" lon="8.0838695"><ele>777.0</ele><time>2026-04-26T08:53:21.369Z</time></trkpt><trkpt lat="44.4448681" lon="8.0840636"><ele>779.0</ele><time>2026-04-26T08:53:22.38Z</time></trkpt><trkpt lat="44.4447454" lon="8.084249"><ele>781.0</ele><time>2026-04-26T08:53:23.379Z</time></trkpt><trkpt lat="44.4445913" lon="8.0843909"><ele>783.0</ele><time>2026-04-26T08:53:24.376Z</time></trkpt><trkpt lat="44.444431" lon="8.0845642"><ele>780.3333333333333</ele><time>2026-04-26T08:53:25.387Z</time></trkpt><trkpt lat="44.4442859" lon="8.0847451"><ele>777.6666666666666</ele><time>2026-04-26T08:53:26.374Z</time></trkpt><trkpt lat="44.4441579" lon="8.084924"><ele>775.0</ele><time>2026-04-26T08:53:27.369Z</time></trkpt><trkpt lat="44.4440335" lon="8.0851103"><ele>775.0</ele><time>2026-04-26T08:53:28.371Z</time></trkpt><trkpt lat="44.4439022" lon="8.0852597"><ele>775.0</ele><time>2026-04-26T08:53:29.37Z</time></trkpt><trkpt lat="44.4437503" lon="8.0853406"><ele>775.0</ele><time>2026-04-26T08:53:30.374Z</time></trkpt><trkpt lat="44.443596" lon="8.0853774"><ele>770.0</ele><time>2026-04-26T08:53:31.373Z</time></trkpt><trkpt lat="44.4434143" lon="8.0853795"><ele>765.0</ele><time>2026-04-26T08:53:32.37Z</time></trkpt><trkpt lat="44.443222" lon="8.0853952"><ele>760.0</ele><time>2026-04-26T08:53:33.388Z</time></trkpt><trkpt lat="44.4430139" lon="8.0854261"><ele>757.3333333333334</ele><time>2026-04-26T08:53:34.379Z</time></trkpt><trkpt lat="44.4427969" lon="8.0854901"><ele>754.6666666666666</ele><time>2026-04-26T08:53:35.379Z</time></trkpt><trkpt lat="44.4425878" lon="8.0855857"><ele>752.0</ele><time>2026-04-26T08:53:36.374Z</time></trkpt><trkpt lat="44.4423799" lon="8.0857"><ele>753.6666666666666</ele><time>2026-04-26T08:53:37.377Z</time></trkpt><trkpt lat="44.4421742" lon="8.0858003"><ele>755.3333333333334</ele><time>2026-04-26T08:53:38.388Z</time></trkpt><trkpt lat="44.4419925" lon="8.0858883"><ele>757.0</ele><time>2026-04-26T08:53:39.377Z</time></trkpt><trkpt lat="44.4418316" lon="8.0859715"><ele>757.0</ele><time>2026-04-26T08:53:40.378Z</time></trkpt><trkpt lat="44.4417088" lon="8.0861116"><ele>757.0</ele><time>2026-04-26T08:53:41.382Z</time></trkpt><trkpt lat="44.4416334" lon="8.0863463"><ele>757.0</ele><time>2026-04-26T08:53:42.375Z</time></trkpt><trkpt lat="44.4415544" lon="8.0866143"><ele>760.3333333333334</ele><time>2026-04-26T08:53:43.379Z</time></trkpt><trkpt lat="44.4414553" lon="8.0868851"><ele>763.6666666666666</ele><time>2026-04-26T08:53:44.384Z</time></trkpt><trkpt lat="44.4413449" lon="8.0871698"><ele>767.0</ele><time>2026-04-26T08:53:45.378Z</time></trkpt><trkpt lat="44.4412351" lon="8.0874712"><ele>756.5</ele><time>2026-04-26T08:53:46.373Z</time></trkpt><trkpt lat="44.4411326" lon="8.0877762"><ele>746.0</ele><time>2026-04-26T08:53:47.376Z</time></trkpt><trkpt lat="44.4410296" lon="8.0880855"><ele>749.0</ele><time>2026-04-26T08:53:48.384Z</time></trkpt><trkpt lat="44.440934" lon="8.0884211"><ele>752.0</ele><time>2026-04-26T08:53:49.376Z</time></trkpt><trkpt lat="44.4408345" lon="8.0887509"><ele>752.0</ele><time>2026-04-26T08:53:50.371Z</time></trkpt><trkpt lat="44.4407394" lon="8.0890723"><ele>752.0</ele><time>2026-04-26T08:53:51.378Z</time></trkpt><trkpt lat="44.4406468" lon="8.0893833"><ele>754.0</ele><time>2026-04-26T08:53:52.386Z</time></trkpt><trkpt lat="44.4405525" lon="8.0896835"><ele>756.0</ele><time>2026-04-26T08:53:53.382Z</time></trkpt><trkpt lat="44.4404481" lon="8.0899544"><ele>751.6666666666666</ele><time>2026-04-26T08:53:54.386Z</time></trkpt><trkpt lat="44.4403297" lon="8.0901927"><ele>747.3333333333333</ele><time>2026-04-26T08:53:55.384Z</time></trkpt><trkpt lat="44.4401949" lon="8.0904061"><ele>743.0</ele><time>2026-04-26T08:53:56.391Z</time></trkpt><trkpt lat="44.4400728" lon="8.0906211"><ele>746.3333333333333</ele><time>2026-04-26T08:53:57.371Z</time></trkpt><trkpt lat="44.4399907" lon="8.0908512"><ele>749.6666666666666</ele><time>2026-04-26T08:53:58.378Z</time></trkpt><trkpt lat="44.4399659" lon="8.0910727"><ele>753.0</ele><time>2026-04-26T08:53:59.375Z</time></trkpt><trkpt lat="44.4399615" lon="8.0913415"><ele>751.3333333333334</ele><time>2026-04-26T08:54:00.375Z</time></trkpt><trkpt lat="44.4399578" lon="8.0916302"><ele>749.6666666666667</ele><time>2026-04-26T08:54:01.377Z</time></trkpt><trkpt lat="44.4399466" lon="8.0919161"><ele>748.0</ele><time>2026-04-26T08:54:02.389Z</time></trkpt><trkpt lat="44.439923" lon="8.0922013"><ele>747.3333333333334</ele><time>2026-04-26T08:54:03.372Z</time></trkpt><trkpt lat="44.439875" lon="8.0924542"><ele>746.6666666666666</ele><time>2026-04-26T08:54:04.389Z</time></trkpt><trkpt lat="44.439798" lon="8.0926776"><ele>746.0</ele><time>2026-04-26T08:54:05.37Z</time></trkpt><trkpt lat="44.4396784" lon="8.0928969"><ele>743.0</ele><time>2026-04-26T08:54:06.371Z</time></trkpt><trkpt lat="44.4395554" lon="8.0931198"><ele>740.0</ele><time>2026-04-26T08:54:07.376Z</time></trkpt><trkpt lat="44.4394134" lon="8.0933387"><ele>737.0</ele><time>2026-04-26T08:54:08.376Z</time></trkpt><trkpt lat="44.4392441" lon="8.0935514"><ele>737.0</ele><time>2026-04-26T08:54:09.381Z</time></trkpt><trkpt lat="44.4390715" lon="8.0937646"><ele>737.0</ele><time>2026-04-26T08:54:10.38Z</time></trkpt><trkpt lat="44.4388984" lon="8.0939572"><ele>737.3333333333333</ele><time>2026-04-26T08:54:11.378Z</time></trkpt><trkpt lat="44.43873" lon="8.0941515"><ele>737.6666666666666</ele><time>2026-04-26T08:54:12.378Z</time></trkpt><trkpt lat="44.4385607" lon="8.0943331"><ele>738.0</ele><time>2026-04-26T08:54:13.376Z</time></trkpt><trkpt lat="44.4383987" lon="8.0944911"><ele>738.0</ele><time>2026-04-26T08:54:14.387Z</time></trkpt><trkpt lat="44.438234" lon="8.0945936"><ele>738.0</ele><time>2026-04-26T08:54:15.388Z</time></trkpt><trkpt lat="44.4380529" lon="8.0946285"><ele>738.0</ele><time>2026-04-26T08:54:16.375Z</time></trkpt><trkpt lat="44.4378843" lon="8.0946432"><ele>736.25</ele><time>2026-04-26T08:54:17.386Z</time></trkpt><trkpt lat="44.4377217" lon="8.0946377"><ele>734.5</ele><time>2026-04-26T08:54:18.375Z</time></trkpt><trkpt lat="44.4375839" lon="8.0946197"><ele>732.75</ele><time>2026-04-26T08:54:19.382Z</time></trkpt><trkpt lat="44.437471" lon="8.0946089"><ele>731.0</ele><time>2026-04-26T08:54:20.382Z</time></trkpt><trkpt lat="44.4373876" lon="8.0946383"><ele>731.0</ele><time>2026-04-26T08:54:21.373Z</time></trkpt><trkpt lat="44.4373192" lon="8.0947789"><ele>731.0</ele><time>2026-04-26T08:54:23.401Z</time></trkpt><trkpt lat="44.437391" lon="8.0949491"><ele>731.0</ele><time>2026-04-26T08:54:25.376Z</time></trkpt><trkpt lat="44.4375123" lon="8.0950583"><ele>731.0</ele><time>2026-04-26T08:54:26.384Z</time></trkpt><trkpt lat="44.437678" lon="8.0951589"><ele>733.0</ele><time>2026-04-26T08:54:27.37Z</time></trkpt><trkpt lat="44.4378499" lon="8.0952657"><ele>735.0</ele><time>2026-04-26T08:54:28.388Z</time></trkpt><trkpt lat="44.4380231" lon="8.095364"><ele>737.0</ele><time>2026-04-26T08:54:29.377Z</time></trkpt><trkpt lat="44.4382104" lon="8.0954391"><ele>738.3333333333333</ele><time>2026-04-26T08:54:30.388Z</time></trkpt><trkpt lat="44.4384162" lon="8.0954787"><ele>739.6666666666666</ele><time>2026-04-26T08:54:31.387Z</time></trkpt><trkpt lat="44.4386321" lon="8.095486"><ele>741.0</ele><time>2026-04-26T08:54:32.376Z</time></trkpt><trkpt lat="44.438849" lon="8.0954862"><ele>741.6666666666666</ele><time>2026-04-26T08:54:33.389Z</time></trkpt><trkpt lat="44.4390548" lon="8.0955097"><ele>742.3333333333333</ele><time>2026-04-26T08:54:34.417Z</time></trkpt><trkpt lat="44.4392472" lon="8.0955714"><ele>743.0</ele><time>2026-04-26T08:54:35.377Z</time></trkpt><trkpt lat="44.4394344" lon="8.0956776"><ele>739.6666666666666</ele><time>2026-04-26T08:54:36.379Z</time></trkpt><trkpt lat="44.4396036" lon="8.0958302"><ele>736.3333333333334</ele><time>2026-04-26T08:54:37.382Z</time></trkpt><trkpt lat="44.4397702" lon="8.0960022"><ele>733.0</ele><time>2026-04-26T08:54:38.381Z</time></trkpt><trkpt lat="44.4399317" lon="8.0961907"><ele>733.0</ele><time>2026-04-26T08:54:39.394Z</time></trkpt><trkpt lat="44.44009" lon="8.0963959"><ele>733.0</ele><time>2026-04-26T08:54:40.375Z</time></trkpt><trkpt lat="44.44024" lon="8.0965943"><ele>733.0</ele><time>2026-04-26T08:54:41.379Z</time></trkpt><trkpt lat="44.4403828" lon="8.0967733"><ele>730.6666666666667</ele><time>2026-04-26T08:54:42.388Z</time></trkpt><trkpt lat="44.4405165" lon="8.0969364"><ele>728.3333333333334</ele><time>2026-04-26T08:54:43.384Z</time></trkpt><trkpt lat="44.4406443" lon="8.097051"><ele>726.0</ele><time>2026-04-26T08:54:44.386Z</time></trkpt><trkpt lat="44.4407694" lon="8.0970713"><ele>726.0</ele><time>2026-04-26T08:54:45.376Z</time></trkpt><trkpt lat="44.4408929" lon="8.0970324"><ele>726.0</ele><time>2026-04-26T08:54:46.386Z</time></trkpt><trkpt lat="44.4410378" lon="8.0969554"><ele>726.0</ele><time>2026-04-26T08:54:47.381Z</time></trkpt><trkpt lat="44.4411571" lon="8.0968156"><ele>726.0</ele><time>2026-04-26T08:54:48.38Z</time></trkpt><trkpt lat="44.4412557" lon="8.0966598"><ele>723.0</ele><time>2026-04-26T08:54:49.386Z</time></trkpt><trkpt lat="44.4413515" lon="8.0965648"><ele>720.0</ele><time>2026-04-26T08:54:50.379Z</time></trkpt><trkpt lat="44.4414676" lon="8.0965417"><ele>717.0</ele><time>2026-04-26T08:54:51.398Z</time></trkpt><trkpt lat="44.441604" lon="8.0965971"><ele>714.0</ele><time>2026-04-26T08:54:52.374Z</time></trkpt><trkpt lat="44.4417488" lon="8.0966704"><ele>714.0</ele><time>2026-04-26T08:54:53.379Z</time></trkpt><trkpt lat="44.4418641" lon="8.0967674"><ele>714.0</ele><time>2026-04-26T08:54:54.39Z</time></trkpt><trkpt lat="44.441916" lon="8.0968832"><ele>714.0</ele><time>2026-04-26T08:54:55.381Z</time></trkpt><trkpt lat="44.4419295" lon="8.096995"><ele>714.0</ele><time>2026-04-26T08:54:56.377Z</time></trkpt><trkpt lat="44.4419034" lon="8.0971321"><ele>714.0</ele><time>2026-04-26T08:54:57.38Z</time></trkpt><trkpt lat="44.4418775" lon="8.0973299"><ele>714.0</ele><time>2026-04-26T08:54:58.39Z</time></trkpt><trkpt lat="44.4418328" lon="8.0975674"><ele>714.0</ele><time>2026-04-26T08:54:59.38Z</time></trkpt><trkpt lat="44.4417814" lon="8.0978181"><ele>714.0</ele><time>2026-04-26T08:55:00.382Z</time></trkpt><trkpt lat="44.4417067" lon="8.0980795"><ele>712.0</ele><time>2026-04-26T08:55:01.37Z</time></trkpt><trkpt lat="44.4416335" lon="8.0983519"><ele>710.0</ele><time>2026-04-26T08:55:02.375Z</time></trkpt><trkpt lat="44.4415646" lon="8.0986412"><ele>708.0</ele><time>2026-04-26T08:55:03.388Z</time></trkpt><trkpt lat="44.4415048" lon="8.0989248"><ele>704.6666666666666</ele><time>2026-04-26T08:55:04.388Z</time></trkpt><trkpt lat="44.4414474" lon="8.0992019"><ele>701.3333333333333</ele><time>2026-04-26T08:55:05.388Z</time></trkpt><trkpt lat="44.4413977" lon="8.0994648"><ele>698.0</ele><time>2026-04-26T08:55:06.387Z</time></trkpt><trkpt lat="44.4413573" lon="8.0997018"><ele>698.0</ele><time>2026-04-26T08:55:07.393Z</time></trkpt><trkpt lat="44.4413173" lon="8.0999002"><ele>698.0</ele><time>2026-04-26T08:55:08.388Z</time></trkpt><trkpt lat="44.4412621" lon="8.1000528"><ele>698.0</ele><time>2026-04-26T08:55:09.382Z</time></trkpt><trkpt lat="44.4411868" lon="8.1001693"><ele>698.0</ele><time>2026-04-26T08:55:10.382Z</time></trkpt><trkpt lat="44.441089" lon="8.1001803"><ele>696.5</ele><time>2026-04-26T08:55:11.38Z</time></trkpt><trkpt lat="44.4409685" lon="8.1001291"><ele>695.0</ele><time>2026-04-26T08:55:12.38Z</time></trkpt><trkpt lat="44.4408284" lon="8.100057"><ele>693.5</ele><time>2026-04-26T08:55:13.401Z</time></trkpt><trkpt lat="44.4406678" lon="8.0999788"><ele>692.0</ele><time>2026-04-26T08:55:14.387Z</time></trkpt><trkpt lat="44.4405074" lon="8.0999351"><ele>689.6666666666666</ele><time>2026-04-26T08:55:15.383Z</time></trkpt><trkpt lat="44.4403436" lon="8.0999641"><ele>687.3333333333334</ele><time>2026-04-26T08:55:16.39Z</time></trkpt><trkpt lat="44.4401926" lon="8.1000664"><ele>685.0</ele><time>2026-04-26T08:55:17.378Z</time></trkpt><trkpt lat="44.4400522" lon="8.1002198"><ele>685.0</ele><time>2026-04-26T08:55:18.379Z</time></trkpt><trkpt lat="44.4399147" lon="8.1003964"><ele>685.0</ele><time>2026-04-26T08:55:19.385Z</time></trkpt><trkpt lat="44.4397884" lon="8.1006172"><ele>685.0</ele><time>2026-04-26T08:55:20.387Z</time></trkpt><trkpt lat="44.4396873" lon="8.100861"><ele>678.3333333333334</ele><time>2026-04-26T08:55:21.383Z</time></trkpt><trkpt lat="44.4396028" lon="8.1011344"><ele>671.6666666666666</ele><time>2026-04-26T08:55:22.386Z</time></trkpt><trkpt lat="44.4395142" lon="8.1014149"><ele>665.0</ele><time>2026-04-26T08:55:23.381Z</time></trkpt><trkpt lat="44.4394327" lon="8.1016824"><ele>664.3333333333333</ele><time>2026-04-26T08:55:24.388Z</time></trkpt><trkpt lat="44.4393469" lon="8.1019436"><ele>663.6666666666666</ele><time>2026-04-26T08:55:25.378Z</time></trkpt><trkpt lat="44.4392627" lon="8.1022001"><ele>663.0</ele><time>2026-04-26T08:55:26.39Z</time></trkpt><trkpt lat="44.4391773" lon="8.1024514"><ele>660.6666666666666</ele><time>2026-04-26T08:55:27.401Z</time></trkpt><trkpt lat="44.4391224" lon="8.1027074"><ele>658.3333333333333</ele><time>2026-04-26T08:55:28.379Z</time></trkpt><trkpt lat="44.4391063" lon="8.1029676"><ele>656.0</ele><time>2026-04-26T08:55:29.413Z</time></trkpt><trkpt lat="44.4391237" lon="8.1032512"><ele>653.3333333333333</ele><time>2026-04-26T08:55:30.386Z</time></trkpt><trkpt lat="44.4391561" lon="8.1035382"><ele>650.6666666666666</ele><time>2026-04-26T08:55:31.387Z</time></trkpt><trkpt lat="44.4392045" lon="8.1038205"><ele>648.0</ele><time>2026-04-26T08:55:32.386Z</time></trkpt><trkpt lat="44.4392589" lon="8.1041031"><ele>646.3333333333334</ele><time>2026-04-26T08:55:33.395Z</time></trkpt><trkpt lat="44.4393299" lon="8.1043757"><ele>644.6666666666667</ele><time>2026-04-26T08:55:34.37Z</time></trkpt><trkpt lat="44.4394267" lon="8.1046387"><ele>643.0</ele><time>2026-04-26T08:55:35.38Z</time></trkpt><trkpt lat="44.4395388" lon="8.1048955"><ele>641.3333333333334</ele><time>2026-04-26T08:55:36.387Z</time></trkpt><trkpt lat="44.4396511" lon="8.1051404"><ele>639.6666666666666</ele><time>2026-04-26T08:55:37.381Z</time></trkpt><trkpt lat="44.4397813" lon="8.1053714"><ele>638.0</ele><time>2026-04-26T08:55:38.387Z</time></trkpt><trkpt lat="44.4399259" lon="8.1055939"><ele>636.6666666666666</ele><time>2026-04-26T08:55:39.388Z</time></trkpt><trkpt lat="44.4400928" lon="8.1058051"><ele>635.3333333333334</ele><time>2026-04-26T08:55:40.377Z</time></trkpt><trkpt lat="44.4402729" lon="8.1059889"><ele>634.0</ele><time>2026-04-26T08:55:41.382Z</time></trkpt><trkpt lat="44.4404594" lon="8.1061629"><ele>633.0</ele><time>2026-04-26T08:55:42.385Z</time></trkpt><trkpt lat="44.4406493" lon="8.1063337"><ele>632.0</ele><time>2026-04-26T08:55:43.387Z</time></trkpt><trkpt lat="44.4408214" lon="8.1064924"><ele>631.0</ele><time>2026-04-26T08:55:44.399Z</time></trkpt><trkpt lat="44.4409753" lon="8.1066365"><ele>629.75</ele><time>2026-04-26T08:55:45.389Z</time></trkpt><trkpt lat="44.4411056" lon="8.106762"><ele>628.5</ele><time>2026-04-26T08:55:46.401Z</time></trkpt><trkpt lat="44.4412268" lon="8.1068526"><ele>627.25</ele><time>2026-04-26T08:55:47.4Z</time></trkpt><trkpt lat="44.4413665" lon="8.1068878"><ele>626.0</ele><time>2026-04-26T08:55:48.388Z</time></trkpt><trkpt lat="44.4415321" lon="8.1068617"><ele>625.0</ele><time>2026-04-26T08:55:49.38Z</time></trkpt><trkpt lat="44.4416829" lon="8.1067768"><ele>624.0</ele><time>2026-04-26T08:55:50.397Z</time></trkpt><trkpt lat="44.4418178" lon="8.1066433"><ele>623.0</ele><time>2026-04-26T08:55:51.37Z</time></trkpt><trkpt lat="44.4419357" lon="8.1064779"><ele>623.0</ele><time>2026-04-26T08:55:52.397Z</time></trkpt><trkpt lat="44.4420504" lon="8.1063502"><ele>623.0</ele><time>2026-04-26T08:55:53.379Z</time></trkpt><trkpt lat="44.4421675" lon="8.1062712"><ele>623.0</ele><time>2026-04-26T08:55:54.37Z</time></trkpt><trkpt lat="44.4422981" lon="8.1062746"><ele>623.0</ele><time>2026-04-26T08:55:55.378Z</time></trkpt><trkpt lat="44.4424374" lon="8.1063475"><ele>621.25</ele><time>2026-04-26T08:55:56.381Z</time></trkpt><trkpt lat="44.4425337" lon="8.1064686"><ele>619.5</ele><time>2026-04-26T08:55:57.381Z</time></trkpt><trkpt lat="44.4425985" lon="8.1066464"><ele>617.75</ele><time>2026-04-26T08:55:58.384Z</time></trkpt><trkpt lat="44.4426044" lon="8.1068717"><ele>616.0</ele><time>2026-04-26T08:55:59.385Z</time></trkpt><trkpt lat="44.4425638" lon="8.1071342"><ele>615.6666666666667</ele><time>2026-04-26T08:56:00.378Z</time></trkpt><trkpt lat="44.4425395" lon="8.107401"><ele>615.3333333333334</ele><time>2026-04-26T08:56:01.416Z</time></trkpt><trkpt lat="44.44252" lon="8.1076762"><ele>615.0</ele><time>2026-04-26T08:56:02.381Z</time></trkpt><trkpt lat="44.4424984" lon="8.1079634"><ele>614.0</ele><time>2026-04-26T08:56:03.378Z</time></trkpt><trkpt lat="44.4424789" lon="8.108241"><ele>613.0</ele><time>2026-04-26T08:56:04.378Z</time></trkpt><trkpt lat="44.4424589" lon="8.1085258"><ele>612.0</ele><time>2026-04-26T08:56:05.379Z</time></trkpt><trkpt lat="44.4424345" lon="8.1087959"><ele>611.3333333333334</ele><time>2026-04-26T08:56:06.395Z</time></trkpt><trkpt lat="44.4424038" lon="8.1090264"><ele>610.6666666666667</ele><time>2026-04-26T08:56:07.387Z</time></trkpt><trkpt lat="44.4423439" lon="8.1092138"><ele>610.0</ele><time>2026-04-26T08:56:08.371Z</time></trkpt><trkpt lat="44.4422366" lon="8.1093583"><ele>612.0</ele><time>2026-04-26T08:56:09.377Z</time></trkpt><trkpt lat="44.4421146" lon="8.1094783"><ele>614.0</ele><time>2026-04-26T08:56:10.383Z</time></trkpt><trkpt lat="44.4419598" lon="8.1095447"><ele>616.0</ele><time>2026-04-26T08:56:11.373Z</time></trkpt><trkpt lat="44.4418101" lon="8.1095842"><ele>616.0</ele><time>2026-04-26T08:56:12.372Z</time></trkpt><trkpt lat="44.4416744" lon="8.1096052"><ele>616.0</ele><time>2026-04-26T08:56:13.378Z</time></trkpt><trkpt lat="44.4415362" lon="8.1096432"><ele>616.0</ele><time>2026-04-26T08:56:14.378Z</time></trkpt><trkpt lat="44.4414501" lon="8.1096885"><ele>616.0</ele><time>2026-04-26T08:56:15.369Z</time></trkpt><trkpt lat="44.4414085" lon="8.1097657"><ele>616.0</ele><time>2026-04-26T08:56:16.377Z</time></trkpt><trkpt lat="44.4415024" lon="8.109923"><ele>620.5</ele><time>2026-04-26T08:56:18.393Z</time></trkpt><trkpt lat="44.4416033" lon="8.1099854"><ele>625.0</ele><time>2026-04-26T08:56:19.385Z</time></trkpt><trkpt lat="44.4417443" lon="8.1100232"><ele>629.5</ele><time>2026-04-26T08:56:20.371Z</time></trkpt><trkpt lat="44.441907" lon="8.1100569"><ele>634.0</ele><time>2026-04-26T08:56:21.372Z</time></trkpt><trkpt lat="44.4420893" lon="8.1101045"><ele>634.3333333333334</ele><time>2026-04-26T08:56:22.37Z</time></trkpt><trkpt lat="44.4422792" lon="8.1101386"><ele>634.6666666666666</ele><time>2026-04-26T08:56:23.38Z</time></trkpt><trkpt lat="44.4424791" lon="8.1101601"><ele>635.0</ele><time>2026-04-26T08:56:24.374Z</time></trkpt><trkpt lat="44.4426837" lon="8.1101667"><ele>635.0</ele><time>2026-04-26T08:56:25.368Z</time></trkpt><trkpt lat="44.4429093" lon="8.1101517"><ele>635.0</ele><time>2026-04-26T08:56:26.387Z</time></trkpt><trkpt lat="44.4431401" lon="8.1101277"><ele>639.0</ele><time>2026-04-26T08:56:27.387Z</time></trkpt><trkpt lat="44.4433695" lon="8.1101"><ele>643.0</ele><time>2026-04-26T08:56:28.374Z</time></trkpt><trkpt lat="44.4436001" lon="8.1100765"><ele>646.3333333333334</ele><time>2026-04-26T08:56:29.379Z</time></trkpt><trkpt lat="44.4438282" lon="8.1100565"><ele>649.6666666666666</ele><time>2026-04-26T08:56:30.377Z</time></trkpt><trkpt lat="44.4440407" lon="8.1100339"><ele>653.0</ele><time>2026-04-26T08:56:31.386Z</time></trkpt><trkpt lat="44.4442346" lon="8.1099998"><ele>653.0</ele><time>2026-04-26T08:56:32.386Z</time></trkpt><trkpt lat="44.4444125" lon="8.109931"><ele>653.0</ele><time>2026-04-26T08:56:33.375Z</time></trkpt><trkpt lat="44.4446041" lon="8.1098421"><ele>653.0</ele><time>2026-04-26T08:56:34.371Z</time></trkpt><trkpt lat="44.4447883" lon="8.1097539"><ele>652.6666666666666</ele><time>2026-04-26T08:56:35.387Z</time></trkpt><trkpt lat="44.4449626" lon="8.1096707"><ele>652.3333333333334</ele><time>2026-04-26T08:56:36.37Z</time></trkpt><trkpt lat="44.4451123" lon="8.1095623"><ele>652.0</ele><time>2026-04-26T08:56:37.38Z</time></trkpt><trkpt lat="44.4452561" lon="8.1094803"><ele>652.0</ele><time>2026-04-26T08:56:38.38Z</time></trkpt><trkpt lat="44.4453736" lon="8.109419"><ele>652.0</ele><time>2026-04-26T08:56:39.372Z</time></trkpt><trkpt lat="44.4454585" lon="8.1093699"><ele>652.0</ele><time>2026-04-26T08:56:40.38Z</time></trkpt><trkpt lat="44.4455358" lon="8.1093349"><ele>652.0</ele><time>2026-04-26T08:56:41.383Z</time></trkpt><trkpt lat="44.4455904" lon="8.1092808"><ele>652.0</ele><time>2026-04-26T08:56:42.385Z</time></trkpt><trkpt lat="44.4455937" lon="8.1090753"><ele>658.0</ele><time>2026-04-26T08:56:44.381Z</time></trkpt><trkpt lat="44.4455667" lon="8.1089388"><ele>664.0</ele><time>2026-04-26T08:56:45.371Z</time></trkpt><trkpt lat="44.445548" lon="8.1087675"><ele>670.0</ele><time>2026-04-26T08:56:46.376Z</time></trkpt><trkpt lat="44.4455449" lon="8.1085657"><ele>676.0</ele><time>2026-04-26T08:56:47.365Z</time></trkpt><trkpt lat="44.4455667" lon="8.1083745"><ele>673.3333333333334</ele><time>2026-04-26T08:56:48.398Z</time></trkpt><trkpt lat="44.4456206" lon="8.1081668"><ele>670.6666666666666</ele><time>2026-04-26T08:56:49.385Z</time></trkpt><trkpt lat="44.4457037" lon="8.1079656"><ele>668.0</ele><time>2026-04-26T08:56:50.371Z</time></trkpt><trkpt lat="44.445789" lon="8.1077685"><ele>668.0</ele><time>2026-04-26T08:56:51.378Z</time></trkpt><trkpt lat="44.4458848" lon="8.1075662"><ele>668.0</ele><time>2026-04-26T08:56:52.384Z</time></trkpt><trkpt lat="44.4459795" lon="8.1073649"><ele>668.0</ele><time>2026-04-26T08:56:53.385Z</time></trkpt><trkpt lat="44.4460797" lon="8.1071731"><ele>664.6666666666666</ele><time>2026-04-26T08:56:54.372Z</time></trkpt><trkpt lat="44.4461808" lon="8.1069767"><ele>661.3333333333334</ele><time>2026-04-26T08:56:55.379Z</time></trkpt><trkpt lat="44.4462964" lon="8.106793"><ele>658.0</ele><time>2026-04-26T08:56:56.368Z</time></trkpt><trkpt lat="44.4464373" lon="8.1066462"><ele>662.0</ele><time>2026-04-26T08:56:57.381Z</time></trkpt><trkpt lat="44.4465789" lon="8.1064816"><ele>666.0</ele><time>2026-04-26T08:56:58.371Z</time></trkpt><trkpt lat="44.446732" lon="8.1063391"><ele>670.0</ele><time>2026-04-26T08:56:59.368Z</time></trkpt><trkpt lat="44.4468978" lon="8.1061905"><ele>670.0</ele><time>2026-04-26T08:57:00.384Z</time></trkpt><trkpt lat="44.4470525" lon="8.1060627"><ele>670.0</ele><time>2026-04-26T08:57:01.375Z</time></trkpt><trkpt lat="44.4472151" lon="8.1059859"><ele>670.0</ele><time>2026-04-26T08:57:02.399Z</time></trkpt><trkpt lat="44.4473919" lon="8.1059275"><ele>673.6666666666667</ele><time>2026-04-26T08:57:03.383Z</time></trkpt><trkpt lat="44.4475882" lon="8.1058876"><ele>677.3333333333334</ele><time>2026-04-26T08:57:04.37Z</time></trkpt><trkpt lat="44.4477968" lon="8.1058408"><ele>681.0</ele><time>2026-04-26T08:57:05.374Z</time></trkpt><trkpt lat="44.4480223" lon="8.1057969"><ele>683.0</ele><time>2026-04-26T08:57:06.373Z</time></trkpt><trkpt lat="44.4482559" lon="8.1057455"><ele>685.0</ele><time>2026-04-26T08:57:07.392Z</time></trkpt><trkpt lat="44.4484925" lon="8.1056957"><ele>680.5</ele><time>2026-04-26T08:57:08.383Z</time></trkpt><trkpt lat="44.448731" lon="8.1056341"><ele>676.0</ele><time>2026-04-26T08:57:09.37Z</time></trkpt><trkpt lat="44.4489611" lon="8.1055798"><ele>676.0</ele><time>2026-04-26T08:57:10.38Z</time></trkpt><trkpt lat="44.4491904" lon="8.1055207"><ele>676.0</ele><time>2026-04-26T08:57:11.371Z</time></trkpt><trkpt lat="44.4494173" lon="8.1054512"><ele>680.0</ele><time>2026-04-26T08:57:12.376Z</time></trkpt><trkpt lat="44.4496453" lon="8.1053618"><ele>684.0</ele><time>2026-04-26T08:57:13.376Z</time></trkpt><trkpt lat="44.4498718" lon="8.1052526"><ele>684.0</ele><time>2026-04-26T08:57:14.368Z</time></trkpt><trkpt lat="44.4501059" lon="8.1051395"><ele>684.0</ele><time>2026-04-26T08:57:15.378Z</time></trkpt><trkpt lat="44.4503419" lon="8.105002"><ele>683.0</ele><time>2026-04-26T08:57:16.387Z</time></trkpt><trkpt lat="44.4505718" lon="8.1048426"><ele>682.0</ele><time>2026-04-26T08:57:17.375Z</time></trkpt><trkpt lat="44.4507767" lon="8.1046822"><ele>682.0</ele><time>2026-04-26T08:57:18.377Z</time></trkpt><trkpt lat="44.4509552" lon="8.1045404"><ele>682.0</ele><time>2026-04-26T08:57:19.374Z</time></trkpt><trkpt lat="44.4511166" lon="8.1044294"><ele>682.0</ele><time>2026-04-26T08:57:20.387Z</time></trkpt><trkpt lat="44.4512583" lon="8.1043568"><ele>683.3333333333334</ele><time>2026-04-26T08:57:21.385Z</time></trkpt><trkpt lat="44.4514002" lon="8.1043536"><ele>684.6666666666666</ele><time>2026-04-26T08:57:22.377Z</time></trkpt><trkpt lat="44.4515371" lon="8.1044349"><ele>686.0</ele><time>2026-04-26T08:57:23.37Z</time></trkpt><trkpt lat="44.4516757" lon="8.1045604"><ele>686.0</ele><time>2026-04-26T08:57:24.374Z</time></trkpt><trkpt lat="44.4518271" lon="8.104722"><ele>686.0</ele><time>2026-04-26T08:57:25.387Z</time></trkpt><trkpt lat="44.4519988" lon="8.1048835"><ele>686.0</ele><time>2026-04-26T08:57:26.406Z</time></trkpt><trkpt lat="44.4521854" lon="8.1050314"><ele>687.0</ele><time>2026-04-26T08:57:27.38Z</time></trkpt><trkpt lat="44.4523686" lon="8.1051419"><ele>688.0</ele><time>2026-04-26T08:57:28.389Z</time></trkpt><trkpt lat="44.4525601" lon="8.1051785"><ele>689.0</ele><time>2026-04-26T08:57:29.412Z</time></trkpt><trkpt lat="44.4527614" lon="8.1051697"><ele>689.0</ele><time>2026-04-26T08:57:30.385Z</time></trkpt><trkpt lat="44.4529446" lon="8.1050896"><ele>689.0</ele><time>2026-04-26T08:57:31.397Z</time></trkpt><trkpt lat="44.4531451" lon="8.1049883"><ele>689.0</ele><time>2026-04-26T08:57:32.407Z</time></trkpt><trkpt lat="44.4533256" lon="8.104837"><ele>689.6666666666666</ele><time>2026-04-26T08:57:33.394Z</time></trkpt><trkpt lat="44.4535019" lon="8.1046645"><ele>690.3333333333334</ele><time>2026-04-26T08:57:34.373Z</time></trkpt><trkpt lat="44.4536717" lon="8.1045112"><ele>691.0</ele><time>2026-04-26T08:57:35.388Z</time></trkpt><trkpt lat="44.4538232" lon="8.1043559"><ele>694.6666666666667</ele><time>2026-04-26T08:57:36.388Z</time></trkpt><trkpt lat="44.4539495" lon="8.1041977"><ele>698.3333333333334</ele><time>2026-04-26T08:57:37.396Z</time></trkpt><trkpt lat="44.4540664" lon="8.1039772"><ele>702.0</ele><time>2026-04-26T08:57:38.374Z</time></trkpt><trkpt lat="44.4541587" lon="8.1037022"><ele>702.3333333333334</ele><time>2026-04-26T08:57:39.382Z</time></trkpt><trkpt lat="44.4542623" lon="8.1034278"><ele>702.6666666666667</ele><time>2026-04-26T08:57:40.388Z</time></trkpt><trkpt lat="44.454362" lon="8.103152"><ele>703.0</ele><time>2026-04-26T08:57:41.383Z</time></trkpt><trkpt lat="44.4544537" lon="8.1028928"><ele>702.3333333333334</ele><time>2026-04-26T08:57:42.379Z</time></trkpt><trkpt lat="44.4545513" lon="8.1026586"><ele>701.6666666666666</ele><time>2026-04-26T08:57:43.382Z</time></trkpt><trkpt lat="44.4546547" lon="8.1024601"><ele>701.0</ele><time>2026-04-26T08:57:44.375Z</time></trkpt><trkpt lat="44.454771" lon="8.1022776"><ele>703.6666666666666</ele><time>2026-04-26T08:57:45.377Z</time></trkpt><trkpt lat="44.4549012" lon="8.1021337"><ele>706.3333333333334</ele><time>2026-04-26T08:57:46.385Z</time></trkpt><trkpt lat="44.4550716" lon="8.102044"><ele>709.0</ele><time>2026-04-26T08:57:47.368Z</time></trkpt><trkpt lat="44.4552604" lon="8.1019633"><ele>713.0</ele><time>2026-04-26T08:57:48.375Z</time></trkpt><trkpt lat="44.4554617" lon="8.1018773"><ele>717.0</ele><time>2026-04-26T08:57:49.383Z</time></trkpt><trkpt lat="44.4556612" lon="8.1017742"><ele>721.0</ele><time>2026-04-26T08:57:50.382Z</time></trkpt><trkpt lat="44.4558505" lon="8.1016856"><ele>721.0</ele><time>2026-04-26T08:57:51.383Z</time></trkpt><trkpt lat="44.4560297" lon="8.1015973"><ele>721.0</ele><time>2026-04-26T08:57:52.379Z</time></trkpt><trkpt lat="44.4562109" lon="8.1015409"><ele>721.0</ele><time>2026-04-26T08:57:53.384Z</time></trkpt><trkpt lat="44.4563998" lon="8.1015211"><ele>723.0</ele><time>2026-04-26T08:57:54.385Z</time></trkpt><trkpt lat="44.4565917" lon="8.1015337"><ele>725.0</ele><time>2026-04-26T08:57:55.392Z</time></trkpt><trkpt lat="44.456779" lon="8.1015546"><ele>727.0</ele><time>2026-04-26T08:57:56.399Z</time></trkpt><trkpt lat="44.4569686" lon="8.1015844"><ele>728.3333333333334</ele><time>2026-04-26T08:57:57.389Z</time></trkpt><trkpt lat="44.4571505" lon="8.1015796"><ele>729.6666666666666</ele><time>2026-04-26T08:57:58.386Z</time></trkpt><trkpt lat="44.457333" lon="8.1015401"><ele>731.0</ele><time>2026-04-26T08:57:59.393Z</time></trkpt><trkpt lat="44.4575269" lon="8.1014702"><ele>731.0</ele><time>2026-04-26T08:58:00.391Z</time></trkpt><trkpt lat="44.4577264" lon="8.1013755"><ele>731.0</ele><time>2026-04-26T08:58:01.389Z</time></trkpt><trkpt lat="44.4579221" lon="8.1012634"><ele>731.0</ele><time>2026-04-26T08:58:02.382Z</time></trkpt><trkpt lat="44.4581337" lon="8.1011372"><ele>730.0</ele><time>2026-04-26T08:58:03.375Z</time></trkpt><trkpt lat="44.4583505" lon="8.1009908"><ele>729.0</ele><time>2026-04-26T08:58:04.382Z</time></trkpt><trkpt lat="44.4585633" lon="8.1007935"><ele>729.5</ele><time>2026-04-26T08:58:05.373Z</time></trkpt><trkpt lat="44.4587715" lon="8.1005815"><ele>730.0</ele><time>2026-04-26T08:58:06.385Z</time></trkpt><trkpt lat="44.4589724" lon="8.1003704"><ele>730.0</ele><time>2026-04-26T08:58:07.391Z</time></trkpt><trkpt lat="44.4591616" lon="8.1001716"><ele>730.0</ele><time>2026-04-26T08:58:08.369Z</time></trkpt><trkpt lat="44.4593478" lon="8.0999862"><ele>730.6666666666667</ele><time>2026-04-26T08:58:09.392Z</time></trkpt><trkpt lat="44.4595111" lon="8.0998126"><ele>731.3333333333334</ele><time>2026-04-26T08:58:10.39Z</time></trkpt><trkpt lat="44.4596651" lon="8.0996498"><ele>732.0</ele><time>2026-04-26T08:58:11.37Z</time></trkpt><trkpt lat="44.4598275" lon="8.0995055"><ele>732.0</ele><time>2026-04-26T08:58:12.382Z</time></trkpt><trkpt lat="44.4599773" lon="8.0993653"><ele>732.0</ele><time>2026-04-26T08:58:13.38Z</time></trkpt><trkpt lat="44.4601278" lon="8.0992209"><ele>732.0</ele><time>2026-04-26T08:58:14.38Z</time></trkpt><trkpt lat="44.4602645" lon="8.0990974"><ele>732.25</ele><time>2026-04-26T08:58:15.379Z</time></trkpt><trkpt lat="44.460393" lon="8.0989818"><ele>732.5</ele><time>2026-04-26T08:58:16.381Z</time></trkpt><trkpt lat="44.4605051" lon="8.0988824"><ele>732.75</ele><time>2026-04-26T08:58:17.379Z</time></trkpt><trkpt lat="44.4606004" lon="8.0987735"><ele>733.0</ele><time>2026-04-26T08:58:18.383Z</time></trkpt><trkpt lat="44.4606943" lon="8.0986192"><ele>733.0</ele><time>2026-04-26T08:58:19.376Z</time></trkpt><trkpt lat="44.4607723" lon="8.0984499"><ele>733.0</ele><time>2026-04-26T08:58:20.382Z</time></trkpt><trkpt lat="44.460849" lon="8.0982577"><ele>733.0</ele><time>2026-04-26T08:58:21.383Z</time></trkpt><trkpt lat="44.4609402" lon="8.0980368"><ele>735.0</ele><time>2026-04-26T08:58:22.393Z</time></trkpt><trkpt lat="44.461015" lon="8.0978236"><ele>737.0</ele><time>2026-04-26T08:58:23.385Z</time></trkpt><trkpt lat="44.461071" lon="8.097606"><ele>739.0</ele><time>2026-04-26T08:58:24.385Z</time></trkpt><trkpt lat="44.4610816" lon="8.0973469"><ele>741.3333333333334</ele><time>2026-04-26T08:58:25.381Z</time></trkpt><trkpt lat="44.4610565" lon="8.0970724"><ele>743.6666666666666</ele><time>2026-04-26T08:58:26.372Z</time></trkpt><trkpt lat="44.4610443" lon="8.096801"><ele>746.0</ele><time>2026-04-26T08:58:27.38Z</time></trkpt><trkpt lat="44.4610295" lon="8.0965138"><ele>749.0</ele><time>2026-04-26T08:58:28.395Z</time></trkpt><trkpt lat="44.4610239" lon="8.0962041"><ele>752.0</ele><time>2026-04-26T08:58:29.382Z</time></trkpt><trkpt lat="44.461028" lon="8.0958775"><ele>753.6666666666666</ele><time>2026-04-26T08:58:30.374Z</time></trkpt><trkpt lat="44.4610304" lon="8.0955521"><ele>755.3333333333334</ele><time>2026-04-26T08:58:31.397Z</time></trkpt><trkpt lat="44.4610409" lon="8.0952635"><ele>757.0</ele><time>2026-04-26T08:58:32.368Z</time></trkpt><trkpt lat="44.461057" lon="8.0950019"><ele>755.0</ele><time>2026-04-26T08:58:33.371Z</time></trkpt><trkpt lat="44.4610906" lon="8.09478"><ele>753.0</ele><time>2026-04-26T08:58:34.389Z</time></trkpt><trkpt lat="44.4611503" lon="8.0945859"><ele>751.0</ele><time>2026-04-26T08:58:35.371Z</time></trkpt><trkpt lat="44.4612361" lon="8.0944101"><ele>752.0</ele><time>2026-04-26T08:58:36.373Z</time></trkpt><trkpt lat="44.4613707" lon="8.094256"><ele>753.0</ele><time>2026-04-26T08:58:37.375Z</time></trkpt><trkpt lat="44.4615233" lon="8.0941233"><ele>754.0</ele><time>2026-04-26T08:58:38.384Z</time></trkpt><trkpt lat="44.4617019" lon="8.0940304"><ele>754.0</ele><time>2026-04-26T08:58:39.38Z</time></trkpt><trkpt lat="44.4618871" lon="8.0939454"><ele>754.0</ele><time>2026-04-26T08:58:40.372Z</time></trkpt><trkpt lat="44.4620718" lon="8.0938558"><ele>754.0</ele><time>2026-04-26T08:58:41.386Z</time></trkpt><trkpt lat="44.4622677" lon="8.0937801"><ele>759.3333333333334</ele><time>2026-04-26T08:58:42.384Z</time></trkpt><trkpt lat="44.4624657" lon="8.0937326"><ele>764.6666666666667</ele><time>2026-04-26T08:58:43.379Z</time></trkpt><trkpt lat="44.4626633" lon="8.0937164"><ele>770.0</ele><time>2026-04-26T08:58:44.389Z</time></trkpt><trkpt lat="44.4628493" lon="8.0937429"><ele>773.3333333333334</ele><time>2026-04-26T08:58:45.381Z</time></trkpt><trkpt lat="44.4630272" lon="8.0937794"><ele>776.6666666666667</ele><time>2026-04-26T08:58:46.376Z</time></trkpt><trkpt lat="44.4632067" lon="8.0938358"><ele>780.0</ele><time>2026-04-26T08:58:47.376Z</time></trkpt><trkpt lat="44.4633772" lon="8.0938737"><ele>780.0</ele><time>2026-04-26T08:58:48.393Z</time></trkpt><trkpt lat="44.4635447" lon="8.0938887"><ele>780.0</ele><time>2026-04-26T08:58:49.381Z</time></trkpt><trkpt lat="44.4637026" lon="8.0938666"><ele>780.0</ele><time>2026-04-26T08:58:50.382Z</time></trkpt><trkpt lat="44.4638588" lon="8.0938174"><ele>784.0</ele><time>2026-04-26T08:58:51.378Z</time></trkpt><trkpt lat="44.4640171" lon="8.0937544"><ele>788.0</ele><time>2026-04-26T08:58:52.384Z</time></trkpt><trkpt lat="44.4641687" lon="8.0936836"><ele>792.0</ele><time>2026-04-26T08:58:53.387Z</time></trkpt><trkpt lat="44.4643104" lon="8.0936273"><ele>792.0</ele><time>2026-04-26T08:58:54.383Z</time></trkpt><trkpt lat="44.4644365" lon="8.0935712"><ele>792.0</ele><time>2026-04-26T08:58:55.373Z</time></trkpt><trkpt lat="44.4645587" lon="8.0935148"><ele>792.0</ele><time>2026-04-26T08:58:56.376Z</time></trkpt><trkpt lat="44.4646701" lon="8.0934406"><ele>792.0</ele><time>2026-04-26T08:58:57.39Z</time></trkpt><trkpt lat="44.4647543" lon="8.0933523"><ele>792.0</ele><time>2026-04-26T08:58:58.382Z</time></trkpt><trkpt lat="44.4647999" lon="8.0932617"><ele>792.0</ele><time>2026-04-26T08:58:59.379Z</time></trkpt><trkpt lat="44.4648412" lon="8.0931899"><ele>792.0</ele><time>2026-04-26T08:59:01.385Z</time></trkpt><trkpt lat="44.4647694" lon="8.0932272"><ele>792.0</ele><time>2026-04-26T08:59:08.384Z</time></trkpt><trkpt lat="44.4646926" lon="8.0933562"><ele>792.0</ele><time>2026-04-26T08:59:10.38Z</time></trkpt><trkpt lat="44.4646157" lon="8.0934426"><ele>792.0</ele><time>2026-04-26T08:59:11.38Z</time></trkpt><trkpt lat="44.4645219" lon="8.0935196"><ele>792.0</ele><time>2026-04-26T08:59:12.387Z</time></trkpt><trkpt lat="44.464401" lon="8.0935674"><ele>792.0</ele><time>2026-04-26T08:59:13.376Z</time></trkpt><trkpt lat="44.4642602" lon="8.0936193"><ele>792.0</ele><time>2026-04-26T08:59:14.383Z</time></trkpt><trkpt lat="44.4641101" lon="8.0936757"><ele>792.0</ele><time>2026-04-26T08:59:15.389Z</time></trkpt><trkpt lat="44.4639505" lon="8.0937411"><ele>792.0</ele><time>2026-04-26T08:59:16.386Z</time></trkpt><trkpt lat="44.4637978" lon="8.0937999"><ele>792.0</ele><time>2026-04-26T08:59:17.375Z</time></trkpt><trkpt lat="44.463648" lon="8.0938452"><ele>792.0</ele><time>2026-04-26T08:59:18.393Z</time></trkpt><trkpt lat="44.4634989" lon="8.0938802"><ele>788.0</ele><time>2026-04-26T08:59:19.376Z</time></trkpt><trkpt lat="44.4633377" lon="8.0938748"><ele>784.0</ele><time>2026-04-26T08:59:20.384Z</time></trkpt><trkpt lat="44.4631679" lon="8.0938212"><ele>780.0</ele><time>2026-04-26T08:59:21.379Z</time></trkpt><trkpt lat="44.4629951" lon="8.0937664"><ele>776.6666666666667</ele><time>2026-04-26T08:59:22.392Z</time></trkpt><trkpt lat="44.4628264" lon="8.0937069"><ele>773.3333333333334</ele><time>2026-04-26T08:59:23.378Z</time></trkpt><trkpt lat="44.4626622" lon="8.0936696"><ele>770.0</ele><time>2026-04-26T08:59:24.39Z</time></trkpt><trkpt lat="44.4625008" lon="8.0936694"><ele>770.0</ele><time>2026-04-26T08:59:25.382Z</time></trkpt><trkpt lat="44.4623406" lon="8.0937103"><ele>770.0</ele><time>2026-04-26T08:59:26.384Z</time></trkpt><trkpt lat="44.4621734" lon="8.0937593"><ele>770.0</ele><time>2026-04-26T08:59:27.374Z</time></trkpt><trkpt lat="44.4620029" lon="8.0938282"><ele>764.6666666666667</ele><time>2026-04-26T08:59:28.371Z</time></trkpt><trkpt lat="44.4618402" lon="8.0938959"><ele>759.3333333333334</ele><time>2026-04-26T08:59:29.375Z</time></trkpt><trkpt lat="44.4616758" lon="8.0939689"><ele>754.0</ele><time>2026-04-26T08:59:30.372Z</time></trkpt><trkpt lat="44.4615179" lon="8.0940428"><ele>753.0</ele><time>2026-04-26T08:59:31.375Z</time></trkpt><trkpt lat="44.4613728" lon="8.0941305"><ele>752.0</ele><time>2026-04-26T08:59:32.371Z</time></trkpt><trkpt lat="44.461245" lon="8.0942611"><ele>751.0</ele><time>2026-04-26T08:59:33.375Z</time></trkpt><trkpt lat="44.4611408" lon="8.0944291"><ele>751.0</ele><time>2026-04-26T08:59:34.379Z</time></trkpt><trkpt lat="44.4610658" lon="8.0946176"><ele>751.0</ele><time>2026-04-26T08:59:35.382Z</time></trkpt><trkpt lat="44.4610238" lon="8.0948125"><ele>751.0</ele><time>2026-04-26T08:59:36.383Z</time></trkpt><trkpt lat="44.4610158" lon="8.0950343"><ele>751.3333333333334</ele><time>2026-04-26T08:59:37.375Z</time></trkpt><trkpt lat="44.4610166" lon="8.0952761"><ele>751.6666666666666</ele><time>2026-04-26T08:59:38.381Z</time></trkpt><trkpt lat="44.461012" lon="8.0955536"><ele>752.0</ele><time>2026-04-26T08:59:39.377Z</time></trkpt><trkpt lat="44.461009" lon="8.0958351"><ele>752.0</ele><time>2026-04-26T08:59:40.376Z</time></trkpt><trkpt lat="44.4610097" lon="8.0961139"><ele>752.0</ele><time>2026-04-26T08:59:41.38Z</time></trkpt><trkpt lat="44.4610054" lon="8.0963912"><ele>752.0</ele><time>2026-04-26T08:59:42.387Z</time></trkpt><trkpt lat="44.4610093" lon="8.096661"><ele>750.0</ele><time>2026-04-26T08:59:43.391Z</time></trkpt><trkpt lat="44.4610221" lon="8.0969219"><ele>748.0</ele><time>2026-04-26T08:59:44.378Z</time></trkpt><trkpt lat="44.4610372" lon="8.0971679"><ele>746.0</ele><time>2026-04-26T08:59:45.377Z</time></trkpt><trkpt lat="44.461048" lon="8.0974094"><ele>743.6666666666666</ele><time>2026-04-26T08:59:46.382Z</time></trkpt><trkpt lat="44.4610296" lon="8.0976277"><ele>741.3333333333334</ele><time>2026-04-26T08:59:47.392Z</time></trkpt><trkpt lat="44.4609654" lon="8.0978333"><ele>739.0</ele><time>2026-04-26T08:59:48.376Z</time></trkpt><trkpt lat="44.4608854" lon="8.0980433"><ele>737.0</ele><time>2026-04-26T08:59:49.39Z</time></trkpt><trkpt lat="44.4608006" lon="8.0982518"><ele>735.0</ele><time>2026-04-26T08:59:50.382Z</time></trkpt><trkpt lat="44.4607118" lon="8.0984648"><ele>733.0</ele><time>2026-04-26T08:59:51.381Z</time></trkpt><trkpt lat="44.4606275" lon="8.0986599"><ele>733.0</ele><time>2026-04-26T08:59:52.384Z</time></trkpt><trkpt lat="44.4605185" lon="8.0988238"><ele>733.0</ele><time>2026-04-26T08:59:53.383Z</time></trkpt><trkpt lat="44.4603999" lon="8.0989655"><ele>733.0</ele><time>2026-04-26T08:59:54.383Z</time></trkpt><trkpt lat="44.4602805" lon="8.0990922"><ele>732.6666666666667</ele><time>2026-04-26T08:59:55.386Z</time></trkpt><trkpt lat="44.460147" lon="8.0992178"><ele>732.3333333333334</ele><time>2026-04-26T08:59:56.38Z</time></trkpt><trkpt lat="44.460009" lon="8.0993449"><ele>732.0</ele><time>2026-04-26T08:59:57.388Z</time></trkpt><trkpt lat="44.4598573" lon="8.0994793"><ele>732.0</ele><time>2026-04-26T08:59:58.381Z</time></trkpt><trkpt lat="44.4596987" lon="8.0996337"><ele>732.0</ele><time>2026-04-26T08:59:59.38Z</time></trkpt><trkpt lat="44.4595364" lon="8.0997908"><ele>732.0</ele><time>2026-04-26T09:00:00.387Z</time></trkpt><trkpt lat="44.4593711" lon="8.0999479"><ele>731.3333333333334</ele><time>2026-04-26T09:00:01.386Z</time></trkpt><trkpt lat="44.4591991" lon="8.1001188"><ele>730.6666666666667</ele><time>2026-04-26T09:00:02.381Z</time></trkpt><trkpt lat="44.4590216" lon="8.1002965"><ele>730.0</ele><time>2026-04-26T09:00:03.38Z</time></trkpt><trkpt lat="44.4588567" lon="8.1004618"><ele>729.6666666666667</ele><time>2026-04-26T09:00:04.381Z</time></trkpt><trkpt lat="44.4586972" lon="8.1006266"><ele>729.3333333333334</ele><time>2026-04-26T09:00:05.383Z</time></trkpt><trkpt lat="44.45853" lon="8.1007935"><ele>729.0</ele><time>2026-04-26T09:00:06.378Z</time></trkpt><trkpt lat="44.4583625" lon="8.1009412"><ele>729.0</ele><time>2026-04-26T09:00:07.38Z</time></trkpt><trkpt lat="44.4582037" lon="8.1010594"><ele>729.0</ele><time>2026-04-26T09:00:08.378Z</time></trkpt><trkpt lat="44.458049" lon="8.1011518"><ele>729.0</ele><time>2026-04-26T09:00:09.378Z</time></trkpt><trkpt lat="44.4578921" lon="8.1012412"><ele>729.6666666666666</ele><time>2026-04-26T09:00:10.385Z</time></trkpt><trkpt lat="44.4577373" lon="8.1013317"><ele>730.3333333333333</ele><time>2026-04-26T09:00:11.38Z</time></trkpt><trkpt lat="44.4575798" lon="8.1014222"><ele>731.0</ele><time>2026-04-26T09:00:12.378Z</time></trkpt><trkpt lat="44.4574282" lon="8.1015014"><ele>731.0</ele><time>2026-04-26T09:00:13.385Z</time></trkpt><trkpt lat="44.4572697" lon="8.1015506"><ele>731.0</ele><time>2026-04-26T09:00:14.403Z</time></trkpt><trkpt lat="44.4571119" lon="8.1015603"><ele>731.0</ele><time>2026-04-26T09:00:15.379Z</time></trkpt><trkpt lat="44.4569475" lon="8.1015498"><ele>730.6666666666666</ele><time>2026-04-26T09:00:16.394Z</time></trkpt><trkpt lat="44.4567778" lon="8.1015289"><ele>730.3333333333334</ele><time>2026-04-26T09:00:17.388Z</time></trkpt><trkpt lat="44.4565997" lon="8.1015145"><ele>730.0</ele><time>2026-04-26T09:00:18.384Z</time></trkpt><trkpt lat="44.4564175" lon="8.1014955"><ele>727.0</ele><time>2026-04-26T09:00:19.378Z</time></trkpt><trkpt lat="44.4562346" lon="8.101501"><ele>724.0</ele><time>2026-04-26T09:00:20.398Z</time></trkpt><trkpt lat="44.4560574" lon="8.1015552"><ele>721.0</ele><time>2026-04-26T09:00:21.382Z</time></trkpt><trkpt lat="44.4558785" lon="8.1016237"><ele>721.0</ele><time>2026-04-26T09:00:22.376Z</time></trkpt><trkpt lat="44.455699" lon="8.101714"><ele>721.0</ele><time>2026-04-26T09:00:23.381Z</time></trkpt><trkpt lat="44.4555111" lon="8.1018222"><ele>721.0</ele><time>2026-04-26T09:00:24.377Z</time></trkpt><trkpt lat="44.4553173" lon="8.101917"><ele>717.0</ele><time>2026-04-26T09:00:25.385Z</time></trkpt><trkpt lat="44.4551384" lon="8.1020106"><ele>713.0</ele><time>2026-04-26T09:00:26.383Z</time></trkpt><trkpt lat="44.4549563" lon="8.1020932"><ele>709.0</ele><time>2026-04-26T09:00:27.393Z</time></trkpt><trkpt lat="44.4547975" lon="8.1022007"><ele>709.0</ele><time>2026-04-26T09:00:28.382Z</time></trkpt><trkpt lat="44.4546676" lon="8.1023567"><ele>709.0</ele><time>2026-04-26T09:00:29.383Z</time></trkpt><trkpt lat="44.4545501" lon="8.1025358"><ele>709.0</ele><time>2026-04-26T09:00:30.377Z</time></trkpt><trkpt lat="44.4544402" lon="8.1027512"><ele>707.0</ele><time>2026-04-26T09:00:31.383Z</time></trkpt><trkpt lat="44.4543418" lon="8.1029925"><ele>705.0</ele><time>2026-04-26T09:00:32.379Z</time></trkpt><trkpt lat="44.454253" lon="8.1032419"><ele>703.0</ele><time>2026-04-26T09:00:33.386Z</time></trkpt><trkpt lat="44.4541636" lon="8.1035081"><ele>703.0</ele><time>2026-04-26T09:00:34.372Z</time></trkpt><trkpt lat="44.4540801" lon="8.1037756"><ele>703.0</ele><time>2026-04-26T09:00:35.375Z</time></trkpt><trkpt lat="44.4539714" lon="8.1040353"><ele>703.0</ele><time>2026-04-26T09:00:36.39Z</time></trkpt><trkpt lat="44.4538342" lon="8.1042577"><ele>699.0</ele><time>2026-04-26T09:00:37.378Z</time></trkpt><trkpt lat="44.4536702" lon="8.1044438"><ele>695.0</ele><time>2026-04-26T09:00:38.377Z</time></trkpt><trkpt lat="44.4535004" lon="8.1046163"><ele>691.0</ele><time>2026-04-26T09:00:39.377Z</time></trkpt><trkpt lat="44.4533176" lon="8.1047834"><ele>690.3333333333334</ele><time>2026-04-26T09:00:40.386Z</time></trkpt><trkpt lat="44.4531353" lon="8.1049239"><ele>689.6666666666666</ele><time>2026-04-26T09:00:41.372Z</time></trkpt><trkpt lat="44.4529551" lon="8.1050373"><ele>689.0</ele><time>2026-04-26T09:00:42.388Z</time></trkpt><trkpt lat="44.4527711" lon="8.1051154"><ele>689.0</ele><time>2026-04-26T09:00:43.388Z</time></trkpt><trkpt lat="44.4525813" lon="8.1051396"><ele>689.0</ele><time>2026-04-26T09:00:44.393Z</time></trkpt><trkpt lat="44.4523976" lon="8.1050938"><ele>689.0</ele><time>2026-04-26T09:00:45.393Z</time></trkpt><trkpt lat="44.4522234" lon="8.1049822"><ele>688.0</ele><time>2026-04-26T09:00:46.399Z</time></trkpt><trkpt lat="44.4520472" lon="8.104831"><ele>687.0</ele><time>2026-04-26T09:00:47.372Z</time></trkpt><trkpt lat="44.4518693" lon="8.1046816"><ele>686.0</ele><time>2026-04-26T09:00:48.379Z</time></trkpt><trkpt lat="44.4517019" lon="8.1045351"><ele>686.0</ele><time>2026-04-26T09:00:49.393Z</time></trkpt><trkpt lat="44.4515383" lon="8.1044286"><ele>686.0</ele><time>2026-04-26T09:00:50.391Z</time></trkpt><trkpt lat="44.4513818" lon="8.1043497"><ele>686.0</ele><time>2026-04-26T09:00:51.386Z</time></trkpt><trkpt lat="44.4512319" lon="8.1043718"><ele>684.6666666666666</ele><time>2026-04-26T09:00:52.394Z</time></trkpt><trkpt lat="44.4510841" lon="8.104442"><ele>683.3333333333334</ele><time>2026-04-26T09:00:53.391Z</time></trkpt><trkpt lat="44.4509312" lon="8.1045592"><ele>682.0</ele><time>2026-04-26T09:00:54.375Z</time></trkpt><trkpt lat="44.4507662" lon="8.1046886"><ele>682.0</ele><time>2026-04-26T09:00:55.379Z</time></trkpt><trkpt lat="44.4505842" lon="8.1048063"><ele>682.0</ele><time>2026-04-26T09:00:56.375Z</time></trkpt><trkpt lat="44.4503985" lon="8.1049233"><ele>682.0</ele><time>2026-04-26T09:00:57.379Z</time></trkpt><trkpt lat="44.4502056" lon="8.1050442"><ele>682.6666666666667</ele><time>2026-04-26T09:00:58.387Z</time></trkpt><trkpt lat="44.4500019" lon="8.1051539"><ele>683.3333333333334</ele><time>2026-04-26T09:00:59.379Z</time></trkpt><trkpt lat="44.4497882" lon="8.105265"><ele>684.0</ele><time>2026-04-26T09:01:00.369Z</time></trkpt><trkpt lat="44.4495757" lon="8.1053631"><ele>680.0</ele><time>2026-04-26T09:01:01.381Z</time></trkpt><trkpt lat="44.4493492" lon="8.105452"><ele>676.0</ele><time>2026-04-26T09:01:02.371Z</time></trkpt><trkpt lat="44.4491192" lon="8.1055209"><ele>676.0</ele><time>2026-04-26T09:01:03.377Z</time></trkpt><trkpt lat="44.4488848" lon="8.1055787"><ele>676.0</ele><time>2026-04-26T09:01:04.372Z</time></trkpt><trkpt lat="44.448648" lon="8.1056362"><ele>680.5</ele><time>2026-04-26T09:01:05.375Z</time></trkpt><trkpt lat="44.4484098" lon="8.105696"><ele>685.0</ele><time>2026-04-26T09:01:06.383Z</time></trkpt><trkpt lat="44.4481707" lon="8.1057496"><ele>683.0</ele><time>2026-04-26T09:01:07.369Z</time></trkpt><trkpt lat="44.4479353" lon="8.1057979"><ele>681.0</ele><time>2026-04-26T09:01:08.379Z</time></trkpt><trkpt lat="44.4477079" lon="8.1058454"><ele>681.0</ele><time>2026-04-26T09:01:09.396Z</time></trkpt><trkpt lat="44.4475013" lon="8.1058917"><ele>681.0</ele><time>2026-04-26T09:01:10.377Z</time></trkpt><trkpt lat="44.4473157" lon="8.1059342"><ele>681.0</ele><time>2026-04-26T09:01:11.379Z</time></trkpt><trkpt lat="44.4471478" lon="8.1059878"><ele>677.3333333333334</ele><time>2026-04-26T09:01:12.373Z</time></trkpt><trkpt lat="44.446979" lon="8.1060703"><ele>673.6666666666667</ele><time>2026-04-26T09:01:13.377Z</time></trkpt><trkpt lat="44.4468116" lon="8.1062108"><ele>670.0</ele><time>2026-04-26T09:01:14.366Z</time></trkpt><trkpt lat="44.4466484" lon="8.1063682"><ele>670.0</ele><time>2026-04-26T09:01:15.372Z</time></trkpt><trkpt lat="44.4464818" lon="8.1065261"><ele>670.0</ele><time>2026-04-26T09:01:16.391Z</time></trkpt><trkpt lat="44.4463284" lon="8.1066896"><ele>670.0</ele><time>2026-04-26T09:01:17.39Z</time></trkpt><trkpt lat="44.4462018" lon="8.1068913"><ele>669.3333333333334</ele><time>2026-04-26T09:01:18.383Z</time></trkpt><trkpt lat="44.4460824" lon="8.1071331"><ele>668.6666666666666</ele><time>2026-04-26T09:01:19.383Z</time></trkpt><trkpt lat="44.4459658" lon="8.1073758"><ele>668.0</ele><time>2026-04-26T09:01:20.375Z</time></trkpt><trkpt lat="44.4458413" lon="8.1076266"><ele>668.0</ele><time>2026-04-26T09:01:21.368Z</time></trkpt><trkpt lat="44.4457204" lon="8.1078568"><ele>668.0</ele><time>2026-04-26T09:01:22.387Z</time></trkpt><trkpt lat="44.4456175" lon="8.1080609"><ele>668.0</ele><time>2026-04-26T09:01:23.39Z</time></trkpt><trkpt lat="44.4455501" lon="8.1082486"><ele>670.0</ele><time>2026-04-26T09:01:24.367Z</time></trkpt><trkpt lat="44.4455092" lon="8.1084366"><ele>672.0</ele><time>2026-04-26T09:01:25.38Z</time></trkpt><trkpt lat="44.4455188" lon="8.1086269"><ele>674.0</ele><time>2026-04-26T09:01:26.374Z</time></trkpt><trkpt lat="44.4455414" lon="8.1088154"><ele>676.0</ele><time>2026-04-26T09:01:27.384Z</time></trkpt><trkpt lat="44.4455434" lon="8.1089955"><ele>675.8</ele><time>2026-04-26T09:01:28.373Z</time></trkpt><trkpt lat="44.4455462" lon="8.1091275"><ele>675.5999999999999</ele><time>2026-04-26T09:01:29.381Z</time></trkpt><trkpt lat="44.4455311" lon="8.1092342"><ele>675.4</ele><time>2026-04-26T09:01:30.389Z</time></trkpt><trkpt lat="44.4455401" lon="8.1094209"><ele>675.2</ele><time>2026-04-26T09:01:32.373Z</time></trkpt><trkpt lat="44.4455337" lon="8.1095244"><ele>675.0</ele><time>2026-04-26T09:01:33.373Z</time></trkpt><trkpt lat="44.4455082" lon="8.1096563"><ele>672.0</ele><time>2026-04-26T09:01:34.378Z</time></trkpt><trkpt lat="44.4454411" lon="8.1097773"><ele>669.0</ele><time>2026-04-26T09:01:35.376Z</time></trkpt><trkpt lat="44.4453364" lon="8.1099061"><ele>666.0</ele><time>2026-04-26T09:01:36.372Z</time></trkpt><trkpt lat="44.4452503" lon="8.110063"><ele>663.0</ele><time>2026-04-26T09:01:37.377Z</time></trkpt><trkpt lat="44.4451812" lon="8.1102563"><ele>663.0</ele><time>2026-04-26T09:01:38.391Z</time></trkpt><trkpt lat="44.445163" lon="8.1104683"><ele>663.0</ele><time>2026-04-26T09:01:39.382Z</time></trkpt><trkpt lat="44.4451745" lon="8.1106805"><ele>663.0</ele><time>2026-04-26T09:01:40.376Z</time></trkpt><trkpt lat="44.4452277" lon="8.1108546"><ele>663.0</ele><time>2026-04-26T09:01:41.381Z</time></trkpt><trkpt lat="44.4453447" lon="8.1109905"><ele>669.0</ele><time>2026-04-26T09:01:42.379Z</time></trkpt><trkpt lat="44.4454762" lon="8.1110832"><ele>675.0</ele><time>2026-04-26T09:01:43.374Z</time></trkpt><trkpt lat="44.4456286" lon="8.1111726"><ele>681.0</ele><time>2026-04-26T09:01:44.385Z</time></trkpt><trkpt lat="44.4457768" lon="8.1112615"><ele>681.0</ele><time>2026-04-26T09:01:45.391Z</time></trkpt><trkpt lat="44.4459106" lon="8.1113269"><ele>681.0</ele><time>2026-04-26T09:01:46.379Z</time></trkpt><trkpt lat="44.4460287" lon="8.1112851"><ele>681.0</ele><time>2026-04-26T09:01:47.377Z</time></trkpt><trkpt lat="44.4461701" lon="8.1111963"><ele>681.0</ele><time>2026-04-26T09:01:48.386Z</time></trkpt><trkpt lat="44.4463438" lon="8.1110966"><ele>677.3333333333334</ele><time>2026-04-26T09:01:49.381Z</time></trkpt><trkpt lat="44.4465141" lon="8.1110054"><ele>673.6666666666667</ele><time>2026-04-26T09:01:50.372Z</time></trkpt><trkpt lat="44.4466957" lon="8.1109105"><ele>670.0</ele><time>2026-04-26T09:01:51.38Z</time></trkpt><trkpt lat="44.4468513" lon="8.1108214"><ele>670.0</ele><time>2026-04-26T09:01:52.376Z</time></trkpt><trkpt lat="44.446977" lon="8.1107779"><ele>670.0</ele><time>2026-04-26T09:01:53.365Z</time></trkpt><trkpt lat="44.4470783" lon="8.1107844"><ele>670.0</ele><time>2026-04-26T09:01:54.364Z</time></trkpt><trkpt lat="44.4471456" lon="8.1108769"><ele>670.0</ele><time>2026-04-26T09:01:55.388Z</time></trkpt><trkpt lat="44.4471565" lon="8.110981"><ele>670.0</ele><time>2026-04-26T09:01:56.371Z</time></trkpt><trkpt lat="44.447094" lon="8.1110835"><ele>670.0</ele><time>2026-04-26T09:01:57.382Z</time></trkpt><trkpt lat="44.4469962" lon="8.11119"><ele>670.0</ele><time>2026-04-26T09:01:58.381Z</time></trkpt><trkpt lat="44.4468474" lon="8.1112828"><ele>670.0</ele><time>2026-04-26T09:01:59.378Z</time></trkpt><trkpt lat="44.4466896" lon="8.1113887"><ele>670.0</ele><time>2026-04-26T09:02:00.374Z</time></trkpt><trkpt lat="44.4465353" lon="8.1115124"><ele>670.0</ele><time>2026-04-26T09:02:01.388Z</time></trkpt><trkpt lat="44.4463823" lon="8.1116782"><ele>670.0</ele><time>2026-04-26T09:02:02.382Z</time></trkpt><trkpt lat="44.446258" lon="8.1118436"><ele>666.0</ele><time>2026-04-26T09:02:03.379Z</time></trkpt><trkpt lat="44.4461445" lon="8.1120145"><ele>662.0</ele><time>2026-04-26T09:02:04.372Z</time></trkpt><trkpt lat="44.4460344" lon="8.1121434"><ele>658.0</ele><time>2026-04-26T09:02:05.369Z</time></trkpt><trkpt lat="44.445887" lon="8.1122148"><ele>658.0</ele><time>2026-04-26T09:02:06.389Z</time></trkpt><trkpt lat="44.4457194" lon="8.1122469"><ele>658.0</ele><time>2026-04-26T09:02:07.372Z</time></trkpt><trkpt lat="44.4455471" lon="8.1122839"><ele>658.0</ele><time>2026-04-26T09:02:08.368Z</time></trkpt><trkpt lat="44.445377" lon="8.1123873"><ele>653.6666666666667</ele><time>2026-04-26T09:02:09.382Z</time></trkpt><trkpt lat="44.4452183" lon="8.1125512"><ele>649.3333333333334</ele><time>2026-04-26T09:02:10.382Z</time></trkpt><trkpt lat="44.4450725" lon="8.112735"><ele>645.0</ele><time>2026-04-26T09:02:11.382Z</time></trkpt><trkpt lat="44.4448988" lon="8.1129398"><ele>645.0</ele><time>2026-04-26T09:02:12.383Z</time></trkpt><trkpt lat="44.4447272" lon="8.1131265"><ele>645.0</ele><time>2026-04-26T09:02:13.384Z</time></trkpt><trkpt lat="44.4445697" lon="8.1133071"><ele>645.0</ele><time>2026-04-26T09:02:14.376Z</time></trkpt><trkpt lat="44.4444166" lon="8.1134582"><ele>644.6666666666666</ele><time>2026-04-26T09:02:15.372Z</time></trkpt><trkpt lat="44.4442543" lon="8.1136018"><ele>644.3333333333333</ele><time>2026-04-26T09:02:16.372Z</time></trkpt><trkpt lat="44.4441106" lon="8.1137772"><ele>644.0</ele><time>2026-04-26T09:02:17.371Z</time></trkpt><trkpt lat="44.4439872" lon="8.1139757"><ele>647.3333333333333</ele><time>2026-04-26T09:02:18.378Z</time></trkpt><trkpt lat="44.4438807" lon="8.1142273"><ele>650.6666666666666</ele><time>2026-04-26T09:02:19.37Z</time></trkpt><trkpt lat="44.4437738" lon="8.1144827"><ele>654.0</ele><time>2026-04-26T09:02:20.374Z</time></trkpt><trkpt lat="44.4436693" lon="8.1147277"><ele>649.0</ele><time>2026-04-26T09:02:21.364Z</time></trkpt><trkpt lat="44.4435682" lon="8.114956"><ele>644.0</ele><time>2026-04-26T09:02:22.366Z</time></trkpt><trkpt lat="44.4434869" lon="8.1151739"><ele>639.0</ele><time>2026-04-26T09:02:23.368Z</time></trkpt><trkpt lat="44.4434409" lon="8.1153769"><ele>639.0</ele><time>2026-04-26T09:02:24.366Z</time></trkpt><trkpt lat="44.4434441" lon="8.1155607"><ele>639.0</ele><time>2026-04-26T09:02:25.371Z</time></trkpt><trkpt lat="44.4434913" lon="8.1157435"><ele>639.0</ele><time>2026-04-26T09:02:26.363Z</time></trkpt><trkpt lat="44.4435706" lon="8.1159709"><ele>638.0</ele><time>2026-04-26T09:02:27.368Z</time></trkpt><trkpt lat="44.4436617" lon="8.1162017"><ele>637.0</ele><time>2026-04-26T09:02:28.369Z</time></trkpt><trkpt lat="44.4437529" lon="8.116445"><ele>636.0</ele><time>2026-04-26T09:02:29.367Z</time></trkpt><trkpt lat="44.4438251" lon="8.1167027"><ele>624.3333333333334</ele><time>2026-04-26T09:02:30.384Z</time></trkpt><trkpt lat="44.4438809" lon="8.1169701"><ele>612.6666666666667</ele><time>2026-04-26T09:02:31.369Z</time></trkpt><trkpt lat="44.4439012" lon="8.1172388"><ele>601.0</ele><time>2026-04-26T09:02:32.378Z</time></trkpt><trkpt lat="44.4439044" lon="8.1174789"><ele>599.25</ele><time>2026-04-26T09:02:33.376Z</time></trkpt><trkpt lat="44.4438656" lon="8.1176987"><ele>597.5</ele><time>2026-04-26T09:02:34.37Z</time></trkpt><trkpt lat="44.4438094" lon="8.1178865"><ele>595.75</ele><time>2026-04-26T09:02:35.373Z</time></trkpt><trkpt lat="44.4437808" lon="8.1180406"><ele>594.0</ele><time>2026-04-26T09:02:36.372Z</time></trkpt><trkpt lat="44.4437821" lon="8.1181776"><ele>594.0</ele><time>2026-04-26T09:02:37.37Z</time></trkpt><trkpt lat="44.4438483" lon="8.1182321"><ele>594.0</ele><time>2026-04-26T09:02:38.373Z</time></trkpt><trkpt lat="44.4439378" lon="8.1181865"><ele>594.0</ele><time>2026-04-26T09:02:39.372Z</time></trkpt><trkpt lat="44.4440075" lon="8.1180831"><ele>594.0</ele><time>2026-04-26T09:02:40.389Z</time></trkpt><trkpt lat="44.4440661" lon="8.1179187"><ele>594.0</ele><time>2026-04-26T09:02:41.369Z</time></trkpt><trkpt lat="44.4441107" lon="8.1176915"><ele>594.0</ele><time>2026-04-26T09:02:42.365Z</time></trkpt><trkpt lat="44.4441686" lon="8.1174593"><ele>594.0</ele><time>2026-04-26T09:02:43.375Z</time></trkpt><trkpt lat="44.4442202" lon="8.1172075"><ele>594.0</ele><time>2026-04-26T09:02:44.384Z</time></trkpt><trkpt lat="44.4442648" lon="8.1169712"><ele>596.0</ele><time>2026-04-26T09:02:45.369Z</time></trkpt><trkpt lat="44.4442812" lon="8.1167075"><ele>598.0</ele><time>2026-04-26T09:02:46.386Z</time></trkpt><trkpt lat="44.4442745" lon="8.1164738"><ele>600.0</ele><time>2026-04-26T09:02:47.371Z</time></trkpt><trkpt lat="44.4442593" lon="8.1162907"><ele>600.0</ele><time>2026-04-26T09:02:48.39Z</time></trkpt><trkpt lat="44.4442788" lon="8.1161517"><ele>600.0</ele><time>2026-04-26T09:02:49.384Z</time></trkpt><trkpt lat="44.4443207" lon="8.1160709"><ele>600.0</ele><time>2026-04-26T09:02:50.409Z</time></trkpt><trkpt lat="44.4443866" lon="8.1160739"><ele>600.0</ele><time>2026-04-26T09:02:51.377Z</time></trkpt><trkpt lat="44.4444582" lon="8.1161528"><ele>600.0</ele><time>2026-04-26T09:02:52.358Z</time></trkpt><trkpt lat="44.4445021" lon="8.1163032"><ele>600.0</ele><time>2026-04-26T09:02:53.369Z</time></trkpt><trkpt lat="44.4445063" lon="8.1165045"><ele>600.3333333333334</ele><time>2026-04-26T09:02:54.367Z</time></trkpt><trkpt lat="44.4444998" lon="8.1167359"><ele>600.6666666666667</ele><time>2026-04-26T09:02:55.373Z</time></trkpt><trkpt lat="44.4444928" lon="8.1169764"><ele>601.0</ele><time>2026-04-26T09:02:56.372Z</time></trkpt><trkpt lat="44.4444677" lon="8.1172318"><ele>598.6666666666667</ele><time>2026-04-26T09:02:57.409Z</time></trkpt><trkpt lat="44.4444508" lon="8.1174838"><ele>596.3333333333334</ele><time>2026-04-26T09:02:58.387Z</time></trkpt><trkpt lat="44.4444289" lon="8.1177135"><ele>594.0</ele><time>2026-04-26T09:02:59.373Z</time></trkpt><trkpt lat="44.4444192" lon="8.1178929"><ele>594.0</ele><time>2026-04-26T09:03:00.386Z</time></trkpt><trkpt lat="44.4444277" lon="8.1180235"><ele>594.0</ele><time>2026-04-26T09:03:01.372Z</time></trkpt><trkpt lat="44.444479" lon="8.1180752"><ele>594.0</ele><time>2026-04-26T09:03:02.37Z</time></trkpt><trkpt lat="44.4445486" lon="8.1180161"><ele>594.0</ele><time>2026-04-26T09:03:03.373Z</time></trkpt><trkpt lat="44.4446458" lon="8.1178678"><ele>594.0</ele><time>2026-04-26T09:03:04.372Z</time></trkpt><trkpt lat="44.4447174" lon="8.1177103"><ele>583.3333333333334</ele><time>2026-04-26T09:03:05.382Z</time></trkpt><trkpt lat="44.4447555" lon="8.1175072"><ele>572.6666666666667</ele><time>2026-04-26T09:03:06.365Z</time></trkpt><trkpt lat="44.4448031" lon="8.1172617"><ele>562.0</ele><time>2026-04-26T09:03:07.369Z</time></trkpt><trkpt lat="44.4448477" lon="8.1170142"><ele>562.0</ele><time>2026-04-26T09:03:08.385Z</time></trkpt><trkpt lat="44.4448881" lon="8.1167625"><ele>562.0</ele><time>2026-04-26T09:03:09.385Z</time></trkpt><trkpt lat="44.4448975" lon="8.1165286"><ele>562.0</ele><time>2026-04-26T09:03:10.374Z</time></trkpt><trkpt lat="44.4448956" lon="8.116318"><ele>563.4</ele><time>2026-04-26T09:03:11.383Z</time></trkpt><trkpt lat="44.444909" lon="8.1161686"><ele>564.8000000000001</ele><time>2026-04-26T09:03:12.375Z</time></trkpt><trkpt lat="44.4449502" lon="8.1160819"><ele>566.2</ele><time>2026-04-26T09:03:13.382Z</time></trkpt><trkpt lat="44.4450442" lon="8.1161286"><ele>567.6</ele><time>2026-04-26T09:03:15.37Z</time></trkpt><trkpt lat="44.4450899" lon="8.1162585"><ele>569.0</ele><time>2026-04-26T09:03:16.379Z</time></trkpt><trkpt lat="44.4450821" lon="8.1164765"><ele>566.6666666666666</ele><time>2026-04-26T09:03:17.372Z</time></trkpt><trkpt lat="44.4450578" lon="8.1167283"><ele>564.3333333333334</ele><time>2026-04-26T09:03:18.368Z</time></trkpt><trkpt lat="44.4450549" lon="8.117001"><ele>562.0</ele><time>2026-04-26T09:03:19.375Z</time></trkpt><trkpt lat="44.4450828" lon="8.1172806"><ele>560.6666666666667</ele><time>2026-04-26T09:03:20.377Z</time></trkpt><trkpt lat="44.4451072" lon="8.117566"><ele>559.3333333333334</ele><time>2026-04-26T09:03:21.377Z</time></trkpt><trkpt lat="44.4451441" lon="8.1178423"><ele>558.0</ele><time>2026-04-26T09:03:22.375Z</time></trkpt><trkpt lat="44.4451946" lon="8.1180984"><ele>557.0</ele><time>2026-04-26T09:03:23.381Z</time></trkpt><trkpt lat="44.4452622" lon="8.1183305"><ele>556.0</ele><time>2026-04-26T09:03:24.381Z</time></trkpt><trkpt lat="44.4453677" lon="8.1185278"><ele>555.0</ele><time>2026-04-26T09:03:25.383Z</time></trkpt><trkpt lat="44.4455013" lon="8.1187211"><ele>548.0</ele><time>2026-04-26T09:03:26.38Z</time></trkpt><trkpt lat="44.445657" lon="8.1189087"><ele>541.0</ele><time>2026-04-26T09:03:27.37Z</time></trkpt><trkpt lat="44.4458008" lon="8.1190803"><ele>534.0</ele><time>2026-04-26T09:03:28.381Z</time></trkpt><trkpt lat="44.4459232" lon="8.1192451"><ele>534.0</ele><time>2026-04-26T09:03:29.377Z</time></trkpt><trkpt lat="44.4460084" lon="8.1193871"><ele>534.0</ele><time>2026-04-26T09:03:30.391Z</time></trkpt><trkpt lat="44.4460618" lon="8.1195576"><ele>534.0</ele><time>2026-04-26T09:03:31.379Z</time></trkpt><trkpt lat="44.446057" lon="8.119767"><ele>534.0</ele><time>2026-04-26T09:03:32.385Z</time></trkpt><trkpt lat="44.4460153" lon="8.1199778"><ele>532.3333333333334</ele><time>2026-04-26T09:03:33.381Z</time></trkpt><trkpt lat="44.4459511" lon="8.1201813"><ele>530.6666666666667</ele><time>2026-04-26T09:03:34.388Z</time></trkpt><trkpt lat="44.4458949" lon="8.1203797"><ele>529.0</ele><time>2026-04-26T09:03:35.374Z</time></trkpt><trkpt lat="44.4458767" lon="8.1205817"><ele>523.6666666666667</ele><time>2026-04-26T09:03:36.38Z</time></trkpt><trkpt lat="44.4458981" lon="8.1207828"><ele>518.3333333333334</ele><time>2026-04-26T09:03:37.379Z</time></trkpt><trkpt lat="44.4459691" lon="8.1209849"><ele>513.0</ele><time>2026-04-26T09:03:38.387Z</time></trkpt><trkpt lat="44.4460832" lon="8.1211765"><ele>513.0</ele><time>2026-04-26T09:03:39.386Z</time></trkpt><trkpt lat="44.4462177" lon="8.1213741"><ele>513.0</ele><time>2026-04-26T09:03:40.399Z</time></trkpt><trkpt lat="44.4463491" lon="8.1215997"><ele>513.0</ele><time>2026-04-26T09:03:41.371Z</time></trkpt><trkpt lat="44.4464729" lon="8.121831"><ele>511.25</ele><time>2026-04-26T09:03:42.393Z</time></trkpt><trkpt lat="44.4465798" lon="8.1220323"><ele>509.5</ele><time>2026-04-26T09:03:43.378Z</time></trkpt><trkpt lat="44.4466828" lon="8.1221689"><ele>507.75</ele><time>2026-04-26T09:03:44.384Z</time></trkpt><trkpt lat="44.4467918" lon="8.1222513"><ele>506.0</ele><time>2026-04-26T09:03:45.39Z</time></trkpt><trkpt lat="44.4469272" lon="8.1222338"><ele>506.0</ele><time>2026-04-26T09:03:46.386Z</time></trkpt><trkpt lat="44.4470604" lon="8.122146"><ele>506.0</ele><time>2026-04-26T09:03:47.371Z</time></trkpt><trkpt lat="44.4471722" lon="8.1220257"><ele>506.0</ele><time>2026-04-26T09:03:48.374Z</time></trkpt><trkpt lat="44.447241" lon="8.1218421"><ele>506.0</ele><time>2026-04-26T09:03:49.367Z</time></trkpt><trkpt lat="44.4472608" lon="8.1216236"><ele>499.0</ele><time>2026-04-26T09:03:50.384Z</time></trkpt><trkpt lat="44.4472556" lon="8.1213828"><ele>492.0</ele><time>2026-04-26T09:03:51.38Z</time></trkpt><trkpt lat="44.4472373" lon="8.121108"><ele>485.0</ele><time>2026-04-26T09:03:52.373Z</time></trkpt><trkpt lat="44.4472138" lon="8.1208231"><ele>484.66666666666663</ele><time>2026-04-26T09:03:53.377Z</time></trkpt><trkpt lat="44.4471898" lon="8.1205486"><ele>484.33333333333337</ele><time>2026-04-26T09:03:54.38Z</time></trkpt><trkpt lat="44.4471628" lon="8.1202989"><ele>484.0</ele><time>2026-04-26T09:03:55.376Z</time></trkpt><trkpt lat="44.4471451" lon="8.1200881"><ele>484.0</ele><time>2026-04-26T09:03:56.367Z</time></trkpt><trkpt lat="44.4471547" lon="8.1199074"><ele>484.0</ele><time>2026-04-26T09:03:57.38Z</time></trkpt><trkpt lat="44.4471823" lon="8.119758"><ele>484.0</ele><time>2026-04-26T09:03:58.375Z</time></trkpt><trkpt lat="44.4472469" lon="8.1196948"><ele>484.0</ele><time>2026-04-26T09:03:59.385Z</time></trkpt><trkpt lat="44.4473389" lon="8.1197467"><ele>484.0</ele><time>2026-04-26T09:04:00.377Z</time></trkpt><trkpt lat="44.4474077" lon="8.1198583"><ele>484.0</ele><time>2026-04-26T09:04:01.373Z</time></trkpt><trkpt lat="44.447461" lon="8.1200491"><ele>484.0</ele><time>2026-04-26T09:04:02.383Z</time></trkpt><trkpt lat="44.4475159" lon="8.1202791"><ele>484.0</ele><time>2026-04-26T09:04:03.376Z</time></trkpt><trkpt lat="44.447568" lon="8.12053"><ele>484.33333333333337</ele><time>2026-04-26T09:04:04.384Z</time></trkpt><trkpt lat="44.4476339" lon="8.1207899"><ele>484.66666666666663</ele><time>2026-04-26T09:04:05.384Z</time></trkpt><trkpt lat="44.4477152" lon="8.1210495"><ele>485.0</ele><time>2026-04-26T09:04:06.39Z</time></trkpt><trkpt lat="44.4477881" lon="8.1213399"><ele>485.3333333333333</ele><time>2026-04-26T09:04:07.374Z</time></trkpt><trkpt lat="44.4478666" lon="8.1216328"><ele>485.66666666666663</ele><time>2026-04-26T09:04:08.368Z</time></trkpt><trkpt lat="44.4479495" lon="8.1219052"><ele>486.0</ele><time>2026-04-26T09:04:09.387Z</time></trkpt><trkpt lat="44.4480445" lon="8.1221653"><ele>480.66666666666663</ele><time>2026-04-26T09:04:10.38Z</time></trkpt><trkpt lat="44.4481573" lon="8.1224102"><ele>475.3333333333333</ele><time>2026-04-26T09:04:11.376Z</time></trkpt><trkpt lat="44.448273" lon="8.1226479"><ele>470.0</ele><time>2026-04-26T09:04:12.367Z</time></trkpt><trkpt lat="44.4483787" lon="8.1228576"><ele>470.0</ele><time>2026-04-26T09:04:13.384Z</time></trkpt><trkpt lat="44.4484628" lon="8.1230436"><ele>470.0</ele><time>2026-04-26T09:04:14.38Z</time></trkpt><trkpt lat="44.4485325" lon="8.1231744"><ele>470.0</ele><time>2026-04-26T09:04:15.377Z</time></trkpt><trkpt lat="44.4486131" lon="8.1232838"><ele>470.0</ele><time>2026-04-26T09:04:16.387Z</time></trkpt><trkpt lat="44.4487055" lon="8.1233064"><ele>465.75</ele><time>2026-04-26T09:04:17.375Z</time></trkpt><trkpt lat="44.44881" lon="8.1232547"><ele>461.5</ele><time>2026-04-26T09:04:18.375Z</time></trkpt><trkpt lat="44.4488879" lon="8.1231785"><ele>457.25</ele><time>2026-04-26T09:04:19.366Z</time></trkpt><trkpt lat="44.4489368" lon="8.123063"><ele>453.0</ele><time>2026-04-26T09:04:20.375Z</time></trkpt><trkpt lat="44.4489094" lon="8.1228448"><ele>453.0</ele><time>2026-04-26T09:04:21.375Z</time></trkpt><trkpt lat="44.4488463" lon="8.1225691"><ele>453.0</ele><time>2026-04-26T09:04:22.38Z</time></trkpt><trkpt lat="44.4487983" lon="8.1222684"><ele>453.0</ele><time>2026-04-26T09:04:23.376Z</time></trkpt><trkpt lat="44.4487806" lon="8.1219881"><ele>451.66666666666663</ele><time>2026-04-26T09:04:24.367Z</time></trkpt><trkpt lat="44.448781" lon="8.1217055"><ele>450.3333333333333</ele><time>2026-04-26T09:04:25.368Z</time></trkpt><trkpt lat="44.4488077" lon="8.1214251"><ele>449.0</ele><time>2026-04-26T09:04:26.365Z</time></trkpt><trkpt lat="44.448851" lon="8.121143"><ele>449.0</ele><time>2026-04-26T09:04:27.376Z</time></trkpt><trkpt lat="44.4489143" lon="8.1208517"><ele>449.0</ele><time>2026-04-26T09:04:28.386Z</time></trkpt><trkpt lat="44.4489669" lon="8.1205617"><ele>449.0</ele><time>2026-04-26T09:04:29.378Z</time></trkpt><trkpt lat="44.4490029" lon="8.1202944"><ele>448.3333333333333</ele><time>2026-04-26T09:04:30.376Z</time></trkpt><trkpt lat="44.44902" lon="8.1200511"><ele>447.66666666666663</ele><time>2026-04-26T09:04:31.377Z</time></trkpt><trkpt lat="44.4490155" lon="8.11984"><ele>447.0</ele><time>2026-04-26T09:04:32.37Z</time></trkpt><trkpt lat="44.4490461" lon="8.1196692"><ele>447.0</ele><time>2026-04-26T09:04:33.378Z</time></trkpt><trkpt lat="44.449114" lon="8.1195652"><ele>447.00000000000006</ele><time>2026-04-26T09:04:34.401Z</time></trkpt><trkpt lat="44.4491738" lon="8.1195151"><ele>447.00000000000006</ele><time>2026-04-26T09:04:35.375Z</time></trkpt><trkpt lat="44.4492494" lon="8.1196058"><ele>447.0</ele><time>2026-04-26T09:04:37.373Z</time></trkpt><trkpt lat="44.4492722" lon="8.1197235"><ele>447.0</ele><time>2026-04-26T09:04:38.379Z</time></trkpt><trkpt lat="44.4493032" lon="8.119885"><ele>448.66666666666663</ele><time>2026-04-26T09:04:39.374Z</time></trkpt><trkpt lat="44.4493375" lon="8.1200665"><ele>450.3333333333333</ele><time>2026-04-26T09:04:40.369Z</time></trkpt><trkpt lat="44.4493723" lon="8.1202878"><ele>452.0</ele><time>2026-04-26T09:04:41.373Z</time></trkpt><trkpt lat="44.4494065" lon="8.1205088"><ele>451.0</ele><time>2026-04-26T09:04:42.384Z</time></trkpt><trkpt lat="44.4494481" lon="8.1207517"><ele>450.0</ele><time>2026-04-26T09:04:43.374Z</time></trkpt><trkpt lat="44.449496" lon="8.1210086"><ele>449.0</ele><time>2026-04-26T09:04:44.375Z</time></trkpt><trkpt lat="44.4495466" lon="8.1212629"><ele>449.0</ele><time>2026-04-26T09:04:45.377Z</time></trkpt><trkpt lat="44.4496051" lon="8.1215081"><ele>449.0</ele><time>2026-04-26T09:04:46.38Z</time></trkpt><trkpt lat="44.4496598" lon="8.1217417"><ele>449.0</ele><time>2026-04-26T09:04:47.38Z</time></trkpt><trkpt lat="44.4497075" lon="8.1219597"><ele>444.5</ele><time>2026-04-26T09:04:48.375Z</time></trkpt><trkpt lat="44.4497561" lon="8.1221648"><ele>440.0</ele><time>2026-04-26T09:04:49.37Z</time></trkpt><trkpt lat="44.4497972" lon="8.1223553"><ele>435.5</ele><time>2026-04-26T09:04:50.377Z</time></trkpt><trkpt lat="44.4498334" lon="8.1225261"><ele>431.0</ele><time>2026-04-26T09:04:51.363Z</time></trkpt><trkpt lat="44.4498764" lon="8.1226594"><ele>431.0</ele><time>2026-04-26T09:04:52.391Z</time></trkpt><trkpt lat="44.4499248" lon="8.1227494"><ele>431.0</ele><time>2026-04-26T09:04:53.385Z</time></trkpt><trkpt lat="44.4499898" lon="8.1227757"><ele>431.0</ele><time>2026-04-26T09:04:54.372Z</time></trkpt><trkpt lat="44.4500844" lon="8.1227237"><ele>431.0</ele><time>2026-04-26T09:04:55.379Z</time></trkpt><trkpt lat="44.4501657" lon="8.1226243"><ele>431.0</ele><time>2026-04-26T09:04:56.371Z</time></trkpt><trkpt lat="44.4502294" lon="8.122433"><ele>430.66666666666663</ele><time>2026-04-26T09:04:57.359Z</time></trkpt><trkpt lat="44.4502777" lon="8.1221855"><ele>430.33333333333337</ele><time>2026-04-26T09:04:58.372Z</time></trkpt><trkpt lat="44.450335" lon="8.1219266"><ele>430.0</ele><time>2026-04-26T09:04:59.375Z</time></trkpt><trkpt lat="44.4504005" lon="8.1216594"><ele>425.0</ele><time>2026-04-26T09:05:00.373Z</time></trkpt><trkpt lat="44.4504585" lon="8.1213884"><ele>420.0</ele><time>2026-04-26T09:05:01.385Z</time></trkpt><trkpt lat="44.4505265" lon="8.1211127"><ele>415.0</ele><time>2026-04-26T09:05:02.363Z</time></trkpt><trkpt lat="44.4505941" lon="8.1208485"><ele>415.33333333333337</ele><time>2026-04-26T09:05:03.372Z</time></trkpt><trkpt lat="44.4506623" lon="8.1206014"><ele>415.66666666666663</ele><time>2026-04-26T09:05:04.378Z</time></trkpt><trkpt lat="44.4507493" lon="8.1203735"><ele>416.0</ele><time>2026-04-26T09:05:05.386Z</time></trkpt><trkpt lat="44.4508625" lon="8.1201887"><ele>416.0</ele><time>2026-04-26T09:05:06.393Z</time></trkpt><trkpt lat="44.4509804" lon="8.1200337"><ele>416.0</ele><time>2026-04-26T09:05:07.375Z</time></trkpt><trkpt lat="44.4511093" lon="8.1199095"><ele>416.0</ele><time>2026-04-26T09:05:08.37Z</time></trkpt><trkpt lat="44.4512653" lon="8.1198238"><ele>417.66666666666663</ele><time>2026-04-26T09:05:09.383Z</time></trkpt><trkpt lat="44.4514418" lon="8.1197864"><ele>419.33333333333337</ele><time>2026-04-26T09:05:10.376Z</time></trkpt><trkpt lat="44.4516228" lon="8.1197871"><ele>421.0</ele><time>2026-04-26T09:05:11.377Z</time></trkpt><trkpt lat="44.4517979" lon="8.1198327"><ele>418.33333333333337</ele><time>2026-04-26T09:05:12.389Z</time></trkpt><trkpt lat="44.4519676" lon="8.1199318"><ele>415.66666666666663</ele><time>2026-04-26T09:05:13.383Z</time></trkpt><trkpt lat="44.4521395" lon="8.120035"><ele>413.0</ele><time>2026-04-26T09:05:14.37Z</time></trkpt><trkpt lat="44.452325" lon="8.1201492"><ele>411.0</ele><time>2026-04-26T09:05:15.376Z</time></trkpt><trkpt lat="44.4525063" lon="8.1202643"><ele>409.0</ele><time>2026-04-26T09:05:16.377Z</time></trkpt><trkpt lat="44.4527061" lon="8.1203866"><ele>407.0</ele><time>2026-04-26T09:05:17.376Z</time></trkpt><trkpt lat="44.4529137" lon="8.1205112"><ele>405.66666666666663</ele><time>2026-04-26T09:05:18.372Z</time></trkpt><trkpt lat="44.453125" lon="8.1206298"><ele>404.33333333333337</ele><time>2026-04-26T09:05:19.388Z</time></trkpt><trkpt lat="44.4533266" lon="8.1207567"><ele>403.0</ele><time>2026-04-26T09:05:20.371Z</time></trkpt><trkpt lat="44.4535272" lon="8.1208811"><ele>403.0</ele><time>2026-04-26T09:05:21.382Z</time></trkpt><trkpt lat="44.4537346" lon="8.1210078"><ele>403.0</ele><time>2026-04-26T09:05:22.384Z</time></trkpt><trkpt lat="44.4539489" lon="8.1211358"><ele>398.5</ele><time>2026-04-26T09:05:23.372Z</time></trkpt><trkpt lat="44.4541619" lon="8.1212604"><ele>394.0</ele><time>2026-04-26T09:05:24.372Z</time></trkpt><trkpt lat="44.4543699" lon="8.1213868"><ele>394.0</ele><time>2026-04-26T09:05:25.38Z</time></trkpt><trkpt lat="44.4545815" lon="8.1215125"><ele>394.0</ele><time>2026-04-26T09:05:26.373Z</time></trkpt><trkpt lat="44.4547955" lon="8.1216434"><ele>389.0</ele><time>2026-04-26T09:05:27.383Z</time></trkpt><trkpt lat="44.4550087" lon="8.1217743"><ele>384.0</ele><time>2026-04-26T09:05:28.38Z</time></trkpt><trkpt lat="44.4552163" lon="8.1219017"><ele>384.0</ele><time>2026-04-26T09:05:29.372Z</time></trkpt><trkpt lat="44.455414" lon="8.1220284"><ele>384.0</ele><time>2026-04-26T09:05:30.371Z</time></trkpt><trkpt lat="44.455623" lon="8.1221507"><ele>384.0</ele><time>2026-04-26T09:05:31.375Z</time></trkpt><trkpt lat="44.4558309" lon="8.1222627"><ele>383.3333333333333</ele><time>2026-04-26T09:05:32.369Z</time></trkpt><trkpt lat="44.4560465" lon="8.1223573"><ele>382.66666666666663</ele><time>2026-04-26T09:05:33.381Z</time></trkpt><trkpt lat="44.4562579" lon="8.1224179"><ele>382.0</ele><time>2026-04-26T09:05:34.383Z</time></trkpt><trkpt lat="44.4564809" lon="8.1224571"><ele>380.66666666666663</ele><time>2026-04-26T09:05:35.374Z</time></trkpt><trkpt lat="44.456707" lon="8.1224914"><ele>379.3333333333333</ele><time>2026-04-26T09:05:36.374Z</time></trkpt><trkpt lat="44.4569261" lon="8.1225159"><ele>378.0</ele><time>2026-04-26T09:05:37.376Z</time></trkpt><trkpt lat="44.4571318" lon="8.1225313"><ele>376.0</ele><time>2026-04-26T09:05:38.366Z</time></trkpt><trkpt lat="44.457333" lon="8.1225284"><ele>374.0</ele><time>2026-04-26T09:05:39.388Z</time></trkpt><trkpt lat="44.4575337" lon="8.1225131"><ele>372.0</ele><time>2026-04-26T09:05:40.384Z</time></trkpt><trkpt lat="44.4577422" lon="8.1225114"><ele>372.0</ele><time>2026-04-26T09:05:41.378Z</time></trkpt><trkpt lat="44.4579512" lon="8.1225125"><ele>372.0</ele><time>2026-04-26T09:05:42.375Z</time></trkpt><trkpt lat="44.458153" lon="8.1225186"><ele>372.0</ele><time>2026-04-26T09:05:43.371Z</time></trkpt><trkpt lat="44.4583593" lon="8.1225554"><ele>369.0</ele><time>2026-04-26T09:05:44.368Z</time></trkpt><trkpt lat="44.4585716" lon="8.1226035"><ele>366.0</ele><time>2026-04-26T09:05:45.372Z</time></trkpt><trkpt lat="44.4587815" lon="8.1226598"><ele>363.0</ele><time>2026-04-26T09:05:46.373Z</time></trkpt><trkpt lat="44.4589852" lon="8.1227333"><ele>362.0</ele><time>2026-04-26T09:05:47.372Z</time></trkpt><trkpt lat="44.459175" lon="8.1228135"><ele>361.0</ele><time>2026-04-26T09:05:48.371Z</time></trkpt><trkpt lat="44.4593618" lon="8.1229055"><ele>360.0</ele><time>2026-04-26T09:05:49.369Z</time></trkpt><trkpt lat="44.4595576" lon="8.1229911"><ele>358.0</ele><time>2026-04-26T09:05:50.37Z</time></trkpt><trkpt lat="44.4597592" lon="8.1230713"><ele>356.0</ele><time>2026-04-26T09:05:51.37Z</time></trkpt><trkpt lat="44.459954" lon="8.1231559"><ele>354.0</ele><time>2026-04-26T09:05:52.369Z</time></trkpt><trkpt lat="44.460144" lon="8.1232413"><ele>354.0</ele><time>2026-04-26T09:05:53.372Z</time></trkpt><trkpt lat="44.460329" lon="8.123322"><ele>354.0</ele><time>2026-04-26T09:05:54.37Z</time></trkpt><trkpt lat="44.4605013" lon="8.1233998"><ele>354.0</ele><time>2026-04-26T09:05:55.375Z</time></trkpt><trkpt lat="44.4606694" lon="8.1234689"><ele>353.6666666666667</ele><time>2026-04-26T09:05:56.371Z</time></trkpt><trkpt lat="44.4608242" lon="8.1235281"><ele>353.33333333333337</ele><time>2026-04-26T09:05:57.37Z</time></trkpt><trkpt lat="44.4609765" lon="8.1235835"><ele>353.0</ele><time>2026-04-26T09:05:58.368Z</time></trkpt><trkpt lat="44.4611227" lon="8.1236187"><ele>353.0</ele><time>2026-04-26T09:05:59.369Z</time></trkpt><trkpt lat="44.4612594" lon="8.1236572"><ele>353.0</ele><time>2026-04-26T09:06:00.372Z</time></trkpt><trkpt lat="44.4613999" lon="8.1236911"><ele>353.0</ele><time>2026-04-26T09:06:01.368Z</time></trkpt><trkpt lat="44.4615242" lon="8.123723"><ele>353.0</ele><time>2026-04-26T09:06:02.37Z</time></trkpt><trkpt lat="44.4616231" lon="8.1237477"><ele>353.1666666666667</ele><time>2026-04-26T09:06:03.359Z</time></trkpt><trkpt lat="44.4616912" lon="8.1237629"><ele>353.33333333333337</ele><time>2026-04-26T09:06:04.366Z</time></trkpt><trkpt lat="44.4617806" lon="8.1237978"><ele>353.5</ele><time>2026-04-26T09:06:06.377Z</time></trkpt><trkpt lat="44.4618228" lon="8.1238781"><ele>353.6666666666667</ele><time>2026-04-26T09:06:11.381Z</time></trkpt><trkpt lat="44.4618469" lon="8.1239695"><ele>353.8333333333333</ele><time>2026-04-26T09:06:12.395Z</time></trkpt><trkpt lat="44.461844" lon="8.1241337"><ele>354.0</ele><time>2026-04-26T09:06:13.388Z</time></trkpt><trkpt lat="44.4618404" lon="8.1243119"><ele>354.6666666666667</ele><time>2026-04-26T09:06:14.371Z</time></trkpt><trkpt lat="44.4618373" lon="8.1245266"><ele>355.33333333333337</ele><time>2026-04-26T09:06:15.371Z</time></trkpt><trkpt lat="44.4618359" lon="8.1247432"><ele>356.0</ele><time>2026-04-26T09:06:16.372Z</time></trkpt><trkpt lat="44.461838" lon="8.1249579"><ele>356.6666666666667</ele><time>2026-04-26T09:06:17.367Z</time></trkpt><trkpt lat="44.461832" lon="8.1252096"><ele>357.3333333333333</ele><time>2026-04-26T09:06:18.375Z</time></trkpt><trkpt lat="44.4618217" lon="8.1254738"><ele>358.0</ele><time>2026-04-26T09:06:19.37Z</time></trkpt><trkpt lat="44.4618024" lon="8.1257566"><ele>359.3333333333333</ele><time>2026-04-26T09:06:20.366Z</time></trkpt><trkpt lat="44.4617845" lon="8.1260394"><ele>360.6666666666667</ele><time>2026-04-26T09:06:21.364Z</time></trkpt><trkpt lat="44.4617636" lon="8.1263165"><ele>362.0</ele><time>2026-04-26T09:06:22.375Z</time></trkpt><trkpt lat="44.4617375" lon="8.1265782"><ele>362.6666666666667</ele><time>2026-04-26T09:06:23.379Z</time></trkpt><trkpt lat="44.46168" lon="8.1268299"><ele>363.3333333333333</ele><time>2026-04-26T09:06:24.372Z</time></trkpt><trkpt lat="44.4615846" lon="8.1270432"><ele>364.0</ele><time>2026-04-26T09:06:25.369Z</time></trkpt><trkpt lat="44.4614605" lon="8.1272382"><ele>361.0</ele><time>2026-04-26T09:06:26.373Z</time></trkpt><trkpt lat="44.4613222" lon="8.1274283"><ele>358.0</ele><time>2026-04-26T09:06:27.359Z</time></trkpt><trkpt lat="44.4611825" lon="8.1276163"><ele>355.0</ele><time>2026-04-26T09:06:28.376Z</time></trkpt><trkpt lat="44.4610364" lon="8.1277932"><ele>355.0</ele><time>2026-04-26T09:06:29.375Z</time></trkpt><trkpt lat="44.4608777" lon="8.1279731"><ele>355.0</ele><time>2026-04-26T09:06:30.377Z</time></trkpt><trkpt lat="44.4607149" lon="8.1281347"><ele>355.0</ele><time>2026-04-26T09:06:31.368Z</time></trkpt><trkpt lat="44.4605461" lon="8.1282824"><ele>359.3333333333333</ele><time>2026-04-26T09:06:32.361Z</time></trkpt><trkpt lat="44.4603642" lon="8.1284011"><ele>363.6666666666667</ele><time>2026-04-26T09:06:33.368Z</time></trkpt><trkpt lat="44.4601807" lon="8.1284764"><ele>368.0</ele><time>2026-04-26T09:06:34.353Z</time></trkpt><trkpt lat="44.4599901" lon="8.1285385"><ele>368.0</ele><time>2026-04-26T09:06:35.371Z</time></trkpt><trkpt lat="44.4597924" lon="8.1285982"><ele>368.0</ele><time>2026-04-26T09:06:36.37Z</time></trkpt><trkpt lat="44.4596157" lon="8.128662"><ele>368.0</ele><time>2026-04-26T09:06:37.364Z</time></trkpt><trkpt lat="44.4594474" lon="8.1287059"><ele>368.6666666666667</ele><time>2026-04-26T09:06:38.365Z</time></trkpt><trkpt lat="44.4592685" lon="8.1286777"><ele>369.3333333333333</ele><time>2026-04-26T09:06:39.361Z</time></trkpt><trkpt lat="44.459073" lon="8.1285936"><ele>370.0</ele><time>2026-04-26T09:06:40.358Z</time></trkpt><trkpt lat="44.4588945" lon="8.1284768"><ele>365.66666666666663</ele><time>2026-04-26T09:06:41.37Z</time></trkpt><trkpt lat="44.4586944" lon="8.1283866"><ele>361.3333333333333</ele><time>2026-04-26T09:06:42.37Z</time></trkpt><trkpt lat="44.4584984" lon="8.1282852"><ele>357.0</ele><time>2026-04-26T09:06:43.365Z</time></trkpt><trkpt lat="44.4582954" lon="8.1282002"><ele>357.0</ele><time>2026-04-26T09:06:44.367Z</time></trkpt><trkpt lat="44.4581061" lon="8.1281692"><ele>357.0</ele><time>2026-04-26T09:06:45.363Z</time></trkpt><trkpt lat="44.4579263" lon="8.1281592"><ele>357.0</ele><time>2026-04-26T09:06:46.391Z</time></trkpt><trkpt lat="44.457756" lon="8.1281845"><ele>356.0</ele><time>2026-04-26T09:06:47.372Z</time></trkpt><trkpt lat="44.4575902" lon="8.1282216"><ele>355.0</ele><time>2026-04-26T09:06:48.365Z</time></trkpt><trkpt lat="44.4574255" lon="8.1283176"><ele>354.0</ele><time>2026-04-26T09:06:49.365Z</time></trkpt><trkpt lat="44.4572467" lon="8.1284397"><ele>359.3333333333333</ele><time>2026-04-26T09:06:50.38Z</time></trkpt><trkpt lat="44.4570535" lon="8.1285482"><ele>364.66666666666663</ele><time>2026-04-26T09:06:51.364Z</time></trkpt><trkpt lat="44.4568345" lon="8.1286457"><ele>370.0</ele><time>2026-04-26T09:06:52.368Z</time></trkpt><trkpt lat="44.4565982" lon="8.128727"><ele>370.0</ele><time>2026-04-26T09:06:53.369Z</time></trkpt><trkpt lat="44.4563595" lon="8.1288124"><ele>370.0</ele><time>2026-04-26T09:06:54.363Z</time></trkpt><trkpt lat="44.4561226" lon="8.1288999"><ele>367.5</ele><time>2026-04-26T09:06:55.38Z</time></trkpt><trkpt lat="44.4558854" lon="8.1289777"><ele>365.0</ele><time>2026-04-26T09:06:56.369Z</time></trkpt><trkpt lat="44.4556407" lon="8.12906"><ele>371.5</ele><time>2026-04-26T09:06:57.364Z</time></trkpt><trkpt lat="44.4553981" lon="8.1291461"><ele>378.0</ele><time>2026-04-26T09:06:58.366Z</time></trkpt><trkpt lat="44.4551499" lon="8.1292413"><ele>378.0</ele><time>2026-04-26T09:06:59.366Z</time></trkpt><trkpt lat="44.4549051" lon="8.1293596"><ele>378.0</ele><time>2026-04-26T09:07:00.363Z</time></trkpt><trkpt lat="44.4546654" lon="8.1294967"><ele>375.0</ele><time>2026-04-26T09:07:01.389Z</time></trkpt><trkpt lat="44.4544233" lon="8.1296348"><ele>372.0</ele><time>2026-04-26T09:07:02.385Z</time></trkpt><trkpt lat="44.4541851" lon="8.1297787"><ele>374.5</ele><time>2026-04-26T09:07:03.369Z</time></trkpt><trkpt lat="44.453948" lon="8.1299214"><ele>377.0</ele><time>2026-04-26T09:07:04.37Z</time></trkpt><trkpt lat="44.4537177" lon="8.1300642"><ele>377.0</ele><time>2026-04-26T09:07:05.383Z</time></trkpt><trkpt lat="44.453484" lon="8.1302024"><ele>377.0</ele><time>2026-04-26T09:07:06.378Z</time></trkpt><trkpt lat="44.4532494" lon="8.1303431"><ele>377.0</ele><time>2026-04-26T09:07:07.375Z</time></trkpt><trkpt lat="44.4530133" lon="8.1304882"><ele>377.0</ele><time>2026-04-26T09:07:08.379Z</time></trkpt><trkpt lat="44.4527725" lon="8.1306301"><ele>377.0</ele><time>2026-04-26T09:07:09.37Z</time></trkpt><trkpt lat="44.4525306" lon="8.1307846"><ele>377.0</ele><time>2026-04-26T09:07:10.377Z</time></trkpt><trkpt lat="44.4522841" lon="8.1309585"><ele>375.5</ele><time>2026-04-26T09:07:11.377Z</time></trkpt><trkpt lat="44.4520465" lon="8.1311298"><ele>374.0</ele><time>2026-04-26T09:07:12.374Z</time></trkpt><trkpt lat="44.451812" lon="8.1312675"><ele>374.0</ele><time>2026-04-26T09:07:13.375Z</time></trkpt><trkpt lat="44.4515772" lon="8.131376"><ele>374.0</ele><time>2026-04-26T09:07:14.37Z</time></trkpt><trkpt lat="44.4513407" lon="8.1314776"><ele>376.5</ele><time>2026-04-26T09:07:15.379Z</time></trkpt><trkpt lat="44.451104" lon="8.1315676"><ele>379.0</ele><time>2026-04-26T09:07:16.381Z</time></trkpt><trkpt lat="44.4508725" lon="8.131647"><ele>379.0</ele><time>2026-04-26T09:07:17.382Z</time></trkpt><trkpt lat="44.4506649" lon="8.131739"><ele>379.0</ele><time>2026-04-26T09:07:18.374Z</time></trkpt><trkpt lat="44.4504665" lon="8.1318599"><ele>379.0</ele><time>2026-04-26T09:07:19.377Z</time></trkpt><trkpt lat="44.4502969" lon="8.1320272"><ele>376.66666666666663</ele><time>2026-04-26T09:07:20.381Z</time></trkpt><trkpt lat="44.4501484" lon="8.1322477"><ele>374.3333333333333</ele><time>2026-04-26T09:07:21.379Z</time></trkpt><trkpt lat="44.4500158" lon="8.1325095"><ele>372.0</ele><time>2026-04-26T09:07:22.369Z</time></trkpt><trkpt lat="44.4499034" lon="8.1327899"><ele>372.0</ele><time>2026-04-26T09:07:23.376Z</time></trkpt><trkpt lat="44.4498003" lon="8.1331025"><ele>372.0</ele><time>2026-04-26T09:07:24.368Z</time></trkpt><trkpt lat="44.4497149" lon="8.133426"><ele>374.5</ele><time>2026-04-26T09:07:25.38Z</time></trkpt><trkpt lat="44.4496531" lon="8.1337678"><ele>377.0</ele><time>2026-04-26T09:07:26.37Z</time></trkpt><trkpt lat="44.4496178" lon="8.134118"><ele>371.5</ele><time>2026-04-26T09:07:27.374Z</time></trkpt><trkpt lat="44.4495895" lon="8.1345031"><ele>366.0</ele><time>2026-04-26T09:07:28.367Z</time></trkpt><trkpt lat="44.4495538" lon="8.1348738"><ele>367.0</ele><time>2026-04-26T09:07:29.374Z</time></trkpt><trkpt lat="44.4494875" lon="8.1352352"><ele>368.0</ele><time>2026-04-26T09:07:30.372Z</time></trkpt><trkpt lat="44.4494097" lon="8.1355912"><ele>369.5</ele><time>2026-04-26T09:07:31.375Z</time></trkpt><trkpt lat="44.449323" lon="8.1359214"><ele>371.0</ele><time>2026-04-26T09:07:32.373Z</time></trkpt><trkpt lat="44.4492352" lon="8.1362193"><ele>371.0</ele><time>2026-04-26T09:07:33.379Z</time></trkpt><trkpt lat="44.4491605" lon="8.1365033"><ele>371.0</ele><time>2026-04-26T09:07:34.377Z</time></trkpt><trkpt lat="44.4490835" lon="8.1367582"><ele>371.0</ele><time>2026-04-26T09:07:35.381Z</time></trkpt><trkpt lat="44.4489861" lon="8.1369851"><ele>370.6666666666667</ele><time>2026-04-26T09:07:36.373Z</time></trkpt><trkpt lat="44.4488808" lon="8.1372047"><ele>370.3333333333333</ele><time>2026-04-26T09:07:37.376Z</time></trkpt><trkpt lat="44.4487709" lon="8.1374099"><ele>370.0</ele><time>2026-04-26T09:07:38.366Z</time></trkpt><trkpt lat="44.448651" lon="8.1376155"><ele>370.0</ele><time>2026-04-26T09:07:39.375Z</time></trkpt><trkpt lat="44.4485181" lon="8.1378153"><ele>370.0</ele><time>2026-04-26T09:07:40.367Z</time></trkpt><trkpt lat="44.4483798" lon="8.1380009"><ele>370.0</ele><time>2026-04-26T09:07:41.374Z</time></trkpt><trkpt lat="44.448235" lon="8.1381982"><ele>370.66666666666663</ele><time>2026-04-26T09:07:42.366Z</time></trkpt><trkpt lat="44.4480901" lon="8.1383907"><ele>371.3333333333333</ele><time>2026-04-26T09:07:43.381Z</time></trkpt><trkpt lat="44.4479421" lon="8.1385877"><ele>372.0</ele><time>2026-04-26T09:07:44.384Z</time></trkpt><trkpt lat="44.4477939" lon="8.1387876"><ele>370.0</ele><time>2026-04-26T09:07:45.384Z</time></trkpt><trkpt lat="44.4476485" lon="8.1389848"><ele>368.0</ele><time>2026-04-26T09:07:46.369Z</time></trkpt><trkpt lat="44.4475028" lon="8.1391888"><ele>366.0</ele><time>2026-04-26T09:07:47.367Z</time></trkpt><trkpt lat="44.4473562" lon="8.1393922"><ele>365.6666666666667</ele><time>2026-04-26T09:07:48.371Z</time></trkpt><trkpt lat="44.4472086" lon="8.1395938"><ele>365.33333333333337</ele><time>2026-04-26T09:07:49.378Z</time></trkpt><trkpt lat="44.4470648" lon="8.1397912"><ele>365.0</ele><time>2026-04-26T09:07:50.371Z</time></trkpt><trkpt lat="44.4469241" lon="8.139978"><ele>364.6666666666667</ele><time>2026-04-26T09:07:51.379Z</time></trkpt><trkpt lat="44.4467855" lon="8.1401599"><ele>364.3333333333333</ele><time>2026-04-26T09:07:52.368Z</time></trkpt><trkpt lat="44.4466581" lon="8.1403374"><ele>364.0</ele><time>2026-04-26T09:07:53.373Z</time></trkpt><trkpt lat="44.4465338" lon="8.1405106"><ele>364.0</ele><time>2026-04-26T09:07:54.375Z</time></trkpt><trkpt lat="44.4464075" lon="8.1406814"><ele>364.0</ele><time>2026-04-26T09:07:55.376Z</time></trkpt><trkpt lat="44.4462781" lon="8.1408595"><ele>364.0</ele><time>2026-04-26T09:07:56.374Z</time></trkpt><trkpt lat="44.4461507" lon="8.1410417"><ele>363.66666666666663</ele><time>2026-04-26T09:07:57.366Z</time></trkpt><trkpt lat="44.4460231" lon="8.1412276"><ele>363.3333333333333</ele><time>2026-04-26T09:07:58.406Z</time></trkpt><trkpt lat="44.4458934" lon="8.1413988"><ele>363.0</ele><time>2026-04-26T09:07:59.402Z</time></trkpt><trkpt lat="44.4457622" lon="8.1415684"><ele>363.3333333333333</ele><time>2026-04-26T09:08:00.397Z</time></trkpt><trkpt lat="44.4456466" lon="8.1417221"><ele>363.66666666666663</ele><time>2026-04-26T09:08:01.404Z</time></trkpt><trkpt lat="44.4455422" lon="8.1418731"><ele>364.0</ele><time>2026-04-26T09:08:02.392Z</time></trkpt><trkpt lat="44.4454479" lon="8.1420212"><ele>364.0</ele><time>2026-04-26T09:08:03.368Z</time></trkpt><trkpt lat="44.4453507" lon="8.1421635"><ele>364.0</ele><time>2026-04-26T09:08:04.398Z</time></trkpt><trkpt lat="44.445233" lon="8.1422959"><ele>364.0</ele><time>2026-04-26T09:08:05.382Z</time></trkpt><trkpt lat="44.4451085" lon="8.1424507"><ele>364.3333333333333</ele><time>2026-04-26T09:08:06.373Z</time></trkpt><trkpt lat="44.4449717" lon="8.142616"><ele>364.6666666666667</ele><time>2026-04-26T09:08:07.374Z</time></trkpt><trkpt lat="44.4448363" lon="8.1428016"><ele>365.0</ele><time>2026-04-26T09:08:08.4Z</time></trkpt><trkpt lat="44.4446817" lon="8.1430033"><ele>365.33333333333337</ele><time>2026-04-26T09:08:09.378Z</time></trkpt><trkpt lat="44.4445252" lon="8.143212"><ele>365.6666666666667</ele><time>2026-04-26T09:08:10.374Z</time></trkpt><trkpt lat="44.4443664" lon="8.1434373"><ele>366.0</ele><time>2026-04-26T09:08:11.375Z</time></trkpt><trkpt lat="44.4442079" lon="8.1436575"><ele>366.0</ele><time>2026-04-26T09:08:12.375Z</time></trkpt><trkpt lat="44.4440533" lon="8.1438745"><ele>366.0</ele><time>2026-04-26T09:08:13.374Z</time></trkpt><trkpt lat="44.4438963" lon="8.1440797"><ele>366.0</ele><time>2026-04-26T09:08:14.394Z</time></trkpt><trkpt lat="44.4437374" lon="8.144297"><ele>365.6666666666667</ele><time>2026-04-26T09:08:15.374Z</time></trkpt><trkpt lat="44.4435931" lon="8.1445013"><ele>365.33333333333337</ele><time>2026-04-26T09:08:16.427Z</time></trkpt><trkpt lat="44.4434502" lon="8.1446961"><ele>365.0</ele><time>2026-04-26T09:08:17.375Z</time></trkpt><trkpt lat="44.4433083" lon="8.1448965"><ele>364.33333333333337</ele><time>2026-04-26T09:08:18.368Z</time></trkpt><trkpt lat="44.4431639" lon="8.1450895"><ele>363.6666666666667</ele><time>2026-04-26T09:08:19.374Z</time></trkpt><trkpt lat="44.4430228" lon="8.1452561"><ele>363.0</ele><time>2026-04-26T09:08:20.376Z</time></trkpt><trkpt lat="44.4428947" lon="8.1454148"><ele>363.0</ele><time>2026-04-26T09:08:21.367Z</time></trkpt><trkpt lat="44.4427877" lon="8.1455607"><ele>363.0</ele><time>2026-04-26T09:08:22.372Z</time></trkpt><trkpt lat="44.4426823" lon="8.145691"><ele>363.0</ele><time>2026-04-26T09:08:23.373Z</time></trkpt><trkpt lat="44.4425889" lon="8.1457982"><ele>363.0</ele><time>2026-04-26T09:08:24.365Z</time></trkpt><trkpt lat="44.442506" lon="8.1459067"><ele>363.75</ele><time>2026-04-26T09:08:25.364Z</time></trkpt><trkpt lat="44.4424373" lon="8.146045"><ele>364.5</ele><time>2026-04-26T09:08:26.365Z</time></trkpt><trkpt lat="44.4423938" lon="8.1462219"><ele>365.25</ele><time>2026-04-26T09:08:27.384Z</time></trkpt><trkpt lat="44.44235" lon="8.1464279"><ele>366.0</ele><time>2026-04-26T09:08:28.381Z</time></trkpt><trkpt lat="44.4422967" lon="8.1466465"><ele>365.3333333333333</ele><time>2026-04-26T09:08:29.366Z</time></trkpt><trkpt lat="44.4422286" lon="8.1468692"><ele>364.66666666666663</ele><time>2026-04-26T09:08:30.369Z</time></trkpt><trkpt lat="44.4421629" lon="8.1471058"><ele>364.0</ele><time>2026-04-26T09:08:31.377Z</time></trkpt><trkpt lat="44.442088" lon="8.1473503"><ele>365.0</ele><time>2026-04-26T09:08:32.381Z</time></trkpt><trkpt lat="44.4420124" lon="8.1476043"><ele>366.0</ele><time>2026-04-26T09:08:33.375Z</time></trkpt><trkpt lat="44.4419265" lon="8.1478577"><ele>367.0</ele><time>2026-04-26T09:08:34.369Z</time></trkpt><trkpt lat="44.4418225" lon="8.148106"><ele>369.66666666666663</ele><time>2026-04-26T09:08:35.373Z</time></trkpt><trkpt lat="44.4416848" lon="8.148333"><ele>372.3333333333333</ele><time>2026-04-26T09:08:36.427Z</time></trkpt><trkpt lat="44.4415227" lon="8.1485341"><ele>375.0</ele><time>2026-04-26T09:08:37.384Z</time></trkpt><trkpt lat="44.4413462" lon="8.1487251"><ele>374.3333333333333</ele><time>2026-04-26T09:08:38.385Z</time></trkpt><trkpt lat="44.4411643" lon="8.1488947"><ele>373.66666666666663</ele><time>2026-04-26T09:08:39.367Z</time></trkpt><trkpt lat="44.4409758" lon="8.1490551"><ele>373.0</ele><time>2026-04-26T09:08:40.373Z</time></trkpt><trkpt lat="44.4407876" lon="8.1492132"><ele>373.0</ele><time>2026-04-26T09:08:41.37Z</time></trkpt><trkpt lat="44.4405987" lon="8.149373"><ele>373.0</ele><time>2026-04-26T09:08:42.372Z</time></trkpt><trkpt lat="44.4404096" lon="8.149527"><ele>373.0</ele><time>2026-04-26T09:08:43.366Z</time></trkpt><trkpt lat="44.4402233" lon="8.149682"><ele>374.66666666666663</ele><time>2026-04-26T09:08:44.383Z</time></trkpt><trkpt lat="44.4400385" lon="8.1498325"><ele>376.3333333333333</ele><time>2026-04-26T09:08:45.377Z</time></trkpt><trkpt lat="44.4398663" lon="8.1499746"><ele>378.0</ele><time>2026-04-26T09:08:46.373Z</time></trkpt><trkpt lat="44.4397102" lon="8.1501225"><ele>374.0</ele><time>2026-04-26T09:08:47.372Z</time></trkpt><trkpt lat="44.4395646" lon="8.1502875"><ele>370.0</ele><time>2026-04-26T09:08:48.387Z</time></trkpt><trkpt lat="44.4394263" lon="8.150486"><ele>366.0</ele><time>2026-04-26T09:08:49.381Z</time></trkpt><trkpt lat="44.4392934" lon="8.1506912"><ele>369.3333333333333</ele><time>2026-04-26T09:08:50.394Z</time></trkpt><trkpt lat="44.4391585" lon="8.1509071"><ele>372.66666666666663</ele><time>2026-04-26T09:08:51.376Z</time></trkpt><trkpt lat="44.4390218" lon="8.1511322"><ele>376.0</ele><time>2026-04-26T09:08:52.374Z</time></trkpt><trkpt lat="44.4388875" lon="8.151353"><ele>374.0</ele><time>2026-04-26T09:08:53.373Z</time></trkpt><trkpt lat="44.4387446" lon="8.1515809"><ele>372.0</ele><time>2026-04-26T09:08:54.371Z</time></trkpt><trkpt lat="44.4386044" lon="8.151811"><ele>370.0</ele><time>2026-04-26T09:08:55.375Z</time></trkpt><trkpt lat="44.4384608" lon="8.1520437"><ele>370.0</ele><time>2026-04-26T09:08:56.367Z</time></trkpt><trkpt lat="44.4383169" lon="8.1522779"><ele>370.0</ele><time>2026-04-26T09:08:57.374Z</time></trkpt><trkpt lat="44.4381713" lon="8.1525062"><ele>370.0</ele><time>2026-04-26T09:08:58.383Z</time></trkpt><trkpt lat="44.4380359" lon="8.1527284"><ele>369.66666666666663</ele><time>2026-04-26T09:08:59.372Z</time></trkpt><trkpt lat="44.4379144" lon="8.1529583"><ele>369.3333333333333</ele><time>2026-04-26T09:09:00.38Z</time></trkpt><trkpt lat="44.4378122" lon="8.1532089"><ele>369.0</ele><time>2026-04-26T09:09:01.375Z</time></trkpt><trkpt lat="44.4377341" lon="8.1534556"><ele>371.6666666666667</ele><time>2026-04-26T09:09:02.39Z</time></trkpt><trkpt lat="44.4376598" lon="8.1537095"><ele>374.33333333333337</ele><time>2026-04-26T09:09:03.372Z</time></trkpt><trkpt lat="44.4375948" lon="8.1539398"><ele>377.0</ele><time>2026-04-26T09:09:04.393Z</time></trkpt><trkpt lat="44.4375309" lon="8.1541794"><ele>378.33333333333337</ele><time>2026-04-26T09:09:05.383Z</time></trkpt><trkpt lat="44.437472" lon="8.1544232"><ele>379.6666666666667</ele><time>2026-04-26T09:09:06.378Z</time></trkpt><trkpt lat="44.4374191" lon="8.1546486"><ele>381.0</ele><time>2026-04-26T09:09:07.367Z</time></trkpt><trkpt lat="44.437355" lon="8.1548776"><ele>382.0</ele><time>2026-04-26T09:09:08.365Z</time></trkpt><trkpt lat="44.4372816" lon="8.1550675"><ele>383.0</ele><time>2026-04-26T09:09:09.404Z</time></trkpt><trkpt lat="44.4371916" lon="8.1552387"><ele>384.0</ele><time>2026-04-26T09:09:10.397Z</time></trkpt><trkpt lat="44.4371174" lon="8.1554084"><ele>385.0</ele><time>2026-04-26T09:09:11.38Z</time></trkpt><trkpt lat="44.4370749" lon="8.1555895"><ele>381.33333333333337</ele><time>2026-04-26T09:09:12.384Z</time></trkpt><trkpt lat="44.4370602" lon="8.1557967"><ele>377.6666666666667</ele><time>2026-04-26T09:09:13.388Z</time></trkpt><trkpt lat="44.4370575" lon="8.1560325"><ele>374.0</ele><time>2026-04-26T09:09:14.38Z</time></trkpt><trkpt lat="44.4370644" lon="8.1562621"><ele>374.0</ele><time>2026-04-26T09:09:15.378Z</time></trkpt><trkpt lat="44.4370516" lon="8.1564804"><ele>374.0</ele><time>2026-04-26T09:09:16.365Z</time></trkpt><trkpt lat="44.4370024" lon="8.1567031"><ele>374.0</ele><time>2026-04-26T09:09:17.382Z</time></trkpt><trkpt lat="44.4369378" lon="8.156937"><ele>374.0</ele><time>2026-04-26T09:09:18.379Z</time></trkpt><trkpt lat="44.4368749" lon="8.157185"><ele>374.0</ele><time>2026-04-26T09:09:19.37Z</time></trkpt><trkpt lat="44.4368094" lon="8.1574563"><ele>374.0</ele><time>2026-04-26T09:09:20.374Z</time></trkpt><trkpt lat="44.4367476" lon="8.1577331"><ele>373.6666666666667</ele><time>2026-04-26T09:09:21.368Z</time></trkpt><trkpt lat="44.4366851" lon="8.1580141"><ele>373.3333333333333</ele><time>2026-04-26T09:09:22.38Z</time></trkpt><trkpt lat="44.4366312" lon="8.158297"><ele>373.0</ele><time>2026-04-26T09:09:23.385Z</time></trkpt><trkpt lat="44.4365942" lon="8.1585919"><ele>373.0</ele><time>2026-04-26T09:09:24.365Z</time></trkpt><trkpt lat="44.436566" lon="8.1589057"><ele>373.0</ele><time>2026-04-26T09:09:25.38Z</time></trkpt><trkpt lat="44.4365687" lon="8.1592296"><ele>373.5</ele><time>2026-04-26T09:09:26.367Z</time></trkpt><trkpt lat="44.4365779" lon="8.1595512"><ele>374.0</ele><time>2026-04-26T09:09:27.373Z</time></trkpt><trkpt lat="44.4365877" lon="8.1598835"><ele>375.5</ele><time>2026-04-26T09:09:28.365Z</time></trkpt><trkpt lat="44.4365984" lon="8.1602141"><ele>377.0</ele><time>2026-04-26T09:09:29.363Z</time></trkpt><trkpt lat="44.436614" lon="8.1605505"><ele>378.5</ele><time>2026-04-26T09:09:30.373Z</time></trkpt><trkpt lat="44.4366432" lon="8.1608702"><ele>380.0</ele><time>2026-04-26T09:09:31.373Z</time></trkpt><trkpt lat="44.4366893" lon="8.1611861"><ele>380.0</ele><time>2026-04-26T09:09:32.363Z</time></trkpt><trkpt lat="44.436753" lon="8.1614933"><ele>380.0</ele><time>2026-04-26T09:09:33.373Z</time></trkpt><trkpt lat="44.4368127" lon="8.1618091"><ele>379.0</ele><time>2026-04-26T09:09:34.374Z</time></trkpt><trkpt lat="44.4368571" lon="8.1621234"><ele>378.0</ele><time>2026-04-26T09:09:35.385Z</time></trkpt><trkpt lat="44.4368934" lon="8.1624392"><ele>377.0</ele><time>2026-04-26T09:09:36.378Z</time></trkpt><trkpt lat="44.4369051" lon="8.1627622"><ele>376.0</ele><time>2026-04-26T09:09:37.374Z</time></trkpt><trkpt lat="44.4369072" lon="8.1630829"><ele>379.0</ele><time>2026-04-26T09:09:38.376Z</time></trkpt><trkpt lat="44.4369094" lon="8.1634067"><ele>382.0</ele><time>2026-04-26T09:09:39.373Z</time></trkpt><trkpt lat="44.4369157" lon="8.1637335"><ele>382.0</ele><time>2026-04-26T09:09:40.389Z</time></trkpt><trkpt lat="44.4369204" lon="8.1640638"><ele>382.0</ele><time>2026-04-26T09:09:41.369Z</time></trkpt><trkpt lat="44.4369158" lon="8.1643961"><ele>382.0</ele><time>2026-04-26T09:09:42.374Z</time></trkpt><trkpt lat="44.4368746" lon="8.1647385"><ele>382.0</ele><time>2026-04-26T09:09:43.378Z</time></trkpt><trkpt lat="44.4368233" lon="8.1650599"><ele>382.5</ele><time>2026-04-26T09:09:44.366Z</time></trkpt><trkpt lat="44.4367514" lon="8.1653794"><ele>383.0</ele><time>2026-04-26T09:09:45.364Z</time></trkpt><trkpt lat="44.436658" lon="8.1656775"><ele>388.0</ele><time>2026-04-26T09:09:46.373Z</time></trkpt><trkpt lat="44.4365449" lon="8.1659561"><ele>393.0</ele><time>2026-04-26T09:09:47.368Z</time></trkpt><trkpt lat="44.4364103" lon="8.1662172"><ele>387.5</ele><time>2026-04-26T09:09:48.368Z</time></trkpt><trkpt lat="44.4362608" lon="8.1664658"><ele>382.0</ele><time>2026-04-26T09:09:49.381Z</time></trkpt><trkpt lat="44.4360983" lon="8.1667072"><ele>382.0</ele><time>2026-04-26T09:09:50.367Z</time></trkpt><trkpt lat="44.4359205" lon="8.1669178"><ele>382.0</ele><time>2026-04-26T09:09:51.372Z</time></trkpt><trkpt lat="44.4357481" lon="8.1671381"><ele>382.0</ele><time>2026-04-26T09:09:52.375Z</time></trkpt><trkpt lat="44.4355809" lon="8.1673364"><ele>382.0</ele><time>2026-04-26T09:09:53.363Z</time></trkpt><trkpt lat="44.4354132" lon="8.1675021"><ele>382.0</ele><time>2026-04-26T09:09:54.378Z</time></trkpt><trkpt lat="44.4352431" lon="8.1676588"><ele>380.66666666666663</ele><time>2026-04-26T09:09:55.372Z</time></trkpt><trkpt lat="44.4350858" lon="8.1677995"><ele>379.3333333333333</ele><time>2026-04-26T09:09:56.372Z</time></trkpt><trkpt lat="44.4349324" lon="8.1679313"><ele>378.0</ele><time>2026-04-26T09:09:57.375Z</time></trkpt><trkpt lat="44.4347925" lon="8.1680642"><ele>378.0</ele><time>2026-04-26T09:09:58.372Z</time></trkpt><trkpt lat="44.4346593" lon="8.1681901"><ele>378.0</ele><time>2026-04-26T09:09:59.368Z</time></trkpt><trkpt lat="44.4345451" lon="8.1683294"><ele>378.0</ele><time>2026-04-26T09:10:00.37Z</time></trkpt><trkpt lat="44.4344404" lon="8.1684886"><ele>376.0</ele><time>2026-04-26T09:10:01.367Z</time></trkpt><trkpt lat="44.4343479" lon="8.1686557"><ele>374.0</ele><time>2026-04-26T09:10:02.376Z</time></trkpt><trkpt lat="44.4342636" lon="8.1688321"><ele>372.0</ele><time>2026-04-26T09:10:03.365Z</time></trkpt><trkpt lat="44.4341773" lon="8.1689992"><ele>372.25</ele><time>2026-04-26T09:10:04.372Z</time></trkpt><trkpt lat="44.4340962" lon="8.1691652"><ele>372.5</ele><time>2026-04-26T09:10:05.369Z</time></trkpt><trkpt lat="44.4340046" lon="8.1693345"><ele>372.75</ele><time>2026-04-26T09:10:06.372Z</time></trkpt><trkpt lat="44.4339068" lon="8.1694918"><ele>373.0</ele><time>2026-04-26T09:10:07.366Z</time></trkpt><trkpt lat="44.433801" lon="8.169625"><ele>373.0</ele><time>2026-04-26T09:10:08.367Z</time></trkpt><trkpt lat="44.4336879" lon="8.1697389"><ele>373.0</ele><time>2026-04-26T09:10:09.372Z</time></trkpt><trkpt lat="44.4335582" lon="8.1698273"><ele>373.0</ele><time>2026-04-26T09:10:10.368Z</time></trkpt><trkpt lat="44.4333936" lon="8.1699005"><ele>377.3333333333333</ele><time>2026-04-26T09:10:11.372Z</time></trkpt><trkpt lat="44.4332095" lon="8.1699624"><ele>381.66666666666663</ele><time>2026-04-26T09:10:12.377Z</time></trkpt><trkpt lat="44.433015" lon="8.1700001"><ele>386.0</ele><time>2026-04-26T09:10:13.37Z</time></trkpt><trkpt lat="44.4328076" lon="8.1700358"><ele>386.0</ele><time>2026-04-26T09:10:14.359Z</time></trkpt><trkpt lat="44.4325879" lon="8.1700887"><ele>386.0</ele><time>2026-04-26T09:10:15.37Z</time></trkpt><trkpt lat="44.4323535" lon="8.1701335"><ele>384.0</ele><time>2026-04-26T09:10:16.368Z</time></trkpt><trkpt lat="44.4321154" lon="8.1701512"><ele>382.0</ele><time>2026-04-26T09:10:17.373Z</time></trkpt><trkpt lat="44.4318746" lon="8.1701508"><ele>382.0</ele><time>2026-04-26T09:10:18.368Z</time></trkpt><trkpt lat="44.4316334" lon="8.1701626"><ele>382.0</ele><time>2026-04-26T09:10:19.366Z</time></trkpt><trkpt lat="44.4313864" lon="8.1701915"><ele>379.5</ele><time>2026-04-26T09:10:20.367Z</time></trkpt><trkpt lat="44.4311327" lon="8.1702376"><ele>377.0</ele><time>2026-04-26T09:10:21.365Z</time></trkpt><trkpt lat="44.4308803" lon="8.1703055"><ele>377.0</ele><time>2026-04-26T09:10:22.365Z</time></trkpt><trkpt lat="44.4306184" lon="8.1703663"><ele>377.0</ele><time>2026-04-26T09:10:23.378Z</time></trkpt><trkpt lat="44.4303654" lon="8.1704247"><ele>375.5</ele><time>2026-04-26T09:10:24.365Z</time></trkpt><trkpt lat="44.4301207" lon="8.1704752"><ele>374.0</ele><time>2026-04-26T09:10:25.376Z</time></trkpt><trkpt lat="44.429886" lon="8.1705261"><ele>374.0</ele><time>2026-04-26T09:10:26.382Z</time></trkpt><trkpt lat="44.4296665" lon="8.1705868"><ele>374.0</ele><time>2026-04-26T09:10:27.372Z</time></trkpt><trkpt lat="44.4294599" lon="8.1706604"><ele>374.0</ele><time>2026-04-26T09:10:28.379Z</time></trkpt><trkpt lat="44.429273" lon="8.1708149"><ele>373.6666666666667</ele><time>2026-04-26T09:10:29.369Z</time></trkpt><trkpt lat="44.429098" lon="8.170992"><ele>373.3333333333333</ele><time>2026-04-26T09:10:30.372Z</time></trkpt><trkpt lat="44.4289233" lon="8.1711596"><ele>373.0</ele><time>2026-04-26T09:10:31.37Z</time></trkpt><trkpt lat="44.428744" lon="8.1713198"><ele>373.0</ele><time>2026-04-26T09:10:32.369Z</time></trkpt><trkpt lat="44.4285689" lon="8.171477"><ele>373.0</ele><time>2026-04-26T09:10:33.366Z</time></trkpt><trkpt lat="44.428398" lon="8.1716202"><ele>373.0</ele><time>2026-04-26T09:10:34.374Z</time></trkpt><trkpt lat="44.4282245" lon="8.1717599"><ele>374.0</ele><time>2026-04-26T09:10:35.362Z</time></trkpt><trkpt lat="44.4280502" lon="8.1718747"><ele>375.0</ele><time>2026-04-26T09:10:36.378Z</time></trkpt><trkpt lat="44.4278731" lon="8.1719815"><ele>376.0</ele><time>2026-04-26T09:10:37.368Z</time></trkpt><trkpt lat="44.4276921" lon="8.1720763"><ele>376.0</ele><time>2026-04-26T09:10:38.365Z</time></trkpt><trkpt lat="44.4275112" lon="8.1721518"><ele>376.0</ele><time>2026-04-26T09:10:39.369Z</time></trkpt><trkpt lat="44.4273226" lon="8.1722205"><ele>376.0</ele><time>2026-04-26T09:10:40.367Z</time></trkpt><trkpt lat="44.4271444" lon="8.1722878"><ele>378.0</ele><time>2026-04-26T09:10:41.368Z</time></trkpt><trkpt lat="44.4269669" lon="8.1723582"><ele>380.0</ele><time>2026-04-26T09:10:42.367Z</time></trkpt><trkpt lat="44.4267853" lon="8.1724213"><ele>382.0</ele><time>2026-04-26T09:10:43.373Z</time></trkpt><trkpt lat="44.4265978" lon="8.1724889"><ele>382.0</ele><time>2026-04-26T09:10:44.367Z</time></trkpt><trkpt lat="44.4264132" lon="8.1725464"><ele>382.0</ele><time>2026-04-26T09:10:45.37Z</time></trkpt><trkpt lat="44.4262257" lon="8.1726006"><ele>382.0</ele><time>2026-04-26T09:10:46.365Z</time></trkpt><trkpt lat="44.4260453" lon="8.1726491"><ele>381.66666666666663</ele><time>2026-04-26T09:10:47.367Z</time></trkpt><trkpt lat="44.4258736" lon="8.1726955"><ele>381.3333333333333</ele><time>2026-04-26T09:10:48.369Z</time></trkpt><trkpt lat="44.425718" lon="8.1727309"><ele>381.0</ele><time>2026-04-26T09:10:49.371Z</time></trkpt><trkpt lat="44.425568" lon="8.1727734"><ele>380.25</ele><time>2026-04-26T09:10:50.373Z</time></trkpt><trkpt lat="44.4254326" lon="8.1728156"><ele>379.5</ele><time>2026-04-26T09:10:51.368Z</time></trkpt><trkpt lat="44.4253001" lon="8.1728599"><ele>378.75</ele><time>2026-04-26T09:10:52.376Z</time></trkpt><trkpt lat="44.4251728" lon="8.1728983"><ele>378.0</ele><time>2026-04-26T09:10:53.37Z</time></trkpt><trkpt lat="44.4250457" lon="8.1729417"><ele>378.0</ele><time>2026-04-26T09:10:54.376Z</time></trkpt><trkpt lat="44.4249145" lon="8.172985"><ele>378.0</ele><time>2026-04-26T09:10:55.43Z</time></trkpt><trkpt lat="44.4247679" lon="8.1730298"><ele>378.0</ele><time>2026-04-26T09:10:56.371Z</time></trkpt><trkpt lat="44.4246154" lon="8.1730761"><ele>378.0</ele><time>2026-04-26T09:10:57.369Z</time></trkpt><trkpt lat="44.4244501" lon="8.1731295"><ele>377.6666666666667</ele><time>2026-04-26T09:10:58.391Z</time></trkpt><trkpt lat="44.4242665" lon="8.1731808"><ele>377.33333333333337</ele><time>2026-04-26T09:10:59.383Z</time></trkpt><trkpt lat="44.4240693" lon="8.1732375"><ele>377.0</ele><time>2026-04-26T09:11:00.4Z</time></trkpt><trkpt lat="44.4238664" lon="8.1732987"><ele>377.6666666666667</ele><time>2026-04-26T09:11:01.385Z</time></trkpt><trkpt lat="44.4236606" lon="8.1733553"><ele>378.3333333333333</ele><time>2026-04-26T09:11:02.383Z</time></trkpt><trkpt lat="44.4234526" lon="8.1734156"><ele>379.0</ele><time>2026-04-26T09:11:03.368Z</time></trkpt><trkpt lat="44.4232366" lon="8.1734463"><ele>379.0</ele><time>2026-04-26T09:11:04.371Z</time></trkpt><trkpt lat="44.4230164" lon="8.1734675"><ele>379.0</ele><time>2026-04-26T09:11:05.369Z</time></trkpt><trkpt lat="44.4228044" lon="8.1734598"><ele>379.0</ele><time>2026-04-26T09:11:06.378Z</time></trkpt><trkpt lat="44.4225939" lon="8.173436"><ele>379.0</ele><time>2026-04-26T09:11:07.371Z</time></trkpt><trkpt lat="44.4223816" lon="8.1733918"><ele>379.0</ele><time>2026-04-26T09:11:08.365Z</time></trkpt><trkpt lat="44.4221606" lon="8.173339"><ele>379.0</ele><time>2026-04-26T09:11:09.376Z</time></trkpt><trkpt lat="44.421933" lon="8.1732789"><ele>379.0</ele><time>2026-04-26T09:11:10.371Z</time></trkpt><trkpt lat="44.4217164" lon="8.1732126"><ele>379.0</ele><time>2026-04-26T09:11:11.379Z</time></trkpt><trkpt lat="44.4214978" lon="8.1731457"><ele>379.0</ele><time>2026-04-26T09:11:12.375Z</time></trkpt><trkpt lat="44.421284" lon="8.1730862"><ele>379.0</ele><time>2026-04-26T09:11:13.383Z</time></trkpt><trkpt lat="44.4210904" lon="8.1730339"><ele>379.0</ele><time>2026-04-26T09:11:14.373Z</time></trkpt><trkpt lat="44.4209024" lon="8.17298"><ele>379.0</ele><time>2026-04-26T09:11:15.374Z</time></trkpt><trkpt lat="44.4207251" lon="8.1729268"><ele>379.0</ele><time>2026-04-26T09:11:16.406Z</time></trkpt><trkpt lat="44.4205481" lon="8.1728295"><ele>379.0</ele><time>2026-04-26T09:11:17.372Z</time></trkpt><trkpt lat="44.4203942" lon="8.1726747"><ele>379.0</ele><time>2026-04-26T09:11:18.379Z</time></trkpt><trkpt lat="44.4202453" lon="8.1724954"><ele>378.3333333333333</ele><time>2026-04-26T09:11:19.383Z</time></trkpt><trkpt lat="44.4201037" lon="8.1723027"><ele>377.6666666666667</ele><time>2026-04-26T09:11:20.365Z</time></trkpt><trkpt lat="44.4199434" lon="8.1721292"><ele>377.0</ele><time>2026-04-26T09:11:21.369Z</time></trkpt><trkpt lat="44.4197806" lon="8.1719555"><ele>381.0</ele><time>2026-04-26T09:11:22.366Z</time></trkpt><trkpt lat="44.4195896" lon="8.1718029"><ele>385.0</ele><time>2026-04-26T09:11:23.371Z</time></trkpt><trkpt lat="44.4193894" lon="8.1716792"><ele>389.0</ele><time>2026-04-26T09:11:24.366Z</time></trkpt><trkpt lat="44.4191718" lon="8.171587"><ele>384.5</ele><time>2026-04-26T09:11:25.375Z</time></trkpt><trkpt lat="44.4189443" lon="8.1714969"><ele>380.0</ele><time>2026-04-26T09:11:26.372Z</time></trkpt><trkpt lat="44.4187095" lon="8.1714001"><ele>380.0</ele><time>2026-04-26T09:11:27.362Z</time></trkpt><trkpt lat="44.4184845" lon="8.1713162"><ele>380.0</ele><time>2026-04-26T09:11:28.372Z</time></trkpt><trkpt lat="44.4182721" lon="8.171243"><ele>380.0</ele><time>2026-04-26T09:11:29.375Z</time></trkpt><trkpt lat="44.4180867" lon="8.1711739"><ele>380.0</ele><time>2026-04-26T09:11:30.366Z</time></trkpt><trkpt lat="44.4179085" lon="8.1711521"><ele>380.0</ele><time>2026-04-26T09:11:31.368Z</time></trkpt><trkpt lat="44.417712" lon="8.1712035"><ele>381.0</ele><time>2026-04-26T09:11:32.366Z</time></trkpt><trkpt lat="44.4175048" lon="8.1712577"><ele>382.0</ele><time>2026-04-26T09:11:33.369Z</time></trkpt><trkpt lat="44.4172867" lon="8.1713179"><ele>383.0</ele><time>2026-04-26T09:11:34.368Z</time></trkpt><trkpt lat="44.4170476" lon="8.1713276"><ele>384.0</ele><time>2026-04-26T09:11:35.369Z</time></trkpt><trkpt lat="44.4168321" lon="8.171283"><ele>385.0</ele><time>2026-04-26T09:11:36.387Z</time></trkpt><trkpt lat="44.4166432" lon="8.1711679"><ele>386.0</ele><time>2026-04-26T09:11:37.373Z</time></trkpt><trkpt lat="44.4164653" lon="8.171017"><ele>386.66666666666663</ele><time>2026-04-26T09:11:38.371Z</time></trkpt><trkpt lat="44.4162872" lon="8.1708736"><ele>387.33333333333337</ele><time>2026-04-26T09:11:39.375Z</time></trkpt><trkpt lat="44.4161155" lon="8.1707354"><ele>388.0</ele><time>2026-04-26T09:11:40.367Z</time></trkpt><trkpt lat="44.4159687" lon="8.1706147"><ele>388.0</ele><time>2026-04-26T09:11:41.383Z</time></trkpt><trkpt lat="44.4158397" lon="8.1705013"><ele>388.0</ele><time>2026-04-26T09:11:42.376Z</time></trkpt><trkpt lat="44.4157282" lon="8.1703896"><ele>388.0</ele><time>2026-04-26T09:11:43.381Z</time></trkpt><trkpt lat="44.4156168" lon="8.1703059"><ele>388.0</ele><time>2026-04-26T09:11:44.385Z</time></trkpt><trkpt lat="44.4155315" lon="8.1702584"><ele>390.0</ele><time>2026-04-26T09:11:45.377Z</time></trkpt><trkpt lat="44.4154485" lon="8.1702607"><ele>392.0</ele><time>2026-04-26T09:11:46.368Z</time></trkpt><trkpt lat="44.4153443" lon="8.1702923"><ele>394.0</ele><time>2026-04-26T09:11:47.375Z</time></trkpt><trkpt lat="44.4152199" lon="8.1703785"><ele>396.0</ele><time>2026-04-26T09:11:48.391Z</time></trkpt><trkpt lat="44.415058" lon="8.1704519"><ele>396.0</ele><time>2026-04-26T09:11:49.37Z</time></trkpt><trkpt lat="44.4149064" lon="8.1705303"><ele>396.0</ele><time>2026-04-26T09:11:50.37Z</time></trkpt><trkpt lat="44.4147561" lon="8.1706046"><ele>396.0</ele><time>2026-04-26T09:11:51.371Z</time></trkpt><trkpt lat="44.4146313" lon="8.1706758"><ele>396.1666666666667</ele><time>2026-04-26T09:11:52.367Z</time></trkpt><trkpt lat="44.4145274" lon="8.1707213"><ele>396.33333333333337</ele><time>2026-04-26T09:11:53.38Z</time></trkpt><trkpt lat="44.4144563" lon="8.1707285"><ele>396.5</ele><time>2026-04-26T09:11:54.387Z</time></trkpt><trkpt lat="44.4144133" lon="8.1706462"><ele>396.6666666666667</ele><time>2026-04-26T09:11:55.372Z</time></trkpt><trkpt lat="44.4143955" lon="8.170539"><ele>396.83333333333337</ele><time>2026-04-26T09:11:56.38Z</time></trkpt><trkpt lat="44.4143795" lon="8.1704023"><ele>397.0</ele><time>2026-04-26T09:11:57.368Z</time></trkpt><trkpt lat="44.4143498" lon="8.1702264"><ele>396.33333333333337</ele><time>2026-04-26T09:11:58.366Z</time></trkpt><trkpt lat="44.4143273" lon="8.1700231"><ele>395.66666666666663</ele><time>2026-04-26T09:11:59.373Z</time></trkpt><trkpt lat="44.4143099" lon="8.1698145"><ele>395.0</ele><time>2026-04-26T09:12:00.385Z</time></trkpt><trkpt lat="44.4142774" lon="8.1695958"><ele>394.0</ele><time>2026-04-26T09:12:01.364Z</time></trkpt><trkpt lat="44.4142421" lon="8.1693461"><ele>393.0</ele><time>2026-04-26T09:12:02.389Z</time></trkpt><trkpt lat="44.4142101" lon="8.1690749"><ele>392.0</ele><time>2026-04-26T09:12:03.367Z</time></trkpt><trkpt lat="44.4141757" lon="8.1688176"><ele>391.0</ele><time>2026-04-26T09:12:04.374Z</time></trkpt><trkpt lat="44.4141408" lon="8.168561"><ele>390.0</ele><time>2026-04-26T09:12:05.368Z</time></trkpt><trkpt lat="44.4141101" lon="8.1683117"><ele>389.0</ele><time>2026-04-26T09:12:06.369Z</time></trkpt><trkpt lat="44.4140851" lon="8.1680692"><ele>389.0</ele><time>2026-04-26T09:12:07.374Z</time></trkpt><trkpt lat="44.4140507" lon="8.1678387"><ele>389.0</ele><time>2026-04-26T09:12:08.365Z</time></trkpt><trkpt lat="44.4140199" lon="8.1676181"><ele>389.0</ele><time>2026-04-26T09:12:09.379Z</time></trkpt><trkpt lat="44.4139987" lon="8.1674255"><ele>388.2</ele><time>2026-04-26T09:12:10.371Z</time></trkpt><trkpt lat="44.4139927" lon="8.1672515"><ele>387.4</ele><time>2026-04-26T09:12:11.377Z</time></trkpt><trkpt lat="44.414001" lon="8.1671114"><ele>386.6</ele><time>2026-04-26T09:12:12.379Z</time></trkpt><trkpt lat="44.414018" lon="8.1669861"><ele>385.8</ele><time>2026-04-26T09:12:13.374Z</time></trkpt><trkpt lat="44.414031" lon="8.1668683"><ele>385.0</ele><time>2026-04-26T09:12:14.372Z</time></trkpt><trkpt lat="44.4140039" lon="8.1667784"><ele>385.0</ele><time>2026-04-26T09:12:15.377Z</time></trkpt><trkpt lat="44.4139358" lon="8.1667065"><ele>385.0</ele><time>2026-04-26T09:12:16.379Z</time></trkpt><trkpt lat="44.4138533" lon="8.1666131"><ele>385.0</ele><time>2026-04-26T09:12:17.374Z</time></trkpt><trkpt lat="44.4137274" lon="8.1664974"><ele>385.0</ele><time>2026-04-26T09:12:18.371Z</time></trkpt><trkpt lat="44.4135939" lon="8.1663727"><ele>385.0</ele><time>2026-04-26T09:12:19.374Z</time></trkpt><trkpt lat="44.4134514" lon="8.1662397"><ele>385.0</ele><time>2026-04-26T09:12:20.374Z</time></trkpt><trkpt lat="44.413306" lon="8.1661185"><ele>385.0</ele><time>2026-04-26T09:12:21.38Z</time></trkpt><trkpt lat="44.4131495" lon="8.1660372"><ele>385.0</ele><time>2026-04-26T09:12:22.385Z</time></trkpt><trkpt lat="44.412991" lon="8.1659962"><ele>385.0</ele><time>2026-04-26T09:12:23.37Z</time></trkpt><trkpt lat="44.4128323" lon="8.166006"><ele>385.0</ele><time>2026-04-26T09:12:24.379Z</time></trkpt><trkpt lat="44.4126792" lon="8.1660518"><ele>385.25</ele><time>2026-04-26T09:12:25.365Z</time></trkpt><trkpt lat="44.412545" lon="8.1660952"><ele>385.5</ele><time>2026-04-26T09:12:26.371Z</time></trkpt><trkpt lat="44.4124193" lon="8.1661301"><ele>385.75</ele><time>2026-04-26T09:12:27.367Z</time></trkpt><trkpt lat="44.412293" lon="8.1661678"><ele>386.0</ele><time>2026-04-26T09:12:28.367Z</time></trkpt><trkpt lat="44.4121662" lon="8.166206"><ele>385.3333333333333</ele><time>2026-04-26T09:12:29.369Z</time></trkpt><trkpt lat="44.4120338" lon="8.1662499"><ele>384.66666666666663</ele><time>2026-04-26T09:12:30.368Z</time></trkpt><trkpt lat="44.4118881" lon="8.1662878"><ele>384.0</ele><time>2026-04-26T09:12:31.377Z</time></trkpt><trkpt lat="44.411722" lon="8.1663258"><ele>384.0</ele><time>2026-04-26T09:12:32.366Z</time></trkpt><trkpt lat="44.4115422" lon="8.1663631"><ele>384.0</ele><time>2026-04-26T09:12:33.369Z</time></trkpt><trkpt lat="44.4113566" lon="8.1664033"><ele>384.0</ele><time>2026-04-26T09:12:34.37Z</time></trkpt><trkpt lat="44.4111672" lon="8.1664463"><ele>384.0</ele><time>2026-04-26T09:12:35.379Z</time></trkpt><trkpt lat="44.4109771" lon="8.1664841"><ele>384.0</ele><time>2026-04-26T09:12:36.363Z</time></trkpt><trkpt lat="44.4107923" lon="8.1665214"><ele>384.0</ele><time>2026-04-26T09:12:37.375Z</time></trkpt><trkpt lat="44.4106202" lon="8.1665612"><ele>385.0</ele><time>2026-04-26T09:12:38.372Z</time></trkpt><trkpt lat="44.4104583" lon="8.1666094"><ele>386.0</ele><time>2026-04-26T09:12:39.37Z</time></trkpt><trkpt lat="44.4103053" lon="8.1666946"><ele>387.0</ele><time>2026-04-26T09:12:40.369Z</time></trkpt><trkpt lat="44.4101632" lon="8.1668235"><ele>387.0</ele><time>2026-04-26T09:12:41.369Z</time></trkpt><trkpt lat="44.4100231" lon="8.1669876"><ele>387.0</ele><time>2026-04-26T09:12:42.371Z</time></trkpt><trkpt lat="44.4098975" lon="8.1671747"><ele>387.0</ele><time>2026-04-26T09:12:43.378Z</time></trkpt><trkpt lat="44.409793" lon="8.1674062"><ele>387.33333333333337</ele><time>2026-04-26T09:12:44.374Z</time></trkpt><trkpt lat="44.4096873" lon="8.1676481"><ele>387.6666666666667</ele><time>2026-04-26T09:12:45.379Z</time></trkpt><trkpt lat="44.4095719" lon="8.1679002"><ele>388.0</ele><time>2026-04-26T09:12:46.373Z</time></trkpt><trkpt lat="44.4094547" lon="8.1681553"><ele>387.33333333333337</ele><time>2026-04-26T09:12:47.367Z</time></trkpt><trkpt lat="44.4093425" lon="8.1683989"><ele>386.66666666666663</ele><time>2026-04-26T09:12:48.36Z</time></trkpt><trkpt lat="44.4092375" lon="8.1686495"><ele>386.0</ele><time>2026-04-26T09:12:49.377Z</time></trkpt><trkpt lat="44.4091329" lon="8.1688909"><ele>387.3333333333333</ele><time>2026-04-26T09:12:50.363Z</time></trkpt><trkpt lat="44.409038" lon="8.1691087"><ele>388.66666666666663</ele><time>2026-04-26T09:12:51.379Z</time></trkpt><trkpt lat="44.4089614" lon="8.1693062"><ele>390.0</ele><time>2026-04-26T09:12:52.376Z</time></trkpt><trkpt lat="44.4088956" lon="8.1694834"><ele>390.0</ele><time>2026-04-26T09:12:53.384Z</time></trkpt><trkpt lat="44.4088407" lon="8.1696469"><ele>390.0</ele><time>2026-04-26T09:12:54.384Z</time></trkpt><trkpt lat="44.4087916" lon="8.1698285"><ele>390.0</ele><time>2026-04-26T09:12:55.374Z</time></trkpt><trkpt lat="44.4087557" lon="8.170006"><ele>390.0</ele><time>2026-04-26T09:12:56.385Z</time></trkpt><trkpt lat="44.4087258" lon="8.1701738"><ele>387.6666666666667</ele><time>2026-04-26T09:12:57.378Z</time></trkpt><trkpt lat="44.4087046" lon="8.1703563"><ele>385.33333333333337</ele><time>2026-04-26T09:12:58.371Z</time></trkpt><trkpt lat="44.408713" lon="8.1705651"><ele>383.0</ele><time>2026-04-26T09:12:59.37Z</time></trkpt><trkpt lat="44.4087403" lon="8.1708101"><ele>383.0</ele><time>2026-04-26T09:13:00.378Z</time></trkpt><trkpt lat="44.4087817" lon="8.17107"><ele>383.0</ele><time>2026-04-26T09:13:01.374Z</time></trkpt><trkpt lat="44.408816" lon="8.1713482"><ele>383.0</ele><time>2026-04-26T09:13:02.38Z</time></trkpt><trkpt lat="44.4088401" lon="8.1716373"><ele>387.6666666666667</ele><time>2026-04-26T09:13:03.371Z</time></trkpt><trkpt lat="44.4088556" lon="8.1719487"><ele>392.33333333333337</ele><time>2026-04-26T09:13:04.372Z</time></trkpt><trkpt lat="44.40886" lon="8.1722615"><ele>397.0</ele><time>2026-04-26T09:13:05.379Z</time></trkpt><trkpt lat="44.408851" lon="8.1725844"><ele>392.6666666666667</ele><time>2026-04-26T09:13:06.378Z</time></trkpt><trkpt lat="44.4088244" lon="8.1728871"><ele>388.33333333333337</ele><time>2026-04-26T09:13:07.387Z</time></trkpt><trkpt lat="44.4087868" lon="8.173167"><ele>384.0</ele><time>2026-04-26T09:13:08.369Z</time></trkpt><trkpt lat="44.4087513" lon="8.1734302"><ele>384.0</ele><time>2026-04-26T09:13:09.377Z</time></trkpt><trkpt lat="44.4087182" lon="8.1736768"><ele>384.0</ele><time>2026-04-26T09:13:10.367Z</time></trkpt><trkpt lat="44.4086886" lon="8.1739207"><ele>384.0</ele><time>2026-04-26T09:13:11.381Z</time></trkpt><trkpt lat="44.408663" lon="8.1741714"><ele>384.33333333333337</ele><time>2026-04-26T09:13:12.375Z</time></trkpt><trkpt lat="44.4086376" lon="8.1744449"><ele>384.6666666666667</ele><time>2026-04-26T09:13:13.371Z</time></trkpt><trkpt lat="44.4086137" lon="8.1747363"><ele>385.0</ele><time>2026-04-26T09:13:14.373Z</time></trkpt><trkpt lat="44.408592" lon="8.1750521"><ele>386.5</ele><time>2026-04-26T09:13:15.376Z</time></trkpt><trkpt lat="44.4085747" lon="8.1753828"><ele>388.0</ele><time>2026-04-26T09:13:16.384Z</time></trkpt><trkpt lat="44.4085466" lon="8.1757281"><ele>389.5</ele><time>2026-04-26T09:13:17.371Z</time></trkpt><trkpt lat="44.4085224" lon="8.1760548"><ele>391.0</ele><time>2026-04-26T09:13:18.371Z</time></trkpt><trkpt lat="44.4084983" lon="8.1763691"><ele>392.0</ele><time>2026-04-26T09:13:19.372Z</time></trkpt><trkpt lat="44.4084769" lon="8.1766864"><ele>393.0</ele><time>2026-04-26T09:13:20.366Z</time></trkpt><trkpt lat="44.4084558" lon="8.1770151"><ele>393.0</ele><time>2026-04-26T09:13:21.371Z</time></trkpt><trkpt lat="44.4084307" lon="8.1773303"><ele>393.0</ele><time>2026-04-26T09:13:22.373Z</time></trkpt><trkpt lat="44.4084124" lon="8.1776516"><ele>394.5</ele><time>2026-04-26T09:13:23.383Z</time></trkpt><trkpt lat="44.408396" lon="8.1779797"><ele>396.0</ele><time>2026-04-26T09:13:24.377Z</time></trkpt><trkpt lat="44.4083841" lon="8.1783048"><ele>396.0</ele><time>2026-04-26T09:13:25.376Z</time></trkpt><trkpt lat="44.4083632" lon="8.1786469"><ele>396.0</ele><time>2026-04-26T09:13:26.387Z</time></trkpt><trkpt lat="44.4083433" lon="8.1789882"><ele>397.0</ele><time>2026-04-26T09:13:27.379Z</time></trkpt><trkpt lat="44.4083245" lon="8.1793018"><ele>398.0</ele><time>2026-04-26T09:13:28.384Z</time></trkpt><trkpt lat="44.4082974" lon="8.1795925"><ele>399.0</ele><time>2026-04-26T09:13:29.372Z</time></trkpt><trkpt lat="44.4082715" lon="8.1798586"><ele>400.0</ele><time>2026-04-26T09:13:30.372Z</time></trkpt><trkpt lat="44.4082567" lon="8.1801112"><ele>401.0</ele><time>2026-04-26T09:13:31.38Z</time></trkpt><trkpt lat="44.408237" lon="8.1803524"><ele>402.0</ele><time>2026-04-26T09:13:32.369Z</time></trkpt><trkpt lat="44.4082199" lon="8.1805922"><ele>403.0</ele><time>2026-04-26T09:13:33.373Z</time></trkpt><trkpt lat="44.4082005" lon="8.1808"><ele>404.0</ele><time>2026-04-26T09:13:34.371Z</time></trkpt><trkpt lat="44.408172" lon="8.1809891"><ele>405.0</ele><time>2026-04-26T09:13:35.379Z</time></trkpt><trkpt lat="44.4081402" lon="8.1811719"><ele>406.0</ele><time>2026-04-26T09:13:36.372Z</time></trkpt><trkpt lat="44.4080961" lon="8.1813724"><ele>403.6666666666667</ele><time>2026-04-26T09:13:37.365Z</time></trkpt><trkpt lat="44.4080339" lon="8.1815743"><ele>401.33333333333337</ele><time>2026-04-26T09:13:38.372Z</time></trkpt><trkpt lat="44.4079498" lon="8.181781"><ele>399.0</ele><time>2026-04-26T09:13:39.383Z</time></trkpt><trkpt lat="44.4078536" lon="8.1819861"><ele>398.0</ele><time>2026-04-26T09:13:40.37Z</time></trkpt><trkpt lat="44.4077475" lon="8.1821847"><ele>397.0</ele><time>2026-04-26T09:13:41.372Z</time></trkpt><trkpt lat="44.4076326" lon="8.1823824"><ele>396.0</ele><time>2026-04-26T09:13:42.359Z</time></trkpt><trkpt lat="44.4075116" lon="8.1825944"><ele>396.0</ele><time>2026-04-26T09:13:43.362Z</time></trkpt><trkpt lat="44.4073663" lon="8.182825"><ele>396.0</ele><time>2026-04-26T09:13:44.362Z</time></trkpt><trkpt lat="44.4071884" lon="8.1831061"><ele>391.5</ele><time>2026-04-26T09:13:45.356Z</time></trkpt><trkpt lat="44.4069921" lon="8.1834026"><ele>387.0</ele><time>2026-04-26T09:13:46.369Z</time></trkpt><trkpt lat="44.4067867" lon="8.1837104"><ele>387.0</ele><time>2026-04-26T09:13:47.377Z</time></trkpt><trkpt lat="44.4065912" lon="8.1839973"><ele>387.0</ele><time>2026-04-26T09:13:48.377Z</time></trkpt><trkpt lat="44.4064198" lon="8.1842706"><ele>386.5</ele><time>2026-04-26T09:13:49.363Z</time></trkpt><trkpt lat="44.4062536" lon="8.1845144"><ele>386.0</ele><time>2026-04-26T09:13:50.378Z</time></trkpt><trkpt lat="44.4060839" lon="8.1847622"><ele>391.0</ele><time>2026-04-26T09:13:51.361Z</time></trkpt><trkpt lat="44.4059086" lon="8.1849997"><ele>396.0</ele><time>2026-04-26T09:13:52.361Z</time></trkpt><trkpt lat="44.4057293" lon="8.1852309"><ele>396.0</ele><time>2026-04-26T09:13:53.365Z</time></trkpt><trkpt lat="44.405553" lon="8.1854615"><ele>396.0</ele><time>2026-04-26T09:13:54.371Z</time></trkpt><trkpt lat="44.4053665" lon="8.1856899"><ele>396.0</ele><time>2026-04-26T09:13:55.374Z</time></trkpt><trkpt lat="44.4051736" lon="8.1859021"><ele>396.0</ele><time>2026-04-26T09:13:56.368Z</time></trkpt><trkpt lat="44.4049657" lon="8.1861108"><ele>396.0</ele><time>2026-04-26T09:13:57.364Z</time></trkpt><trkpt lat="44.4047555" lon="8.1863136"><ele>396.0</ele><time>2026-04-26T09:13:58.379Z</time></trkpt><trkpt lat="44.4045425" lon="8.1865155"><ele>396.0</ele><time>2026-04-26T09:13:59.378Z</time></trkpt><trkpt lat="44.4043216" lon="8.1867093"><ele>396.0</ele><time>2026-04-26T09:14:00.362Z</time></trkpt><trkpt lat="44.4041008" lon="8.1869047"><ele>396.0</ele><time>2026-04-26T09:14:01.369Z</time></trkpt><trkpt lat="44.40388" lon="8.1870928"><ele>396.0</ele><time>2026-04-26T09:14:02.363Z</time></trkpt><trkpt lat="44.4036604" lon="8.1872509"><ele>400.0</ele><time>2026-04-26T09:14:03.362Z</time></trkpt><trkpt lat="44.4034545" lon="8.1873908"><ele>404.0</ele><time>2026-04-26T09:14:04.36Z</time></trkpt><trkpt lat="44.4032511" lon="8.1875225"><ele>404.0</ele><time>2026-04-26T09:14:05.367Z</time></trkpt><trkpt lat="44.4030618" lon="8.187664"><ele>404.0</ele><time>2026-04-26T09:14:06.372Z</time></trkpt><trkpt lat="44.4028834" lon="8.1877848"><ele>404.0</ele><time>2026-04-26T09:14:07.376Z</time></trkpt><trkpt lat="44.4026974" lon="8.1878937"><ele>399.66666666666663</ele><time>2026-04-26T09:14:08.358Z</time></trkpt><trkpt lat="44.4024944" lon="8.1879605"><ele>395.33333333333337</ele><time>2026-04-26T09:14:09.359Z</time></trkpt><trkpt lat="44.4022855" lon="8.1879878"><ele>391.0</ele><time>2026-04-26T09:14:10.369Z</time></trkpt><trkpt lat="44.4020574" lon="8.1879863"><ele>390.0</ele><time>2026-04-26T09:14:11.363Z</time></trkpt><trkpt lat="44.4018312" lon="8.1879531"><ele>389.0</ele><time>2026-04-26T09:14:12.364Z</time></trkpt><trkpt lat="44.4016031" lon="8.1878905"><ele>389.0</ele><time>2026-04-26T09:14:13.365Z</time></trkpt><trkpt lat="44.4013763" lon="8.1878086"><ele>389.0</ele><time>2026-04-26T09:14:14.368Z</time></trkpt><trkpt lat="44.4011478" lon="8.1877071"><ele>397.0</ele><time>2026-04-26T09:14:15.364Z</time></trkpt><trkpt lat="44.4009146" lon="8.187596"><ele>405.0</ele><time>2026-04-26T09:14:16.381Z</time></trkpt><trkpt lat="44.4006751" lon="8.1874823"><ele>401.0</ele><time>2026-04-26T09:14:17.365Z</time></trkpt><trkpt lat="44.4004372" lon="8.1873695"><ele>397.0</ele><time>2026-04-26T09:14:18.373Z</time></trkpt><trkpt lat="44.4001994" lon="8.187271"><ele>397.0</ele><time>2026-04-26T09:14:19.367Z</time></trkpt><trkpt lat="44.3999686" lon="8.1871688"><ele>397.0</ele><time>2026-04-26T09:14:20.364Z</time></trkpt><trkpt lat="44.3997403" lon="8.1870454"><ele>411.5</ele><time>2026-04-26T09:14:21.374Z</time></trkpt><trkpt lat="44.3995283" lon="8.186895"><ele>426.0</ele><time>2026-04-26T09:14:22.371Z</time></trkpt><trkpt lat="44.3993534" lon="8.1866746"><ele>412.0</ele><time>2026-04-26T09:14:23.364Z</time></trkpt><trkpt lat="44.3991834" lon="8.1864376"><ele>398.0</ele><time>2026-04-26T09:14:24.367Z</time></trkpt><trkpt lat="44.3990042" lon="8.1862002"><ele>413.5</ele><time>2026-04-26T09:14:25.366Z</time></trkpt><trkpt lat="44.3988178" lon="8.1859726"><ele>429.0</ele><time>2026-04-26T09:14:26.369Z</time></trkpt><trkpt lat="44.3986377" lon="8.1857458"><ele>418.5</ele><time>2026-04-26T09:14:27.363Z</time></trkpt><trkpt lat="44.3984638" lon="8.1855221"><ele>408.0</ele><time>2026-04-26T09:14:28.369Z</time></trkpt><trkpt lat="44.3982962" lon="8.1852884"><ele>408.0</ele><time>2026-04-26T09:14:29.377Z</time></trkpt><trkpt lat="44.3981415" lon="8.1850598"><ele>408.0</ele><time>2026-04-26T09:14:30.362Z</time></trkpt><trkpt lat="44.3979998" lon="8.1847797"><ele>415.5</ele><time>2026-04-26T09:14:31.366Z</time></trkpt><trkpt lat="44.3978704" lon="8.1844825"><ele>423.0</ele><time>2026-04-26T09:14:32.387Z</time></trkpt><trkpt lat="44.3977491" lon="8.1841806"><ele>419.5</ele><time>2026-04-26T09:14:33.377Z</time></trkpt><trkpt lat="44.3976491" lon="8.1838603"><ele>416.0</ele><time>2026-04-26T09:14:34.374Z</time></trkpt><trkpt lat="44.3975632" lon="8.1835667"><ele>416.0</ele><time>2026-04-26T09:14:35.367Z</time></trkpt><trkpt lat="44.3974737" lon="8.1832894"><ele>416.0</ele><time>2026-04-26T09:14:36.378Z</time></trkpt><trkpt lat="44.3973687" lon="8.1830114"><ele>416.0</ele><time>2026-04-26T09:14:37.368Z</time></trkpt><trkpt lat="44.3972367" lon="8.182762"><ele>414.66666666666663</ele><time>2026-04-26T09:14:38.387Z</time></trkpt><trkpt lat="44.397092" lon="8.1825316"><ele>413.33333333333337</ele><time>2026-04-26T09:14:39.377Z</time></trkpt><trkpt lat="44.3969234" lon="8.1823372"><ele>412.0</ele><time>2026-04-26T09:14:40.379Z</time></trkpt><trkpt lat="44.3967378" lon="8.1821967"><ele>412.0</ele><time>2026-04-26T09:14:41.38Z</time></trkpt><trkpt lat="44.39656" lon="8.1821106"><ele>412.0</ele><time>2026-04-26T09:14:42.379Z</time></trkpt><trkpt lat="44.3963889" lon="8.1820758"><ele>412.0</ele><time>2026-04-26T09:14:43.363Z</time></trkpt><trkpt lat="44.3962083" lon="8.1820861"><ele>413.0</ele><time>2026-04-26T09:14:44.367Z</time></trkpt><trkpt lat="44.3960236" lon="8.1821219"><ele>414.0</ele><time>2026-04-26T09:14:45.367Z</time></trkpt><trkpt lat="44.3958308" lon="8.182169"><ele>415.0</ele><time>2026-04-26T09:14:46.368Z</time></trkpt><trkpt lat="44.3956352" lon="8.1822124"><ele>411.33333333333337</ele><time>2026-04-26T09:14:47.374Z</time></trkpt><trkpt lat="44.3954486" lon="8.1822679"><ele>407.66666666666663</ele><time>2026-04-26T09:14:48.37Z</time></trkpt><trkpt lat="44.3952534" lon="8.1823252"><ele>404.0</ele><time>2026-04-26T09:14:49.375Z</time></trkpt><trkpt lat="44.395052" lon="8.1823709"><ele>405.66666666666663</ele><time>2026-04-26T09:14:50.362Z</time></trkpt><trkpt lat="44.3948509" lon="8.1824544"><ele>407.33333333333337</ele><time>2026-04-26T09:14:51.382Z</time></trkpt><trkpt lat="44.3946495" lon="8.1825655"><ele>409.0</ele><time>2026-04-26T09:14:52.367Z</time></trkpt><trkpt lat="44.3944491" lon="8.1826999"><ele>409.0</ele><time>2026-04-26T09:14:53.363Z</time></trkpt><trkpt lat="44.3942395" lon="8.1828365"><ele>409.0</ele><time>2026-04-26T09:14:54.373Z</time></trkpt><trkpt lat="44.3940181" lon="8.1829566"><ele>408.5</ele><time>2026-04-26T09:14:55.368Z</time></trkpt><trkpt lat="44.3937964" lon="8.1830714"><ele>408.0</ele><time>2026-04-26T09:14:56.363Z</time></trkpt><trkpt lat="44.3935649" lon="8.1831439"><ele>407.66666666666663</ele><time>2026-04-26T09:14:57.364Z</time></trkpt><trkpt lat="44.393338" lon="8.1831853"><ele>407.3333333333333</ele><time>2026-04-26T09:14:58.377Z</time></trkpt><trkpt lat="44.3931267" lon="8.1831954"><ele>407.0</ele><time>2026-04-26T09:14:59.376Z</time></trkpt><trkpt lat="44.3929208" lon="8.1831735"><ele>407.0</ele><time>2026-04-26T09:15:00.359Z</time></trkpt><trkpt lat="44.39272" lon="8.183145"><ele>407.0</ele><time>2026-04-26T09:15:01.362Z</time></trkpt><trkpt lat="44.3925203" lon="8.1831335"><ele>407.0</ele><time>2026-04-26T09:15:02.37Z</time></trkpt><trkpt lat="44.3923288" lon="8.1831671"><ele>408.3333333333333</ele><time>2026-04-26T09:15:03.373Z</time></trkpt><trkpt lat="44.3921486" lon="8.1832577"><ele>409.66666666666663</ele><time>2026-04-26T09:15:04.396Z</time></trkpt><trkpt lat="44.3919726" lon="8.1834341"><ele>411.0</ele><time>2026-04-26T09:15:05.38Z</time></trkpt><trkpt lat="44.3918097" lon="8.1836504"><ele>411.0</ele><time>2026-04-26T09:15:06.366Z</time></trkpt><trkpt lat="44.3916595" lon="8.1838466"><ele>411.0</ele><time>2026-04-26T09:15:07.364Z</time></trkpt><trkpt lat="44.3915213" lon="8.1840436"><ele>411.0</ele><time>2026-04-26T09:15:08.38Z</time></trkpt><trkpt lat="44.3913907" lon="8.1842419"><ele>411.0</ele><time>2026-04-26T09:15:09.365Z</time></trkpt><trkpt lat="44.3912716" lon="8.1844185"><ele>411.0</ele><time>2026-04-26T09:15:10.374Z</time></trkpt><trkpt lat="44.3911578" lon="8.1845859"><ele>411.0</ele><time>2026-04-26T09:15:11.363Z</time></trkpt><trkpt lat="44.3910437" lon="8.1847506"><ele>412.25</ele><time>2026-04-26T09:15:12.367Z</time></trkpt><trkpt lat="44.3909419" lon="8.1849006"><ele>413.5</ele><time>2026-04-26T09:15:13.384Z</time></trkpt><trkpt lat="44.3908503" lon="8.1850667"><ele>414.75</ele><time>2026-04-26T09:15:14.361Z</time></trkpt><trkpt lat="44.390781" lon="8.1852349"><ele>416.0</ele><time>2026-04-26T09:15:15.387Z</time></trkpt><trkpt lat="44.3907214" lon="8.185406"><ele>416.0</ele><time>2026-04-26T09:15:16.381Z</time></trkpt><trkpt lat="44.3906846" lon="8.1855794"><ele>416.0</ele><time>2026-04-26T09:15:17.376Z</time></trkpt><trkpt lat="44.3906571" lon="8.185749"><ele>416.0</ele><time>2026-04-26T09:15:18.388Z</time></trkpt><trkpt lat="44.3906456" lon="8.1859226"><ele>416.0</ele><time>2026-04-26T09:15:19.381Z</time></trkpt><trkpt lat="44.3906353" lon="8.1861006"><ele>417.75</ele><time>2026-04-26T09:15:20.379Z</time></trkpt><trkpt lat="44.3906222" lon="8.1862776"><ele>419.5</ele><time>2026-04-26T09:15:21.379Z</time></trkpt><trkpt lat="44.3906074" lon="8.1864576"><ele>421.25</ele><time>2026-04-26T09:15:22.382Z</time></trkpt><trkpt lat="44.3905916" lon="8.1866436"><ele>423.0</ele><time>2026-04-26T09:15:23.372Z</time></trkpt><trkpt lat="44.3905783" lon="8.1868296"><ele>423.0</ele><time>2026-04-26T09:15:24.374Z</time></trkpt><trkpt lat="44.3905635" lon="8.1870104"><ele>423.0</ele><time>2026-04-26T09:15:25.391Z</time></trkpt><trkpt lat="44.3905439" lon="8.187188"><ele>423.0</ele><time>2026-04-26T09:15:26.376Z</time></trkpt><trkpt lat="44.3905279" lon="8.1873676"><ele>423.0</ele><time>2026-04-26T09:15:27.384Z</time></trkpt><trkpt lat="44.3905155" lon="8.1875544"><ele>419.75</ele><time>2026-04-26T09:15:28.374Z</time></trkpt><trkpt lat="44.3905066" lon="8.1877474"><ele>416.5</ele><time>2026-04-26T09:15:29.373Z</time></trkpt><trkpt lat="44.3904955" lon="8.1879412"><ele>413.25</ele><time>2026-04-26T09:15:30.375Z</time></trkpt><trkpt lat="44.3904779" lon="8.1881174"><ele>410.0</ele><time>2026-04-26T09:15:31.373Z</time></trkpt><trkpt lat="44.3904624" lon="8.1882888"><ele>410.0</ele><time>2026-04-26T09:15:32.369Z</time></trkpt><trkpt lat="44.3904374" lon="8.1884446"><ele>410.0</ele><time>2026-04-26T09:15:33.367Z</time></trkpt><trkpt lat="44.3904068" lon="8.1885965"><ele>410.0</ele><time>2026-04-26T09:15:34.378Z</time></trkpt><trkpt lat="44.390363" lon="8.1887125"><ele>410.0</ele><time>2026-04-26T09:15:35.383Z</time></trkpt><trkpt lat="44.3903234" lon="8.1888101"><ele>410.0</ele><time>2026-04-26T09:15:36.375Z</time></trkpt><trkpt lat="44.3902763" lon="8.1889081"><ele>409.99999999999994</ele><time>2026-04-26T09:15:37.372Z</time></trkpt><trkpt lat="44.3902281" lon="8.1889948"><ele>410.0</ele><time>2026-04-26T09:15:38.374Z</time></trkpt><trkpt lat="44.3901821" lon="8.1890703"><ele>410.0</ele><time>2026-04-26T09:15:39.383Z</time></trkpt><trkpt lat="44.3901179" lon="8.1891593"><ele>410.0</ele><time>2026-04-26T09:15:41.38Z</time></trkpt><trkpt lat="44.3900514" lon="8.189247"><ele>409.99999999999994</ele><time>2026-04-26T09:15:43.374Z</time></trkpt><trkpt lat="44.390026" lon="8.1893694"><ele>410.0</ele><time>2026-04-26T09:15:45.376Z</time></trkpt><trkpt lat="44.3900352" lon="8.1894888"><ele>410.0</ele><time>2026-04-26T09:15:46.376Z</time></trkpt><trkpt lat="44.3900659" lon="8.1896619"><ele>410.0</ele><time>2026-04-26T09:15:47.374Z</time></trkpt><trkpt lat="44.3901095" lon="8.1898725"><ele>410.0</ele><time>2026-04-26T09:15:48.375Z</time></trkpt><trkpt lat="44.3901409" lon="8.1900792"><ele>410.0</ele><time>2026-04-26T09:15:49.361Z</time></trkpt><trkpt lat="44.390173" lon="8.1902743"><ele>410.0</ele><time>2026-04-26T09:15:50.376Z</time></trkpt><trkpt lat="44.3902105" lon="8.190453"><ele>410.0</ele><time>2026-04-26T09:15:51.368Z</time></trkpt><trkpt lat="44.3902489" lon="8.1906349"><ele>410.0</ele><time>2026-04-26T09:15:52.378Z</time></trkpt><trkpt lat="44.3902922" lon="8.1908167"><ele>410.0</ele><time>2026-04-26T09:15:53.382Z</time></trkpt><trkpt lat="44.3903514" lon="8.1909889"><ele>410.0</ele><time>2026-04-26T09:15:54.375Z</time></trkpt><trkpt lat="44.3904074" lon="8.1911649"><ele>410.0</ele><time>2026-04-26T09:15:55.371Z</time></trkpt><trkpt lat="44.3904634" lon="8.1913344"><ele>410.0</ele><time>2026-04-26T09:15:56.376Z</time></trkpt><trkpt lat="44.3905203" lon="8.1914978"><ele>410.0</ele><time>2026-04-26T09:15:57.379Z</time></trkpt><trkpt lat="44.3905585" lon="8.1916322"><ele>412.8</ele><time>2026-04-26T09:15:58.376Z</time></trkpt><trkpt lat="44.390591" lon="8.1917519"><ele>415.6</ele><time>2026-04-26T09:15:59.374Z</time></trkpt><trkpt lat="44.3905931" lon="8.1918605"><ele>418.4</ele><time>2026-04-26T09:16:00.376Z</time></trkpt><trkpt lat="44.3905817" lon="8.191991"><ele>421.2</ele><time>2026-04-26T09:16:01.371Z</time></trkpt><trkpt lat="44.3905897" lon="8.1921364"><ele>424.0</ele><time>2026-04-26T09:16:02.375Z</time></trkpt><trkpt lat="44.3906176" lon="8.1922924"><ele>421.0</ele><time>2026-04-26T09:16:03.372Z</time></trkpt><trkpt lat="44.3906782" lon="8.192447"><ele>418.0</ele><time>2026-04-26T09:16:04.376Z</time></trkpt><trkpt lat="44.3907446" lon="8.19261"><ele>415.0</ele><time>2026-04-26T09:16:05.363Z</time></trkpt><trkpt lat="44.3908311" lon="8.1927746"><ele>412.0</ele><time>2026-04-26T09:16:06.369Z</time></trkpt><trkpt lat="44.3909202" lon="8.1929313"><ele>412.0</ele><time>2026-04-26T09:16:07.373Z</time></trkpt><trkpt lat="44.3910067" lon="8.1931034"><ele>412.0</ele><time>2026-04-26T09:16:08.368Z</time></trkpt><trkpt lat="44.391086" lon="8.1932835"><ele>412.0</ele><time>2026-04-26T09:16:09.373Z</time></trkpt><trkpt lat="44.391157" lon="8.1934722"><ele>410.6666666666667</ele><time>2026-04-26T09:16:10.362Z</time></trkpt><trkpt lat="44.3912227" lon="8.193674"><ele>409.33333333333337</ele><time>2026-04-26T09:16:11.368Z</time></trkpt><trkpt lat="44.3913084" lon="8.1938698"><ele>408.0</ele><time>2026-04-26T09:16:12.369Z</time></trkpt><trkpt lat="44.3913699" lon="8.1940703"><ele>410.75</ele><time>2026-04-26T09:16:13.36Z</time></trkpt><trkpt lat="44.391436" lon="8.1942652"><ele>413.5</ele><time>2026-04-26T09:16:14.369Z</time></trkpt><trkpt lat="44.3914994" lon="8.1944507"><ele>416.25</ele><time>2026-04-26T09:16:15.365Z</time></trkpt><trkpt lat="44.3915579" lon="8.1946292"><ele>419.0</ele><time>2026-04-26T09:16:16.365Z</time></trkpt><trkpt lat="44.3916036" lon="8.1948084"><ele>417.3333333333333</ele><time>2026-04-26T09:16:17.37Z</time></trkpt><trkpt lat="44.3916397" lon="8.1950008"><ele>415.66666666666663</ele><time>2026-04-26T09:16:18.365Z</time></trkpt><trkpt lat="44.3916719" lon="8.1952196"><ele>414.0</ele><time>2026-04-26T09:16:19.36Z</time></trkpt><trkpt lat="44.3916879" lon="8.1954656"><ele>412.66666666666663</ele><time>2026-04-26T09:16:20.361Z</time></trkpt><trkpt lat="44.3916971" lon="8.1957261"><ele>411.3333333333333</ele><time>2026-04-26T09:16:21.368Z</time></trkpt><trkpt lat="44.3917057" lon="8.1959953"><ele>410.0</ele><time>2026-04-26T09:16:22.364Z</time></trkpt><trkpt lat="44.3917187" lon="8.196264"><ele>410.0</ele><time>2026-04-26T09:16:23.377Z</time></trkpt><trkpt lat="44.3917248" lon="8.196512"><ele>410.0</ele><time>2026-04-26T09:16:24.358Z</time></trkpt><trkpt lat="44.3917286" lon="8.196763"><ele>410.0</ele><time>2026-04-26T09:16:25.36Z</time></trkpt><trkpt lat="44.3917335" lon="8.1970061"><ele>410.0</ele><time>2026-04-26T09:16:26.367Z</time></trkpt><trkpt lat="44.3917419" lon="8.1972521"><ele>410.0</ele><time>2026-04-26T09:16:27.373Z</time></trkpt><trkpt lat="44.3917566" lon="8.1974983"><ele>410.0</ele><time>2026-04-26T09:16:28.37Z</time></trkpt><trkpt lat="44.3917808" lon="8.1977431"><ele>410.0</ele><time>2026-04-26T09:16:29.373Z</time></trkpt><trkpt lat="44.3918181" lon="8.1979824"><ele>410.0</ele><time>2026-04-26T09:16:30.366Z</time></trkpt><trkpt lat="44.3918672" lon="8.1982186"><ele>410.0</ele><time>2026-04-26T09:16:31.382Z</time></trkpt><trkpt lat="44.3919287" lon="8.198447"><ele>409.0</ele><time>2026-04-26T09:16:32.375Z</time></trkpt><trkpt lat="44.3919903" lon="8.1986722"><ele>408.0</ele><time>2026-04-26T09:16:33.366Z</time></trkpt><trkpt lat="44.392049" lon="8.1989215"><ele>407.0</ele><time>2026-04-26T09:16:34.367Z</time></trkpt><trkpt lat="44.3920982" lon="8.1991865"><ele>406.0</ele><time>2026-04-26T09:16:35.364Z</time></trkpt><trkpt lat="44.392137" lon="8.1994695"><ele>405.0</ele><time>2026-04-26T09:16:36.366Z</time></trkpt><trkpt lat="44.3921654" lon="8.1997575"><ele>404.0</ele><time>2026-04-26T09:16:37.372Z</time></trkpt><trkpt lat="44.392187" lon="8.2000542"><ele>415.0</ele><time>2026-04-26T09:16:38.371Z</time></trkpt><trkpt lat="44.392202" lon="8.2003736"><ele>426.0</ele><time>2026-04-26T09:16:39.369Z</time></trkpt><trkpt lat="44.3922041" lon="8.2006827"><ele>426.0</ele><time>2026-04-26T09:16:40.365Z</time></trkpt><trkpt lat="44.3921992" lon="8.2009833"><ele>426.0</ele><time>2026-04-26T09:16:41.374Z</time></trkpt><trkpt lat="44.3921939" lon="8.2012848"><ele>426.0</ele><time>2026-04-26T09:16:42.37Z</time></trkpt><trkpt lat="44.3921919" lon="8.2015861"><ele>427.66666666666663</ele><time>2026-04-26T09:16:43.359Z</time></trkpt><trkpt lat="44.3921955" lon="8.2018855"><ele>429.3333333333333</ele><time>2026-04-26T09:16:44.363Z</time></trkpt><trkpt lat="44.3921929" lon="8.2021745"><ele>431.0</ele><time>2026-04-26T09:16:45.364Z</time></trkpt><trkpt lat="44.3921848" lon="8.2024534"><ele>424.0</ele><time>2026-04-26T09:16:46.36Z</time></trkpt><trkpt lat="44.392164" lon="8.2027142"><ele>417.0</ele><time>2026-04-26T09:16:47.377Z</time></trkpt><trkpt lat="44.3921278" lon="8.202959"><ele>410.0</ele><time>2026-04-26T09:16:48.37Z</time></trkpt><trkpt lat="44.3920772" lon="8.2031847"><ele>410.0</ele><time>2026-04-26T09:16:49.379Z</time></trkpt><trkpt lat="44.392021" lon="8.2034048"><ele>410.0</ele><time>2026-04-26T09:16:50.369Z</time></trkpt><trkpt lat="44.3919678" lon="8.2036612"><ele>410.0</ele><time>2026-04-26T09:16:51.373Z</time></trkpt><trkpt lat="44.3919074" lon="8.203937"><ele>409.3333333333333</ele><time>2026-04-26T09:16:52.369Z</time></trkpt><trkpt lat="44.3918535" lon="8.2042077"><ele>408.66666666666663</ele><time>2026-04-26T09:16:53.378Z</time></trkpt><trkpt lat="44.391801" lon="8.2044707"><ele>408.0</ele><time>2026-04-26T09:16:54.371Z</time></trkpt><trkpt lat="44.3917439" lon="8.2047135"><ele>408.75</ele><time>2026-04-26T09:16:55.37Z</time></trkpt><trkpt lat="44.3916811" lon="8.2049364"><ele>409.5</ele><time>2026-04-26T09:16:56.374Z</time></trkpt><trkpt lat="44.3916136" lon="8.2051123"><ele>410.25</ele><time>2026-04-26T09:16:57.371Z</time></trkpt><trkpt lat="44.3915568" lon="8.2052575"><ele>411.0</ele><time>2026-04-26T09:16:58.383Z</time></trkpt><trkpt lat="44.3914845" lon="8.2053895"><ele>411.0</ele><time>2026-04-26T09:16:59.363Z</time></trkpt><trkpt lat="44.3913986" lon="8.2055154"><ele>411.0</ele><time>2026-04-26T09:17:00.38Z</time></trkpt><trkpt lat="44.3912973" lon="8.2056225"><ele>411.0</ele><time>2026-04-26T09:17:01.37Z</time></trkpt><trkpt lat="44.3911619" lon="8.2057369"><ele>411.0</ele><time>2026-04-26T09:17:02.363Z</time></trkpt><trkpt lat="44.3910139" lon="8.20587"><ele>411.0</ele><time>2026-04-26T09:17:03.378Z</time></trkpt><trkpt lat="44.3908658" lon="8.2060052"><ele>411.0</ele><time>2026-04-26T09:17:04.363Z</time></trkpt><trkpt lat="44.3907147" lon="8.2061375"><ele>411.0</ele><time>2026-04-26T09:17:05.367Z</time></trkpt><trkpt lat="44.3905747" lon="8.2062715"><ele>410.5</ele><time>2026-04-26T09:17:06.372Z</time></trkpt><trkpt lat="44.3904618" lon="8.2063585"><ele>410.0</ele><time>2026-04-26T09:17:07.377Z</time></trkpt><trkpt lat="44.3903349" lon="8.2064057"><ele>409.5</ele><time>2026-04-26T09:17:08.382Z</time></trkpt><trkpt lat="44.3901919" lon="8.2064413"><ele>409.0</ele><time>2026-04-26T09:17:09.371Z</time></trkpt><trkpt lat="44.3900505" lon="8.2064522"><ele>409.0</ele><time>2026-04-26T09:17:10.378Z</time></trkpt><trkpt lat="44.3899068" lon="8.2064636"><ele>409.0</ele><time>2026-04-26T09:17:11.368Z</time></trkpt><trkpt lat="44.3897643" lon="8.2064898"><ele>409.0</ele><time>2026-04-26T09:17:12.374Z</time></trkpt><trkpt lat="44.3896261" lon="8.206545"><ele>409.0</ele><time>2026-04-26T09:17:13.369Z</time></trkpt><trkpt lat="44.3894987" lon="8.2066564"><ele>409.5</ele><time>2026-04-26T09:17:14.368Z</time></trkpt><trkpt lat="44.3893884" lon="8.2067784"><ele>410.0</ele><time>2026-04-26T09:17:15.379Z</time></trkpt><trkpt lat="44.3892843" lon="8.2069019"><ele>410.5</ele><time>2026-04-26T09:17:16.365Z</time></trkpt><trkpt lat="44.389192" lon="8.2070096"><ele>411.0</ele><time>2026-04-26T09:17:17.371Z</time></trkpt><trkpt lat="44.3891028" lon="8.2070966"><ele>411.0</ele><time>2026-04-26T09:17:18.376Z</time></trkpt><trkpt lat="44.3890221" lon="8.2071781"><ele>411.0</ele><time>2026-04-26T09:17:19.379Z</time></trkpt><trkpt lat="44.3889454" lon="8.207259"><ele>411.0</ele><time>2026-04-26T09:17:20.373Z</time></trkpt><trkpt lat="44.3888785" lon="8.2073332"><ele>411.0</ele><time>2026-04-26T09:17:21.374Z</time></trkpt><trkpt lat="44.3888055" lon="8.2073968"><ele>411.0</ele><time>2026-04-26T09:17:22.378Z</time></trkpt><trkpt lat="44.3887303" lon="8.2074515"><ele>411.3333333333333</ele><time>2026-04-26T09:17:23.377Z</time></trkpt><trkpt lat="44.3886583" lon="8.2074992"><ele>411.66666666666663</ele><time>2026-04-26T09:17:24.376Z</time></trkpt><trkpt lat="44.3885819" lon="8.2075382"><ele>412.0</ele><time>2026-04-26T09:17:25.38Z</time></trkpt><trkpt lat="44.3885066" lon="8.2075934"><ele>412.3333333333333</ele><time>2026-04-26T09:17:26.367Z</time></trkpt><trkpt lat="44.3884413" lon="8.2076405"><ele>412.66666666666663</ele><time>2026-04-26T09:17:27.384Z</time></trkpt><trkpt lat="44.388373" lon="8.2076695"><ele>413.0</ele><time>2026-04-26T09:17:28.375Z</time></trkpt><trkpt lat="44.3883049" lon="8.2076977"><ele>412.99999999999994</ele><time>2026-04-26T09:17:29.372Z</time></trkpt><trkpt lat="44.3882492" lon="8.2077454"><ele>413.0</ele><time>2026-04-26T09:17:30.386Z</time></trkpt><trkpt lat="44.3881864" lon="8.2078009"><ele>413.0</ele><time>2026-04-26T09:17:31.395Z</time></trkpt><trkpt lat="44.3880752" lon="8.2078769"><ele>413.0</ele><time>2026-04-26T09:17:33.391Z</time></trkpt><trkpt lat="44.3880051" lon="8.2079074"><ele>412.99999999999994</ele><time>2026-04-26T09:17:34.378Z</time></trkpt><trkpt lat="44.3879008" lon="8.207956"><ele>413.0</ele><time>2026-04-26T09:17:36.366Z</time></trkpt><trkpt lat="44.3878351" lon="8.2079809"><ele>413.4</ele><time>2026-04-26T09:17:38.368Z</time></trkpt><trkpt lat="44.3877415" lon="8.2080123"><ele>413.79999999999995</ele><time>2026-04-26T09:17:40.377Z</time></trkpt><trkpt lat="44.3876777" lon="8.2080182"><ele>414.2</ele><time>2026-04-26T09:17:41.382Z</time></trkpt><trkpt lat="44.3875974" lon="8.2079946"><ele>414.6</ele><time>2026-04-26T09:17:42.377Z</time></trkpt><trkpt lat="44.3874926" lon="8.2079696"><ele>415.0</ele><time>2026-04-26T09:17:43.377Z</time></trkpt><trkpt lat="44.3873673" lon="8.2079246"><ele>415.0</ele><time>2026-04-26T09:17:44.368Z</time></trkpt><trkpt lat="44.3872359" lon="8.2078428"><ele>415.0</ele><time>2026-04-26T09:17:45.366Z</time></trkpt><trkpt lat="44.3870975" lon="8.2077476"><ele>415.0</ele><time>2026-04-26T09:17:46.369Z</time></trkpt><trkpt lat="44.3869527" lon="8.2076526"><ele>416.6666666666667</ele><time>2026-04-26T09:17:47.369Z</time></trkpt><trkpt lat="44.3867983" lon="8.2075598"><ele>418.33333333333337</ele><time>2026-04-26T09:17:48.386Z</time></trkpt><trkpt lat="44.3866349" lon="8.2074661"><ele>420.0</ele><time>2026-04-26T09:17:49.372Z</time></trkpt><trkpt lat="44.3864676" lon="8.2073743"><ele>418.33333333333337</ele><time>2026-04-26T09:17:50.367Z</time></trkpt><trkpt lat="44.3862944" lon="8.2072707"><ele>416.6666666666667</ele><time>2026-04-26T09:17:51.363Z</time></trkpt><trkpt lat="44.386126" lon="8.20716"><ele>415.0</ele><time>2026-04-26T09:17:52.369Z</time></trkpt><trkpt lat="44.3859647" lon="8.2070648"><ele>415.0</ele><time>2026-04-26T09:17:53.376Z</time></trkpt><trkpt lat="44.3858102" lon="8.2069812"><ele>415.0</ele><time>2026-04-26T09:17:54.386Z</time></trkpt><trkpt lat="44.3856632" lon="8.2069144"><ele>415.0</ele><time>2026-04-26T09:17:55.379Z</time></trkpt><trkpt lat="44.3855051" lon="8.2068982"><ele>414.6666666666667</ele><time>2026-04-26T09:17:56.381Z</time></trkpt><trkpt lat="44.3853379" lon="8.2069228"><ele>414.33333333333337</ele><time>2026-04-26T09:17:57.382Z</time></trkpt><trkpt lat="44.3851828" lon="8.2069726"><ele>414.0</ele><time>2026-04-26T09:17:58.382Z</time></trkpt><trkpt lat="44.3850371" lon="8.207047"><ele>414.0</ele><time>2026-04-26T09:17:59.368Z</time></trkpt><trkpt lat="44.3849174" lon="8.2071694"><ele>414.0</ele><time>2026-04-26T09:18:00.383Z</time></trkpt><trkpt lat="44.3847897" lon="8.2073518"><ele>414.0</ele><time>2026-04-26T09:18:01.376Z</time></trkpt><trkpt lat="44.3846715" lon="8.2075573"><ele>413.0</ele><time>2026-04-26T09:18:02.367Z</time></trkpt><trkpt lat="44.3845566" lon="8.2077578"><ele>412.0</ele><time>2026-04-26T09:18:03.375Z</time></trkpt><trkpt lat="44.384442" lon="8.2079566"><ele>411.0</ele><time>2026-04-26T09:18:04.368Z</time></trkpt><trkpt lat="44.3843242" lon="8.2081544"><ele>413.66666666666663</ele><time>2026-04-26T09:18:05.368Z</time></trkpt><trkpt lat="44.3841897" lon="8.2083396"><ele>416.3333333333333</ele><time>2026-04-26T09:18:06.375Z</time></trkpt><trkpt lat="44.3840365" lon="8.2084862"><ele>419.0</ele><time>2026-04-26T09:18:07.38Z</time></trkpt><trkpt lat="44.3838704" lon="8.2085825"><ele>417.66666666666663</ele><time>2026-04-26T09:18:08.368Z</time></trkpt><trkpt lat="44.3836859" lon="8.2086392"><ele>416.33333333333337</ele><time>2026-04-26T09:18:09.377Z</time></trkpt><trkpt lat="44.3835059" lon="8.208655"><ele>415.0</ele><time>2026-04-26T09:18:10.371Z</time></trkpt><trkpt lat="44.3833183" lon="8.2086213"><ele>415.0</ele><time>2026-04-26T09:18:11.382Z</time></trkpt><trkpt lat="44.3831232" lon="8.2085602"><ele>415.0</ele><time>2026-04-26T09:18:12.366Z</time></trkpt><trkpt lat="44.3829282" lon="8.2084849"><ele>415.0</ele><time>2026-04-26T09:18:13.371Z</time></trkpt><trkpt lat="44.3827235" lon="8.208414"><ele>417.0</ele><time>2026-04-26T09:18:14.378Z</time></trkpt><trkpt lat="44.3825225" lon="8.2083393"><ele>419.0</ele><time>2026-04-26T09:18:15.364Z</time></trkpt><trkpt lat="44.3823188" lon="8.2082623"><ele>421.0</ele><time>2026-04-26T09:18:16.364Z</time></trkpt><trkpt lat="44.3821195" lon="8.2081825"><ele>419.6666666666667</ele><time>2026-04-26T09:18:17.378Z</time></trkpt><trkpt lat="44.3819324" lon="8.2080722"><ele>418.33333333333337</ele><time>2026-04-26T09:18:18.371Z</time></trkpt><trkpt lat="44.3817644" lon="8.2079225"><ele>417.0</ele><time>2026-04-26T09:18:19.387Z</time></trkpt><trkpt lat="44.3815945" lon="8.2077482"><ele>417.0</ele><time>2026-04-26T09:18:20.362Z</time></trkpt><trkpt lat="44.3814228" lon="8.2075673"><ele>417.0</ele><time>2026-04-26T09:18:21.369Z</time></trkpt><trkpt lat="44.381245" lon="8.2073616"><ele>417.0</ele><time>2026-04-26T09:18:22.378Z</time></trkpt><trkpt lat="44.3810708" lon="8.2071462"><ele>418.5</ele><time>2026-04-26T09:18:23.371Z</time></trkpt><trkpt lat="44.3809039" lon="8.2069236"><ele>420.0</ele><time>2026-04-26T09:18:24.359Z</time></trkpt><trkpt lat="44.3807452" lon="8.2066837"><ele>415.5</ele><time>2026-04-26T09:18:25.367Z</time></trkpt><trkpt lat="44.3805868" lon="8.2064497"><ele>411.0</ele><time>2026-04-26T09:18:26.377Z</time></trkpt><trkpt lat="44.3804292" lon="8.2062135"><ele>413.0</ele><time>2026-04-26T09:18:27.361Z</time></trkpt><trkpt lat="44.380281" lon="8.2059748"><ele>415.0</ele><time>2026-04-26T09:18:28.37Z</time></trkpt><trkpt lat="44.3801443" lon="8.2057317"><ele>417.0</ele><time>2026-04-26T09:18:29.369Z</time></trkpt><trkpt lat="44.3800183" lon="8.2054804"><ele>417.0</ele><time>2026-04-26T09:18:30.386Z</time></trkpt><trkpt lat="44.3799027" lon="8.2052177"><ele>417.0</ele><time>2026-04-26T09:18:31.386Z</time></trkpt><trkpt lat="44.3798051" lon="8.2049308"><ele>417.0</ele><time>2026-04-26T09:18:32.376Z</time></trkpt><trkpt lat="44.3797132" lon="8.2046351"><ele>417.5</ele><time>2026-04-26T09:18:33.362Z</time></trkpt><trkpt lat="44.3796109" lon="8.2043467"><ele>418.0</ele><time>2026-04-26T09:18:34.368Z</time></trkpt><trkpt lat="44.3794936" lon="8.2040544"><ele>418.0</ele><time>2026-04-26T09:18:35.365Z</time></trkpt><trkpt lat="44.3793728" lon="8.2037597"><ele>418.0</ele><time>2026-04-26T09:18:36.364Z</time></trkpt><trkpt lat="44.3792543" lon="8.2034621"><ele>418.0</ele><time>2026-04-26T09:18:37.372Z</time></trkpt><trkpt lat="44.3791307" lon="8.2031731"><ele>418.0</ele><time>2026-04-26T09:18:38.368Z</time></trkpt><trkpt lat="44.3790188" lon="8.2028978"><ele>415.6666666666667</ele><time>2026-04-26T09:18:39.377Z</time></trkpt><trkpt lat="44.378909" lon="8.202631"><ele>413.33333333333337</ele><time>2026-04-26T09:18:40.398Z</time></trkpt><trkpt lat="44.3788076" lon="8.2023666"><ele>411.0</ele><time>2026-04-26T09:18:41.37Z</time></trkpt><trkpt lat="44.3787058" lon="8.2020932"><ele>414.66666666666663</ele><time>2026-04-26T09:18:42.379Z</time></trkpt><trkpt lat="44.3786229" lon="8.2018085"><ele>418.3333333333333</ele><time>2026-04-26T09:18:43.376Z</time></trkpt><trkpt lat="44.3785584" lon="8.2015018"><ele>422.0</ele><time>2026-04-26T09:18:44.369Z</time></trkpt><trkpt lat="44.3784909" lon="8.2012014"><ele>422.0</ele><time>2026-04-26T09:18:45.375Z</time></trkpt><trkpt lat="44.3784172" lon="8.2009062"><ele>422.0</ele><time>2026-04-26T09:18:46.371Z</time></trkpt><trkpt lat="44.3783323" lon="8.2006278"><ele>422.0</ele><time>2026-04-26T09:18:47.36Z</time></trkpt><trkpt lat="44.3782632" lon="8.2003556"><ele>420.66666666666663</ele><time>2026-04-26T09:18:48.376Z</time></trkpt><trkpt lat="44.3782129" lon="8.2000833"><ele>419.33333333333337</ele><time>2026-04-26T09:18:49.376Z</time></trkpt><trkpt lat="44.3781921" lon="8.1998017"><ele>418.0</ele><time>2026-04-26T09:18:50.364Z</time></trkpt><trkpt lat="44.3781963" lon="8.1995197"><ele>418.0</ele><time>2026-04-26T09:18:51.376Z</time></trkpt><trkpt lat="44.3782037" lon="8.1992435"><ele>418.0</ele><time>2026-04-26T09:18:52.376Z</time></trkpt><trkpt lat="44.3781944" lon="8.198969"><ele>418.0</ele><time>2026-04-26T09:18:53.377Z</time></trkpt><trkpt lat="44.378138" lon="8.1987091"><ele>417.6666666666667</ele><time>2026-04-26T09:18:54.368Z</time></trkpt><trkpt lat="44.378049" lon="8.1984699"><ele>417.33333333333337</ele><time>2026-04-26T09:18:55.393Z</time></trkpt><trkpt lat="44.377916" lon="8.1982343"><ele>417.0</ele><time>2026-04-26T09:18:56.404Z</time></trkpt><trkpt lat="44.3777677" lon="8.1979998"><ele>416.66666666666663</ele><time>2026-04-26T09:18:57.381Z</time></trkpt><trkpt lat="44.3776233" lon="8.1977652"><ele>416.3333333333333</ele><time>2026-04-26T09:18:58.377Z</time></trkpt><trkpt lat="44.3774924" lon="8.1975366"><ele>416.0</ele><time>2026-04-26T09:18:59.379Z</time></trkpt><trkpt lat="44.377369" lon="8.1973259"><ele>416.0</ele><time>2026-04-26T09:19:00.382Z</time></trkpt><trkpt lat="44.3772361" lon="8.1971416"><ele>416.0</ele><time>2026-04-26T09:19:01.377Z</time></trkpt><trkpt lat="44.3770665" lon="8.1970191"><ele>416.0</ele><time>2026-04-26T09:19:02.377Z</time></trkpt><trkpt lat="44.3768865" lon="8.1969605"><ele>416.3333333333333</ele><time>2026-04-26T09:19:03.371Z</time></trkpt><trkpt lat="44.3767135" lon="8.1969591"><ele>416.66666666666663</ele><time>2026-04-26T09:19:04.381Z</time></trkpt><trkpt lat="44.3765324" lon="8.19704"><ele>417.0</ele><time>2026-04-26T09:19:05.378Z</time></trkpt><trkpt lat="44.3763548" lon="8.1971695"><ele>417.33333333333337</ele><time>2026-04-26T09:19:06.375Z</time></trkpt><trkpt lat="44.3761744" lon="8.1973022"><ele>417.6666666666667</ele><time>2026-04-26T09:19:07.374Z</time></trkpt><trkpt lat="44.3759654" lon="8.1974441"><ele>418.0</ele><time>2026-04-26T09:19:08.376Z</time></trkpt><trkpt lat="44.375754" lon="8.1975911"><ele>418.0</ele><time>2026-04-26T09:19:09.374Z</time></trkpt><trkpt lat="44.375551" lon="8.1977324"><ele>418.0</ele><time>2026-04-26T09:19:10.377Z</time></trkpt><trkpt lat="44.3753451" lon="8.1978756"><ele>418.0</ele><time>2026-04-26T09:19:11.374Z</time></trkpt><trkpt lat="44.37514" lon="8.1980273"><ele>418.0</ele><time>2026-04-26T09:19:12.373Z</time></trkpt><trkpt lat="44.3749363" lon="8.1981777"><ele>418.0</ele><time>2026-04-26T09:19:13.376Z</time></trkpt><trkpt lat="44.3747242" lon="8.1983226"><ele>418.0</ele><time>2026-04-26T09:19:14.377Z</time></trkpt><trkpt lat="44.3745126" lon="8.1984783"><ele>417.5</ele><time>2026-04-26T09:19:15.372Z</time></trkpt><trkpt lat="44.3742955" lon="8.1986443"><ele>417.0</ele><time>2026-04-26T09:19:16.364Z</time></trkpt><trkpt lat="44.3740743" lon="8.198808"><ele>417.5</ele><time>2026-04-26T09:19:17.369Z</time></trkpt><trkpt lat="44.373847" lon="8.1989718"><ele>418.0</ele><time>2026-04-26T09:19:18.365Z</time></trkpt><trkpt lat="44.3736109" lon="8.1991426"><ele>418.5</ele><time>2026-04-26T09:19:19.364Z</time></trkpt><trkpt lat="44.3733692" lon="8.1993125"><ele>419.0</ele><time>2026-04-26T09:19:20.38Z</time></trkpt><trkpt lat="44.3731325" lon="8.1994946"><ele>417.5</ele><time>2026-04-26T09:19:21.375Z</time></trkpt><trkpt lat="44.3728958" lon="8.1996751"><ele>416.0</ele><time>2026-04-26T09:19:22.371Z</time></trkpt><trkpt lat="44.372661" lon="8.1998487"><ele>419.0</ele><time>2026-04-26T09:19:23.369Z</time></trkpt><trkpt lat="44.3724282" lon="8.2000118"><ele>422.0</ele><time>2026-04-26T09:19:24.374Z</time></trkpt><trkpt lat="44.3721935" lon="8.2001753"><ele>420.0</ele><time>2026-04-26T09:19:25.374Z</time></trkpt><trkpt lat="44.371965" lon="8.2003437"><ele>418.0</ele><time>2026-04-26T09:19:26.379Z</time></trkpt><trkpt lat="44.3717431" lon="8.2005073"><ele>418.0</ele><time>2026-04-26T09:19:27.382Z</time></trkpt><trkpt lat="44.3715368" lon="8.2006601"><ele>418.0</ele><time>2026-04-26T09:19:28.369Z</time></trkpt><trkpt lat="44.371349" lon="8.2008112"><ele>419.33333333333337</ele><time>2026-04-26T09:19:29.371Z</time></trkpt><trkpt lat="44.3711688" lon="8.2009494"><ele>420.66666666666663</ele><time>2026-04-26T09:19:30.384Z</time></trkpt><trkpt lat="44.3709978" lon="8.2010807"><ele>422.0</ele><time>2026-04-26T09:19:31.373Z</time></trkpt><trkpt lat="44.3708317" lon="8.2012099"><ele>422.0</ele><time>2026-04-26T09:19:32.368Z</time></trkpt><trkpt lat="44.3706723" lon="8.2013297"><ele>422.0</ele><time>2026-04-26T09:19:33.372Z</time></trkpt><trkpt lat="44.3705109" lon="8.2014509"><ele>422.0</ele><time>2026-04-26T09:19:34.365Z</time></trkpt><trkpt lat="44.3703481" lon="8.2015787"><ele>423.66666666666663</ele><time>2026-04-26T09:19:35.377Z</time></trkpt><trkpt lat="44.3701934" lon="8.2017053"><ele>425.33333333333337</ele><time>2026-04-26T09:19:36.385Z</time></trkpt><trkpt lat="44.3700544" lon="8.2018207"><ele>427.0</ele><time>2026-04-26T09:19:37.378Z</time></trkpt><trkpt lat="44.3699084" lon="8.2019275"><ele>427.0</ele><time>2026-04-26T09:19:38.369Z</time></trkpt><trkpt lat="44.3697675" lon="8.2020384"><ele>427.0</ele><time>2026-04-26T09:19:39.373Z</time></trkpt><trkpt lat="44.3696318" lon="8.2021471"><ele>427.0</ele><time>2026-04-26T09:19:40.384Z</time></trkpt><trkpt lat="44.3694985" lon="8.2022431"><ele>427.0</ele><time>2026-04-26T09:19:41.372Z</time></trkpt><trkpt lat="44.3693761" lon="8.2023281"><ele>427.00000000000006</ele><time>2026-04-26T09:19:42.369Z</time></trkpt><trkpt lat="44.3692743" lon="8.2023874"><ele>427.00000000000006</ele><time>2026-04-26T09:19:43.377Z</time></trkpt><trkpt lat="44.3692012" lon="8.2024265"><ele>427.0</ele><time>2026-04-26T09:19:44.387Z</time></trkpt><trkpt lat="44.3691326" lon="8.2024448"><ele>427.0</ele><time>2026-04-26T09:19:45.379Z</time></trkpt><trkpt lat="44.3690219" lon="8.2023592"><ele>426.33333333333337</ele><time>2026-04-26T09:19:47.366Z</time></trkpt><trkpt lat="44.3689861" lon="8.2022654"><ele>425.6666666666667</ele><time>2026-04-26T09:19:48.39Z</time></trkpt><trkpt lat="44.3689431" lon="8.2021616"><ele>425.0</ele><time>2026-04-26T09:19:49.369Z</time></trkpt><trkpt lat="44.3689079" lon="8.2020548"><ele>424.33333333333337</ele><time>2026-04-26T09:19:50.372Z</time></trkpt><trkpt lat="44.3688648" lon="8.2019414"><ele>423.6666666666667</ele><time>2026-04-26T09:19:51.367Z</time></trkpt><trkpt lat="44.3688205" lon="8.2018037"><ele>423.0</ele><time>2026-04-26T09:19:52.377Z</time></trkpt><trkpt lat="44.3687748" lon="8.201662"><ele>423.0</ele><time>2026-04-26T09:19:53.375Z</time></trkpt><trkpt lat="44.3687466" lon="8.2015586"><ele>423.0</ele><time>2026-04-26T09:19:54.371Z</time></trkpt><trkpt lat="44.3687197" lon="8.2014721"><ele>423.0</ele><time>2026-04-26T09:19:55.382Z</time></trkpt><trkpt lat="44.3686599" lon="8.2013576"><ele>423.0</ele><time>2026-04-26T09:19:57.375Z</time></trkpt><trkpt lat="44.3685901" lon="8.2013488"><ele>423.0</ele><time>2026-04-26T09:19:59.375Z</time></trkpt><trkpt lat="44.3685388" lon="8.2014132"><ele>423.0</ele><time>2026-04-26T09:20:01.363Z</time></trkpt><trkpt lat="44.3686269" lon="8.2014214"><ele>423.0</ele><time>2026-04-26T09:20:12.377Z</time></trkpt><trkpt lat="44.3686792" lon="8.2014863"><ele>423.0</ele><time>2026-04-26T09:20:13.367Z</time></trkpt><trkpt lat="44.3687393" lon="8.2015965"><ele>423.0</ele><time>2026-04-26T09:20:14.365Z</time></trkpt><trkpt lat="44.3687975" lon="8.2017279"><ele>423.0</ele><time>2026-04-26T09:20:15.387Z</time></trkpt><trkpt lat="44.3688531" lon="8.2018876"><ele>423.0</ele><time>2026-04-26T09:20:16.369Z</time></trkpt><trkpt lat="44.3688987" lon="8.2020501"><ele>423.0</ele><time>2026-04-26T09:20:17.379Z</time></trkpt><trkpt lat="44.3689363" lon="8.2021857"><ele>423.0</ele><time>2026-04-26T09:20:18.371Z</time></trkpt><trkpt lat="44.3689681" lon="8.2023103"><ele>423.0</ele><time>2026-04-26T09:20:19.405Z</time></trkpt><trkpt lat="44.3689823" lon="8.2024636"><ele>423.0</ele><time>2026-04-26T09:20:21.379Z</time></trkpt><trkpt lat="44.3689287" lon="8.2025677"><ele>423.0</ele><time>2026-04-26T09:20:23.374Z</time></trkpt><trkpt lat="44.3688633" lon="8.2026119"><ele>424.25</ele><time>2026-04-26T09:20:24.389Z</time></trkpt><trkpt lat="44.3687651" lon="8.2026674"><ele>425.5</ele><time>2026-04-26T09:20:25.375Z</time></trkpt><trkpt lat="44.3686425" lon="8.2027287"><ele>426.75</ele><time>2026-04-26T09:20:26.384Z</time></trkpt><trkpt lat="44.3685155" lon="8.2027994"><ele>428.0</ele><time>2026-04-26T09:20:27.371Z</time></trkpt><trkpt lat="44.3683986" lon="8.2028533"><ele>428.0</ele><time>2026-04-26T09:20:28.376Z</time></trkpt><trkpt lat="44.3682692" lon="8.20293"><ele>428.0</ele><time>2026-04-26T09:20:29.375Z</time></trkpt><trkpt lat="44.3681397" lon="8.2029971"><ele>428.0</ele><time>2026-04-26T09:20:30.369Z</time></trkpt><trkpt lat="44.3680138" lon="8.2030548"><ele>428.0</ele><time>2026-04-26T09:20:31.371Z</time></trkpt><trkpt lat="44.3679102" lon="8.2031075"><ele>428.0</ele><time>2026-04-26T09:20:32.377Z</time></trkpt><trkpt lat="44.3678086" lon="8.2031584"><ele>428.0</ele><time>2026-04-26T09:20:33.369Z</time></trkpt><trkpt lat="44.3676979" lon="8.2032119"><ele>428.0</ele><time>2026-04-26T09:20:34.364Z</time></trkpt><trkpt lat="44.367566" lon="8.2032832"><ele>428.0</ele><time>2026-04-26T09:20:35.367Z</time></trkpt><trkpt lat="44.3674319" lon="8.2033468"><ele>428.66666666666663</ele><time>2026-04-26T09:20:36.37Z</time></trkpt><trkpt lat="44.3672917" lon="8.2034248"><ele>429.33333333333337</ele><time>2026-04-26T09:20:37.366Z</time></trkpt><trkpt lat="44.367141" lon="8.2034875"><ele>430.0</ele><time>2026-04-26T09:20:38.372Z</time></trkpt><trkpt lat="44.3669839" lon="8.2035622"><ele>430.0</ele><time>2026-04-26T09:20:39.373Z</time></trkpt><trkpt lat="44.3668255" lon="8.2036341"><ele>430.0</ele><time>2026-04-26T09:20:40.374Z</time></trkpt><trkpt lat="44.366683" lon="8.2036928"><ele>430.0</ele><time>2026-04-26T09:20:41.373Z</time></trkpt><trkpt lat="44.3665618" lon="8.2037487"><ele>430.0</ele><time>2026-04-26T09:20:42.369Z</time></trkpt><trkpt lat="44.3664444" lon="8.2038045"><ele>430.5</ele><time>2026-04-26T09:20:43.369Z</time></trkpt><trkpt lat="44.3663026" lon="8.2038611"><ele>431.0</ele><time>2026-04-26T09:20:44.371Z</time></trkpt><trkpt lat="44.3661624" lon="8.2039284"><ele>431.5</ele><time>2026-04-26T09:20:45.373Z</time></trkpt><trkpt lat="44.3660203" lon="8.2039963"><ele>432.0</ele><time>2026-04-26T09:20:46.376Z</time></trkpt><trkpt lat="44.3658835" lon="8.2040684"><ele>432.0</ele><time>2026-04-26T09:20:47.377Z</time></trkpt><trkpt lat="44.3657522" lon="8.204129"><ele>432.0</ele><time>2026-04-26T09:20:48.365Z</time></trkpt><trkpt lat="44.3656287" lon="8.204179"><ele>432.0</ele><time>2026-04-26T09:20:49.375Z</time></trkpt><trkpt lat="44.3655126" lon="8.2042401"><ele>432.0</ele><time>2026-04-26T09:20:50.376Z</time></trkpt><trkpt lat="44.3654076" lon="8.2043033"><ele>431.40000000000003</ele><time>2026-04-26T09:20:51.37Z</time></trkpt><trkpt lat="44.3652998" lon="8.2043697"><ele>430.80000000000007</ele><time>2026-04-26T09:20:52.382Z</time></trkpt><trkpt lat="44.3652119" lon="8.2044157"><ele>430.2</ele><time>2026-04-26T09:20:53.376Z</time></trkpt><trkpt lat="44.3651166" lon="8.204321"><ele>429.6</ele><time>2026-04-26T09:21:02.377Z</time></trkpt><trkpt lat="44.3650775" lon="8.2041732"><ele>429.0</ele><time>2026-04-26T09:21:03.375Z</time></trkpt><trkpt lat="44.3650342" lon="8.2040541"><ele>428.3333333333333</ele><time>2026-04-26T09:21:04.367Z</time></trkpt><trkpt lat="44.3649998" lon="8.2039441"><ele>427.66666666666663</ele><time>2026-04-26T09:21:05.397Z</time></trkpt><trkpt lat="44.3649756" lon="8.2038529"><ele>427.0</ele><time>2026-04-26T09:21:06.368Z</time></trkpt><trkpt lat="44.3649258" lon="8.2037099"><ele>426.3333333333333</ele><time>2026-04-26T09:21:08.365Z</time></trkpt><trkpt lat="44.3648973" lon="8.2036081"><ele>425.66666666666663</ele><time>2026-04-26T09:21:09.377Z</time></trkpt><trkpt lat="44.364862" lon="8.2034898"><ele>425.0</ele><time>2026-04-26T09:21:10.369Z</time></trkpt><trkpt lat="44.3648239" lon="8.2033714"><ele>425.0</ele><time>2026-04-26T09:21:11.368Z</time></trkpt><trkpt lat="44.3647779" lon="8.2032492"><ele>425.0</ele><time>2026-04-26T09:21:12.365Z</time></trkpt><trkpt lat="44.3647409" lon="8.2031297"><ele>425.0</ele><time>2026-04-26T09:21:13.375Z</time></trkpt><trkpt lat="44.3646979" lon="8.203005"><ele>425.0</ele><time>2026-04-26T09:21:14.367Z</time></trkpt><trkpt lat="44.3646538" lon="8.2028696"><ele>425.0</ele><time>2026-04-26T09:21:15.376Z</time></trkpt><trkpt lat="44.3645987" lon="8.2027182"><ele>426.25</ele><time>2026-04-26T09:21:16.373Z</time></trkpt><trkpt lat="44.3645504" lon="8.2025634"><ele>427.5</ele><time>2026-04-26T09:21:17.362Z</time></trkpt><trkpt lat="44.3645042" lon="8.2024079"><ele>428.75</ele><time>2026-04-26T09:21:18.372Z</time></trkpt><trkpt lat="44.3644675" lon="8.2022551"><ele>430.0</ele><time>2026-04-26T09:21:19.378Z</time></trkpt><trkpt lat="44.3644429" lon="8.2021172"><ele>430.1666666666667</ele><time>2026-04-26T09:21:20.361Z</time></trkpt><trkpt lat="44.3644355" lon="8.2019978"><ele>430.33333333333337</ele><time>2026-04-26T09:21:21.372Z</time></trkpt><trkpt lat="44.3644434" lon="8.2018803"><ele>430.5</ele><time>2026-04-26T09:21:22.366Z</time></trkpt><trkpt lat="44.3644516" lon="8.2017655"><ele>430.66666666666663</ele><time>2026-04-26T09:21:23.375Z</time></trkpt><trkpt lat="44.3644539" lon="8.2016486"><ele>430.8333333333333</ele><time>2026-04-26T09:21:24.384Z</time></trkpt><trkpt lat="44.364439" lon="8.2015422"><ele>431.0</ele><time>2026-04-26T09:21:25.377Z</time></trkpt><trkpt lat="44.3644061" lon="8.2014609"><ele>431.0</ele><time>2026-04-26T09:21:26.378Z</time></trkpt><trkpt lat="44.3643389" lon="8.2013851"><ele>431.0</ele><time>2026-04-26T09:21:28.382Z</time></trkpt><trkpt lat="44.3642448" lon="8.201413"><ele>431.0</ele><time>2026-04-26T09:21:30.366Z</time></trkpt><trkpt lat="44.3641749" lon="8.2015079"><ele>431.0</ele><time>2026-04-26T09:21:31.38Z</time></trkpt><trkpt lat="44.364099" lon="8.2016586"><ele>431.0</ele><time>2026-04-26T09:21:32.371Z</time></trkpt><trkpt lat="44.3640142" lon="8.2018327"><ele>431.0</ele><time>2026-04-26T09:21:33.368Z</time></trkpt><trkpt lat="44.3639187" lon="8.2020171"><ele>431.0</ele><time>2026-04-26T09:21:34.367Z</time></trkpt><trkpt lat="44.3631866" lon="8.2031947"><ele>442.5</ele><time>2026-04-26T09:21:40.36Z</time></trkpt><trkpt lat="44.3630043" lon="8.2033622"><ele>454.0</ele><time>2026-04-26T09:21:41.358Z</time></trkpt><trkpt lat="44.3628095" lon="8.2035758"><ele>454.0</ele><time>2026-04-26T09:21:42.364Z</time></trkpt><trkpt lat="44.3626539" lon="8.2037405"><ele>454.0</ele><time>2026-04-26T09:21:43.356Z</time></trkpt><trkpt lat="44.362483" lon="8.203922"><ele>454.0</ele><time>2026-04-26T09:21:44.356Z</time></trkpt><trkpt lat="44.3598312" lon="8.2070765"><ele>454.0</ele><time>2026-04-26T09:22:00.358Z</time></trkpt><trkpt lat="44.3597202" lon="8.2072901"><ele>454.0</ele><time>2026-04-26T09:22:01.356Z</time></trkpt><trkpt lat="44.3596313" lon="8.2075579"><ele>454.0</ele><time>2026-04-26T09:22:02.367Z</time></trkpt><trkpt lat="44.3595594" lon="8.2078043"><ele>450.6666666666667</ele><time>2026-04-26T09:22:03.362Z</time></trkpt><trkpt lat="44.359483" lon="8.2080663"><ele>447.33333333333337</ele><time>2026-04-26T09:22:04.369Z</time></trkpt><trkpt lat="44.3594206" lon="8.2083491"><ele>444.0</ele><time>2026-04-26T09:22:05.359Z</time></trkpt><trkpt lat="44.359375" lon="8.2086311"><ele>444.0</ele><time>2026-04-26T09:22:06.369Z</time></trkpt><trkpt lat="44.3593598" lon="8.2089221"><ele>444.0</ele><time>2026-04-26T09:22:07.365Z</time></trkpt><trkpt lat="44.359376" lon="8.2091764"><ele>444.0</ele><time>2026-04-26T09:22:08.368Z</time></trkpt><trkpt lat="44.3594169" lon="8.2094163"><ele>444.66666666666663</ele><time>2026-04-26T09:22:09.378Z</time></trkpt><trkpt lat="44.3594765" lon="8.2096401"><ele>445.3333333333333</ele><time>2026-04-26T09:22:10.38Z</time></trkpt><trkpt lat="44.3595842" lon="8.2098359"><ele>446.0</ele><time>2026-04-26T09:22:11.372Z</time></trkpt><trkpt lat="44.3597204" lon="8.2099889"><ele>446.0</ele><time>2026-04-26T09:22:12.354Z</time></trkpt><trkpt lat="44.3598376" lon="8.2101653"><ele>446.0</ele><time>2026-04-26T09:22:13.363Z</time></trkpt><trkpt lat="44.3599424" lon="8.2103575"><ele>446.0</ele><time>2026-04-26T09:22:14.357Z</time></trkpt><trkpt lat="44.3604211" lon="8.211365"><ele>445.49999999999994</ele><time>2026-04-26T09:22:20.376Z</time></trkpt><trkpt lat="44.3605098" lon="8.211407"><ele>445.0</ele><time>2026-04-26T09:22:21.375Z</time></trkpt><trkpt lat="44.3606235" lon="8.2114431"><ele>444.5</ele><time>2026-04-26T09:22:22.368Z</time></trkpt><trkpt lat="44.3607024" lon="8.2114645"><ele>444.0</ele><time>2026-04-26T09:22:23.363Z</time></trkpt><trkpt lat="44.3607675" lon="8.2114476"><ele>443.49999999999994</ele><time>2026-04-26T09:22:24.381Z</time></trkpt><trkpt lat="44.3608209" lon="8.2113941"><ele>443.0</ele><time>2026-04-26T09:22:25.359Z</time></trkpt><trkpt lat="44.3608631" lon="8.2112908"><ele>443.0</ele><time>2026-04-26T09:22:26.356Z</time></trkpt><trkpt lat="44.3609122" lon="8.2111485"><ele>443.0</ele><time>2026-04-26T09:22:27.369Z</time></trkpt><trkpt lat="44.3609373" lon="8.2109744"><ele>443.0</ele><time>2026-04-26T09:22:28.356Z</time></trkpt><trkpt lat="44.3609394" lon="8.2107694"><ele>443.0</ele><time>2026-04-26T09:22:29.352Z</time></trkpt><trkpt lat="44.3609291" lon="8.2105673"><ele>442.16666666666663</ele><time>2026-04-26T09:22:30.353Z</time></trkpt><trkpt lat="44.3609166" lon="8.2103909"><ele>441.3333333333333</ele><time>2026-04-26T09:22:31.358Z</time></trkpt><trkpt lat="44.3609098" lon="8.2102551"><ele>440.5</ele><time>2026-04-26T09:22:32.36Z</time></trkpt><trkpt lat="44.3609093" lon="8.210166"><ele>439.66666666666663</ele><time>2026-04-26T09:22:33.38Z</time></trkpt><trkpt lat="44.3608974" lon="8.2100526"><ele>438.8333333333333</ele><time>2026-04-26T09:22:35.36Z</time></trkpt><trkpt lat="44.3608469" lon="8.2099892"><ele>438.0</ele><time>2026-04-26T09:22:36.375Z</time></trkpt><trkpt lat="44.3607755" lon="8.2099706"><ele>438.0</ele><time>2026-04-26T09:22:37.358Z</time></trkpt><trkpt lat="44.3606852" lon="8.209962"><ele>438.0</ele><time>2026-04-26T09:22:38.382Z</time></trkpt><trkpt lat="44.3605627" lon="8.209958"><ele>438.0</ele><time>2026-04-26T09:22:39.369Z</time></trkpt><trkpt lat="44.3604367" lon="8.2099168"><ele>438.0</ele><time>2026-04-26T09:22:40.368Z</time></trkpt><trkpt lat="44.3603101" lon="8.209826"><ele>436.33333333333337</ele><time>2026-04-26T09:22:41.387Z</time></trkpt><trkpt lat="44.3601732" lon="8.2097178"><ele>434.6666666666667</ele><time>2026-04-26T09:22:42.368Z</time></trkpt><trkpt lat="44.3600354" lon="8.209576"><ele>433.0</ele><time>2026-04-26T09:22:43.365Z</time></trkpt><trkpt lat="44.3598903" lon="8.2094342"><ele>433.0</ele><time>2026-04-26T09:22:44.384Z</time></trkpt><trkpt lat="44.3597472" lon="8.2092816"><ele>433.0</ele><time>2026-04-26T09:22:45.361Z</time></trkpt><trkpt lat="44.3596118" lon="8.2091353"><ele>433.0</ele><time>2026-04-26T09:22:46.367Z</time></trkpt><trkpt lat="44.3595074" lon="8.2089868"><ele>436.6666666666667</ele><time>2026-04-26T09:22:47.372Z</time></trkpt><trkpt lat="44.3594039" lon="8.2088465"><ele>440.33333333333337</ele><time>2026-04-26T09:22:48.362Z</time></trkpt><trkpt lat="44.3592943" lon="8.2087002"><ele>444.0</ele><time>2026-04-26T09:22:49.368Z</time></trkpt><trkpt lat="44.3591631" lon="8.2085493"><ele>444.0</ele><time>2026-04-26T09:22:50.377Z</time></trkpt><trkpt lat="44.3590381" lon="8.2083778"><ele>444.0</ele><time>2026-04-26T09:22:51.377Z</time></trkpt><trkpt lat="44.3589209" lon="8.2082048"><ele>444.0</ele><time>2026-04-26T09:22:52.379Z</time></trkpt><trkpt lat="44.358801" lon="8.208053"><ele>441.66666666666663</ele><time>2026-04-26T09:22:53.367Z</time></trkpt><trkpt lat="44.3586583" lon="8.2079189"><ele>439.3333333333333</ele><time>2026-04-26T09:22:54.377Z</time></trkpt><trkpt lat="44.3584879" lon="8.2078084"><ele>437.0</ele><time>2026-04-26T09:22:55.363Z</time></trkpt><trkpt lat="44.3583027" lon="8.2077217"><ele>437.0</ele><time>2026-04-26T09:22:56.376Z</time></trkpt><trkpt lat="44.3581255" lon="8.2076178"><ele>437.0</ele><time>2026-04-26T09:22:57.377Z</time></trkpt><trkpt lat="44.3579619" lon="8.2075038"><ele>437.0</ele><time>2026-04-26T09:22:58.368Z</time></trkpt><trkpt lat="44.3578085" lon="8.2074115"><ele>436.3333333333333</ele><time>2026-04-26T09:22:59.376Z</time></trkpt><trkpt lat="44.3576578" lon="8.2073417"><ele>435.66666666666663</ele><time>2026-04-26T09:23:00.363Z</time></trkpt><trkpt lat="44.3575136" lon="8.2072865"><ele>435.0</ele><time>2026-04-26T09:23:01.371Z</time></trkpt><trkpt lat="44.3573729" lon="8.2072203"><ele>435.0</ele><time>2026-04-26T09:23:02.372Z</time></trkpt><trkpt lat="44.357238" lon="8.207177"><ele>435.0</ele><time>2026-04-26T09:23:03.376Z</time></trkpt><trkpt lat="44.3571118" lon="8.2071344"><ele>435.0</ele><time>2026-04-26T09:23:04.369Z</time></trkpt><trkpt lat="44.3569812" lon="8.2070948"><ele>435.0</ele><time>2026-04-26T09:23:05.371Z</time></trkpt><trkpt lat="44.35683" lon="8.2070449"><ele>435.66666666666663</ele><time>2026-04-26T09:23:06.369Z</time></trkpt><trkpt lat="44.3566686" lon="8.2069881"><ele>436.3333333333333</ele><time>2026-04-26T09:23:07.365Z</time></trkpt><trkpt lat="44.3565005" lon="8.2069303"><ele>437.0</ele><time>2026-04-26T09:23:08.375Z</time></trkpt><trkpt lat="44.3563246" lon="8.2068654"><ele>438.0</ele><time>2026-04-26T09:23:09.374Z</time></trkpt><trkpt lat="44.3561481" lon="8.2068025"><ele>439.0</ele><time>2026-04-26T09:23:10.376Z</time></trkpt><trkpt lat="44.3559789" lon="8.2067439"><ele>440.0</ele><time>2026-04-26T09:23:11.37Z</time></trkpt><trkpt lat="44.355815" lon="8.2066777"><ele>440.0</ele><time>2026-04-26T09:23:12.372Z</time></trkpt><trkpt lat="44.3556736" lon="8.206625"><ele>440.0</ele><time>2026-04-26T09:23:13.387Z</time></trkpt><trkpt lat="44.3555341" lon="8.206573"><ele>440.0</ele><time>2026-04-26T09:23:14.362Z</time></trkpt><trkpt lat="44.355384" lon="8.2065267"><ele>440.0</ele><time>2026-04-26T09:23:15.369Z</time></trkpt><trkpt lat="44.355228" lon="8.2065021"><ele>442.3333333333333</ele><time>2026-04-26T09:23:16.401Z</time></trkpt><trkpt lat="44.355062" lon="8.2064896"><ele>444.66666666666663</ele><time>2026-04-26T09:23:17.394Z</time></trkpt><trkpt lat="44.3549029" lon="8.20649"><ele>447.0</ele><time>2026-04-26T09:23:18.384Z</time></trkpt><trkpt lat="44.35477" lon="8.206444"><ele>444.25</ele><time>2026-04-26T09:23:19.373Z</time></trkpt><trkpt lat="44.3546732" lon="8.2063395"><ele>441.5</ele><time>2026-04-26T09:23:20.371Z</time></trkpt><trkpt lat="44.3545955" lon="8.206168"><ele>438.75</ele><time>2026-04-26T09:23:21.37Z</time></trkpt><trkpt lat="44.3545175" lon="8.2059605"><ele>436.0</ele><time>2026-04-26T09:23:22.375Z</time></trkpt><trkpt lat="44.3544225" lon="8.2057569"><ele>437.33333333333337</ele><time>2026-04-26T09:23:23.363Z</time></trkpt><trkpt lat="44.3543164" lon="8.2055497"><ele>438.66666666666663</ele><time>2026-04-26T09:23:24.386Z</time></trkpt><trkpt lat="44.3542072" lon="8.2053642"><ele>440.0</ele><time>2026-04-26T09:23:25.368Z</time></trkpt><trkpt lat="44.3540986" lon="8.2052428"><ele>440.0</ele><time>2026-04-26T09:23:26.37Z</time></trkpt><trkpt lat="44.3539647" lon="8.2052131"><ele>440.0</ele><time>2026-04-26T09:23:27.374Z</time></trkpt><trkpt lat="44.3537951" lon="8.2052329"><ele>440.0</ele><time>2026-04-26T09:23:28.376Z</time></trkpt><trkpt lat="44.3536127" lon="8.2052759"><ele>445.0</ele><time>2026-04-26T09:23:29.395Z</time></trkpt><trkpt lat="44.3534269" lon="8.205341"><ele>450.0</ele><time>2026-04-26T09:23:30.376Z</time></trkpt><trkpt lat="44.3532445" lon="8.2054276"><ele>455.0</ele><time>2026-04-26T09:23:31.38Z</time></trkpt><trkpt lat="44.3530702" lon="8.2055571"><ele>455.66666666666663</ele><time>2026-04-26T09:23:32.378Z</time></trkpt><trkpt lat="44.3528887" lon="8.2056958"><ele>456.33333333333337</ele><time>2026-04-26T09:23:33.369Z</time></trkpt><trkpt lat="44.3526908" lon="8.2058476"><ele>457.0</ele><time>2026-04-26T09:23:34.37Z</time></trkpt><trkpt lat="44.3524971" lon="8.2059956"><ele>457.0</ele><time>2026-04-26T09:23:35.362Z</time></trkpt><trkpt lat="44.3523081" lon="8.2061415"><ele>457.0</ele><time>2026-04-26T09:23:36.388Z</time></trkpt><trkpt lat="44.3521289" lon="8.2062848"><ele>457.0</ele><time>2026-04-26T09:23:37.363Z</time></trkpt><trkpt lat="44.3519726" lon="8.2064394"><ele>457.33333333333337</ele><time>2026-04-26T09:23:38.392Z</time></trkpt><trkpt lat="44.3518457" lon="8.2066324"><ele>457.66666666666663</ele><time>2026-04-26T09:23:39.364Z</time></trkpt><trkpt lat="44.3517389" lon="8.2068482"><ele>458.0</ele><time>2026-04-26T09:23:40.372Z</time></trkpt><trkpt lat="44.3516624" lon="8.2070829"><ele>458.0</ele><time>2026-04-26T09:23:41.365Z</time></trkpt><trkpt lat="44.3515842" lon="8.2072976"><ele>458.0</ele><time>2026-04-26T09:23:42.359Z</time></trkpt><trkpt lat="44.3514906" lon="8.207501"><ele>458.0</ele><time>2026-04-26T09:23:43.376Z</time></trkpt><trkpt lat="44.3513594" lon="8.2076712"><ele>464.0</ele><time>2026-04-26T09:23:44.365Z</time></trkpt><trkpt lat="44.3512113" lon="8.207813"><ele>470.0</ele><time>2026-04-26T09:23:45.378Z</time></trkpt><trkpt lat="44.3510348" lon="8.2079248"><ele>476.0</ele><time>2026-04-26T09:23:46.385Z</time></trkpt><trkpt lat="44.3508334" lon="8.2080208"><ele>476.0</ele><time>2026-04-26T09:23:47.36Z</time></trkpt><trkpt lat="44.3506222" lon="8.2081209"><ele>476.0</ele><time>2026-04-26T09:23:48.362Z</time></trkpt><trkpt lat="44.3504078" lon="8.2082354"><ele>470.0</ele><time>2026-04-26T09:23:49.363Z</time></trkpt><trkpt lat="44.3501801" lon="8.2083693"><ele>464.0</ele><time>2026-04-26T09:23:50.365Z</time></trkpt><trkpt lat="44.3499537" lon="8.2084977"><ele>464.0</ele><time>2026-04-26T09:23:51.362Z</time></trkpt><trkpt lat="44.349739" lon="8.208619"><ele>464.0</ele><time>2026-04-26T09:23:52.358Z</time></trkpt><trkpt lat="44.3495389" lon="8.2087268"><ele>464.0</ele><time>2026-04-26T09:23:53.367Z</time></trkpt><trkpt lat="44.3493453" lon="8.2088117"><ele>465.66666666666663</ele><time>2026-04-26T09:23:54.373Z</time></trkpt><trkpt lat="44.3491569" lon="8.208845"><ele>467.33333333333337</ele><time>2026-04-26T09:23:55.371Z</time></trkpt><trkpt lat="44.3489821" lon="8.2088231"><ele>469.0</ele><time>2026-04-26T09:23:56.37Z</time></trkpt><trkpt lat="44.3487974" lon="8.2087718"><ele>471.0</ele><time>2026-04-26T09:23:57.388Z</time></trkpt><trkpt lat="44.3486227" lon="8.2087479"><ele>473.0</ele><time>2026-04-26T09:23:58.364Z</time></trkpt><trkpt lat="44.3484514" lon="8.2088259"><ele>475.0</ele><time>2026-04-26T09:23:59.37Z</time></trkpt><trkpt lat="44.3482721" lon="8.2089857"><ele>471.33333333333337</ele><time>2026-04-26T09:24:00.365Z</time></trkpt><trkpt lat="44.3480871" lon="8.2091539"><ele>467.66666666666663</ele><time>2026-04-26T09:24:01.363Z</time></trkpt><trkpt lat="44.3479018" lon="8.2093343"><ele>464.0</ele><time>2026-04-26T09:24:02.367Z</time></trkpt><trkpt lat="44.3476946" lon="8.2095046"><ele>464.0</ele><time>2026-04-26T09:24:03.363Z</time></trkpt><trkpt lat="44.3474962" lon="8.2096698"><ele>464.0</ele><time>2026-04-26T09:24:04.372Z</time></trkpt><trkpt lat="44.3473176" lon="8.2098169"><ele>464.0</ele><time>2026-04-26T09:24:05.358Z</time></trkpt><trkpt lat="44.3471458" lon="8.2099571"><ele>459.0</ele><time>2026-04-26T09:24:06.369Z</time></trkpt><trkpt lat="44.3469955" lon="8.2100661"><ele>454.0</ele><time>2026-04-26T09:24:07.367Z</time></trkpt><trkpt lat="44.3468555" lon="8.2100828"><ele>449.0</ele><time>2026-04-26T09:24:08.365Z</time></trkpt><trkpt lat="44.3467213" lon="8.2100218"><ele>449.0</ele><time>2026-04-26T09:24:09.358Z</time></trkpt><trkpt lat="44.3465991" lon="8.2098981"><ele>449.0</ele><time>2026-04-26T09:24:10.359Z</time></trkpt><trkpt lat="44.3464879" lon="8.2097204"><ele>449.0</ele><time>2026-04-26T09:24:11.377Z</time></trkpt><trkpt lat="44.3463838" lon="8.2095263"><ele>448.66666666666663</ele><time>2026-04-26T09:24:12.357Z</time></trkpt><trkpt lat="44.3462949" lon="8.2093265"><ele>448.33333333333337</ele><time>2026-04-26T09:24:13.374Z</time></trkpt><trkpt lat="44.346239" lon="8.2091051"><ele>448.0</ele><time>2026-04-26T09:24:14.368Z</time></trkpt><trkpt lat="44.346235" lon="8.2088569"><ele>448.0</ele><time>2026-04-26T09:24:15.357Z</time></trkpt><trkpt lat="44.3462255" lon="8.2085762"><ele>448.0</ele><time>2026-04-26T09:24:16.364Z</time></trkpt><trkpt lat="44.3462156" lon="8.2082781"><ele>448.0</ele><time>2026-04-26T09:24:17.368Z</time></trkpt><trkpt lat="44.3461842" lon="8.2079554"><ele>449.0</ele><time>2026-04-26T09:24:18.357Z</time></trkpt><trkpt lat="44.3461515" lon="8.2076282"><ele>450.0</ele><time>2026-04-26T09:24:19.354Z</time></trkpt><trkpt lat="44.3461207" lon="8.2073099"><ele>452.66666666666663</ele><time>2026-04-26T09:24:20.372Z</time></trkpt><trkpt lat="44.3460906" lon="8.2069891"><ele>455.3333333333333</ele><time>2026-04-26T09:24:21.358Z</time></trkpt><trkpt lat="44.3460556" lon="8.2066926"><ele>458.0</ele><time>2026-04-26T09:24:22.37Z</time></trkpt><trkpt lat="44.3460057" lon="8.2064389"><ele>461.0</ele><time>2026-04-26T09:24:23.368Z</time></trkpt><trkpt lat="44.345928" lon="8.2062089"><ele>464.0</ele><time>2026-04-26T09:24:24.367Z</time></trkpt><trkpt lat="44.3458132" lon="8.2060408"><ele>467.0</ele><time>2026-04-26T09:24:25.371Z</time></trkpt><trkpt lat="44.34566" lon="8.2059366"><ele>462.0</ele><time>2026-04-26T09:24:26.367Z</time></trkpt><trkpt lat="44.3454828" lon="8.2058626"><ele>457.0</ele><time>2026-04-26T09:24:27.37Z</time></trkpt><trkpt lat="44.3452841" lon="8.2057907"><ele>452.0</ele><time>2026-04-26T09:24:28.364Z</time></trkpt><trkpt lat="44.345095" lon="8.2057013"><ele>455.3333333333333</ele><time>2026-04-26T09:24:29.37Z</time></trkpt><trkpt lat="44.3448905" lon="8.2056084"><ele>458.66666666666663</ele><time>2026-04-26T09:24:30.383Z</time></trkpt><trkpt lat="44.3446915" lon="8.205458"><ele>462.0</ele><time>2026-04-26T09:24:31.375Z</time></trkpt><trkpt lat="44.3444984" lon="8.2052766"><ele>462.0</ele><time>2026-04-26T09:24:32.354Z</time></trkpt><trkpt lat="44.3443079" lon="8.2050885"><ele>462.0</ele><time>2026-04-26T09:24:33.362Z</time></trkpt><trkpt lat="44.3441081" lon="8.2049043"><ele>462.66666666666663</ele><time>2026-04-26T09:24:34.368Z</time></trkpt><trkpt lat="44.3439138" lon="8.204739"><ele>463.3333333333333</ele><time>2026-04-26T09:24:35.36Z</time></trkpt><trkpt lat="44.3437207" lon="8.2045926"><ele>464.0</ele><time>2026-04-26T09:24:36.362Z</time></trkpt><trkpt lat="44.343541" lon="8.2044461"><ele>464.0</ele><time>2026-04-26T09:24:37.356Z</time></trkpt><trkpt lat="44.3433783" lon="8.2042607"><ele>464.0</ele><time>2026-04-26T09:24:38.353Z</time></trkpt><trkpt lat="44.3432312" lon="8.2040356"><ele>464.0</ele><time>2026-04-26T09:24:39.354Z</time></trkpt><trkpt lat="44.3430989" lon="8.2038127"><ele>461.0</ele><time>2026-04-26T09:24:40.362Z</time></trkpt><trkpt lat="44.3429837" lon="8.2035861"><ele>458.0</ele><time>2026-04-26T09:24:41.355Z</time></trkpt><trkpt lat="44.3429429" lon="8.2033297"><ele>455.0</ele><time>2026-04-26T09:24:42.366Z</time></trkpt><trkpt lat="44.3429297" lon="8.2030559"><ele>455.0</ele><time>2026-04-26T09:24:43.369Z</time></trkpt><trkpt lat="44.3429414" lon="8.2028041"><ele>455.0</ele><time>2026-04-26T09:24:44.365Z</time></trkpt><trkpt lat="44.3429261" lon="8.2025615"><ele>455.0</ele><time>2026-04-26T09:24:45.368Z</time></trkpt><trkpt lat="44.3428458" lon="8.2023255"><ele>460.0</ele><time>2026-04-26T09:24:46.359Z</time></trkpt><trkpt lat="44.3427164" lon="8.2021214"><ele>465.0</ele><time>2026-04-26T09:24:47.362Z</time></trkpt><trkpt lat="44.3425548" lon="8.2019552"><ele>470.0</ele><time>2026-04-26T09:24:48.375Z</time></trkpt><trkpt lat="44.3423658" lon="8.2018358"><ele>463.66666666666663</ele><time>2026-04-26T09:24:49.359Z</time></trkpt><trkpt lat="44.3421767" lon="8.2017162"><ele>457.33333333333337</ele><time>2026-04-26T09:24:50.363Z</time></trkpt><trkpt lat="44.3420259" lon="8.201609"><ele>451.0</ele><time>2026-04-26T09:24:51.371Z</time></trkpt><trkpt lat="44.341925" lon="8.2015824"><ele>451.0</ele><time>2026-04-26T09:24:52.362Z</time></trkpt><trkpt lat="44.3418205" lon="8.2016269"><ele>451.0</ele><time>2026-04-26T09:24:53.367Z</time></trkpt><trkpt lat="44.3417321" lon="8.2017548"><ele>451.0</ele><time>2026-04-26T09:24:54.368Z</time></trkpt><trkpt lat="44.3416331" lon="8.2018906"><ele>451.0</ele><time>2026-04-26T09:24:55.377Z</time></trkpt><trkpt lat="44.3415074" lon="8.2020634"><ele>450.0</ele><time>2026-04-26T09:24:56.364Z</time></trkpt><trkpt lat="44.3413795" lon="8.2022544"><ele>449.0</ele><time>2026-04-26T09:24:57.367Z</time></trkpt><trkpt lat="44.341251" lon="8.2024154"><ele>448.0</ele><time>2026-04-26T09:24:58.366Z</time></trkpt><trkpt lat="44.3411052" lon="8.2025503"><ele>450.6666666666667</ele><time>2026-04-26T09:24:59.361Z</time></trkpt><trkpt lat="44.3409283" lon="8.2026201"><ele>453.33333333333337</ele><time>2026-04-26T09:25:00.364Z</time></trkpt><trkpt lat="44.3407431" lon="8.2026936"><ele>456.0</ele><time>2026-04-26T09:25:01.374Z</time></trkpt><trkpt lat="44.3405635" lon="8.202789"><ele>454.66666666666663</ele><time>2026-04-26T09:25:02.382Z</time></trkpt><trkpt lat="44.3403757" lon="8.2029255"><ele>453.3333333333333</ele><time>2026-04-26T09:25:03.361Z</time></trkpt><trkpt lat="44.3402117" lon="8.2031037"><ele>452.0</ele><time>2026-04-26T09:25:04.369Z</time></trkpt><trkpt lat="44.3400657" lon="8.2033163"><ele>452.66666666666663</ele><time>2026-04-26T09:25:05.368Z</time></trkpt><trkpt lat="44.3399191" lon="8.2035162"><ele>453.33333333333337</ele><time>2026-04-26T09:25:06.362Z</time></trkpt><trkpt lat="44.3397405" lon="8.2037084"><ele>454.0</ele><time>2026-04-26T09:25:07.359Z</time></trkpt><trkpt lat="44.3395607" lon="8.2038824"><ele>457.5</ele><time>2026-04-26T09:25:08.367Z</time></trkpt><trkpt lat="44.3393704" lon="8.2040687"><ele>461.0</ele><time>2026-04-26T09:25:09.357Z</time></trkpt><trkpt lat="44.3391767" lon="8.2042476"><ele>461.0</ele><time>2026-04-26T09:25:10.361Z</time></trkpt><trkpt lat="44.3389767" lon="8.2044217"><ele>461.0</ele><time>2026-04-26T09:25:11.356Z</time></trkpt><trkpt lat="44.3387852" lon="8.2045994"><ele>460.5</ele><time>2026-04-26T09:25:12.361Z</time></trkpt><trkpt lat="44.3385839" lon="8.2047786"><ele>460.0</ele><time>2026-04-26T09:25:13.378Z</time></trkpt><trkpt lat="44.3383917" lon="8.2049449"><ele>460.0</ele><time>2026-04-26T09:25:14.369Z</time></trkpt><trkpt lat="44.338199" lon="8.2051054"><ele>460.0</ele><time>2026-04-26T09:25:15.358Z</time></trkpt><trkpt lat="44.3380083" lon="8.2052595"><ele>460.0</ele><time>2026-04-26T09:25:16.362Z</time></trkpt><trkpt lat="44.3378336" lon="8.2053936"><ele>459.6666666666667</ele><time>2026-04-26T09:25:17.37Z</time></trkpt><trkpt lat="44.3376771" lon="8.2055354"><ele>459.33333333333337</ele><time>2026-04-26T09:25:18.365Z</time></trkpt><trkpt lat="44.3375586" lon="8.2057383"><ele>459.0</ele><time>2026-04-26T09:25:19.372Z</time></trkpt><trkpt lat="44.3374687" lon="8.2059822"><ele>459.0</ele><time>2026-04-26T09:25:20.358Z</time></trkpt><trkpt lat="44.3374066" lon="8.2062507"><ele>459.0</ele><time>2026-04-26T09:25:21.364Z</time></trkpt><trkpt lat="44.3373805" lon="8.2065443"><ele>459.0</ele><time>2026-04-26T09:25:22.363Z</time></trkpt><trkpt lat="44.337366" lon="8.2068556"><ele>459.5</ele><time>2026-04-26T09:25:23.363Z</time></trkpt><trkpt lat="44.3373539" lon="8.2071654"><ele>460.0</ele><time>2026-04-26T09:25:24.365Z</time></trkpt><trkpt lat="44.3373207" lon="8.2074852"><ele>460.0</ele><time>2026-04-26T09:25:25.377Z</time></trkpt><trkpt lat="44.3372735" lon="8.2077949"><ele>460.0</ele><time>2026-04-26T09:25:26.365Z</time></trkpt><trkpt lat="44.3372174" lon="8.208107"><ele>458.5</ele><time>2026-04-26T09:25:27.371Z</time></trkpt><trkpt lat="44.3371637" lon="8.2084238"><ele>457.0</ele><time>2026-04-26T09:25:28.362Z</time></trkpt><trkpt lat="44.3371038" lon="8.2087445"><ele>458.5</ele><time>2026-04-26T09:25:29.368Z</time></trkpt><trkpt lat="44.3370435" lon="8.2090684"><ele>460.0</ele><time>2026-04-26T09:25:30.364Z</time></trkpt><trkpt lat="44.3369775" lon="8.2093992"><ele>460.0</ele><time>2026-04-26T09:25:31.371Z</time></trkpt><trkpt lat="44.336918" lon="8.209724"><ele>460.0</ele><time>2026-04-26T09:25:32.357Z</time></trkpt><trkpt lat="44.3368527" lon="8.2100545"><ele>461.0</ele><time>2026-04-26T09:25:33.365Z</time></trkpt><trkpt lat="44.3367848" lon="8.2103792"><ele>462.0</ele><time>2026-04-26T09:25:34.36Z</time></trkpt><trkpt lat="44.3367225" lon="8.2106977"><ele>464.33333333333337</ele><time>2026-04-26T09:25:35.367Z</time></trkpt><trkpt lat="44.3366671" lon="8.210996"><ele>466.6666666666667</ele><time>2026-04-26T09:25:36.359Z</time></trkpt><trkpt lat="44.3366049" lon="8.2112716"><ele>469.0</ele><time>2026-04-26T09:25:37.366Z</time></trkpt><trkpt lat="44.3365227" lon="8.2115004"><ele>471.6666666666667</ele><time>2026-04-26T09:25:38.36Z</time></trkpt><trkpt lat="44.3364114" lon="8.2117071"><ele>474.33333333333337</ele><time>2026-04-26T09:25:39.364Z</time></trkpt><trkpt lat="44.3362743" lon="8.2118982"><ele>477.0</ele><time>2026-04-26T09:25:40.364Z</time></trkpt><trkpt lat="44.3361127" lon="8.2120753"><ele>473.33333333333337</ele><time>2026-04-26T09:25:41.361Z</time></trkpt><trkpt lat="44.3359514" lon="8.2122374"><ele>469.6666666666667</ele><time>2026-04-26T09:25:42.376Z</time></trkpt><trkpt lat="44.3357625" lon="8.2123643"><ele>466.0</ele><time>2026-04-26T09:25:43.36Z</time></trkpt><trkpt lat="44.3355791" lon="8.2124419"><ele>465.6666666666667</ele><time>2026-04-26T09:25:44.369Z</time></trkpt><trkpt lat="44.3353881" lon="8.2124365"><ele>465.33333333333337</ele><time>2026-04-26T09:25:45.364Z</time></trkpt><trkpt lat="44.3351957" lon="8.2123532"><ele>465.0</ele><time>2026-04-26T09:25:46.365Z</time></trkpt><trkpt lat="44.3349982" lon="8.2122382"><ele>465.0</ele><time>2026-04-26T09:25:47.365Z</time></trkpt><trkpt lat="44.3347954" lon="8.2121201"><ele>465.0</ele><time>2026-04-26T09:25:48.36Z</time></trkpt><trkpt lat="44.3345893" lon="8.2119988"><ele>465.0</ele><time>2026-04-26T09:25:49.362Z</time></trkpt><trkpt lat="44.3343846" lon="8.2118918"><ele>465.0</ele><time>2026-04-26T09:25:50.368Z</time></trkpt><trkpt lat="44.3341896" lon="8.2118015"><ele>465.0</ele><time>2026-04-26T09:25:51.373Z</time></trkpt><trkpt lat="44.3340129" lon="8.2116957"><ele>465.0</ele><time>2026-04-26T09:25:52.368Z</time></trkpt><trkpt lat="44.3338625" lon="8.2115529"><ele>470.66666666666663</ele><time>2026-04-26T09:25:53.374Z</time></trkpt><trkpt lat="44.3337485" lon="8.2113757"><ele>476.3333333333333</ele><time>2026-04-26T09:25:54.365Z</time></trkpt><trkpt lat="44.3336706" lon="8.2111526"><ele>482.0</ele><time>2026-04-26T09:25:55.366Z</time></trkpt><trkpt lat="44.3335864" lon="8.2108962"><ele>477.3333333333333</ele><time>2026-04-26T09:25:56.37Z</time></trkpt><trkpt lat="44.3334996" lon="8.2106375"><ele>472.66666666666663</ele><time>2026-04-26T09:25:57.37Z</time></trkpt><trkpt lat="44.3334202" lon="8.2103946"><ele>468.0</ele><time>2026-04-26T09:25:58.362Z</time></trkpt><trkpt lat="44.3333556" lon="8.2101663"><ele>468.0</ele><time>2026-04-26T09:25:59.364Z</time></trkpt><trkpt lat="44.3333063" lon="8.2099478"><ele>468.0</ele><time>2026-04-26T09:26:00.376Z</time></trkpt><trkpt lat="44.3333209" lon="8.209781"><ele>468.0</ele><time>2026-04-26T09:26:01.358Z</time></trkpt><trkpt lat="44.3334027" lon="8.2096395"><ele>468.0</ele><time>2026-04-26T09:26:02.352Z</time></trkpt><trkpt lat="44.3335072" lon="8.2094632"><ele>468.0</ele><time>2026-04-26T09:26:03.368Z</time></trkpt><trkpt lat="44.3336103" lon="8.2092836"><ele>468.0</ele><time>2026-04-26T09:26:04.362Z</time></trkpt><trkpt lat="44.3336996" lon="8.2091304"><ele>468.0</ele><time>2026-04-26T09:26:05.359Z</time></trkpt><trkpt lat="44.3337233" lon="8.2089948"><ele>468.0</ele><time>2026-04-26T09:26:06.37Z</time></trkpt><trkpt lat="44.3337008" lon="8.2088534"><ele>468.0</ele><time>2026-04-26T09:26:07.369Z</time></trkpt><trkpt lat="44.3336356" lon="8.2087284"><ele>468.0</ele><time>2026-04-26T09:26:08.38Z</time></trkpt><trkpt lat="44.3335321" lon="8.2085875"><ele>468.0</ele><time>2026-04-26T09:26:09.365Z</time></trkpt><trkpt lat="44.3334108" lon="8.2084088"><ele>468.0</ele><time>2026-04-26T09:26:10.357Z</time></trkpt><trkpt lat="44.3332797" lon="8.2082041"><ele>465.0</ele><time>2026-04-26T09:26:11.361Z</time></trkpt><trkpt lat="44.3331358" lon="8.2079638"><ele>462.0</ele><time>2026-04-26T09:26:12.356Z</time></trkpt><trkpt lat="44.3329957" lon="8.2077035"><ele>462.0</ele><time>2026-04-26T09:26:13.36Z</time></trkpt><trkpt lat="44.3328772" lon="8.2074049"><ele>462.0</ele><time>2026-04-26T09:26:14.355Z</time></trkpt><trkpt lat="44.3327643" lon="8.2071049"><ele>463.5</ele><time>2026-04-26T09:26:15.356Z</time></trkpt><trkpt lat="44.3326548" lon="8.2068081"><ele>465.0</ele><time>2026-04-26T09:26:16.372Z</time></trkpt><trkpt lat="44.332516" lon="8.2065124"><ele>467.5</ele><time>2026-04-26T09:26:17.36Z</time></trkpt><trkpt lat="44.332361" lon="8.2062324"><ele>470.0</ele><time>2026-04-26T09:26:18.365Z</time></trkpt><trkpt lat="44.3321857" lon="8.2059784"><ele>470.0</ele><time>2026-04-26T09:26:19.358Z</time></trkpt><trkpt lat="44.3319935" lon="8.2057484"><ele>470.0</ele><time>2026-04-26T09:26:20.357Z</time></trkpt><trkpt lat="44.3317777" lon="8.2055471"><ele>468.0</ele><time>2026-04-26T09:26:21.365Z</time></trkpt><trkpt lat="44.3315529" lon="8.2053822"><ele>466.0</ele><time>2026-04-26T09:26:22.367Z</time></trkpt><trkpt lat="44.3313192" lon="8.2052391"><ele>465.5</ele><time>2026-04-26T09:26:23.37Z</time></trkpt><trkpt lat="44.3310715" lon="8.2051234"><ele>465.0</ele><time>2026-04-26T09:26:24.361Z</time></trkpt><trkpt lat="44.3308272" lon="8.205014"><ele>465.0</ele><time>2026-04-26T09:26:25.371Z</time></trkpt><trkpt lat="44.3305836" lon="8.204896"><ele>465.0</ele><time>2026-04-26T09:26:26.372Z</time></trkpt><trkpt lat="44.3303405" lon="8.2047735"><ele>473.0</ele><time>2026-04-26T09:26:27.37Z</time></trkpt><trkpt lat="44.330108" lon="8.2046549"><ele>481.0</ele><time>2026-04-26T09:26:28.368Z</time></trkpt><trkpt lat="44.329882" lon="8.2045431"><ele>481.5</ele><time>2026-04-26T09:26:29.377Z</time></trkpt><trkpt lat="44.3296623" lon="8.2044381"><ele>482.0</ele><time>2026-04-26T09:26:30.389Z</time></trkpt><trkpt lat="44.3294437" lon="8.2043399"><ele>482.0</ele><time>2026-04-26T09:26:31.374Z</time></trkpt><trkpt lat="44.329226" lon="8.2042319"><ele>482.0</ele><time>2026-04-26T09:26:32.356Z</time></trkpt><trkpt lat="44.3290144" lon="8.2041093"><ele>481.3333333333333</ele><time>2026-04-26T09:26:33.366Z</time></trkpt><trkpt lat="44.328814" lon="8.2039768"><ele>480.66666666666663</ele><time>2026-04-26T09:26:34.37Z</time></trkpt><trkpt lat="44.3286253" lon="8.2037994"><ele>480.0</ele><time>2026-04-26T09:26:35.367Z</time></trkpt><trkpt lat="44.3284416" lon="8.2036092"><ele>480.0</ele><time>2026-04-26T09:26:36.373Z</time></trkpt><trkpt lat="44.3282741" lon="8.2033913"><ele>480.0</ele><time>2026-04-26T09:26:37.377Z</time></trkpt><trkpt lat="44.3281172" lon="8.2031491"><ele>476.5</ele><time>2026-04-26T09:26:38.375Z</time></trkpt><trkpt lat="44.3279801" lon="8.2028866"><ele>473.0</ele><time>2026-04-26T09:26:39.368Z</time></trkpt><trkpt lat="44.3278434" lon="8.2026091"><ele>480.5</ele><time>2026-04-26T09:26:40.358Z</time></trkpt><trkpt lat="44.3277078" lon="8.2023303"><ele>488.0</ele><time>2026-04-26T09:26:41.365Z</time></trkpt><trkpt lat="44.3275603" lon="8.2020521"><ele>488.0</ele><time>2026-04-26T09:26:42.362Z</time></trkpt><trkpt lat="44.3274021" lon="8.2017935"><ele>488.0</ele><time>2026-04-26T09:26:43.371Z</time></trkpt><trkpt lat="44.3272212" lon="8.201541"><ele>485.0</ele><time>2026-04-26T09:26:44.382Z</time></trkpt><trkpt lat="44.3270516" lon="8.201309"><ele>482.0</ele><time>2026-04-26T09:26:45.375Z</time></trkpt><trkpt lat="44.3269018" lon="8.2010769"><ele>482.0</ele><time>2026-04-26T09:26:46.37Z</time></trkpt><trkpt lat="44.3267711" lon="8.2008254"><ele>482.0</ele><time>2026-04-26T09:26:47.365Z</time></trkpt><trkpt lat="44.3266471" lon="8.200556"><ele>479.3333333333333</ele><time>2026-04-26T09:26:48.366Z</time></trkpt><trkpt lat="44.3265332" lon="8.2003104"><ele>476.66666666666663</ele><time>2026-04-26T09:26:49.379Z</time></trkpt><trkpt lat="44.3264066" lon="8.200086"><ele>474.0</ele><time>2026-04-26T09:26:50.363Z</time></trkpt><trkpt lat="44.3262732" lon="8.1998891"><ele>477.33333333333337</ele><time>2026-04-26T09:26:51.369Z</time></trkpt><trkpt lat="44.3261602" lon="8.1996851"><ele>480.6666666666667</ele><time>2026-04-26T09:26:52.387Z</time></trkpt><trkpt lat="44.3260634" lon="8.1994807"><ele>484.0</ele><time>2026-04-26T09:26:53.375Z</time></trkpt><trkpt lat="44.3259867" lon="8.1992584"><ele>484.0</ele><time>2026-04-26T09:26:54.368Z</time></trkpt><trkpt lat="44.3259189" lon="8.1990348"><ele>484.0</ele><time>2026-04-26T09:26:55.373Z</time></trkpt><trkpt lat="44.3258509" lon="8.1988299"><ele>484.0</ele><time>2026-04-26T09:26:56.369Z</time></trkpt><trkpt lat="44.3257337" lon="8.1986968"><ele>484.0</ele><time>2026-04-26T09:26:57.37Z</time></trkpt><trkpt lat="44.3255854" lon="8.1985947"><ele>484.0</ele><time>2026-04-26T09:26:58.374Z</time></trkpt><trkpt lat="44.3254105" lon="8.1985226"><ele>484.0</ele><time>2026-04-26T09:26:59.367Z</time></trkpt><trkpt lat="44.3252205" lon="8.1984401"><ele>484.0</ele><time>2026-04-26T09:27:00.371Z</time></trkpt><trkpt lat="44.3250432" lon="8.1983371"><ele>484.0</ele><time>2026-04-26T09:27:01.364Z</time></trkpt><trkpt lat="44.3248669" lon="8.1982227"><ele>484.0</ele><time>2026-04-26T09:27:02.36Z</time></trkpt><trkpt lat="44.3247259" lon="8.1980612"><ele>482.6666666666667</ele><time>2026-04-26T09:27:03.375Z</time></trkpt><trkpt lat="44.3246031" lon="8.1978498"><ele>481.33333333333337</ele><time>2026-04-26T09:27:04.368Z</time></trkpt><trkpt lat="44.3244692" lon="8.19764"><ele>480.0</ele><time>2026-04-26T09:27:05.365Z</time></trkpt><trkpt lat="44.3243219" lon="8.1974171"><ele>487.0</ele><time>2026-04-26T09:27:06.367Z</time></trkpt><trkpt lat="44.324166" lon="8.1971892"><ele>494.0</ele><time>2026-04-26T09:27:07.371Z</time></trkpt><trkpt lat="44.3240053" lon="8.196963"><ele>492.0</ele><time>2026-04-26T09:27:08.363Z</time></trkpt><trkpt lat="44.3238464" lon="8.1967311"><ele>490.0</ele><time>2026-04-26T09:27:09.359Z</time></trkpt><trkpt lat="44.323689" lon="8.1965002"><ele>490.0</ele><time>2026-04-26T09:27:10.367Z</time></trkpt><trkpt lat="44.3235385" lon="8.1962546"><ele>490.0</ele><time>2026-04-26T09:27:11.36Z</time></trkpt><trkpt lat="44.323392" lon="8.1960035"><ele>490.0</ele><time>2026-04-26T09:27:12.374Z</time></trkpt><trkpt lat="44.3232469" lon="8.1957289"><ele>490.0</ele><time>2026-04-26T09:27:13.363Z</time></trkpt><trkpt lat="44.3230987" lon="8.1954509"><ele>488.5</ele><time>2026-04-26T09:27:14.352Z</time></trkpt><trkpt lat="44.3229447" lon="8.1951668"><ele>487.0</ele><time>2026-04-26T09:27:15.36Z</time></trkpt><trkpt lat="44.3227887" lon="8.1948847"><ele>494.5</ele><time>2026-04-26T09:27:16.363Z</time></trkpt><trkpt lat="44.3226392" lon="8.1946162"><ele>502.0</ele><time>2026-04-26T09:27:17.356Z</time></trkpt><trkpt lat="44.3224772" lon="8.1943479"><ele>502.0</ele><time>2026-04-26T09:27:18.365Z</time></trkpt><trkpt lat="44.3223024" lon="8.1940989"><ele>502.0</ele><time>2026-04-26T09:27:19.369Z</time></trkpt><trkpt lat="44.3221262" lon="8.1938672"><ele>500.5</ele><time>2026-04-26T09:27:20.372Z</time></trkpt><trkpt lat="44.321941" lon="8.1936633"><ele>499.0</ele><time>2026-04-26T09:27:21.37Z</time></trkpt><trkpt lat="44.3217542" lon="8.1934922"><ele>499.0</ele><time>2026-04-26T09:27:22.374Z</time></trkpt><trkpt lat="44.3215605" lon="8.1933484"><ele>499.0</ele><time>2026-04-26T09:27:23.37Z</time></trkpt><trkpt lat="44.3213508" lon="8.1932321"><ele>499.0</ele><time>2026-04-26T09:27:24.36Z</time></trkpt><trkpt lat="44.3211309" lon="8.1931385"><ele>511.5</ele><time>2026-04-26T09:27:25.362Z</time></trkpt><trkpt lat="44.3209122" lon="8.1930602"><ele>524.0</ele><time>2026-04-26T09:27:26.362Z</time></trkpt><trkpt lat="44.3206911" lon="8.192981"><ele>522.0</ele><time>2026-04-26T09:27:27.363Z</time></trkpt><trkpt lat="44.3204692" lon="8.1928997"><ele>520.0</ele><time>2026-04-26T09:27:28.359Z</time></trkpt><trkpt lat="44.320251" lon="8.1928297"><ele>520.0</ele><time>2026-04-26T09:27:29.361Z</time></trkpt><trkpt lat="44.3200308" lon="8.1927956"><ele>520.0</ele><time>2026-04-26T09:27:30.351Z</time></trkpt><trkpt lat="44.3198158" lon="8.192789"><ele>520.0</ele><time>2026-04-26T09:27:31.355Z</time></trkpt><trkpt lat="44.3196" lon="8.1928245"><ele>524.3333333333334</ele><time>2026-04-26T09:27:32.359Z</time></trkpt><trkpt lat="44.3193922" lon="8.1928763"><ele>528.6666666666666</ele><time>2026-04-26T09:27:33.358Z</time></trkpt><trkpt lat="44.3191901" lon="8.1929576"><ele>533.0</ele><time>2026-04-26T09:27:34.356Z</time></trkpt><trkpt lat="44.3189851" lon="8.1930664"><ele>519.6666666666666</ele><time>2026-04-26T09:27:35.373Z</time></trkpt><trkpt lat="44.3188056" lon="8.1931932"><ele>506.33333333333337</ele><time>2026-04-26T09:27:36.357Z</time></trkpt><trkpt lat="44.3186303" lon="8.1933092"><ele>493.0</ele><time>2026-04-26T09:27:37.355Z</time></trkpt><trkpt lat="44.3184592" lon="8.193358"><ele>493.0</ele><time>2026-04-26T09:27:38.367Z</time></trkpt><trkpt lat="44.3183112" lon="8.1932865"><ele>493.0</ele><time>2026-04-26T09:27:39.359Z</time></trkpt><trkpt lat="44.3181675" lon="8.1932"><ele>493.0</ele><time>2026-04-26T09:27:40.352Z</time></trkpt><trkpt lat="44.3180224" lon="8.1930743"><ele>497.6666666666667</ele><time>2026-04-26T09:27:41.365Z</time></trkpt><trkpt lat="44.3178946" lon="8.1929084"><ele>502.33333333333337</ele><time>2026-04-26T09:27:42.352Z</time></trkpt><trkpt lat="44.317803" lon="8.1927059"><ele>507.0</ele><time>2026-04-26T09:27:43.353Z</time></trkpt><trkpt lat="44.3177662" lon="8.1924811"><ele>507.0</ele><time>2026-04-26T09:27:44.356Z</time></trkpt><trkpt lat="44.3177913" lon="8.1922484"><ele>507.0</ele><time>2026-04-26T09:27:45.36Z</time></trkpt><trkpt lat="44.3178384" lon="8.1919924"><ele>507.0</ele><time>2026-04-26T09:27:46.354Z</time></trkpt><trkpt lat="44.3178809" lon="8.1917258"><ele>507.0</ele><time>2026-04-26T09:27:47.35Z</time></trkpt><trkpt lat="44.3179007" lon="8.1914464"><ele>507.0</ele><time>2026-04-26T09:27:48.344Z</time></trkpt><trkpt lat="44.3178355" lon="8.1912011"><ele>507.0</ele><time>2026-04-26T09:27:49.362Z</time></trkpt><trkpt lat="44.3177567" lon="8.1909142"><ele>510.33333333333337</ele><time>2026-04-26T09:27:50.345Z</time></trkpt><trkpt lat="44.3176814" lon="8.190622"><ele>513.6666666666667</ele><time>2026-04-26T09:27:51.357Z</time></trkpt><trkpt lat="44.3176032" lon="8.190339"><ele>517.0</ele><time>2026-04-26T09:27:52.354Z</time></trkpt><trkpt lat="44.3175247" lon="8.1901046"><ele>517.0</ele><time>2026-04-26T09:27:53.375Z</time></trkpt><trkpt lat="44.3174292" lon="8.1898982"><ele>517.0</ele><time>2026-04-26T09:27:54.362Z</time></trkpt><trkpt lat="44.3172698" lon="8.1897117"><ele>517.0</ele><time>2026-04-26T09:27:55.369Z</time></trkpt><trkpt lat="44.3171153" lon="8.1895187"><ele>515.6666666666667</ele><time>2026-04-26T09:27:56.348Z</time></trkpt><trkpt lat="44.3169749" lon="8.1893212"><ele>514.3333333333334</ele><time>2026-04-26T09:27:57.357Z</time></trkpt><trkpt lat="44.3168624" lon="8.1891076"><ele>513.0</ele><time>2026-04-26T09:27:58.351Z</time></trkpt><trkpt lat="44.3167609" lon="8.1888834"><ele>513.0</ele><time>2026-04-26T09:27:59.354Z</time></trkpt><trkpt lat="44.3166816" lon="8.188644"><ele>513.0</ele><time>2026-04-26T09:28:00.358Z</time></trkpt><trkpt lat="44.3166278" lon="8.1883918"><ele>513.0</ele><time>2026-04-26T09:28:01.372Z</time></trkpt><trkpt lat="44.3166299" lon="8.1881765"><ele>511.33333333333337</ele><time>2026-04-26T09:28:02.355Z</time></trkpt><trkpt lat="44.3166897" lon="8.1879684"><ele>509.6666666666667</ele><time>2026-04-26T09:28:03.358Z</time></trkpt><trkpt lat="44.3167876" lon="8.1877669"><ele>508.0</ele><time>2026-04-26T09:28:04.369Z</time></trkpt><trkpt lat="44.3169135" lon="8.187612"><ele>508.0</ele><time>2026-04-26T09:28:05.372Z</time></trkpt><trkpt lat="44.3170586" lon="8.1874194"><ele>508.0</ele><time>2026-04-26T09:28:06.365Z</time></trkpt><trkpt lat="44.3172009" lon="8.1871918"><ele>508.0</ele><time>2026-04-26T09:28:07.356Z</time></trkpt><trkpt lat="44.3173223" lon="8.1869305"><ele>506.5</ele><time>2026-04-26T09:28:08.355Z</time></trkpt><trkpt lat="44.3174376" lon="8.186643"><ele>505.0</ele><time>2026-04-26T09:28:09.354Z</time></trkpt><trkpt lat="44.3175442" lon="8.1863323"><ele>505.0</ele><time>2026-04-26T09:28:10.352Z</time></trkpt><trkpt lat="44.3176677" lon="8.1860178"><ele>505.0</ele><time>2026-04-26T09:28:11.363Z</time></trkpt><trkpt lat="44.3178103" lon="8.1857169"><ele>502.5</ele><time>2026-04-26T09:28:12.354Z</time></trkpt><trkpt lat="44.3179594" lon="8.1854209"><ele>500.0</ele><time>2026-04-26T09:28:13.356Z</time></trkpt><trkpt lat="44.3180958" lon="8.1851344"><ele>506.0</ele><time>2026-04-26T09:28:14.356Z</time></trkpt><trkpt lat="44.3182307" lon="8.1848633"><ele>512.0</ele><time>2026-04-26T09:28:15.363Z</time></trkpt><trkpt lat="44.3183548" lon="8.1846114"><ele>512.0</ele><time>2026-04-26T09:28:16.37Z</time></trkpt><trkpt lat="44.3184625" lon="8.1843777"><ele>512.0</ele><time>2026-04-26T09:28:17.36Z</time></trkpt><trkpt lat="44.3185354" lon="8.1841354"><ele>512.0</ele><time>2026-04-26T09:28:18.365Z</time></trkpt><trkpt lat="44.318574" lon="8.1838462"><ele>511.66666666666663</ele><time>2026-04-26T09:28:19.377Z</time></trkpt><trkpt lat="44.3185912" lon="8.1835388"><ele>511.33333333333337</ele><time>2026-04-26T09:28:20.36Z</time></trkpt><trkpt lat="44.3186043" lon="8.1832581"><ele>511.0</ele><time>2026-04-26T09:28:21.362Z</time></trkpt><trkpt lat="44.3186223" lon="8.1829852"><ele>508.6666666666667</ele><time>2026-04-26T09:28:22.355Z</time></trkpt><trkpt lat="44.3186688" lon="8.182747"><ele>506.33333333333337</ele><time>2026-04-26T09:28:23.359Z</time></trkpt><trkpt lat="44.3187643" lon="8.1825584"><ele>504.0</ele><time>2026-04-26T09:28:24.35Z</time></trkpt><trkpt lat="44.3188938" lon="8.1824025"><ele>505.33333333333337</ele><time>2026-04-26T09:28:25.364Z</time></trkpt><trkpt lat="44.319047" lon="8.1822664"><ele>506.6666666666667</ele><time>2026-04-26T09:28:26.346Z</time></trkpt><trkpt lat="44.3192252" lon="8.1821223"><ele>508.0</ele><time>2026-04-26T09:28:27.354Z</time></trkpt><trkpt lat="44.3194105" lon="8.1819668"><ele>508.0</ele><time>2026-04-26T09:28:28.364Z</time></trkpt><trkpt lat="44.3195891" lon="8.181812"><ele>508.0</ele><time>2026-04-26T09:28:29.359Z</time></trkpt><trkpt lat="44.3197557" lon="8.1816602"><ele>508.0</ele><time>2026-04-26T09:28:30.353Z</time></trkpt><trkpt lat="44.3199104" lon="8.1814984"><ele>509.33333333333337</ele><time>2026-04-26T09:28:31.355Z</time></trkpt><trkpt lat="44.3200276" lon="8.1812877"><ele>510.66666666666663</ele><time>2026-04-26T09:28:32.385Z</time></trkpt><trkpt lat="44.3201123" lon="8.181023"><ele>512.0</ele><time>2026-04-26T09:28:33.362Z</time></trkpt><trkpt lat="44.3201924" lon="8.1807554"><ele>508.3333333333333</ele><time>2026-04-26T09:28:34.361Z</time></trkpt><trkpt lat="44.3202864" lon="8.1805016"><ele>504.66666666666663</ele><time>2026-04-26T09:28:35.362Z</time></trkpt><trkpt lat="44.3203979" lon="8.1802617"><ele>501.0</ele><time>2026-04-26T09:28:36.36Z</time></trkpt><trkpt lat="44.3205068" lon="8.1800043"><ele>507.33333333333337</ele><time>2026-04-26T09:28:37.352Z</time></trkpt><trkpt lat="44.3205974" lon="8.1797338"><ele>513.6666666666667</ele><time>2026-04-26T09:28:38.36Z</time></trkpt><trkpt lat="44.3206826" lon="8.1794515"><ele>520.0</ele><time>2026-04-26T09:28:39.353Z</time></trkpt><trkpt lat="44.3207599" lon="8.1791803"><ele>518.3333333333334</ele><time>2026-04-26T09:28:40.356Z</time></trkpt><trkpt lat="44.3208136" lon="8.1789251"><ele>516.6666666666666</ele><time>2026-04-26T09:28:41.364Z</time></trkpt><trkpt lat="44.320823" lon="8.1786567"><ele>515.0</ele><time>2026-04-26T09:28:42.363Z</time></trkpt><trkpt lat="44.3207788" lon="8.1783897"><ele>514.6666666666666</ele><time>2026-04-26T09:28:43.365Z</time></trkpt><trkpt lat="44.3206805" lon="8.1781506"><ele>514.3333333333334</ele><time>2026-04-26T09:28:44.351Z</time></trkpt><trkpt lat="44.3205833" lon="8.1778521"><ele>514.0</ele><time>2026-04-26T09:28:45.366Z</time></trkpt><trkpt lat="44.3204733" lon="8.1775991"><ele>512.6666666666667</ele><time>2026-04-26T09:28:46.351Z</time></trkpt><trkpt lat="44.3203637" lon="8.1773231"><ele>511.33333333333337</ele><time>2026-04-26T09:28:47.351Z</time></trkpt><trkpt lat="44.3202617" lon="8.1770517"><ele>510.0</ele><time>2026-04-26T09:28:48.36Z</time></trkpt><trkpt lat="44.3201575" lon="8.1767853"><ele>510.0</ele><time>2026-04-26T09:28:49.356Z</time></trkpt><trkpt lat="44.3200638" lon="8.1765459"><ele>510.0</ele><time>2026-04-26T09:28:50.355Z</time></trkpt><trkpt lat="44.3199749" lon="8.1763055"><ele>510.0</ele><time>2026-04-26T09:28:51.363Z</time></trkpt><trkpt lat="44.3198905" lon="8.1760873"><ele>511.0</ele><time>2026-04-26T09:28:52.361Z</time></trkpt><trkpt lat="44.3198077" lon="8.1758783"><ele>512.0</ele><time>2026-04-26T09:28:53.367Z</time></trkpt><trkpt lat="44.319733" lon="8.1756836"><ele>513.0</ele><time>2026-04-26T09:28:54.367Z</time></trkpt><trkpt lat="44.3196571" lon="8.1754881"><ele>513.0</ele><time>2026-04-26T09:28:55.367Z</time></trkpt><trkpt lat="44.3195846" lon="8.1753003"><ele>513.0</ele><time>2026-04-26T09:28:56.364Z</time></trkpt><trkpt lat="44.3195091" lon="8.1751238"><ele>513.0</ele><time>2026-04-26T09:28:57.369Z</time></trkpt><trkpt lat="44.3194249" lon="8.1749617"><ele>513.0</ele><time>2026-04-26T09:28:58.364Z</time></trkpt><trkpt lat="44.319326" lon="8.1748192"><ele>517.3333333333334</ele><time>2026-04-26T09:28:59.368Z</time></trkpt><trkpt lat="44.3192048" lon="8.1747163"><ele>521.6666666666667</ele><time>2026-04-26T09:29:00.368Z</time></trkpt><trkpt lat="44.319065" lon="8.1746247"><ele>526.0</ele><time>2026-04-26T09:29:01.357Z</time></trkpt><trkpt lat="44.3189091" lon="8.1745657"><ele>525.3333333333334</ele><time>2026-04-26T09:29:02.367Z</time></trkpt><trkpt lat="44.3187491" lon="8.1745242"><ele>524.6666666666666</ele><time>2026-04-26T09:29:03.368Z</time></trkpt><trkpt lat="44.3185794" lon="8.1745169"><ele>524.0</ele><time>2026-04-26T09:29:04.361Z</time></trkpt><trkpt lat="44.3183986" lon="8.1745243"><ele>524.0</ele><time>2026-04-26T09:29:05.357Z</time></trkpt><trkpt lat="44.3182209" lon="8.1745165"><ele>524.0</ele><time>2026-04-26T09:29:06.353Z</time></trkpt><trkpt lat="44.3180382" lon="8.1745109"><ele>524.0</ele><time>2026-04-26T09:29:07.368Z</time></trkpt><trkpt lat="44.317859" lon="8.1745083"><ele>523.3333333333333</ele><time>2026-04-26T09:29:08.359Z</time></trkpt><trkpt lat="44.3176806" lon="8.1744855"><ele>522.6666666666666</ele><time>2026-04-26T09:29:09.39Z</time></trkpt><trkpt lat="44.3174824" lon="8.1744427"><ele>522.0</ele><time>2026-04-26T09:29:10.369Z</time></trkpt><trkpt lat="44.3173014" lon="8.1743666"><ele>520.3333333333334</ele><time>2026-04-26T09:29:11.37Z</time></trkpt><trkpt lat="44.3171228" lon="8.1742417"><ele>518.6666666666667</ele><time>2026-04-26T09:29:12.37Z</time></trkpt><trkpt lat="44.3169421" lon="8.1741176"><ele>517.0</ele><time>2026-04-26T09:29:13.363Z</time></trkpt><trkpt lat="44.3167671" lon="8.1739962"><ele>515.3333333333334</ele><time>2026-04-26T09:29:14.363Z</time></trkpt><trkpt lat="44.3166097" lon="8.1738748"><ele>513.6666666666666</ele><time>2026-04-26T09:29:15.361Z</time></trkpt><trkpt lat="44.3164686" lon="8.1737438"><ele>512.0</ele><time>2026-04-26T09:29:16.365Z</time></trkpt><trkpt lat="44.3163628" lon="8.1735618"><ele>512.0</ele><time>2026-04-26T09:29:17.375Z</time></trkpt><trkpt lat="44.3163053" lon="8.1733351"><ele>512.0</ele><time>2026-04-26T09:29:18.36Z</time></trkpt><trkpt lat="44.316278" lon="8.173079"><ele>512.0</ele><time>2026-04-26T09:29:19.373Z</time></trkpt><trkpt lat="44.3162595" lon="8.1728094"><ele>512.0</ele><time>2026-04-26T09:29:20.365Z</time></trkpt><trkpt lat="44.3162296" lon="8.1725442"><ele>512.0</ele><time>2026-04-26T09:29:21.36Z</time></trkpt><trkpt lat="44.3162292" lon="8.1723077"><ele>512.0</ele><time>2026-04-26T09:29:22.365Z</time></trkpt><trkpt lat="44.3162721" lon="8.1720888"><ele>512.0</ele><time>2026-04-26T09:29:23.364Z</time></trkpt><trkpt lat="44.3163436" lon="8.1718843"><ele>512.0</ele><time>2026-04-26T09:29:24.361Z</time></trkpt><trkpt lat="44.3163982" lon="8.1716658"><ele>512.0</ele><time>2026-04-26T09:29:25.372Z</time></trkpt><trkpt lat="44.3164141" lon="8.1714306"><ele>511.66666666666663</ele><time>2026-04-26T09:29:26.368Z</time></trkpt><trkpt lat="44.3163633" lon="8.1711939"><ele>511.33333333333337</ele><time>2026-04-26T09:29:27.364Z</time></trkpt><trkpt lat="44.3163083" lon="8.1709369"><ele>511.0</ele><time>2026-04-26T09:29:28.358Z</time></trkpt><trkpt lat="44.3162747" lon="8.1706525"><ele>511.0</ele><time>2026-04-26T09:29:29.367Z</time></trkpt><trkpt lat="44.3162809" lon="8.1703682"><ele>511.0</ele><time>2026-04-26T09:29:30.359Z</time></trkpt><trkpt lat="44.3163379" lon="8.1701129"><ele>511.0</ele><time>2026-04-26T09:29:31.367Z</time></trkpt><trkpt lat="44.3164441" lon="8.169887"><ele>513.6666666666667</ele><time>2026-04-26T09:29:32.353Z</time></trkpt><trkpt lat="44.3165617" lon="8.1696619"><ele>516.3333333333334</ele><time>2026-04-26T09:29:33.361Z</time></trkpt><trkpt lat="44.3166908" lon="8.1694459"><ele>519.0</ele><time>2026-04-26T09:29:34.356Z</time></trkpt><trkpt lat="44.3167974" lon="8.1692201"><ele>518.3333333333334</ele><time>2026-04-26T09:29:35.36Z</time></trkpt><trkpt lat="44.3168812" lon="8.168982"><ele>517.6666666666667</ele><time>2026-04-26T09:29:36.354Z</time></trkpt><trkpt lat="44.3169456" lon="8.1687337"><ele>517.0</ele><time>2026-04-26T09:29:37.356Z</time></trkpt><trkpt lat="44.3169903" lon="8.1684573"><ele>517.6666666666667</ele><time>2026-04-26T09:29:38.361Z</time></trkpt><trkpt lat="44.3170021" lon="8.1681816"><ele>518.3333333333334</ele><time>2026-04-26T09:29:39.363Z</time></trkpt><trkpt lat="44.317011" lon="8.1679149"><ele>519.0</ele><time>2026-04-26T09:29:40.361Z</time></trkpt><trkpt lat="44.3170169" lon="8.1676609"><ele>519.0</ele><time>2026-04-26T09:29:41.366Z</time></trkpt><trkpt lat="44.3170417" lon="8.1674318"><ele>519.0</ele><time>2026-04-26T09:29:42.359Z</time></trkpt><trkpt lat="44.3170932" lon="8.1672011"><ele>519.0</ele><time>2026-04-26T09:29:43.36Z</time></trkpt><trkpt lat="44.31717" lon="8.166977"><ele>520.3333333333334</ele><time>2026-04-26T09:29:44.357Z</time></trkpt><trkpt lat="44.3172604" lon="8.1667449"><ele>521.6666666666667</ele><time>2026-04-26T09:29:45.359Z</time></trkpt><trkpt lat="44.317332" lon="8.1665122"><ele>523.0</ele><time>2026-04-26T09:29:46.357Z</time></trkpt><trkpt lat="44.3173864" lon="8.1662785"><ele>523.0</ele><time>2026-04-26T09:29:47.372Z</time></trkpt><trkpt lat="44.3174017" lon="8.16606"><ele>523.0</ele><time>2026-04-26T09:29:48.365Z</time></trkpt><trkpt lat="44.3173759" lon="8.16586"><ele>523.0</ele><time>2026-04-26T09:29:49.362Z</time></trkpt><trkpt lat="44.3172747" lon="8.1656175"><ele>521.3333333333334</ele><time>2026-04-26T09:29:50.378Z</time></trkpt><trkpt lat="44.3171857" lon="8.1653833"><ele>519.6666666666666</ele><time>2026-04-26T09:29:51.356Z</time></trkpt><trkpt lat="44.3170976" lon="8.1651379"><ele>518.0</ele><time>2026-04-26T09:29:52.355Z</time></trkpt><trkpt lat="44.317014" lon="8.1649135"><ele>518.75</ele><time>2026-04-26T09:29:53.36Z</time></trkpt><trkpt lat="44.3169401" lon="8.1647053"><ele>519.5</ele><time>2026-04-26T09:29:54.386Z</time></trkpt><trkpt lat="44.3168749" lon="8.1645222"><ele>520.25</ele><time>2026-04-26T09:29:55.362Z</time></trkpt><trkpt lat="44.3168258" lon="8.1643765"><ele>521.0</ele><time>2026-04-26T09:29:56.358Z</time></trkpt><trkpt lat="44.3167956" lon="8.1642608"><ele>521.0</ele><time>2026-04-26T09:29:57.367Z</time></trkpt><trkpt lat="44.3167627" lon="8.1641643"><ele>521.0</ele><time>2026-04-26T09:29:58.364Z</time></trkpt><trkpt lat="44.3167177" lon="8.1640422"><ele>521.0</ele><time>2026-04-26T09:29:59.376Z</time></trkpt><trkpt lat="44.3166583" lon="8.1638806"><ele>521.0</ele><time>2026-04-26T09:30:00.392Z</time></trkpt><trkpt lat="44.3166022" lon="8.1636763"><ele>521.6666666666666</ele><time>2026-04-26T09:30:01.379Z</time></trkpt><trkpt lat="44.3165523" lon="8.1634588"><ele>522.3333333333334</ele><time>2026-04-26T09:30:02.358Z</time></trkpt><trkpt lat="44.3165013" lon="8.1632362"><ele>523.0</ele><time>2026-04-26T09:30:03.366Z</time></trkpt><trkpt lat="44.316449" lon="8.1630037"><ele>522.6666666666667</ele><time>2026-04-26T09:30:04.365Z</time></trkpt><trkpt lat="44.3163902" lon="8.1627744"><ele>522.3333333333334</ele><time>2026-04-26T09:30:05.367Z</time></trkpt><trkpt lat="44.3163119" lon="8.1625417"><ele>522.0</ele><time>2026-04-26T09:30:06.38Z</time></trkpt><trkpt lat="44.3162097" lon="8.162326"><ele>523.0</ele><time>2026-04-26T09:30:07.381Z</time></trkpt><trkpt lat="44.3161086" lon="8.1621315"><ele>524.0</ele><time>2026-04-26T09:30:08.358Z</time></trkpt><trkpt lat="44.3160033" lon="8.1619552"><ele>525.0</ele><time>2026-04-26T09:30:09.368Z</time></trkpt><trkpt lat="44.3159094" lon="8.1617905"><ele>525.0</ele><time>2026-04-26T09:30:10.365Z</time></trkpt><trkpt lat="44.3158187" lon="8.1616452"><ele>525.0</ele><time>2026-04-26T09:30:11.364Z</time></trkpt><trkpt lat="44.3157315" lon="8.1615041"><ele>525.0</ele><time>2026-04-26T09:30:12.364Z</time></trkpt><trkpt lat="44.315641" lon="8.1613717"><ele>525.0</ele><time>2026-04-26T09:30:13.366Z</time></trkpt><trkpt lat="44.3155497" lon="8.1612482"><ele>524.25</ele><time>2026-04-26T09:30:14.378Z</time></trkpt><trkpt lat="44.3154601" lon="8.1611265"><ele>523.5</ele><time>2026-04-26T09:30:15.367Z</time></trkpt><trkpt lat="44.3153711" lon="8.161012"><ele>522.75</ele><time>2026-04-26T09:30:16.365Z</time></trkpt><trkpt lat="44.3152828" lon="8.160895"><ele>522.0</ele><time>2026-04-26T09:30:17.366Z</time></trkpt><trkpt lat="44.3151978" lon="8.1607734"><ele>522.8000000000001</ele><time>2026-04-26T09:30:18.362Z</time></trkpt><trkpt lat="44.3151091" lon="8.1606736"><ele>523.6</ele><time>2026-04-26T09:30:19.37Z</time></trkpt><trkpt lat="44.3150319" lon="8.1605785"><ele>524.4000000000001</ele><time>2026-04-26T09:30:20.362Z</time></trkpt><trkpt lat="44.3149543" lon="8.1604895"><ele>525.2</ele><time>2026-04-26T09:30:21.359Z</time></trkpt><trkpt lat="44.3148769" lon="8.1603968"><ele>526.0</ele><time>2026-04-26T09:30:22.367Z</time></trkpt><trkpt lat="44.3147987" lon="8.1603017"><ele>524.25</ele><time>2026-04-26T09:30:23.37Z</time></trkpt><trkpt lat="44.3147103" lon="8.1602014"><ele>522.5</ele><time>2026-04-26T09:30:24.365Z</time></trkpt><trkpt lat="44.3146216" lon="8.1600907"><ele>520.75</ele><time>2026-04-26T09:30:25.365Z</time></trkpt><trkpt lat="44.3145209" lon="8.1599765"><ele>519.0</ele><time>2026-04-26T09:30:26.375Z</time></trkpt><trkpt lat="44.3144165" lon="8.1598417"><ele>522.5</ele><time>2026-04-26T09:30:27.368Z</time></trkpt><trkpt lat="44.3143029" lon="8.1597086"><ele>526.0</ele><time>2026-04-26T09:30:28.359Z</time></trkpt><trkpt lat="44.3141936" lon="8.1595707"><ele>529.5</ele><time>2026-04-26T09:30:29.369Z</time></trkpt><trkpt lat="44.3140815" lon="8.1594367"><ele>533.0</ele><time>2026-04-26T09:30:30.363Z</time></trkpt><trkpt lat="44.3139687" lon="8.1593099"><ele>533.75</ele><time>2026-04-26T09:30:31.367Z</time></trkpt><trkpt lat="44.313859" lon="8.159197"><ele>534.5</ele><time>2026-04-26T09:30:32.364Z</time></trkpt><trkpt lat="44.3137496" lon="8.1590876"><ele>535.25</ele><time>2026-04-26T09:30:33.37Z</time></trkpt><trkpt lat="44.3136373" lon="8.1589822"><ele>536.0</ele><time>2026-04-26T09:30:34.364Z</time></trkpt><trkpt lat="44.3135278" lon="8.1588596"><ele>536.0</ele><time>2026-04-26T09:30:35.372Z</time></trkpt><trkpt lat="44.3134225" lon="8.1587233"><ele>536.0</ele><time>2026-04-26T09:30:36.37Z</time></trkpt><trkpt lat="44.3133203" lon="8.1585833"><ele>536.0</ele><time>2026-04-26T09:30:37.366Z</time></trkpt><trkpt lat="44.3132251" lon="8.1584441"><ele>536.0</ele><time>2026-04-26T09:30:38.355Z</time></trkpt><trkpt lat="44.3131396" lon="8.1583061"><ele>536.0</ele><time>2026-04-26T09:30:39.365Z</time></trkpt><trkpt lat="44.3130652" lon="8.1581579"><ele>536.0</ele><time>2026-04-26T09:30:40.376Z</time></trkpt><trkpt lat="44.3129805" lon="8.1579935"><ele>536.0</ele><time>2026-04-26T09:30:41.362Z</time></trkpt><trkpt lat="44.312892" lon="8.1578302"><ele>536.0</ele><time>2026-04-26T09:30:42.375Z</time></trkpt><trkpt lat="44.3127937" lon="8.1576746"><ele>536.0</ele><time>2026-04-26T09:30:43.371Z</time></trkpt><trkpt lat="44.3126888" lon="8.1575205"><ele>536.0</ele><time>2026-04-26T09:30:44.363Z</time></trkpt><trkpt lat="44.3125862" lon="8.1573912"><ele>536.0</ele><time>2026-04-26T09:30:45.373Z</time></trkpt><trkpt lat="44.3124777" lon="8.1572698"><ele>536.0</ele><time>2026-04-26T09:30:46.375Z</time></trkpt><trkpt lat="44.312355" lon="8.1571973"><ele>537.25</ele><time>2026-04-26T09:30:47.387Z</time></trkpt><trkpt lat="44.3122263" lon="8.1571362"><ele>538.5</ele><time>2026-04-26T09:30:48.358Z</time></trkpt><trkpt lat="44.312095" lon="8.1570796"><ele>539.75</ele><time>2026-04-26T09:30:49.367Z</time></trkpt><trkpt lat="44.3119679" lon="8.1570408"><ele>541.0</ele><time>2026-04-26T09:30:50.372Z</time></trkpt><trkpt lat="44.3118535" lon="8.156985"><ele>541.0</ele><time>2026-04-26T09:30:51.363Z</time></trkpt><trkpt lat="44.3117508" lon="8.156928"><ele>541.0</ele><time>2026-04-26T09:30:52.363Z</time></trkpt><trkpt lat="44.3116552" lon="8.1568513"><ele>541.0</ele><time>2026-04-26T09:30:53.364Z</time></trkpt><trkpt lat="44.3115609" lon="8.1567514"><ele>541.0</ele><time>2026-04-26T09:30:54.369Z</time></trkpt><trkpt lat="44.3114906" lon="8.1566119"><ele>540.5</ele><time>2026-04-26T09:30:55.368Z</time></trkpt><trkpt lat="44.311426" lon="8.1564564"><ele>540.0</ele><time>2026-04-26T09:30:56.369Z</time></trkpt><trkpt lat="44.3113503" lon="8.1562861"><ele>539.5</ele><time>2026-04-26T09:30:57.364Z</time></trkpt><trkpt lat="44.3112666" lon="8.1561333"><ele>539.0</ele><time>2026-04-26T09:30:58.372Z</time></trkpt><trkpt lat="44.3111716" lon="8.1560017"><ele>539.0</ele><time>2026-04-26T09:30:59.365Z</time></trkpt><trkpt lat="44.3110602" lon="8.1558834"><ele>539.0</ele><time>2026-04-26T09:31:00.364Z</time></trkpt><trkpt lat="44.3109253" lon="8.1557729"><ele>539.0</ele><time>2026-04-26T09:31:01.369Z</time></trkpt><trkpt lat="44.3107709" lon="8.1556635"><ele>535.3333333333333</ele><time>2026-04-26T09:31:02.367Z</time></trkpt><trkpt lat="44.3105977" lon="8.1555644"><ele>531.6666666666666</ele><time>2026-04-26T09:31:03.364Z</time></trkpt><trkpt lat="44.31044" lon="8.155464"><ele>528.0</ele><time>2026-04-26T09:31:04.371Z</time></trkpt><trkpt lat="44.3102949" lon="8.1553913"><ele>528.0</ele><time>2026-04-26T09:31:05.369Z</time></trkpt><trkpt lat="44.3101863" lon="8.1553016"><ele>528.0</ele><time>2026-04-26T09:31:06.367Z</time></trkpt><trkpt lat="44.3101024" lon="8.1551978"><ele>528.0</ele><time>2026-04-26T09:31:07.364Z</time></trkpt><trkpt lat="44.3100512" lon="8.1550566"><ele>528.0</ele><time>2026-04-26T09:31:08.367Z</time></trkpt><trkpt lat="44.3100174" lon="8.1548776"><ele>528.3333333333334</ele><time>2026-04-26T09:31:09.357Z</time></trkpt><trkpt lat="44.3100386" lon="8.1546103"><ele>528.6666666666667</ele><time>2026-04-26T09:31:10.363Z</time></trkpt><trkpt lat="44.3100751" lon="8.1543168"><ele>529.0</ele><time>2026-04-26T09:31:11.361Z</time></trkpt><trkpt lat="44.3101027" lon="8.1540269"><ele>530.0</ele><time>2026-04-26T09:31:12.361Z</time></trkpt><trkpt lat="44.3101087" lon="8.1537375"><ele>531.0</ele><time>2026-04-26T09:31:13.364Z</time></trkpt><trkpt lat="44.3101125" lon="8.153465"><ele>532.0</ele><time>2026-04-26T09:31:14.372Z</time></trkpt><trkpt lat="44.3100919" lon="8.1532198"><ele>533.0</ele><time>2026-04-26T09:31:15.374Z</time></trkpt><trkpt lat="44.310052" lon="8.1529694"><ele>534.0</ele><time>2026-04-26T09:31:16.364Z</time></trkpt><trkpt lat="44.3099832" lon="8.1527128"><ele>535.0</ele><time>2026-04-26T09:31:17.365Z</time></trkpt><trkpt lat="44.309908" lon="8.1524428"><ele>535.6666666666667</ele><time>2026-04-26T09:31:18.372Z</time></trkpt><trkpt lat="44.3098387" lon="8.1521556"><ele>536.3333333333334</ele><time>2026-04-26T09:31:19.363Z</time></trkpt><trkpt lat="44.3097861" lon="8.1518561"><ele>537.0</ele><time>2026-04-26T09:31:20.354Z</time></trkpt><trkpt lat="44.3097311" lon="8.1515621"><ele>534.3333333333334</ele><time>2026-04-26T09:31:21.365Z</time></trkpt><trkpt lat="44.3096729" lon="8.1512666"><ele>531.6666666666667</ele><time>2026-04-26T09:31:22.371Z</time></trkpt><trkpt lat="44.3096241" lon="8.1509678"><ele>529.0</ele><time>2026-04-26T09:31:23.37Z</time></trkpt><trkpt lat="44.3095648" lon="8.1506673"><ele>529.0</ele><time>2026-04-26T09:31:24.363Z</time></trkpt><trkpt lat="44.3095245" lon="8.1503821"><ele>529.0</ele><time>2026-04-26T09:31:25.37Z</time></trkpt><trkpt lat="44.3095331" lon="8.1501115"><ele>529.0</ele><time>2026-04-26T09:31:26.365Z</time></trkpt><trkpt lat="44.3095896" lon="8.1498658"><ele>531.6666666666667</ele><time>2026-04-26T09:31:27.36Z</time></trkpt><trkpt lat="44.3096867" lon="8.1496123"><ele>534.3333333333334</ele><time>2026-04-26T09:31:28.362Z</time></trkpt><trkpt lat="44.3098143" lon="8.1493837"><ele>537.0</ele><time>2026-04-26T09:31:29.369Z</time></trkpt><trkpt lat="44.3099358" lon="8.1491513"><ele>538.6666666666666</ele><time>2026-04-26T09:31:30.373Z</time></trkpt><trkpt lat="44.3100393" lon="8.1489338"><ele>540.3333333333333</ele><time>2026-04-26T09:31:31.377Z</time></trkpt><trkpt lat="44.310103" lon="8.1486976"><ele>542.0</ele><time>2026-04-26T09:31:32.366Z</time></trkpt><trkpt lat="44.3101207" lon="8.1484122"><ele>543.3333333333333</ele><time>2026-04-26T09:31:33.36Z</time></trkpt><trkpt lat="44.3101234" lon="8.1481075"><ele>544.6666666666666</ele><time>2026-04-26T09:31:34.358Z</time></trkpt><trkpt lat="44.3101417" lon="8.1477896"><ele>546.0</ele><time>2026-04-26T09:31:35.356Z</time></trkpt><trkpt lat="44.3101474" lon="8.1474528"><ele>544.5</ele><time>2026-04-26T09:31:36.358Z</time></trkpt><trkpt lat="44.3101465" lon="8.147109"><ele>543.0</ele><time>2026-04-26T09:31:37.363Z</time></trkpt><trkpt lat="44.3101272" lon="8.1467648"><ele>543.0</ele><time>2026-04-26T09:31:38.36Z</time></trkpt><trkpt lat="44.3100907" lon="8.1464439"><ele>543.0</ele><time>2026-04-26T09:31:39.362Z</time></trkpt><trkpt lat="44.31004" lon="8.1461492"><ele>543.0</ele><time>2026-04-26T09:31:40.356Z</time></trkpt><trkpt lat="44.3099878" lon="8.1458611"><ele>540.3333333333334</ele><time>2026-04-26T09:31:41.357Z</time></trkpt><trkpt lat="44.3099777" lon="8.1455752"><ele>537.6666666666667</ele><time>2026-04-26T09:31:42.357Z</time></trkpt><trkpt lat="44.3100241" lon="8.1452926"><ele>535.0</ele><time>2026-04-26T09:31:43.367Z</time></trkpt><trkpt lat="44.3101186" lon="8.1450437"><ele>536.6666666666667</ele><time>2026-04-26T09:31:44.366Z</time></trkpt><trkpt lat="44.3102358" lon="8.1448314"><ele>538.3333333333334</ele><time>2026-04-26T09:31:45.374Z</time></trkpt><trkpt lat="44.3103793" lon="8.144652"><ele>540.0</ele><time>2026-04-26T09:31:46.362Z</time></trkpt><trkpt lat="44.3105481" lon="8.1444739"><ele>539.6666666666666</ele><time>2026-04-26T09:31:47.363Z</time></trkpt><trkpt lat="44.3107162" lon="8.1442907"><ele>539.3333333333333</ele><time>2026-04-26T09:31:48.365Z</time></trkpt><trkpt lat="44.3108706" lon="8.1440976"><ele>539.0</ele><time>2026-04-26T09:31:49.368Z</time></trkpt><trkpt lat="44.311012" lon="8.1438945"><ele>539.0</ele><time>2026-04-26T09:31:50.358Z</time></trkpt><trkpt lat="44.3111324" lon="8.1436691"><ele>539.0</ele><time>2026-04-26T09:31:51.358Z</time></trkpt><trkpt lat="44.3112265" lon="8.1434042"><ele>539.0</ele><time>2026-04-26T09:31:52.362Z</time></trkpt><trkpt lat="44.3112875" lon="8.1431098"><ele>540.0</ele><time>2026-04-26T09:31:53.352Z</time></trkpt><trkpt lat="44.3113291" lon="8.1427824"><ele>541.0</ele><time>2026-04-26T09:31:54.353Z</time></trkpt><trkpt lat="44.3113514" lon="8.1424418"><ele>543.5</ele><time>2026-04-26T09:31:55.357Z</time></trkpt><trkpt lat="44.3113713" lon="8.1420806"><ele>546.0</ele><time>2026-04-26T09:31:56.359Z</time></trkpt><trkpt lat="44.311399" lon="8.1417031"><ele>550.5</ele><time>2026-04-26T09:31:57.354Z</time></trkpt><trkpt lat="44.3114337" lon="8.1413233"><ele>555.0</ele><time>2026-04-26T09:31:58.351Z</time></trkpt><trkpt lat="44.311459" lon="8.1409342"><ele>556.5</ele><time>2026-04-26T09:31:59.361Z</time></trkpt><trkpt lat="44.311472" lon="8.1405433"><ele>558.0</ele><time>2026-04-26T09:32:00.352Z</time></trkpt><trkpt lat="44.3114695" lon="8.1401509"><ele>559.0</ele><time>2026-04-26T09:32:01.359Z</time></trkpt><trkpt lat="44.3114544" lon="8.1397619"><ele>560.0</ele><time>2026-04-26T09:32:02.355Z</time></trkpt><trkpt lat="44.3114346" lon="8.1393842"><ele>560.5</ele><time>2026-04-26T09:32:03.361Z</time></trkpt><trkpt lat="44.3114202" lon="8.1390205"><ele>561.0</ele><time>2026-04-26T09:32:04.366Z</time></trkpt><trkpt lat="44.3114067" lon="8.1386568"><ele>552.5</ele><time>2026-04-26T09:32:05.358Z</time></trkpt><trkpt lat="44.3113913" lon="8.1383004"><ele>544.0</ele><time>2026-04-26T09:32:06.368Z</time></trkpt><trkpt lat="44.3113791" lon="8.1379478"><ele>543.5</ele><time>2026-04-26T09:32:07.366Z</time></trkpt><trkpt lat="44.3113681" lon="8.1375976"><ele>543.0</ele><time>2026-04-26T09:32:08.365Z</time></trkpt><trkpt lat="44.3113596" lon="8.1372396"><ele>545.5</ele><time>2026-04-26T09:32:09.359Z</time></trkpt><trkpt lat="44.3113462" lon="8.1368765"><ele>548.0</ele><time>2026-04-26T09:32:10.362Z</time></trkpt><trkpt lat="44.3113275" lon="8.1365131"><ele>556.5</ele><time>2026-04-26T09:32:11.364Z</time></trkpt><trkpt lat="44.311314" lon="8.1361557"><ele>565.0</ele><time>2026-04-26T09:32:12.359Z</time></trkpt><trkpt lat="44.3112988" lon="8.1357989"><ele>571.5</ele><time>2026-04-26T09:32:13.361Z</time></trkpt><trkpt lat="44.3112903" lon="8.1354401"><ele>578.0</ele><time>2026-04-26T09:32:14.359Z</time></trkpt><trkpt lat="44.3112801" lon="8.1350917"><ele>579.0</ele><time>2026-04-26T09:32:15.363Z</time></trkpt><trkpt lat="44.3112677" lon="8.1347463"><ele>580.0</ele><time>2026-04-26T09:32:16.358Z</time></trkpt><trkpt lat="44.3112555" lon="8.134413"><ele>580.0</ele><time>2026-04-26T09:32:17.359Z</time></trkpt><trkpt lat="44.3112381" lon="8.1340961"><ele>580.0</ele><time>2026-04-26T09:32:18.36Z</time></trkpt><trkpt lat="44.311203" lon="8.1337891"><ele>575.3333333333334</ele><time>2026-04-26T09:32:19.361Z</time></trkpt><trkpt lat="44.3111438" lon="8.133503"><ele>570.6666666666666</ele><time>2026-04-26T09:32:20.362Z</time></trkpt><trkpt lat="44.3110514" lon="8.1332307"><ele>566.0</ele><time>2026-04-26T09:32:21.357Z</time></trkpt><trkpt lat="44.3109101" lon="8.1329908"><ele>569.0</ele><time>2026-04-26T09:32:22.356Z</time></trkpt><trkpt lat="44.310754" lon="8.1327623"><ele>572.0</ele><time>2026-04-26T09:32:23.356Z</time></trkpt><trkpt lat="44.31056" lon="8.1325528"><ele>562.5</ele><time>2026-04-26T09:32:24.347Z</time></trkpt><trkpt lat="44.3103653" lon="8.132338"><ele>553.0</ele><time>2026-04-26T09:32:25.356Z</time></trkpt><trkpt lat="44.3101688" lon="8.1321213"><ele>553.0</ele><time>2026-04-26T09:32:26.349Z</time></trkpt><trkpt lat="44.3099731" lon="8.1318951"><ele>553.0</ele><time>2026-04-26T09:32:27.35Z</time></trkpt><trkpt lat="44.3097756" lon="8.1316668"><ele>560.5</ele><time>2026-04-26T09:32:28.358Z</time></trkpt><trkpt lat="44.3095929" lon="8.1314207"><ele>568.0</ele><time>2026-04-26T09:32:29.352Z</time></trkpt><trkpt lat="44.3094297" lon="8.1311723"><ele>568.0</ele><time>2026-04-26T09:32:30.373Z</time></trkpt><trkpt lat="44.3092812" lon="8.1309188"><ele>568.0</ele><time>2026-04-26T09:32:31.37Z</time></trkpt><trkpt lat="44.3091443" lon="8.1306445"><ele>561.0</ele><time>2026-04-26T09:32:32.364Z</time></trkpt><trkpt lat="44.3090083" lon="8.1303589"><ele>554.0</ele><time>2026-04-26T09:32:33.363Z</time></trkpt><trkpt lat="44.3088752" lon="8.130077"><ele>563.0</ele><time>2026-04-26T09:32:34.361Z</time></trkpt><trkpt lat="44.3087364" lon="8.1297796"><ele>572.0</ele><time>2026-04-26T09:32:35.361Z</time></trkpt><trkpt lat="44.308594" lon="8.1294744"><ele>572.0</ele><time>2026-04-26T09:32:36.359Z</time></trkpt><trkpt lat="44.3084634" lon="8.1291605"><ele>572.0</ele><time>2026-04-26T09:32:37.365Z</time></trkpt><trkpt lat="44.3083364" lon="8.128856"><ele>565.5</ele><time>2026-04-26T09:32:38.363Z</time></trkpt><trkpt lat="44.30821" lon="8.128558"><ele>559.0</ele><time>2026-04-26T09:32:39.364Z</time></trkpt><trkpt lat="44.3080925" lon="8.1282534"><ele>571.0</ele><time>2026-04-26T09:32:40.361Z</time></trkpt><trkpt lat="44.3079835" lon="8.1279286"><ele>583.0</ele><time>2026-04-26T09:32:41.365Z</time></trkpt><trkpt lat="44.3078935" lon="8.1275953"><ele>581.0</ele><time>2026-04-26T09:32:42.359Z</time></trkpt><trkpt lat="44.3078449" lon="8.1272303"><ele>579.0</ele><time>2026-04-26T09:32:43.367Z</time></trkpt><trkpt lat="44.3078009" lon="8.1268565"><ele>577.5</ele><time>2026-04-26T09:32:44.357Z</time></trkpt><trkpt lat="44.3077653" lon="8.1264866"><ele>576.0</ele><time>2026-04-26T09:32:45.352Z</time></trkpt><trkpt lat="44.3077405" lon="8.1261079"><ele>576.0</ele><time>2026-04-26T09:32:46.362Z</time></trkpt><trkpt lat="44.3077195" lon="8.1257421"><ele>576.0</ele><time>2026-04-26T09:32:47.361Z</time></trkpt><trkpt lat="44.307697" lon="8.1253704"><ele>576.0</ele><time>2026-04-26T09:32:48.358Z</time></trkpt><trkpt lat="44.3076729" lon="8.1249864"><ele>576.0</ele><time>2026-04-26T09:32:49.363Z</time></trkpt><trkpt lat="44.3076433" lon="8.1246056"><ele>576.0</ele><time>2026-04-26T09:32:50.357Z</time></trkpt><trkpt lat="44.3076144" lon="8.1242337"><ele>576.0</ele><time>2026-04-26T09:32:51.363Z</time></trkpt><trkpt lat="44.3075911" lon="8.1238575"><ele>575.0</ele><time>2026-04-26T09:32:52.374Z</time></trkpt><trkpt lat="44.3075711" lon="8.1234921"><ele>574.0</ele><time>2026-04-26T09:32:53.37Z</time></trkpt><trkpt lat="44.3075503" lon="8.123149"><ele>572.0</ele><time>2026-04-26T09:32:54.361Z</time></trkpt><trkpt lat="44.3075287" lon="8.1228238"><ele>570.0</ele><time>2026-04-26T09:32:55.356Z</time></trkpt><trkpt lat="44.3074968" lon="8.1225273"><ele>568.0</ele><time>2026-04-26T09:32:56.373Z</time></trkpt><trkpt lat="44.3074311" lon="8.1222585"><ele>568.3333333333334</ele><time>2026-04-26T09:32:57.366Z</time></trkpt><trkpt lat="44.3073308" lon="8.1220208"><ele>568.6666666666666</ele><time>2026-04-26T09:32:58.363Z</time></trkpt><trkpt lat="44.3072165" lon="8.1217853"><ele>569.0</ele><time>2026-04-26T09:32:59.357Z</time></trkpt><trkpt lat="44.3071023" lon="8.1215886"><ele>566.25</ele><time>2026-04-26T09:33:00.359Z</time></trkpt><trkpt lat="44.3069959" lon="8.1214551"><ele>563.5</ele><time>2026-04-26T09:33:01.382Z</time></trkpt><trkpt lat="44.3068885" lon="8.1213846"><ele>560.75</ele><time>2026-04-26T09:33:02.363Z</time></trkpt><trkpt lat="44.306787" lon="8.1213879"><ele>558.0</ele><time>2026-04-26T09:33:03.377Z</time></trkpt><trkpt lat="44.3066539" lon="8.1214308"><ele>558.0</ele><time>2026-04-26T09:33:04.366Z</time></trkpt><trkpt lat="44.3065058" lon="8.1214644"><ele>558.0</ele><time>2026-04-26T09:33:05.359Z</time></trkpt><trkpt lat="44.3063272" lon="8.1214888"><ele>558.0</ele><time>2026-04-26T09:33:06.361Z</time></trkpt><trkpt lat="44.3061422" lon="8.121501"><ele>558.3333333333334</ele><time>2026-04-26T09:33:07.364Z</time></trkpt><trkpt lat="44.3059367" lon="8.1215184"><ele>558.6666666666667</ele><time>2026-04-26T09:33:08.356Z</time></trkpt><trkpt lat="44.3057308" lon="8.1215399"><ele>559.0</ele><time>2026-04-26T09:33:09.367Z</time></trkpt><trkpt lat="44.3055251" lon="8.1215689"><ele>560.6666666666667</ele><time>2026-04-26T09:33:10.361Z</time></trkpt><trkpt lat="44.3053146" lon="8.1216002"><ele>562.3333333333334</ele><time>2026-04-26T09:33:11.364Z</time></trkpt><trkpt lat="44.3051204" lon="8.1216434"><ele>564.0</ele><time>2026-04-26T09:33:12.357Z</time></trkpt><trkpt lat="44.3049641" lon="8.1217297"><ele>564.0</ele><time>2026-04-26T09:33:13.356Z</time></trkpt><trkpt lat="44.3048429" lon="8.1218568"><ele>564.0</ele><time>2026-04-26T09:33:14.367Z</time></trkpt><trkpt lat="44.3047413" lon="8.1220269"><ele>564.0</ele><time>2026-04-26T09:33:15.365Z</time></trkpt><trkpt lat="44.3046702" lon="8.1222364"><ele>562.6666666666666</ele><time>2026-04-26T09:33:16.36Z</time></trkpt><trkpt lat="44.3046041" lon="8.1224675"><ele>561.3333333333333</ele><time>2026-04-26T09:33:17.369Z</time></trkpt><trkpt lat="44.3045348" lon="8.1226955"><ele>560.0</ele><time>2026-04-26T09:33:18.368Z</time></trkpt><trkpt lat="44.3044561" lon="8.1229288"><ele>560.0</ele><time>2026-04-26T09:33:19.364Z</time></trkpt><trkpt lat="44.3043717" lon="8.1231402"><ele>560.0</ele><time>2026-04-26T09:33:20.377Z</time></trkpt><trkpt lat="44.3042735" lon="8.123325"><ele>560.0</ele><time>2026-04-26T09:33:21.37Z</time></trkpt><trkpt lat="44.3041743" lon="8.1234884"><ele>560.3333333333333</ele><time>2026-04-26T09:33:22.39Z</time></trkpt><trkpt lat="44.3040484" lon="8.1236361"><ele>560.6666666666666</ele><time>2026-04-26T09:33:23.371Z</time></trkpt><trkpt lat="44.30389" lon="8.1237491"><ele>561.0</ele><time>2026-04-26T09:33:24.369Z</time></trkpt><trkpt lat="44.3037189" lon="8.123865"><ele>561.5</ele><time>2026-04-26T09:33:25.366Z</time></trkpt><trkpt lat="44.3035072" lon="8.1239658"><ele>562.0</ele><time>2026-04-26T09:33:26.359Z</time></trkpt><trkpt lat="44.3032703" lon="8.1240858"><ele>563.0</ele><time>2026-04-26T09:33:27.365Z</time></trkpt><trkpt lat="44.3030279" lon="8.1242136"><ele>564.0</ele><time>2026-04-26T09:33:28.37Z</time></trkpt><trkpt lat="44.3027984" lon="8.1243347"><ele>564.0</ele><time>2026-04-26T09:33:29.363Z</time></trkpt><trkpt lat="44.3025944" lon="8.1244456"><ele>564.0</ele><time>2026-04-26T09:33:30.354Z</time></trkpt><trkpt lat="44.3024066" lon="8.1245461"><ele>564.0</ele><time>2026-04-26T09:33:31.36Z</time></trkpt><trkpt lat="44.3021977" lon="8.1246112"><ele>565.0</ele><time>2026-04-26T09:33:32.362Z</time></trkpt><trkpt lat="44.3019761" lon="8.1246517"><ele>566.0</ele><time>2026-04-26T09:33:33.36Z</time></trkpt><trkpt lat="44.301754" lon="8.1246844"><ele>567.0</ele><time>2026-04-26T09:33:34.365Z</time></trkpt><trkpt lat="44.3015337" lon="8.1247104"><ele>569.0</ele><time>2026-04-26T09:33:35.36Z</time></trkpt><trkpt lat="44.3013174" lon="8.124731"><ele>571.0</ele><time>2026-04-26T09:33:36.358Z</time></trkpt><trkpt lat="44.3011227" lon="8.1247616"><ele>573.0</ele><time>2026-04-26T09:33:37.386Z</time></trkpt><trkpt lat="44.3009581" lon="8.1247721"><ele>573.0</ele><time>2026-04-26T09:33:38.371Z</time></trkpt><trkpt lat="44.3008018" lon="8.1247203"><ele>573.0</ele><time>2026-04-26T09:33:39.357Z</time></trkpt><trkpt lat="44.3006601" lon="8.1245864"><ele>573.0</ele><time>2026-04-26T09:33:40.357Z</time></trkpt><trkpt lat="44.3004993" lon="8.1244486"><ele>572.3333333333334</ele><time>2026-04-26T09:33:41.359Z</time></trkpt><trkpt lat="44.3003267" lon="8.1242985"><ele>571.6666666666667</ele><time>2026-04-26T09:33:42.355Z</time></trkpt><trkpt lat="44.300146" lon="8.1241303"><ele>571.0</ele><time>2026-04-26T09:33:43.373Z</time></trkpt><trkpt lat="44.2999721" lon="8.1239564"><ele>571.0</ele><time>2026-04-26T09:33:44.371Z</time></trkpt><trkpt lat="44.2998018" lon="8.1237639"><ele>571.0</ele><time>2026-04-26T09:33:45.353Z</time></trkpt><trkpt lat="44.2996496" lon="8.1235577"><ele>571.0</ele><time>2026-04-26T09:33:46.364Z</time></trkpt><trkpt lat="44.2995151" lon="8.1233187"><ele>575.0</ele><time>2026-04-26T09:33:47.365Z</time></trkpt><trkpt lat="44.2993792" lon="8.1230592"><ele>579.0</ele><time>2026-04-26T09:33:48.365Z</time></trkpt><trkpt lat="44.2992532" lon="8.1227876"><ele>579.0</ele><time>2026-04-26T09:33:49.363Z</time></trkpt><trkpt lat="44.2991337" lon="8.1225162"><ele>579.0</ele><time>2026-04-26T09:33:50.361Z</time></trkpt><trkpt lat="44.2990185" lon="8.1222582"><ele>579.0</ele><time>2026-04-26T09:33:51.367Z</time></trkpt><trkpt lat="44.2989024" lon="8.1220228"><ele>581.6666666666666</ele><time>2026-04-26T09:33:52.371Z</time></trkpt><trkpt lat="44.2987721" lon="8.1218333"><ele>584.3333333333333</ele><time>2026-04-26T09:33:53.364Z</time></trkpt><trkpt lat="44.2986185" lon="8.1216612"><ele>587.0</ele><time>2026-04-26T09:33:54.398Z</time></trkpt><trkpt lat="44.2984332" lon="8.1215262"><ele>583.3333333333333</ele><time>2026-04-26T09:33:55.371Z</time></trkpt><trkpt lat="44.2982329" lon="8.1214028"><ele>579.6666666666666</ele><time>2026-04-26T09:33:56.361Z</time></trkpt><trkpt lat="44.2980244" lon="8.1212883"><ele>576.0</ele><time>2026-04-26T09:33:57.361Z</time></trkpt><trkpt lat="44.2978323" lon="8.1211705"><ele>576.0</ele><time>2026-04-26T09:33:58.361Z</time></trkpt><trkpt lat="44.2976577" lon="8.1210768"><ele>576.0</ele><time>2026-04-26T09:33:59.351Z</time></trkpt><trkpt lat="44.2975037" lon="8.1210266"><ele>576.0</ele><time>2026-04-26T09:34:00.363Z</time></trkpt><trkpt lat="44.2973493" lon="8.1210478"><ele>574.3333333333334</ele><time>2026-04-26T09:34:01.371Z</time></trkpt><trkpt lat="44.2971703" lon="8.1211268"><ele>572.6666666666667</ele><time>2026-04-26T09:34:02.374Z</time></trkpt><trkpt lat="44.296985" lon="8.1212324"><ele>571.0</ele><time>2026-04-26T09:34:03.369Z</time></trkpt><trkpt lat="44.296799" lon="8.1213603"><ele>571.0</ele><time>2026-04-26T09:34:04.367Z</time></trkpt><trkpt lat="44.2966165" lon="8.1215017"><ele>571.0</ele><time>2026-04-26T09:34:05.369Z</time></trkpt><trkpt lat="44.2964486" lon="8.1216742"><ele>571.0</ele><time>2026-04-26T09:34:06.364Z</time></trkpt><trkpt lat="44.2962834" lon="8.1218599"><ele>572.0</ele><time>2026-04-26T09:34:07.365Z</time></trkpt><trkpt lat="44.2961241" lon="8.1220512"><ele>573.0</ele><time>2026-04-26T09:34:08.367Z</time></trkpt><trkpt lat="44.2959608" lon="8.1222315"><ele>574.0</ele><time>2026-04-26T09:34:09.365Z</time></trkpt><trkpt lat="44.2958044" lon="8.1224025"><ele>574.6666666666667</ele><time>2026-04-26T09:34:10.357Z</time></trkpt><trkpt lat="44.29565" lon="8.1225559"><ele>575.3333333333334</ele><time>2026-04-26T09:34:11.369Z</time></trkpt><trkpt lat="44.2955045" lon="8.1227095"><ele>576.0</ele><time>2026-04-26T09:34:12.369Z</time></trkpt><trkpt lat="44.2953519" lon="8.1228545"><ele>576.0</ele><time>2026-04-26T09:34:13.361Z</time></trkpt><trkpt lat="44.2952036" lon="8.1229849"><ele>576.0</ele><time>2026-04-26T09:34:14.36Z</time></trkpt><trkpt lat="44.2950404" lon="8.1230758"><ele>576.0</ele><time>2026-04-26T09:34:15.356Z</time></trkpt><trkpt lat="44.2948656" lon="8.1231342"><ele>576.0</ele><time>2026-04-26T09:34:16.363Z</time></trkpt><trkpt lat="44.2946774" lon="8.123164"><ele>576.0</ele><time>2026-04-26T09:34:17.364Z</time></trkpt><trkpt lat="44.2944779" lon="8.1231858"><ele>576.0</ele><time>2026-04-26T09:34:18.356Z</time></trkpt><trkpt lat="44.2942682" lon="8.1232038"><ele>576.0</ele><time>2026-04-26T09:34:19.363Z</time></trkpt><trkpt lat="44.2940685" lon="8.1232219"><ele>576.0</ele><time>2026-04-26T09:34:20.357Z</time></trkpt><trkpt lat="44.2938551" lon="8.1232084"><ele>576.0</ele><time>2026-04-26T09:34:21.37Z</time></trkpt><trkpt lat="44.293638" lon="8.1231977"><ele>576.0</ele><time>2026-04-26T09:34:22.372Z</time></trkpt><trkpt lat="44.2934125" lon="8.1231778"><ele>576.0</ele><time>2026-04-26T09:34:23.357Z</time></trkpt><trkpt lat="44.2931834" lon="8.1231551"><ele>595.5</ele><time>2026-04-26T09:34:24.358Z</time></trkpt><trkpt lat="44.2929487" lon="8.1231244"><ele>615.0</ele><time>2026-04-26T09:34:25.365Z</time></trkpt><trkpt lat="44.2927062" lon="8.1231049"><ele>615.0</ele><time>2026-04-26T09:34:26.369Z</time></trkpt><trkpt lat="44.2924619" lon="8.1230908"><ele>615.0</ele><time>2026-04-26T09:34:27.355Z</time></trkpt><trkpt lat="44.2913376" lon="8.1229095"><ele>617.5</ele><time>2026-04-26T09:34:32.35Z</time></trkpt><trkpt lat="44.2911015" lon="8.12292"><ele>620.0</ele><time>2026-04-26T09:34:33.355Z</time></trkpt><trkpt lat="44.2908725" lon="8.1229563"><ele>620.0</ele><time>2026-04-26T09:34:34.354Z</time></trkpt><trkpt lat="44.2906749" lon="8.1230501"><ele>620.0</ele><time>2026-04-26T09:34:35.356Z</time></trkpt><trkpt lat="44.2904758" lon="8.1231814"><ele>620.0</ele><time>2026-04-26T09:34:36.353Z</time></trkpt><trkpt lat="44.2902734" lon="8.1233239"><ele>610.0</ele><time>2026-04-26T09:34:37.361Z</time></trkpt><trkpt lat="44.2900709" lon="8.1234606"><ele>600.0</ele><time>2026-04-26T09:34:38.351Z</time></trkpt><trkpt lat="44.2898579" lon="8.1235981"><ele>607.5</ele><time>2026-04-26T09:34:39.362Z</time></trkpt><trkpt lat="44.2896447" lon="8.1237411"><ele>615.0</ele><time>2026-04-26T09:34:40.366Z</time></trkpt><trkpt lat="44.2894385" lon="8.1238654"><ele>615.0</ele><time>2026-04-26T09:34:41.358Z</time></trkpt><trkpt lat="44.2892366" lon="8.123968"><ele>615.0</ele><time>2026-04-26T09:34:42.37Z</time></trkpt><trkpt lat="44.2890438" lon="8.1240555"><ele>615.0</ele><time>2026-04-26T09:34:43.355Z</time></trkpt><trkpt lat="44.2888645" lon="8.1241403"><ele>611.3333333333334</ele><time>2026-04-26T09:34:44.356Z</time></trkpt><trkpt lat="44.288692" lon="8.1242075"><ele>607.6666666666667</ele><time>2026-04-26T09:34:45.355Z</time></trkpt><trkpt lat="44.28852" lon="8.12423"><ele>604.0</ele><time>2026-04-26T09:34:46.352Z</time></trkpt><trkpt lat="44.2883302" lon="8.1242475"><ele>604.0</ele><time>2026-04-26T09:34:47.357Z</time></trkpt><trkpt lat="44.288137" lon="8.1242802"><ele>604.0</ele><time>2026-04-26T09:34:48.358Z</time></trkpt><trkpt lat="44.287945" lon="8.1243399"><ele>604.0</ele><time>2026-04-26T09:34:49.344Z</time></trkpt><trkpt lat="44.2877435" lon="8.1244092"><ele>608.0</ele><time>2026-04-26T09:34:50.351Z</time></trkpt><trkpt lat="44.2875157" lon="8.1244765"><ele>612.0</ele><time>2026-04-26T09:34:51.359Z</time></trkpt><trkpt lat="44.2872771" lon="8.1245513"><ele>617.3333333333334</ele><time>2026-04-26T09:34:52.357Z</time></trkpt><trkpt lat="44.2870594" lon="8.1246407"><ele>622.6666666666667</ele><time>2026-04-26T09:34:53.358Z</time></trkpt><trkpt lat="44.2868525" lon="8.1247416"><ele>628.0</ele><time>2026-04-26T09:34:54.351Z</time></trkpt><trkpt lat="44.2866382" lon="8.1248585"><ele>626.0</ele><time>2026-04-26T09:34:55.353Z</time></trkpt><trkpt lat="44.2864374" lon="8.1249911"><ele>624.0</ele><time>2026-04-26T09:34:56.347Z</time></trkpt><trkpt lat="44.2862436" lon="8.12513"><ele>622.0</ele><time>2026-04-26T09:34:57.353Z</time></trkpt><trkpt lat="44.2860439" lon="8.1252625"><ele>622.0</ele><time>2026-04-26T09:34:58.356Z</time></trkpt><trkpt lat="44.2858454" lon="8.1253821"><ele>622.0</ele><time>2026-04-26T09:34:59.349Z</time></trkpt><trkpt lat="44.28564" lon="8.1254872"><ele>622.0</ele><time>2026-04-26T09:35:00.351Z</time></trkpt><trkpt lat="44.2854231" lon="8.1255674"><ele>614.5</ele><time>2026-04-26T09:35:01.353Z</time></trkpt><trkpt lat="44.2852039" lon="8.1256519"><ele>607.0</ele><time>2026-04-26T09:35:02.361Z</time></trkpt><trkpt lat="44.2849847" lon="8.1257541"><ele>607.0</ele><time>2026-04-26T09:35:03.36Z</time></trkpt><trkpt lat="44.2847996" lon="8.1258691"><ele>607.0</ele><time>2026-04-26T09:35:04.354Z</time></trkpt><trkpt lat="44.2846198" lon="8.1259851"><ele>607.0</ele><time>2026-04-26T09:35:05.348Z</time></trkpt><trkpt lat="44.2844602" lon="8.126068"><ele>606.3333333333334</ele><time>2026-04-26T09:35:06.356Z</time></trkpt><trkpt lat="44.2842843" lon="8.1261244"><ele>605.6666666666666</ele><time>2026-04-26T09:35:07.36Z</time></trkpt><trkpt lat="44.2841063" lon="8.1261166"><ele>605.0</ele><time>2026-04-26T09:35:08.349Z</time></trkpt><trkpt lat="44.2839854" lon="8.1259558"><ele>603.6666666666666</ele><time>2026-04-26T09:35:09.358Z</time></trkpt><trkpt lat="44.2838856" lon="8.125729"><ele>602.3333333333334</ele><time>2026-04-26T09:35:10.355Z</time></trkpt><trkpt lat="44.2837818" lon="8.1255146"><ele>601.0</ele><time>2026-04-26T09:35:11.357Z</time></trkpt><trkpt lat="44.2836577" lon="8.1253288"><ele>605.3333333333334</ele><time>2026-04-26T09:35:12.358Z</time></trkpt><trkpt lat="44.2834881" lon="8.1251791"><ele>609.6666666666666</ele><time>2026-04-26T09:35:13.358Z</time></trkpt><trkpt lat="44.2832879" lon="8.1250884"><ele>614.0</ele><time>2026-04-26T09:35:14.355Z</time></trkpt><trkpt lat="44.2830898" lon="8.1250024"><ele>614.0</ele><time>2026-04-26T09:35:15.358Z</time></trkpt><trkpt lat="44.2828995" lon="8.1249513"><ele>614.0</ele><time>2026-04-26T09:35:16.356Z</time></trkpt><trkpt lat="44.2827104" lon="8.1249309"><ele>614.0</ele><time>2026-04-26T09:35:17.349Z</time></trkpt><trkpt lat="44.2825052" lon="8.124948"><ele>614.0</ele><time>2026-04-26T09:35:18.356Z</time></trkpt><trkpt lat="44.2822982" lon="8.1249734"><ele>614.0</ele><time>2026-04-26T09:35:19.358Z</time></trkpt><trkpt lat="44.2820887" lon="8.1250086"><ele>614.0</ele><time>2026-04-26T09:35:20.356Z</time></trkpt><trkpt lat="44.2818736" lon="8.1250652"><ele>616.5</ele><time>2026-04-26T09:35:21.36Z</time></trkpt><trkpt lat="44.2816549" lon="8.1251509"><ele>619.0</ele><time>2026-04-26T09:35:22.351Z</time></trkpt><trkpt lat="44.2814292" lon="8.1252444"><ele>629.0</ele><time>2026-04-26T09:35:23.352Z</time></trkpt><trkpt lat="44.2812111" lon="8.1253478"><ele>639.0</ele><time>2026-04-26T09:35:24.365Z</time></trkpt><trkpt lat="44.2809991" lon="8.1254755"><ele>639.0</ele><time>2026-04-26T09:35:25.371Z</time></trkpt><trkpt lat="44.2807955" lon="8.1256139"><ele>639.0</ele><time>2026-04-26T09:35:26.354Z</time></trkpt><trkpt lat="44.2805729" lon="8.1257783"><ele>632.5</ele><time>2026-04-26T09:35:27.369Z</time></trkpt><trkpt lat="44.2803558" lon="8.1259363"><ele>626.0</ele><time>2026-04-26T09:35:28.344Z</time></trkpt><trkpt lat="44.2801341" lon="8.1260706"><ele>626.0</ele><time>2026-04-26T09:35:29.355Z</time></trkpt><trkpt lat="44.2799253" lon="8.1262226"><ele>626.0</ele><time>2026-04-26T09:35:30.348Z</time></trkpt><trkpt lat="44.2797146" lon="8.1263524"><ele>626.0</ele><time>2026-04-26T09:35:31.357Z</time></trkpt><trkpt lat="44.2795119" lon="8.1265071"><ele>626.0</ele><time>2026-04-26T09:35:32.349Z</time></trkpt><trkpt lat="44.2793559" lon="8.1267249"><ele>626.0</ele><time>2026-04-26T09:35:33.359Z</time></trkpt><trkpt lat="44.2792209" lon="8.1269491"><ele>626.0</ele><time>2026-04-26T09:35:34.358Z</time></trkpt><trkpt lat="44.2790955" lon="8.1271317"><ele>626.0</ele><time>2026-04-26T09:35:35.357Z</time></trkpt><trkpt lat="44.2789556" lon="8.1272905"><ele>622.0</ele><time>2026-04-26T09:35:36.36Z</time></trkpt><trkpt lat="44.2787952" lon="8.1274266"><ele>618.0</ele><time>2026-04-26T09:35:37.372Z</time></trkpt><trkpt lat="44.2786255" lon="8.127492"><ele>614.0</ele><time>2026-04-26T09:35:38.366Z</time></trkpt><trkpt lat="44.2784476" lon="8.1275234"><ele>614.0</ele><time>2026-04-26T09:35:39.361Z</time></trkpt><trkpt lat="44.2782596" lon="8.1275206"><ele>614.0</ele><time>2026-04-26T09:35:40.354Z</time></trkpt><trkpt lat="44.2780616" lon="8.1275096"><ele>614.0</ele><time>2026-04-26T09:35:41.363Z</time></trkpt><trkpt lat="44.2778557" lon="8.1274833"><ele>612.6666666666666</ele><time>2026-04-26T09:35:42.362Z</time></trkpt><trkpt lat="44.2776537" lon="8.127446"><ele>611.3333333333334</ele><time>2026-04-26T09:35:43.358Z</time></trkpt><trkpt lat="44.2774531" lon="8.12737"><ele>610.0</ele><time>2026-04-26T09:35:44.357Z</time></trkpt><trkpt lat="44.2772517" lon="8.1272703"><ele>614.0</ele><time>2026-04-26T09:35:45.364Z</time></trkpt><trkpt lat="44.2770421" lon="8.1271342"><ele>618.0</ele><time>2026-04-26T09:35:46.354Z</time></trkpt><trkpt lat="44.2768164" lon="8.1269842"><ele>618.0</ele><time>2026-04-26T09:35:47.371Z</time></trkpt><trkpt lat="44.2765896" lon="8.1268207"><ele>618.0</ele><time>2026-04-26T09:35:48.355Z</time></trkpt><trkpt lat="44.2763596" lon="8.1266487"><ele>617.5</ele><time>2026-04-26T09:35:49.355Z</time></trkpt><trkpt lat="44.27614" lon="8.1264628"><ele>617.0</ele><time>2026-04-26T09:35:50.381Z</time></trkpt><trkpt lat="44.2759332" lon="8.1262897"><ele>617.0</ele><time>2026-04-26T09:35:51.362Z</time></trkpt><trkpt lat="44.2757529" lon="8.1260984"><ele>617.0</ele><time>2026-04-26T09:35:52.356Z</time></trkpt><trkpt lat="44.2755851" lon="8.1259038"><ele>617.0</ele><time>2026-04-26T09:35:53.357Z</time></trkpt><trkpt lat="44.2754173" lon="8.1257043"><ele>617.0</ele><time>2026-04-26T09:35:54.353Z</time></trkpt><trkpt lat="44.27526" lon="8.1254987"><ele>617.0</ele><time>2026-04-26T09:35:55.361Z</time></trkpt><trkpt lat="44.2751194" lon="8.1252551"><ele>617.0</ele><time>2026-04-26T09:35:56.362Z</time></trkpt><trkpt lat="44.2749738" lon="8.1250059"><ele>616.0</ele><time>2026-04-26T09:35:57.361Z</time></trkpt><trkpt lat="44.2748259" lon="8.1247503"><ele>615.0</ele><time>2026-04-26T09:35:58.353Z</time></trkpt><trkpt lat="44.2746727" lon="8.1245032"><ele>615.0</ele><time>2026-04-26T09:35:59.357Z</time></trkpt><trkpt lat="44.2745086" lon="8.1242685"><ele>615.0</ele><time>2026-04-26T09:36:00.352Z</time></trkpt><trkpt lat="44.2743346" lon="8.1240463"><ele>629.0</ele><time>2026-04-26T09:36:01.359Z</time></trkpt><trkpt lat="44.2741533" lon="8.1238368"><ele>643.0</ele><time>2026-04-26T09:36:02.359Z</time></trkpt><trkpt lat="44.2739756" lon="8.1236396"><ele>628.0</ele><time>2026-04-26T09:36:03.361Z</time></trkpt><trkpt lat="44.2737822" lon="8.1234569"><ele>613.0</ele><time>2026-04-26T09:36:04.359Z</time></trkpt><trkpt lat="44.2735794" lon="8.1232895"><ele>631.5</ele><time>2026-04-26T09:36:05.36Z</time></trkpt><trkpt lat="44.2733703" lon="8.1231053"><ele>650.0</ele><time>2026-04-26T09:36:06.367Z</time></trkpt><trkpt lat="44.2731493" lon="8.122932"><ele>636.5</ele><time>2026-04-26T09:36:07.371Z</time></trkpt><trkpt lat="44.2729261" lon="8.1227652"><ele>623.0</ele><time>2026-04-26T09:36:08.364Z</time></trkpt><trkpt lat="44.2726953" lon="8.1225921"><ele>623.0</ele><time>2026-04-26T09:36:09.366Z</time></trkpt><trkpt lat="44.2724645" lon="8.1224236"><ele>623.0</ele><time>2026-04-26T09:36:10.364Z</time></trkpt><trkpt lat="44.2722373" lon="8.1222577"><ele>627.5</ele><time>2026-04-26T09:36:11.364Z</time></trkpt><trkpt lat="44.2720162" lon="8.1220977"><ele>632.0</ele><time>2026-04-26T09:36:12.366Z</time></trkpt><trkpt lat="44.2717979" lon="8.1219365"><ele>632.0</ele><time>2026-04-26T09:36:13.358Z</time></trkpt><trkpt lat="44.2715725" lon="8.12177"><ele>632.0</ele><time>2026-04-26T09:36:14.368Z</time></trkpt><trkpt lat="44.2713476" lon="8.1216017"><ele>630.5</ele><time>2026-04-26T09:36:15.364Z</time></trkpt><trkpt lat="44.2711265" lon="8.1214345"><ele>629.0</ele><time>2026-04-26T09:36:16.391Z</time></trkpt><trkpt lat="44.2709199" lon="8.1212812"><ele>629.0</ele><time>2026-04-26T09:36:17.371Z</time></trkpt><trkpt lat="44.2707406" lon="8.1211141"><ele>629.0</ele><time>2026-04-26T09:36:18.36Z</time></trkpt><trkpt lat="44.2705885" lon="8.1209175"><ele>629.0</ele><time>2026-04-26T09:36:19.359Z</time></trkpt><trkpt lat="44.2704351" lon="8.1206912"><ele>623.5</ele><time>2026-04-26T09:36:20.356Z</time></trkpt><trkpt lat="44.2702705" lon="8.1204612"><ele>618.0</ele><time>2026-04-26T09:36:21.346Z</time></trkpt><trkpt lat="44.2701205" lon="8.1202153"><ele>618.0</ele><time>2026-04-26T09:36:22.355Z</time></trkpt><trkpt lat="44.2699714" lon="8.119984"><ele>618.0</ele><time>2026-04-26T09:36:23.367Z</time></trkpt><trkpt lat="44.2698152" lon="8.1197648"><ele>618.0</ele><time>2026-04-26T09:36:24.351Z</time></trkpt><trkpt lat="44.2696285" lon="8.1195746"><ele>614.0</ele><time>2026-04-26T09:36:25.354Z</time></trkpt><trkpt lat="44.2694295" lon="8.1194027"><ele>610.0</ele><time>2026-04-26T09:36:26.385Z</time></trkpt><trkpt lat="44.2692328" lon="8.1192317"><ele>610.0</ele><time>2026-04-26T09:36:27.36Z</time></trkpt><trkpt lat="44.2690403" lon="8.1190743"><ele>610.0</ele><time>2026-04-26T09:36:28.358Z</time></trkpt><trkpt lat="44.2688509" lon="8.1189171"><ele>610.0</ele><time>2026-04-26T09:36:29.377Z</time></trkpt><trkpt lat="44.2686596" lon="8.118755"><ele>613.0</ele><time>2026-04-26T09:36:30.362Z</time></trkpt><trkpt lat="44.2684735" lon="8.1186155"><ele>616.0</ele><time>2026-04-26T09:36:31.369Z</time></trkpt><trkpt lat="44.268289" lon="8.1184894"><ele>619.0</ele><time>2026-04-26T09:36:32.355Z</time></trkpt><trkpt lat="44.2681151" lon="8.118378"><ele>618.3333333333334</ele><time>2026-04-26T09:36:33.356Z</time></trkpt><trkpt lat="44.2679581" lon="8.1182562"><ele>617.6666666666666</ele><time>2026-04-26T09:36:34.387Z</time></trkpt><trkpt lat="44.2678392" lon="8.1180956"><ele>617.0</ele><time>2026-04-26T09:36:35.372Z</time></trkpt><trkpt lat="44.267739" lon="8.1179272"><ele>617.0</ele><time>2026-04-26T09:36:36.362Z</time></trkpt><trkpt lat="44.2676411" lon="8.1177332"><ele>617.0</ele><time>2026-04-26T09:36:37.372Z</time></trkpt><trkpt lat="44.2675501" lon="8.1175212"><ele>617.0</ele><time>2026-04-26T09:36:38.37Z</time></trkpt><trkpt lat="44.2674459" lon="8.1173279"><ele>618.3333333333333</ele><time>2026-04-26T09:36:39.375Z</time></trkpt><trkpt lat="44.2673264" lon="8.1171668"><ele>619.6666666666666</ele><time>2026-04-26T09:36:40.371Z</time></trkpt><trkpt lat="44.2671765" lon="8.1170381"><ele>621.0</ele><time>2026-04-26T09:36:41.38Z</time></trkpt><trkpt lat="44.267041" lon="8.1169101"><ele>621.0</ele><time>2026-04-26T09:36:42.366Z</time></trkpt><trkpt lat="44.2669222" lon="8.1168004"><ele>621.0</ele><time>2026-04-26T09:36:43.373Z</time></trkpt><trkpt lat="44.2668239" lon="8.1167108"><ele>621.0</ele><time>2026-04-26T09:36:44.366Z</time></trkpt><trkpt lat="44.2667594" lon="8.1166699"><ele>621.0</ele><time>2026-04-26T09:36:45.366Z</time></trkpt><trkpt lat="44.266669" lon="8.1166469"><ele>621.0</ele><time>2026-04-26T09:36:47.367Z</time></trkpt><trkpt lat="44.266628" lon="8.116747"><ele>621.0</ele><time>2026-04-26T09:36:49.363Z</time></trkpt><trkpt lat="44.2665944" lon="8.1168352"><ele>621.0</ele><time>2026-04-26T09:36:50.357Z</time></trkpt><trkpt lat="44.266545" lon="8.1169693"><ele>621.0</ele><time>2026-04-26T09:36:51.356Z</time></trkpt><trkpt lat="44.2664825" lon="8.1171223"><ele>621.0</ele><time>2026-04-26T09:36:52.358Z</time></trkpt><trkpt lat="44.2664126" lon="8.1172996"><ele>623.5</ele><time>2026-04-26T09:36:53.374Z</time></trkpt><trkpt lat="44.2663312" lon="8.1174751"><ele>626.0</ele><time>2026-04-26T09:36:54.357Z</time></trkpt><trkpt lat="44.2662235" lon="8.117626"><ele>628.5</ele><time>2026-04-26T09:36:55.354Z</time></trkpt><trkpt lat="44.266101" lon="8.117734"><ele>631.0</ele><time>2026-04-26T09:36:56.358Z</time></trkpt><trkpt lat="44.2659526" lon="8.1177953"><ele>631.0</ele><time>2026-04-26T09:36:57.383Z</time></trkpt><trkpt lat="44.2657938" lon="8.1178404"><ele>631.0</ele><time>2026-04-26T09:36:58.363Z</time></trkpt><trkpt lat="44.2656163" lon="8.1178578"><ele>631.0</ele><time>2026-04-26T09:36:59.365Z</time></trkpt><trkpt lat="44.2654244" lon="8.1178709"><ele>632.3333333333334</ele><time>2026-04-26T09:37:00.357Z</time></trkpt><trkpt lat="44.2652294" lon="8.1178927"><ele>633.6666666666666</ele><time>2026-04-26T09:37:01.362Z</time></trkpt><trkpt lat="44.2650363" lon="8.1179368"><ele>635.0</ele><time>2026-04-26T09:37:02.365Z</time></trkpt><trkpt lat="44.2648348" lon="8.117991"><ele>638.0</ele><time>2026-04-26T09:37:03.371Z</time></trkpt><trkpt lat="44.2646364" lon="8.118071"><ele>641.0</ele><time>2026-04-26T09:37:04.364Z</time></trkpt><trkpt lat="44.2644608" lon="8.1181678"><ele>644.0</ele><time>2026-04-26T09:37:05.373Z</time></trkpt><trkpt lat="44.2642948" lon="8.1182644"><ele>640.0</ele><time>2026-04-26T09:37:06.367Z</time></trkpt><trkpt lat="44.2641415" lon="8.1183351"><ele>636.0</ele><time>2026-04-26T09:37:07.369Z</time></trkpt><trkpt lat="44.2639963" lon="8.1184082"><ele>632.0</ele><time>2026-04-26T09:37:08.356Z</time></trkpt><trkpt lat="44.2638554" lon="8.1184836"><ele>632.0</ele><time>2026-04-26T09:37:09.356Z</time></trkpt><trkpt lat="44.263718" lon="8.1185532"><ele>632.0</ele><time>2026-04-26T09:37:10.369Z</time></trkpt><trkpt lat="44.2635851" lon="8.1186086"><ele>632.0</ele><time>2026-04-26T09:37:11.365Z</time></trkpt><trkpt lat="44.2634428" lon="8.1186709"><ele>632.0</ele><time>2026-04-26T09:37:12.355Z</time></trkpt><trkpt lat="44.2633032" lon="8.1187413"><ele>632.0</ele><time>2026-04-26T09:37:13.359Z</time></trkpt><trkpt lat="44.2631616" lon="8.1188072"><ele>632.0</ele><time>2026-04-26T09:37:14.363Z</time></trkpt><trkpt lat="44.2630118" lon="8.1188703"><ele>632.0</ele><time>2026-04-26T09:37:15.363Z</time></trkpt><trkpt lat="44.2628491" lon="8.1189162"><ele>629.6666666666666</ele><time>2026-04-26T09:37:16.363Z</time></trkpt><trkpt lat="44.2626831" lon="8.118951"><ele>627.3333333333334</ele><time>2026-04-26T09:37:17.364Z</time></trkpt><trkpt lat="44.2625148" lon="8.1190001"><ele>625.0</ele><time>2026-04-26T09:37:18.359Z</time></trkpt><trkpt lat="44.2623358" lon="8.1190757"><ele>629.0</ele><time>2026-04-26T09:37:19.362Z</time></trkpt><trkpt lat="44.2621565" lon="8.119164"><ele>633.0</ele><time>2026-04-26T09:37:20.356Z</time></trkpt><trkpt lat="44.2619895" lon="8.1192396"><ele>637.0</ele><time>2026-04-26T09:37:21.371Z</time></trkpt><trkpt lat="44.2618148" lon="8.1192862"><ele>637.0</ele><time>2026-04-26T09:37:22.361Z</time></trkpt><trkpt lat="44.2616272" lon="8.1193056"><ele>637.0</ele><time>2026-04-26T09:37:23.36Z</time></trkpt><trkpt lat="44.2614129" lon="8.1193126"><ele>637.0</ele><time>2026-04-26T09:37:24.359Z</time></trkpt><trkpt lat="44.2612018" lon="8.1193407"><ele>636.6666666666667</ele><time>2026-04-26T09:37:25.36Z</time></trkpt><trkpt lat="44.2609967" lon="8.1193968"><ele>636.3333333333334</ele><time>2026-04-26T09:37:26.365Z</time></trkpt><trkpt lat="44.2607928" lon="8.1194976"><ele>636.0</ele><time>2026-04-26T09:37:27.367Z</time></trkpt><trkpt lat="44.2605873" lon="8.1196326"><ele>633.5</ele><time>2026-04-26T09:37:28.383Z</time></trkpt><trkpt lat="44.2603932" lon="8.1197859"><ele>631.0</ele><time>2026-04-26T09:37:29.36Z</time></trkpt><trkpt lat="44.260194" lon="8.1199487"><ele>631.0</ele><time>2026-04-26T09:37:30.365Z</time></trkpt><trkpt lat="44.2600028" lon="8.1201036"><ele>631.0</ele><time>2026-04-26T09:37:31.362Z</time></trkpt><trkpt lat="44.2598152" lon="8.1202546"><ele>631.0</ele><time>2026-04-26T09:37:32.366Z</time></trkpt><trkpt lat="44.2596487" lon="8.1203787"><ele>631.0</ele><time>2026-04-26T09:37:33.364Z</time></trkpt><trkpt lat="44.259495" lon="8.120426"><ele>631.0</ele><time>2026-04-26T09:37:34.356Z</time></trkpt><trkpt lat="44.2593496" lon="8.1203888"><ele>631.0</ele><time>2026-04-26T09:37:35.371Z</time></trkpt><trkpt lat="44.25921" lon="8.1202924"><ele>631.0</ele><time>2026-04-26T09:37:36.375Z</time></trkpt><trkpt lat="44.259094" lon="8.1201682"><ele>631.0</ele><time>2026-04-26T09:37:37.358Z</time></trkpt><trkpt lat="44.2589931" lon="8.1200704"><ele>631.0</ele><time>2026-04-26T09:37:38.357Z</time></trkpt><trkpt lat="44.2588782" lon="8.1200632"><ele>631.0</ele><time>2026-04-26T09:37:39.375Z</time></trkpt><trkpt lat="44.258749" lon="8.1200618"><ele>627.6666666666667</ele><time>2026-04-26T09:37:40.358Z</time></trkpt><trkpt lat="44.2585806" lon="8.120101"><ele>624.3333333333334</ele><time>2026-04-26T09:37:41.359Z</time></trkpt><trkpt lat="44.2584014" lon="8.1201445"><ele>621.0</ele><time>2026-04-26T09:37:42.357Z</time></trkpt><trkpt lat="44.2582203" lon="8.1201791"><ele>623.6666666666666</ele><time>2026-04-26T09:37:43.364Z</time></trkpt><trkpt lat="44.2580419" lon="8.1201912"><ele>626.3333333333333</ele><time>2026-04-26T09:37:44.365Z</time></trkpt><trkpt lat="44.2579188" lon="8.1201209"><ele>629.0</ele><time>2026-04-26T09:37:45.372Z</time></trkpt><trkpt lat="44.2578473" lon="8.119905"><ele>629.3333333333333</ele><time>2026-04-26T09:37:46.368Z</time></trkpt><trkpt lat="44.2577682" lon="8.1197009"><ele>629.6666666666666</ele><time>2026-04-26T09:37:47.36Z</time></trkpt><trkpt lat="44.2577019" lon="8.1194487"><ele>630.0</ele><time>2026-04-26T09:37:48.37Z</time></trkpt><trkpt lat="44.2576194" lon="8.1191809"><ele>630.3333333333334</ele><time>2026-04-26T09:37:49.367Z</time></trkpt><trkpt lat="44.2575331" lon="8.1189125"><ele>630.6666666666667</ele><time>2026-04-26T09:37:50.373Z</time></trkpt><trkpt lat="44.2574537" lon="8.1186611"><ele>631.0</ele><time>2026-04-26T09:37:51.364Z</time></trkpt><trkpt lat="44.2574058" lon="8.1183949"><ele>629.3333333333334</ele><time>2026-04-26T09:37:52.363Z</time></trkpt><trkpt lat="44.2573733" lon="8.1181159"><ele>627.6666666666666</ele><time>2026-04-26T09:37:53.365Z</time></trkpt><trkpt lat="44.2573387" lon="8.1178394"><ele>626.0</ele><time>2026-04-26T09:37:54.366Z</time></trkpt><trkpt lat="44.2572699" lon="8.1175965"><ele>631.0</ele><time>2026-04-26T09:37:55.367Z</time></trkpt><trkpt lat="44.2571591" lon="8.117369"><ele>636.0</ele><time>2026-04-26T09:37:56.358Z</time></trkpt><trkpt lat="44.2570315" lon="8.1171359"><ele>641.0</ele><time>2026-04-26T09:37:57.367Z</time></trkpt><trkpt lat="44.2569041" lon="8.1169052"><ele>641.0</ele><time>2026-04-26T09:37:58.36Z</time></trkpt><trkpt lat="44.2567852" lon="8.1166599"><ele>641.0</ele><time>2026-04-26T09:37:59.361Z</time></trkpt><trkpt lat="44.2566805" lon="8.1164095"><ele>641.0</ele><time>2026-04-26T09:38:00.36Z</time></trkpt><trkpt lat="44.2565741" lon="8.1161792"><ele>642.0</ele><time>2026-04-26T09:38:01.357Z</time></trkpt><trkpt lat="44.2564601" lon="8.115986"><ele>643.0</ele><time>2026-04-26T09:38:02.358Z</time></trkpt><trkpt lat="44.2563252" lon="8.1158149"><ele>644.0</ele><time>2026-04-26T09:38:03.375Z</time></trkpt><trkpt lat="44.2561593" lon="8.1156601"><ele>638.6666666666666</ele><time>2026-04-26T09:38:04.361Z</time></trkpt><trkpt lat="44.2559903" lon="8.1155236"><ele>633.3333333333334</ele><time>2026-04-26T09:38:05.355Z</time></trkpt><trkpt lat="44.2557972" lon="8.1154253"><ele>628.0</ele><time>2026-04-26T09:38:06.364Z</time></trkpt><trkpt lat="44.2556172" lon="8.1153463"><ele>628.0</ele><time>2026-04-26T09:38:07.36Z</time></trkpt><trkpt lat="44.2554443" lon="8.1152833"><ele>628.0</ele><time>2026-04-26T09:38:08.357Z</time></trkpt><trkpt lat="44.255268" lon="8.1152499"><ele>628.0</ele><time>2026-04-26T09:38:09.355Z</time></trkpt><trkpt lat="44.2551045" lon="8.1152475"><ele>628.0</ele><time>2026-04-26T09:38:10.357Z</time></trkpt><trkpt lat="44.2549506" lon="8.11532"><ele>628.0</ele><time>2026-04-26T09:38:11.354Z</time></trkpt><trkpt lat="44.2548006" lon="8.1154322"><ele>628.0</ele><time>2026-04-26T09:38:12.347Z</time></trkpt><trkpt lat="44.2546462" lon="8.1155586"><ele>632.75</ele><time>2026-04-26T09:38:13.355Z</time></trkpt><trkpt lat="44.2545008" lon="8.1156711"><ele>637.5</ele><time>2026-04-26T09:38:14.362Z</time></trkpt><trkpt lat="44.2543785" lon="8.1157847"><ele>642.25</ele><time>2026-04-26T09:38:15.371Z</time></trkpt><trkpt lat="44.2542971" lon="8.1158916"><ele>647.0</ele><time>2026-04-26T09:38:16.362Z</time></trkpt><trkpt lat="44.2542476" lon="8.1160074"><ele>647.0</ele><time>2026-04-26T09:38:17.372Z</time></trkpt><trkpt lat="44.2542094" lon="8.1161354"><ele>647.0</ele><time>2026-04-26T09:38:18.358Z</time></trkpt><trkpt lat="44.2541829" lon="8.116288"><ele>647.0</ele><time>2026-04-26T09:38:19.365Z</time></trkpt><trkpt lat="44.2541651" lon="8.1164522"><ele>647.0</ele><time>2026-04-26T09:38:20.372Z</time></trkpt><trkpt lat="44.2541561" lon="8.116608"><ele>647.0</ele><time>2026-04-26T09:38:21.363Z</time></trkpt><trkpt lat="44.2541797" lon="8.1168128"><ele>645.0</ele><time>2026-04-26T09:38:22.368Z</time></trkpt><trkpt lat="44.2542256" lon="8.1170521"><ele>643.0</ele><time>2026-04-26T09:38:23.365Z</time></trkpt><trkpt lat="44.2542654" lon="8.1172912"><ele>641.0</ele><time>2026-04-26T09:38:24.364Z</time></trkpt><trkpt lat="44.254303" lon="8.1175022"><ele>640.5999999999999</ele><time>2026-04-26T09:38:25.36Z</time></trkpt><trkpt lat="44.2543244" lon="8.1176598"><ele>640.1999999999999</ele><time>2026-04-26T09:38:26.366Z</time></trkpt><trkpt lat="44.2543241" lon="8.1178026"><ele>639.8</ele><time>2026-04-26T09:38:27.366Z</time></trkpt><trkpt lat="44.254279" lon="8.1178948"><ele>639.4</ele><time>2026-04-26T09:38:28.367Z</time></trkpt><trkpt lat="44.2542178" lon="8.1179387"><ele>639.0</ele><time>2026-04-26T09:38:29.363Z</time></trkpt><trkpt lat="44.2541215" lon="8.1179439"><ele>639.0</ele><time>2026-04-26T09:38:30.357Z</time></trkpt><trkpt lat="44.2540139" lon="8.117893"><ele>639.0</ele><time>2026-04-26T09:38:31.355Z</time></trkpt><trkpt lat="44.2538725" lon="8.1177954"><ele>639.0</ele><time>2026-04-26T09:38:32.367Z</time></trkpt><trkpt lat="44.2537173" lon="8.1176681"><ele>640.0</ele><time>2026-04-26T09:38:33.366Z</time></trkpt><trkpt lat="44.2535492" lon="8.1175188"><ele>641.0</ele><time>2026-04-26T09:38:34.363Z</time></trkpt><trkpt lat="44.2533726" lon="8.1173831"><ele>642.0</ele><time>2026-04-26T09:38:35.356Z</time></trkpt><trkpt lat="44.2531923" lon="8.1172822"><ele>649.6666666666666</ele><time>2026-04-26T09:38:36.362Z</time></trkpt><trkpt lat="44.2530138" lon="8.1172282"><ele>657.3333333333333</ele><time>2026-04-26T09:38:37.371Z</time></trkpt><trkpt lat="44.2528114" lon="8.1172454"><ele>665.0</ele><time>2026-04-26T09:38:38.357Z</time></trkpt><trkpt lat="44.2526118" lon="8.1172344"><ele>665.0</ele><time>2026-04-26T09:38:39.378Z</time></trkpt><trkpt lat="44.2524068" lon="8.1172188"><ele>665.0</ele><time>2026-04-26T09:38:40.398Z</time></trkpt><trkpt lat="44.2521886" lon="8.1171609"><ele>665.0</ele><time>2026-04-26T09:38:41.379Z</time></trkpt><trkpt lat="44.2519729" lon="8.1170615"><ele>659.0</ele><time>2026-04-26T09:38:42.373Z</time></trkpt><trkpt lat="44.2517742" lon="8.1169344"><ele>653.0</ele><time>2026-04-26T09:38:43.364Z</time></trkpt><trkpt lat="44.2515964" lon="8.1167649"><ele>647.0</ele><time>2026-04-26T09:38:44.363Z</time></trkpt><trkpt lat="44.2514145" lon="8.1165969"><ele>649.5</ele><time>2026-04-26T09:38:45.36Z</time></trkpt><trkpt lat="44.2512181" lon="8.1164186"><ele>652.0</ele><time>2026-04-26T09:38:46.351Z</time></trkpt><trkpt lat="44.2510262" lon="8.1162276"><ele>652.0</ele><time>2026-04-26T09:38:47.36Z</time></trkpt><trkpt lat="44.2508388" lon="8.1160496"><ele>652.0</ele><time>2026-04-26T09:38:48.35Z</time></trkpt><trkpt lat="44.2506574" lon="8.1158869"><ele>652.0</ele><time>2026-04-26T09:38:49.359Z</time></trkpt><trkpt lat="44.2504539" lon="8.1157481"><ele>659.6666666666667</ele><time>2026-04-26T09:38:50.356Z</time></trkpt><trkpt lat="44.2502399" lon="8.1156528"><ele>667.3333333333334</ele><time>2026-04-26T09:38:51.374Z</time></trkpt><trkpt lat="44.2500268" lon="8.115578"><ele>675.0</ele><time>2026-04-26T09:38:52.365Z</time></trkpt><trkpt lat="44.2498015" lon="8.1155748"><ele>676.0</ele><time>2026-04-26T09:38:53.362Z</time></trkpt><trkpt lat="44.2495688" lon="8.1155854"><ele>677.0</ele><time>2026-04-26T09:38:54.36Z</time></trkpt><trkpt lat="44.2493375" lon="8.1156073"><ele>677.0</ele><time>2026-04-26T09:38:55.368Z</time></trkpt><trkpt lat="44.2491006" lon="8.1156247"><ele>677.0</ele><time>2026-04-26T09:38:56.363Z</time></trkpt><trkpt lat="44.2488714" lon="8.1156487"><ele>676.0</ele><time>2026-04-26T09:38:57.358Z</time></trkpt><trkpt lat="44.248641" lon="8.1156508"><ele>675.0</ele><time>2026-04-26T09:38:58.364Z</time></trkpt><trkpt lat="44.2484265" lon="8.1156124"><ele>674.0</ele><time>2026-04-26T09:38:59.365Z</time></trkpt><trkpt lat="44.2482147" lon="8.1155437"><ele>666.0</ele><time>2026-04-26T09:39:00.348Z</time></trkpt><trkpt lat="44.248018" lon="8.1154458"><ele>658.0</ele><time>2026-04-26T09:39:01.362Z</time></trkpt><trkpt lat="44.2478225" lon="8.1153185"><ele>650.0</ele><time>2026-04-26T09:39:02.358Z</time></trkpt><trkpt lat="44.2476332" lon="8.1151729"><ele>650.0</ele><time>2026-04-26T09:39:03.367Z</time></trkpt><trkpt lat="44.2474499" lon="8.1150059"><ele>650.0</ele><time>2026-04-26T09:39:04.359Z</time></trkpt><trkpt lat="44.247265" lon="8.1148318"><ele>650.0</ele><time>2026-04-26T09:39:05.357Z</time></trkpt><trkpt lat="44.2470786" lon="8.1146492"><ele>644.5</ele><time>2026-04-26T09:39:06.367Z</time></trkpt><trkpt lat="44.2468764" lon="8.1144687"><ele>639.0</ele><time>2026-04-26T09:39:07.392Z</time></trkpt><trkpt lat="44.2466737" lon="8.1142791"><ele>639.0</ele><time>2026-04-26T09:39:08.353Z</time></trkpt><trkpt lat="44.2464701" lon="8.1140757"><ele>639.0</ele><time>2026-04-26T09:39:09.388Z</time></trkpt><trkpt lat="44.2462598" lon="8.1138783"><ele>637.5</ele><time>2026-04-26T09:39:10.375Z</time></trkpt><trkpt lat="44.246049" lon="8.1136811"><ele>636.0</ele><time>2026-04-26T09:39:11.369Z</time></trkpt><trkpt lat="44.2458365" lon="8.1134949"><ele>636.0</ele><time>2026-04-26T09:39:12.377Z</time></trkpt><trkpt lat="44.2456236" lon="8.1133275"><ele>636.0</ele><time>2026-04-26T09:39:13.372Z</time></trkpt><trkpt lat="44.2454006" lon="8.113183"><ele>637.0</ele><time>2026-04-26T09:39:14.389Z</time></trkpt><trkpt lat="44.2451689" lon="8.1130803"><ele>638.0</ele><time>2026-04-26T09:39:15.372Z</time></trkpt><trkpt lat="44.2449279" lon="8.1130088"><ele>638.5</ele><time>2026-04-26T09:39:16.366Z</time></trkpt><trkpt lat="44.2446819" lon="8.1129386"><ele>639.0</ele><time>2026-04-26T09:39:17.386Z</time></trkpt><trkpt lat="44.2444484" lon="8.1128622"><ele>639.0</ele><time>2026-04-26T09:39:18.395Z</time></trkpt><trkpt lat="44.2442183" lon="8.1127887"><ele>639.0</ele><time>2026-04-26T09:39:19.372Z</time></trkpt><trkpt lat="44.2440059" lon="8.1127179"><ele>639.6666666666666</ele><time>2026-04-26T09:39:20.376Z</time></trkpt><trkpt lat="44.2438018" lon="8.1126361"><ele>640.3333333333333</ele><time>2026-04-26T09:39:21.375Z</time></trkpt><trkpt lat="44.2435921" lon="8.1125621"><ele>641.0</ele><time>2026-04-26T09:39:22.371Z</time></trkpt><trkpt lat="44.2433833" lon="8.1124935"><ele>641.0</ele><time>2026-04-26T09:39:23.367Z</time></trkpt><trkpt lat="44.2431644" lon="8.1124592"><ele>641.0</ele><time>2026-04-26T09:39:24.372Z</time></trkpt><trkpt lat="44.2429478" lon="8.1124544"><ele>641.0</ele><time>2026-04-26T09:39:25.366Z</time></trkpt><trkpt lat="44.2427349" lon="8.1124909"><ele>641.0</ele><time>2026-04-26T09:39:26.361Z</time></trkpt><trkpt lat="44.2425161" lon="8.1125539"><ele>641.0</ele><time>2026-04-26T09:39:27.376Z</time></trkpt><trkpt lat="44.2422882" lon="8.112641"><ele>642.0</ele><time>2026-04-26T09:39:28.363Z</time></trkpt><trkpt lat="44.2420646" lon="8.1127197"><ele>643.0</ele><time>2026-04-26T09:39:29.382Z</time></trkpt><trkpt lat="44.241826" lon="8.1127939"><ele>643.0</ele><time>2026-04-26T09:39:30.379Z</time></trkpt><trkpt lat="44.2415843" lon="8.112876"><ele>643.0</ele><time>2026-04-26T09:39:31.377Z</time></trkpt><trkpt lat="44.2413459" lon="8.1129552"><ele>644.0</ele><time>2026-04-26T09:39:32.366Z</time></trkpt><trkpt lat="44.241098" lon="8.1130249"><ele>645.0</ele><time>2026-04-26T09:39:33.373Z</time></trkpt><trkpt lat="44.2408479" lon="8.1131004"><ele>646.0</ele><time>2026-04-26T09:39:34.365Z</time></trkpt><trkpt lat="44.2405964" lon="8.1131815"><ele>647.0</ele><time>2026-04-26T09:39:35.376Z</time></trkpt><trkpt lat="44.2403451" lon="8.113262"><ele>644.5</ele><time>2026-04-26T09:39:36.367Z</time></trkpt><trkpt lat="44.2400952" lon="8.113341"><ele>642.0</ele><time>2026-04-26T09:39:37.381Z</time></trkpt><trkpt lat="44.239845" lon="8.1134304"><ele>642.5</ele><time>2026-04-26T09:39:38.368Z</time></trkpt><trkpt lat="44.2396013" lon="8.1135419"><ele>643.0</ele><time>2026-04-26T09:39:39.373Z</time></trkpt><trkpt lat="44.2393611" lon="8.1136772"><ele>643.0</ele><time>2026-04-26T09:39:40.369Z</time></trkpt><trkpt lat="44.2391301" lon="8.1138253"><ele>643.0</ele><time>2026-04-26T09:39:41.367Z</time></trkpt><trkpt lat="44.2388955" lon="8.1139777"><ele>642.0</ele><time>2026-04-26T09:39:42.375Z</time></trkpt><trkpt lat="44.2386735" lon="8.1141447"><ele>641.0</ele><time>2026-04-26T09:39:43.364Z</time></trkpt><trkpt lat="44.2384622" lon="8.1143154"><ele>641.0</ele><time>2026-04-26T09:39:44.407Z</time></trkpt><trkpt lat="44.2382662" lon="8.1145013"><ele>641.0</ele><time>2026-04-26T09:39:45.367Z</time></trkpt><trkpt lat="44.2380893" lon="8.1146748"><ele>641.3333333333333</ele><time>2026-04-26T09:39:46.378Z</time></trkpt><trkpt lat="44.237927" lon="8.1148494"><ele>641.6666666666666</ele><time>2026-04-26T09:39:47.375Z</time></trkpt><trkpt lat="44.2377776" lon="8.1150183"><ele>642.0</ele><time>2026-04-26T09:39:48.37Z</time></trkpt><trkpt lat="44.2376408" lon="8.1151965"><ele>642.0</ele><time>2026-04-26T09:39:49.373Z</time></trkpt><trkpt lat="44.2375151" lon="8.1153595"><ele>642.0</ele><time>2026-04-26T09:39:50.376Z</time></trkpt><trkpt lat="44.2373992" lon="8.1155156"><ele>642.0</ele><time>2026-04-26T09:39:51.373Z</time></trkpt><trkpt lat="44.2372902" lon="8.1156517"><ele>642.2</ele><time>2026-04-26T09:39:52.371Z</time></trkpt><trkpt lat="44.2371952" lon="8.1157587"><ele>642.4000000000001</ele><time>2026-04-26T09:39:53.368Z</time></trkpt><trkpt lat="44.2371019" lon="8.1158489"><ele>642.5999999999999</ele><time>2026-04-26T09:39:54.381Z</time></trkpt><trkpt lat="44.2370226" lon="8.115916"><ele>642.8</ele><time>2026-04-26T09:39:55.377Z</time></trkpt><trkpt lat="44.2369479" lon="8.1159554"><ele>643.0</ele><time>2026-04-26T09:39:56.375Z</time></trkpt><trkpt lat="44.2368488" lon="8.115989"><ele>643.0</ele><time>2026-04-26T09:39:58.368Z</time></trkpt><trkpt lat="44.2367669" lon="8.1161662"><ele>643.0</ele><time>2026-04-26T09:40:00.37Z</time></trkpt><trkpt lat="44.2367243" lon="8.1163088"><ele>643.0</ele><time>2026-04-26T09:40:01.375Z</time></trkpt><trkpt lat="44.2366759" lon="8.1164203"><ele>643.0</ele><time>2026-04-26T09:40:02.379Z</time></trkpt><trkpt lat="44.2366411" lon="8.1165019"><ele>643.0</ele><time>2026-04-26T09:40:03.367Z</time></trkpt><trkpt lat="44.2366455" lon="8.1166407"><ele>643.5999999999999</ele><time>2026-04-26T09:40:05.357Z</time></trkpt><trkpt lat="44.2367479" lon="8.1167116"><ele>644.1999999999999</ele><time>2026-04-26T09:40:07.37Z</time></trkpt><trkpt lat="44.2368306" lon="8.1167509"><ele>644.8</ele><time>2026-04-26T09:40:09.373Z</time></trkpt><trkpt lat="44.2369358" lon="8.1167096"><ele>645.4</ele><time>2026-04-26T09:41:27.361Z</time></trkpt><trkpt lat="44.2369587" lon="8.1166093"><ele>646.0</ele><time>2026-04-26T09:42:24.366Z</time></trkpt><trkpt lat="44.2369462" lon="8.1167438"><ele>646.0</ele><time>2026-04-26T09:44:28.365Z</time></trkpt><trkpt lat="44.23698" lon="8.1166486"><ele>646.0</ele><time>2026-04-26T09:44:31.359Z</time></trkpt><trkpt lat="44.2369781" lon="8.1165532"><ele>646.0</ele><time>2026-04-26T09:44:33.368Z</time></trkpt><trkpt lat="44.2369842" lon="8.1164179"><ele>646.0</ele><time>2026-04-26T09:44:35.36Z</time></trkpt><trkpt lat="44.2370066" lon="8.116278"><ele>646.0</ele><time>2026-04-26T09:44:37.375Z</time></trkpt><trkpt lat="44.2370123" lon="8.1161149"><ele>645.8</ele><time>2026-04-26T09:44:39.371Z</time></trkpt><trkpt lat="44.236931" lon="8.1160099"><ele>645.5999999999999</ele><time>2026-04-26T09:44:41.353Z</time></trkpt><trkpt lat="44.2368325" lon="8.1159436"><ele>645.4</ele><time>2026-04-26T09:44:43.372Z</time></trkpt><trkpt lat="44.2367831" lon="8.1158788"><ele>645.2</ele><time>2026-04-26T09:44:44.362Z</time></trkpt><trkpt lat="44.2367463" lon="8.1157829"><ele>645.0</ele><time>2026-04-26T09:44:45.366Z</time></trkpt><trkpt lat="44.236713" lon="8.1156714"><ele>645.0</ele><time>2026-04-26T09:44:46.389Z</time></trkpt><trkpt lat="44.2366799" lon="8.1155584"><ele>645.0</ele><time>2026-04-26T09:44:47.361Z</time></trkpt><trkpt lat="44.2366568" lon="8.1154332"><ele>645.0</ele><time>2026-04-26T09:44:48.371Z</time></trkpt><trkpt lat="44.2366299" lon="8.1153163"><ele>645.0</ele><time>2026-04-26T09:44:49.371Z</time></trkpt><trkpt lat="44.2366053" lon="8.1151865"><ele>645.0</ele><time>2026-04-26T09:44:50.358Z</time></trkpt><trkpt lat="44.2365754" lon="8.1150573"><ele>645.0</ele><time>2026-04-26T09:44:51.366Z</time></trkpt><trkpt lat="44.2365405" lon="8.1149268"><ele>645.0</ele><time>2026-04-26T09:44:52.359Z</time></trkpt><trkpt lat="44.2365085" lon="8.1147892"><ele>645.0</ele><time>2026-04-26T09:44:53.367Z</time></trkpt><trkpt lat="44.2364773" lon="8.1146561"><ele>645.0</ele><time>2026-04-26T09:44:54.395Z</time></trkpt><trkpt lat="44.2364528" lon="8.1145428"><ele>645.0</ele><time>2026-04-26T09:44:55.366Z</time></trkpt><trkpt lat="44.236444" lon="8.1144283"><ele>645.6666666666666</ele><time>2026-04-26T09:44:56.37Z</time></trkpt><trkpt lat="44.2364487" lon="8.1143232"><ele>646.3333333333334</ele><time>2026-04-26T09:44:57.365Z</time></trkpt><trkpt lat="44.2365144" lon="8.1141721"><ele>647.0</ele><time>2026-04-26T09:44:59.357Z</time></trkpt><trkpt lat="44.236579" lon="8.1141077"><ele>647.6666666666667</ele><time>2026-04-26T09:45:00.386Z</time></trkpt><trkpt lat="44.2366346" lon="8.1140294"><ele>648.3333333333334</ele><time>2026-04-26T09:45:01.37Z</time></trkpt><trkpt lat="44.2366918" lon="8.113945"><ele>649.0</ele><time>2026-04-26T09:45:02.369Z</time></trkpt><trkpt lat="44.236748" lon="8.1138642"><ele>651.4000000000001</ele><time>2026-04-26T09:45:03.362Z</time></trkpt><trkpt lat="44.2368042" lon="8.1137866"><ele>653.8</ele><time>2026-04-26T09:45:04.365Z</time></trkpt><trkpt lat="44.2368556" lon="8.1137111"><ele>656.2</ele><time>2026-04-26T09:45:05.368Z</time></trkpt><trkpt lat="44.236934" lon="8.113603"><ele>658.5999999999999</ele><time>2026-04-26T09:45:07.361Z</time></trkpt><trkpt lat="44.2370078" lon="8.1134884"><ele>661.0</ele><time>2026-04-26T09:45:09.372Z</time></trkpt><trkpt lat="44.237096" lon="8.1133733"><ele>661.0</ele><time>2026-04-26T09:45:11.373Z</time></trkpt><trkpt lat="44.2371524" lon="8.1133125"><ele>661.0</ele><time>2026-04-26T09:45:12.359Z</time></trkpt><trkpt lat="44.2372076" lon="8.1132467"><ele>661.0</ele><time>2026-04-26T09:45:13.357Z</time></trkpt><trkpt lat="44.2372605" lon="8.113182"><ele>661.0</ele><time>2026-04-26T09:45:14.372Z</time></trkpt><trkpt lat="44.2373248" lon="8.1131153"><ele>661.0</ele><time>2026-04-26T09:45:15.368Z</time></trkpt><trkpt lat="44.237385" lon="8.1130487"><ele>661.0</ele><time>2026-04-26T09:45:16.369Z</time></trkpt><trkpt lat="44.2374411" lon="8.1129748"><ele>661.0</ele><time>2026-04-26T09:45:17.357Z</time></trkpt><trkpt lat="44.2374955" lon="8.1128913"><ele>660.8333333333334</ele><time>2026-04-26T09:45:18.368Z</time></trkpt><trkpt lat="44.2375602" lon="8.1128231"><ele>660.6666666666667</ele><time>2026-04-26T09:45:19.368Z</time></trkpt><trkpt lat="44.2376228" lon="8.1127529"><ele>660.5</ele><time>2026-04-26T09:45:20.36Z</time></trkpt><trkpt lat="44.2376756" lon="8.1126828"><ele>660.3333333333334</ele><time>2026-04-26T09:45:21.369Z</time></trkpt><trkpt lat="44.237726" lon="8.1126283"><ele>660.1666666666666</ele><time>2026-04-26T09:45:22.36Z</time></trkpt><trkpt lat="44.2377751" lon="8.1125581"><ele>660.0</ele><time>2026-04-26T09:45:23.348Z</time></trkpt><trkpt lat="44.2378329" lon="8.1124656"><ele>664.5</ele><time>2026-04-26T09:45:24.363Z</time></trkpt><trkpt lat="44.2378907" lon="8.1123172"><ele>669.0</ele><time>2026-04-26T09:45:25.359Z</time></trkpt><trkpt lat="44.2379519" lon="8.1121516"><ele>673.5</ele><time>2026-04-26T09:45:26.377Z</time></trkpt><trkpt lat="44.2380036" lon="8.1119929"><ele>678.0</ele><time>2026-04-26T09:45:27.358Z</time></trkpt><trkpt lat="44.2380551" lon="8.1118373"><ele>678.0</ele><time>2026-04-26T09:45:28.363Z</time></trkpt><trkpt lat="44.2381096" lon="8.1116928"><ele>678.0</ele><time>2026-04-26T09:45:29.368Z</time></trkpt><trkpt lat="44.2381836" lon="8.1115698"><ele>678.0</ele><time>2026-04-26T09:45:30.372Z</time></trkpt><trkpt lat="44.2382562" lon="8.1115078"><ele>678.0</ele><time>2026-04-26T09:45:31.358Z</time></trkpt><trkpt lat="44.2383472" lon="8.1114724"><ele>678.0</ele><time>2026-04-26T09:45:32.368Z</time></trkpt><trkpt lat="44.2384474" lon="8.1115039"><ele>672.2</ele><time>2026-04-26T09:45:33.384Z</time></trkpt><trkpt lat="44.2385437" lon="8.111545"><ele>666.4</ele><time>2026-04-26T09:45:34.388Z</time></trkpt><trkpt lat="44.2386396" lon="8.1115941"><ele>660.6</ele><time>2026-04-26T09:45:35.358Z</time></trkpt><trkpt lat="44.2387121" lon="8.1116411"><ele>654.8000000000001</ele><time>2026-04-26T09:45:36.366Z</time></trkpt><trkpt lat="44.2388087" lon="8.111658"><ele>649.0</ele><time>2026-04-26T09:45:38.36Z</time></trkpt><trkpt lat="44.238844" lon="8.1115562"><ele>649.0</ele><time>2026-04-26T09:45:40.358Z</time></trkpt><trkpt lat="44.238831" lon="8.1113982"><ele>649.0</ele><time>2026-04-26T09:45:42.361Z</time></trkpt><trkpt lat="44.2388247" lon="8.1112933"><ele>649.0</ele><time>2026-04-26T09:45:43.361Z</time></trkpt><trkpt lat="44.2388101" lon="8.1111449"><ele>649.0</ele><time>2026-04-26T09:45:44.362Z</time></trkpt><trkpt lat="44.2387957" lon="8.1109654"><ele>649.0</ele><time>2026-04-26T09:45:45.36Z</time></trkpt><trkpt lat="44.2387819" lon="8.1107656"><ele>649.5</ele><time>2026-04-26T09:45:46.361Z</time></trkpt><trkpt lat="44.2387662" lon="8.1105604"><ele>650.0</ele><time>2026-04-26T09:45:47.364Z</time></trkpt><trkpt lat="44.2387459" lon="8.1103551"><ele>650.5</ele><time>2026-04-26T09:45:48.367Z</time></trkpt><trkpt lat="44.2387333" lon="8.1101444"><ele>651.0</ele><time>2026-04-26T09:45:49.365Z</time></trkpt><trkpt lat="44.2387288" lon="8.1099304"><ele>652.0</ele><time>2026-04-26T09:45:50.368Z</time></trkpt><trkpt lat="44.2387258" lon="8.1097094"><ele>653.0</ele><time>2026-04-26T09:45:51.369Z</time></trkpt><trkpt lat="44.2387167" lon="8.1094904"><ele>654.0</ele><time>2026-04-26T09:45:52.365Z</time></trkpt><trkpt lat="44.2387066" lon="8.1092752"><ele>654.6666666666666</ele><time>2026-04-26T09:45:53.367Z</time></trkpt><trkpt lat="44.2387142" lon="8.1090555"><ele>655.3333333333333</ele><time>2026-04-26T09:45:54.357Z</time></trkpt><trkpt lat="44.2387325" lon="8.1088259"><ele>656.0</ele><time>2026-04-26T09:45:55.379Z</time></trkpt><trkpt lat="44.2387543" lon="8.1085993"><ele>656.0</ele><time>2026-04-26T09:45:56.423Z</time></trkpt><trkpt lat="44.2387745" lon="8.1083927"><ele>656.0</ele><time>2026-04-26T09:45:57.359Z</time></trkpt><trkpt lat="44.2387922" lon="8.1081899"><ele>656.0</ele><time>2026-04-26T09:45:58.381Z</time></trkpt><trkpt lat="44.2388131" lon="8.108005"><ele>656.0</ele><time>2026-04-26T09:45:59.372Z</time></trkpt><trkpt lat="44.2388434" lon="8.1078287"><ele>656.5</ele><time>2026-04-26T09:46:00.384Z</time></trkpt><trkpt lat="44.2388819" lon="8.1076551"><ele>657.0</ele><time>2026-04-26T09:46:01.367Z</time></trkpt><trkpt lat="44.2389227" lon="8.1074922"><ele>657.5</ele><time>2026-04-26T09:46:02.366Z</time></trkpt><trkpt lat="44.2389594" lon="8.1073357"><ele>658.0</ele><time>2026-04-26T09:46:03.359Z</time></trkpt><trkpt lat="44.2389892" lon="8.1071859"><ele>659.25</ele><time>2026-04-26T09:46:04.381Z</time></trkpt><trkpt lat="44.2390148" lon="8.1070294"><ele>660.5</ele><time>2026-04-26T09:46:05.373Z</time></trkpt><trkpt lat="44.2390151" lon="8.1068562"><ele>661.75</ele><time>2026-04-26T09:46:06.376Z</time></trkpt><trkpt lat="44.2389904" lon="8.1066544"><ele>663.0</ele><time>2026-04-26T09:46:07.361Z</time></trkpt><trkpt lat="44.2389694" lon="8.1064582"><ele>662.6666666666666</ele><time>2026-04-26T09:46:08.373Z</time></trkpt><trkpt lat="44.2389382" lon="8.1062509"><ele>662.3333333333333</ele><time>2026-04-26T09:46:09.379Z</time></trkpt><trkpt lat="44.2388989" lon="8.1060579"><ele>662.0</ele><time>2026-04-26T09:46:10.347Z</time></trkpt><trkpt lat="44.2388329" lon="8.1058536"><ele>663.0</ele><time>2026-04-26T09:46:11.363Z</time></trkpt><trkpt lat="44.2387607" lon="8.1056389"><ele>664.0</ele><time>2026-04-26T09:46:12.384Z</time></trkpt><trkpt lat="44.2386791" lon="8.1054116"><ele>665.0</ele><time>2026-04-26T09:46:13.35Z</time></trkpt><trkpt lat="44.2386064" lon="8.1051666"><ele>665.3333333333333</ele><time>2026-04-26T09:46:14.359Z</time></trkpt><trkpt lat="44.2385375" lon="8.1049057"><ele>665.6666666666666</ele><time>2026-04-26T09:46:15.362Z</time></trkpt><trkpt lat="44.2384728" lon="8.1046416"><ele>666.0</ele><time>2026-04-26T09:46:16.367Z</time></trkpt><trkpt lat="44.2384107" lon="8.1043774"><ele>666.0</ele><time>2026-04-26T09:46:17.363Z</time></trkpt><trkpt lat="44.2383542" lon="8.1041203"><ele>666.0</ele><time>2026-04-26T09:46:18.36Z</time></trkpt><trkpt lat="44.2382948" lon="8.1038853"><ele>666.0</ele><time>2026-04-26T09:46:19.377Z</time></trkpt><trkpt lat="44.2382483" lon="8.1036687"><ele>667.0</ele><time>2026-04-26T09:46:20.367Z</time></trkpt><trkpt lat="44.2382199" lon="8.103425"><ele>668.0</ele><time>2026-04-26T09:46:21.358Z</time></trkpt><trkpt lat="44.238224" lon="8.1031776"><ele>669.0</ele><time>2026-04-26T09:46:22.363Z</time></trkpt><trkpt lat="44.2382347" lon="8.1029285"><ele>669.6666666666666</ele><time>2026-04-26T09:46:23.367Z</time></trkpt><trkpt lat="44.2382506" lon="8.1026854"><ele>670.3333333333333</ele><time>2026-04-26T09:46:24.362Z</time></trkpt><trkpt lat="44.2382756" lon="8.1024628"><ele>671.0</ele><time>2026-04-26T09:46:25.359Z</time></trkpt><trkpt lat="44.2383192" lon="8.1022584"><ele>671.6666666666666</ele><time>2026-04-26T09:46:26.358Z</time></trkpt><trkpt lat="44.2383721" lon="8.1020489"><ele>672.3333333333334</ele><time>2026-04-26T09:46:27.358Z</time></trkpt><trkpt lat="44.2384245" lon="8.1018407"><ele>673.0</ele><time>2026-04-26T09:46:28.355Z</time></trkpt><trkpt lat="44.2384682" lon="8.1016418"><ele>675.6666666666667</ele><time>2026-04-26T09:46:29.362Z</time></trkpt><trkpt lat="44.2384916" lon="8.1014421"><ele>678.3333333333334</ele><time>2026-04-26T09:46:30.372Z</time></trkpt><trkpt lat="44.2384767" lon="8.1012253"><ele>681.0</ele><time>2026-04-26T09:46:31.359Z</time></trkpt><trkpt lat="44.2384481" lon="8.1010121"><ele>681.0</ele><time>2026-04-26T09:46:32.374Z</time></trkpt><trkpt lat="44.2384137" lon="8.1008135"><ele>681.0</ele><time>2026-04-26T09:46:33.364Z</time></trkpt><trkpt lat="44.2383212" lon="8.1006472"><ele>681.0</ele><time>2026-04-26T09:46:34.384Z</time></trkpt><trkpt lat="44.238185" lon="8.1004931"><ele>680.6666666666666</ele><time>2026-04-26T09:46:35.372Z</time></trkpt><trkpt lat="44.238031" lon="8.1003583"><ele>680.3333333333333</ele><time>2026-04-26T09:46:36.365Z</time></trkpt><trkpt lat="44.2378727" lon="8.1002394"><ele>680.0</ele><time>2026-04-26T09:46:37.363Z</time></trkpt><trkpt lat="44.2376922" lon="8.1001363"><ele>680.0</ele><time>2026-04-26T09:46:38.362Z</time></trkpt><trkpt lat="44.2374952" lon="8.1000461"><ele>680.0</ele><time>2026-04-26T09:46:39.384Z</time></trkpt><trkpt lat="44.2373048" lon="8.099936"><ele>680.0</ele><time>2026-04-26T09:46:40.359Z</time></trkpt><trkpt lat="44.2371196" lon="8.0998233"><ele>682.3333333333333</ele><time>2026-04-26T09:46:41.365Z</time></trkpt><trkpt lat="44.2369542" lon="8.0997008"><ele>684.6666666666666</ele><time>2026-04-26T09:46:42.372Z</time></trkpt><trkpt lat="44.2367978" lon="8.0995741"><ele>687.0</ele><time>2026-04-26T09:46:43.365Z</time></trkpt><trkpt lat="44.2366429" lon="8.0994144"><ele>687.0</ele><time>2026-04-26T09:46:44.362Z</time></trkpt><trkpt lat="44.2364849" lon="8.099255"><ele>687.0</ele><time>2026-04-26T09:46:45.365Z</time></trkpt><trkpt lat="44.2363194" lon="8.0991138"><ele>687.0</ele><time>2026-04-26T09:46:46.363Z</time></trkpt><trkpt lat="44.2361462" lon="8.0990056"><ele>695.3333333333334</ele><time>2026-04-26T09:46:47.37Z</time></trkpt><trkpt lat="44.2359586" lon="8.0989161"><ele>703.6666666666667</ele><time>2026-04-26T09:46:48.36Z</time></trkpt><trkpt lat="44.2357633" lon="8.098872"><ele>712.0</ele><time>2026-04-26T09:46:49.359Z</time></trkpt><trkpt lat="44.235561" lon="8.0988224"><ele>712.0</ele><time>2026-04-26T09:46:50.366Z</time></trkpt><trkpt lat="44.2353592" lon="8.0988052"><ele>712.0</ele><time>2026-04-26T09:46:51.358Z</time></trkpt><trkpt lat="44.2351591" lon="8.0988086"><ele>712.0</ele><time>2026-04-26T09:46:52.356Z</time></trkpt><trkpt lat="44.2349473" lon="8.0988614"><ele>718.3333333333334</ele><time>2026-04-26T09:46:53.359Z</time></trkpt><trkpt lat="44.23473" lon="8.0989169"><ele>724.6666666666666</ele><time>2026-04-26T09:46:54.361Z</time></trkpt><trkpt lat="44.2345064" lon="8.0989719"><ele>731.0</ele><time>2026-04-26T09:46:55.359Z</time></trkpt><trkpt lat="44.2342827" lon="8.0990263"><ele>731.0</ele><time>2026-04-26T09:46:56.361Z</time></trkpt><trkpt lat="44.2340611" lon="8.0990754"><ele>731.0</ele><time>2026-04-26T09:46:57.352Z</time></trkpt><trkpt lat="44.2338648" lon="8.0991092"><ele>731.0</ele><time>2026-04-26T09:46:58.353Z</time></trkpt><trkpt lat="44.2336676" lon="8.0991267"><ele>730.0</ele><time>2026-04-26T09:46:59.371Z</time></trkpt><trkpt lat="44.2334751" lon="8.0991108"><ele>729.0</ele><time>2026-04-26T09:47:00.368Z</time></trkpt><trkpt lat="44.2332736" lon="8.0990627"><ele>728.0</ele><time>2026-04-26T09:47:01.361Z</time></trkpt><trkpt lat="44.2330718" lon="8.0990055"><ele>728.0</ele><time>2026-04-26T09:47:02.363Z</time></trkpt><trkpt lat="44.2328752" lon="8.098929"><ele>728.0</ele><time>2026-04-26T09:47:03.356Z</time></trkpt><trkpt lat="44.2326784" lon="8.0988563"><ele>728.0</ele><time>2026-04-26T09:47:04.364Z</time></trkpt><trkpt lat="44.2324771" lon="8.0988224"><ele>731.0</ele><time>2026-04-26T09:47:05.368Z</time></trkpt><trkpt lat="44.2322753" lon="8.098825"><ele>734.0</ele><time>2026-04-26T09:47:06.361Z</time></trkpt><trkpt lat="44.2320842" lon="8.0988728"><ele>737.0</ele><time>2026-04-26T09:47:07.35Z</time></trkpt><trkpt lat="44.2318952" lon="8.0989407"><ele>737.0</ele><time>2026-04-26T09:47:08.357Z</time></trkpt><trkpt lat="44.2317042" lon="8.0990051"><ele>737.0</ele><time>2026-04-26T09:47:09.362Z</time></trkpt><trkpt lat="44.2315082" lon="8.0990618"><ele>737.0</ele><time>2026-04-26T09:47:10.356Z</time></trkpt><trkpt lat="44.2313079" lon="8.0990954"><ele>728.0</ele><time>2026-04-26T09:47:11.349Z</time></trkpt><trkpt lat="44.2311171" lon="8.0991154"><ele>719.0</ele><time>2026-04-26T09:47:12.349Z</time></trkpt><trkpt lat="44.2309435" lon="8.0991321"><ele>710.0</ele><time>2026-04-26T09:47:13.348Z</time></trkpt><trkpt lat="44.2307676" lon="8.0991009"><ele>718.3333333333333</ele><time>2026-04-26T09:47:14.371Z</time></trkpt><trkpt lat="44.2305688" lon="8.0990335"><ele>726.6666666666666</ele><time>2026-04-26T09:47:15.376Z</time></trkpt><trkpt lat="44.2303713" lon="8.0989795"><ele>735.0</ele><time>2026-04-26T09:47:16.349Z</time></trkpt><trkpt lat="44.230188" lon="8.0989049"><ele>735.0</ele><time>2026-04-26T09:47:17.357Z</time></trkpt><trkpt lat="44.2300041" lon="8.0988239"><ele>735.0</ele><time>2026-04-26T09:47:18.365Z</time></trkpt><trkpt lat="44.2298223" lon="8.0987814"><ele>735.0</ele><time>2026-04-26T09:47:19.35Z</time></trkpt><trkpt lat="44.2296211" lon="8.0987666"><ele>734.0</ele><time>2026-04-26T09:47:20.354Z</time></trkpt><trkpt lat="44.2294186" lon="8.0987467"><ele>733.0</ele><time>2026-04-26T09:47:21.347Z</time></trkpt><trkpt lat="44.2292206" lon="8.0987236"><ele>732.0</ele><time>2026-04-26T09:47:22.349Z</time></trkpt><trkpt lat="44.2290462" lon="8.0986966"><ele>729.0</ele><time>2026-04-26T09:47:23.356Z</time></trkpt><trkpt lat="44.2288999" lon="8.0986345"><ele>726.0</ele><time>2026-04-26T09:47:24.35Z</time></trkpt><trkpt lat="44.2287855" lon="8.0985166"><ele>723.0</ele><time>2026-04-26T09:47:25.372Z</time></trkpt><trkpt lat="44.2286855" lon="8.098362"><ele>720.0</ele><time>2026-04-26T09:47:26.362Z</time></trkpt><trkpt lat="44.228551" lon="8.0982232"><ele>725.3333333333334</ele><time>2026-04-26T09:47:27.365Z</time></trkpt><trkpt lat="44.2283853" lon="8.0981188"><ele>730.6666666666667</ele><time>2026-04-26T09:47:28.352Z</time></trkpt><trkpt lat="44.2282022" lon="8.0980139"><ele>736.0</ele><time>2026-04-26T09:47:29.36Z</time></trkpt><trkpt lat="44.228013" lon="8.0978784"><ele>736.0</ele><time>2026-04-26T09:47:30.364Z</time></trkpt><trkpt lat="44.2278182" lon="8.0977391"><ele>736.0</ele><time>2026-04-26T09:47:31.353Z</time></trkpt><trkpt lat="44.2276231" lon="8.0975971"><ele>736.0</ele><time>2026-04-26T09:47:32.349Z</time></trkpt><trkpt lat="44.2274287" lon="8.0974677"><ele>741.3333333333334</ele><time>2026-04-26T09:47:33.368Z</time></trkpt><trkpt lat="44.2272241" lon="8.097374"><ele>746.6666666666666</ele><time>2026-04-26T09:47:34.356Z</time></trkpt><trkpt lat="44.2270101" lon="8.0972985"><ele>752.0</ele><time>2026-04-26T09:47:35.349Z</time></trkpt><trkpt lat="44.2267949" lon="8.097228"><ele>752.0</ele><time>2026-04-26T09:47:36.356Z</time></trkpt><trkpt lat="44.2265818" lon="8.0971539"><ele>752.0</ele><time>2026-04-26T09:47:37.356Z</time></trkpt><trkpt lat="44.2263757" lon="8.0970646"><ele>752.0</ele><time>2026-04-26T09:47:38.355Z</time></trkpt><trkpt lat="44.2261781" lon="8.0969753"><ele>749.3333333333333</ele><time>2026-04-26T09:47:39.366Z</time></trkpt><trkpt lat="44.2259899" lon="8.096906"><ele>746.6666666666666</ele><time>2026-04-26T09:47:40.355Z</time></trkpt><trkpt lat="44.2257847" lon="8.096852"><ele>744.0</ele><time>2026-04-26T09:47:41.353Z</time></trkpt><trkpt lat="44.2255853" lon="8.0968009"><ele>744.6666666666666</ele><time>2026-04-26T09:47:42.355Z</time></trkpt><trkpt lat="44.2254039" lon="8.096735"><ele>745.3333333333333</ele><time>2026-04-26T09:47:43.357Z</time></trkpt><trkpt lat="44.2252123" lon="8.09666"><ele>746.0</ele><time>2026-04-26T09:47:44.358Z</time></trkpt><trkpt lat="44.2250301" lon="8.0965807"><ele>746.0</ele><time>2026-04-26T09:47:45.353Z</time></trkpt><trkpt lat="44.2248705" lon="8.0964275"><ele>746.0</ele><time>2026-04-26T09:47:46.361Z</time></trkpt><trkpt lat="44.2247152" lon="8.0962644"><ele>746.0</ele><time>2026-04-26T09:47:47.348Z</time></trkpt><trkpt lat="44.2245557" lon="8.0961172"><ele>746.3333333333333</ele><time>2026-04-26T09:47:48.353Z</time></trkpt><trkpt lat="44.2243891" lon="8.0959786"><ele>746.6666666666666</ele><time>2026-04-26T09:47:49.352Z</time></trkpt><trkpt lat="44.2242469" lon="8.0958479"><ele>747.0</ele><time>2026-04-26T09:47:50.355Z</time></trkpt><trkpt lat="44.2241303" lon="8.0957276"><ele>747.0</ele><time>2026-04-26T09:47:51.347Z</time></trkpt><trkpt lat="44.2240444" lon="8.0955968"><ele>747.0</ele><time>2026-04-26T09:47:52.348Z</time></trkpt><trkpt lat="44.223987" lon="8.0954245"><ele>747.0</ele><time>2026-04-26T09:47:53.362Z</time></trkpt><trkpt lat="44.2239335" lon="8.0951953"><ele>747.0</ele><time>2026-04-26T09:47:54.355Z</time></trkpt><trkpt lat="44.2238801" lon="8.0949338"><ele>749.0</ele><time>2026-04-26T09:47:55.345Z</time></trkpt><trkpt lat="44.2238075" lon="8.094677"><ele>751.0</ele><time>2026-04-26T09:47:56.362Z</time></trkpt><trkpt lat="44.2237346" lon="8.09441"><ele>753.0</ele><time>2026-04-26T09:47:57.352Z</time></trkpt><trkpt lat="44.2236522" lon="8.0941528"><ele>753.3333333333334</ele><time>2026-04-26T09:47:58.348Z</time></trkpt><trkpt lat="44.2235945" lon="8.0939048"><ele>753.6666666666667</ele><time>2026-04-26T09:47:59.356Z</time></trkpt><trkpt lat="44.2235432" lon="8.0936744"><ele>754.0</ele><time>2026-04-26T09:48:00.348Z</time></trkpt><trkpt lat="44.2234782" lon="8.0934749"><ele>754.0</ele><time>2026-04-26T09:48:01.359Z</time></trkpt><trkpt lat="44.2233982" lon="8.093281"><ele>754.0</ele><time>2026-04-26T09:48:02.359Z</time></trkpt><trkpt lat="44.2233136" lon="8.0931108"><ele>754.0</ele><time>2026-04-26T09:48:03.362Z</time></trkpt><trkpt lat="44.2232355" lon="8.0929604"><ele>754.0</ele><time>2026-04-26T09:48:04.362Z</time></trkpt><trkpt lat="44.2231646" lon="8.0928406"><ele>754.2</ele><time>2026-04-26T09:48:05.361Z</time></trkpt><trkpt lat="44.2231062" lon="8.092733"><ele>754.4000000000001</ele><time>2026-04-26T09:48:06.359Z</time></trkpt><trkpt lat="44.2230514" lon="8.0926263"><ele>754.6</ele><time>2026-04-26T09:48:07.371Z</time></trkpt><trkpt lat="44.222993" lon="8.092501"><ele>754.8</ele><time>2026-04-26T09:48:08.369Z</time></trkpt><trkpt lat="44.2229545" lon="8.0923652"><ele>755.0</ele><time>2026-04-26T09:48:09.367Z</time></trkpt><trkpt lat="44.2229187" lon="8.0922175"><ele>755.0</ele><time>2026-04-26T09:48:10.353Z</time></trkpt><trkpt lat="44.222898" lon="8.0920772"><ele>755.0</ele><time>2026-04-26T09:48:11.368Z</time></trkpt><trkpt lat="44.2228972" lon="8.0919004"><ele>755.0</ele><time>2026-04-26T09:48:12.355Z</time></trkpt><trkpt lat="44.222895" lon="8.091754"><ele>755.0</ele><time>2026-04-26T09:48:13.369Z</time></trkpt><trkpt lat="44.2228912" lon="8.0916017"><ele>755.0</ele><time>2026-04-26T09:48:14.357Z</time></trkpt><trkpt lat="44.222879" lon="8.0914654"><ele>755.8</ele><time>2026-04-26T09:48:15.366Z</time></trkpt><trkpt lat="44.2228621" lon="8.0913405"><ele>756.6</ele><time>2026-04-26T09:48:16.362Z</time></trkpt><trkpt lat="44.2228302" lon="8.0912051"><ele>757.4000000000001</ele><time>2026-04-26T09:48:17.354Z</time></trkpt><trkpt lat="44.2227811" lon="8.0910595"><ele>758.2</ele><time>2026-04-26T09:48:18.349Z</time></trkpt><trkpt lat="44.222701" lon="8.090925"><ele>759.0</ele><time>2026-04-26T09:48:19.355Z</time></trkpt><trkpt lat="44.2226" lon="8.0907832"><ele>762.3333333333333</ele><time>2026-04-26T09:48:20.364Z</time></trkpt><trkpt lat="44.2225037" lon="8.0906156"><ele>765.6666666666666</ele><time>2026-04-26T09:48:21.357Z</time></trkpt><trkpt lat="44.2224028" lon="8.0904237"><ele>769.0</ele><time>2026-04-26T09:48:22.371Z</time></trkpt><trkpt lat="44.2222876" lon="8.0901979"><ele>769.0</ele><time>2026-04-26T09:48:23.352Z</time></trkpt><trkpt lat="44.2221622" lon="8.0899778"><ele>769.0</ele><time>2026-04-26T09:48:24.351Z</time></trkpt><trkpt lat="44.2220346" lon="8.0897472"><ele>769.0</ele><time>2026-04-26T09:48:25.352Z</time></trkpt><trkpt lat="44.2218997" lon="8.0895219"><ele>770.0</ele><time>2026-04-26T09:48:26.362Z</time></trkpt><trkpt lat="44.2217726" lon="8.089299"><ele>771.0</ele><time>2026-04-26T09:48:27.353Z</time></trkpt><trkpt lat="44.2216466" lon="8.0890826"><ele>772.0</ele><time>2026-04-26T09:48:28.346Z</time></trkpt><trkpt lat="44.2215252" lon="8.0888951"><ele>772.3333333333333</ele><time>2026-04-26T09:48:29.361Z</time></trkpt><trkpt lat="44.2213888" lon="8.0887293"><ele>772.6666666666667</ele><time>2026-04-26T09:48:30.351Z</time></trkpt><trkpt lat="44.2212411" lon="8.0885843"><ele>773.0</ele><time>2026-04-26T09:48:31.351Z</time></trkpt><trkpt lat="44.2211189" lon="8.0884545"><ele>773.0</ele><time>2026-04-26T09:48:32.351Z</time></trkpt><trkpt lat="44.2210165" lon="8.0883056"><ele>773.0</ele><time>2026-04-26T09:48:33.352Z</time></trkpt><trkpt lat="44.2209464" lon="8.0881292"><ele>773.0</ele><time>2026-04-26T09:48:34.361Z</time></trkpt><trkpt lat="44.2208924" lon="8.0879134"><ele>774.25</ele><time>2026-04-26T09:48:35.351Z</time></trkpt><trkpt lat="44.2208481" lon="8.0877055"><ele>775.5</ele><time>2026-04-26T09:48:36.358Z</time></trkpt><trkpt lat="44.220783" lon="8.0875362"><ele>776.75</ele><time>2026-04-26T09:48:37.359Z</time></trkpt><trkpt lat="44.2206812" lon="8.0874255"><ele>778.0</ele><time>2026-04-26T09:48:38.364Z</time></trkpt><trkpt lat="44.2205462" lon="8.0873577"><ele>786.0</ele><time>2026-04-26T09:48:39.352Z</time></trkpt><trkpt lat="44.2204009" lon="8.0873044"><ele>794.0</ele><time>2026-04-26T09:48:40.35Z</time></trkpt><trkpt lat="44.2202373" lon="8.0872478"><ele>802.0</ele><time>2026-04-26T09:48:41.36Z</time></trkpt><trkpt lat="44.2200543" lon="8.0871851"><ele>802.0</ele><time>2026-04-26T09:48:42.351Z</time></trkpt><trkpt lat="44.2198874" lon="8.0871535"><ele>802.0</ele><time>2026-04-26T09:48:43.363Z</time></trkpt><trkpt lat="44.2197142" lon="8.0871152"><ele>802.0</ele><time>2026-04-26T09:48:44.354Z</time></trkpt><trkpt lat="44.2195533" lon="8.087088"><ele>806.6666666666666</ele><time>2026-04-26T09:48:45.358Z</time></trkpt><trkpt lat="44.219378" lon="8.0870936"><ele>811.3333333333333</ele><time>2026-04-26T09:48:46.352Z</time></trkpt><trkpt lat="44.2191931" lon="8.0871416"><ele>816.0</ele><time>2026-04-26T09:48:47.359Z</time></trkpt><trkpt lat="44.2190097" lon="8.087218"><ele>818.3333333333333</ele><time>2026-04-26T09:48:48.353Z</time></trkpt><trkpt lat="44.2188279" lon="8.0872943"><ele>820.6666666666666</ele><time>2026-04-26T09:48:49.352Z</time></trkpt><trkpt lat="44.2186323" lon="8.0873273"><ele>823.0</ele><time>2026-04-26T09:48:50.348Z</time></trkpt><trkpt lat="44.2184515" lon="8.0873431"><ele>823.0</ele><time>2026-04-26T09:48:51.359Z</time></trkpt><trkpt lat="44.2182891" lon="8.0873387"><ele>823.0</ele><time>2026-04-26T09:48:52.351Z</time></trkpt><trkpt lat="44.2181368" lon="8.0873118"><ele>823.0</ele><time>2026-04-26T09:48:53.357Z</time></trkpt><trkpt lat="44.218009" lon="8.0872331"><ele>816.6666666666666</ele><time>2026-04-26T09:48:54.36Z</time></trkpt><trkpt lat="44.2178894" lon="8.0870801"><ele>810.3333333333333</ele><time>2026-04-26T09:48:55.37Z</time></trkpt><trkpt lat="44.2177758" lon="8.086919"><ele>804.0</ele><time>2026-04-26T09:48:56.352Z</time></trkpt><trkpt lat="44.2176751" lon="8.0867659"><ele>808.0</ele><time>2026-04-26T09:48:57.352Z</time></trkpt><trkpt lat="44.2176035" lon="8.0865821"><ele>812.0</ele><time>2026-04-26T09:48:58.35Z</time></trkpt><trkpt lat="44.2175388" lon="8.0863828"><ele>816.0</ele><time>2026-04-26T09:48:59.348Z</time></trkpt><trkpt lat="44.2174645" lon="8.0861538"><ele>816.0</ele><time>2026-04-26T09:49:00.35Z</time></trkpt><trkpt lat="44.2173748" lon="8.0859481"><ele>816.0</ele><time>2026-04-26T09:49:01.349Z</time></trkpt><trkpt lat="44.2172594" lon="8.0857549"><ele>816.0</ele><time>2026-04-26T09:49:02.348Z</time></trkpt><trkpt lat="44.2171073" lon="8.0855837"><ele>818.0</ele><time>2026-04-26T09:49:03.352Z</time></trkpt><trkpt lat="44.2169248" lon="8.0853888"><ele>820.0</ele><time>2026-04-26T09:49:04.346Z</time></trkpt><trkpt lat="44.2167273" lon="8.0851943"><ele>820.0</ele><time>2026-04-26T09:49:05.341Z</time></trkpt><trkpt lat="44.2165442" lon="8.0849745"><ele>820.0</ele><time>2026-04-26T09:49:06.348Z</time></trkpt><trkpt lat="44.2163571" lon="8.084758"><ele>823.5</ele><time>2026-04-26T09:49:07.352Z</time></trkpt><trkpt lat="44.216173" lon="8.0845733"><ele>827.0</ele><time>2026-04-26T09:49:08.347Z</time></trkpt><trkpt lat="44.2159644" lon="8.084404"><ele>827.0</ele><time>2026-04-26T09:49:09.347Z</time></trkpt><trkpt lat="44.2157531" lon="8.0842599"><ele>827.0</ele><time>2026-04-26T09:49:10.359Z</time></trkpt><trkpt lat="44.2155269" lon="8.084118"><ele>831.5</ele><time>2026-04-26T09:49:11.349Z</time></trkpt><trkpt lat="44.2153115" lon="8.0839718"><ele>836.0</ele><time>2026-04-26T09:49:12.349Z</time></trkpt><trkpt lat="44.2151025" lon="8.0838317"><ele>836.0</ele><time>2026-04-26T09:49:13.353Z</time></trkpt><trkpt lat="44.2149085" lon="8.0837171"><ele>836.0</ele><time>2026-04-26T09:49:14.35Z</time></trkpt><trkpt lat="44.2147118" lon="8.0836186"><ele>836.0</ele><time>2026-04-26T09:49:15.347Z</time></trkpt><trkpt lat="44.2145172" lon="8.0835295"><ele>834.0</ele><time>2026-04-26T09:49:16.356Z</time></trkpt><trkpt lat="44.2143287" lon="8.0834373"><ele>832.0</ele><time>2026-04-26T09:49:17.351Z</time></trkpt><trkpt lat="44.2141413" lon="8.0833477"><ele>830.0</ele><time>2026-04-26T09:49:18.353Z</time></trkpt><trkpt lat="44.213948" lon="8.0832666"><ele>834.6666666666667</ele><time>2026-04-26T09:49:19.346Z</time></trkpt><trkpt lat="44.2137533" lon="8.0831876"><ele>839.3333333333333</ele><time>2026-04-26T09:49:20.344Z</time></trkpt><trkpt lat="44.2135563" lon="8.0831008"><ele>844.0</ele><time>2026-04-26T09:49:21.351Z</time></trkpt><trkpt lat="44.2133624" lon="8.0830063"><ele>844.0</ele><time>2026-04-26T09:49:22.346Z</time></trkpt><trkpt lat="44.2131742" lon="8.0829012"><ele>844.0</ele><time>2026-04-26T09:49:23.351Z</time></trkpt><trkpt lat="44.213004" lon="8.0827811"><ele>844.0</ele><time>2026-04-26T09:49:24.347Z</time></trkpt><trkpt lat="44.2128599" lon="8.0826258"><ele>848.6666666666666</ele><time>2026-04-26T09:49:25.345Z</time></trkpt><trkpt lat="44.2127512" lon="8.0824516"><ele>853.3333333333333</ele><time>2026-04-26T09:49:26.356Z</time></trkpt><trkpt lat="44.212674" lon="8.0822484"><ele>858.0</ele><time>2026-04-26T09:49:27.345Z</time></trkpt><trkpt lat="44.2126247" lon="8.0820219"><ele>858.0</ele><time>2026-04-26T09:49:28.348Z</time></trkpt><trkpt lat="44.2125948" lon="8.0817827"><ele>858.0</ele><time>2026-04-26T09:49:29.361Z</time></trkpt><trkpt lat="44.212551" lon="8.0815394"><ele>858.0</ele><time>2026-04-26T09:49:30.347Z</time></trkpt><trkpt lat="44.2125137" lon="8.081286"><ele>859.6666666666667</ele><time>2026-04-26T09:49:31.35Z</time></trkpt><trkpt lat="44.212485" lon="8.0810446"><ele>861.3333333333334</ele><time>2026-04-26T09:49:32.35Z</time></trkpt><trkpt lat="44.2124843" lon="8.0808333"><ele>863.0</ele><time>2026-04-26T09:49:33.353Z</time></trkpt><trkpt lat="44.212525" lon="8.0806285"><ele>866.0</ele><time>2026-04-26T09:49:34.343Z</time></trkpt><trkpt lat="44.2126089" lon="8.0804534"><ele>869.0</ele><time>2026-04-26T09:49:35.351Z</time></trkpt><trkpt lat="44.2127063" lon="8.0802676"><ele>872.0</ele><time>2026-04-26T09:49:36.345Z</time></trkpt><trkpt lat="44.2127939" lon="8.0800658"><ele>878.0</ele><time>2026-04-26T09:49:37.349Z</time></trkpt><trkpt lat="44.2128686" lon="8.0798455"><ele>884.0</ele><time>2026-04-26T09:49:38.349Z</time></trkpt><trkpt lat="44.2129164" lon="8.0796057"><ele>890.0</ele><time>2026-04-26T09:49:39.351Z</time></trkpt><trkpt lat="44.2129369" lon="8.0793774"><ele>890.0</ele><time>2026-04-26T09:49:40.357Z</time></trkpt><trkpt lat="44.212952" lon="8.0791446"><ele>890.0</ele><time>2026-04-26T09:49:41.352Z</time></trkpt><trkpt lat="44.2129325" lon="8.0789048"><ele>890.0</ele><time>2026-04-26T09:49:42.355Z</time></trkpt><trkpt lat="44.2129207" lon="8.0786442"><ele>890.6666666666667</ele><time>2026-04-26T09:49:43.35Z</time></trkpt><trkpt lat="44.2129014" lon="8.0783723"><ele>891.3333333333333</ele><time>2026-04-26T09:49:44.349Z</time></trkpt><trkpt lat="44.2129015" lon="8.0781148"><ele>892.0</ele><time>2026-04-26T09:49:45.348Z</time></trkpt><trkpt lat="44.2128873" lon="8.0778938"><ele>892.0</ele><time>2026-04-26T09:49:46.345Z</time></trkpt><trkpt lat="44.2128501" lon="8.0776885"><ele>892.0</ele><time>2026-04-26T09:49:47.352Z</time></trkpt><trkpt lat="44.2127813" lon="8.077468"><ele>892.0</ele><time>2026-04-26T09:49:48.354Z</time></trkpt><trkpt lat="44.2126779" lon="8.0772539"><ele>892.3333333333333</ele><time>2026-04-26T09:49:49.352Z</time></trkpt><trkpt lat="44.2125576" lon="8.0770339"><ele>892.6666666666667</ele><time>2026-04-26T09:49:50.342Z</time></trkpt><trkpt lat="44.2124242" lon="8.0768155"><ele>893.0</ele><time>2026-04-26T09:49:51.352Z</time></trkpt><trkpt lat="44.2122926" lon="8.0766152"><ele>895.0</ele><time>2026-04-26T09:49:52.35Z</time></trkpt><trkpt lat="44.2121626" lon="8.0764563"><ele>897.0</ele><time>2026-04-26T09:49:53.338Z</time></trkpt><trkpt lat="44.2120294" lon="8.0763213"><ele>899.0</ele><time>2026-04-26T09:49:54.349Z</time></trkpt><trkpt lat="44.2119048" lon="8.0761748"><ele>899.0</ele><time>2026-04-26T09:49:55.341Z</time></trkpt><trkpt lat="44.2117827" lon="8.0760019"><ele>899.0</ele><time>2026-04-26T09:49:56.344Z</time></trkpt><trkpt lat="44.2116576" lon="8.075805"><ele>899.0</ele><time>2026-04-26T09:49:57.358Z</time></trkpt><trkpt lat="44.2115505" lon="8.0756247"><ele>902.0</ele><time>2026-04-26T09:49:58.349Z</time></trkpt><trkpt lat="44.2114574" lon="8.0754641"><ele>905.0</ele><time>2026-04-26T09:49:59.347Z</time></trkpt><trkpt lat="44.2113837" lon="8.075303"><ele>908.0</ele><time>2026-04-26T09:50:00.354Z</time></trkpt><trkpt lat="44.2113606" lon="8.0751249"><ele>911.0</ele><time>2026-04-26T09:50:01.351Z</time></trkpt><trkpt lat="44.2113876" lon="8.0749381"><ele>912.0</ele><time>2026-04-26T09:50:02.347Z</time></trkpt><trkpt lat="44.2114261" lon="8.0747659"><ele>913.0</ele><time>2026-04-26T09:50:03.352Z</time></trkpt><trkpt lat="44.2114426" lon="8.0745939"><ele>914.0</ele><time>2026-04-26T09:50:04.347Z</time></trkpt><trkpt lat="44.2114426" lon="8.0743993"><ele>915.0</ele><time>2026-04-26T09:50:05.351Z</time></trkpt><trkpt lat="44.2113928" lon="8.0741836"><ele>920.3333333333333</ele><time>2026-04-26T09:50:06.347Z</time></trkpt><trkpt lat="44.2113383" lon="8.0739785"><ele>925.6666666666666</ele><time>2026-04-26T09:50:07.36Z</time></trkpt><trkpt lat="44.2113153" lon="8.0737669"><ele>931.0</ele><time>2026-04-26T09:50:08.355Z</time></trkpt><trkpt lat="44.2113246" lon="8.0735399"><ele>931.0</ele><time>2026-04-26T09:50:09.35Z</time></trkpt><trkpt lat="44.2113439" lon="8.0732896"><ele>931.0</ele><time>2026-04-26T09:50:10.37Z</time></trkpt><trkpt lat="44.2113863" lon="8.0730505"><ele>931.0</ele><time>2026-04-26T09:50:11.353Z</time></trkpt><trkpt lat="44.2114567" lon="8.0728023"><ele>932.6666666666666</ele><time>2026-04-26T09:50:12.35Z</time></trkpt><trkpt lat="44.2115495" lon="8.0725688"><ele>934.3333333333333</ele><time>2026-04-26T09:50:13.359Z</time></trkpt><trkpt lat="44.2116268" lon="8.0723254"><ele>936.0</ele><time>2026-04-26T09:50:14.355Z</time></trkpt><trkpt lat="44.2116961" lon="8.0721038"><ele>936.25</ele><time>2026-04-26T09:50:15.349Z</time></trkpt><trkpt lat="44.2117483" lon="8.0719255"><ele>936.5</ele><time>2026-04-26T09:50:16.35Z</time></trkpt><trkpt lat="44.2117712" lon="8.0717619"><ele>936.75</ele><time>2026-04-26T09:50:17.35Z</time></trkpt><trkpt lat="44.2117687" lon="8.0716219"><ele>937.0</ele><time>2026-04-26T09:50:18.354Z</time></trkpt><trkpt lat="44.2117208" lon="8.0715099"><ele>939.8</ele><time>2026-04-26T09:50:19.359Z</time></trkpt><trkpt lat="44.2116456" lon="8.0714515"><ele>942.6</ele><time>2026-04-26T09:50:20.353Z</time></trkpt><trkpt lat="44.2115494" lon="8.071433"><ele>945.3999999999999</ele><time>2026-04-26T09:50:21.353Z</time></trkpt><trkpt lat="44.2114374" lon="8.0714571"><ele>948.1999999999999</ele><time>2026-04-26T09:50:22.349Z</time></trkpt><trkpt lat="44.2113187" lon="8.0715193"><ele>951.0</ele><time>2026-04-26T09:50:23.345Z</time></trkpt><trkpt lat="44.2111901" lon="8.0716293"><ele>955.3333333333333</ele><time>2026-04-26T09:50:24.341Z</time></trkpt><trkpt lat="44.2110692" lon="8.0717719"><ele>959.6666666666666</ele><time>2026-04-26T09:50:25.352Z</time></trkpt><trkpt lat="44.2109711" lon="8.071995"><ele>964.0</ele><time>2026-04-26T09:50:26.354Z</time></trkpt><trkpt lat="44.2108738" lon="8.0722326"><ele>959.0</ele><time>2026-04-26T09:50:27.354Z</time></trkpt><trkpt lat="44.2107892" lon="8.0724806"><ele>954.0</ele><time>2026-04-26T09:50:28.354Z</time></trkpt><trkpt lat="44.2107043" lon="8.0727306"><ele>949.0</ele><time>2026-04-26T09:50:29.36Z</time></trkpt><trkpt lat="44.21063" lon="8.0729632"><ele>949.0</ele><time>2026-04-26T09:50:30.362Z</time></trkpt><trkpt lat="44.2105675" lon="8.0731526"><ele>949.0</ele><time>2026-04-26T09:50:31.353Z</time></trkpt><trkpt lat="44.2104936" lon="8.0732944"><ele>949.0</ele><time>2026-04-26T09:50:32.351Z</time></trkpt><trkpt lat="44.2103832" lon="8.0733594"><ele>949.0</ele><time>2026-04-26T09:50:33.371Z</time></trkpt><trkpt lat="44.2102777" lon="8.0734056"><ele>949.0</ele><time>2026-04-26T09:50:34.359Z</time></trkpt><trkpt lat="44.2101929" lon="8.0733649"><ele>949.0</ele><time>2026-04-26T09:50:35.362Z</time></trkpt><trkpt lat="44.2101798" lon="8.0731628"><ele>949.0</ele><time>2026-04-26T09:50:36.358Z</time></trkpt><trkpt lat="44.2101921" lon="8.0729206"><ele>949.0</ele><time>2026-04-26T09:50:37.353Z</time></trkpt><trkpt lat="44.210163" lon="8.0726747"><ele>955.6666666666666</ele><time>2026-04-26T09:50:38.376Z</time></trkpt><trkpt lat="44.2101003" lon="8.0724043"><ele>962.3333333333333</ele><time>2026-04-26T09:50:39.359Z</time></trkpt><trkpt lat="44.2100063" lon="8.0721497"><ele>969.0</ele><time>2026-04-26T09:50:40.364Z</time></trkpt><trkpt lat="44.2099061" lon="8.0718847"><ele>974.25</ele><time>2026-04-26T09:50:41.356Z</time></trkpt><trkpt lat="44.2098238" lon="8.0716456"><ele>979.5</ele><time>2026-04-26T09:50:42.357Z</time></trkpt><trkpt lat="44.2097549" lon="8.0714723"><ele>984.75</ele><time>2026-04-26T09:50:43.359Z</time></trkpt><trkpt lat="44.2096837" lon="8.0713794"><ele>990.0</ele><time>2026-04-26T09:50:44.352Z</time></trkpt><trkpt lat="44.2096049" lon="8.0713343"><ele>990.0</ele><time>2026-04-26T09:50:45.365Z</time></trkpt><trkpt lat="44.2095336" lon="8.0713743"><ele>990.0</ele><time>2026-04-26T09:50:46.355Z</time></trkpt><trkpt lat="44.209455" lon="8.0714828"><ele>990.0</ele><time>2026-04-26T09:50:47.364Z</time></trkpt><trkpt lat="44.2093935" lon="8.0716519"><ele>990.0</ele><time>2026-04-26T09:50:48.354Z</time></trkpt><trkpt lat="44.2093483" lon="8.0718737"><ele>990.0</ele><time>2026-04-26T09:50:49.356Z</time></trkpt><trkpt lat="44.2092863" lon="8.0720785"><ele>990.0</ele><time>2026-04-26T09:50:50.35Z</time></trkpt><trkpt lat="44.2091979" lon="8.072268"><ele>990.0</ele><time>2026-04-26T09:50:51.356Z</time></trkpt><trkpt lat="44.209065" lon="8.072376"><ele>992.6666666666667</ele><time>2026-04-26T09:50:52.368Z</time></trkpt><trkpt lat="44.2089091" lon="8.0724496"><ele>995.3333333333334</ele><time>2026-04-26T09:50:53.358Z</time></trkpt><trkpt lat="44.2087399" lon="8.0725412"><ele>998.0</ele><time>2026-04-26T09:50:54.355Z</time></trkpt><trkpt lat="44.208564" lon="8.0726477"><ele>998.0</ele><time>2026-04-26T09:50:55.358Z</time></trkpt><trkpt lat="44.2083923" lon="8.0727512"><ele>998.0</ele><time>2026-04-26T09:50:56.359Z</time></trkpt><trkpt lat="44.2082268" lon="8.0728327"><ele>998.0</ele><time>2026-04-26T09:50:57.351Z</time></trkpt><trkpt lat="44.2080718" lon="8.0729088"><ele>1000.0</ele><time>2026-04-26T09:50:58.353Z</time></trkpt><trkpt lat="44.2079006" lon="8.0729336"><ele>1002.0</ele><time>2026-04-26T09:50:59.362Z</time></trkpt><trkpt lat="44.2077243" lon="8.0729147"><ele>1004.0</ele><time>2026-04-26T09:51:00.355Z</time></trkpt><trkpt lat="44.2075569" lon="8.0728733"><ele>1004.0</ele><time>2026-04-26T09:51:01.359Z</time></trkpt><trkpt lat="44.2074051" lon="8.0727803"><ele>1004.0</ele><time>2026-04-26T09:51:02.35Z</time></trkpt><trkpt lat="44.2072848" lon="8.0726811"><ele>1004.0</ele><time>2026-04-26T09:51:03.355Z</time></trkpt><trkpt lat="44.2072015" lon="8.0725476"><ele>1004.0</ele><time>2026-04-26T09:51:04.358Z</time></trkpt><trkpt lat="44.2071211" lon="8.0724764"><ele>1006.0</ele><time>2026-04-26T09:51:05.375Z</time></trkpt><trkpt lat="44.2070405" lon="8.0725031"><ele>1008.0000000000001</ele><time>2026-04-26T09:51:06.355Z</time></trkpt><trkpt lat="44.2069566" lon="8.0725904"><ele>1010.0000000000001</ele><time>2026-04-26T09:51:07.356Z</time></trkpt><trkpt lat="44.2068721" lon="8.0726969"><ele>1012.0</ele><time>2026-04-26T09:51:08.352Z</time></trkpt><trkpt lat="44.2067449" lon="8.0727824"><ele>1014.0</ele><time>2026-04-26T09:51:09.361Z</time></trkpt><trkpt lat="44.2065966" lon="8.0727996"><ele>1015.0</ele><time>2026-04-26T09:51:10.371Z</time></trkpt><trkpt lat="44.2064349" lon="8.0727665"><ele>1016.0</ele><time>2026-04-26T09:51:11.368Z</time></trkpt><trkpt lat="44.2062849" lon="8.072746"><ele>1017.0</ele><time>2026-04-26T09:51:12.357Z</time></trkpt><trkpt lat="44.2061722" lon="8.0727184"><ele>1018.0</ele><time>2026-04-26T09:51:13.372Z</time></trkpt><trkpt lat="44.2060864" lon="8.0726532"><ele>1018.0</ele><time>2026-04-26T09:51:14.357Z</time></trkpt><trkpt lat="44.2059975" lon="8.0725547"><ele>1018.0</ele><time>2026-04-26T09:51:15.364Z</time></trkpt><trkpt lat="44.2059339" lon="8.0724267"><ele>1018.0</ele><time>2026-04-26T09:51:16.357Z</time></trkpt><trkpt lat="44.205865" lon="8.0723075"><ele>1018.0</ele><time>2026-04-26T09:51:17.358Z</time></trkpt><trkpt lat="44.2057943" lon="8.0722177"><ele>1018.0</ele><time>2026-04-26T09:51:18.353Z</time></trkpt><trkpt lat="44.2056626" lon="8.0723386"><ele>1028.0</ele><time>2026-04-26T09:51:20.356Z</time></trkpt><trkpt lat="44.205563" lon="8.072527"><ele>1038.0</ele><time>2026-04-26T09:51:21.359Z</time></trkpt><trkpt lat="44.2054789" lon="8.0727574"><ele>1048.0</ele><time>2026-04-26T09:51:22.383Z</time></trkpt><trkpt lat="44.2053862" lon="8.0729667"><ele>1048.0</ele><time>2026-04-26T09:51:23.357Z</time></trkpt><trkpt lat="44.2052963" lon="8.0731566"><ele>1048.0</ele><time>2026-04-26T09:51:24.36Z</time></trkpt><trkpt lat="44.2051897" lon="8.0733252"><ele>1048.0</ele><time>2026-04-26T09:51:25.36Z</time></trkpt><trkpt lat="44.2050536" lon="8.0734399"><ele>1044.3333333333333</ele><time>2026-04-26T09:51:26.36Z</time></trkpt><trkpt lat="44.2049053" lon="8.0735215"><ele>1040.6666666666667</ele><time>2026-04-26T09:51:27.364Z</time></trkpt><trkpt lat="44.204737" lon="8.0735943"><ele>1037.0</ele><time>2026-04-26T09:51:28.354Z</time></trkpt><trkpt lat="44.204581" lon="8.0736532"><ele>1037.0</ele><time>2026-04-26T09:51:29.357Z</time></trkpt><trkpt lat="44.2044294" lon="8.0736545"><ele>1037.0</ele><time>2026-04-26T09:51:30.359Z</time></trkpt><trkpt lat="44.2042893" lon="8.0735892"><ele>1037.0</ele><time>2026-04-26T09:51:31.357Z</time></trkpt><trkpt lat="44.2041657" lon="8.0735066"><ele>1037.0</ele><time>2026-04-26T09:51:32.355Z</time></trkpt><trkpt lat="44.2040534" lon="8.0734178"><ele>1038.0</ele><time>2026-04-26T09:51:33.351Z</time></trkpt><trkpt lat="44.2039439" lon="8.0733741"><ele>1039.0</ele><time>2026-04-26T09:51:34.361Z</time></trkpt><trkpt lat="44.2038343" lon="8.0733408"><ele>1040.0</ele><time>2026-04-26T09:51:35.371Z</time></trkpt><trkpt lat="44.2037116" lon="8.0733608"><ele>1041.0</ele><time>2026-04-26T09:51:36.361Z</time></trkpt><trkpt lat="44.2035665" lon="8.0734216"><ele>1041.0</ele><time>2026-04-26T09:51:37.357Z</time></trkpt><trkpt lat="44.2034039" lon="8.0734626"><ele>1041.0</ele><time>2026-04-26T09:51:38.364Z</time></trkpt><trkpt lat="44.203264" lon="8.073485"><ele>1041.0</ele><time>2026-04-26T09:51:39.357Z</time></trkpt><trkpt lat="44.203124" lon="8.0734559"><ele>1041.0</ele><time>2026-04-26T09:51:40.359Z</time></trkpt><trkpt lat="44.2029743" lon="8.0734131"><ele>1041.5</ele><time>2026-04-26T09:51:41.36Z</time></trkpt><trkpt lat="44.2028756" lon="8.073347"><ele>1042.0</ele><time>2026-04-26T09:51:42.359Z</time></trkpt><trkpt lat="44.2028553" lon="8.073237"><ele>1042.5</ele><time>2026-04-26T09:51:44.36Z</time></trkpt><trkpt lat="44.2030041" lon="8.0733057"><ele>1043.0</ele><time>2026-04-26T09:51:46.361Z</time></trkpt><trkpt lat="44.2031188" lon="8.0734107"><ele>1042.6</ele><time>2026-04-26T09:51:47.356Z</time></trkpt><trkpt lat="44.2032292" lon="8.073502"><ele>1042.1999999999998</ele><time>2026-04-26T09:51:48.36Z</time></trkpt><trkpt lat="44.2033211" lon="8.0735677"><ele>1041.8</ele><time>2026-04-26T09:51:49.377Z</time></trkpt><trkpt lat="44.203414" lon="8.0736036"><ele>1041.3999999999999</ele><time>2026-04-26T09:51:50.361Z</time></trkpt><trkpt lat="44.2035177" lon="8.0735765"><ele>1041.0</ele><time>2026-04-26T09:51:51.362Z</time></trkpt><trkpt lat="44.2036128" lon="8.0734246"><ele>1047.6666666666667</ele><time>2026-04-26T09:51:52.367Z</time></trkpt><trkpt lat="44.2037343" lon="8.0732134"><ele>1054.3333333333335</ele><time>2026-04-26T09:51:53.359Z</time></trkpt><trkpt lat="44.2038672" lon="8.0730922"><ele>1061.0</ele><time>2026-04-26T09:51:54.357Z</time></trkpt><trkpt lat="44.2040086" lon="8.073019"><ele>1062.6666666666667</ele><time>2026-04-26T09:51:55.361Z</time></trkpt><trkpt lat="44.2041752" lon="8.0730417"><ele>1064.3333333333333</ele><time>2026-04-26T09:51:56.377Z</time></trkpt><trkpt lat="44.204326" lon="8.0730834"><ele>1066.0</ele><time>2026-04-26T09:51:57.359Z</time></trkpt><trkpt lat="44.2044614" lon="8.0730958"><ele>1066.0</ele><time>2026-04-26T09:51:58.36Z</time></trkpt><trkpt lat="44.2045838" lon="8.0730557"><ele>1066.0</ele><time>2026-04-26T09:51:59.374Z</time></trkpt><trkpt lat="44.2046842" lon="8.0730062"><ele>1066.0</ele><time>2026-04-26T09:52:00.362Z</time></trkpt><trkpt lat="44.2047531" lon="8.0729318"><ele>1066.0</ele><time>2026-04-26T09:52:01.364Z</time></trkpt><trkpt lat="44.2047324" lon="8.0728166"><ele>1066.0</ele><time>2026-04-26T09:52:03.359Z</time></trkpt><trkpt lat="44.2045772" lon="8.0728228"><ele>1066.0</ele><time>2026-04-26T09:52:05.358Z</time></trkpt><trkpt lat="44.2044852" lon="8.0728326"><ele>1066.0</ele><time>2026-04-26T09:52:06.364Z</time></trkpt><trkpt lat="44.2043809" lon="8.0728055"><ele>1066.0</ele><time>2026-04-26T09:52:07.352Z</time></trkpt><trkpt lat="44.2042622" lon="8.0727323"><ele>1066.0</ele><time>2026-04-26T09:52:08.356Z</time></trkpt><trkpt lat="44.2041277" lon="8.0726407"><ele>1064.3333333333333</ele><time>2026-04-26T09:52:09.351Z</time></trkpt><trkpt lat="44.2039749" lon="8.0725732"><ele>1062.6666666666667</ele><time>2026-04-26T09:52:10.359Z</time></trkpt><trkpt lat="44.2038142" lon="8.0725182"><ele>1061.0</ele><time>2026-04-26T09:52:11.355Z</time></trkpt><trkpt lat="44.2036651" lon="8.0724833"><ele>1061.0</ele><time>2026-04-26T09:52:12.378Z</time></trkpt><trkpt lat="44.2035403" lon="8.0724518"><ele>1061.0</ele><time>2026-04-26T09:52:13.357Z</time></trkpt><trkpt lat="44.2034182" lon="8.0723762"><ele>1061.0</ele><time>2026-04-26T09:52:14.36Z</time></trkpt><trkpt lat="44.2033218" lon="8.0722686"><ele>1061.0</ele><time>2026-04-26T09:52:15.364Z</time></trkpt><trkpt lat="44.2032399" lon="8.0721834"><ele>1060.5</ele><time>2026-04-26T09:52:16.372Z</time></trkpt><trkpt lat="44.2031291" lon="8.0720803"><ele>1060.0</ele><time>2026-04-26T09:52:17.361Z</time></trkpt><trkpt lat="44.2030151" lon="8.0720527"><ele>1059.5</ele><time>2026-04-26T09:52:18.358Z</time></trkpt><trkpt lat="44.2029019" lon="8.0720529"><ele>1059.0</ele><time>2026-04-26T09:52:19.361Z</time></trkpt><trkpt lat="44.2028021" lon="8.0719781"><ele>1059.0</ele><time>2026-04-26T09:52:20.354Z</time></trkpt><trkpt lat="44.2027424" lon="8.0718292"><ele>1059.0</ele><time>2026-04-26T09:52:21.363Z</time></trkpt><trkpt lat="44.2027141" lon="8.0716309"><ele>1059.0</ele><time>2026-04-26T09:52:22.363Z</time></trkpt><trkpt lat="44.2027143" lon="8.0714401"><ele>1059.0</ele><time>2026-04-26T09:52:23.351Z</time></trkpt><trkpt lat="44.2027368" lon="8.0712575"><ele>1061.0</ele><time>2026-04-26T09:52:24.358Z</time></trkpt><trkpt lat="44.2027664" lon="8.0710659"><ele>1063.0</ele><time>2026-04-26T09:52:25.352Z</time></trkpt><trkpt lat="44.2027798" lon="8.0708568"><ele>1065.0</ele><time>2026-04-26T09:52:26.356Z</time></trkpt><trkpt lat="44.2027707" lon="8.0706586"><ele>1067.0</ele><time>2026-04-26T09:52:27.358Z</time></trkpt><trkpt lat="44.2027386" lon="8.0704688"><ele>1071.0</ele><time>2026-04-26T09:52:28.353Z</time></trkpt><trkpt lat="44.2026828" lon="8.0702867"><ele>1075.0</ele><time>2026-04-26T09:52:29.36Z</time></trkpt><trkpt lat="44.2026431" lon="8.0701053"><ele>1079.0</ele><time>2026-04-26T09:52:30.358Z</time></trkpt><trkpt lat="44.2025929" lon="8.0699319"><ele>1083.0</ele><time>2026-04-26T09:52:31.357Z</time></trkpt><trkpt lat="44.2025102" lon="8.0698306"><ele>1085.75</ele><time>2026-04-26T09:52:32.368Z</time></trkpt><trkpt lat="44.2024046" lon="8.0697211"><ele>1088.5</ele><time>2026-04-26T09:52:33.36Z</time></trkpt><trkpt lat="44.2023328" lon="8.069563"><ele>1091.25</ele><time>2026-04-26T09:52:34.359Z</time></trkpt><trkpt lat="44.2023085" lon="8.0693923"><ele>1094.0</ele><time>2026-04-26T09:52:35.359Z</time></trkpt><trkpt lat="44.2022884" lon="8.0691915"><ele>1095.0</ele><time>2026-04-26T09:52:36.359Z</time></trkpt><trkpt lat="44.2022682" lon="8.0689721"><ele>1096.0</ele><time>2026-04-26T09:52:37.353Z</time></trkpt><trkpt lat="44.2022789" lon="8.0687517"><ele>1097.0</ele><time>2026-04-26T09:52:38.359Z</time></trkpt><trkpt lat="44.2023147" lon="8.0685399"><ele>1098.75</ele><time>2026-04-26T09:52:39.373Z</time></trkpt><trkpt lat="44.202396" lon="8.0683404"><ele>1100.5</ele><time>2026-04-26T09:52:40.357Z</time></trkpt><trkpt lat="44.2024659" lon="8.0681648"><ele>1102.25</ele><time>2026-04-26T09:52:41.358Z</time></trkpt><trkpt lat="44.2025194" lon="8.0680146"><ele>1104.0</ele><time>2026-04-26T09:52:42.36Z</time></trkpt><trkpt lat="44.2025295" lon="8.067894"><ele>1105.0</ele><time>2026-04-26T09:52:43.351Z</time></trkpt><trkpt lat="44.2025026" lon="8.0677829"><ele>1106.0</ele><time>2026-04-26T09:52:44.357Z</time></trkpt><trkpt lat="44.2024327" lon="8.0677061"><ele>1107.0</ele><time>2026-04-26T09:52:45.352Z</time></trkpt><trkpt lat="44.2023232" lon="8.067733"><ele>1108.0</ele><time>2026-04-26T09:52:46.353Z</time></trkpt><trkpt lat="44.2022098" lon="8.0677669"><ele>1109.0</ele><time>2026-04-26T09:52:47.351Z</time></trkpt><trkpt lat="44.2020787" lon="8.0678392"><ele>1106.25</ele><time>2026-04-26T09:52:48.356Z</time></trkpt><trkpt lat="44.2019436" lon="8.0679038"><ele>1103.5</ele><time>2026-04-26T09:52:49.348Z</time></trkpt><trkpt lat="44.2018042" lon="8.0678876"><ele>1100.75</ele><time>2026-04-26T09:52:50.353Z</time></trkpt><trkpt lat="44.2016956" lon="8.0678312"><ele>1098.0</ele><time>2026-04-26T09:52:51.364Z</time></trkpt><trkpt lat="44.2016195" lon="8.0677126"><ele>1098.0</ele><time>2026-04-26T09:52:53.351Z</time></trkpt><trkpt lat="44.2016006" lon="8.0675677"><ele>1098.0</ele><time>2026-04-26T09:52:54.366Z</time></trkpt><trkpt lat="44.2015948" lon="8.0673817"><ele>1098.0</ele><time>2026-04-26T09:52:55.367Z</time></trkpt><trkpt lat="44.201582" lon="8.0671716"><ele>1098.0</ele><time>2026-04-26T09:52:56.352Z</time></trkpt><trkpt lat="44.20157" lon="8.0669327"><ele>1098.6666666666667</ele><time>2026-04-26T09:52:57.367Z</time></trkpt><trkpt lat="44.201571" lon="8.0666808"><ele>1099.3333333333335</ele><time>2026-04-26T09:52:58.36Z</time></trkpt><trkpt lat="44.2015669" lon="8.0664336"><ele>1100.0</ele><time>2026-04-26T09:52:59.362Z</time></trkpt><trkpt lat="44.2015474" lon="8.0662102"><ele>1100.0</ele><time>2026-04-26T09:53:00.352Z</time></trkpt><trkpt lat="44.2015148" lon="8.0660026"><ele>1100.0</ele><time>2026-04-26T09:53:01.365Z</time></trkpt><trkpt lat="44.2014814" lon="8.0658045"><ele>1100.0</ele><time>2026-04-26T09:53:02.371Z</time></trkpt><trkpt lat="44.2014806" lon="8.0656027"><ele>1100.0</ele><time>2026-04-26T09:53:03.357Z</time></trkpt><trkpt lat="44.2015184" lon="8.0653807"><ele>1095.75</ele><time>2026-04-26T09:53:04.356Z</time></trkpt><trkpt lat="44.2015612" lon="8.065179"><ele>1091.5</ele><time>2026-04-26T09:53:05.366Z</time></trkpt><trkpt lat="44.2016313" lon="8.0649979"><ele>1087.25</ele><time>2026-04-26T09:53:06.359Z</time></trkpt><trkpt lat="44.2017377" lon="8.0648744"><ele>1083.0</ele><time>2026-04-26T09:53:07.363Z</time></trkpt><trkpt lat="44.2018723" lon="8.0648028"><ele>1073.3333333333333</ele><time>2026-04-26T09:53:08.365Z</time></trkpt><trkpt lat="44.2020361" lon="8.0647496"><ele>1063.6666666666665</ele><time>2026-04-26T09:53:09.365Z</time></trkpt><trkpt lat="44.2022015" lon="8.0647234"><ele>1054.0</ele><time>2026-04-26T09:53:10.377Z</time></trkpt><trkpt lat="44.202376" lon="8.0647403"><ele>1054.0</ele><time>2026-04-26T09:53:11.362Z</time></trkpt><trkpt lat="44.2025489" lon="8.064755"><ele>1054.0</ele><time>2026-04-26T09:53:12.356Z</time></trkpt><trkpt lat="44.2027201" lon="8.0647672"><ele>1054.0</ele><time>2026-04-26T09:53:13.363Z</time></trkpt><trkpt lat="44.202893" lon="8.0647575"><ele>1054.0</ele><time>2026-04-26T09:53:14.364Z</time></trkpt><trkpt lat="44.2030436" lon="8.064748"><ele>1054.0</ele><time>2026-04-26T09:53:15.373Z</time></trkpt><trkpt lat="44.203165" lon="8.0647317"><ele>1054.0</ele><time>2026-04-26T09:53:16.374Z</time></trkpt><trkpt lat="44.2032602" lon="8.0646844"><ele>1054.0</ele><time>2026-04-26T09:53:17.367Z</time></trkpt><trkpt lat="44.2033161" lon="8.0646057"><ele>1048.25</ele><time>2026-04-26T09:53:18.351Z</time></trkpt><trkpt lat="44.2032996" lon="8.0644761"><ele>1042.5</ele><time>2026-04-26T09:53:19.354Z</time></trkpt><trkpt lat="44.2032473" lon="8.0643295"><ele>1036.75</ele><time>2026-04-26T09:53:20.365Z</time></trkpt><trkpt lat="44.2031889" lon="8.0641636"><ele>1031.0</ele><time>2026-04-26T09:53:21.356Z</time></trkpt><trkpt lat="44.2031543" lon="8.0639727"><ele>1031.0</ele><time>2026-04-26T09:53:22.348Z</time></trkpt><trkpt lat="44.2031444" lon="8.0637625"><ele>1031.0</ele><time>2026-04-26T09:53:23.35Z</time></trkpt><trkpt lat="44.2031529" lon="8.0635102"><ele>1031.0</ele><time>2026-04-26T09:53:24.342Z</time></trkpt><trkpt lat="44.2031794" lon="8.0632466"><ele>1047.3333333333335</ele><time>2026-04-26T09:53:25.373Z</time></trkpt><trkpt lat="44.2032151" lon="8.0630137"><ele>1063.6666666666667</ele><time>2026-04-26T09:53:26.349Z</time></trkpt><trkpt lat="44.2032404" lon="8.0627886"><ele>1080.0</ele><time>2026-04-26T09:53:27.352Z</time></trkpt><trkpt lat="44.2032346" lon="8.0625869"><ele>1079.5</ele><time>2026-04-26T09:53:28.351Z</time></trkpt><trkpt lat="44.2031871" lon="8.062409"><ele>1079.0</ele><time>2026-04-26T09:53:29.362Z</time></trkpt><trkpt lat="44.2030895" lon="8.062256"><ele>1078.5</ele><time>2026-04-26T09:53:30.354Z</time></trkpt><trkpt lat="44.2029937" lon="8.0621072"><ele>1078.0</ele><time>2026-04-26T09:53:31.363Z</time></trkpt><trkpt lat="44.2029374" lon="8.0619832"><ele>1073.5</ele><time>2026-04-26T09:53:32.368Z</time></trkpt><trkpt lat="44.2029673" lon="8.0618412"><ele>1069.0</ele><time>2026-04-26T09:53:33.356Z</time></trkpt><trkpt lat="44.2030381" lon="8.0616861"><ele>1064.5</ele><time>2026-04-26T09:53:34.354Z</time></trkpt><trkpt lat="44.2031459" lon="8.0615092"><ele>1060.0</ele><time>2026-04-26T09:53:35.373Z</time></trkpt><trkpt lat="44.2032179" lon="8.0613092"><ele>1060.0</ele><time>2026-04-26T09:53:36.357Z</time></trkpt><trkpt lat="44.2032672" lon="8.0610805"><ele>1060.0</ele><time>2026-04-26T09:53:37.353Z</time></trkpt><trkpt lat="44.203307" lon="8.0608631"><ele>1060.0</ele><time>2026-04-26T09:53:38.365Z</time></trkpt><trkpt lat="44.203355" lon="8.0606717"><ele>1059.0</ele><time>2026-04-26T09:53:39.352Z</time></trkpt><trkpt lat="44.2034336" lon="8.0605196"><ele>1058.0</ele><time>2026-04-26T09:53:40.353Z</time></trkpt><trkpt lat="44.2035592" lon="8.0604231"><ele>1057.0</ele><time>2026-04-26T09:53:41.354Z</time></trkpt><trkpt lat="44.2036725" lon="8.0603298"><ele>1056.0</ele><time>2026-04-26T09:53:42.359Z</time></trkpt><trkpt lat="44.2037635" lon="8.0602466"><ele>1056.0</ele><time>2026-04-26T09:53:43.348Z</time></trkpt><trkpt lat="44.2037887" lon="8.060148"><ele>1056.0</ele><time>2026-04-26T09:53:44.354Z</time></trkpt><trkpt lat="44.2037512" lon="8.060043"><ele>1056.0</ele><time>2026-04-26T09:53:45.352Z</time></trkpt><trkpt lat="44.2036617" lon="8.0599379"><ele>1056.0</ele><time>2026-04-26T09:53:46.361Z</time></trkpt><trkpt lat="44.2035398" lon="8.0598285"><ele>1056.0</ele><time>2026-04-26T09:53:47.352Z</time></trkpt><trkpt lat="44.2033861" lon="8.0597042"><ele>1060.0</ele><time>2026-04-26T09:53:48.348Z</time></trkpt><trkpt lat="44.2032432" lon="8.0595787"><ele>1064.0</ele><time>2026-04-26T09:53:49.355Z</time></trkpt><trkpt lat="44.2031062" lon="8.0594771"><ele>1068.0</ele><time>2026-04-26T09:53:50.355Z</time></trkpt><trkpt lat="44.2029668" lon="8.0594452"><ele>1068.0</ele><time>2026-04-26T09:53:51.362Z</time></trkpt><trkpt lat="44.202805" lon="8.0594453"><ele>1068.0</ele><time>2026-04-26T09:53:52.347Z</time></trkpt><trkpt lat="44.2026534" lon="8.0594768"><ele>1068.0</ele><time>2026-04-26T09:53:53.348Z</time></trkpt><trkpt lat="44.2025608" lon="8.0594923"><ele>1068.0</ele><time>2026-04-26T09:53:54.358Z</time></trkpt><trkpt lat="44.2024998" lon="8.0594498"><ele>1068.0</ele><time>2026-04-26T09:53:55.361Z</time></trkpt><trkpt lat="44.2024117" lon="8.0594241"><ele>1068.0</ele><time>2026-04-26T09:53:56.357Z</time></trkpt><trkpt lat="44.202295" lon="8.059378"><ele>1068.0</ele><time>2026-04-26T09:53:57.351Z</time></trkpt><trkpt lat="44.2021992" lon="8.059321"><ele>1068.0</ele><time>2026-04-26T09:53:58.36Z</time></trkpt><trkpt lat="44.2020812" lon="8.0593448"><ele>1068.0</ele><time>2026-04-26T09:53:59.365Z</time></trkpt><trkpt lat="44.2019536" lon="8.0593995"><ele>1061.25</ele><time>2026-04-26T09:54:00.345Z</time></trkpt><trkpt lat="44.2018122" lon="8.0593967"><ele>1054.5</ele><time>2026-04-26T09:54:01.356Z</time></trkpt><trkpt lat="44.2016812" lon="8.059361"><ele>1047.75</ele><time>2026-04-26T09:54:02.354Z</time></trkpt><trkpt lat="44.2015979" lon="8.0592594"><ele>1041.0</ele><time>2026-04-26T09:54:03.353Z</time></trkpt><trkpt lat="44.2015845" lon="8.0591585"><ele>1043.0</ele><time>2026-04-26T09:54:04.354Z</time></trkpt><trkpt lat="44.2016109" lon="8.0590177"><ele>1045.0</ele><time>2026-04-26T09:54:05.353Z</time></trkpt><trkpt lat="44.2016506" lon="8.0588324"><ele>1047.0</ele><time>2026-04-26T09:54:06.349Z</time></trkpt><trkpt lat="44.2016754" lon="8.0586696"><ele>1049.0</ele><time>2026-04-26T09:54:07.355Z</time></trkpt><trkpt lat="44.2016494" lon="8.0584985"><ele>1049.0</ele><time>2026-04-26T09:54:08.349Z</time></trkpt><trkpt lat="44.201557" lon="8.0583465"><ele>1049.0</ele><time>2026-04-26T09:54:09.365Z</time></trkpt><trkpt lat="44.2014397" lon="8.0581901"><ele>1049.0</ele><time>2026-04-26T09:54:10.352Z</time></trkpt><trkpt lat="44.2013326" lon="8.0580297"><ele>1041.75</ele><time>2026-04-26T09:54:11.363Z</time></trkpt><trkpt lat="44.2012649" lon="8.0578726"><ele>1034.5</ele><time>2026-04-26T09:54:12.358Z</time></trkpt><trkpt lat="44.2012741" lon="8.057696"><ele>1027.25</ele><time>2026-04-26T09:54:13.373Z</time></trkpt><trkpt lat="44.201253" lon="8.0575086"><ele>1020.0</ele><time>2026-04-26T09:54:14.354Z</time></trkpt><trkpt lat="44.2011686" lon="8.0573414"><ele>1020.0</ele><time>2026-04-26T09:54:15.356Z</time></trkpt><trkpt lat="44.2010438" lon="8.0571732"><ele>1020.0</ele><time>2026-04-26T09:54:16.35Z</time></trkpt><trkpt lat="44.2009336" lon="8.056992"><ele>1020.0</ele><time>2026-04-26T09:54:17.357Z</time></trkpt><trkpt lat="44.200863" lon="8.0568018"><ele>1016.6666666666667</ele><time>2026-04-26T09:54:18.351Z</time></trkpt><trkpt lat="44.2008367" lon="8.0566042"><ele>1013.3333333333334</ele><time>2026-04-26T09:54:19.366Z</time></trkpt><trkpt lat="44.2008642" lon="8.0563882"><ele>1010.0</ele><time>2026-04-26T09:54:20.352Z</time></trkpt><trkpt lat="44.2008741" lon="8.0561664"><ele>1010.0</ele><time>2026-04-26T09:54:21.352Z</time></trkpt><trkpt lat="44.2008873" lon="8.0559429"><ele>1010.0</ele><time>2026-04-26T09:54:22.354Z</time></trkpt><trkpt lat="44.2009053" lon="8.0557205"><ele>1010.0</ele><time>2026-04-26T09:54:23.361Z</time></trkpt><trkpt lat="44.2009304" lon="8.0555045"><ele>1005.2</ele><time>2026-04-26T09:54:24.354Z</time></trkpt><trkpt lat="44.2009644" lon="8.0553203"><ele>1000.4</ele><time>2026-04-26T09:54:25.357Z</time></trkpt><trkpt lat="44.2010248" lon="8.0551799"><ele>995.5999999999999</ele><time>2026-04-26T09:54:26.362Z</time></trkpt><trkpt lat="44.2010921" lon="8.0551082"><ele>990.8</ele><time>2026-04-26T09:54:27.353Z</time></trkpt><trkpt lat="44.2011998" lon="8.0551031"><ele>986.0</ele><time>2026-04-26T09:54:28.352Z</time></trkpt><trkpt lat="44.2013283" lon="8.0551111"><ele>986.0</ele><time>2026-04-26T09:54:29.349Z</time></trkpt><trkpt lat="44.2014544" lon="8.055108"><ele>986.0</ele><time>2026-04-26T09:54:30.351Z</time></trkpt><trkpt lat="44.2015614" lon="8.0550273"><ele>986.0</ele><time>2026-04-26T09:54:31.351Z</time></trkpt><trkpt lat="44.2016298" lon="8.0548538"><ele>986.0</ele><time>2026-04-26T09:54:32.35Z</time></trkpt><trkpt lat="44.2016856" lon="8.054627"><ele>986.75</ele><time>2026-04-26T09:54:33.353Z</time></trkpt><trkpt lat="44.2017236" lon="8.0543975"><ele>987.5</ele><time>2026-04-26T09:54:34.349Z</time></trkpt><trkpt lat="44.2017358" lon="8.0541915"><ele>988.25</ele><time>2026-04-26T09:54:35.35Z</time></trkpt><trkpt lat="44.2017647" lon="8.0540404"><ele>989.0</ele><time>2026-04-26T09:54:36.359Z</time></trkpt><trkpt lat="44.2018319" lon="8.0538921"><ele>985.8000000000001</ele><time>2026-04-26T09:54:37.358Z</time></trkpt><trkpt lat="44.2019079" lon="8.0537811"><ele>982.6000000000001</ele><time>2026-04-26T09:54:38.348Z</time></trkpt><trkpt lat="44.2019882" lon="8.0536706"><ele>979.4</ele><time>2026-04-26T09:54:39.351Z</time></trkpt><trkpt lat="44.2020218" lon="8.0535693"><ele>976.2</ele><time>2026-04-26T09:54:40.359Z</time></trkpt><trkpt lat="44.2020242" lon="8.0534451"><ele>973.0</ele><time>2026-04-26T09:54:41.359Z</time></trkpt><trkpt lat="44.2020165" lon="8.0533244"><ele>971.0</ele><time>2026-04-26T09:54:42.358Z</time></trkpt><trkpt lat="44.2019878" lon="8.0531507"><ele>969.0</ele><time>2026-04-26T09:54:43.357Z</time></trkpt><trkpt lat="44.2019825" lon="8.0529609"><ele>967.0</ele><time>2026-04-26T09:54:44.353Z</time></trkpt><trkpt lat="44.2020229" lon="8.0527589"><ele>965.0</ele><time>2026-04-26T09:54:45.355Z</time></trkpt><trkpt lat="44.2020525" lon="8.0525536"><ele>962.3333333333334</ele><time>2026-04-26T09:54:46.354Z</time></trkpt><trkpt lat="44.2020603" lon="8.0523114"><ele>959.6666666666667</ele><time>2026-04-26T09:54:47.365Z</time></trkpt><trkpt lat="44.202061" lon="8.0520354"><ele>957.0</ele><time>2026-04-26T09:54:48.358Z</time></trkpt><trkpt lat="44.20205" lon="8.0517613"><ele>954.3333333333333</ele><time>2026-04-26T09:54:49.373Z</time></trkpt><trkpt lat="44.2020463" lon="8.0515097"><ele>951.6666666666666</ele><time>2026-04-26T09:54:50.354Z</time></trkpt><trkpt lat="44.2020592" lon="8.0512691"><ele>949.0</ele><time>2026-04-26T09:54:51.366Z</time></trkpt><trkpt lat="44.2020801" lon="8.0510231"><ele>945.3333333333333</ele><time>2026-04-26T09:54:52.368Z</time></trkpt><trkpt lat="44.2021318" lon="8.0507825"><ele>941.6666666666667</ele><time>2026-04-26T09:54:53.358Z</time></trkpt><trkpt lat="44.202213" lon="8.0505349"><ele>938.0</ele><time>2026-04-26T09:54:54.359Z</time></trkpt><trkpt lat="44.2023022" lon="8.0502849"><ele>938.6666666666667</ele><time>2026-04-26T09:54:55.363Z</time></trkpt><trkpt lat="44.2023977" lon="8.0500539"><ele>939.3333333333333</ele><time>2026-04-26T09:54:56.384Z</time></trkpt><trkpt lat="44.2025042" lon="8.0498466"><ele>940.0</ele><time>2026-04-26T09:54:57.353Z</time></trkpt><trkpt lat="44.2026224" lon="8.0496794"><ele>940.0</ele><time>2026-04-26T09:54:58.367Z</time></trkpt><trkpt lat="44.20276" lon="8.0495779"><ele>940.0</ele><time>2026-04-26T09:54:59.357Z</time></trkpt><trkpt lat="44.2029153" lon="8.0495321"><ele>940.0</ele><time>2026-04-26T09:55:00.357Z</time></trkpt><trkpt lat="44.2030723" lon="8.0495534"><ele>938.3333333333333</ele><time>2026-04-26T09:55:01.355Z</time></trkpt><trkpt lat="44.2032377" lon="8.0496186"><ele>936.6666666666667</ele><time>2026-04-26T09:55:02.356Z</time></trkpt><trkpt lat="44.2033934" lon="8.0497045"><ele>935.0</ele><time>2026-04-26T09:55:03.356Z</time></trkpt><trkpt lat="44.203524" lon="8.0498214"><ele>935.0</ele><time>2026-04-26T09:55:04.361Z</time></trkpt><trkpt lat="44.2036131" lon="8.0499231"><ele>935.0</ele><time>2026-04-26T09:55:05.366Z</time></trkpt><trkpt lat="44.2036899" lon="8.049967"><ele>935.0</ele><time>2026-04-26T09:55:06.36Z</time></trkpt><trkpt lat="44.203761" lon="8.0498884"><ele>935.0</ele><time>2026-04-26T09:55:08.355Z</time></trkpt><trkpt lat="44.2037479" lon="8.0497911"><ele>935.0</ele><time>2026-04-26T09:55:09.357Z</time></trkpt><trkpt lat="44.2036681" lon="8.049664"><ele>935.0</ele><time>2026-04-26T09:55:10.353Z</time></trkpt><trkpt lat="44.2035463" lon="8.0494926"><ele>935.0</ele><time>2026-04-26T09:55:11.365Z</time></trkpt><trkpt lat="44.2034056" lon="8.0492986"><ele>935.0</ele><time>2026-04-26T09:55:12.354Z</time></trkpt><trkpt lat="44.2032623" lon="8.0491261"><ele>930.3333333333334</ele><time>2026-04-26T09:55:13.359Z</time></trkpt><trkpt lat="44.2031089" lon="8.0489877"><ele>925.6666666666667</ele><time>2026-04-26T09:55:14.355Z</time></trkpt><trkpt lat="44.2029438" lon="8.0488701"><ele>921.0</ele><time>2026-04-26T09:55:15.372Z</time></trkpt><trkpt lat="44.2027862" lon="8.0487623"><ele>921.0</ele><time>2026-04-26T09:55:16.368Z</time></trkpt><trkpt lat="44.2026625" lon="8.0486425"><ele>921.0</ele><time>2026-04-26T09:55:17.363Z</time></trkpt><trkpt lat="44.2025846" lon="8.0485082"><ele>921.0</ele><time>2026-04-26T09:55:18.367Z</time></trkpt><trkpt lat="44.2025142" lon="8.0484196"><ele>921.0</ele><time>2026-04-26T09:55:19.352Z</time></trkpt><trkpt lat="44.2024163" lon="8.0484267"><ele>917.3333333333333</ele><time>2026-04-26T09:55:20.379Z</time></trkpt><trkpt lat="44.2022882" lon="8.0484592"><ele>913.6666666666666</ele><time>2026-04-26T09:55:21.357Z</time></trkpt><trkpt lat="44.2021439" lon="8.0485335"><ele>910.0</ele><time>2026-04-26T09:55:22.354Z</time></trkpt><trkpt lat="44.2019902" lon="8.0486307"><ele>910.0</ele><time>2026-04-26T09:55:23.36Z</time></trkpt><trkpt lat="44.2018151" lon="8.0487273"><ele>910.0</ele><time>2026-04-26T09:55:24.356Z</time></trkpt><trkpt lat="44.2016399" lon="8.0487996"><ele>910.0</ele><time>2026-04-26T09:55:25.357Z</time></trkpt><trkpt lat="44.2014588" lon="8.0488314"><ele>905.3333333333333</ele><time>2026-04-26T09:55:26.36Z</time></trkpt><trkpt lat="44.2012725" lon="8.0488421"><ele>900.6666666666667</ele><time>2026-04-26T09:55:27.353Z</time></trkpt><trkpt lat="44.2011236" lon="8.0488946"><ele>896.0</ele><time>2026-04-26T09:55:28.366Z</time></trkpt><trkpt lat="44.2010076" lon="8.0489793"><ele>896.0</ele><time>2026-04-26T09:55:29.353Z</time></trkpt><trkpt lat="44.2009098" lon="8.0491107"><ele>896.0</ele><time>2026-04-26T09:55:30.365Z</time></trkpt><trkpt lat="44.200849" lon="8.0492932"><ele>896.0</ele><time>2026-04-26T09:55:31.359Z</time></trkpt><trkpt lat="44.2007812" lon="8.0495051"><ele>896.0</ele><time>2026-04-26T09:55:32.36Z</time></trkpt><trkpt lat="44.2007225" lon="8.0496973"><ele>897.8</ele><time>2026-04-26T09:55:33.368Z</time></trkpt><trkpt lat="44.2006871" lon="8.0498523"><ele>899.5999999999999</ele><time>2026-04-26T09:55:34.355Z</time></trkpt><trkpt lat="44.200689" lon="8.0499998"><ele>901.4</ele><time>2026-04-26T09:55:35.358Z</time></trkpt><trkpt lat="44.2007076" lon="8.0501389"><ele>903.2</ele><time>2026-04-26T09:55:36.371Z</time></trkpt><trkpt lat="44.2007" lon="8.0503016"><ele>905.0</ele><time>2026-04-26T09:55:37.354Z</time></trkpt><trkpt lat="44.2006507" lon="8.0504126"><ele>899.8</ele><time>2026-04-26T09:55:38.358Z</time></trkpt><trkpt lat="44.2005783" lon="8.0504293"><ele>894.6</ele><time>2026-04-26T09:55:39.353Z</time></trkpt><trkpt lat="44.2005241" lon="8.0503551"><ele>889.4000000000001</ele><time>2026-04-26T09:55:40.357Z</time></trkpt><trkpt lat="44.2004916" lon="8.0502226"><ele>884.2</ele><time>2026-04-26T09:55:41.357Z</time></trkpt><trkpt lat="44.2004682" lon="8.0500725"><ele>879.0</ele><time>2026-04-26T09:55:42.355Z</time></trkpt><trkpt lat="44.2003937" lon="8.0499158"><ele>878.0</ele><time>2026-04-26T09:55:43.358Z</time></trkpt><trkpt lat="44.2003152" lon="8.0497557"><ele>877.0</ele><time>2026-04-26T09:55:44.364Z</time></trkpt><trkpt lat="44.2002838" lon="8.0495626"><ele>876.0</ele><time>2026-04-26T09:55:45.364Z</time></trkpt><trkpt lat="44.2002677" lon="8.0493498"><ele>875.0</ele><time>2026-04-26T09:55:46.366Z</time></trkpt><trkpt lat="44.2002806" lon="8.0491178"><ele>874.75</ele><time>2026-04-26T09:55:47.354Z</time></trkpt><trkpt lat="44.2002968" lon="8.0489194"><ele>874.5</ele><time>2026-04-26T09:55:48.359Z</time></trkpt><trkpt lat="44.2002816" lon="8.0487303"><ele>874.25</ele><time>2026-04-26T09:55:49.353Z</time></trkpt><trkpt lat="44.200225" lon="8.0485382"><ele>874.0</ele><time>2026-04-26T09:55:50.378Z</time></trkpt><trkpt lat="44.2001439" lon="8.0483387"><ele>872.75</ele><time>2026-04-26T09:55:51.348Z</time></trkpt><trkpt lat="44.2000614" lon="8.0481386"><ele>871.5</ele><time>2026-04-26T09:55:52.36Z</time></trkpt><trkpt lat="44.20001" lon="8.0479513"><ele>870.25</ele><time>2026-04-26T09:55:53.366Z</time></trkpt><trkpt lat="44.1999984" lon="8.0477709"><ele>869.0</ele><time>2026-04-26T09:55:54.365Z</time></trkpt><trkpt lat="44.2000209" lon="8.0475806"><ele>867.6</ele><time>2026-04-26T09:55:55.356Z</time></trkpt><trkpt lat="44.2000597" lon="8.0474166"><ele>866.2</ele><time>2026-04-26T09:55:56.359Z</time></trkpt><trkpt lat="44.2001306" lon="8.0472893"><ele>864.8000000000001</ele><time>2026-04-26T09:55:57.361Z</time></trkpt><trkpt lat="44.200195" lon="8.0471937"><ele>863.4000000000001</ele><time>2026-04-26T09:55:58.362Z</time></trkpt><trkpt lat="44.2002305" lon="8.0471065"><ele>862.0</ele><time>2026-04-26T09:55:59.355Z</time></trkpt><trkpt lat="44.2001392" lon="8.0470811"><ele>862.0</ele><time>2026-04-26T09:56:01.363Z</time></trkpt><trkpt lat="44.2000631" lon="8.0471394"><ele>862.0</ele><time>2026-04-26T09:56:02.356Z</time></trkpt><trkpt lat="44.199975" lon="8.0472259"><ele>862.0</ele><time>2026-04-26T09:56:03.361Z</time></trkpt><trkpt lat="44.1998678" lon="8.0473515"><ele>862.0</ele><time>2026-04-26T09:56:04.351Z</time></trkpt><trkpt lat="44.1997547" lon="8.0474866"><ele>857.6666666666666</ele><time>2026-04-26T09:56:05.359Z</time></trkpt><trkpt lat="44.1996399" lon="8.0476363"><ele>853.3333333333333</ele><time>2026-04-26T09:56:06.364Z</time></trkpt><trkpt lat="44.1995225" lon="8.0477639"><ele>849.0</ele><time>2026-04-26T09:56:07.36Z</time></trkpt><trkpt lat="44.1994093" lon="8.0479103"><ele>849.0</ele><time>2026-04-26T09:56:08.358Z</time></trkpt><trkpt lat="44.1993292" lon="8.0480739"><ele>849.0</ele><time>2026-04-26T09:56:09.365Z</time></trkpt><trkpt lat="44.199294" lon="8.0482592"><ele>849.0</ele><time>2026-04-26T09:56:10.378Z</time></trkpt><trkpt lat="44.1992972" lon="8.0484346"><ele>849.0</ele><time>2026-04-26T09:56:11.358Z</time></trkpt><trkpt lat="44.1992992" lon="8.04859"><ele>850.25</ele><time>2026-04-26T09:56:12.361Z</time></trkpt><trkpt lat="44.1992612" lon="8.0487133"><ele>851.5</ele><time>2026-04-26T09:56:13.358Z</time></trkpt><trkpt lat="44.199188" lon="8.0487589"><ele>852.75</ele><time>2026-04-26T09:56:14.357Z</time></trkpt><trkpt lat="44.1990757" lon="8.0486074"><ele>854.0</ele><time>2026-04-26T09:56:16.357Z</time></trkpt><trkpt lat="44.1990133" lon="8.0484635"><ele>852.75</ele><time>2026-04-26T09:56:17.363Z</time></trkpt><trkpt lat="44.1989703" lon="8.0482961"><ele>851.5</ele><time>2026-04-26T09:56:18.364Z</time></trkpt><trkpt lat="44.1989593" lon="8.0481292"><ele>850.25</ele><time>2026-04-26T09:56:19.359Z</time></trkpt><trkpt lat="44.1989926" lon="8.0479405"><ele>849.0</ele><time>2026-04-26T09:56:20.368Z</time></trkpt><trkpt lat="44.1990654" lon="8.0477879"><ele>849.0</ele><time>2026-04-26T09:56:21.36Z</time></trkpt><trkpt lat="44.199127" lon="8.0476255"><ele>849.0</ele><time>2026-04-26T09:56:22.359Z</time></trkpt><trkpt lat="44.1991533" lon="8.0474464"><ele>849.0</ele><time>2026-04-26T09:56:23.358Z</time></trkpt><trkpt lat="44.1991432" lon="8.0472796"><ele>849.0</ele><time>2026-04-26T09:56:24.361Z</time></trkpt><trkpt lat="44.1990884" lon="8.0470992"><ele>847.5</ele><time>2026-04-26T09:56:25.353Z</time></trkpt><trkpt lat="44.1990121" lon="8.0469124"><ele>846.0</ele><time>2026-04-26T09:56:26.368Z</time></trkpt><trkpt lat="44.1989406" lon="8.046744"><ele>844.5</ele><time>2026-04-26T09:56:27.355Z</time></trkpt><trkpt lat="44.1988749" lon="8.0465534"><ele>843.0</ele><time>2026-04-26T09:56:28.371Z</time></trkpt><trkpt lat="44.1988398" lon="8.0463361"><ele>835.75</ele><time>2026-04-26T09:56:29.372Z</time></trkpt><trkpt lat="44.1988235" lon="8.0461153"><ele>828.5</ele><time>2026-04-26T09:56:30.355Z</time></trkpt><trkpt lat="44.1988022" lon="8.0459129"><ele>821.25</ele><time>2026-04-26T09:56:31.356Z</time></trkpt><trkpt lat="44.1987994" lon="8.0457406"><ele>814.0</ele><time>2026-04-26T09:56:32.36Z</time></trkpt><trkpt lat="44.1988293" lon="8.0455755"><ele>814.75</ele><time>2026-04-26T09:56:33.352Z</time></trkpt><trkpt lat="44.1989101" lon="8.0454507"><ele>815.5</ele><time>2026-04-26T09:56:34.357Z</time></trkpt><trkpt lat="44.1990271" lon="8.04536"><ele>816.25</ele><time>2026-04-26T09:56:35.362Z</time></trkpt><trkpt lat="44.1991675" lon="8.0452833"><ele>817.0</ele><time>2026-04-26T09:56:36.36Z</time></trkpt><trkpt lat="44.1993255" lon="8.0451999"><ele>817.0</ele><time>2026-04-26T09:56:37.356Z</time></trkpt><trkpt lat="44.1994726" lon="8.0450867"><ele>817.0</ele><time>2026-04-26T09:56:38.37Z</time></trkpt><trkpt lat="44.1996202" lon="8.0449456"><ele>817.0</ele><time>2026-04-26T09:56:39.358Z</time></trkpt><trkpt lat="44.1997524" lon="8.0447799"><ele>815.6666666666666</ele><time>2026-04-26T09:56:40.364Z</time></trkpt><trkpt lat="44.199873" lon="8.0446073"><ele>814.3333333333333</ele><time>2026-04-26T09:56:41.365Z</time></trkpt><trkpt lat="44.1999779" lon="8.0444253"><ele>813.0</ele><time>2026-04-26T09:56:42.359Z</time></trkpt><trkpt lat="44.200058" lon="8.0442245"><ele>810.6666666666667</ele><time>2026-04-26T09:56:43.37Z</time></trkpt><trkpt lat="44.2000815" lon="8.0440071"><ele>808.3333333333334</ele><time>2026-04-26T09:56:44.355Z</time></trkpt><trkpt lat="44.2000431" lon="8.0438069"><ele>806.0</ele><time>2026-04-26T09:56:45.365Z</time></trkpt><trkpt lat="44.2000136" lon="8.0436032"><ele>806.0</ele><time>2026-04-26T09:56:46.359Z</time></trkpt><trkpt lat="44.2000036" lon="8.0434012"><ele>806.0</ele><time>2026-04-26T09:56:47.352Z</time></trkpt><trkpt lat="44.2000222" lon="8.043182"><ele>806.0</ele><time>2026-04-26T09:56:48.357Z</time></trkpt><trkpt lat="44.2000848" lon="8.0429909"><ele>802.5</ele><time>2026-04-26T09:56:49.356Z</time></trkpt><trkpt lat="44.2001588" lon="8.0428246"><ele>799.0</ele><time>2026-04-26T09:56:50.376Z</time></trkpt><trkpt lat="44.2002345" lon="8.0426574"><ele>795.5</ele><time>2026-04-26T09:56:51.372Z</time></trkpt><trkpt lat="44.2003323" lon="8.0424963"><ele>792.0</ele><time>2026-04-26T09:56:52.37Z</time></trkpt><trkpt lat="44.200457" lon="8.0423628"><ele>788.75</ele><time>2026-04-26T09:56:53.361Z</time></trkpt><trkpt lat="44.2005594" lon="8.0422431"><ele>785.5</ele><time>2026-04-26T09:56:54.351Z</time></trkpt><trkpt lat="44.200676" lon="8.042207"><ele>782.25</ele><time>2026-04-26T09:56:55.359Z</time></trkpt><trkpt lat="44.2008058" lon="8.0422757"><ele>779.0</ele><time>2026-04-26T09:56:56.357Z</time></trkpt><trkpt lat="44.2008913" lon="8.0423622"><ele>779.0000000000001</ele><time>2026-04-26T09:56:57.372Z</time></trkpt><trkpt lat="44.2009587" lon="8.0424392"><ele>779.0</ele><time>2026-04-26T09:56:58.354Z</time></trkpt><trkpt lat="44.201067" lon="8.0424227"><ele>779.0</ele><time>2026-04-26T09:57:00.367Z</time></trkpt><trkpt lat="44.2010977" lon="8.0423432"><ele>779.0</ele><time>2026-04-26T09:57:01.36Z</time></trkpt><trkpt lat="44.2010807" lon="8.0422518"><ele>779.0000000000001</ele><time>2026-04-26T09:57:02.367Z</time></trkpt><trkpt lat="44.2010163" lon="8.0421459"><ele>779.0</ele><time>2026-04-26T09:57:03.349Z</time></trkpt><trkpt lat="44.2009266" lon="8.0420101"><ele>779.0</ele><time>2026-04-26T09:57:04.365Z</time></trkpt><trkpt lat="44.2008224" lon="8.0418337"><ele>779.0</ele><time>2026-04-26T09:57:05.358Z</time></trkpt><trkpt lat="44.200731" lon="8.0416768"><ele>779.0</ele><time>2026-04-26T09:57:06.369Z</time></trkpt><trkpt lat="44.2006349" lon="8.0415666"><ele>779.0</ele><time>2026-04-26T09:57:07.356Z</time></trkpt><trkpt lat="44.200507" lon="8.0415018"><ele>772.6666666666667</ele><time>2026-04-26T09:57:08.372Z</time></trkpt><trkpt lat="44.2003436" lon="8.0414925"><ele>766.3333333333334</ele><time>2026-04-26T09:57:09.374Z</time></trkpt><trkpt lat="44.2001794" lon="8.041504"><ele>760.0</ele><time>2026-04-26T09:57:10.359Z</time></trkpt><trkpt lat="44.2000404" lon="8.0414937"><ele>760.0</ele><time>2026-04-26T09:57:11.373Z</time></trkpt><trkpt lat="44.1999367" lon="8.0414928"><ele>760.0</ele><time>2026-04-26T09:57:12.355Z</time></trkpt><trkpt lat="44.1998356" lon="8.041492"><ele>760.0</ele><time>2026-04-26T09:57:13.37Z</time></trkpt><trkpt lat="44.199748" lon="8.0415117"><ele>760.0</ele><time>2026-04-26T09:57:14.367Z</time></trkpt><trkpt lat="44.1996771" lon="8.0415062"><ele>760.0</ele><time>2026-04-26T09:57:15.359Z</time></trkpt><trkpt lat="44.1996714" lon="8.0413749"><ele>760.0</ele><time>2026-04-26T09:57:17.37Z</time></trkpt><trkpt lat="44.1997437" lon="8.0412926"><ele>760.0</ele><time>2026-04-26T09:57:18.376Z</time></trkpt><trkpt lat="44.1998463" lon="8.0411858"><ele>760.0</ele><time>2026-04-26T09:57:19.365Z</time></trkpt><trkpt lat="44.1999712" lon="8.0410628"><ele>760.0</ele><time>2026-04-26T09:57:20.354Z</time></trkpt><trkpt lat="44.2000816" lon="8.0409128"><ele>755.25</ele><time>2026-04-26T09:57:21.366Z</time></trkpt><trkpt lat="44.2001799" lon="8.0407472"><ele>750.5</ele><time>2026-04-26T09:57:22.365Z</time></trkpt><trkpt lat="44.2002658" lon="8.0405859"><ele>745.75</ele><time>2026-04-26T09:57:23.365Z</time></trkpt><trkpt lat="44.2003767" lon="8.0404459"><ele>741.0</ele><time>2026-04-26T09:57:24.37Z</time></trkpt><trkpt lat="44.2005112" lon="8.0403727"><ele>741.0</ele><time>2026-04-26T09:57:25.361Z</time></trkpt><trkpt lat="44.2006543" lon="8.0403615"><ele>741.0</ele><time>2026-04-26T09:57:26.354Z</time></trkpt><trkpt lat="44.2007964" lon="8.0404363"><ele>741.0</ele><time>2026-04-26T09:57:27.354Z</time></trkpt><trkpt lat="44.2009427" lon="8.0405357"><ele>741.0</ele><time>2026-04-26T09:57:28.353Z</time></trkpt><trkpt lat="44.2011057" lon="8.0406085"><ele>741.0</ele><time>2026-04-26T09:57:29.355Z</time></trkpt><trkpt lat="44.2012472" lon="8.0406295"><ele>741.0</ele><time>2026-04-26T09:57:30.356Z</time></trkpt><trkpt lat="44.2013874" lon="8.0405952"><ele>742.75</ele><time>2026-04-26T09:57:31.356Z</time></trkpt><trkpt lat="44.2015228" lon="8.0405682"><ele>744.5</ele><time>2026-04-26T09:57:32.357Z</time></trkpt><trkpt lat="44.2016572" lon="8.0406037"><ele>746.25</ele><time>2026-04-26T09:57:33.364Z</time></trkpt><trkpt lat="44.201791" lon="8.0407106"><ele>748.0</ele><time>2026-04-26T09:57:34.353Z</time></trkpt><trkpt lat="44.2018988" lon="8.0408232"><ele>748.0</ele><time>2026-04-26T09:57:35.366Z</time></trkpt><trkpt lat="44.201973" lon="8.0409173"><ele>748.0</ele><time>2026-04-26T09:57:36.351Z</time></trkpt><trkpt lat="44.2020454" lon="8.0409859"><ele>748.0</ele><time>2026-04-26T09:57:37.359Z</time></trkpt><trkpt lat="44.2021513" lon="8.0409496"><ele>748.0</ele><time>2026-04-26T09:57:38.364Z</time></trkpt><trkpt lat="44.2023035" lon="8.040856"><ele>737.0</ele><time>2026-04-26T09:57:39.353Z</time></trkpt><trkpt lat="44.2024665" lon="8.0407841"><ele>726.0</ele><time>2026-04-26T09:57:40.366Z</time></trkpt><trkpt lat="44.2026399" lon="8.0407393"><ele>715.0</ele><time>2026-04-26T09:57:41.368Z</time></trkpt><trkpt lat="44.2028054" lon="8.0407031"><ele>715.0</ele><time>2026-04-26T09:57:42.356Z</time></trkpt><trkpt lat="44.2029569" lon="8.0406413"><ele>715.0</ele><time>2026-04-26T09:57:43.368Z</time></trkpt><trkpt lat="44.2031113" lon="8.0405374"><ele>715.0</ele><time>2026-04-26T09:57:44.357Z</time></trkpt><trkpt lat="44.2032521" lon="8.0403919"><ele>715.0</ele><time>2026-04-26T09:57:45.368Z</time></trkpt><trkpt lat="44.203394" lon="8.0402591"><ele>715.0</ele><time>2026-04-26T09:57:46.367Z</time></trkpt><trkpt lat="44.2035393" lon="8.0401379"><ele>715.0</ele><time>2026-04-26T09:57:47.355Z</time></trkpt><trkpt lat="44.2036671" lon="8.0400162"><ele>712.8333333333334</ele><time>2026-04-26T09:57:48.38Z</time></trkpt><trkpt lat="44.2037727" lon="8.0399117"><ele>710.6666666666667</ele><time>2026-04-26T09:57:49.373Z</time></trkpt><trkpt lat="44.203845" lon="8.0398266"><ele>708.5</ele><time>2026-04-26T09:57:50.359Z</time></trkpt><trkpt lat="44.2038942" lon="8.0397627"><ele>706.3333333333334</ele><time>2026-04-26T09:57:51.357Z</time></trkpt><trkpt lat="44.2039091" lon="8.0396675"><ele>704.1666666666666</ele><time>2026-04-26T09:57:52.363Z</time></trkpt><trkpt lat="44.2039212" lon="8.0395574"><ele>702.0</ele><time>2026-04-26T09:57:53.361Z</time></trkpt><trkpt lat="44.2039457" lon="8.0394373"><ele>701.6</ele><time>2026-04-26T09:57:54.352Z</time></trkpt><trkpt lat="44.2040098" lon="8.0393375"><ele>701.2</ele><time>2026-04-26T09:57:55.359Z</time></trkpt><trkpt lat="44.2041004" lon="8.0392598"><ele>700.8</ele><time>2026-04-26T09:57:56.361Z</time></trkpt><trkpt lat="44.2041795" lon="8.0391591"><ele>700.4</ele><time>2026-04-26T09:57:57.357Z</time></trkpt><trkpt lat="44.2042618" lon="8.0390376"><ele>700.0</ele><time>2026-04-26T09:57:58.364Z</time></trkpt><trkpt lat="44.204304" lon="8.0389099"><ele>698.2</ele><time>2026-04-26T09:57:59.354Z</time></trkpt><trkpt lat="44.2043165" lon="8.0387846"><ele>696.4</ele><time>2026-04-26T09:58:00.352Z</time></trkpt><trkpt lat="44.2042834" lon="8.0386441"><ele>694.5999999999999</ele><time>2026-04-26T09:58:01.365Z</time></trkpt><trkpt lat="44.204231" lon="8.0385372"><ele>692.8</ele><time>2026-04-26T09:58:02.357Z</time></trkpt><trkpt lat="44.2041328" lon="8.0385019"><ele>691.0</ele><time>2026-04-26T09:58:03.351Z</time></trkpt><trkpt lat="44.2040265" lon="8.0385"><ele>691.0</ele><time>2026-04-26T09:58:04.354Z</time></trkpt><trkpt lat="44.2039065" lon="8.0384899"><ele>691.0</ele><time>2026-04-26T09:58:05.356Z</time></trkpt><trkpt lat="44.2037946" lon="8.0384786"><ele>691.0</ele><time>2026-04-26T09:58:06.355Z</time></trkpt><trkpt lat="44.2036882" lon="8.0384642"><ele>691.0</ele><time>2026-04-26T09:58:07.356Z</time></trkpt><trkpt lat="44.2035905" lon="8.0385057"><ele>691.0</ele><time>2026-04-26T09:58:08.355Z</time></trkpt><trkpt lat="44.2035085" lon="8.0385957"><ele>691.0</ele><time>2026-04-26T09:58:09.37Z</time></trkpt><trkpt lat="44.2034138" lon="8.0387049"><ele>691.0</ele><time>2026-04-26T09:58:10.348Z</time></trkpt><trkpt lat="44.203312" lon="8.0388283"><ele>691.0</ele><time>2026-04-26T09:58:11.364Z</time></trkpt><trkpt lat="44.203204" lon="8.0389394"><ele>691.0</ele><time>2026-04-26T09:58:12.365Z</time></trkpt><trkpt lat="44.2031222" lon="8.0390421"><ele>689.0</ele><time>2026-04-26T09:58:13.359Z</time></trkpt><trkpt lat="44.2030424" lon="8.0391117"><ele>687.0</ele><time>2026-04-26T09:58:14.358Z</time></trkpt><trkpt lat="44.2029566" lon="8.039119"><ele>685.0</ele><time>2026-04-26T09:58:16.357Z</time></trkpt><trkpt lat="44.2029699" lon="8.0390216"><ele>683.0</ele><time>2026-04-26T09:58:17.351Z</time></trkpt><trkpt lat="44.2029921" lon="8.0388885"><ele>681.0</ele><time>2026-04-26T09:58:18.36Z</time></trkpt><trkpt lat="44.2030509" lon="8.038737"><ele>681.0</ele><time>2026-04-26T09:58:19.358Z</time></trkpt><trkpt lat="44.2030982" lon="8.0385684"><ele>681.0</ele><time>2026-04-26T09:58:20.359Z</time></trkpt><trkpt lat="44.203097" lon="8.038385"><ele>681.0</ele><time>2026-04-26T09:58:21.363Z</time></trkpt><trkpt lat="44.2030749" lon="8.0381897"><ele>681.0</ele><time>2026-04-26T09:58:22.359Z</time></trkpt><trkpt lat="44.2030269" lon="8.0379941"><ele>678.3333333333334</ele><time>2026-04-26T09:58:23.358Z</time></trkpt><trkpt lat="44.2029483" lon="8.037798"><ele>675.6666666666667</ele><time>2026-04-26T09:58:24.347Z</time></trkpt><trkpt lat="44.2028563" lon="8.037608"><ele>673.0</ele><time>2026-04-26T09:58:25.361Z</time></trkpt><trkpt lat="44.2027705" lon="8.0374334"><ele>672.6666666666667</ele><time>2026-04-26T09:58:26.354Z</time></trkpt><trkpt lat="44.2027135" lon="8.037234"><ele>672.3333333333334</ele><time>2026-04-26T09:58:27.351Z</time></trkpt><trkpt lat="44.2026972" lon="8.0370161"><ele>672.0</ele><time>2026-04-26T09:58:28.363Z</time></trkpt><trkpt lat="44.2026965" lon="8.03679"><ele>671.0</ele><time>2026-04-26T09:58:29.349Z</time></trkpt><trkpt lat="44.2026854" lon="8.0365628"><ele>670.0</ele><time>2026-04-26T09:58:30.353Z</time></trkpt><trkpt lat="44.2026605" lon="8.0363431"><ele>669.0</ele><time>2026-04-26T09:58:31.365Z</time></trkpt><trkpt lat="44.2026404" lon="8.0361373"><ele>669.0</ele><time>2026-04-26T09:58:32.356Z</time></trkpt><trkpt lat="44.2026435" lon="8.0359469"><ele>669.0</ele><time>2026-04-26T09:58:33.356Z</time></trkpt><trkpt lat="44.2026909" lon="8.0357899"><ele>669.0</ele><time>2026-04-26T09:58:34.354Z</time></trkpt><trkpt lat="44.2027539" lon="8.0356385"><ele>669.0</ele><time>2026-04-26T09:58:35.359Z</time></trkpt><trkpt lat="44.2028103" lon="8.0354814"><ele>668.0</ele><time>2026-04-26T09:58:36.357Z</time></trkpt><trkpt lat="44.2028541" lon="8.0353084"><ele>667.0</ele><time>2026-04-26T09:58:37.356Z</time></trkpt><trkpt lat="44.2028674" lon="8.0351147"><ele>666.0</ele><time>2026-04-26T09:58:38.352Z</time></trkpt><trkpt lat="44.2028756" lon="8.0349363"><ele>665.0</ele><time>2026-04-26T09:58:39.354Z</time></trkpt><trkpt lat="44.2028961" lon="8.0347752"><ele>663.4</ele><time>2026-04-26T09:58:40.358Z</time></trkpt><trkpt lat="44.2029592" lon="8.0346444"><ele>661.8</ele><time>2026-04-26T09:58:41.352Z</time></trkpt><trkpt lat="44.2030612" lon="8.0345752"><ele>660.2</ele><time>2026-04-26T09:58:42.354Z</time></trkpt><trkpt lat="44.2031729" lon="8.0346015"><ele>658.6</ele><time>2026-04-26T09:58:43.352Z</time></trkpt><trkpt lat="44.2032692" lon="8.0346746"><ele>657.0</ele><time>2026-04-26T09:58:44.355Z</time></trkpt><trkpt lat="44.2033699" lon="8.0347865"><ele>656.0</ele><time>2026-04-26T09:58:45.356Z</time></trkpt><trkpt lat="44.2034707" lon="8.0349346"><ele>655.0</ele><time>2026-04-26T09:58:46.348Z</time></trkpt><trkpt lat="44.2035851" lon="8.0350862"><ele>654.0</ele><time>2026-04-26T09:58:47.36Z</time></trkpt><trkpt lat="44.2036844" lon="8.0352585"><ele>657.75</ele><time>2026-04-26T09:58:48.352Z</time></trkpt><trkpt lat="44.2037542" lon="8.0354234"><ele>661.5</ele><time>2026-04-26T09:58:49.359Z</time></trkpt><trkpt lat="44.2038026" lon="8.0355787"><ele>665.25</ele><time>2026-04-26T09:58:50.357Z</time></trkpt><trkpt lat="44.203872" lon="8.0357169"><ele>669.0</ele><time>2026-04-26T09:58:51.369Z</time></trkpt><trkpt lat="44.2039677" lon="8.0358339"><ele>668.0</ele><time>2026-04-26T09:58:52.365Z</time></trkpt><trkpt lat="44.2040734" lon="8.0359543"><ele>667.0</ele><time>2026-04-26T09:58:53.358Z</time></trkpt><trkpt lat="44.2041691" lon="8.0360517"><ele>666.0</ele><time>2026-04-26T09:58:54.354Z</time></trkpt><trkpt lat="44.2042626" lon="8.0361104"><ele>665.0</ele><time>2026-04-26T09:58:55.35Z</time></trkpt><trkpt lat="44.2043409" lon="8.0361024"><ele>664.0</ele><time>2026-04-26T09:58:56.358Z</time></trkpt><trkpt lat="44.2044231" lon="8.0360389"><ele>664.0</ele><time>2026-04-26T09:58:57.364Z</time></trkpt><trkpt lat="44.2044491" lon="8.0358493"><ele>664.0</ele><time>2026-04-26T09:58:58.352Z</time></trkpt><trkpt lat="44.2044577" lon="8.0356591"><ele>664.0</ele><time>2026-04-26T09:58:59.348Z</time></trkpt><trkpt lat="44.2044698" lon="8.0354456"><ele>664.0</ele><time>2026-04-26T09:59:00.371Z</time></trkpt><trkpt lat="44.2044853" lon="8.0352233"><ele>662.25</ele><time>2026-04-26T09:59:01.351Z</time></trkpt><trkpt lat="44.2045079" lon="8.0350084"><ele>660.5</ele><time>2026-04-26T09:59:02.364Z</time></trkpt><trkpt lat="44.2045171" lon="8.0348114"><ele>658.75</ele><time>2026-04-26T09:59:03.358Z</time></trkpt><trkpt lat="44.2044915" lon="8.0346638"><ele>657.0</ele><time>2026-04-26T09:59:04.408Z</time></trkpt><trkpt lat="44.2044415" lon="8.0345257"><ele>656.75</ele><time>2026-04-26T09:59:05.356Z</time></trkpt><trkpt lat="44.2043847" lon="8.0343722"><ele>656.5</ele><time>2026-04-26T09:59:06.359Z</time></trkpt><trkpt lat="44.2043053" lon="8.0342053"><ele>656.25</ele><time>2026-04-26T09:59:07.355Z</time></trkpt><trkpt lat="44.2042143" lon="8.0340222"><ele>656.0</ele><time>2026-04-26T09:59:08.357Z</time></trkpt><trkpt lat="44.2041186" lon="8.0338266"><ele>656.0</ele><time>2026-04-26T09:59:09.355Z</time></trkpt><trkpt lat="44.2040129" lon="8.0336147"><ele>656.0</ele><time>2026-04-26T09:59:10.354Z</time></trkpt><trkpt lat="44.2039064" lon="8.0333926"><ele>656.0</ele><time>2026-04-26T09:59:11.358Z</time></trkpt><trkpt lat="44.2037735" lon="8.0331712"><ele>652.3333333333333</ele><time>2026-04-26T09:59:12.376Z</time></trkpt><trkpt lat="44.2036305" lon="8.0329715"><ele>648.6666666666666</ele><time>2026-04-26T09:59:13.36Z</time></trkpt><trkpt lat="44.2034794" lon="8.032776"><ele>645.0</ele><time>2026-04-26T09:59:14.363Z</time></trkpt><trkpt lat="44.2033275" lon="8.0325972"><ele>647.6666666666666</ele><time>2026-04-26T09:59:15.358Z</time></trkpt><trkpt lat="44.2031856" lon="8.0324315"><ele>650.3333333333333</ele><time>2026-04-26T09:59:16.353Z</time></trkpt><trkpt lat="44.2030727" lon="8.0322559"><ele>653.0</ele><time>2026-04-26T09:59:17.366Z</time></trkpt><trkpt lat="44.2029929" lon="8.0320546"><ele>647.3333333333333</ele><time>2026-04-26T09:59:18.362Z</time></trkpt><trkpt lat="44.2029367" lon="8.0318334"><ele>641.6666666666666</ele><time>2026-04-26T09:59:19.359Z</time></trkpt><trkpt lat="44.2028954" lon="8.0315872"><ele>636.0</ele><time>2026-04-26T09:59:20.37Z</time></trkpt><trkpt lat="44.2028557" lon="8.0313504"><ele>636.0</ele><time>2026-04-26T09:59:21.365Z</time></trkpt><trkpt lat="44.2027939" lon="8.0311085"><ele>636.0</ele><time>2026-04-26T09:59:22.354Z</time></trkpt><trkpt lat="44.2027257" lon="8.0308788"><ele>636.0</ele><time>2026-04-26T09:59:23.354Z</time></trkpt><trkpt lat="44.2026535" lon="8.0306558"><ele>638.0</ele><time>2026-04-26T09:59:24.369Z</time></trkpt><trkpt lat="44.2025765" lon="8.030444"><ele>640.0</ele><time>2026-04-26T09:59:25.368Z</time></trkpt><trkpt lat="44.2025038" lon="8.030238"><ele>642.0</ele><time>2026-04-26T09:59:26.351Z</time></trkpt><trkpt lat="44.2024354" lon="8.0300429"><ele>641.6666666666666</ele><time>2026-04-26T09:59:27.36Z</time></trkpt><trkpt lat="44.2023966" lon="8.0298397"><ele>641.3333333333333</ele><time>2026-04-26T09:59:28.356Z</time></trkpt><trkpt lat="44.2023911" lon="8.0296276"><ele>641.0</ele><time>2026-04-26T09:59:29.362Z</time></trkpt><trkpt lat="44.2024023" lon="8.0293956"><ele>641.0</ele><time>2026-04-26T09:59:30.351Z</time></trkpt><trkpt lat="44.202426" lon="8.0291885"><ele>641.0</ele><time>2026-04-26T09:59:31.354Z</time></trkpt><trkpt lat="44.2024648" lon="8.0289914"><ele>641.0</ele><time>2026-04-26T09:59:32.351Z</time></trkpt><trkpt lat="44.2025418" lon="8.0288169"><ele>641.0</ele><time>2026-04-26T09:59:33.354Z</time></trkpt><trkpt lat="44.2026355" lon="8.0286384"><ele>640.5</ele><time>2026-04-26T09:59:34.351Z</time></trkpt><trkpt lat="44.2027014" lon="8.0284444"><ele>640.0</ele><time>2026-04-26T09:59:35.355Z</time></trkpt><trkpt lat="44.2027528" lon="8.028275"><ele>639.5</ele><time>2026-04-26T09:59:36.36Z</time></trkpt><trkpt lat="44.2027847" lon="8.0281506"><ele>639.0</ele><time>2026-04-26T09:59:37.356Z</time></trkpt><trkpt lat="44.2028034" lon="8.0280314"><ele>638.5</ele><time>2026-04-26T09:59:38.359Z</time></trkpt><trkpt lat="44.2027853" lon="8.0279369"><ele>638.0</ele><time>2026-04-26T09:59:39.36Z</time></trkpt><trkpt lat="44.2026774" lon="8.0278744"><ele>637.5</ele><time>2026-04-26T09:59:40.355Z</time></trkpt><trkpt lat="44.2025546" lon="8.0277783"><ele>637.0</ele><time>2026-04-26T09:59:41.354Z</time></trkpt><trkpt lat="44.2024519" lon="8.0276629"><ele>637.0</ele><time>2026-04-26T09:59:42.348Z</time></trkpt><trkpt lat="44.202403" lon="8.0274898"><ele>637.0</ele><time>2026-04-26T09:59:43.357Z</time></trkpt><trkpt lat="44.2024235" lon="8.0273152"><ele>637.0</ele><time>2026-04-26T09:59:44.356Z</time></trkpt><trkpt lat="44.2024616" lon="8.0271058"><ele>637.0</ele><time>2026-04-26T09:59:45.362Z</time></trkpt><trkpt lat="44.2024961" lon="8.0268707"><ele>631.6666666666667</ele><time>2026-04-26T09:59:46.372Z</time></trkpt><trkpt lat="44.2025452" lon="8.0266077"><ele>626.3333333333334</ele><time>2026-04-26T09:59:47.354Z</time></trkpt><trkpt lat="44.2025645" lon="8.0263595"><ele>621.0</ele><time>2026-04-26T09:59:48.366Z</time></trkpt><trkpt lat="44.2025768" lon="8.0261237"><ele>621.0</ele><time>2026-04-26T09:59:49.355Z</time></trkpt><trkpt lat="44.2025761" lon="8.0259367"><ele>621.0</ele><time>2026-04-26T09:59:50.371Z</time></trkpt><trkpt lat="44.20258" lon="8.0257724"><ele>621.0</ele><time>2026-04-26T09:59:51.363Z</time></trkpt><trkpt lat="44.2026378" lon="8.0256624"><ele>621.0</ele><time>2026-04-26T09:59:52.353Z</time></trkpt><trkpt lat="44.2027463" lon="8.0256432"><ele>616.6666666666666</ele><time>2026-04-26T09:59:53.363Z</time></trkpt><trkpt lat="44.2028762" lon="8.0256489"><ele>612.3333333333333</ele><time>2026-04-26T09:59:54.354Z</time></trkpt><trkpt lat="44.2030429" lon="8.0256522"><ele>608.0</ele><time>2026-04-26T09:59:55.367Z</time></trkpt><trkpt lat="44.2032153" lon="8.0255967"><ele>607.0</ele><time>2026-04-26T09:59:56.352Z</time></trkpt><trkpt lat="44.2033851" lon="8.0254871"><ele>606.0</ele><time>2026-04-26T09:59:57.349Z</time></trkpt><trkpt lat="44.2035798" lon="8.0253845"><ele>605.0</ele><time>2026-04-26T09:59:58.357Z</time></trkpt><trkpt lat="44.2037766" lon="8.0253259"><ele>605.0</ele><time>2026-04-26T09:59:59.36Z</time></trkpt><trkpt lat="44.2039773" lon="8.0252864"><ele>605.0</ele><time>2026-04-26T10:00:00.355Z</time></trkpt><trkpt lat="44.2041845" lon="8.0252332"><ele>605.0</ele><time>2026-04-26T10:00:01.357Z</time></trkpt><trkpt lat="44.2043837" lon="8.025166"><ele>604.6666666666666</ele><time>2026-04-26T10:00:02.364Z</time></trkpt><trkpt lat="44.2045867" lon="8.0250908"><ele>604.3333333333334</ele><time>2026-04-26T10:00:03.355Z</time></trkpt><trkpt lat="44.2047892" lon="8.0250221"><ele>604.0</ele><time>2026-04-26T10:00:04.357Z</time></trkpt><trkpt lat="44.2049736" lon="8.0249405"><ele>600.0</ele><time>2026-04-26T10:00:05.36Z</time></trkpt><trkpt lat="44.2051552" lon="8.0248347"><ele>596.0</ele><time>2026-04-26T10:00:06.362Z</time></trkpt><trkpt lat="44.2053344" lon="8.0247344"><ele>592.0</ele><time>2026-04-26T10:00:07.369Z</time></trkpt><trkpt lat="44.2054962" lon="8.0246429"><ele>592.0</ele><time>2026-04-26T10:00:08.371Z</time></trkpt><trkpt lat="44.2056338" lon="8.0245603"><ele>592.0</ele><time>2026-04-26T10:00:09.354Z</time></trkpt><trkpt lat="44.2057426" lon="8.0244621"><ele>592.0</ele><time>2026-04-26T10:00:10.355Z</time></trkpt><trkpt lat="44.205805" lon="8.0243286"><ele>592.0</ele><time>2026-04-26T10:00:11.358Z</time></trkpt><trkpt lat="44.2058361" lon="8.0241666"><ele>590.0</ele><time>2026-04-26T10:00:12.353Z</time></trkpt><trkpt lat="44.2058371" lon="8.0239812"><ele>588.0</ele><time>2026-04-26T10:00:13.374Z</time></trkpt><trkpt lat="44.2058387" lon="8.0237726"><ele>586.0</ele><time>2026-04-26T10:00:14.355Z</time></trkpt><trkpt lat="44.2058376" lon="8.0235287"><ele>585.0</ele><time>2026-04-26T10:00:15.359Z</time></trkpt><trkpt lat="44.20583" lon="8.0232495"><ele>584.0</ele><time>2026-04-26T10:00:16.365Z</time></trkpt><trkpt lat="44.2058265" lon="8.0229445"><ele>583.0</ele><time>2026-04-26T10:00:17.369Z</time></trkpt><trkpt lat="44.2058209" lon="8.022646"><ele>582.6666666666667</ele><time>2026-04-26T10:00:18.355Z</time></trkpt><trkpt lat="44.20582" lon="8.0223608"><ele>582.3333333333334</ele><time>2026-04-26T10:00:19.362Z</time></trkpt><trkpt lat="44.2058117" lon="8.0220951"><ele>582.0</ele><time>2026-04-26T10:00:20.359Z</time></trkpt><trkpt lat="44.2058018" lon="8.0218482"><ele>582.0</ele><time>2026-04-26T10:00:21.367Z</time></trkpt><trkpt lat="44.2057989" lon="8.0216367"><ele>582.0</ele><time>2026-04-26T10:00:22.364Z</time></trkpt><trkpt lat="44.2058006" lon="8.0214631"><ele>582.0</ele><time>2026-04-26T10:00:23.365Z</time></trkpt><trkpt lat="44.2058101" lon="8.0213272"><ele>582.0</ele><time>2026-04-26T10:00:24.369Z</time></trkpt><trkpt lat="44.2058179" lon="8.0212156"><ele>582.0</ele><time>2026-04-26T10:00:25.363Z</time></trkpt><trkpt lat="44.2058444" lon="8.0210598"><ele>582.0</ele><time>2026-04-26T10:00:27.364Z</time></trkpt><trkpt lat="44.205828" lon="8.0209461"><ele>582.0</ele><time>2026-04-26T10:00:29.376Z</time></trkpt><trkpt lat="44.2057835" lon="8.0207488"><ele>582.0</ele><time>2026-04-26T10:00:31.373Z</time></trkpt><trkpt lat="44.2057518" lon="8.0205882"><ele>582.0</ele><time>2026-04-26T10:00:32.354Z</time></trkpt><trkpt lat="44.205726" lon="8.0204105"><ele>582.0</ele><time>2026-04-26T10:00:33.364Z</time></trkpt><trkpt lat="44.2057099" lon="8.0202113"><ele>582.0</ele><time>2026-04-26T10:00:34.383Z</time></trkpt><trkpt lat="44.2056999" lon="8.0200023"><ele>582.0</ele><time>2026-04-26T10:00:35.371Z</time></trkpt><trkpt lat="44.205684" lon="8.0198065"><ele>581.6</ele><time>2026-04-26T10:00:36.361Z</time></trkpt><trkpt lat="44.2056797" lon="8.019648"><ele>581.2</ele><time>2026-04-26T10:00:37.376Z</time></trkpt><trkpt lat="44.2056853" lon="8.0195003"><ele>580.8</ele><time>2026-04-26T10:00:38.358Z</time></trkpt><trkpt lat="44.2057466" lon="8.0193726"><ele>580.4</ele><time>2026-04-26T10:00:39.37Z</time></trkpt><trkpt lat="44.2058517" lon="8.0193007"><ele>580.0</ele><time>2026-04-26T10:00:40.364Z</time></trkpt><trkpt lat="44.2059427" lon="8.0192632"><ele>580.0</ele><time>2026-04-26T10:00:41.371Z</time></trkpt><trkpt lat="44.2060114" lon="8.0192047"><ele>580.0</ele><time>2026-04-26T10:00:42.361Z</time></trkpt><trkpt lat="44.2060609" lon="8.0190982"><ele>580.0</ele><time>2026-04-26T10:00:43.369Z</time></trkpt><trkpt lat="44.2061015" lon="8.0189768"><ele>580.0</ele><time>2026-04-26T10:00:44.371Z</time></trkpt><trkpt lat="44.206155" lon="8.0188816"><ele>580.0</ele><time>2026-04-26T10:00:45.359Z</time></trkpt><trkpt lat="44.2062249" lon="8.0188217"><ele>580.0</ele><time>2026-04-26T10:00:46.362Z</time></trkpt><trkpt lat="44.2063383" lon="8.0187778"><ele>580.0</ele><time>2026-04-26T10:00:47.358Z</time></trkpt><trkpt lat="44.2064745" lon="8.0187291"><ele>580.0</ele><time>2026-04-26T10:00:48.361Z</time></trkpt><trkpt lat="44.2066252" lon="8.0186829"><ele>580.0</ele><time>2026-04-26T10:00:49.358Z</time></trkpt><trkpt lat="44.2068016" lon="8.0186208"><ele>580.0</ele><time>2026-04-26T10:00:50.354Z</time></trkpt><trkpt lat="44.2069773" lon="8.018541"><ele>580.0</ele><time>2026-04-26T10:00:51.372Z</time></trkpt><trkpt lat="44.20715" lon="8.0184457"><ele>580.0</ele><time>2026-04-26T10:00:52.362Z</time></trkpt><trkpt lat="44.2073139" lon="8.0183573"><ele>578.3333333333334</ele><time>2026-04-26T10:00:53.373Z</time></trkpt><trkpt lat="44.2074688" lon="8.0182644"><ele>576.6666666666666</ele><time>2026-04-26T10:00:54.363Z</time></trkpt><trkpt lat="44.207611" lon="8.0181549"><ele>575.0</ele><time>2026-04-26T10:00:55.364Z</time></trkpt><trkpt lat="44.2077202" lon="8.0180231"><ele>575.0</ele><time>2026-04-26T10:00:56.358Z</time></trkpt><trkpt lat="44.2077876" lon="8.0178591"><ele>575.0</ele><time>2026-04-26T10:00:57.355Z</time></trkpt><trkpt lat="44.2078205" lon="8.0176704"><ele>575.0</ele><time>2026-04-26T10:00:58.359Z</time></trkpt><trkpt lat="44.2078389" lon="8.0174511"><ele>575.0</ele><time>2026-04-26T10:00:59.363Z</time></trkpt><trkpt lat="44.2078411" lon="8.017211"><ele>575.0</ele><time>2026-04-26T10:01:00.364Z</time></trkpt><trkpt lat="44.2078336" lon="8.0169622"><ele>575.0</ele><time>2026-04-26T10:01:01.363Z</time></trkpt><trkpt lat="44.2078236" lon="8.016724"><ele>575.0</ele><time>2026-04-26T10:01:02.376Z</time></trkpt><trkpt lat="44.2078244" lon="8.0165069"><ele>576.3333333333333</ele><time>2026-04-26T10:01:03.361Z</time></trkpt><trkpt lat="44.2078121" lon="8.0162834"><ele>577.6666666666666</ele><time>2026-04-26T10:01:04.357Z</time></trkpt><trkpt lat="44.2078003" lon="8.0160708"><ele>579.0</ele><time>2026-04-26T10:01:05.371Z</time></trkpt><trkpt lat="44.207791" lon="8.0158814"><ele>579.0</ele><time>2026-04-26T10:01:06.352Z</time></trkpt><trkpt lat="44.2077714" lon="8.0157277"><ele>579.0</ele><time>2026-04-26T10:01:07.357Z</time></trkpt><trkpt lat="44.2077659" lon="8.015616"><ele>579.0</ele><time>2026-04-26T10:01:08.361Z</time></trkpt><trkpt lat="44.2077616" lon="8.0154964"><ele>579.0</ele><time>2026-04-26T10:01:10.358Z</time></trkpt><trkpt lat="44.2077711" lon="8.0153729"><ele>579.0</ele><time>2026-04-26T10:01:14.359Z</time></trkpt><trkpt lat="44.2077736" lon="8.0152767"><ele>579.0</ele><time>2026-04-26T10:01:18.367Z</time></trkpt><trkpt lat="44.2077705" lon="8.0151634"><ele>578.9999999999999</ele><time>2026-04-26T10:01:23.36Z</time></trkpt><trkpt lat="44.2077599" lon="8.0150708"><ele>579.0</ele><time>2026-04-26T10:01:26.361Z</time></trkpt><trkpt lat="44.2077801" lon="8.0149849"><ele>579.0</ele><time>2026-04-26T10:01:32.36Z</time></trkpt><trkpt lat="44.2078268" lon="8.0149047"><ele>579.0</ele><time>2026-04-26T10:01:35.363Z</time></trkpt><trkpt lat="44.2079078" lon="8.0148726"><ele>579.0</ele><time>2026-04-26T10:01:37.364Z</time></trkpt><trkpt lat="44.2079806" lon="8.0148682"><ele>578.9999999999999</ele><time>2026-04-26T10:01:38.36Z</time></trkpt><trkpt lat="44.208065" lon="8.0148783"><ele>579.0</ele><time>2026-04-26T10:01:39.364Z</time></trkpt><trkpt lat="44.2081606" lon="8.0148818"><ele>578.6666666666666</ele><time>2026-04-26T10:01:40.367Z</time></trkpt><trkpt lat="44.2082603" lon="8.0148924"><ele>578.3333333333334</ele><time>2026-04-26T10:01:41.37Z</time></trkpt><trkpt lat="44.2083503" lon="8.0148957"><ele>578.0</ele><time>2026-04-26T10:01:42.359Z</time></trkpt><trkpt lat="44.208431" lon="8.0149036"><ele>577.6666666666667</ele><time>2026-04-26T10:01:43.36Z</time></trkpt><trkpt lat="44.2085072" lon="8.0149144"><ele>577.3333333333334</ele><time>2026-04-26T10:01:44.363Z</time></trkpt><trkpt lat="44.2085879" lon="8.0149297"><ele>577.0</ele><time>2026-04-26T10:01:45.36Z</time></trkpt><trkpt lat="44.2086692" lon="8.014931"><ele>577.0</ele><time>2026-04-26T10:01:46.368Z</time></trkpt><trkpt lat="44.2087614" lon="8.0149354"><ele>577.0</ele><time>2026-04-26T10:01:47.364Z</time></trkpt><trkpt lat="44.2088778" lon="8.0149352"><ele>577.0</ele><time>2026-04-26T10:01:48.362Z</time></trkpt><trkpt lat="44.2090004" lon="8.0149403"><ele>577.0</ele><time>2026-04-26T10:01:49.362Z</time></trkpt><trkpt lat="44.2091334" lon="8.0149482"><ele>577.0</ele><time>2026-04-26T10:01:50.364Z</time></trkpt><trkpt lat="44.2092686" lon="8.0149559"><ele>577.0</ele><time>2026-04-26T10:01:51.359Z</time></trkpt><trkpt lat="44.2094136" lon="8.0149567"><ele>577.0</ele><time>2026-04-26T10:01:52.357Z</time></trkpt><trkpt lat="44.2095764" lon="8.0149472"><ele>577.0</ele><time>2026-04-26T10:01:53.359Z</time></trkpt><trkpt lat="44.2097425" lon="8.0149237"><ele>576.6666666666667</ele><time>2026-04-26T10:01:54.358Z</time></trkpt><trkpt lat="44.2099047" lon="8.0148674"><ele>576.3333333333334</ele><time>2026-04-26T10:01:55.355Z</time></trkpt><trkpt lat="44.2100744" lon="8.0148032"><ele>576.0</ele><time>2026-04-26T10:01:56.363Z</time></trkpt><trkpt lat="44.2102417" lon="8.0147351"><ele>576.0</ele><time>2026-04-26T10:01:57.387Z</time></trkpt><trkpt lat="44.2104198" lon="8.0146697"><ele>576.0</ele><time>2026-04-26T10:01:58.36Z</time></trkpt><trkpt lat="44.2106059" lon="8.014599"><ele>576.0</ele><time>2026-04-26T10:01:59.375Z</time></trkpt><trkpt lat="44.2108011" lon="8.0145272"><ele>575.0</ele><time>2026-04-26T10:02:00.362Z</time></trkpt><trkpt lat="44.2109834" lon="8.0144572"><ele>574.0</ele><time>2026-04-26T10:02:01.359Z</time></trkpt><trkpt lat="44.2111703" lon="8.0143958"><ele>573.0</ele><time>2026-04-26T10:02:02.374Z</time></trkpt><trkpt lat="44.2113651" lon="8.0143633"><ele>572.6666666666666</ele><time>2026-04-26T10:02:03.372Z</time></trkpt><trkpt lat="44.211555" lon="8.0143424"><ele>572.3333333333333</ele><time>2026-04-26T10:02:04.363Z</time></trkpt><trkpt lat="44.2117543" lon="8.0143253"><ele>572.0</ele><time>2026-04-26T10:02:05.364Z</time></trkpt><trkpt lat="44.2119698" lon="8.0143195"><ele>572.0</ele><time>2026-04-26T10:02:06.36Z</time></trkpt><trkpt lat="44.2122035" lon="8.0143262"><ele>572.0</ele><time>2026-04-26T10:02:07.361Z</time></trkpt><trkpt lat="44.2124492" lon="8.0143409"><ele>571.5</ele><time>2026-04-26T10:02:08.356Z</time></trkpt><trkpt lat="44.212706" lon="8.0143612"><ele>571.0</ele><time>2026-04-26T10:02:09.361Z</time></trkpt><trkpt lat="44.2129696" lon="8.0143866"><ele>571.0</ele><time>2026-04-26T10:02:10.355Z</time></trkpt><trkpt lat="44.2132402" lon="8.0144111"><ele>571.0</ele><time>2026-04-26T10:02:11.364Z</time></trkpt><trkpt lat="44.2135085" lon="8.0144306"><ele>571.0</ele><time>2026-04-26T10:02:12.359Z</time></trkpt><trkpt lat="44.2137708" lon="8.0144522"><ele>571.0</ele><time>2026-04-26T10:02:13.358Z</time></trkpt><trkpt lat="44.2140261" lon="8.0144734"><ele>570.0</ele><time>2026-04-26T10:02:14.367Z</time></trkpt><trkpt lat="44.2142773" lon="8.0144958"><ele>569.0</ele><time>2026-04-26T10:02:15.383Z</time></trkpt><trkpt lat="44.2145215" lon="8.0145206"><ele>569.0</ele><time>2026-04-26T10:02:16.378Z</time></trkpt><trkpt lat="44.2147559" lon="8.0145405"><ele>569.0</ele><time>2026-04-26T10:02:17.379Z</time></trkpt><trkpt lat="44.2149817" lon="8.014554"><ele>568.6666666666666</ele><time>2026-04-26T10:02:18.359Z</time></trkpt><trkpt lat="44.2152011" lon="8.014572"><ele>568.3333333333334</ele><time>2026-04-26T10:02:19.356Z</time></trkpt><trkpt lat="44.2154191" lon="8.0145856"><ele>568.0</ele><time>2026-04-26T10:02:20.353Z</time></trkpt><trkpt lat="44.2156348" lon="8.014599"><ele>567.3333333333334</ele><time>2026-04-26T10:02:21.36Z</time></trkpt><trkpt lat="44.2158474" lon="8.0146213"><ele>566.6666666666666</ele><time>2026-04-26T10:02:22.357Z</time></trkpt><trkpt lat="44.2160578" lon="8.0146353"><ele>566.0</ele><time>2026-04-26T10:02:23.365Z</time></trkpt><trkpt lat="44.2162619" lon="8.0146475"><ele>566.0</ele><time>2026-04-26T10:02:24.352Z</time></trkpt><trkpt lat="44.2164607" lon="8.0146575"><ele>566.0</ele><time>2026-04-26T10:02:25.362Z</time></trkpt><trkpt lat="44.216663" lon="8.014663"><ele>566.0</ele><time>2026-04-26T10:02:26.354Z</time></trkpt><trkpt lat="44.2168735" lon="8.0146676"><ele>565.5</ele><time>2026-04-26T10:02:27.355Z</time></trkpt><trkpt lat="44.2170975" lon="8.0146803"><ele>565.0</ele><time>2026-04-26T10:02:28.361Z</time></trkpt><trkpt lat="44.2173335" lon="8.0146992"><ele>565.0</ele><time>2026-04-26T10:02:29.359Z</time></trkpt><trkpt lat="44.2175673" lon="8.0147195"><ele>565.0</ele><time>2026-04-26T10:02:30.383Z</time></trkpt><trkpt lat="44.2177962" lon="8.0147363"><ele>565.0</ele><time>2026-04-26T10:02:31.359Z</time></trkpt><trkpt lat="44.2180405" lon="8.0147536"><ele>565.0</ele><time>2026-04-26T10:02:32.357Z</time></trkpt><trkpt lat="44.2182943" lon="8.0147677"><ele>565.0</ele><time>2026-04-26T10:02:33.361Z</time></trkpt><trkpt lat="44.2185538" lon="8.0147908"><ele>565.0</ele><time>2026-04-26T10:02:34.358Z</time></trkpt><trkpt lat="44.2188332" lon="8.0148188"><ele>564.5</ele><time>2026-04-26T10:02:35.357Z</time></trkpt><trkpt lat="44.2191223" lon="8.0148505"><ele>564.0</ele><time>2026-04-26T10:02:36.364Z</time></trkpt><trkpt lat="44.2194136" lon="8.0148824"><ele>564.0</ele><time>2026-04-26T10:02:37.372Z</time></trkpt><trkpt lat="44.2197102" lon="8.0149046"><ele>564.0</ele><time>2026-04-26T10:02:38.358Z</time></trkpt><trkpt lat="44.2200171" lon="8.014922"><ele>564.5</ele><time>2026-04-26T10:02:39.363Z</time></trkpt><trkpt lat="44.2203315" lon="8.0149442"><ele>565.0</ele><time>2026-04-26T10:02:40.372Z</time></trkpt><trkpt lat="44.2206436" lon="8.0149662"><ele>565.5</ele><time>2026-04-26T10:02:41.359Z</time></trkpt><trkpt lat="44.2209419" lon="8.0149822"><ele>566.0</ele><time>2026-04-26T10:02:42.363Z</time></trkpt><trkpt lat="44.2212225" lon="8.0149999"><ele>563.5</ele><time>2026-04-26T10:02:43.367Z</time></trkpt><trkpt lat="44.2214849" lon="8.015016"><ele>561.0</ele><time>2026-04-26T10:02:44.362Z</time></trkpt><trkpt lat="44.2217292" lon="8.0150331"><ele>561.0</ele><time>2026-04-26T10:02:45.362Z</time></trkpt><trkpt lat="44.2219726" lon="8.0150528"><ele>561.0</ele><time>2026-04-26T10:02:46.361Z</time></trkpt><trkpt lat="44.2222275" lon="8.0150693"><ele>560.5</ele><time>2026-04-26T10:02:47.354Z</time></trkpt><trkpt lat="44.222489" lon="8.015088"><ele>560.0</ele><time>2026-04-26T10:02:48.355Z</time></trkpt><trkpt lat="44.2227496" lon="8.0151068"><ele>560.0</ele><time>2026-04-26T10:02:49.354Z</time></trkpt><trkpt lat="44.2230086" lon="8.015118"><ele>560.0</ele><time>2026-04-26T10:02:50.356Z</time></trkpt><trkpt lat="44.223252" lon="8.0151327"><ele>560.5</ele><time>2026-04-26T10:02:51.359Z</time></trkpt><trkpt lat="44.2234822" lon="8.0151501"><ele>561.0</ele><time>2026-04-26T10:02:52.389Z</time></trkpt><trkpt lat="44.223703" lon="8.0151573"><ele>561.0</ele><time>2026-04-26T10:02:53.374Z</time></trkpt><trkpt lat="44.2239161" lon="8.0151709"><ele>561.0</ele><time>2026-04-26T10:02:54.355Z</time></trkpt><trkpt lat="44.2241335" lon="8.0151794"><ele>561.0</ele><time>2026-04-26T10:02:55.363Z</time></trkpt><trkpt lat="44.2243589" lon="8.0152014"><ele>561.0</ele><time>2026-04-26T10:02:56.357Z</time></trkpt><trkpt lat="44.2245893" lon="8.0152201"><ele>561.0</ele><time>2026-04-26T10:02:57.355Z</time></trkpt><trkpt lat="44.2248151" lon="8.0152482"><ele>560.5</ele><time>2026-04-26T10:02:58.355Z</time></trkpt><trkpt lat="44.2250402" lon="8.0152841"><ele>560.0</ele><time>2026-04-26T10:02:59.368Z</time></trkpt><trkpt lat="44.2252705" lon="8.0153261"><ele>560.0</ele><time>2026-04-26T10:03:00.361Z</time></trkpt><trkpt lat="44.2254977" lon="8.0153739"><ele>560.0</ele><time>2026-04-26T10:03:01.35Z</time></trkpt><trkpt lat="44.2257226" lon="8.0154387"><ele>566.0</ele><time>2026-04-26T10:03:02.362Z</time></trkpt><trkpt lat="44.2259503" lon="8.0155129"><ele>572.0</ele><time>2026-04-26T10:03:03.361Z</time></trkpt><trkpt lat="44.2261704" lon="8.0155908"><ele>572.0</ele><time>2026-04-26T10:03:04.354Z</time></trkpt><trkpt lat="44.2263796" lon="8.0156787"><ele>572.0</ele><time>2026-04-26T10:03:05.359Z</time></trkpt><trkpt lat="44.2265815" lon="8.0157691"><ele>572.0</ele><time>2026-04-26T10:03:06.352Z</time></trkpt><trkpt lat="44.2267799" lon="8.0158614"><ele>573.3333333333333</ele><time>2026-04-26T10:03:07.35Z</time></trkpt><trkpt lat="44.2269703" lon="8.0159565"><ele>574.6666666666666</ele><time>2026-04-26T10:03:08.355Z</time></trkpt><trkpt lat="44.2271581" lon="8.0160594"><ele>576.0</ele><time>2026-04-26T10:03:09.346Z</time></trkpt><trkpt lat="44.2273399" lon="8.0161705"><ele>576.0</ele><time>2026-04-26T10:03:10.354Z</time></trkpt><trkpt lat="44.2275111" lon="8.0162747"><ele>576.0</ele><time>2026-04-26T10:03:11.359Z</time></trkpt><trkpt lat="44.2276756" lon="8.0163878"><ele>576.0</ele><time>2026-04-26T10:03:12.352Z</time></trkpt><trkpt lat="44.2278494" lon="8.0164975"><ele>576.0</ele><time>2026-04-26T10:03:13.359Z</time></trkpt><trkpt lat="44.228032" lon="8.0166163"><ele>576.0</ele><time>2026-04-26T10:03:14.348Z</time></trkpt><trkpt lat="44.2282267" lon="8.0167485"><ele>576.0</ele><time>2026-04-26T10:03:15.349Z</time></trkpt><trkpt lat="44.2284279" lon="8.0168859"><ele>573.3333333333334</ele><time>2026-04-26T10:03:16.364Z</time></trkpt><trkpt lat="44.2286303" lon="8.0170217"><ele>570.6666666666667</ele><time>2026-04-26T10:03:17.351Z</time></trkpt><trkpt lat="44.2288319" lon="8.0171517"><ele>568.0</ele><time>2026-04-26T10:03:18.349Z</time></trkpt><trkpt lat="44.229035" lon="8.0172635"><ele>568.0</ele><time>2026-04-26T10:03:19.356Z</time></trkpt><trkpt lat="44.2292397" lon="8.017338"><ele>568.0</ele><time>2026-04-26T10:03:20.351Z</time></trkpt><trkpt lat="44.2294403" lon="8.0173878"><ele>568.0</ele><time>2026-04-26T10:03:21.346Z</time></trkpt><trkpt lat="44.2296373" lon="8.0174265"><ele>569.6666666666667</ele><time>2026-04-26T10:03:22.357Z</time></trkpt><trkpt lat="44.2298241" lon="8.0174522"><ele>571.3333333333334</ele><time>2026-04-26T10:03:23.359Z</time></trkpt><trkpt lat="44.23001" lon="8.0174504"><ele>573.0</ele><time>2026-04-26T10:03:24.356Z</time></trkpt><trkpt lat="44.230195" lon="8.0174416"><ele>573.0</ele><time>2026-04-26T10:03:25.361Z</time></trkpt><trkpt lat="44.2303882" lon="8.0174066"><ele>573.0</ele><time>2026-04-26T10:03:26.348Z</time></trkpt><trkpt lat="44.2305892" lon="8.017348"><ele>573.0</ele><time>2026-04-26T10:03:27.365Z</time></trkpt><trkpt lat="44.2307909" lon="8.0172548"><ele>571.5</ele><time>2026-04-26T10:03:28.346Z</time></trkpt><trkpt lat="44.2310192" lon="8.0171201"><ele>570.0</ele><time>2026-04-26T10:03:29.353Z</time></trkpt><trkpt lat="44.2312865" lon="8.0169514"><ele>570.5</ele><time>2026-04-26T10:03:30.351Z</time></trkpt><trkpt lat="44.2315601" lon="8.0167782"><ele>571.0</ele><time>2026-04-26T10:03:31.38Z</time></trkpt><trkpt lat="44.2318414" lon="8.0165918"><ele>571.0</ele><time>2026-04-26T10:03:32.362Z</time></trkpt><trkpt lat="44.2321364" lon="8.0163789"><ele>571.0</ele><time>2026-04-26T10:03:33.348Z</time></trkpt><trkpt lat="44.2324356" lon="8.0161732"><ele>565.5</ele><time>2026-04-26T10:03:34.358Z</time></trkpt><trkpt lat="44.2327144" lon="8.0159873"><ele>560.0</ele><time>2026-04-26T10:03:35.36Z</time></trkpt><trkpt lat="44.2329715" lon="8.0158254"><ele>558.0</ele><time>2026-04-26T10:03:36.358Z</time></trkpt><trkpt lat="44.2332113" lon="8.0156741"><ele>556.0</ele><time>2026-04-26T10:03:37.362Z</time></trkpt><trkpt lat="44.2334281" lon="8.0155346"><ele>556.0</ele><time>2026-04-26T10:03:38.402Z</time></trkpt><trkpt lat="44.2336386" lon="8.0154158"><ele>556.0</ele><time>2026-04-26T10:03:39.374Z</time></trkpt><trkpt lat="44.2338487" lon="8.0153235"><ele>556.0</ele><time>2026-04-26T10:03:40.372Z</time></trkpt><trkpt lat="44.2340587" lon="8.0152459"><ele>554.3333333333334</ele><time>2026-04-26T10:03:41.36Z</time></trkpt><trkpt lat="44.2342761" lon="8.0151911"><ele>552.6666666666666</ele><time>2026-04-26T10:03:42.354Z</time></trkpt><trkpt lat="44.2344811" lon="8.0151517"><ele>551.0</ele><time>2026-04-26T10:03:43.359Z</time></trkpt><trkpt lat="44.2346876" lon="8.015137"><ele>550.5</ele><time>2026-04-26T10:03:44.352Z</time></trkpt><trkpt lat="44.2349106" lon="8.0151304"><ele>550.0</ele><time>2026-04-26T10:03:45.349Z</time></trkpt><trkpt lat="44.2351575" lon="8.0151279"><ele>550.0</ele><time>2026-04-26T10:03:46.359Z</time></trkpt><trkpt lat="44.2354161" lon="8.0151478"><ele>550.0</ele><time>2026-04-26T10:03:47.353Z</time></trkpt><trkpt lat="44.2356848" lon="8.0151672"><ele>548.0</ele><time>2026-04-26T10:03:48.364Z</time></trkpt><trkpt lat="44.2359632" lon="8.0151925"><ele>546.0</ele><time>2026-04-26T10:03:49.354Z</time></trkpt><trkpt lat="44.2362401" lon="8.0152131"><ele>546.5</ele><time>2026-04-26T10:03:50.372Z</time></trkpt><trkpt lat="44.2365203" lon="8.0152231"><ele>547.0</ele><time>2026-04-26T10:03:51.355Z</time></trkpt><trkpt lat="44.2367749" lon="8.0152332"><ele>547.0</ele><time>2026-04-26T10:03:52.354Z</time></trkpt><trkpt lat="44.2370265" lon="8.0152482"><ele>547.0</ele><time>2026-04-26T10:03:53.363Z</time></trkpt><trkpt lat="44.2372695" lon="8.0152895"><ele>546.5</ele><time>2026-04-26T10:03:54.377Z</time></trkpt><trkpt lat="44.2374872" lon="8.0153684"><ele>546.0</ele><time>2026-04-26T10:03:55.361Z</time></trkpt><trkpt lat="44.2377045" lon="8.0154631"><ele>546.0</ele><time>2026-04-26T10:03:56.363Z</time></trkpt><trkpt lat="44.2379121" lon="8.0155785"><ele>546.0</ele><time>2026-04-26T10:03:57.36Z</time></trkpt><trkpt lat="44.2381036" lon="8.0157328"><ele>546.0</ele><time>2026-04-26T10:03:58.363Z</time></trkpt><trkpt lat="44.2382886" lon="8.0158987"><ele>546.3333333333334</ele><time>2026-04-26T10:03:59.358Z</time></trkpt><trkpt lat="44.2384609" lon="8.0160822"><ele>546.6666666666667</ele><time>2026-04-26T10:04:00.376Z</time></trkpt><trkpt lat="44.2386171" lon="8.0162692"><ele>547.0</ele><time>2026-04-26T10:04:01.36Z</time></trkpt><trkpt lat="44.2387647" lon="8.0164661"><ele>547.0</ele><time>2026-04-26T10:04:02.366Z</time></trkpt><trkpt lat="44.2388916" lon="8.016679"><ele>547.0</ele><time>2026-04-26T10:04:03.394Z</time></trkpt><trkpt lat="44.2390016" lon="8.0169052"><ele>547.0</ele><time>2026-04-26T10:04:04.385Z</time></trkpt><trkpt lat="44.2390956" lon="8.0171403"><ele>547.0</ele><time>2026-04-26T10:04:05.359Z</time></trkpt><trkpt lat="44.2391821" lon="8.0173936"><ele>547.0</ele><time>2026-04-26T10:04:06.352Z</time></trkpt><trkpt lat="44.2392573" lon="8.0176501"><ele>547.0</ele><time>2026-04-26T10:04:07.36Z</time></trkpt><trkpt lat="44.2393215" lon="8.0179108"><ele>547.3333333333334</ele><time>2026-04-26T10:04:08.365Z</time></trkpt><trkpt lat="44.2393844" lon="8.018158"><ele>547.6666666666666</ele><time>2026-04-26T10:04:09.36Z</time></trkpt><trkpt lat="44.2394442" lon="8.0184152"><ele>548.0</ele><time>2026-04-26T10:04:10.371Z</time></trkpt><trkpt lat="44.2395301" lon="8.0186789"><ele>548.0</ele><time>2026-04-26T10:04:11.356Z</time></trkpt><trkpt lat="44.2396422" lon="8.0189613"><ele>548.0</ele><time>2026-04-26T10:04:12.361Z</time></trkpt><trkpt lat="44.2397672" lon="8.0192621"><ele>551.5</ele><time>2026-04-26T10:04:13.359Z</time></trkpt><trkpt lat="44.2398972" lon="8.0195812"><ele>555.0</ele><time>2026-04-26T10:04:14.372Z</time></trkpt><trkpt lat="44.2400218" lon="8.0198911"><ele>552.5</ele><time>2026-04-26T10:04:15.369Z</time></trkpt><trkpt lat="44.2401458" lon="8.0201764"><ele>550.0</ele><time>2026-04-26T10:04:16.357Z</time></trkpt><trkpt lat="44.2402626" lon="8.0204375"><ele>550.0</ele><time>2026-04-26T10:04:17.36Z</time></trkpt><trkpt lat="44.2403948" lon="8.020681"><ele>550.0</ele><time>2026-04-26T10:04:18.438Z</time></trkpt><trkpt lat="44.2405522" lon="8.0209087"><ele>550.0</ele><time>2026-04-26T10:04:19.361Z</time></trkpt><trkpt lat="44.2407348" lon="8.0210971"><ele>550.0</ele><time>2026-04-26T10:04:20.371Z</time></trkpt><trkpt lat="44.2409487" lon="8.0212478"><ele>550.0</ele><time>2026-04-26T10:04:21.359Z</time></trkpt><trkpt lat="44.2411817" lon="8.0213577"><ele>550.0</ele><time>2026-04-26T10:04:22.36Z</time></trkpt><trkpt lat="44.241416" lon="8.0214656"><ele>550.0</ele><time>2026-04-26T10:04:23.381Z</time></trkpt><trkpt lat="44.2416377" lon="8.0215811"><ele>549.6666666666667</ele><time>2026-04-26T10:04:24.377Z</time></trkpt><trkpt lat="44.2418532" lon="8.0216715"><ele>549.3333333333334</ele><time>2026-04-26T10:04:25.373Z</time></trkpt><trkpt lat="44.2420635" lon="8.0217232"><ele>549.0</ele><time>2026-04-26T10:04:26.367Z</time></trkpt><trkpt lat="44.2422756" lon="8.0217472"><ele>549.3333333333334</ele><time>2026-04-26T10:04:27.355Z</time></trkpt><trkpt lat="44.2424915" lon="8.021755"><ele>549.6666666666667</ele><time>2026-04-26T10:04:28.37Z</time></trkpt><trkpt lat="44.2426901" lon="8.0217455"><ele>550.0</ele><time>2026-04-26T10:04:29.365Z</time></trkpt><trkpt lat="44.2428667" lon="8.0217418"><ele>550.0</ele><time>2026-04-26T10:04:30.359Z</time></trkpt><trkpt lat="44.2430279" lon="8.0217353"><ele>550.0</ele><time>2026-04-26T10:04:31.385Z</time></trkpt><trkpt lat="44.2431783" lon="8.0217299"><ele>550.0</ele><time>2026-04-26T10:04:32.36Z</time></trkpt><trkpt lat="44.2433226" lon="8.0217216"><ele>549.5</ele><time>2026-04-26T10:04:33.36Z</time></trkpt><trkpt lat="44.2434427" lon="8.0217108"><ele>549.0</ele><time>2026-04-26T10:04:34.36Z</time></trkpt><trkpt lat="44.2435637" lon="8.0217017"><ele>548.5</ele><time>2026-04-26T10:04:35.361Z</time></trkpt><trkpt lat="44.2436778" lon="8.0216902"><ele>548.0</ele><time>2026-04-26T10:04:36.373Z</time></trkpt><trkpt lat="44.243803" lon="8.0216872"><ele>548.0</ele><time>2026-04-26T10:04:37.361Z</time></trkpt><trkpt lat="44.2439352" lon="8.021691"><ele>548.0</ele><time>2026-04-26T10:04:38.353Z</time></trkpt><trkpt lat="44.2440729" lon="8.021683"><ele>548.0</ele><time>2026-04-26T10:04:39.368Z</time></trkpt><trkpt lat="44.2442102" lon="8.0216787"><ele>548.0</ele><time>2026-04-26T10:04:40.362Z</time></trkpt><trkpt lat="44.2443412" lon="8.0216719"><ele>548.0</ele><time>2026-04-26T10:04:41.372Z</time></trkpt><trkpt lat="44.2444614" lon="8.0216684"><ele>548.0</ele><time>2026-04-26T10:04:42.359Z</time></trkpt><trkpt lat="44.2445609" lon="8.021664"><ele>548.0</ele><time>2026-04-26T10:04:43.373Z</time></trkpt><trkpt lat="44.2446371" lon="8.0216594"><ele>548.0</ele><time>2026-04-26T10:04:44.362Z</time></trkpt><trkpt lat="44.2447066" lon="8.0216541"><ele>548.0</ele><time>2026-04-26T10:04:45.358Z</time></trkpt><trkpt lat="44.2447711" lon="8.021654"><ele>548.0</ele><time>2026-04-26T10:04:46.358Z</time></trkpt><trkpt lat="44.2448383" lon="8.0216499"><ele>550.0000000000001</ele><time>2026-04-26T10:04:47.383Z</time></trkpt><trkpt lat="44.2449114" lon="8.0216484"><ele>552.0</ele><time>2026-04-26T10:04:48.363Z</time></trkpt><trkpt lat="44.2449845" lon="8.0216447"><ele>554.0</ele><time>2026-04-26T10:04:49.357Z</time></trkpt><trkpt lat="44.2450537" lon="8.0216393"><ele>556.0</ele><time>2026-04-26T10:04:50.371Z</time></trkpt><trkpt lat="44.2451273" lon="8.0216369"><ele>558.0</ele><time>2026-04-26T10:04:51.362Z</time></trkpt><trkpt lat="44.2452034" lon="8.0216348"><ele>560.0000000000001</ele><time>2026-04-26T10:04:52.361Z</time></trkpt><trkpt lat="44.2452804" lon="8.0216327"><ele>562.0</ele><time>2026-04-26T10:04:53.365Z</time></trkpt><trkpt lat="44.245367" lon="8.0216325"><ele>562.0</ele><time>2026-04-26T10:04:54.363Z</time></trkpt><trkpt lat="44.2454804" lon="8.0216289"><ele>562.0</ele><time>2026-04-26T10:04:55.353Z</time></trkpt><trkpt lat="44.2456116" lon="8.0216271"><ele>562.0</ele><time>2026-04-26T10:04:56.372Z</time></trkpt><trkpt lat="44.2457504" lon="8.0216236"><ele>562.0</ele><time>2026-04-26T10:04:57.372Z</time></trkpt><trkpt lat="44.2459113" lon="8.0216232"><ele>561.6666666666667</ele><time>2026-04-26T10:04:58.365Z</time></trkpt><trkpt lat="44.2460887" lon="8.0216244"><ele>561.3333333333334</ele><time>2026-04-26T10:04:59.357Z</time></trkpt><trkpt lat="44.2462639" lon="8.0216209"><ele>561.0</ele><time>2026-04-26T10:05:00.359Z</time></trkpt><trkpt lat="44.2464596" lon="8.0216164"><ele>557.5</ele><time>2026-04-26T10:05:01.36Z</time></trkpt><trkpt lat="44.2466838" lon="8.0216068"><ele>554.0</ele><time>2026-04-26T10:05:02.365Z</time></trkpt><trkpt lat="44.2469138" lon="8.0215969"><ele>554.0</ele><time>2026-04-26T10:05:03.351Z</time></trkpt><trkpt lat="44.2471469" lon="8.0216016"><ele>554.0</ele><time>2026-04-26T10:05:04.363Z</time></trkpt><trkpt lat="44.2473886" lon="8.0215999"><ele>551.0</ele><time>2026-04-26T10:05:05.361Z</time></trkpt><trkpt lat="44.2476295" lon="8.0215983"><ele>548.0</ele><time>2026-04-26T10:05:06.359Z</time></trkpt><trkpt lat="44.247869" lon="8.0215945"><ele>548.0</ele><time>2026-04-26T10:05:07.354Z</time></trkpt><trkpt lat="44.2481157" lon="8.0215852"><ele>548.0</ele><time>2026-04-26T10:05:08.352Z</time></trkpt><trkpt lat="44.2483636" lon="8.0215805"><ele>544.0</ele><time>2026-04-26T10:05:09.355Z</time></trkpt><trkpt lat="44.2486184" lon="8.0215692"><ele>540.0</ele><time>2026-04-26T10:05:10.351Z</time></trkpt><trkpt lat="44.248857" lon="8.0215596"><ele>540.0</ele><time>2026-04-26T10:05:11.359Z</time></trkpt><trkpt lat="44.249087" lon="8.0215481"><ele>540.0</ele><time>2026-04-26T10:05:12.352Z</time></trkpt><trkpt lat="44.2493087" lon="8.0215413"><ele>540.0</ele><time>2026-04-26T10:05:13.358Z</time></trkpt><trkpt lat="44.2495263" lon="8.0215416"><ele>540.0</ele><time>2026-04-26T10:05:14.355Z</time></trkpt><trkpt lat="44.2497439" lon="8.0215368"><ele>540.0</ele><time>2026-04-26T10:05:15.356Z</time></trkpt><trkpt lat="44.2499587" lon="8.0215293"><ele>542.0</ele><time>2026-04-26T10:05:16.359Z</time></trkpt><trkpt lat="44.2501699" lon="8.0215244"><ele>544.0</ele><time>2026-04-26T10:05:17.354Z</time></trkpt><trkpt lat="44.2503714" lon="8.0215212"><ele>546.0</ele><time>2026-04-26T10:05:18.358Z</time></trkpt><trkpt lat="44.2505754" lon="8.0215164"><ele>546.3333333333334</ele><time>2026-04-26T10:05:19.36Z</time></trkpt><trkpt lat="44.2507729" lon="8.0215072"><ele>546.6666666666667</ele><time>2026-04-26T10:05:20.345Z</time></trkpt><trkpt lat="44.2509624" lon="8.0214849"><ele>547.0</ele><time>2026-04-26T10:05:21.354Z</time></trkpt><trkpt lat="44.2511523" lon="8.0214424"><ele>547.0</ele><time>2026-04-26T10:05:22.362Z</time></trkpt><trkpt lat="44.2513448" lon="8.0213678"><ele>547.0</ele><time>2026-04-26T10:05:23.362Z</time></trkpt><trkpt lat="44.2515248" lon="8.0212564"><ele>547.0</ele><time>2026-04-26T10:05:24.354Z</time></trkpt><trkpt lat="44.2516924" lon="8.0211429"><ele>546.3333333333334</ele><time>2026-04-26T10:05:25.359Z</time></trkpt><trkpt lat="44.2518609" lon="8.0210218"><ele>545.6666666666666</ele><time>2026-04-26T10:05:26.357Z</time></trkpt><trkpt lat="44.2520262" lon="8.0209024"><ele>545.0</ele><time>2026-04-26T10:05:27.355Z</time></trkpt><trkpt lat="44.2521897" lon="8.0207901"><ele>552.0</ele><time>2026-04-26T10:05:28.348Z</time></trkpt><trkpt lat="44.2523645" lon="8.0206837"><ele>559.0</ele><time>2026-04-26T10:05:29.349Z</time></trkpt><trkpt lat="44.2525415" lon="8.0205814"><ele>566.0</ele><time>2026-04-26T10:05:30.36Z</time></trkpt><trkpt lat="44.25273" lon="8.0204911"><ele>566.0</ele><time>2026-04-26T10:05:31.355Z</time></trkpt><trkpt lat="44.2529188" lon="8.0204165"><ele>566.0</ele><time>2026-04-26T10:05:32.358Z</time></trkpt><trkpt lat="44.2531035" lon="8.0203609"><ele>566.0</ele><time>2026-04-26T10:05:33.354Z</time></trkpt><trkpt lat="44.2532977" lon="8.0203195"><ele>565.0</ele><time>2026-04-26T10:05:34.354Z</time></trkpt><trkpt lat="44.253502" lon="8.020274"><ele>564.0</ele><time>2026-04-26T10:05:35.371Z</time></trkpt><trkpt lat="44.2537508" lon="8.0202161"><ele>557.5</ele><time>2026-04-26T10:05:36.358Z</time></trkpt><trkpt lat="44.2540157" lon="8.0201612"><ele>551.0</ele><time>2026-04-26T10:05:37.359Z</time></trkpt><trkpt lat="44.2542881" lon="8.02012"><ele>551.0</ele><time>2026-04-26T10:05:38.361Z</time></trkpt><trkpt lat="44.25455" lon="8.0200845"><ele>551.0</ele><time>2026-04-26T10:05:39.365Z</time></trkpt><trkpt lat="44.2548057" lon="8.0200764"><ele>546.0</ele><time>2026-04-26T10:05:40.359Z</time></trkpt><trkpt lat="44.2550488" lon="8.0200779"><ele>541.0</ele><time>2026-04-26T10:05:41.359Z</time></trkpt><trkpt lat="44.2552699" lon="8.0200844"><ele>541.0</ele><time>2026-04-26T10:05:42.346Z</time></trkpt><trkpt lat="44.2554847" lon="8.0201121"><ele>541.0</ele><time>2026-04-26T10:05:43.356Z</time></trkpt><trkpt lat="44.2556889" lon="8.0201755"><ele>541.0</ele><time>2026-04-26T10:05:44.351Z</time></trkpt><trkpt lat="44.2558683" lon="8.0202811"><ele>541.3333333333334</ele><time>2026-04-26T10:05:45.357Z</time></trkpt><trkpt lat="44.2560522" lon="8.0203833"><ele>541.6666666666666</ele><time>2026-04-26T10:05:46.358Z</time></trkpt><trkpt lat="44.2562205" lon="8.0204799"><ele>542.0</ele><time>2026-04-26T10:05:47.365Z</time></trkpt><trkpt lat="44.2563853" lon="8.0205886"><ele>544.0</ele><time>2026-04-26T10:05:48.357Z</time></trkpt><trkpt lat="44.256562" lon="8.0207051"><ele>546.0</ele><time>2026-04-26T10:05:49.355Z</time></trkpt><trkpt lat="44.2567439" lon="8.020841"><ele>548.0</ele><time>2026-04-26T10:05:50.355Z</time></trkpt><trkpt lat="44.2569319" lon="8.0209813"><ele>546.0</ele><time>2026-04-26T10:05:51.357Z</time></trkpt><trkpt lat="44.2571216" lon="8.0211101"><ele>544.0</ele><time>2026-04-26T10:05:52.352Z</time></trkpt><trkpt lat="44.2573064" lon="8.0212372"><ele>542.0</ele><time>2026-04-26T10:05:53.351Z</time></trkpt><trkpt lat="44.2574816" lon="8.0213585"><ele>542.0</ele><time>2026-04-26T10:05:54.353Z</time></trkpt><trkpt lat="44.2576505" lon="8.0214697"><ele>542.0</ele><time>2026-04-26T10:05:55.367Z</time></trkpt><trkpt lat="44.2578154" lon="8.0215951"><ele>542.0</ele><time>2026-04-26T10:05:56.358Z</time></trkpt><trkpt lat="44.2579667" lon="8.021747"><ele>541.3333333333333</ele><time>2026-04-26T10:05:57.351Z</time></trkpt><trkpt lat="44.2581192" lon="8.0219238"><ele>540.6666666666666</ele><time>2026-04-26T10:05:58.351Z</time></trkpt><trkpt lat="44.258268" lon="8.0221041"><ele>540.0</ele><time>2026-04-26T10:05:59.352Z</time></trkpt><trkpt lat="44.2584124" lon="8.0222942"><ele>537.6666666666666</ele><time>2026-04-26T10:06:00.353Z</time></trkpt><trkpt lat="44.2585466" lon="8.0224839"><ele>535.3333333333333</ele><time>2026-04-26T10:06:01.366Z</time></trkpt><trkpt lat="44.2586762" lon="8.0226592"><ele>533.0</ele><time>2026-04-26T10:06:02.355Z</time></trkpt><trkpt lat="44.2587999" lon="8.022825"><ele>533.0</ele><time>2026-04-26T10:06:03.356Z</time></trkpt><trkpt lat="44.2589178" lon="8.0229836"><ele>533.0</ele><time>2026-04-26T10:06:04.364Z</time></trkpt><trkpt lat="44.2590272" lon="8.0231189"><ele>533.0</ele><time>2026-04-26T10:06:05.359Z</time></trkpt><trkpt lat="44.2591365" lon="8.0232382"><ele>533.0</ele><time>2026-04-26T10:06:06.363Z</time></trkpt><trkpt lat="44.2592802" lon="8.0233666"><ele>531.6666666666666</ele><time>2026-04-26T10:06:07.371Z</time></trkpt><trkpt lat="44.2594644" lon="8.023508"><ele>530.3333333333334</ele><time>2026-04-26T10:06:08.356Z</time></trkpt><trkpt lat="44.2596663" lon="8.023656"><ele>529.0</ele><time>2026-04-26T10:06:09.36Z</time></trkpt><trkpt lat="44.2598754" lon="8.023808"><ele>534.0</ele><time>2026-04-26T10:06:10.356Z</time></trkpt><trkpt lat="44.2601025" lon="8.0239533"><ele>539.0</ele><time>2026-04-26T10:06:11.36Z</time></trkpt><trkpt lat="44.260343" lon="8.024112"><ele>533.5</ele><time>2026-04-26T10:06:12.353Z</time></trkpt><trkpt lat="44.2605918" lon="8.0242726"><ele>528.0</ele><time>2026-04-26T10:06:13.358Z</time></trkpt><trkpt lat="44.2608426" lon="8.0244337"><ele>528.0</ele><time>2026-04-26T10:06:14.364Z</time></trkpt><trkpt lat="44.2610969" lon="8.0245946"><ele>528.0</ele><time>2026-04-26T10:06:15.358Z</time></trkpt><trkpt lat="44.2613534" lon="8.0247561"><ele>526.0</ele><time>2026-04-26T10:06:16.361Z</time></trkpt><trkpt lat="44.2616106" lon="8.0249154"><ele>524.0</ele><time>2026-04-26T10:06:17.353Z</time></trkpt><trkpt lat="44.2618698" lon="8.025078"><ele>524.0</ele><time>2026-04-26T10:06:18.372Z</time></trkpt><trkpt lat="44.2621242" lon="8.0252384"><ele>524.0</ele><time>2026-04-26T10:06:19.377Z</time></trkpt><trkpt lat="44.2623773" lon="8.0253933"><ele>526.5</ele><time>2026-04-26T10:06:20.36Z</time></trkpt><trkpt lat="44.2626307" lon="8.0255469"><ele>529.0</ele><time>2026-04-26T10:06:21.362Z</time></trkpt><trkpt lat="44.262873" lon="8.0256911"><ele>529.0</ele><time>2026-04-26T10:06:22.359Z</time></trkpt><trkpt lat="44.2631049" lon="8.0258367"><ele>529.0</ele><time>2026-04-26T10:06:23.37Z</time></trkpt><trkpt lat="44.2633361" lon="8.0259814"><ele>529.0</ele><time>2026-04-26T10:06:24.369Z</time></trkpt><trkpt lat="44.2635725" lon="8.0261288"><ele>529.0</ele><time>2026-04-26T10:06:25.37Z</time></trkpt><trkpt lat="44.2638104" lon="8.026277"><ele>529.0</ele><time>2026-04-26T10:06:26.363Z</time></trkpt><trkpt lat="44.2640546" lon="8.026435"><ele>529.0</ele><time>2026-04-26T10:06:27.37Z</time></trkpt><trkpt lat="44.2642967" lon="8.0265954"><ele>528.0</ele><time>2026-04-26T10:06:28.356Z</time></trkpt><trkpt lat="44.2645429" lon="8.026752"><ele>527.0</ele><time>2026-04-26T10:06:29.359Z</time></trkpt><trkpt lat="44.2647884" lon="8.0269036"><ele>527.0</ele><time>2026-04-26T10:06:30.361Z</time></trkpt><trkpt lat="44.2650332" lon="8.0270617"><ele>527.0</ele><time>2026-04-26T10:06:31.376Z</time></trkpt><trkpt lat="44.2652824" lon="8.0272159"><ele>527.0</ele><time>2026-04-26T10:06:32.368Z</time></trkpt><trkpt lat="44.2655351" lon="8.0273757"><ele>527.0</ele><time>2026-04-26T10:06:33.359Z</time></trkpt><trkpt lat="44.2657887" lon="8.0275377"><ele>524.5</ele><time>2026-04-26T10:06:34.354Z</time></trkpt><trkpt lat="44.266047" lon="8.0276974"><ele>522.0</ele><time>2026-04-26T10:06:35.363Z</time></trkpt><trkpt lat="44.2663071" lon="8.0278631"><ele>521.0</ele><time>2026-04-26T10:06:36.355Z</time></trkpt><trkpt lat="44.2665666" lon="8.0280277"><ele>520.0</ele><time>2026-04-26T10:06:37.365Z</time></trkpt><trkpt lat="44.2668259" lon="8.0281902"><ele>519.5</ele><time>2026-04-26T10:06:38.354Z</time></trkpt><trkpt lat="44.2670848" lon="8.0283512"><ele>519.0</ele><time>2026-04-26T10:06:39.36Z</time></trkpt><trkpt lat="44.2673341" lon="8.0285068"><ele>518.5</ele><time>2026-04-26T10:06:40.364Z</time></trkpt><trkpt lat="44.2675828" lon="8.0286616"><ele>518.0</ele><time>2026-04-26T10:06:41.35Z</time></trkpt><trkpt lat="44.2678383" lon="8.0288137"><ele>518.0</ele><time>2026-04-26T10:06:42.348Z</time></trkpt><trkpt lat="44.2680955" lon="8.0289701"><ele>518.0</ele><time>2026-04-26T10:06:43.353Z</time></trkpt><trkpt lat="44.2683526" lon="8.0291263"><ele>517.0</ele><time>2026-04-26T10:06:44.36Z</time></trkpt><trkpt lat="44.2686085" lon="8.0292796"><ele>516.0</ele><time>2026-04-26T10:06:45.354Z</time></trkpt><trkpt lat="44.2688614" lon="8.0294432"><ele>517.5</ele><time>2026-04-26T10:06:46.352Z</time></trkpt><trkpt lat="44.2691136" lon="8.0295974"><ele>519.0</ele><time>2026-04-26T10:06:47.353Z</time></trkpt><trkpt lat="44.2693679" lon="8.0297254"><ele>519.0</ele><time>2026-04-26T10:06:48.35Z</time></trkpt><trkpt lat="44.2696279" lon="8.0298303"><ele>519.0</ele><time>2026-04-26T10:06:49.361Z</time></trkpt><trkpt lat="44.2698949" lon="8.0299116"><ele>518.5</ele><time>2026-04-26T10:06:50.353Z</time></trkpt><trkpt lat="44.2701536" lon="8.029986"><ele>518.0</ele><time>2026-04-26T10:06:51.357Z</time></trkpt><trkpt lat="44.2703936" lon="8.0300527"><ele>519.0</ele><time>2026-04-26T10:06:52.362Z</time></trkpt><trkpt lat="44.2706179" lon="8.0301093"><ele>520.0</ele><time>2026-04-26T10:06:53.35Z</time></trkpt><trkpt lat="44.2708219" lon="8.0301662"><ele>521.0</ele><time>2026-04-26T10:06:54.367Z</time></trkpt><trkpt lat="44.2710172" lon="8.0302253"><ele>521.0</ele><time>2026-04-26T10:06:55.357Z</time></trkpt><trkpt lat="44.2712247" lon="8.0302794"><ele>521.0</ele><time>2026-04-26T10:06:56.352Z</time></trkpt><trkpt lat="44.271433" lon="8.0303382"><ele>521.0</ele><time>2026-04-26T10:06:57.358Z</time></trkpt><trkpt lat="44.2716327" lon="8.0303905"><ele>520.3333333333333</ele><time>2026-04-26T10:06:58.357Z</time></trkpt><trkpt lat="44.2718392" lon="8.0304459"><ele>519.6666666666666</ele><time>2026-04-26T10:06:59.353Z</time></trkpt><trkpt lat="44.2720546" lon="8.0304973"><ele>519.0</ele><time>2026-04-26T10:07:00.357Z</time></trkpt><trkpt lat="44.2722701" lon="8.0305717"><ele>520.0</ele><time>2026-04-26T10:07:01.36Z</time></trkpt><trkpt lat="44.2724692" lon="8.0306464"><ele>521.0</ele><time>2026-04-26T10:07:02.35Z</time></trkpt><trkpt lat="44.2726659" lon="8.030705"><ele>522.0</ele><time>2026-04-26T10:07:03.368Z</time></trkpt><trkpt lat="44.2728599" lon="8.0307569"><ele>523.0</ele><time>2026-04-26T10:07:04.347Z</time></trkpt><trkpt lat="44.273047" lon="8.0308085"><ele>524.0</ele><time>2026-04-26T10:07:05.363Z</time></trkpt><trkpt lat="44.2732252" lon="8.0308612"><ele>525.0</ele><time>2026-04-26T10:07:06.357Z</time></trkpt><trkpt lat="44.273396" lon="8.0309132"><ele>525.0</ele><time>2026-04-26T10:07:07.352Z</time></trkpt><trkpt lat="44.2735604" lon="8.0309649"><ele>525.0</ele><time>2026-04-26T10:07:08.355Z</time></trkpt><trkpt lat="44.2737104" lon="8.0310332"><ele>525.0</ele><time>2026-04-26T10:07:09.36Z</time></trkpt><trkpt lat="44.2738331" lon="8.0311282"><ele>525.0</ele><time>2026-04-26T10:07:10.357Z</time></trkpt><trkpt lat="44.2739257" lon="8.0312463"><ele>525.0</ele><time>2026-04-26T10:07:11.356Z</time></trkpt><trkpt lat="44.2740074" lon="8.0313702"><ele>525.0</ele><time>2026-04-26T10:07:12.355Z</time></trkpt><trkpt lat="44.2740843" lon="8.0315273"><ele>525.0</ele><time>2026-04-26T10:07:13.358Z</time></trkpt><trkpt lat="44.2741459" lon="8.0317071"><ele>527.5</ele><time>2026-04-26T10:07:14.35Z</time></trkpt><trkpt lat="44.2742116" lon="8.0318941"><ele>530.0</ele><time>2026-04-26T10:07:15.359Z</time></trkpt><trkpt lat="44.274284" lon="8.0320689"><ele>532.5</ele><time>2026-04-26T10:07:16.344Z</time></trkpt><trkpt lat="44.2743575" lon="8.0322568"><ele>535.0</ele><time>2026-04-26T10:07:17.355Z</time></trkpt><trkpt lat="44.2744413" lon="8.0324405"><ele>529.6666666666667</ele><time>2026-04-26T10:07:18.355Z</time></trkpt><trkpt lat="44.2745314" lon="8.0326278"><ele>524.3333333333334</ele><time>2026-04-26T10:07:19.352Z</time></trkpt><trkpt lat="44.2746416" lon="8.0328295"><ele>519.0</ele><time>2026-04-26T10:07:20.347Z</time></trkpt><trkpt lat="44.2747564" lon="8.0330494"><ele>520.3333333333334</ele><time>2026-04-26T10:07:21.353Z</time></trkpt><trkpt lat="44.2748755" lon="8.0332491"><ele>521.6666666666667</ele><time>2026-04-26T10:07:22.353Z</time></trkpt><trkpt lat="44.2750038" lon="8.0334185"><ele>523.0</ele><time>2026-04-26T10:07:23.344Z</time></trkpt><trkpt lat="44.2751327" lon="8.0335753"><ele>523.0</ele><time>2026-04-26T10:07:24.351Z</time></trkpt><trkpt lat="44.27527" lon="8.0337079"><ele>523.0</ele><time>2026-04-26T10:07:25.356Z</time></trkpt><trkpt lat="44.2754111" lon="8.0338202"><ele>523.0</ele><time>2026-04-26T10:07:26.349Z</time></trkpt><trkpt lat="44.2755533" lon="8.0339108"><ele>521.5</ele><time>2026-04-26T10:07:27.347Z</time></trkpt><trkpt lat="44.2756768" lon="8.0340369"><ele>520.0</ele><time>2026-04-26T10:07:28.351Z</time></trkpt><trkpt lat="44.2757792" lon="8.0341092"><ele>518.5</ele><time>2026-04-26T10:07:29.355Z</time></trkpt><trkpt lat="44.2758741" lon="8.0341962"><ele>517.0</ele><time>2026-04-26T10:07:30.355Z</time></trkpt><trkpt lat="44.2759836" lon="8.0342692"><ele>517.0</ele><time>2026-04-26T10:07:31.349Z</time></trkpt><trkpt lat="44.2761121" lon="8.0343118"><ele>517.0</ele><time>2026-04-26T10:07:32.347Z</time></trkpt><trkpt lat="44.2763175" lon="8.0343157"><ele>517.0</ele><time>2026-04-26T10:07:33.343Z</time></trkpt><trkpt lat="44.2765532" lon="8.0343156"><ele>517.3333333333334</ele><time>2026-04-26T10:07:34.351Z</time></trkpt><trkpt lat="44.2767718" lon="8.0343247"><ele>517.6666666666666</ele><time>2026-04-26T10:07:35.349Z</time></trkpt><trkpt lat="44.2769567" lon="8.0343363"><ele>518.0</ele><time>2026-04-26T10:07:36.35Z</time></trkpt><trkpt lat="44.2771289" lon="8.0343478"><ele>516.3333333333333</ele><time>2026-04-26T10:07:37.347Z</time></trkpt><trkpt lat="44.2772921" lon="8.0343515"><ele>514.6666666666666</ele><time>2026-04-26T10:07:38.357Z</time></trkpt><trkpt lat="44.2774549" lon="8.0343581"><ele>513.0</ele><time>2026-04-26T10:07:39.344Z</time></trkpt><trkpt lat="44.2776228" lon="8.0343582"><ele>513.0</ele><time>2026-04-26T10:07:40.353Z</time></trkpt><trkpt lat="44.2778137" lon="8.0343652"><ele>513.0</ele><time>2026-04-26T10:07:41.356Z</time></trkpt><trkpt lat="44.2780025" lon="8.0343819"><ele>513.0</ele><time>2026-04-26T10:07:42.347Z</time></trkpt><trkpt lat="44.2781821" lon="8.0343932"><ele>512.5</ele><time>2026-04-26T10:07:43.344Z</time></trkpt><trkpt lat="44.2783315" lon="8.0343947"><ele>512.0</ele><time>2026-04-26T10:07:44.35Z</time></trkpt><trkpt lat="44.2784593" lon="8.0343983"><ele>511.5</ele><time>2026-04-26T10:07:45.341Z</time></trkpt><trkpt lat="44.2785536" lon="8.0344149"><ele>511.0</ele><time>2026-04-26T10:07:46.338Z</time></trkpt><trkpt lat="44.2786495" lon="8.0344409"><ele>511.0</ele><time>2026-04-26T10:07:47.343Z</time></trkpt><trkpt lat="44.2787519" lon="8.0344754"><ele>511.0</ele><time>2026-04-26T10:07:48.35Z</time></trkpt><trkpt lat="44.2788578" lon="8.0345206"><ele>511.0</ele><time>2026-04-26T10:07:49.347Z</time></trkpt><trkpt lat="44.2789557" lon="8.0345914"><ele>511.0</ele><time>2026-04-26T10:07:50.356Z</time></trkpt><trkpt lat="44.2790455" lon="8.0346698"><ele>511.0</ele><time>2026-04-26T10:07:51.353Z</time></trkpt><trkpt lat="44.2791267" lon="8.0347679"><ele>511.0</ele><time>2026-04-26T10:07:52.351Z</time></trkpt><trkpt lat="44.2792046" lon="8.0348671"><ele>511.0</ele><time>2026-04-26T10:07:53.357Z</time></trkpt><trkpt lat="44.2792832" lon="8.0349548"><ele>511.0</ele><time>2026-04-26T10:07:54.374Z</time></trkpt><trkpt lat="44.2793525" lon="8.0350284"><ele>511.0</ele><time>2026-04-26T10:07:55.35Z</time></trkpt><trkpt lat="44.2794385" lon="8.0351055"><ele>511.0</ele><time>2026-04-26T10:07:56.345Z</time></trkpt><trkpt lat="44.2795324" lon="8.0351585"><ele>510.0</ele><time>2026-04-26T10:07:57.35Z</time></trkpt><trkpt lat="44.2796352" lon="8.0352049"><ele>509.0</ele><time>2026-04-26T10:07:58.358Z</time></trkpt><trkpt lat="44.2797513" lon="8.0352263"><ele>508.0</ele><time>2026-04-26T10:07:59.351Z</time></trkpt><trkpt lat="44.279874" lon="8.0352349"><ele>507.0</ele><time>2026-04-26T10:08:00.356Z</time></trkpt><trkpt lat="44.2799949" lon="8.0352077"><ele>507.0</ele><time>2026-04-26T10:08:01.354Z</time></trkpt><trkpt lat="44.2801255" lon="8.035141"><ele>507.0</ele><time>2026-04-26T10:08:02.347Z</time></trkpt><trkpt lat="44.2802792" lon="8.0350286"><ele>507.0</ele><time>2026-04-26T10:08:03.353Z</time></trkpt><trkpt lat="44.2804578" lon="8.0349086"><ele>507.66666666666663</ele><time>2026-04-26T10:08:04.35Z</time></trkpt><trkpt lat="44.2806394" lon="8.0347831"><ele>508.3333333333333</ele><time>2026-04-26T10:08:05.35Z</time></trkpt><trkpt lat="44.2808125" lon="8.0346527"><ele>509.0</ele><time>2026-04-26T10:08:06.354Z</time></trkpt><trkpt lat="44.2810016" lon="8.0345156"><ele>509.0</ele><time>2026-04-26T10:08:07.358Z</time></trkpt><trkpt lat="44.2811897" lon="8.0343636"><ele>509.0</ele><time>2026-04-26T10:08:08.342Z</time></trkpt><trkpt lat="44.2813536" lon="8.0342093"><ele>509.0</ele><time>2026-04-26T10:08:09.356Z</time></trkpt><trkpt lat="44.2815033" lon="8.0340572"><ele>516.0</ele><time>2026-04-26T10:08:10.356Z</time></trkpt><trkpt lat="44.2816628" lon="8.0338954"><ele>523.0</ele><time>2026-04-26T10:08:11.365Z</time></trkpt><trkpt lat="44.2818345" lon="8.0337381"><ele>530.0</ele><time>2026-04-26T10:08:12.361Z</time></trkpt><trkpt lat="44.2820018" lon="8.0336083"><ele>530.0</ele><time>2026-04-26T10:08:13.368Z</time></trkpt><trkpt lat="44.282155" lon="8.0334755"><ele>530.0</ele><time>2026-04-26T10:08:14.35Z</time></trkpt><trkpt lat="44.2823012" lon="8.0333424"><ele>530.0</ele><time>2026-04-26T10:08:15.349Z</time></trkpt><trkpt lat="44.2824509" lon="8.0332085"><ele>531.0</ele><time>2026-04-26T10:08:16.348Z</time></trkpt><trkpt lat="44.2825919" lon="8.0330982"><ele>532.0</ele><time>2026-04-26T10:08:17.36Z</time></trkpt><trkpt lat="44.2827284" lon="8.0329953"><ele>533.0</ele><time>2026-04-26T10:08:18.35Z</time></trkpt><trkpt lat="44.2828647" lon="8.0329117"><ele>533.0</ele><time>2026-04-26T10:08:19.354Z</time></trkpt><trkpt lat="44.282993" lon="8.0328464"><ele>533.0</ele><time>2026-04-26T10:08:20.356Z</time></trkpt><trkpt lat="44.2831189" lon="8.0327969"><ele>533.0</ele><time>2026-04-26T10:08:21.347Z</time></trkpt><trkpt lat="44.2832349" lon="8.032751"><ele>533.0</ele><time>2026-04-26T10:08:22.345Z</time></trkpt><trkpt lat="44.2833514" lon="8.0327143"><ele>525.3333333333333</ele><time>2026-04-26T10:08:23.355Z</time></trkpt><trkpt lat="44.2834775" lon="8.0326968"><ele>517.6666666666666</ele><time>2026-04-26T10:08:24.353Z</time></trkpt><trkpt lat="44.2836448" lon="8.0326801"><ele>510.0</ele><time>2026-04-26T10:08:25.354Z</time></trkpt><trkpt lat="44.2838175" lon="8.0326856"><ele>510.66666666666663</ele><time>2026-04-26T10:08:26.352Z</time></trkpt><trkpt lat="44.2839848" lon="8.0327202"><ele>511.3333333333333</ele><time>2026-04-26T10:08:27.349Z</time></trkpt><trkpt lat="44.2841338" lon="8.0327542"><ele>512.0</ele><time>2026-04-26T10:08:28.355Z</time></trkpt><trkpt lat="44.2842681" lon="8.0327801"><ele>512.0</ele><time>2026-04-26T10:08:29.352Z</time></trkpt><trkpt lat="44.2843799" lon="8.0327847"><ele>512.0</ele><time>2026-04-26T10:08:30.355Z</time></trkpt><trkpt lat="44.2844933" lon="8.032784"><ele>512.0</ele><time>2026-04-26T10:08:31.361Z</time></trkpt><trkpt lat="44.2846248" lon="8.0327678"><ele>512.0</ele><time>2026-04-26T10:08:32.353Z</time></trkpt><trkpt lat="44.2847456" lon="8.0327485"><ele>512.0</ele><time>2026-04-26T10:08:33.351Z</time></trkpt><trkpt lat="44.284862" lon="8.0327252"><ele>512.0</ele><time>2026-04-26T10:08:34.352Z</time></trkpt><trkpt lat="44.2849811" lon="8.0327104"><ele>512.0</ele><time>2026-04-26T10:08:35.354Z</time></trkpt><trkpt lat="44.2851054" lon="8.0327139"><ele>512.0</ele><time>2026-04-26T10:08:36.35Z</time></trkpt><trkpt lat="44.2852369" lon="8.0327326"><ele>512.0</ele><time>2026-04-26T10:08:37.344Z</time></trkpt><trkpt lat="44.2853688" lon="8.0327591"><ele>512.0</ele><time>2026-04-26T10:08:38.352Z</time></trkpt><trkpt lat="44.2855021" lon="8.0327977"><ele>512.0</ele><time>2026-04-26T10:08:39.351Z</time></trkpt><trkpt lat="44.285645" lon="8.032844"><ele>512.0</ele><time>2026-04-26T10:08:40.349Z</time></trkpt><trkpt lat="44.2858205" lon="8.0328998"><ele>512.5</ele><time>2026-04-26T10:08:41.362Z</time></trkpt><trkpt lat="44.2860331" lon="8.0329714"><ele>513.0</ele><time>2026-04-26T10:08:42.355Z</time></trkpt><trkpt lat="44.2862777" lon="8.0330671"><ele>516.0</ele><time>2026-04-26T10:08:43.357Z</time></trkpt><trkpt lat="44.2865259" lon="8.0331471"><ele>519.0</ele><time>2026-04-26T10:08:44.349Z</time></trkpt><trkpt lat="44.2867859" lon="8.0332145"><ele>519.0</ele><time>2026-04-26T10:08:45.361Z</time></trkpt><trkpt lat="44.2870667" lon="8.0332779"><ele>519.0</ele><time>2026-04-26T10:08:46.358Z</time></trkpt><trkpt lat="44.287355" lon="8.0333488"><ele>511.0</ele><time>2026-04-26T10:08:47.351Z</time></trkpt><trkpt lat="44.2876392" lon="8.0334333"><ele>503.0</ele><time>2026-04-26T10:08:48.358Z</time></trkpt><trkpt lat="44.2879216" lon="8.0335498"><ele>505.0</ele><time>2026-04-26T10:08:49.363Z</time></trkpt><trkpt lat="44.2882029" lon="8.0336981"><ele>507.0</ele><time>2026-04-26T10:08:50.356Z</time></trkpt><trkpt lat="44.2884826" lon="8.0338482"><ele>507.0</ele><time>2026-04-26T10:08:51.36Z</time></trkpt><trkpt lat="44.2887588" lon="8.0339903"><ele>507.0</ele><time>2026-04-26T10:08:52.359Z</time></trkpt><trkpt lat="44.2890422" lon="8.0341164"><ele>501.5</ele><time>2026-04-26T10:08:53.36Z</time></trkpt><trkpt lat="44.2893287" lon="8.0342243"><ele>496.0</ele><time>2026-04-26T10:08:54.359Z</time></trkpt><trkpt lat="44.2896163" lon="8.0343452"><ele>496.5</ele><time>2026-04-26T10:08:55.361Z</time></trkpt><trkpt lat="44.2899021" lon="8.0344549"><ele>497.0</ele><time>2026-04-26T10:08:56.355Z</time></trkpt><trkpt lat="44.2901867" lon="8.0345678"><ele>497.0</ele><time>2026-04-26T10:08:57.362Z</time></trkpt><trkpt lat="44.2904721" lon="8.0346888"><ele>497.0</ele><time>2026-04-26T10:08:58.359Z</time></trkpt><trkpt lat="44.2907515" lon="8.0348057"><ele>498.0</ele><time>2026-04-26T10:08:59.355Z</time></trkpt><trkpt lat="44.2910367" lon="8.0349182"><ele>499.0</ele><time>2026-04-26T10:09:00.357Z</time></trkpt><trkpt lat="44.2913234" lon="8.0350359"><ele>497.5</ele><time>2026-04-26T10:09:01.363Z</time></trkpt><trkpt lat="44.2916068" lon="8.0351545"><ele>496.0</ele><time>2026-04-26T10:09:02.366Z</time></trkpt><trkpt lat="44.2918892" lon="8.0352676"><ele>496.0</ele><time>2026-04-26T10:09:03.378Z</time></trkpt><trkpt lat="44.2921667" lon="8.0353821"><ele>496.0</ele><time>2026-04-26T10:09:04.361Z</time></trkpt><trkpt lat="44.2924365" lon="8.0354932"><ele>497.0</ele><time>2026-04-26T10:09:05.36Z</time></trkpt><trkpt lat="44.2927011" lon="8.0355988"><ele>498.0</ele><time>2026-04-26T10:09:06.357Z</time></trkpt><trkpt lat="44.292963" lon="8.0357077"><ele>497.0</ele><time>2026-04-26T10:09:07.361Z</time></trkpt><trkpt lat="44.2932133" lon="8.0358059"><ele>496.0</ele><time>2026-04-26T10:09:08.361Z</time></trkpt><trkpt lat="44.2934424" lon="8.0359182"><ele>496.0</ele><time>2026-04-26T10:09:09.369Z</time></trkpt><trkpt lat="44.2936457" lon="8.0360605"><ele>496.0</ele><time>2026-04-26T10:09:10.359Z</time></trkpt><trkpt lat="44.2938239" lon="8.0362504"><ele>495.5</ele><time>2026-04-26T10:09:11.376Z</time></trkpt><trkpt lat="44.2939736" lon="8.036498"><ele>495.0</ele><time>2026-04-26T10:09:12.359Z</time></trkpt><trkpt lat="44.2941137" lon="8.0367658"><ele>495.0</ele><time>2026-04-26T10:09:13.369Z</time></trkpt><trkpt lat="44.2942563" lon="8.0370468"><ele>495.0</ele><time>2026-04-26T10:09:14.364Z</time></trkpt><trkpt lat="44.2944077" lon="8.0373259"><ele>493.0</ele><time>2026-04-26T10:09:15.355Z</time></trkpt><trkpt lat="44.2945694" lon="8.0376155"><ele>491.0</ele><time>2026-04-26T10:09:16.359Z</time></trkpt><trkpt lat="44.294735" lon="8.0379028"><ele>491.5</ele><time>2026-04-26T10:09:17.366Z</time></trkpt><trkpt lat="44.2949073" lon="8.0382109"><ele>492.0</ele><time>2026-04-26T10:09:18.359Z</time></trkpt><trkpt lat="44.2950763" lon="8.0385233"><ele>492.0</ele><time>2026-04-26T10:09:19.344Z</time></trkpt><trkpt lat="44.2952452" lon="8.0388317"><ele>492.0</ele><time>2026-04-26T10:09:20.358Z</time></trkpt><trkpt lat="44.2954159" lon="8.0391421"><ele>491.0</ele><time>2026-04-26T10:09:21.375Z</time></trkpt><trkpt lat="44.2955862" lon="8.0394464"><ele>490.0</ele><time>2026-04-26T10:09:22.357Z</time></trkpt><trkpt lat="44.295747" lon="8.0397534"><ele>491.0</ele><time>2026-04-26T10:09:23.36Z</time></trkpt><trkpt lat="44.2958967" lon="8.040063"><ele>492.0</ele><time>2026-04-26T10:09:24.363Z</time></trkpt><trkpt lat="44.2960263" lon="8.0403815"><ele>492.0</ele><time>2026-04-26T10:09:25.359Z</time></trkpt><trkpt lat="44.2961415" lon="8.0406981"><ele>492.0</ele><time>2026-04-26T10:09:26.38Z</time></trkpt><trkpt lat="44.2962555" lon="8.0410008"><ele>490.0</ele><time>2026-04-26T10:09:27.368Z</time></trkpt><trkpt lat="44.2963698" lon="8.0412894"><ele>488.0</ele><time>2026-04-26T10:09:28.356Z</time></trkpt><trkpt lat="44.2964787" lon="8.0415671"><ele>490.0</ele><time>2026-04-26T10:09:29.366Z</time></trkpt><trkpt lat="44.2965923" lon="8.0418224"><ele>492.0</ele><time>2026-04-26T10:09:30.357Z</time></trkpt><trkpt lat="44.2967391" lon="8.0420415"><ele>494.0</ele><time>2026-04-26T10:09:31.37Z</time></trkpt><trkpt lat="44.2969025" lon="8.042227"><ele>494.0</ele><time>2026-04-26T10:09:32.362Z</time></trkpt><trkpt lat="44.2970821" lon="8.0423846"><ele>494.0</ele><time>2026-04-26T10:09:33.367Z</time></trkpt><trkpt lat="44.2972683" lon="8.042514"><ele>494.0</ele><time>2026-04-26T10:09:34.363Z</time></trkpt><trkpt lat="44.2974528" lon="8.0426142"><ele>493.3333333333333</ele><time>2026-04-26T10:09:35.358Z</time></trkpt><trkpt lat="44.2976445" lon="8.0427028"><ele>492.66666666666663</ele><time>2026-04-26T10:09:36.361Z</time></trkpt><trkpt lat="44.2978182" lon="8.0428086"><ele>492.0</ele><time>2026-04-26T10:09:37.364Z</time></trkpt><trkpt lat="44.2979797" lon="8.0429353"><ele>492.25</ele><time>2026-04-26T10:09:38.361Z</time></trkpt><trkpt lat="44.298116" lon="8.0430392"><ele>492.5</ele><time>2026-04-26T10:09:39.352Z</time></trkpt><trkpt lat="44.2982205" lon="8.0431233"><ele>492.75</ele><time>2026-04-26T10:09:40.357Z</time></trkpt><trkpt lat="44.298295" lon="8.0431987"><ele>493.0</ele><time>2026-04-26T10:09:41.361Z</time></trkpt><trkpt lat="44.2984199" lon="8.0432072"><ele>493.0</ele><time>2026-04-26T10:09:43.368Z</time></trkpt><trkpt lat="44.2985309" lon="8.0431764"><ele>493.0</ele><time>2026-04-26T10:09:44.354Z</time></trkpt><trkpt lat="44.2986583" lon="8.0431232"><ele>493.0</ele><time>2026-04-26T10:09:45.37Z</time></trkpt><trkpt lat="44.2987794" lon="8.0430877"><ele>493.0</ele><time>2026-04-26T10:09:46.357Z</time></trkpt><trkpt lat="44.2989009" lon="8.043094"><ele>493.0</ele><time>2026-04-26T10:09:47.356Z</time></trkpt><trkpt lat="44.2990209" lon="8.0431624"><ele>493.0</ele><time>2026-04-26T10:09:48.366Z</time></trkpt><trkpt lat="44.2991653" lon="8.0432274"><ele>493.0</ele><time>2026-04-26T10:09:49.367Z</time></trkpt><trkpt lat="44.2993279" lon="8.0432867"><ele>493.0</ele><time>2026-04-26T10:09:50.379Z</time></trkpt><trkpt lat="44.2994813" lon="8.0433454"><ele>492.75</ele><time>2026-04-26T10:09:51.36Z</time></trkpt><trkpt lat="44.2996327" lon="8.0433998"><ele>492.5</ele><time>2026-04-26T10:09:52.354Z</time></trkpt><trkpt lat="44.2997582" lon="8.0434497"><ele>492.25</ele><time>2026-04-26T10:09:53.364Z</time></trkpt><trkpt lat="44.299875" lon="8.0434937"><ele>492.0</ele><time>2026-04-26T10:09:54.369Z</time></trkpt><trkpt lat="44.3000022" lon="8.0435335"><ele>492.0</ele><time>2026-04-26T10:09:55.358Z</time></trkpt><trkpt lat="44.3001249" lon="8.0435884"><ele>492.0</ele><time>2026-04-26T10:09:56.36Z</time></trkpt><trkpt lat="44.3002434" lon="8.043632"><ele>492.0</ele><time>2026-04-26T10:09:57.358Z</time></trkpt><trkpt lat="44.3003758" lon="8.0436782"><ele>492.0</ele><time>2026-04-26T10:09:58.358Z</time></trkpt><trkpt lat="44.3004983" lon="8.0437283"><ele>492.75</ele><time>2026-04-26T10:09:59.363Z</time></trkpt><trkpt lat="44.3006202" lon="8.0437739"><ele>493.5</ele><time>2026-04-26T10:10:00.357Z</time></trkpt><trkpt lat="44.3007379" lon="8.0438172"><ele>494.25</ele><time>2026-04-26T10:10:01.355Z</time></trkpt><trkpt lat="44.3008701" lon="8.0438562"><ele>495.0</ele><time>2026-04-26T10:10:02.357Z</time></trkpt><trkpt lat="44.3009949" lon="8.0438958"><ele>495.0</ele><time>2026-04-26T10:10:03.354Z</time></trkpt><trkpt lat="44.3011103" lon="8.0439406"><ele>495.0</ele><time>2026-04-26T10:10:04.354Z</time></trkpt><trkpt lat="44.3012102" lon="8.0439797"><ele>495.0</ele><time>2026-04-26T10:10:05.364Z</time></trkpt><trkpt lat="44.301312" lon="8.0440223"><ele>495.0</ele><time>2026-04-26T10:10:06.378Z</time></trkpt><trkpt lat="44.3014084" lon="8.0440675"><ele>495.0</ele><time>2026-04-26T10:10:07.358Z</time></trkpt><trkpt lat="44.3014995" lon="8.0441214"><ele>494.6</ele><time>2026-04-26T10:10:08.357Z</time></trkpt><trkpt lat="44.3015847" lon="8.0441644"><ele>494.2</ele><time>2026-04-26T10:10:09.363Z</time></trkpt><trkpt lat="44.3016722" lon="8.0442006"><ele>493.79999999999995</ele><time>2026-04-26T10:10:10.374Z</time></trkpt><trkpt lat="44.3017645" lon="8.044227"><ele>493.4</ele><time>2026-04-26T10:10:11.356Z</time></trkpt><trkpt lat="44.3018999" lon="8.0442742"><ele>493.0</ele><time>2026-04-26T10:10:12.365Z</time></trkpt><trkpt lat="44.3020725" lon="8.0443429"><ele>493.0</ele><time>2026-04-26T10:10:13.356Z</time></trkpt><trkpt lat="44.3022356" lon="8.0444082"><ele>493.0</ele><time>2026-04-26T10:10:14.365Z</time></trkpt><trkpt lat="44.3024318" lon="8.0444892"><ele>493.0</ele><time>2026-04-26T10:10:15.369Z</time></trkpt><trkpt lat="44.3026374" lon="8.0445686"><ele>493.33333333333337</ele><time>2026-04-26T10:10:16.359Z</time></trkpt><trkpt lat="44.3028441" lon="8.0446438"><ele>493.66666666666663</ele><time>2026-04-26T10:10:17.373Z</time></trkpt><trkpt lat="44.3030452" lon="8.0447227"><ele>494.0</ele><time>2026-04-26T10:10:18.378Z</time></trkpt><trkpt lat="44.3032476" lon="8.0448097"><ele>494.0</ele><time>2026-04-26T10:10:19.36Z</time></trkpt><trkpt lat="44.3034463" lon="8.0448875"><ele>494.0</ele><time>2026-04-26T10:10:20.362Z</time></trkpt><trkpt lat="44.3036387" lon="8.0449683"><ele>494.0</ele><time>2026-04-26T10:10:21.354Z</time></trkpt><trkpt lat="44.3038308" lon="8.0450454"><ele>492.0</ele><time>2026-04-26T10:10:22.355Z</time></trkpt><trkpt lat="44.3040209" lon="8.0451176"><ele>490.0</ele><time>2026-04-26T10:10:23.372Z</time></trkpt><trkpt lat="44.3042023" lon="8.0451813"><ele>488.0</ele><time>2026-04-26T10:10:24.362Z</time></trkpt><trkpt lat="44.3043885" lon="8.0452427"><ele>488.0</ele><time>2026-04-26T10:10:25.358Z</time></trkpt><trkpt lat="44.3045628" lon="8.0453056"><ele>488.0</ele><time>2026-04-26T10:10:26.368Z</time></trkpt><trkpt lat="44.3047273" lon="8.0453686"><ele>488.0</ele><time>2026-04-26T10:10:27.364Z</time></trkpt><trkpt lat="44.3048791" lon="8.0454294"><ele>487.5</ele><time>2026-04-26T10:10:28.353Z</time></trkpt><trkpt lat="44.3050114" lon="8.0454828"><ele>487.0</ele><time>2026-04-26T10:10:29.371Z</time></trkpt><trkpt lat="44.3051226" lon="8.0455237"><ele>486.5</ele><time>2026-04-26T10:10:30.37Z</time></trkpt><trkpt lat="44.3052182" lon="8.0455687"><ele>486.0</ele><time>2026-04-26T10:10:31.355Z</time></trkpt><trkpt lat="44.305318" lon="8.045616"><ele>486.0</ele><time>2026-04-26T10:10:32.367Z</time></trkpt><trkpt lat="44.305448" lon="8.0456639"><ele>486.0</ele><time>2026-04-26T10:10:33.367Z</time></trkpt><trkpt lat="44.3055909" lon="8.0457265"><ele>486.0</ele><time>2026-04-26T10:10:34.364Z</time></trkpt><trkpt lat="44.3057338" lon="8.0457925"><ele>486.0</ele><time>2026-04-26T10:10:35.355Z</time></trkpt><trkpt lat="44.3058724" lon="8.0458359"><ele>486.0</ele><time>2026-04-26T10:10:36.363Z</time></trkpt><trkpt lat="44.306005" lon="8.0458833"><ele>486.0</ele><time>2026-04-26T10:10:37.356Z</time></trkpt><trkpt lat="44.3061334" lon="8.0459288"><ele>486.0</ele><time>2026-04-26T10:10:38.354Z</time></trkpt><trkpt lat="44.3062641" lon="8.0459754"><ele>486.0</ele><time>2026-04-26T10:10:39.367Z</time></trkpt><trkpt lat="44.3064005" lon="8.0460275"><ele>486.33333333333337</ele><time>2026-04-26T10:10:40.373Z</time></trkpt><trkpt lat="44.3065452" lon="8.0460766"><ele>486.6666666666667</ele><time>2026-04-26T10:10:41.355Z</time></trkpt><trkpt lat="44.3066935" lon="8.0461344"><ele>487.0</ele><time>2026-04-26T10:10:42.359Z</time></trkpt><trkpt lat="44.3068446" lon="8.0461888"><ele>487.0</ele><time>2026-04-26T10:10:43.368Z</time></trkpt><trkpt lat="44.3069804" lon="8.0462311"><ele>487.0</ele><time>2026-04-26T10:10:44.364Z</time></trkpt><trkpt lat="44.3071013" lon="8.0462782"><ele>487.0</ele><time>2026-04-26T10:10:45.369Z</time></trkpt><trkpt lat="44.3072128" lon="8.0463167"><ele>487.0</ele><time>2026-04-26T10:10:46.368Z</time></trkpt><trkpt lat="44.3072821" lon="8.0463399"><ele>487.6</ele><time>2026-04-26T10:10:47.358Z</time></trkpt><trkpt lat="44.3073206" lon="8.0461997"><ele>488.20000000000005</ele><time>2026-04-26T10:10:50.355Z</time></trkpt><trkpt lat="44.307331" lon="8.0460828"><ele>488.8</ele><time>2026-04-26T10:10:51.351Z</time></trkpt><trkpt lat="44.3073707" lon="8.0459556"><ele>489.4</ele><time>2026-04-26T10:10:52.37Z</time></trkpt><trkpt lat="44.307423" lon="8.0458153"><ele>490.0</ele><time>2026-04-26T10:10:53.344Z</time></trkpt><trkpt lat="44.3074668" lon="8.0456901"><ele>490.6</ele><time>2026-04-26T10:10:54.353Z</time></trkpt><trkpt lat="44.3075064" lon="8.0455556"><ele>491.2</ele><time>2026-04-26T10:10:55.359Z</time></trkpt><trkpt lat="44.3075474" lon="8.0454236"><ele>491.79999999999995</ele><time>2026-04-26T10:10:56.342Z</time></trkpt><trkpt lat="44.3075903" lon="8.0453019"><ele>492.4</ele><time>2026-04-26T10:10:57.356Z</time></trkpt><trkpt lat="44.3076523" lon="8.045235"><ele>493.0</ele><time>2026-04-26T10:10:58.351Z</time></trkpt><trkpt lat="44.3077293" lon="8.0451713"><ele>493.00000000000006</ele><time>2026-04-26T10:10:59.344Z</time></trkpt><trkpt lat="44.3078044" lon="8.0451059"><ele>493.0</ele><time>2026-04-26T10:11:00.341Z</time></trkpt><trkpt lat="44.307906" lon="8.0450586"><ele>493.0</ele><time>2026-04-26T10:11:02.349Z</time></trkpt><trkpt lat="44.3079697" lon="8.0450549"><ele>493.0</ele><time>2026-04-26T10:11:03.343Z</time></trkpt><trkpt lat="44.3080333" lon="8.045061"><ele>493.00000000000006</ele><time>2026-04-26T10:11:04.349Z</time></trkpt><trkpt lat="44.3081492" lon="8.0450353"><ele>493.0</ele><time>2026-04-26T10:11:06.35Z</time></trkpt><trkpt lat="44.3082305" lon="8.0449445"><ele>494.59999999999997</ele><time>2026-04-26T10:11:08.362Z</time></trkpt><trkpt lat="44.308281" lon="8.0448632"><ele>496.19999999999993</ele><time>2026-04-26T10:11:10.356Z</time></trkpt><trkpt lat="44.3083744" lon="8.0448098"><ele>497.8</ele><time>2026-04-26T10:11:12.349Z</time></trkpt><trkpt lat="44.308501" lon="8.0447446"><ele>499.4</ele><time>2026-04-26T10:11:14.361Z</time></trkpt><trkpt lat="44.3085724" lon="8.0447217"><ele>501.0</ele><time>2026-04-26T10:11:15.35Z</time></trkpt><trkpt lat="44.3086461" lon="8.0447283"><ele>501.0</ele><time>2026-04-26T10:11:16.352Z</time></trkpt><trkpt lat="44.3087134" lon="8.0447443"><ele>501.0</ele><time>2026-04-26T10:11:17.353Z</time></trkpt><trkpt lat="44.3087735" lon="8.0447705"><ele>501.0</ele><time>2026-04-26T10:11:18.352Z</time></trkpt><trkpt lat="44.3088379" lon="8.0448036"><ele>501.0</ele><time>2026-04-26T10:11:28.345Z</time></trkpt><trkpt lat="44.3089292" lon="8.0448422"><ele>501.0</ele><time>2026-04-26T10:11:31.351Z</time></trkpt><trkpt lat="44.3090024" lon="8.0448793"><ele>501.0</ele><time>2026-04-26T10:11:33.371Z</time></trkpt><trkpt lat="44.309072" lon="8.0449365"><ele>501.4</ele><time>2026-04-26T10:11:35.355Z</time></trkpt><trkpt lat="44.3091781" lon="8.0449967"><ele>501.8</ele><time>2026-04-26T10:11:37.358Z</time></trkpt><trkpt lat="44.3092587" lon="8.0450396"><ele>502.19999999999993</ele><time>2026-04-26T10:11:38.357Z</time></trkpt><trkpt lat="44.3093683" lon="8.0450844"><ele>502.59999999999997</ele><time>2026-04-26T10:11:39.356Z</time></trkpt><trkpt lat="44.3094914" lon="8.0451393"><ele>503.0</ele><time>2026-04-26T10:11:40.367Z</time></trkpt><trkpt lat="44.3096284" lon="8.0452155"><ele>509.66666666666663</ele><time>2026-04-26T10:11:41.356Z</time></trkpt><trkpt lat="44.3097566" lon="8.0453082"><ele>516.3333333333334</ele><time>2026-04-26T10:11:42.367Z</time></trkpt><trkpt lat="44.309892" lon="8.045407"><ele>523.0</ele><time>2026-04-26T10:11:43.362Z</time></trkpt><trkpt lat="44.3100318" lon="8.0454971"><ele>523.0</ele><time>2026-04-26T10:11:44.354Z</time></trkpt><trkpt lat="44.3101853" lon="8.0455705"><ele>523.0</ele><time>2026-04-26T10:11:45.355Z</time></trkpt><trkpt lat="44.3103318" lon="8.0456304"><ele>523.0</ele><time>2026-04-26T10:11:46.358Z</time></trkpt><trkpt lat="44.3104887" lon="8.0456903"><ele>528.6666666666667</ele><time>2026-04-26T10:11:47.36Z</time></trkpt><trkpt lat="44.3106495" lon="8.0457417"><ele>534.3333333333334</ele><time>2026-04-26T10:11:48.36Z</time></trkpt><trkpt lat="44.3108148" lon="8.0457673"><ele>540.0</ele><time>2026-04-26T10:11:49.357Z</time></trkpt><trkpt lat="44.3109979" lon="8.0457656"><ele>540.0</ele><time>2026-04-26T10:11:50.352Z</time></trkpt><trkpt lat="44.311177" lon="8.0457351"><ele>540.0</ele><time>2026-04-26T10:11:51.352Z</time></trkpt><trkpt lat="44.3113733" lon="8.045702"><ele>540.0</ele><time>2026-04-26T10:11:52.357Z</time></trkpt><trkpt lat="44.3115732" lon="8.0456791"><ele>541.6666666666666</ele><time>2026-04-26T10:11:53.36Z</time></trkpt><trkpt lat="44.3117762" lon="8.0456513"><ele>543.3333333333333</ele><time>2026-04-26T10:11:54.354Z</time></trkpt><trkpt lat="44.3119747" lon="8.0456221"><ele>545.0</ele><time>2026-04-26T10:11:55.347Z</time></trkpt><trkpt lat="44.3121835" lon="8.0455989"><ele>546.3333333333333</ele><time>2026-04-26T10:11:56.349Z</time></trkpt><trkpt lat="44.3123999" lon="8.0456008"><ele>547.6666666666666</ele><time>2026-04-26T10:11:57.362Z</time></trkpt><trkpt lat="44.312624" lon="8.0456139"><ele>549.0</ele><time>2026-04-26T10:11:58.355Z</time></trkpt><trkpt lat="44.3128547" lon="8.0456262"><ele>550.5</ele><time>2026-04-26T10:11:59.353Z</time></trkpt><trkpt lat="44.3130809" lon="8.0456448"><ele>552.0</ele><time>2026-04-26T10:12:00.359Z</time></trkpt><trkpt lat="44.3133138" lon="8.0456632"><ele>552.0</ele><time>2026-04-26T10:12:01.352Z</time></trkpt><trkpt lat="44.3135442" lon="8.045684"><ele>552.0</ele><time>2026-04-26T10:12:02.357Z</time></trkpt><trkpt lat="44.3137747" lon="8.0456973"><ele>551.0</ele><time>2026-04-26T10:12:03.347Z</time></trkpt><trkpt lat="44.3139905" lon="8.0457118"><ele>550.0</ele><time>2026-04-26T10:12:04.359Z</time></trkpt><trkpt lat="44.3141934" lon="8.0457233"><ele>549.0</ele><time>2026-04-26T10:12:05.356Z</time></trkpt><trkpt lat="44.3143801" lon="8.0457244"><ele>549.0</ele><time>2026-04-26T10:12:06.356Z</time></trkpt><trkpt lat="44.3145505" lon="8.0457116"><ele>549.0</ele><time>2026-04-26T10:12:07.36Z</time></trkpt><trkpt lat="44.3146935" lon="8.045683"><ele>549.0</ele><time>2026-04-26T10:12:08.357Z</time></trkpt><trkpt lat="44.3147899" lon="8.0456239"><ele>549.0</ele><time>2026-04-26T10:12:09.357Z</time></trkpt><trkpt lat="44.314822" lon="8.0455379"><ele>549.0</ele><time>2026-04-26T10:12:10.363Z</time></trkpt><trkpt lat="44.3147912" lon="8.0454578"><ele>549.0</ele><time>2026-04-26T10:12:11.357Z</time></trkpt><trkpt lat="44.3147262" lon="8.0454229"><ele>549.0</ele><time>2026-04-26T10:12:12.356Z</time></trkpt><trkpt lat="44.3146104" lon="8.0454255"><ele>549.0</ele><time>2026-04-26T10:12:13.367Z</time></trkpt><trkpt lat="44.3144708" lon="8.045406"><ele>549.0</ele><time>2026-04-26T10:12:14.357Z</time></trkpt><trkpt lat="44.3143222" lon="8.0453797"><ele>549.0</ele><time>2026-04-26T10:12:15.357Z</time></trkpt><trkpt lat="44.3141787" lon="8.0453154"><ele>549.0</ele><time>2026-04-26T10:12:16.367Z</time></trkpt><trkpt lat="44.314023" lon="8.0452136"><ele>549.0</ele><time>2026-04-26T10:12:17.358Z</time></trkpt><trkpt lat="44.3138502" lon="8.0451055"><ele>550.0</ele><time>2026-04-26T10:12:18.367Z</time></trkpt><trkpt lat="44.3136687" lon="8.0450059"><ele>551.0</ele><time>2026-04-26T10:12:19.345Z</time></trkpt><trkpt lat="44.3134609" lon="8.0449235"><ele>552.0</ele><time>2026-04-26T10:12:20.352Z</time></trkpt><trkpt lat="44.3132412" lon="8.0448785"><ele>560.6666666666666</ele><time>2026-04-26T10:12:21.357Z</time></trkpt><trkpt lat="44.3130356" lon="8.0448276"><ele>569.3333333333333</ele><time>2026-04-26T10:12:22.355Z</time></trkpt><trkpt lat="44.3128302" lon="8.0447554"><ele>578.0</ele><time>2026-04-26T10:12:23.363Z</time></trkpt><trkpt lat="44.3126283" lon="8.0446698"><ele>578.0</ele><time>2026-04-26T10:12:24.361Z</time></trkpt><trkpt lat="44.312418" lon="8.0445845"><ele>578.0</ele><time>2026-04-26T10:12:25.358Z</time></trkpt><trkpt lat="44.3122033" lon="8.0445082"><ele>578.0</ele><time>2026-04-26T10:12:26.359Z</time></trkpt><trkpt lat="44.3119811" lon="8.0444571"><ele>576.3333333333333</ele><time>2026-04-26T10:12:27.356Z</time></trkpt><trkpt lat="44.3117664" lon="8.0444335"><ele>574.6666666666666</ele><time>2026-04-26T10:12:28.359Z</time></trkpt><trkpt lat="44.3115658" lon="8.044413"><ele>573.0</ele><time>2026-04-26T10:12:29.363Z</time></trkpt><trkpt lat="44.3113844" lon="8.0443918"><ele>570.6666666666666</ele><time>2026-04-26T10:12:30.353Z</time></trkpt><trkpt lat="44.3112311" lon="8.0443503"><ele>568.3333333333333</ele><time>2026-04-26T10:12:31.359Z</time></trkpt><trkpt lat="44.3111037" lon="8.0442497"><ele>566.0</ele><time>2026-04-26T10:12:32.358Z</time></trkpt><trkpt lat="44.3109749" lon="8.0441135"><ele>571.0</ele><time>2026-04-26T10:12:33.364Z</time></trkpt><trkpt lat="44.3108486" lon="8.0439676"><ele>576.0</ele><time>2026-04-26T10:12:34.362Z</time></trkpt><trkpt lat="44.3107452" lon="8.0438106"><ele>581.0</ele><time>2026-04-26T10:12:35.357Z</time></trkpt><trkpt lat="44.3106707" lon="8.0436427"><ele>581.0</ele><time>2026-04-26T10:12:36.357Z</time></trkpt><trkpt lat="44.3106273" lon="8.04345"><ele>581.0</ele><time>2026-04-26T10:12:37.361Z</time></trkpt><trkpt lat="44.3106143" lon="8.0432203"><ele>581.0</ele><time>2026-04-26T10:12:38.373Z</time></trkpt><trkpt lat="44.3105888" lon="8.0429761"><ele>581.3333333333333</ele><time>2026-04-26T10:12:39.353Z</time></trkpt><trkpt lat="44.310535" lon="8.0427363"><ele>581.6666666666666</ele><time>2026-04-26T10:12:40.356Z</time></trkpt><trkpt lat="44.31045" lon="8.0425158"><ele>582.0</ele><time>2026-04-26T10:12:41.357Z</time></trkpt><trkpt lat="44.3103415" lon="8.0423252"><ele>582.0</ele><time>2026-04-26T10:12:42.361Z</time></trkpt><trkpt lat="44.3102371" lon="8.0421462"><ele>582.0</ele><time>2026-04-26T10:12:43.355Z</time></trkpt><trkpt lat="44.3101743" lon="8.0420007"><ele>582.0</ele><time>2026-04-26T10:12:44.358Z</time></trkpt><trkpt lat="44.3101734" lon="8.0419054"><ele>582.0</ele><time>2026-04-26T10:12:45.363Z</time></trkpt><trkpt lat="44.310206" lon="8.0418254"><ele>582.0</ele><time>2026-04-26T10:12:46.364Z</time></trkpt><trkpt lat="44.3102713" lon="8.0418111"><ele>582.0</ele><time>2026-04-26T10:12:47.359Z</time></trkpt><trkpt lat="44.3103475" lon="8.0418868"><ele>582.0</ele><time>2026-04-26T10:12:48.353Z</time></trkpt><trkpt lat="44.310427" lon="8.0419991"><ele>582.0</ele><time>2026-04-26T10:12:49.352Z</time></trkpt><trkpt lat="44.3105336" lon="8.0421307"><ele>582.0</ele><time>2026-04-26T10:12:50.374Z</time></trkpt><trkpt lat="44.3106628" lon="8.042287"><ele>585.6666666666666</ele><time>2026-04-26T10:12:51.375Z</time></trkpt><trkpt lat="44.3107831" lon="8.0424519"><ele>589.3333333333333</ele><time>2026-04-26T10:12:52.357Z</time></trkpt><trkpt lat="44.3108929" lon="8.0426134"><ele>593.0</ele><time>2026-04-26T10:12:53.367Z</time></trkpt><trkpt lat="44.3109759" lon="8.0427996"><ele>593.0</ele><time>2026-04-26T10:12:54.369Z</time></trkpt><trkpt lat="44.3110448" lon="8.0429772"><ele>593.0</ele><time>2026-04-26T10:12:55.368Z</time></trkpt><trkpt lat="44.3111198" lon="8.0430978"><ele>593.0</ele><time>2026-04-26T10:12:56.364Z</time></trkpt><trkpt lat="44.311239" lon="8.0431671"><ele>593.0</ele><time>2026-04-26T10:12:57.361Z</time></trkpt><trkpt lat="44.3113886" lon="8.0431598"><ele>600.3333333333333</ele><time>2026-04-26T10:12:58.371Z</time></trkpt><trkpt lat="44.3115499" lon="8.0431382"><ele>607.6666666666666</ele><time>2026-04-26T10:12:59.358Z</time></trkpt><trkpt lat="44.3117204" lon="8.043134"><ele>615.0</ele><time>2026-04-26T10:13:00.356Z</time></trkpt><trkpt lat="44.3118868" lon="8.0432024"><ele>611.3333333333334</ele><time>2026-04-26T10:13:01.355Z</time></trkpt><trkpt lat="44.31206" lon="8.0433018"><ele>607.6666666666667</ele><time>2026-04-26T10:13:02.374Z</time></trkpt><trkpt lat="44.3122143" lon="8.0433594"><ele>604.0</ele><time>2026-04-26T10:13:03.36Z</time></trkpt><trkpt lat="44.3123879" lon="8.0433655"><ele>609.6666666666667</ele><time>2026-04-26T10:13:04.363Z</time></trkpt><trkpt lat="44.3125567" lon="8.043291"><ele>615.3333333333334</ele><time>2026-04-26T10:13:05.345Z</time></trkpt><trkpt lat="44.3127165" lon="8.0432048"><ele>621.0</ele><time>2026-04-26T10:13:06.359Z</time></trkpt><trkpt lat="44.3128473" lon="8.0431384"><ele>621.0</ele><time>2026-04-26T10:13:07.359Z</time></trkpt><trkpt lat="44.3129638" lon="8.0430729"><ele>621.0</ele><time>2026-04-26T10:13:08.359Z</time></trkpt><trkpt lat="44.3130407" lon="8.0429868"><ele>621.0</ele><time>2026-04-26T10:13:09.364Z</time></trkpt><trkpt lat="44.3130666" lon="8.0428657"><ele>621.0</ele><time>2026-04-26T10:13:10.374Z</time></trkpt><trkpt lat="44.3130514" lon="8.0427108"><ele>621.0</ele><time>2026-04-26T10:13:11.367Z</time></trkpt><trkpt lat="44.3129893" lon="8.0425425"><ele>623.0</ele><time>2026-04-26T10:13:12.371Z</time></trkpt><trkpt lat="44.3129067" lon="8.0423522"><ele>625.0</ele><time>2026-04-26T10:13:13.349Z</time></trkpt><trkpt lat="44.3128354" lon="8.0421229"><ele>627.0</ele><time>2026-04-26T10:13:14.364Z</time></trkpt><trkpt lat="44.3127807" lon="8.0418507"><ele>626.3333333333334</ele><time>2026-04-26T10:13:15.368Z</time></trkpt><trkpt lat="44.3127459" lon="8.0415821"><ele>625.6666666666667</ele><time>2026-04-26T10:13:16.377Z</time></trkpt><trkpt lat="44.3127069" lon="8.0413047"><ele>625.0</ele><time>2026-04-26T10:13:17.36Z</time></trkpt><trkpt lat="44.3126635" lon="8.0410237"><ele>621.6666666666667</ele><time>2026-04-26T10:13:18.355Z</time></trkpt><trkpt lat="44.3126239" lon="8.0407373"><ele>618.3333333333334</ele><time>2026-04-26T10:13:19.359Z</time></trkpt><trkpt lat="44.3125513" lon="8.040443"><ele>615.0</ele><time>2026-04-26T10:13:20.359Z</time></trkpt><trkpt lat="44.3124479" lon="8.0401648"><ele>611.3333333333334</ele><time>2026-04-26T10:13:21.357Z</time></trkpt><trkpt lat="44.3123251" lon="8.0399156"><ele>607.6666666666667</ele><time>2026-04-26T10:13:22.355Z</time></trkpt><trkpt lat="44.3122224" lon="8.0396769"><ele>604.0</ele><time>2026-04-26T10:13:23.371Z</time></trkpt><trkpt lat="44.3121338" lon="8.0394173"><ele>617.6666666666667</ele><time>2026-04-26T10:13:24.352Z</time></trkpt><trkpt lat="44.3121027" lon="8.0391536"><ele>631.3333333333334</ele><time>2026-04-26T10:13:25.365Z</time></trkpt><trkpt lat="44.3121098" lon="8.0388714"><ele>645.0</ele><time>2026-04-26T10:13:26.361Z</time></trkpt><trkpt lat="44.3121478" lon="8.0385954"><ele>647.0</ele><time>2026-04-26T10:13:27.368Z</time></trkpt><trkpt lat="44.312204" lon="8.0383174"><ele>649.0</ele><time>2026-04-26T10:13:28.36Z</time></trkpt><trkpt lat="44.3122411" lon="8.0380425"><ele>651.0</ele><time>2026-04-26T10:13:29.35Z</time></trkpt><trkpt lat="44.312254" lon="8.0378001"><ele>652.0</ele><time>2026-04-26T10:13:30.36Z</time></trkpt><trkpt lat="44.3122269" lon="8.0375514"><ele>653.0</ele><time>2026-04-26T10:13:31.35Z</time></trkpt><trkpt lat="44.3121864" lon="8.0373008"><ele>654.0</ele><time>2026-04-26T10:13:32.352Z</time></trkpt><trkpt lat="44.3121462" lon="8.0370279"><ele>654.6666666666666</ele><time>2026-04-26T10:13:33.357Z</time></trkpt><trkpt lat="44.3121133" lon="8.0367412"><ele>655.3333333333333</ele><time>2026-04-26T10:13:34.362Z</time></trkpt><trkpt lat="44.3121318" lon="8.0364756"><ele>656.0</ele><time>2026-04-26T10:13:35.353Z</time></trkpt><trkpt lat="44.3121905" lon="8.0362338"><ele>647.6666666666666</ele><time>2026-04-26T10:13:36.35Z</time></trkpt><trkpt lat="44.3122788" lon="8.0359981"><ele>639.3333333333334</ele><time>2026-04-26T10:13:37.344Z</time></trkpt><trkpt lat="44.3123573" lon="8.0357683"><ele>631.0</ele><time>2026-04-26T10:13:38.352Z</time></trkpt><trkpt lat="44.3124126" lon="8.0355205"><ele>631.0</ele><time>2026-04-26T10:13:39.351Z</time></trkpt><trkpt lat="44.3124547" lon="8.0352572"><ele>631.0</ele><time>2026-04-26T10:13:40.358Z</time></trkpt><trkpt lat="44.3124832" lon="8.034991"><ele>631.0</ele><time>2026-04-26T10:13:41.361Z</time></trkpt><trkpt lat="44.3125141" lon="8.0347107"><ele>633.6666666666667</ele><time>2026-04-26T10:13:42.355Z</time></trkpt><trkpt lat="44.3125535" lon="8.0344149"><ele>636.3333333333334</ele><time>2026-04-26T10:13:43.353Z</time></trkpt><trkpt lat="44.3126102" lon="8.0341088"><ele>639.0</ele><time>2026-04-26T10:13:44.358Z</time></trkpt><trkpt lat="44.3126769" lon="8.0338076"><ele>645.0</ele><time>2026-04-26T10:13:45.351Z</time></trkpt><trkpt lat="44.3127484" lon="8.0334973"><ele>651.0</ele><time>2026-04-26T10:13:46.355Z</time></trkpt><trkpt lat="44.3128153" lon="8.0331785"><ele>654.0</ele><time>2026-04-26T10:13:47.352Z</time></trkpt><trkpt lat="44.3128857" lon="8.0328699"><ele>657.0</ele><time>2026-04-26T10:13:48.356Z</time></trkpt><trkpt lat="44.3129546" lon="8.0325921"><ele>660.0</ele><time>2026-04-26T10:13:49.361Z</time></trkpt><trkpt lat="44.3130193" lon="8.0323275"><ele>661.6666666666666</ele><time>2026-04-26T10:13:50.363Z</time></trkpt><trkpt lat="44.3130652" lon="8.0320794"><ele>663.3333333333333</ele><time>2026-04-26T10:13:51.364Z</time></trkpt><trkpt lat="44.3130874" lon="8.031841"><ele>665.0</ele><time>2026-04-26T10:13:52.359Z</time></trkpt><trkpt lat="44.31308" lon="8.0315966"><ele>662.6666666666666</ele><time>2026-04-26T10:13:53.358Z</time></trkpt><trkpt lat="44.3130417" lon="8.0313416"><ele>660.3333333333334</ele><time>2026-04-26T10:13:54.392Z</time></trkpt><trkpt lat="44.3129754" lon="8.0311038"><ele>658.0</ele><time>2026-04-26T10:13:55.355Z</time></trkpt><trkpt lat="44.3129199" lon="8.0308955"><ele>659.5</ele><time>2026-04-26T10:13:56.362Z</time></trkpt><trkpt lat="44.312886" lon="8.0307336"><ele>661.0</ele><time>2026-04-26T10:13:57.359Z</time></trkpt><trkpt lat="44.3128812" lon="8.0305814"><ele>662.5</ele><time>2026-04-26T10:13:58.353Z</time></trkpt><trkpt lat="44.3129668" lon="8.030479"><ele>664.0</ele><time>2026-04-26T10:13:59.355Z</time></trkpt><trkpt lat="44.3131069" lon="8.0304464"><ele>664.0</ele><time>2026-04-26T10:14:00.346Z</time></trkpt><trkpt lat="44.3132598" lon="8.0304568"><ele>664.0</ele><time>2026-04-26T10:14:01.343Z</time></trkpt><trkpt lat="44.3134002" lon="8.0305019"><ele>664.0</ele><time>2026-04-26T10:14:02.353Z</time></trkpt><trkpt lat="44.3135635" lon="8.0305493"><ele>664.0</ele><time>2026-04-26T10:14:03.357Z</time></trkpt><trkpt lat="44.3137163" lon="8.0305547"><ele>664.0</ele><time>2026-04-26T10:14:04.368Z</time></trkpt><trkpt lat="44.3138572" lon="8.0305083"><ele>664.0</ele><time>2026-04-26T10:14:05.365Z</time></trkpt><trkpt lat="44.313994" lon="8.0304352"><ele>664.0</ele><time>2026-04-26T10:14:06.355Z</time></trkpt><trkpt lat="44.3140989" lon="8.0303067"><ele>662.3333333333334</ele><time>2026-04-26T10:14:07.365Z</time></trkpt><trkpt lat="44.3141652" lon="8.0301543"><ele>660.6666666666666</ele><time>2026-04-26T10:14:08.36Z</time></trkpt><trkpt lat="44.3142089" lon="8.0299473"><ele>659.0</ele><time>2026-04-26T10:14:09.357Z</time></trkpt><trkpt lat="44.3141805" lon="8.0296835"><ele>659.0</ele><time>2026-04-26T10:14:10.349Z</time></trkpt><trkpt lat="44.3141525" lon="8.029387"><ele>659.0</ele><time>2026-04-26T10:14:11.358Z</time></trkpt><trkpt lat="44.3141492" lon="8.0290803"><ele>659.0</ele><time>2026-04-26T10:14:12.353Z</time></trkpt><trkpt lat="44.3141317" lon="8.0287477"><ele>660.0</ele><time>2026-04-26T10:14:13.352Z</time></trkpt><trkpt lat="44.314114" lon="8.0284046"><ele>661.0</ele><time>2026-04-26T10:14:14.355Z</time></trkpt><trkpt lat="44.3141027" lon="8.0280565"><ele>665.0</ele><time>2026-04-26T10:14:15.354Z</time></trkpt><trkpt lat="44.3140975" lon="8.0276974"><ele>669.0</ele><time>2026-04-26T10:14:16.349Z</time></trkpt><trkpt lat="44.3140956" lon="8.0273226"><ele>672.0</ele><time>2026-04-26T10:14:17.361Z</time></trkpt><trkpt lat="44.3140898" lon="8.026967"><ele>675.0</ele><time>2026-04-26T10:14:18.359Z</time></trkpt><trkpt lat="44.3140805" lon="8.0266178"><ele>677.0</ele><time>2026-04-26T10:14:19.358Z</time></trkpt><trkpt lat="44.3140742" lon="8.0262894"><ele>679.0</ele><time>2026-04-26T10:14:20.359Z</time></trkpt><trkpt lat="44.3140662" lon="8.0259802"><ele>680.6666666666667</ele><time>2026-04-26T10:14:21.353Z</time></trkpt><trkpt lat="44.314064" lon="8.0256896"><ele>682.3333333333334</ele><time>2026-04-26T10:14:22.357Z</time></trkpt><trkpt lat="44.3140787" lon="8.0253921"><ele>684.0</ele><time>2026-04-26T10:14:23.36Z</time></trkpt><trkpt lat="44.3141127" lon="8.0250886"><ele>688.0</ele><time>2026-04-26T10:14:24.354Z</time></trkpt><trkpt lat="44.3141673" lon="8.0247835"><ele>692.0</ele><time>2026-04-26T10:14:25.356Z</time></trkpt><trkpt lat="44.3142229" lon="8.024493"><ele>696.0</ele><time>2026-04-26T10:14:26.354Z</time></trkpt><trkpt lat="44.3142781" lon="8.0242487"><ele>697.0</ele><time>2026-04-26T10:14:27.355Z</time></trkpt><trkpt lat="44.3143157" lon="8.0240645"><ele>698.0</ele><time>2026-04-26T10:14:28.345Z</time></trkpt><trkpt lat="44.3143559" lon="8.0239121"><ele>699.0</ele><time>2026-04-26T10:14:29.355Z</time></trkpt><trkpt lat="44.3144119" lon="8.0237916"><ele>700.0</ele><time>2026-04-26T10:14:30.363Z</time></trkpt><trkpt lat="44.3145032" lon="8.0237453"><ele>700.0</ele><time>2026-04-26T10:14:31.344Z</time></trkpt><trkpt lat="44.3146084" lon="8.0237779"><ele>700.0</ele><time>2026-04-26T10:14:32.353Z</time></trkpt><trkpt lat="44.3146707" lon="8.0239123"><ele>700.0</ele><time>2026-04-26T10:14:33.345Z</time></trkpt><trkpt lat="44.3147089" lon="8.0240772"><ele>700.0</ele><time>2026-04-26T10:14:34.345Z</time></trkpt><trkpt lat="44.314709" lon="8.0242831"><ele>698.6666666666667</ele><time>2026-04-26T10:14:35.358Z</time></trkpt><trkpt lat="44.3147258" lon="8.0245062"><ele>697.3333333333334</ele><time>2026-04-26T10:14:36.343Z</time></trkpt><trkpt lat="44.3147383" lon="8.0247546"><ele>696.0</ele><time>2026-04-26T10:14:37.351Z</time></trkpt><trkpt lat="44.3147609" lon="8.0249825"><ele>694.3333333333334</ele><time>2026-04-26T10:14:38.356Z</time></trkpt><trkpt lat="44.314834" lon="8.0252011"><ele>692.6666666666667</ele><time>2026-04-26T10:14:39.36Z</time></trkpt><trkpt lat="44.3149356" lon="8.0254154"><ele>691.0</ele><time>2026-04-26T10:14:40.352Z</time></trkpt><trkpt lat="44.3150353" lon="8.0256404"><ele>688.6666666666667</ele><time>2026-04-26T10:14:41.345Z</time></trkpt><trkpt lat="44.3151477" lon="8.0258535"><ele>686.3333333333334</ele><time>2026-04-26T10:14:42.349Z</time></trkpt><trkpt lat="44.3152716" lon="8.0260605"><ele>684.0</ele><time>2026-04-26T10:14:43.356Z</time></trkpt><trkpt lat="44.3154085" lon="8.0262517"><ele>684.0</ele><time>2026-04-26T10:14:44.357Z</time></trkpt><trkpt lat="44.3155407" lon="8.026435"><ele>684.0</ele><time>2026-04-26T10:14:45.357Z</time></trkpt><trkpt lat="44.3156534" lon="8.0266205"><ele>684.0</ele><time>2026-04-26T10:14:46.351Z</time></trkpt><trkpt lat="44.3157208" lon="8.0268289"><ele>689.0</ele><time>2026-04-26T10:14:47.356Z</time></trkpt><trkpt lat="44.3157509" lon="8.0270298"><ele>694.0</ele><time>2026-04-26T10:14:48.352Z</time></trkpt><trkpt lat="44.3157598" lon="8.0272167"><ele>699.0</ele><time>2026-04-26T10:14:49.344Z</time></trkpt><trkpt lat="44.3157754" lon="8.0273802"><ele>704.0</ele><time>2026-04-26T10:14:50.351Z</time></trkpt><trkpt lat="44.3158148" lon="8.0274658"><ele>704.0</ele><time>2026-04-26T10:14:51.354Z</time></trkpt><trkpt lat="44.315886" lon="8.0274125"><ele>704.0</ele><time>2026-04-26T10:14:52.365Z</time></trkpt><trkpt lat="44.3159504" lon="8.0273221"><ele>704.0</ele><time>2026-04-26T10:14:53.359Z</time></trkpt><trkpt lat="44.3159777" lon="8.027208"><ele>704.0</ele><time>2026-04-26T10:14:54.348Z</time></trkpt><trkpt lat="44.3159791" lon="8.0270348"><ele>704.0</ele><time>2026-04-26T10:14:55.356Z</time></trkpt><trkpt lat="44.3159772" lon="8.0268285"><ele>707.6666666666666</ele><time>2026-04-26T10:14:56.353Z</time></trkpt><trkpt lat="44.3159724" lon="8.0266037"><ele>711.3333333333334</ele><time>2026-04-26T10:14:57.363Z</time></trkpt><trkpt lat="44.3159676" lon="8.0263657"><ele>715.0</ele><time>2026-04-26T10:14:58.359Z</time></trkpt><trkpt lat="44.3159572" lon="8.0261158"><ele>715.0</ele><time>2026-04-26T10:14:59.357Z</time></trkpt><trkpt lat="44.315938" lon="8.0258503"><ele>715.0</ele><time>2026-04-26T10:15:00.357Z</time></trkpt><trkpt lat="44.3159191" lon="8.0255823"><ele>715.0</ele><time>2026-04-26T10:15:01.361Z</time></trkpt><trkpt lat="44.3158974" lon="8.0252999"><ele>715.6666666666667</ele><time>2026-04-26T10:15:02.345Z</time></trkpt><trkpt lat="44.3158678" lon="8.0250181"><ele>716.3333333333334</ele><time>2026-04-26T10:15:03.358Z</time></trkpt><trkpt lat="44.315847" lon="8.0247756"><ele>717.0</ele><time>2026-04-26T10:15:04.37Z</time></trkpt><trkpt lat="44.3158405" lon="8.0245538"><ele>717.0</ele><time>2026-04-26T10:15:05.36Z</time></trkpt><trkpt lat="44.3158639" lon="8.0243425"><ele>717.0</ele><time>2026-04-26T10:15:06.358Z</time></trkpt><trkpt lat="44.3159156" lon="8.0241324"><ele>717.0</ele><time>2026-04-26T10:15:07.344Z</time></trkpt><trkpt lat="44.3160392" lon="8.0239643"><ele>715.6666666666666</ele><time>2026-04-26T10:15:08.347Z</time></trkpt><trkpt lat="44.3161579" lon="8.0238102"><ele>714.3333333333333</ele><time>2026-04-26T10:15:09.357Z</time></trkpt><trkpt lat="44.3162815" lon="8.0236442"><ele>713.0</ele><time>2026-04-26T10:15:10.361Z</time></trkpt><trkpt lat="44.3164173" lon="8.0234677"><ele>718.6666666666666</ele><time>2026-04-26T10:15:11.351Z</time></trkpt><trkpt lat="44.3165581" lon="8.0233007"><ele>724.3333333333334</ele><time>2026-04-26T10:15:12.361Z</time></trkpt><trkpt lat="44.3167131" lon="8.0231607"><ele>730.0</ele><time>2026-04-26T10:15:13.345Z</time></trkpt><trkpt lat="44.3168849" lon="8.0230395"><ele>730.0</ele><time>2026-04-26T10:15:14.35Z</time></trkpt><trkpt lat="44.3170709" lon="8.0229242"><ele>730.0</ele><time>2026-04-26T10:15:15.362Z</time></trkpt><trkpt lat="44.3172373" lon="8.0227956"><ele>730.0</ele><time>2026-04-26T10:15:16.346Z</time></trkpt><trkpt lat="44.3173907" lon="8.0226727"><ele>734.75</ele><time>2026-04-26T10:15:17.36Z</time></trkpt><trkpt lat="44.3175106" lon="8.0225595"><ele>739.5</ele><time>2026-04-26T10:15:18.35Z</time></trkpt><trkpt lat="44.3176081" lon="8.0224655"><ele>744.25</ele><time>2026-04-26T10:15:19.349Z</time></trkpt><trkpt lat="44.3176851" lon="8.0224127"><ele>749.0</ele><time>2026-04-26T10:15:20.349Z</time></trkpt><trkpt lat="44.3177523" lon="8.0225342"><ele>749.0</ele><time>2026-04-26T10:15:22.347Z</time></trkpt><trkpt lat="44.3177154" lon="8.0226483"><ele>749.0</ele><time>2026-04-26T10:15:23.358Z</time></trkpt><trkpt lat="44.3176163" lon="8.0227561"><ele>749.0</ele><time>2026-04-26T10:15:24.361Z</time></trkpt><trkpt lat="44.3175058" lon="8.0228722"><ele>749.0</ele><time>2026-04-26T10:15:25.372Z</time></trkpt><trkpt lat="44.3173862" lon="8.0230037"><ele>749.0</ele><time>2026-04-26T10:15:26.36Z</time></trkpt><trkpt lat="44.3172555" lon="8.0231678"><ele>749.0</ele><time>2026-04-26T10:15:27.355Z</time></trkpt><trkpt lat="44.3171287" lon="8.0233325"><ele>749.0</ele><time>2026-04-26T10:15:28.353Z</time></trkpt><trkpt lat="44.3170016" lon="8.0234927"><ele>745.3333333333333</ele><time>2026-04-26T10:15:29.353Z</time></trkpt><trkpt lat="44.3168863" lon="8.023664"><ele>741.6666666666666</ele><time>2026-04-26T10:15:30.355Z</time></trkpt><trkpt lat="44.3168079" lon="8.0238785"><ele>738.0</ele><time>2026-04-26T10:15:31.362Z</time></trkpt><trkpt lat="44.316761" lon="8.0241173"><ele>742.3333333333334</ele><time>2026-04-26T10:15:32.35Z</time></trkpt><trkpt lat="44.3167343" lon="8.0243656"><ele>746.6666666666667</ele><time>2026-04-26T10:15:33.348Z</time></trkpt><trkpt lat="44.3167082" lon="8.0246096"><ele>751.0</ele><time>2026-04-26T10:15:34.359Z</time></trkpt><trkpt lat="44.3167028" lon="8.0248473"><ele>752.3333333333334</ele><time>2026-04-26T10:15:35.36Z</time></trkpt><trkpt lat="44.3167477" lon="8.0250911"><ele>753.6666666666666</ele><time>2026-04-26T10:15:36.365Z</time></trkpt><trkpt lat="44.3168243" lon="8.0253382"><ele>755.0</ele><time>2026-04-26T10:15:37.355Z</time></trkpt><trkpt lat="44.3168918" lon="8.0255984"><ele>753.6666666666666</ele><time>2026-04-26T10:15:38.356Z</time></trkpt><trkpt lat="44.3169408" lon="8.0258528"><ele>752.3333333333334</ele><time>2026-04-26T10:15:39.355Z</time></trkpt><trkpt lat="44.316968" lon="8.0260814"><ele>751.0</ele><time>2026-04-26T10:15:40.358Z</time></trkpt><trkpt lat="44.316998" lon="8.0262549"><ele>751.0</ele><time>2026-04-26T10:15:41.362Z</time></trkpt><trkpt lat="44.3170461" lon="8.0263852"><ele>751.0</ele><time>2026-04-26T10:15:42.369Z</time></trkpt><trkpt lat="44.3171217" lon="8.0264301"><ele>751.0</ele><time>2026-04-26T10:15:43.356Z</time></trkpt><trkpt lat="44.3171951" lon="8.0264363"><ele>751.0</ele><time>2026-04-26T10:15:44.357Z</time></trkpt><trkpt lat="44.3172434" lon="8.0263593"><ele>751.0</ele><time>2026-04-26T10:15:45.354Z</time></trkpt><trkpt lat="44.3172393" lon="8.0262196"><ele>751.0</ele><time>2026-04-26T10:15:46.352Z</time></trkpt><trkpt lat="44.3172063" lon="8.0260537"><ele>751.0</ele><time>2026-04-26T10:15:47.347Z</time></trkpt><trkpt lat="44.3171742" lon="8.0258492"><ele>751.0</ele><time>2026-04-26T10:15:48.361Z</time></trkpt><trkpt lat="44.3171489" lon="8.0256187"><ele>751.0</ele><time>2026-04-26T10:15:49.36Z</time></trkpt><trkpt lat="44.3171622" lon="8.0253733"><ele>752.3333333333334</ele><time>2026-04-26T10:15:50.353Z</time></trkpt><trkpt lat="44.317199" lon="8.0251031"><ele>753.6666666666666</ele><time>2026-04-26T10:15:51.355Z</time></trkpt><trkpt lat="44.3172631" lon="8.0248499"><ele>755.0</ele><time>2026-04-26T10:15:52.352Z</time></trkpt><trkpt lat="44.3173524" lon="8.024606"><ele>758.6666666666666</ele><time>2026-04-26T10:15:53.357Z</time></trkpt><trkpt lat="44.3174643" lon="8.024382"><ele>762.3333333333334</ele><time>2026-04-26T10:15:54.364Z</time></trkpt><trkpt lat="44.3175822" lon="8.0241811"><ele>766.0</ele><time>2026-04-26T10:15:55.367Z</time></trkpt><trkpt lat="44.3177213" lon="8.0240084"><ele>766.0</ele><time>2026-04-26T10:15:56.363Z</time></trkpt><trkpt lat="44.3178839" lon="8.0238809"><ele>766.0</ele><time>2026-04-26T10:15:57.359Z</time></trkpt><trkpt lat="44.3180624" lon="8.0237683"><ele>766.0</ele><time>2026-04-26T10:15:58.355Z</time></trkpt><trkpt lat="44.3182525" lon="8.0236486"><ele>768.6666666666667</ele><time>2026-04-26T10:15:59.371Z</time></trkpt><trkpt lat="44.3184467" lon="8.0235126"><ele>771.3333333333334</ele><time>2026-04-26T10:16:00.366Z</time></trkpt><trkpt lat="44.3186215" lon="8.0233685"><ele>774.0</ele><time>2026-04-26T10:16:01.353Z</time></trkpt><trkpt lat="44.3187972" lon="8.0232327"><ele>783.3333333333333</ele><time>2026-04-26T10:16:02.353Z</time></trkpt><trkpt lat="44.3189584" lon="8.0231021"><ele>792.6666666666666</ele><time>2026-04-26T10:16:03.356Z</time></trkpt><trkpt lat="44.319101" lon="8.0229784"><ele>802.0</ele><time>2026-04-26T10:16:04.357Z</time></trkpt><trkpt lat="44.3192213" lon="8.0228634"><ele>802.0</ele><time>2026-04-26T10:16:05.359Z</time></trkpt><trkpt lat="44.3193105" lon="8.0227473"><ele>802.0</ele><time>2026-04-26T10:16:06.362Z</time></trkpt><trkpt lat="44.319367" lon="8.02259"><ele>802.0</ele><time>2026-04-26T10:16:07.352Z</time></trkpt><trkpt lat="44.3193696" lon="8.0223917"><ele>802.0</ele><time>2026-04-26T10:16:08.365Z</time></trkpt><trkpt lat="44.3193686" lon="8.022164"><ele>802.0</ele><time>2026-04-26T10:16:09.351Z</time></trkpt><trkpt lat="44.3193667" lon="8.0219397"><ele>802.0</ele><time>2026-04-26T10:16:10.357Z</time></trkpt><trkpt lat="44.3193766" lon="8.0217013"><ele>802.0</ele><time>2026-04-26T10:16:11.356Z</time></trkpt><trkpt lat="44.3193787" lon="8.0214376"><ele>802.3333333333333</ele><time>2026-04-26T10:16:12.356Z</time></trkpt><trkpt lat="44.3193788" lon="8.0211575"><ele>802.6666666666667</ele><time>2026-04-26T10:16:13.356Z</time></trkpt><trkpt lat="44.3193775" lon="8.0208765"><ele>803.0</ele><time>2026-04-26T10:16:14.366Z</time></trkpt><trkpt lat="44.3193749" lon="8.0205965"><ele>804.6666666666667</ele><time>2026-04-26T10:16:15.36Z</time></trkpt><trkpt lat="44.3193783" lon="8.0203183"><ele>806.3333333333333</ele><time>2026-04-26T10:16:16.359Z</time></trkpt><trkpt lat="44.3193971" lon="8.0200597"><ele>808.0</ele><time>2026-04-26T10:16:17.363Z</time></trkpt><trkpt lat="44.3194242" lon="8.0198315"><ele>809.6666666666666</ele><time>2026-04-26T10:16:18.361Z</time></trkpt><trkpt lat="44.3194314" lon="8.0196089"><ele>811.3333333333333</ele><time>2026-04-26T10:16:19.357Z</time></trkpt><trkpt lat="44.3194095" lon="8.0193721"><ele>813.0</ele><time>2026-04-26T10:16:20.365Z</time></trkpt><trkpt lat="44.3193568" lon="8.0191376"><ele>815.0</ele><time>2026-04-26T10:16:21.378Z</time></trkpt><trkpt lat="44.3192927" lon="8.0189047"><ele>817.0</ele><time>2026-04-26T10:16:22.36Z</time></trkpt><trkpt lat="44.3192277" lon="8.0186672"><ele>819.0</ele><time>2026-04-26T10:16:23.36Z</time></trkpt><trkpt lat="44.3191613" lon="8.0184302"><ele>821.3333333333333</ele><time>2026-04-26T10:16:24.361Z</time></trkpt><trkpt lat="44.3191051" lon="8.0181787"><ele>823.6666666666666</ele><time>2026-04-26T10:16:25.361Z</time></trkpt><trkpt lat="44.319059" lon="8.0179313"><ele>826.0</ele><time>2026-04-26T10:16:26.374Z</time></trkpt><trkpt lat="44.3190488" lon="8.0176825"><ele>827.3333333333333</ele><time>2026-04-26T10:16:27.362Z</time></trkpt><trkpt lat="44.3190575" lon="8.0174365"><ele>828.6666666666667</ele><time>2026-04-26T10:16:28.366Z</time></trkpt><trkpt lat="44.3190941" lon="8.0172057"><ele>830.0</ele><time>2026-04-26T10:16:29.362Z</time></trkpt><trkpt lat="44.3191649" lon="8.0169746"><ele>830.0</ele><time>2026-04-26T10:16:30.368Z</time></trkpt><trkpt lat="44.3192572" lon="8.0167485"><ele>830.0</ele><time>2026-04-26T10:16:31.373Z</time></trkpt><trkpt lat="44.3193612" lon="8.0165317"><ele>830.0</ele><time>2026-04-26T10:16:32.359Z</time></trkpt><trkpt lat="44.3194491" lon="8.0163128"><ele>831.0</ele><time>2026-04-26T10:16:33.367Z</time></trkpt><trkpt lat="44.3195409" lon="8.0161216"><ele>832.0</ele><time>2026-04-26T10:16:34.357Z</time></trkpt><trkpt lat="44.3196438" lon="8.0159721"><ele>833.0</ele><time>2026-04-26T10:16:35.371Z</time></trkpt><trkpt lat="44.3197613" lon="8.0159037"><ele>834.0</ele><time>2026-04-26T10:16:36.369Z</time></trkpt><trkpt lat="44.3198788" lon="8.0159176"><ele>834.0</ele><time>2026-04-26T10:16:37.356Z</time></trkpt><trkpt lat="44.3200052" lon="8.0159677"><ele>834.0</ele><time>2026-04-26T10:16:38.367Z</time></trkpt><trkpt lat="44.3201383" lon="8.0160715"><ele>834.0</ele><time>2026-04-26T10:16:39.36Z</time></trkpt><trkpt lat="44.3202766" lon="8.0161354"><ele>834.0</ele><time>2026-04-26T10:16:40.357Z</time></trkpt><trkpt lat="44.3204268" lon="8.0161378"><ele>835.8000000000001</ele><time>2026-04-26T10:16:41.368Z</time></trkpt><trkpt lat="44.3205725" lon="8.0160825"><ele>837.6</ele><time>2026-04-26T10:16:42.357Z</time></trkpt><trkpt lat="44.3206832" lon="8.0160057"><ele>839.4</ele><time>2026-04-26T10:16:43.359Z</time></trkpt><trkpt lat="44.3207458" lon="8.0159129"><ele>841.2</ele><time>2026-04-26T10:16:44.351Z</time></trkpt><trkpt lat="44.320747" lon="8.0158077"><ele>843.0</ele><time>2026-04-26T10:16:45.361Z</time></trkpt><trkpt lat="44.3206733" lon="8.0156754"><ele>842.75</ele><time>2026-04-26T10:16:46.363Z</time></trkpt><trkpt lat="44.3205866" lon="8.0155314"><ele>842.5</ele><time>2026-04-26T10:16:47.355Z</time></trkpt><trkpt lat="44.3204989" lon="8.0153617"><ele>842.25</ele><time>2026-04-26T10:16:48.36Z</time></trkpt><trkpt lat="44.3204026" lon="8.0151744"><ele>842.0</ele><time>2026-04-26T10:16:49.357Z</time></trkpt><trkpt lat="44.3203195" lon="8.0149895"><ele>844.25</ele><time>2026-04-26T10:16:50.359Z</time></trkpt><trkpt lat="44.3203059" lon="8.0148077"><ele>846.5</ele><time>2026-04-26T10:16:51.355Z</time></trkpt><trkpt lat="44.3203217" lon="8.0146048"><ele>848.75</ele><time>2026-04-26T10:16:52.349Z</time></trkpt><trkpt lat="44.320336" lon="8.0143841"><ele>851.0</ele><time>2026-04-26T10:16:53.366Z</time></trkpt><trkpt lat="44.3203366" lon="8.0141678"><ele>852.75</ele><time>2026-04-26T10:16:54.375Z</time></trkpt><trkpt lat="44.3203234" lon="8.0139422"><ele>854.5</ele><time>2026-04-26T10:16:55.358Z</time></trkpt><trkpt lat="44.3203121" lon="8.0137346"><ele>856.25</ele><time>2026-04-26T10:16:56.363Z</time></trkpt><trkpt lat="44.3202995" lon="8.0135632"><ele>858.0</ele><time>2026-04-26T10:16:57.357Z</time></trkpt><trkpt lat="44.3202702" lon="8.0133983"><ele>858.0</ele><time>2026-04-26T10:16:58.371Z</time></trkpt><trkpt lat="44.3202001" lon="8.0132337"><ele>858.0</ele><time>2026-04-26T10:16:59.355Z</time></trkpt><trkpt lat="44.3201116" lon="8.0130552"><ele>858.0</ele><time>2026-04-26T10:17:00.365Z</time></trkpt><trkpt lat="44.3200204" lon="8.0128709"><ele>858.0</ele><time>2026-04-26T10:17:01.366Z</time></trkpt><trkpt lat="44.3199489" lon="8.0126596"><ele>858.0</ele><time>2026-04-26T10:17:02.375Z</time></trkpt><trkpt lat="44.3198977" lon="8.0124384"><ele>858.0</ele><time>2026-04-26T10:17:03.356Z</time></trkpt><trkpt lat="44.3198485" lon="8.0122178"><ele>858.0</ele><time>2026-04-26T10:17:04.358Z</time></trkpt><trkpt lat="44.3197967" lon="8.0119872"><ele>858.0</ele><time>2026-04-26T10:17:05.368Z</time></trkpt><trkpt lat="44.3197338" lon="8.0117683"><ele>858.0</ele><time>2026-04-26T10:17:06.366Z</time></trkpt><trkpt lat="44.3196686" lon="8.011555"><ele>861.6666666666667</ele><time>2026-04-26T10:17:07.361Z</time></trkpt><trkpt lat="44.319611" lon="8.0113464"><ele>865.3333333333334</ele><time>2026-04-26T10:17:08.359Z</time></trkpt><trkpt lat="44.3195747" lon="8.0111342"><ele>869.0</ele><time>2026-04-26T10:17:09.358Z</time></trkpt><trkpt lat="44.3195554" lon="8.0109131"><ele>867.6666666666667</ele><time>2026-04-26T10:17:10.367Z</time></trkpt><trkpt lat="44.3195336" lon="8.0106845"><ele>866.3333333333333</ele><time>2026-04-26T10:17:11.35Z</time></trkpt><trkpt lat="44.3195058" lon="8.0104456"><ele>865.0</ele><time>2026-04-26T10:17:12.37Z</time></trkpt><trkpt lat="44.3194826" lon="8.0102219"><ele>866.0</ele><time>2026-04-26T10:17:13.358Z</time></trkpt><trkpt lat="44.319468" lon="8.0099888"><ele>867.0</ele><time>2026-04-26T10:17:14.367Z</time></trkpt><trkpt lat="44.3194647" lon="8.0097601"><ele>868.0</ele><time>2026-04-26T10:17:15.362Z</time></trkpt><trkpt lat="44.3194868" lon="8.0095432"><ele>868.0</ele><time>2026-04-26T10:17:16.367Z</time></trkpt><trkpt lat="44.3195333" lon="8.0093372"><ele>868.0</ele><time>2026-04-26T10:17:17.361Z</time></trkpt><trkpt lat="44.3196207" lon="8.0091635"><ele>868.0</ele><time>2026-04-26T10:17:18.362Z</time></trkpt><trkpt lat="44.3197242" lon="8.0090024"><ele>865.3333333333333</ele><time>2026-04-26T10:17:19.353Z</time></trkpt><trkpt lat="44.3198315" lon="8.0088394"><ele>862.6666666666667</ele><time>2026-04-26T10:17:20.365Z</time></trkpt><trkpt lat="44.3199466" lon="8.0086798"><ele>860.0</ele><time>2026-04-26T10:17:21.36Z</time></trkpt><trkpt lat="44.3200535" lon="8.0085102"><ele>860.0</ele><time>2026-04-26T10:17:22.368Z</time></trkpt><trkpt lat="44.320164" lon="8.0083599"><ele>860.0</ele><time>2026-04-26T10:17:23.371Z</time></trkpt><trkpt lat="44.320277" lon="8.0081986"><ele>860.0</ele><time>2026-04-26T10:17:24.366Z</time></trkpt><trkpt lat="44.3203644" lon="8.0080657"><ele>860.0</ele><time>2026-04-26T10:17:25.374Z</time></trkpt><trkpt lat="44.3204252" lon="8.0079749"><ele>860.4285714285714</ele><time>2026-04-26T10:17:26.364Z</time></trkpt><trkpt lat="44.320474" lon="8.0079182"><ele>860.8571428571429</ele><time>2026-04-26T10:17:27.369Z</time></trkpt><trkpt lat="44.3205338" lon="8.0078564"><ele>861.2857142857143</ele><time>2026-04-26T10:17:31.367Z</time></trkpt><trkpt lat="44.3205993" lon="8.0078499"><ele>861.7142857142858</ele><time>2026-04-26T10:18:44.359Z</time></trkpt><trkpt lat="44.3206447" lon="8.0079131"><ele>862.1428571428571</ele><time>2026-04-26T10:18:53.359Z</time></trkpt><trkpt lat="44.3206988" lon="8.007961"><ele>862.5714285714287</ele><time>2026-04-26T10:19:58.351Z</time></trkpt><trkpt lat="44.3206287" lon="8.0079887"><ele>863.0</ele><time>2026-04-26T10:21:15.352Z</time></trkpt><trkpt lat="44.3205721" lon="8.007932"><ele>861.4285714285714</ele><time>2026-04-26T10:22:08.354Z</time></trkpt><trkpt lat="44.3206098" lon="8.0078542"><ele>859.8571428571429</ele><time>2026-04-26T10:22:44.359Z</time></trkpt><trkpt lat="44.3206734" lon="8.0078736"><ele>858.2857142857142</ele><time>2026-04-26T10:22:54.255Z</time></trkpt><trkpt lat="44.3206483" lon="8.0079726"><ele>856.7142857142858</ele><time>2026-04-26T10:23:50.356Z</time></trkpt><trkpt lat="44.3206953" lon="8.0078925"><ele>855.1428571428571</ele><time>2026-04-26T10:26:20.361Z</time></trkpt><trkpt lat="44.3206751" lon="8.0078039"><ele>853.5714285714286</ele><time>2026-04-26T10:26:28.37Z</time></trkpt><trkpt lat="44.3206726" lon="8.007892"><ele>852.0</ele><time>2026-04-26T10:26:37.359Z</time></trkpt><trkpt lat="44.320658" lon="8.0077949"><ele>852.0</ele><time>2026-04-26T10:28:18.363Z</time></trkpt></trkseg><trkseg><trkpt lat="44.3874639" lon="8.0357405"><ele>380.6666666666667</ele><time>2026-04-26T10:54:49.354Z</time></trkpt><trkpt lat="44.3873919" lon="8.0358907"><ele>380.3333333333333</ele><time>2026-04-26T10:54:51.349Z</time></trkpt><trkpt lat="44.3873632" lon="8.0359798"><ele>380.0</ele><time>2026-04-26T10:54:52.384Z</time></trkpt><trkpt lat="44.3873602" lon="8.0360845"><ele>379.66666666666663</ele><time>2026-04-26T10:54:53.391Z</time></trkpt><trkpt lat="44.3873828" lon="8.0361893"><ele>379.3333333333333</ele><time>2026-04-26T10:54:54.359Z</time></trkpt><trkpt lat="44.3874126" lon="8.036273"><ele>379.0</ele><time>2026-04-26T10:54:55.353Z</time></trkpt><trkpt lat="44.3874686" lon="8.0363633"><ele>379.0</ele><time>2026-04-26T10:54:56.361Z</time></trkpt><trkpt lat="44.3875332" lon="8.0364556"><ele>379.0</ele><time>2026-04-26T10:54:57.355Z</time></trkpt><trkpt lat="44.3875954" lon="8.0365693"><ele>379.0</ele><time>2026-04-26T10:54:58.348Z</time></trkpt><trkpt lat="44.3876749" lon="8.0366619"><ele>379.0</ele><time>2026-04-26T10:54:59.354Z</time></trkpt><trkpt lat="44.387741" lon="8.0367454"><ele>379.0</ele><time>2026-04-26T10:55:00.356Z</time></trkpt><trkpt lat="44.3877906" lon="8.0368226"><ele>379.3333333333333</ele><time>2026-04-26T10:55:01.346Z</time></trkpt><trkpt lat="44.3878286" lon="8.0369008"><ele>379.66666666666663</ele><time>2026-04-26T10:55:02.34Z</time></trkpt><trkpt lat="44.387848" lon="8.0369944"><ele>380.0</ele><time>2026-04-26T10:55:03.352Z</time></trkpt><trkpt lat="44.3878448" lon="8.0371102"><ele>380.3333333333333</ele><time>2026-04-26T10:55:04.356Z</time></trkpt><trkpt lat="44.3878297" lon="8.0372157"><ele>380.6666666666667</ele><time>2026-04-26T10:55:05.354Z</time></trkpt><trkpt lat="44.3877914" lon="8.0373073"><ele>381.0</ele><time>2026-04-26T10:55:06.347Z</time></trkpt><trkpt lat="44.3877236" lon="8.0373996"><ele>381.0</ele><time>2026-04-26T10:55:07.354Z</time></trkpt><trkpt lat="44.387634" lon="8.0374703"><ele>381.0</ele><time>2026-04-26T10:55:08.354Z</time></trkpt><trkpt lat="44.3875285" lon="8.0374875"><ele>381.0</ele><time>2026-04-26T10:55:09.355Z</time></trkpt><trkpt lat="44.3874139" lon="8.0374239"><ele>381.0</ele><time>2026-04-26T10:55:10.349Z</time></trkpt><trkpt lat="44.3873057" lon="8.0373191"><ele>381.0</ele><time>2026-04-26T10:55:11.36Z</time></trkpt><trkpt lat="44.3872021" lon="8.037221"><ele>381.0</ele><time>2026-04-26T10:55:12.35Z</time></trkpt><trkpt lat="44.3871005" lon="8.0371425"><ele>381.0</ele><time>2026-04-26T10:55:13.356Z</time></trkpt><trkpt lat="44.3870229" lon="8.0371501"><ele>381.0</ele><time>2026-04-26T10:55:14.36Z</time></trkpt><trkpt lat="44.3869733" lon="8.0372157"><ele>381.0</ele><time>2026-04-26T10:55:15.353Z</time></trkpt><trkpt lat="44.3869774" lon="8.0373082"><ele>380.5</ele><time>2026-04-26T10:55:16.356Z</time></trkpt><trkpt lat="44.3870014" lon="8.0374469"><ele>380.0</ele><time>2026-04-26T10:55:17.351Z</time></trkpt><trkpt lat="44.3870391" lon="8.0375921"><ele>379.5</ele><time>2026-04-26T10:55:18.357Z</time></trkpt><trkpt lat="44.3870834" lon="8.0377595"><ele>379.0</ele><time>2026-04-26T10:55:19.353Z</time></trkpt><trkpt lat="44.387146" lon="8.0379261"><ele>381.66666666666663</ele><time>2026-04-26T10:55:20.357Z</time></trkpt><trkpt lat="44.3872069" lon="8.0381021"><ele>384.3333333333333</ele><time>2026-04-26T10:55:21.371Z</time></trkpt><trkpt lat="44.3872781" lon="8.0383049"><ele>387.0</ele><time>2026-04-26T10:55:22.363Z</time></trkpt><trkpt lat="44.3873581" lon="8.0385134"><ele>389.66666666666663</ele><time>2026-04-26T10:55:23.368Z</time></trkpt><trkpt lat="44.3874459" lon="8.0387268"><ele>392.3333333333333</ele><time>2026-04-26T10:55:24.376Z</time></trkpt><trkpt lat="44.3875296" lon="8.0389558"><ele>395.0</ele><time>2026-04-26T10:55:25.357Z</time></trkpt><trkpt lat="44.3876156" lon="8.0391693"><ele>395.66666666666663</ele><time>2026-04-26T10:55:26.382Z</time></trkpt><trkpt lat="44.3877065" lon="8.0393835"><ele>396.33333333333337</ele><time>2026-04-26T10:55:27.376Z</time></trkpt><trkpt lat="44.3878014" lon="8.0395957"><ele>397.0</ele><time>2026-04-26T10:55:28.344Z</time></trkpt><trkpt lat="44.3878847" lon="8.0398117"><ele>396.0</ele><time>2026-04-26T10:55:29.35Z</time></trkpt><trkpt lat="44.3879504" lon="8.0400312"><ele>395.0</ele><time>2026-04-26T10:55:30.343Z</time></trkpt><trkpt lat="44.3880144" lon="8.0402634"><ele>394.0</ele><time>2026-04-26T10:55:31.353Z</time></trkpt><trkpt lat="44.3880686" lon="8.040501"><ele>405.0</ele><time>2026-04-26T10:55:32.36Z</time></trkpt><trkpt lat="44.3881023" lon="8.0407424"><ele>416.0</ele><time>2026-04-26T10:55:33.349Z</time></trkpt><trkpt lat="44.3881064" lon="8.0409872"><ele>427.0</ele><time>2026-04-26T10:55:34.344Z</time></trkpt><trkpt lat="44.3880868" lon="8.0412361"><ele>427.0</ele><time>2026-04-26T10:55:35.359Z</time></trkpt><trkpt lat="44.3880835" lon="8.0414693"><ele>427.0</ele><time>2026-04-26T10:55:36.367Z</time></trkpt><trkpt lat="44.3881188" lon="8.0417152"><ele>427.0</ele><time>2026-04-26T10:55:37.354Z</time></trkpt><trkpt lat="44.3881742" lon="8.0419475"><ele>426.33333333333337</ele><time>2026-04-26T10:55:38.359Z</time></trkpt><trkpt lat="44.3882613" lon="8.0421747"><ele>425.66666666666663</ele><time>2026-04-26T10:55:39.353Z</time></trkpt><trkpt lat="44.3884105" lon="8.0423231"><ele>425.0</ele><time>2026-04-26T10:55:40.347Z</time></trkpt><trkpt lat="44.3885741" lon="8.0424044"><ele>425.0</ele><time>2026-04-26T10:55:41.349Z</time></trkpt><trkpt lat="44.3887422" lon="8.0424377"><ele>425.0</ele><time>2026-04-26T10:55:42.342Z</time></trkpt><trkpt lat="44.388919" lon="8.0424521"><ele>425.0</ele><time>2026-04-26T10:55:43.345Z</time></trkpt><trkpt lat="44.3890953" lon="8.0424596"><ele>429.75</ele><time>2026-04-26T10:55:44.344Z</time></trkpt><trkpt lat="44.3892591" lon="8.0424583"><ele>434.5</ele><time>2026-04-26T10:55:45.351Z</time></trkpt><trkpt lat="44.3893978" lon="8.042398"><ele>439.25</ele><time>2026-04-26T10:55:46.344Z</time></trkpt><trkpt lat="44.3895195" lon="8.0423034"><ele>444.0</ele><time>2026-04-26T10:55:47.347Z</time></trkpt><trkpt lat="44.389678" lon="8.0422612"><ele>446.66666666666663</ele><time>2026-04-26T10:55:48.345Z</time></trkpt><trkpt lat="44.3898297" lon="8.0423231"><ele>449.3333333333333</ele><time>2026-04-26T10:55:49.345Z</time></trkpt><trkpt lat="44.3899618" lon="8.0424484"><ele>452.0</ele><time>2026-04-26T10:55:50.341Z</time></trkpt><trkpt lat="44.3900605" lon="8.0425862"><ele>448.20000000000005</ele><time>2026-04-26T10:55:51.345Z</time></trkpt><trkpt lat="44.3901432" lon="8.0426799"><ele>444.40000000000003</ele><time>2026-04-26T10:55:52.346Z</time></trkpt><trkpt lat="44.390204" lon="8.0427311"><ele>440.59999999999997</ele><time>2026-04-26T10:55:53.353Z</time></trkpt><trkpt lat="44.390299" lon="8.0427042"><ele>436.79999999999995</ele><time>2026-04-26T10:55:55.345Z</time></trkpt><trkpt lat="44.3902673" lon="8.0426116"><ele>433.0</ele><time>2026-04-26T10:55:56.349Z</time></trkpt><trkpt lat="44.3901809" lon="8.0424992"><ele>439.33333333333337</ele><time>2026-04-26T10:55:57.34Z</time></trkpt><trkpt lat="44.3900839" lon="8.0423773"><ele>445.66666666666663</ele><time>2026-04-26T10:55:58.349Z</time></trkpt><trkpt lat="44.3899604" lon="8.0422397"><ele>452.0</ele><time>2026-04-26T10:55:59.346Z</time></trkpt><trkpt lat="44.3898233" lon="8.0421099"><ele>452.0</ele><time>2026-04-26T10:56:00.347Z</time></trkpt><trkpt lat="44.3896827" lon="8.0419818"><ele>452.0</ele><time>2026-04-26T10:56:01.356Z</time></trkpt><trkpt lat="44.389534" lon="8.0419017"><ele>452.0</ele><time>2026-04-26T10:56:02.345Z</time></trkpt><trkpt lat="44.3893584" lon="8.0418601"><ele>449.3333333333333</ele><time>2026-04-26T10:56:03.345Z</time></trkpt><trkpt lat="44.3891801" lon="8.041834"><ele>446.66666666666663</ele><time>2026-04-26T10:56:04.347Z</time></trkpt><trkpt lat="44.3890203" lon="8.0418086"><ele>444.0</ele><time>2026-04-26T10:56:05.343Z</time></trkpt><trkpt lat="44.388883" lon="8.0417832"><ele>446.0</ele><time>2026-04-26T10:56:06.35Z</time></trkpt><trkpt lat="44.3888026" lon="8.0417427"><ele>448.0</ele><time>2026-04-26T10:56:07.352Z</time></trkpt><trkpt lat="44.3887813" lon="8.0416547"><ele>450.0</ele><time>2026-04-26T10:56:08.347Z</time></trkpt><trkpt lat="44.3888371" lon="8.0415783"><ele>452.0</ele><time>2026-04-26T10:56:09.346Z</time></trkpt><trkpt lat="44.3889165" lon="8.0415304"><ele>454.0</ele><time>2026-04-26T10:56:10.346Z</time></trkpt><trkpt lat="44.3890078" lon="8.0414762"><ele>456.0</ele><time>2026-04-26T10:56:11.353Z</time></trkpt><trkpt lat="44.3891282" lon="8.0414043"><ele>456.0</ele><time>2026-04-26T10:56:12.354Z</time></trkpt><trkpt lat="44.3892815" lon="8.0412905"><ele>456.0</ele><time>2026-04-26T10:56:13.352Z</time></trkpt><trkpt lat="44.3894195" lon="8.0411741"><ele>456.0</ele><time>2026-04-26T10:56:14.353Z</time></trkpt><trkpt lat="44.3895617" lon="8.0410631"><ele>459.0</ele><time>2026-04-26T10:56:15.35Z</time></trkpt><trkpt lat="44.3897036" lon="8.0409867"><ele>462.0</ele><time>2026-04-26T10:56:16.354Z</time></trkpt><trkpt lat="44.3898573" lon="8.0409848"><ele>465.0</ele><time>2026-04-26T10:56:17.36Z</time></trkpt><trkpt lat="44.389986" lon="8.0410796"><ele>465.0</ele><time>2026-04-26T10:56:18.355Z</time></trkpt><trkpt lat="44.3900814" lon="8.0412604"><ele>465.0</ele><time>2026-04-26T10:56:19.35Z</time></trkpt><trkpt lat="44.3901512" lon="8.0414119"><ele>465.0</ele><time>2026-04-26T10:56:20.355Z</time></trkpt><trkpt lat="44.3902054" lon="8.0415036"><ele>465.0</ele><time>2026-04-26T10:56:21.352Z</time></trkpt><trkpt lat="44.3903216" lon="8.0415422"><ele>465.0</ele><time>2026-04-26T10:56:22.356Z</time></trkpt><trkpt lat="44.3904696" lon="8.0415311"><ele>465.0</ele><time>2026-04-26T10:56:23.345Z</time></trkpt><trkpt lat="44.3905989" lon="8.0415143"><ele>465.0</ele><time>2026-04-26T10:56:24.349Z</time></trkpt><trkpt lat="44.3906716" lon="8.0414827"><ele>465.0</ele><time>2026-04-26T10:56:25.357Z</time></trkpt><trkpt lat="44.3906921" lon="8.0413629"><ele>465.0</ele><time>2026-04-26T10:56:27.345Z</time></trkpt><trkpt lat="44.3906209" lon="8.0412916"><ele>465.0</ele><time>2026-04-26T10:56:28.355Z</time></trkpt><trkpt lat="44.3905123" lon="8.0412407"><ele>465.0</ele><time>2026-04-26T10:56:29.347Z</time></trkpt><trkpt lat="44.3903989" lon="8.0411615"><ele>465.0</ele><time>2026-04-26T10:56:30.346Z</time></trkpt><trkpt lat="44.3902963" lon="8.0410248"><ele>465.0</ele><time>2026-04-26T10:56:31.351Z</time></trkpt><trkpt lat="44.3902407" lon="8.0408534"><ele>467.75</ele><time>2026-04-26T10:56:32.348Z</time></trkpt><trkpt lat="44.3902227" lon="8.0406585"><ele>470.5</ele><time>2026-04-26T10:56:33.35Z</time></trkpt><trkpt lat="44.3902058" lon="8.0404451"><ele>473.25</ele><time>2026-04-26T10:56:34.348Z</time></trkpt><trkpt lat="44.3901757" lon="8.0402324"><ele>476.0</ele><time>2026-04-26T10:56:35.351Z</time></trkpt><trkpt lat="44.3901245" lon="8.0400449"><ele>476.0</ele><time>2026-04-26T10:56:36.349Z</time></trkpt><trkpt lat="44.3900554" lon="8.0398919"><ele>476.0</ele><time>2026-04-26T10:56:37.352Z</time></trkpt><trkpt lat="44.3900212" lon="8.0397769"><ele>476.0</ele><time>2026-04-26T10:56:38.352Z</time></trkpt><trkpt lat="44.3901072" lon="8.0396758"><ele>476.0</ele><time>2026-04-26T10:56:40.353Z</time></trkpt><trkpt lat="44.3901678" lon="8.0397015"><ele>476.0</ele><time>2026-04-26T10:56:41.343Z</time></trkpt><trkpt lat="44.3902062" lon="8.0398047"><ele>476.0</ele><time>2026-04-26T10:56:42.344Z</time></trkpt><trkpt lat="44.3902686" lon="8.0399523"><ele>476.0</ele><time>2026-04-26T10:56:43.342Z</time></trkpt><trkpt lat="44.3903357" lon="8.0401198"><ele>476.0</ele><time>2026-04-26T10:56:44.356Z</time></trkpt><trkpt lat="44.3904128" lon="8.0402791"><ele>476.0</ele><time>2026-04-26T10:56:45.349Z</time></trkpt><trkpt lat="44.3904971" lon="8.0404302"><ele>485.0</ele><time>2026-04-26T10:56:46.35Z</time></trkpt><trkpt lat="44.3906089" lon="8.0405414"><ele>494.0</ele><time>2026-04-26T10:56:47.348Z</time></trkpt><trkpt lat="44.3907521" lon="8.0406317"><ele>503.0</ele><time>2026-04-26T10:56:48.349Z</time></trkpt><trkpt lat="44.390922" lon="8.0406843"><ele>503.0</ele><time>2026-04-26T10:56:49.348Z</time></trkpt><trkpt lat="44.3910717" lon="8.0407309"><ele>503.0</ele><time>2026-04-26T10:56:50.362Z</time></trkpt><trkpt lat="44.391202" lon="8.0407362"><ele>503.0</ele><time>2026-04-26T10:56:51.346Z</time></trkpt><trkpt lat="44.3913087" lon="8.0406928"><ele>503.0</ele><time>2026-04-26T10:56:52.352Z</time></trkpt><trkpt lat="44.3914188" lon="8.0406158"><ele>502.5</ele><time>2026-04-26T10:56:53.343Z</time></trkpt><trkpt lat="44.3915207" lon="8.0405041"><ele>502.0</ele><time>2026-04-26T10:56:54.338Z</time></trkpt><trkpt lat="44.3916073" lon="8.0403353"><ele>501.5</ele><time>2026-04-26T10:56:55.348Z</time></trkpt><trkpt lat="44.3916815" lon="8.0401486"><ele>501.0</ele><time>2026-04-26T10:56:56.341Z</time></trkpt><trkpt lat="44.3917076" lon="8.0399389"><ele>505.0</ele><time>2026-04-26T10:56:57.353Z</time></trkpt><trkpt lat="44.3916966" lon="8.0397327"><ele>509.0</ele><time>2026-04-26T10:56:58.344Z</time></trkpt><trkpt lat="44.3916941" lon="8.0395054"><ele>513.0</ele><time>2026-04-26T10:56:59.351Z</time></trkpt><trkpt lat="44.3916741" lon="8.0392566"><ele>518.3333333333334</ele><time>2026-04-26T10:57:00.344Z</time></trkpt><trkpt lat="44.3916792" lon="8.0390233"><ele>523.6666666666667</ele><time>2026-04-26T10:57:01.353Z</time></trkpt><trkpt lat="44.3916914" lon="8.0387906"><ele>529.0</ele><time>2026-04-26T10:57:02.344Z</time></trkpt><trkpt lat="44.3917089" lon="8.0385569"><ele>529.0</ele><time>2026-04-26T10:57:03.346Z</time></trkpt><trkpt lat="44.3917405" lon="8.038348"><ele>529.0</ele><time>2026-04-26T10:57:04.347Z</time></trkpt><trkpt lat="44.3918193" lon="8.0381772"><ele>529.0</ele><time>2026-04-26T10:57:05.343Z</time></trkpt><trkpt lat="44.391935" lon="8.0380637"><ele>529.0</ele><time>2026-04-26T10:57:06.354Z</time></trkpt><trkpt lat="44.3921166" lon="8.0380184"><ele>529.6666666666667</ele><time>2026-04-26T10:57:07.345Z</time></trkpt><trkpt lat="44.392287" lon="8.0379851"><ele>530.3333333333334</ele><time>2026-04-26T10:57:08.347Z</time></trkpt><trkpt lat="44.3924489" lon="8.0379695"><ele>531.0</ele><time>2026-04-26T10:57:09.339Z</time></trkpt><trkpt lat="44.3926029" lon="8.0380144"><ele>531.0</ele><time>2026-04-26T10:57:10.346Z</time></trkpt><trkpt lat="44.3927372" lon="8.0380716"><ele>531.0</ele><time>2026-04-26T10:57:11.351Z</time></trkpt><trkpt lat="44.3928669" lon="8.0380882"><ele>531.0</ele><time>2026-04-26T10:57:12.341Z</time></trkpt><trkpt lat="44.3929899" lon="8.0380281"><ele>531.0</ele><time>2026-04-26T10:57:13.345Z</time></trkpt><trkpt lat="44.3931214" lon="8.0378967"><ele>530.0</ele><time>2026-04-26T10:57:14.346Z</time></trkpt><trkpt lat="44.3932429" lon="8.0377459"><ele>529.0</ele><time>2026-04-26T10:57:15.348Z</time></trkpt><trkpt lat="44.3933594" lon="8.0375849"><ele>528.0</ele><time>2026-04-26T10:57:16.342Z</time></trkpt><trkpt lat="44.3934441" lon="8.037427"><ele>530.25</ele><time>2026-04-26T10:57:17.348Z</time></trkpt><trkpt lat="44.3935139" lon="8.0372721"><ele>532.5</ele><time>2026-04-26T10:57:18.347Z</time></trkpt><trkpt lat="44.3935429" lon="8.037077"><ele>534.75</ele><time>2026-04-26T10:57:19.354Z</time></trkpt><trkpt lat="44.3935452" lon="8.0368304"><ele>537.0</ele><time>2026-04-26T10:57:20.365Z</time></trkpt><trkpt lat="44.3935818" lon="8.0365906"><ele>537.3333333333334</ele><time>2026-04-26T10:57:21.348Z</time></trkpt><trkpt lat="44.3936358" lon="8.0363563"><ele>537.6666666666667</ele><time>2026-04-26T10:57:22.354Z</time></trkpt><trkpt lat="44.3937325" lon="8.036144"><ele>538.0</ele><time>2026-04-26T10:57:23.356Z</time></trkpt><trkpt lat="44.3938673" lon="8.0359424"><ele>535.0</ele><time>2026-04-26T10:57:24.36Z</time></trkpt><trkpt lat="44.3939949" lon="8.0357364"><ele>532.0</ele><time>2026-04-26T10:57:25.342Z</time></trkpt><trkpt lat="44.3941276" lon="8.0355402"><ele>529.0</ele><time>2026-04-26T10:57:26.349Z</time></trkpt><trkpt lat="44.3942697" lon="8.0353399"><ele>529.0</ele><time>2026-04-26T10:57:27.355Z</time></trkpt><trkpt lat="44.3944168" lon="8.0351421"><ele>529.0</ele><time>2026-04-26T10:57:28.346Z</time></trkpt><trkpt lat="44.3945598" lon="8.0349401"><ele>529.0</ele><time>2026-04-26T10:57:29.349Z</time></trkpt><trkpt lat="44.3946983" lon="8.0347531"><ele>530.3333333333334</ele><time>2026-04-26T10:57:30.344Z</time></trkpt><trkpt lat="44.3948164" lon="8.034565"><ele>531.6666666666666</ele><time>2026-04-26T10:57:31.352Z</time></trkpt><trkpt lat="44.3949071" lon="8.0343493"><ele>533.0</ele><time>2026-04-26T10:57:32.351Z</time></trkpt><trkpt lat="44.3949863" lon="8.0341134"><ele>533.0</ele><time>2026-04-26T10:57:33.347Z</time></trkpt><trkpt lat="44.3950662" lon="8.0338715"><ele>533.0</ele><time>2026-04-26T10:57:34.347Z</time></trkpt><trkpt lat="44.3951478" lon="8.0336508"><ele>533.0</ele><time>2026-04-26T10:57:35.341Z</time></trkpt><trkpt lat="44.3952552" lon="8.0334566"><ele>537.3333333333333</ele><time>2026-04-26T10:57:36.344Z</time></trkpt><trkpt lat="44.3953767" lon="8.0332548"><ele>541.6666666666666</ele><time>2026-04-26T10:57:37.351Z</time></trkpt><trkpt lat="44.3955047" lon="8.03306"><ele>546.0</ele><time>2026-04-26T10:57:38.346Z</time></trkpt><trkpt lat="44.3956396" lon="8.0328674"><ele>546.0</ele><time>2026-04-26T10:57:39.335Z</time></trkpt><trkpt lat="44.3957836" lon="8.0326717"><ele>546.0</ele><time>2026-04-26T10:57:40.341Z</time></trkpt><trkpt lat="44.395933" lon="8.0324828"><ele>546.0</ele><time>2026-04-26T10:57:41.345Z</time></trkpt><trkpt lat="44.3960918" lon="8.0323214"><ele>542.6666666666666</ele><time>2026-04-26T10:57:42.349Z</time></trkpt><trkpt lat="44.3962638" lon="8.0321786"><ele>539.3333333333333</ele><time>2026-04-26T10:57:43.34Z</time></trkpt><trkpt lat="44.3964247" lon="8.0320748"><ele>536.0</ele><time>2026-04-26T10:57:44.341Z</time></trkpt><trkpt lat="44.3965709" lon="8.0319885"><ele>536.0</ele><time>2026-04-26T10:57:45.344Z</time></trkpt><trkpt lat="44.3967097" lon="8.0319329"><ele>536.0</ele><time>2026-04-26T10:57:46.338Z</time></trkpt><trkpt lat="44.3968512" lon="8.0319416"><ele>536.0</ele><time>2026-04-26T10:57:47.339Z</time></trkpt><trkpt lat="44.3969828" lon="8.0320048"><ele>536.0</ele><time>2026-04-26T10:57:48.34Z</time></trkpt><trkpt lat="44.3971031" lon="8.0321156"><ele>535.6666666666666</ele><time>2026-04-26T10:57:49.343Z</time></trkpt><trkpt lat="44.397228" lon="8.0322647"><ele>535.3333333333334</ele><time>2026-04-26T10:57:50.345Z</time></trkpt><trkpt lat="44.3973705" lon="8.0323886"><ele>535.0</ele><time>2026-04-26T10:57:51.351Z</time></trkpt><trkpt lat="44.397521" lon="8.0324923"><ele>538.0</ele><time>2026-04-26T10:57:52.348Z</time></trkpt><trkpt lat="44.397666" lon="8.0325605"><ele>541.0</ele><time>2026-04-26T10:57:53.34Z</time></trkpt><trkpt lat="44.3978007" lon="8.0325696"><ele>544.0</ele><time>2026-04-26T10:57:54.344Z</time></trkpt><trkpt lat="44.3979341" lon="8.0325053"><ele>547.0</ele><time>2026-04-26T10:57:55.343Z</time></trkpt><trkpt lat="44.3980427" lon="8.032381"><ele>547.0</ele><time>2026-04-26T10:57:56.34Z</time></trkpt><trkpt lat="44.3981267" lon="8.0322876"><ele>547.0</ele><time>2026-04-26T10:57:57.348Z</time></trkpt><trkpt lat="44.3982026" lon="8.0321629"><ele>547.0</ele><time>2026-04-26T10:57:58.338Z</time></trkpt><trkpt lat="44.3982784" lon="8.0320343"><ele>547.0</ele><time>2026-04-26T10:57:59.345Z</time></trkpt><trkpt lat="44.3983655" lon="8.0319195"><ele>547.0</ele><time>2026-04-26T10:58:00.345Z</time></trkpt><trkpt lat="44.3984459" lon="8.0319316"><ele>547.0</ele><time>2026-04-26T10:58:01.346Z</time></trkpt><trkpt lat="44.3985301" lon="8.0320157"><ele>547.0</ele><time>2026-04-26T10:58:02.347Z</time></trkpt><trkpt lat="44.3985772" lon="8.03215"><ele>547.0</ele><time>2026-04-26T10:58:03.353Z</time></trkpt><trkpt lat="44.3985929" lon="8.0323297"><ele>547.0</ele><time>2026-04-26T10:58:04.346Z</time></trkpt><trkpt lat="44.3985876" lon="8.0325122"><ele>551.75</ele><time>2026-04-26T10:58:05.355Z</time></trkpt><trkpt lat="44.3985385" lon="8.0326954"><ele>556.5</ele><time>2026-04-26T10:58:06.346Z</time></trkpt><trkpt lat="44.3984748" lon="8.0328456"><ele>561.25</ele><time>2026-04-26T10:58:07.348Z</time></trkpt><trkpt lat="44.3984279" lon="8.0329736"><ele>566.0</ele><time>2026-04-26T10:58:08.343Z</time></trkpt><trkpt lat="44.3984729" lon="8.0331452"><ele>566.0</ele><time>2026-04-26T10:58:09.347Z</time></trkpt><trkpt lat="44.3985472" lon="8.0332897"><ele>566.0</ele><time>2026-04-26T10:58:10.345Z</time></trkpt><trkpt lat="44.3986398" lon="8.0334526"><ele>566.0</ele><time>2026-04-26T10:58:11.348Z</time></trkpt><trkpt lat="44.3987341" lon="8.0336036"><ele>566.0</ele><time>2026-04-26T10:58:12.341Z</time></trkpt><trkpt lat="44.3988334" lon="8.0336829"><ele>566.3333333333333</ele><time>2026-04-26T10:58:13.344Z</time></trkpt><trkpt lat="44.3989666" lon="8.0336844"><ele>566.6666666666666</ele><time>2026-04-26T10:58:14.354Z</time></trkpt><trkpt lat="44.3991222" lon="8.0336362"><ele>567.0</ele><time>2026-04-26T10:58:15.343Z</time></trkpt><trkpt lat="44.3992945" lon="8.033584"><ele>567.0</ele><time>2026-04-26T10:58:16.344Z</time></trkpt><trkpt lat="44.3994555" lon="8.0335312"><ele>567.0</ele><time>2026-04-26T10:58:17.344Z</time></trkpt><trkpt lat="44.3996458" lon="8.0334456"><ele>567.0</ele><time>2026-04-26T10:58:18.345Z</time></trkpt><trkpt lat="44.3998262" lon="8.0333289"><ele>563.6666666666666</ele><time>2026-04-26T10:58:19.348Z</time></trkpt><trkpt lat="44.4000055" lon="8.0332032"><ele>560.3333333333333</ele><time>2026-04-26T10:58:20.346Z</time></trkpt><trkpt lat="44.4001913" lon="8.0331145"><ele>557.0</ele><time>2026-04-26T10:58:21.342Z</time></trkpt><trkpt lat="44.4003686" lon="8.0330514"><ele>559.3333333333333</ele><time>2026-04-26T10:58:22.352Z</time></trkpt><trkpt lat="44.4005468" lon="8.0329889"><ele>561.6666666666666</ele><time>2026-04-26T10:58:23.35Z</time></trkpt><trkpt lat="44.4007085" lon="8.0329111"><ele>564.0</ele><time>2026-04-26T10:58:24.343Z</time></trkpt><trkpt lat="44.400852" lon="8.0328221"><ele>564.0</ele><time>2026-04-26T10:58:25.351Z</time></trkpt><trkpt lat="44.4009917" lon="8.0327537"><ele>564.0</ele><time>2026-04-26T10:58:26.351Z</time></trkpt><trkpt lat="44.4011243" lon="8.0327228"><ele>564.0</ele><time>2026-04-26T10:58:27.347Z</time></trkpt><trkpt lat="44.4012628" lon="8.0327546"><ele>564.0</ele><time>2026-04-26T10:58:28.345Z</time></trkpt><trkpt lat="44.4013919" lon="8.0328519"><ele>566.6666666666666</ele><time>2026-04-26T10:58:29.338Z</time></trkpt><trkpt lat="44.4015296" lon="8.0329985"><ele>569.3333333333333</ele><time>2026-04-26T10:58:30.355Z</time></trkpt><trkpt lat="44.40168" lon="8.0331245"><ele>572.0</ele><time>2026-04-26T10:58:31.347Z</time></trkpt><trkpt lat="44.401843" lon="8.033224"><ele>572.0</ele><time>2026-04-26T10:58:32.348Z</time></trkpt><trkpt lat="44.4020171" lon="8.0332931"><ele>572.0</ele><time>2026-04-26T10:58:33.351Z</time></trkpt><trkpt lat="44.4021862" lon="8.0333845"><ele>572.0</ele><time>2026-04-26T10:58:34.345Z</time></trkpt><trkpt lat="44.4023487" lon="8.0334837"><ele>570.3333333333333</ele><time>2026-04-26T10:58:35.348Z</time></trkpt><trkpt lat="44.4025085" lon="8.0336068"><ele>568.6666666666666</ele><time>2026-04-26T10:58:36.367Z</time></trkpt><trkpt lat="44.4026713" lon="8.0337397"><ele>567.0</ele><time>2026-04-26T10:58:37.355Z</time></trkpt><trkpt lat="44.4028188" lon="8.0338678"><ele>567.0</ele><time>2026-04-26T10:58:38.349Z</time></trkpt><trkpt lat="44.4029635" lon="8.0339785"><ele>567.0</ele><time>2026-04-26T10:58:39.356Z</time></trkpt><trkpt lat="44.403111" lon="8.034058"><ele>567.0</ele><time>2026-04-26T10:58:40.353Z</time></trkpt><trkpt lat="44.4032589" lon="8.0341013"><ele>567.25</ele><time>2026-04-26T10:58:41.356Z</time></trkpt><trkpt lat="44.403394" lon="8.0341265"><ele>567.5</ele><time>2026-04-26T10:58:42.347Z</time></trkpt><trkpt lat="44.4035235" lon="8.0341531"><ele>567.75</ele><time>2026-04-26T10:58:43.357Z</time></trkpt><trkpt lat="44.4036421" lon="8.0342075"><ele>568.0</ele><time>2026-04-26T10:58:44.349Z</time></trkpt><trkpt lat="44.403753" lon="8.0343192"><ele>570.6666666666667</ele><time>2026-04-26T10:58:45.348Z</time></trkpt><trkpt lat="44.4038487" lon="8.0344864"><ele>573.3333333333334</ele><time>2026-04-26T10:58:46.346Z</time></trkpt><trkpt lat="44.4039336" lon="8.0346658"><ele>576.0</ele><time>2026-04-26T10:58:47.351Z</time></trkpt><trkpt lat="44.4039914" lon="8.0348762"><ele>577.0</ele><time>2026-04-26T10:58:48.356Z</time></trkpt><trkpt lat="44.4039952" lon="8.0351135"><ele>578.0</ele><time>2026-04-26T10:58:49.349Z</time></trkpt><trkpt lat="44.403972" lon="8.0353408"><ele>579.0</ele><time>2026-04-26T10:58:50.348Z</time></trkpt><trkpt lat="44.4039373" lon="8.0355437"><ele>579.0</ele><time>2026-04-26T10:58:51.349Z</time></trkpt><trkpt lat="44.4039254" lon="8.0357067"><ele>579.0</ele><time>2026-04-26T10:58:52.353Z</time></trkpt><trkpt lat="44.4039508" lon="8.0358523"><ele>579.0</ele><time>2026-04-26T10:58:53.349Z</time></trkpt><trkpt lat="44.4040243" lon="8.0359383"><ele>579.0</ele><time>2026-04-26T10:58:54.349Z</time></trkpt><trkpt lat="44.4041211" lon="8.035978"><ele>579.0</ele><time>2026-04-26T10:58:55.347Z</time></trkpt><trkpt lat="44.4042502" lon="8.0359541"><ele>578.3333333333334</ele><time>2026-04-26T10:58:56.343Z</time></trkpt><trkpt lat="44.4044069" lon="8.0359007"><ele>577.6666666666667</ele><time>2026-04-26T10:58:57.348Z</time></trkpt><trkpt lat="44.4045851" lon="8.03583"><ele>577.0</ele><time>2026-04-26T10:58:58.346Z</time></trkpt><trkpt lat="44.404776" lon="8.0358003"><ele>579.3333333333334</ele><time>2026-04-26T10:58:59.35Z</time></trkpt><trkpt lat="44.4049657" lon="8.0358399"><ele>581.6666666666666</ele><time>2026-04-26T10:59:00.352Z</time></trkpt><trkpt lat="44.4051445" lon="8.0359096"><ele>584.0</ele><time>2026-04-26T10:59:01.349Z</time></trkpt><trkpt lat="44.405324" lon="8.0359899"><ele>587.0</ele><time>2026-04-26T10:59:02.344Z</time></trkpt><trkpt lat="44.4055178" lon="8.0360218"><ele>590.0</ele><time>2026-04-26T10:59:03.348Z</time></trkpt><trkpt lat="44.4056979" lon="8.036011"><ele>593.0</ele><time>2026-04-26T10:59:04.348Z</time></trkpt><trkpt lat="44.4058657" lon="8.0360126"><ele>593.0</ele><time>2026-04-26T10:59:05.347Z</time></trkpt><trkpt lat="44.4060116" lon="8.0360766"><ele>593.0</ele><time>2026-04-26T10:59:06.354Z</time></trkpt><trkpt lat="44.4061145" lon="8.0362176"><ele>593.0</ele><time>2026-04-26T10:59:07.356Z</time></trkpt><trkpt lat="44.4061905" lon="8.0364114"><ele>593.0</ele><time>2026-04-26T10:59:08.355Z</time></trkpt><trkpt lat="44.4062536" lon="8.0366346"><ele>593.0</ele><time>2026-04-26T10:59:09.342Z</time></trkpt><trkpt lat="44.4062924" lon="8.036892"><ele>593.0</ele><time>2026-04-26T10:59:10.341Z</time></trkpt><trkpt lat="44.4063282" lon="8.0371642"><ele>595.0</ele><time>2026-04-26T10:59:11.349Z</time></trkpt><trkpt lat="44.4063669" lon="8.0374325"><ele>597.0</ele><time>2026-04-26T10:59:12.35Z</time></trkpt><trkpt lat="44.4064038" lon="8.0376797"><ele>599.0</ele><time>2026-04-26T10:59:13.344Z</time></trkpt><trkpt lat="44.4064092" lon="8.0378857"><ele>599.0</ele><time>2026-04-26T10:59:14.35Z</time></trkpt><trkpt lat="44.4064514" lon="8.0380364"><ele>599.0</ele><time>2026-04-26T10:59:15.352Z</time></trkpt><trkpt lat="44.4065058" lon="8.0381344"><ele>599.0</ele><time>2026-04-26T10:59:16.352Z</time></trkpt><trkpt lat="44.4066081" lon="8.0381803"><ele>599.0</ele><time>2026-04-26T10:59:17.349Z</time></trkpt><trkpt lat="44.4067416" lon="8.0381735"><ele>599.0</ele><time>2026-04-26T10:59:18.342Z</time></trkpt><trkpt lat="44.4068982" lon="8.0381371"><ele>599.0</ele><time>2026-04-26T10:59:19.351Z</time></trkpt><trkpt lat="44.4070511" lon="8.0380843"><ele>599.0</ele><time>2026-04-26T10:59:20.343Z</time></trkpt><trkpt lat="44.4072145" lon="8.0380721"><ele>599.0</ele><time>2026-04-26T10:59:21.348Z</time></trkpt><trkpt lat="44.4073585" lon="8.0381329"><ele>599.0</ele><time>2026-04-26T10:59:22.356Z</time></trkpt><trkpt lat="44.4074996" lon="8.0382824"><ele>599.0</ele><time>2026-04-26T10:59:23.349Z</time></trkpt><trkpt lat="44.4076442" lon="8.038441"><ele>599.0</ele><time>2026-04-26T10:59:24.354Z</time></trkpt><trkpt lat="44.4077742" lon="8.038601"><ele>599.0</ele><time>2026-04-26T10:59:25.346Z</time></trkpt><trkpt lat="44.4078884" lon="8.0388093"><ele>599.0</ele><time>2026-04-26T10:59:26.341Z</time></trkpt><trkpt lat="44.4079755" lon="8.0390438"><ele>599.0</ele><time>2026-04-26T10:59:27.343Z</time></trkpt><trkpt lat="44.4080693" lon="8.0392822"><ele>599.0</ele><time>2026-04-26T10:59:28.346Z</time></trkpt><trkpt lat="44.4081477" lon="8.0395033"><ele>599.0</ele><time>2026-04-26T10:59:29.356Z</time></trkpt><trkpt lat="44.4082228" lon="8.0396556"><ele>599.0</ele><time>2026-04-26T10:59:30.344Z</time></trkpt><trkpt lat="44.4082871" lon="8.0397357"><ele>599.0</ele><time>2026-04-26T10:59:31.342Z</time></trkpt><trkpt lat="44.4083759" lon="8.0397362"><ele>599.0</ele><time>2026-04-26T10:59:32.348Z</time></trkpt><trkpt lat="44.4084645" lon="8.0396967"><ele>599.0</ele><time>2026-04-26T10:59:33.342Z</time></trkpt><trkpt lat="44.4085286" lon="8.0396095"><ele>599.0</ele><time>2026-04-26T10:59:34.352Z</time></trkpt><trkpt lat="44.40852" lon="8.039391"><ele>599.0</ele><time>2026-04-26T10:59:35.343Z</time></trkpt><trkpt lat="44.4085245" lon="8.0391304"><ele>602.3333333333333</ele><time>2026-04-26T10:59:36.352Z</time></trkpt><trkpt lat="44.4085427" lon="8.0388931"><ele>605.6666666666666</ele><time>2026-04-26T10:59:37.353Z</time></trkpt><trkpt lat="44.4085792" lon="8.038667"><ele>609.0</ele><time>2026-04-26T10:59:38.35Z</time></trkpt><trkpt lat="44.4086329" lon="8.0384446"><ele>615.0</ele><time>2026-04-26T10:59:39.354Z</time></trkpt><trkpt lat="44.4087401" lon="8.0382581"><ele>621.0</ele><time>2026-04-26T10:59:40.351Z</time></trkpt><trkpt lat="44.4088409" lon="8.0380975"><ele>627.0</ele><time>2026-04-26T10:59:41.345Z</time></trkpt><trkpt lat="44.4089706" lon="8.03799"><ele>628.0</ele><time>2026-04-26T10:59:42.35Z</time></trkpt><trkpt lat="44.4091299" lon="8.0379506"><ele>629.0</ele><time>2026-04-26T10:59:43.344Z</time></trkpt><trkpt lat="44.4093347" lon="8.0380292"><ele>630.0</ele><time>2026-04-26T10:59:44.342Z</time></trkpt><trkpt lat="44.4095141" lon="8.0381096"><ele>632.3333333333334</ele><time>2026-04-26T10:59:45.343Z</time></trkpt><trkpt lat="44.4096931" lon="8.0381677"><ele>634.6666666666667</ele><time>2026-04-26T10:59:46.339Z</time></trkpt><trkpt lat="44.4098861" lon="8.0382089"><ele>637.0</ele><time>2026-04-26T10:59:47.333Z</time></trkpt><trkpt lat="44.4100881" lon="8.0382592"><ele>631.6666666666667</ele><time>2026-04-26T10:59:48.35Z</time></trkpt><trkpt lat="44.4102841" lon="8.0383574"><ele>626.3333333333334</ele><time>2026-04-26T10:59:49.34Z</time></trkpt><trkpt lat="44.4104654" lon="8.0384485"><ele>621.0</ele><time>2026-04-26T10:59:50.342Z</time></trkpt><trkpt lat="44.4106309" lon="8.0385222"><ele>621.0</ele><time>2026-04-26T10:59:51.347Z</time></trkpt><trkpt lat="44.4107885" lon="8.0386079"><ele>621.0</ele><time>2026-04-26T10:59:52.347Z</time></trkpt><trkpt lat="44.4109405" lon="8.0386612"><ele>621.0</ele><time>2026-04-26T10:59:53.339Z</time></trkpt><trkpt lat="44.4110926" lon="8.0386975"><ele>621.0</ele><time>2026-04-26T10:59:54.341Z</time></trkpt><trkpt lat="44.4112581" lon="8.0387286"><ele>621.0</ele><time>2026-04-26T10:59:55.34Z</time></trkpt><trkpt lat="44.4114279" lon="8.0387434"><ele>621.0</ele><time>2026-04-26T10:59:56.334Z</time></trkpt><trkpt lat="44.4115947" lon="8.0388107"><ele>623.6666666666666</ele><time>2026-04-26T10:59:57.341Z</time></trkpt><trkpt lat="44.4117313" lon="8.0389632"><ele>626.3333333333333</ele><time>2026-04-26T10:59:58.34Z</time></trkpt><trkpt lat="44.4118408" lon="8.0391644"><ele>629.0</ele><time>2026-04-26T10:59:59.34Z</time></trkpt><trkpt lat="44.4119238" lon="8.0394224"><ele>621.6666666666666</ele><time>2026-04-26T11:00:00.363Z</time></trkpt><trkpt lat="44.4120116" lon="8.0396754"><ele>614.3333333333334</ele><time>2026-04-26T11:00:01.339Z</time></trkpt><trkpt lat="44.4120822" lon="8.0399301"><ele>607.0</ele><time>2026-04-26T11:00:02.342Z</time></trkpt><trkpt lat="44.4121342" lon="8.0401746"><ele>607.5</ele><time>2026-04-26T11:00:03.348Z</time></trkpt><trkpt lat="44.4121764" lon="8.0403862"><ele>608.0</ele><time>2026-04-26T11:00:04.342Z</time></trkpt><trkpt lat="44.412223" lon="8.0405406"><ele>608.5</ele><time>2026-04-26T11:00:05.343Z</time></trkpt><trkpt lat="44.4123004" lon="8.0406331"><ele>609.0</ele><time>2026-04-26T11:00:06.346Z</time></trkpt><trkpt lat="44.412399" lon="8.0406538"><ele>609.0</ele><time>2026-04-26T11:00:07.346Z</time></trkpt><trkpt lat="44.4125093" lon="8.0405945"><ele>609.0</ele><time>2026-04-26T11:00:08.357Z</time></trkpt><trkpt lat="44.4125921" lon="8.0404685"><ele>609.0</ele><time>2026-04-26T11:00:09.351Z</time></trkpt><trkpt lat="44.4126649" lon="8.0402958"><ele>609.0</ele><time>2026-04-26T11:00:10.354Z</time></trkpt><trkpt lat="44.4127313" lon="8.0400846"><ele>612.0</ele><time>2026-04-26T11:00:11.348Z</time></trkpt><trkpt lat="44.4127939" lon="8.0398613"><ele>615.0</ele><time>2026-04-26T11:00:12.351Z</time></trkpt><trkpt lat="44.4128668" lon="8.0396354"><ele>618.0</ele><time>2026-04-26T11:00:13.358Z</time></trkpt><trkpt lat="44.4129425" lon="8.039407"><ele>621.0</ele><time>2026-04-26T11:00:14.343Z</time></trkpt><trkpt lat="44.4130262" lon="8.0391878"><ele>624.0</ele><time>2026-04-26T11:00:15.353Z</time></trkpt><trkpt lat="44.4131351" lon="8.0389846"><ele>627.0</ele><time>2026-04-26T11:00:16.346Z</time></trkpt><trkpt lat="44.41327" lon="8.0388317"><ele>627.0</ele><time>2026-04-26T11:00:17.35Z</time></trkpt><trkpt lat="44.4134296" lon="8.0387121"><ele>627.0</ele><time>2026-04-26T11:00:18.352Z</time></trkpt><trkpt lat="44.413623" lon="8.0386449"><ele>627.0</ele><time>2026-04-26T11:00:19.35Z</time></trkpt><trkpt lat="44.4138209" lon="8.0386064"><ele>625.0</ele><time>2026-04-26T11:00:20.346Z</time></trkpt><trkpt lat="44.4140169" lon="8.0386099"><ele>623.0</ele><time>2026-04-26T11:00:21.351Z</time></trkpt><trkpt lat="44.4142005" lon="8.0386288"><ele>621.0</ele><time>2026-04-26T11:00:22.349Z</time></trkpt><trkpt lat="44.4143662" lon="8.0386491"><ele>621.0</ele><time>2026-04-26T11:00:23.351Z</time></trkpt><trkpt lat="44.4145149" lon="8.0386726"><ele>621.0</ele><time>2026-04-26T11:00:24.338Z</time></trkpt><trkpt lat="44.4146504" lon="8.0387799"><ele>621.0</ele><time>2026-04-26T11:00:25.346Z</time></trkpt><trkpt lat="44.4147422" lon="8.0389667"><ele>618.3333333333334</ele><time>2026-04-26T11:00:26.348Z</time></trkpt><trkpt lat="44.4148329" lon="8.0391553"><ele>615.6666666666667</ele><time>2026-04-26T11:00:27.344Z</time></trkpt><trkpt lat="44.4149475" lon="8.0393386"><ele>613.0</ele><time>2026-04-26T11:00:28.346Z</time></trkpt><trkpt lat="44.415087" lon="8.0394945"><ele>613.0</ele><time>2026-04-26T11:00:29.345Z</time></trkpt><trkpt lat="44.4152124" lon="8.0396375"><ele>613.0</ele><time>2026-04-26T11:00:30.343Z</time></trkpt><trkpt lat="44.4153348" lon="8.0397561"><ele>613.0</ele><time>2026-04-26T11:00:31.352Z</time></trkpt><trkpt lat="44.415459" lon="8.0398127"><ele>613.0</ele><time>2026-04-26T11:00:32.345Z</time></trkpt><trkpt lat="44.4155778" lon="8.0397858"><ele>613.0</ele><time>2026-04-26T11:00:33.351Z</time></trkpt><trkpt lat="44.4157039" lon="8.0397153"><ele>613.0</ele><time>2026-04-26T11:00:34.346Z</time></trkpt><trkpt lat="44.4158147" lon="8.039592"><ele>613.0</ele><time>2026-04-26T11:00:35.352Z</time></trkpt><trkpt lat="44.4159207" lon="8.0394241"><ele>613.0</ele><time>2026-04-26T11:00:36.344Z</time></trkpt><trkpt lat="44.4160154" lon="8.0392114"><ele>615.3333333333334</ele><time>2026-04-26T11:00:37.351Z</time></trkpt><trkpt lat="44.4160791" lon="8.0389658"><ele>617.6666666666666</ele><time>2026-04-26T11:00:38.35Z</time></trkpt><trkpt lat="44.41613" lon="8.0387191"><ele>620.0</ele><time>2026-04-26T11:00:39.35Z</time></trkpt><trkpt lat="44.4161673" lon="8.038466"><ele>620.6666666666666</ele><time>2026-04-26T11:00:40.348Z</time></trkpt><trkpt lat="44.4162212" lon="8.0382337"><ele>621.3333333333334</ele><time>2026-04-26T11:00:41.349Z</time></trkpt><trkpt lat="44.4163102" lon="8.0380382"><ele>622.0</ele><time>2026-04-26T11:00:42.351Z</time></trkpt><trkpt lat="44.4164346" lon="8.0379167"><ele>622.0</ele><time>2026-04-26T11:00:43.351Z</time></trkpt><trkpt lat="44.4166016" lon="8.0378689"><ele>622.0</ele><time>2026-04-26T11:00:44.339Z</time></trkpt><trkpt lat="44.4167861" lon="8.0379347"><ele>622.0</ele><time>2026-04-26T11:00:45.345Z</time></trkpt><trkpt lat="44.4169613" lon="8.0380287"><ele>622.0</ele><time>2026-04-26T11:00:46.348Z</time></trkpt><trkpt lat="44.4171429" lon="8.038151"><ele>622.0</ele><time>2026-04-26T11:00:47.348Z</time></trkpt><trkpt lat="44.417309" lon="8.0382595"><ele>622.0</ele><time>2026-04-26T11:00:48.349Z</time></trkpt><trkpt lat="44.4174765" lon="8.0383026"><ele>620.6666666666667</ele><time>2026-04-26T11:00:49.354Z</time></trkpt><trkpt lat="44.4176582" lon="8.0383047"><ele>619.3333333333334</ele><time>2026-04-26T11:00:50.347Z</time></trkpt><trkpt lat="44.4178485" lon="8.0382883"><ele>618.0</ele><time>2026-04-26T11:00:51.349Z</time></trkpt><trkpt lat="44.4180397" lon="8.0382959"><ele>614.6666666666666</ele><time>2026-04-26T11:00:52.358Z</time></trkpt><trkpt lat="44.418231" lon="8.038343"><ele>611.3333333333333</ele><time>2026-04-26T11:00:53.35Z</time></trkpt><trkpt lat="44.4184127" lon="8.0383979"><ele>608.0</ele><time>2026-04-26T11:00:54.352Z</time></trkpt><trkpt lat="44.4186058" lon="8.038401"><ele>608.0</ele><time>2026-04-26T11:00:55.347Z</time></trkpt><trkpt lat="44.4187854" lon="8.0384019"><ele>608.0</ele><time>2026-04-26T11:00:56.347Z</time></trkpt><trkpt lat="44.4189539" lon="8.0384486"><ele>608.0</ele><time>2026-04-26T11:00:57.36Z</time></trkpt><trkpt lat="44.4191226" lon="8.0385447"><ele>608.3333333333333</ele><time>2026-04-26T11:00:58.347Z</time></trkpt><trkpt lat="44.419274" lon="8.0386873"><ele>608.6666666666666</ele><time>2026-04-26T11:00:59.35Z</time></trkpt><trkpt lat="44.4194124" lon="8.0388812"><ele>609.0</ele><time>2026-04-26T11:01:00.347Z</time></trkpt><trkpt lat="44.4195429" lon="8.0390893"><ele>608.6666666666666</ele><time>2026-04-26T11:01:01.35Z</time></trkpt><trkpt lat="44.419665" lon="8.0393204"><ele>608.3333333333333</ele><time>2026-04-26T11:01:02.349Z</time></trkpt><trkpt lat="44.419789" lon="8.0395655"><ele>608.0</ele><time>2026-04-26T11:01:03.35Z</time></trkpt><trkpt lat="44.4199181" lon="8.039813"><ele>608.0</ele><time>2026-04-26T11:01:04.352Z</time></trkpt><trkpt lat="44.4200441" lon="8.0400758"><ele>608.0</ele><time>2026-04-26T11:01:05.346Z</time></trkpt><trkpt lat="44.4201831" lon="8.0403353"><ele>608.0</ele><time>2026-04-26T11:01:06.348Z</time></trkpt><trkpt lat="44.4203183" lon="8.0405935"><ele>608.0</ele><time>2026-04-26T11:01:07.354Z</time></trkpt><trkpt lat="44.4204563" lon="8.0408564"><ele>609.0</ele><time>2026-04-26T11:01:08.352Z</time></trkpt><trkpt lat="44.4205909" lon="8.0411107"><ele>610.0</ele><time>2026-04-26T11:01:09.349Z</time></trkpt><trkpt lat="44.4207166" lon="8.0413399"><ele>611.0</ele><time>2026-04-26T11:01:10.35Z</time></trkpt><trkpt lat="44.4208085" lon="8.0415588"><ele>611.0</ele><time>2026-04-26T11:01:11.355Z</time></trkpt><trkpt lat="44.4208539" lon="8.0418054"><ele>611.0</ele><time>2026-04-26T11:01:12.361Z</time></trkpt><trkpt lat="44.4208772" lon="8.0420147"><ele>611.0</ele><time>2026-04-26T11:01:13.345Z</time></trkpt><trkpt lat="44.4209045" lon="8.0422089"><ele>611.0</ele><time>2026-04-26T11:01:14.344Z</time></trkpt><trkpt lat="44.4209464" lon="8.0423576"><ele>611.0</ele><time>2026-04-26T11:01:15.35Z</time></trkpt><trkpt lat="44.4210596" lon="8.0424606"><ele>611.0</ele><time>2026-04-26T11:01:16.358Z</time></trkpt><trkpt lat="44.4212005" lon="8.04257"><ele>611.0</ele><time>2026-04-26T11:01:17.348Z</time></trkpt><trkpt lat="44.4213068" lon="8.0426998"><ele>614.3333333333333</ele><time>2026-04-26T11:01:18.352Z</time></trkpt><trkpt lat="44.421341" lon="8.0428979"><ele>617.6666666666666</ele><time>2026-04-26T11:01:19.348Z</time></trkpt><trkpt lat="44.4213521" lon="8.0431268"><ele>621.0</ele><time>2026-04-26T11:01:20.344Z</time></trkpt><trkpt lat="44.4213707" lon="8.0433654"><ele>621.25</ele><time>2026-04-26T11:01:21.352Z</time></trkpt><trkpt lat="44.4213921" lon="8.043563"><ele>621.5</ele><time>2026-04-26T11:01:22.348Z</time></trkpt><trkpt lat="44.4214312" lon="8.0437303"><ele>621.75</ele><time>2026-04-26T11:01:23.352Z</time></trkpt><trkpt lat="44.4214927" lon="8.0438562"><ele>622.0</ele><time>2026-04-26T11:01:24.352Z</time></trkpt><trkpt lat="44.4215945" lon="8.0439068"><ele>622.0</ele><time>2026-04-26T11:01:25.356Z</time></trkpt><trkpt lat="44.421723" lon="8.0439165"><ele>622.0</ele><time>2026-04-26T11:01:26.348Z</time></trkpt><trkpt lat="44.4218677" lon="8.0438931"><ele>622.0</ele><time>2026-04-26T11:01:27.352Z</time></trkpt><trkpt lat="44.4220304" lon="8.043865"><ele>622.0</ele><time>2026-04-26T11:01:28.36Z</time></trkpt><trkpt lat="44.4222054" lon="8.0438437"><ele>622.6666666666667</ele><time>2026-04-26T11:01:29.341Z</time></trkpt><trkpt lat="44.422386" lon="8.0438284"><ele>623.3333333333334</ele><time>2026-04-26T11:01:30.348Z</time></trkpt><trkpt lat="44.4225564" lon="8.0438338"><ele>624.0</ele><time>2026-04-26T11:01:31.344Z</time></trkpt><trkpt lat="44.4227117" lon="8.0438847"><ele>624.0</ele><time>2026-04-26T11:01:32.353Z</time></trkpt><trkpt lat="44.4228614" lon="8.0440016"><ele>624.0</ele><time>2026-04-26T11:01:33.351Z</time></trkpt><trkpt lat="44.4230192" lon="8.0441355"><ele>624.0</ele><time>2026-04-26T11:01:34.345Z</time></trkpt><trkpt lat="44.4231708" lon="8.0442726"><ele>625.6666666666666</ele><time>2026-04-26T11:01:35.353Z</time></trkpt><trkpt lat="44.4233335" lon="8.0444171"><ele>627.3333333333333</ele><time>2026-04-26T11:01:36.346Z</time></trkpt><trkpt lat="44.4234974" lon="8.0445729"><ele>629.0</ele><time>2026-04-26T11:01:37.345Z</time></trkpt><trkpt lat="44.4236596" lon="8.0447352"><ele>629.0</ele><time>2026-04-26T11:01:38.346Z</time></trkpt><trkpt lat="44.4237999" lon="8.0449031"><ele>629.0</ele><time>2026-04-26T11:01:39.348Z</time></trkpt><trkpt lat="44.4239208" lon="8.0450963"><ele>629.0</ele><time>2026-04-26T11:01:40.353Z</time></trkpt><trkpt lat="44.4240036" lon="8.0453148"><ele>631.0</ele><time>2026-04-26T11:01:41.348Z</time></trkpt><trkpt lat="44.424086" lon="8.0455523"><ele>633.0</ele><time>2026-04-26T11:01:42.352Z</time></trkpt><trkpt lat="44.4241693" lon="8.0457918"><ele>635.0</ele><time>2026-04-26T11:01:43.354Z</time></trkpt><trkpt lat="44.4242645" lon="8.0460244"><ele>635.0</ele><time>2026-04-26T11:01:44.347Z</time></trkpt><trkpt lat="44.4243524" lon="8.0462564"><ele>635.0</ele><time>2026-04-26T11:01:45.346Z</time></trkpt><trkpt lat="44.4244167" lon="8.0464877"><ele>635.0</ele><time>2026-04-26T11:01:46.344Z</time></trkpt><trkpt lat="44.4244554" lon="8.0467234"><ele>633.75</ele><time>2026-04-26T11:01:47.347Z</time></trkpt><trkpt lat="44.4244534" lon="8.0469562"><ele>632.5</ele><time>2026-04-26T11:01:48.342Z</time></trkpt><trkpt lat="44.4244296" lon="8.0471651"><ele>631.25</ele><time>2026-04-26T11:01:49.352Z</time></trkpt><trkpt lat="44.4244239" lon="8.0473368"><ele>630.0</ele><time>2026-04-26T11:01:50.343Z</time></trkpt><trkpt lat="44.4244684" lon="8.0474579"><ele>629.75</ele><time>2026-04-26T11:01:51.348Z</time></trkpt><trkpt lat="44.4245265" lon="8.04754"><ele>629.5</ele><time>2026-04-26T11:01:52.346Z</time></trkpt><trkpt lat="44.4246175" lon="8.0475923"><ele>629.25</ele><time>2026-04-26T11:01:53.349Z</time></trkpt><trkpt lat="44.4247463" lon="8.0476214"><ele>629.0</ele><time>2026-04-26T11:01:54.355Z</time></trkpt><trkpt lat="44.4248988" lon="8.0476537"><ele>637.6666666666666</ele><time>2026-04-26T11:01:55.346Z</time></trkpt><trkpt lat="44.4250698" lon="8.0476962"><ele>646.3333333333334</ele><time>2026-04-26T11:01:56.342Z</time></trkpt><trkpt lat="44.4252317" lon="8.0477666"><ele>655.0</ele><time>2026-04-26T11:01:57.342Z</time></trkpt><trkpt lat="44.4253922" lon="8.0478376"><ele>661.0</ele><time>2026-04-26T11:01:58.344Z</time></trkpt><trkpt lat="44.4255297" lon="8.0479224"><ele>667.0</ele><time>2026-04-26T11:01:59.343Z</time></trkpt><trkpt lat="44.4256508" lon="8.0480307"><ele>673.0</ele><time>2026-04-26T11:02:00.356Z</time></trkpt><trkpt lat="44.4257634" lon="8.0481494"><ele>679.0</ele><time>2026-04-26T11:02:01.341Z</time></trkpt><trkpt lat="44.4258686" lon="8.048221"><ele>679.0</ele><time>2026-04-26T11:02:02.346Z</time></trkpt><trkpt lat="44.4259667" lon="8.0482632"><ele>679.0</ele><time>2026-04-26T11:02:03.334Z</time></trkpt><trkpt lat="44.4260996" lon="8.0482421"><ele>679.0</ele><time>2026-04-26T11:02:04.341Z</time></trkpt><trkpt lat="44.4262586" lon="8.0481913"><ele>679.0</ele><time>2026-04-26T11:02:05.342Z</time></trkpt><trkpt lat="44.4264142" lon="8.0481225"><ele>679.3333333333334</ele><time>2026-04-26T11:02:06.339Z</time></trkpt><trkpt lat="44.426561" lon="8.0480113"><ele>679.6666666666666</ele><time>2026-04-26T11:02:07.341Z</time></trkpt><trkpt lat="44.4267082" lon="8.0478443"><ele>680.0</ele><time>2026-04-26T11:02:08.337Z</time></trkpt><trkpt lat="44.4268528" lon="8.0476732"><ele>680.0</ele><time>2026-04-26T11:02:09.343Z</time></trkpt><trkpt lat="44.4270035" lon="8.0475144"><ele>680.0</ele><time>2026-04-26T11:02:10.339Z</time></trkpt><trkpt lat="44.4271765" lon="8.0474041"><ele>680.0</ele><time>2026-04-26T11:02:11.339Z</time></trkpt><trkpt lat="44.4273703" lon="8.0473434"><ele>683.3333333333333</ele><time>2026-04-26T11:02:12.341Z</time></trkpt><trkpt lat="44.4275499" lon="8.0473108"><ele>686.6666666666666</ele><time>2026-04-26T11:02:13.344Z</time></trkpt><trkpt lat="44.427741" lon="8.0472931"><ele>690.0</ele><time>2026-04-26T11:02:14.343Z</time></trkpt><trkpt lat="44.4279287" lon="8.0472637"><ele>691.0</ele><time>2026-04-26T11:02:15.339Z</time></trkpt><trkpt lat="44.428093" lon="8.0472039"><ele>692.0</ele><time>2026-04-26T11:02:16.341Z</time></trkpt><trkpt lat="44.4282541" lon="8.0471279"><ele>693.0</ele><time>2026-04-26T11:02:17.343Z</time></trkpt><trkpt lat="44.4284027" lon="8.047086"><ele>693.0</ele><time>2026-04-26T11:02:18.341Z</time></trkpt><trkpt lat="44.4285474" lon="8.0471102"><ele>693.0</ele><time>2026-04-26T11:02:19.348Z</time></trkpt><trkpt lat="44.4286765" lon="8.0472119"><ele>693.0</ele><time>2026-04-26T11:02:20.333Z</time></trkpt><trkpt lat="44.4287981" lon="8.0472797"><ele>693.0</ele><time>2026-04-26T11:02:21.347Z</time></trkpt><trkpt lat="44.4289147" lon="8.0473159"><ele>694.3333333333334</ele><time>2026-04-26T11:02:22.349Z</time></trkpt><trkpt lat="44.429029" lon="8.0472766"><ele>695.6666666666667</ele><time>2026-04-26T11:02:23.347Z</time></trkpt><trkpt lat="44.4291776" lon="8.0471701"><ele>697.0</ele><time>2026-04-26T11:02:24.338Z</time></trkpt><trkpt lat="44.4293291" lon="8.0470445"><ele>697.0</ele><time>2026-04-26T11:02:25.339Z</time></trkpt><trkpt lat="44.4294982" lon="8.0469259"><ele>697.0</ele><time>2026-04-26T11:02:26.341Z</time></trkpt><trkpt lat="44.429689" lon="8.0468278"><ele>697.0</ele><time>2026-04-26T11:02:27.337Z</time></trkpt><trkpt lat="44.4298883" lon="8.046763"><ele>695.3333333333334</ele><time>2026-04-26T11:02:28.336Z</time></trkpt><trkpt lat="44.4300878" lon="8.046725"><ele>693.6666666666666</ele><time>2026-04-26T11:02:29.337Z</time></trkpt><trkpt lat="44.4302871" lon="8.0467666"><ele>692.0</ele><time>2026-04-26T11:02:30.336Z</time></trkpt><trkpt lat="44.4304745" lon="8.0468703"><ele>695.0</ele><time>2026-04-26T11:02:31.338Z</time></trkpt><trkpt lat="44.4306441" lon="8.0470046"><ele>698.0</ele><time>2026-04-26T11:02:32.337Z</time></trkpt><trkpt lat="44.4308199" lon="8.0471135"><ele>701.0</ele><time>2026-04-26T11:02:33.347Z</time></trkpt><trkpt lat="44.4309841" lon="8.0471458"><ele>701.0</ele><time>2026-04-26T11:02:34.346Z</time></trkpt><trkpt lat="44.4311488" lon="8.0471164"><ele>701.0</ele><time>2026-04-26T11:02:35.345Z</time></trkpt><trkpt lat="44.4313256" lon="8.0470932"><ele>701.0</ele><time>2026-04-26T11:02:36.34Z</time></trkpt><trkpt lat="44.4315181" lon="8.0471069"><ele>705.6666666666666</ele><time>2026-04-26T11:02:37.348Z</time></trkpt><trkpt lat="44.4317055" lon="8.0471852"><ele>710.3333333333334</ele><time>2026-04-26T11:02:38.343Z</time></trkpt><trkpt lat="44.4318953" lon="8.0472829"><ele>715.0</ele><time>2026-04-26T11:02:39.345Z</time></trkpt><trkpt lat="44.4320636" lon="8.0474069"><ele>712.3333333333334</ele><time>2026-04-26T11:02:40.344Z</time></trkpt><trkpt lat="44.4322192" lon="8.0475452"><ele>709.6666666666666</ele><time>2026-04-26T11:02:41.343Z</time></trkpt><trkpt lat="44.4323405" lon="8.0476769"><ele>707.0</ele><time>2026-04-26T11:02:42.338Z</time></trkpt><trkpt lat="44.4324433" lon="8.0477656"><ele>707.0</ele><time>2026-04-26T11:02:43.363Z</time></trkpt><trkpt lat="44.4325307" lon="8.0477898"><ele>707.0</ele><time>2026-04-26T11:02:44.345Z</time></trkpt><trkpt lat="44.4326322" lon="8.0477629"><ele>707.0</ele><time>2026-04-26T11:02:45.356Z</time></trkpt><trkpt lat="44.432752" lon="8.0476698"><ele>707.0</ele><time>2026-04-26T11:02:46.342Z</time></trkpt><trkpt lat="44.4328797" lon="8.0475263"><ele>714.3333333333333</ele><time>2026-04-26T11:02:47.345Z</time></trkpt><trkpt lat="44.4330347" lon="8.0474237"><ele>721.6666666666666</ele><time>2026-04-26T11:02:48.339Z</time></trkpt><trkpt lat="44.4332026" lon="8.0473613"><ele>729.0</ele><time>2026-04-26T11:02:49.347Z</time></trkpt><trkpt lat="44.433358" lon="8.0473108"><ele>729.0</ele><time>2026-04-26T11:02:50.343Z</time></trkpt><trkpt lat="44.4335191" lon="8.0472714"><ele>729.0</ele><time>2026-04-26T11:02:51.344Z</time></trkpt><trkpt lat="44.4336442" lon="8.0471902"><ele>729.0</ele><time>2026-04-26T11:02:52.343Z</time></trkpt><trkpt lat="44.4337817" lon="8.0470637"><ele>725.6666666666666</ele><time>2026-04-26T11:02:53.347Z</time></trkpt><trkpt lat="44.4339402" lon="8.0469493"><ele>722.3333333333333</ele><time>2026-04-26T11:02:54.336Z</time></trkpt><trkpt lat="44.4341286" lon="8.046842"><ele>719.0</ele><time>2026-04-26T11:02:55.351Z</time></trkpt><trkpt lat="44.4343221" lon="8.046747"><ele>719.0</ele><time>2026-04-26T11:02:56.34Z</time></trkpt><trkpt lat="44.4345216" lon="8.0466566"><ele>719.0</ele><time>2026-04-26T11:02:57.345Z</time></trkpt><trkpt lat="44.4347138" lon="8.0465778"><ele>719.0</ele><time>2026-04-26T11:02:58.338Z</time></trkpt><trkpt lat="44.4348853" lon="8.0465181"><ele>718.6666666666666</ele><time>2026-04-26T11:02:59.342Z</time></trkpt><trkpt lat="44.4350424" lon="8.0465035"><ele>718.3333333333334</ele><time>2026-04-26T11:03:00.34Z</time></trkpt><trkpt lat="44.4352067" lon="8.0465529"><ele>718.0</ele><time>2026-04-26T11:03:01.341Z</time></trkpt><trkpt lat="44.4353546" lon="8.0466628"><ele>722.0</ele><time>2026-04-26T11:03:02.335Z</time></trkpt><trkpt lat="44.4355011" lon="8.0467959"><ele>726.0</ele><time>2026-04-26T11:03:03.344Z</time></trkpt><trkpt lat="44.4356456" lon="8.0469367"><ele>730.0</ele><time>2026-04-26T11:03:04.339Z</time></trkpt><trkpt lat="44.435771" lon="8.0470483"><ele>730.0</ele><time>2026-04-26T11:03:05.343Z</time></trkpt><trkpt lat="44.4358908" lon="8.047144"><ele>730.0</ele><time>2026-04-26T11:03:06.346Z</time></trkpt><trkpt lat="44.436003" lon="8.0471838"><ele>730.0</ele><time>2026-04-26T11:03:07.338Z</time></trkpt><trkpt lat="44.4361283" lon="8.0471523"><ele>730.0</ele><time>2026-04-26T11:03:08.34Z</time></trkpt><trkpt lat="44.4362804" lon="8.0471013"><ele>731.0</ele><time>2026-04-26T11:03:09.351Z</time></trkpt><trkpt lat="44.4364497" lon="8.047055"><ele>732.0</ele><time>2026-04-26T11:03:10.349Z</time></trkpt><trkpt lat="44.4366376" lon="8.0470077"><ele>733.0</ele><time>2026-04-26T11:03:11.352Z</time></trkpt><trkpt lat="44.4368219" lon="8.046972"><ele>733.0</ele><time>2026-04-26T11:03:12.341Z</time></trkpt><trkpt lat="44.4370453" lon="8.0469565"><ele>733.0</ele><time>2026-04-26T11:03:13.345Z</time></trkpt><trkpt lat="44.4372761" lon="8.046958"><ele>737.0</ele><time>2026-04-26T11:03:14.352Z</time></trkpt><trkpt lat="44.4374931" lon="8.0470052"><ele>741.0</ele><time>2026-04-26T11:03:15.344Z</time></trkpt><trkpt lat="44.4377083" lon="8.0470427"><ele>745.0</ele><time>2026-04-26T11:03:16.339Z</time></trkpt><trkpt lat="44.437921" lon="8.0470926"><ele>748.6666666666667</ele><time>2026-04-26T11:03:17.343Z</time></trkpt><trkpt lat="44.4381316" lon="8.0471783"><ele>752.3333333333334</ele><time>2026-04-26T11:03:18.341Z</time></trkpt><trkpt lat="44.4383322" lon="8.0472966"><ele>756.0</ele><time>2026-04-26T11:03:19.346Z</time></trkpt><trkpt lat="44.4385054" lon="8.0474095"><ele>755.6666666666666</ele><time>2026-04-26T11:03:20.341Z</time></trkpt><trkpt lat="44.4386536" lon="8.0475164"><ele>755.3333333333333</ele><time>2026-04-26T11:03:21.342Z</time></trkpt><trkpt lat="44.4387767" lon="8.0476324"><ele>755.0</ele><time>2026-04-26T11:03:22.349Z</time></trkpt><trkpt lat="44.4388734" lon="8.0478047"><ele>755.0</ele><time>2026-04-26T11:03:23.353Z</time></trkpt><trkpt lat="44.4389308" lon="8.0480296"><ele>755.0</ele><time>2026-04-26T11:03:24.348Z</time></trkpt><trkpt lat="44.4389529" lon="8.0482719"><ele>755.0</ele><time>2026-04-26T11:03:25.354Z</time></trkpt><trkpt lat="44.4389596" lon="8.04849"><ele>752.5</ele><time>2026-04-26T11:03:26.371Z</time></trkpt><trkpt lat="44.4389599" lon="8.048694"><ele>750.0</ele><time>2026-04-26T11:03:27.352Z</time></trkpt><trkpt lat="44.4389828" lon="8.0488527"><ele>747.5</ele><time>2026-04-26T11:03:28.358Z</time></trkpt><trkpt lat="44.4390439" lon="8.0489769"><ele>745.0</ele><time>2026-04-26T11:03:29.355Z</time></trkpt><trkpt lat="44.4391456" lon="8.0490565"><ele>745.0</ele><time>2026-04-26T11:03:30.348Z</time></trkpt><trkpt lat="44.4392891" lon="8.0491172"><ele>745.0</ele><time>2026-04-26T11:03:31.357Z</time></trkpt><trkpt lat="44.4394557" lon="8.0492247"><ele>745.0</ele><time>2026-04-26T11:03:32.348Z</time></trkpt><trkpt lat="44.439601" lon="8.0494067"><ele>747.0</ele><time>2026-04-26T11:03:33.343Z</time></trkpt><trkpt lat="44.4396858" lon="8.0496315"><ele>749.0</ele><time>2026-04-26T11:03:34.349Z</time></trkpt><trkpt lat="44.4397823" lon="8.0498667"><ele>751.0</ele><time>2026-04-26T11:03:35.348Z</time></trkpt><trkpt lat="44.4398879" lon="8.0500316"><ele>751.0</ele><time>2026-04-26T11:03:36.351Z</time></trkpt><trkpt lat="44.4400027" lon="8.0501575"><ele>751.0</ele><time>2026-04-26T11:03:37.35Z</time></trkpt><trkpt lat="44.4401297" lon="8.0502815"><ele>751.0</ele><time>2026-04-26T11:03:38.348Z</time></trkpt><trkpt lat="44.4402596" lon="8.050404"><ele>751.0</ele><time>2026-04-26T11:03:39.354Z</time></trkpt><trkpt lat="44.4403472" lon="8.0505633"><ele>751.0</ele><time>2026-04-26T11:03:40.35Z</time></trkpt><trkpt lat="44.4403855" lon="8.050752"><ele>751.0</ele><time>2026-04-26T11:03:41.351Z</time></trkpt><trkpt lat="44.4404279" lon="8.0509271"><ele>751.0</ele><time>2026-04-26T11:03:42.353Z</time></trkpt><trkpt lat="44.4405074" lon="8.0510879"><ele>753.6666666666667</ele><time>2026-04-26T11:03:43.349Z</time></trkpt><trkpt lat="44.4406515" lon="8.0512479"><ele>756.3333333333334</ele><time>2026-04-26T11:03:44.356Z</time></trkpt><trkpt lat="44.4408068" lon="8.0514026"><ele>759.0</ele><time>2026-04-26T11:03:45.349Z</time></trkpt><trkpt lat="44.440953" lon="8.0515767"><ele>756.3333333333334</ele><time>2026-04-26T11:03:46.346Z</time></trkpt><trkpt lat="44.4410729" lon="8.0517926"><ele>753.6666666666667</ele><time>2026-04-26T11:03:47.35Z</time></trkpt><trkpt lat="44.4411193" lon="8.0520566"><ele>751.0</ele><time>2026-04-26T11:03:48.349Z</time></trkpt><trkpt lat="44.4411561" lon="8.0523241"><ele>750.6666666666667</ele><time>2026-04-26T11:03:49.35Z</time></trkpt><trkpt lat="44.4411879" lon="8.0525731"><ele>750.3333333333334</ele><time>2026-04-26T11:03:50.357Z</time></trkpt><trkpt lat="44.441184" lon="8.0528067"><ele>750.0</ele><time>2026-04-26T11:03:51.355Z</time></trkpt><trkpt lat="44.4411438" lon="8.0530213"><ele>750.0</ele><time>2026-04-26T11:03:52.347Z</time></trkpt><trkpt lat="44.441076" lon="8.0532075"><ele>750.0</ele><time>2026-04-26T11:03:53.349Z</time></trkpt><trkpt lat="44.4410195" lon="8.0533873"><ele>750.0</ele><time>2026-04-26T11:03:54.347Z</time></trkpt><trkpt lat="44.4410436" lon="8.0535464"><ele>750.0</ele><time>2026-04-26T11:03:55.35Z</time></trkpt><trkpt lat="44.4411383" lon="8.0536794"><ele>753.3333333333334</ele><time>2026-04-26T11:03:56.357Z</time></trkpt><trkpt lat="44.4412676" lon="8.0537801"><ele>756.6666666666667</ele><time>2026-04-26T11:03:57.353Z</time></trkpt><trkpt lat="44.4414087" lon="8.0538701"><ele>760.0</ele><time>2026-04-26T11:03:58.35Z</time></trkpt><trkpt lat="44.4415667" lon="8.0539632"><ele>764.0</ele><time>2026-04-26T11:03:59.348Z</time></trkpt><trkpt lat="44.4417374" lon="8.0540452"><ele>768.0</ele><time>2026-04-26T11:04:00.352Z</time></trkpt><trkpt lat="44.4419108" lon="8.0540934"><ele>772.0</ele><time>2026-04-26T11:04:01.355Z</time></trkpt><trkpt lat="44.4420839" lon="8.0541348"><ele>774.0</ele><time>2026-04-26T11:04:02.364Z</time></trkpt><trkpt lat="44.4422453" lon="8.0542005"><ele>776.0</ele><time>2026-04-26T11:04:03.352Z</time></trkpt><trkpt lat="44.4423953" lon="8.0543654"><ele>778.0</ele><time>2026-04-26T11:04:04.361Z</time></trkpt><trkpt lat="44.4424942" lon="8.0546149"><ele>778.0</ele><time>2026-04-26T11:04:05.345Z</time></trkpt><trkpt lat="44.4426055" lon="8.0548631"><ele>778.0</ele><time>2026-04-26T11:04:06.346Z</time></trkpt><trkpt lat="44.4427435" lon="8.0550796"><ele>778.0</ele><time>2026-04-26T11:04:07.356Z</time></trkpt><trkpt lat="44.4428985" lon="8.0552861"><ele>778.0</ele><time>2026-04-26T11:04:08.339Z</time></trkpt><trkpt lat="44.4430539" lon="8.0554727"><ele>778.0</ele><time>2026-04-26T11:04:09.349Z</time></trkpt><trkpt lat="44.4432307" lon="8.0556405"><ele>778.0</ele><time>2026-04-26T11:04:10.359Z</time></trkpt><trkpt lat="44.4434286" lon="8.055808"><ele>778.0</ele><time>2026-04-26T11:04:11.347Z</time></trkpt><trkpt lat="44.4436157" lon="8.055987"><ele>778.0</ele><time>2026-04-26T11:04:12.354Z</time></trkpt><trkpt lat="44.4437866" lon="8.0561955"><ele>780.0</ele><time>2026-04-26T11:04:13.349Z</time></trkpt><trkpt lat="44.4439372" lon="8.0564192"><ele>782.0</ele><time>2026-04-26T11:04:14.348Z</time></trkpt><trkpt lat="44.4440731" lon="8.05663"><ele>784.0</ele><time>2026-04-26T11:04:15.354Z</time></trkpt><trkpt lat="44.4441819" lon="8.0568613"><ele>784.0</ele><time>2026-04-26T11:04:16.352Z</time></trkpt><trkpt lat="44.4442469" lon="8.0570954"><ele>784.0</ele><time>2026-04-26T11:04:17.352Z</time></trkpt><trkpt lat="44.4442514" lon="8.0573265"><ele>784.0</ele><time>2026-04-26T11:04:18.345Z</time></trkpt><trkpt lat="44.4442006" lon="8.0575347"><ele>784.0</ele><time>2026-04-26T11:04:19.344Z</time></trkpt><trkpt lat="44.444148" lon="8.0577209"><ele>784.0</ele><time>2026-04-26T11:04:20.347Z</time></trkpt><trkpt lat="44.444121" lon="8.0579026"><ele>784.0</ele><time>2026-04-26T11:04:21.354Z</time></trkpt><trkpt lat="44.4441455" lon="8.0580712"><ele>784.0</ele><time>2026-04-26T11:04:22.355Z</time></trkpt><trkpt lat="44.444268" lon="8.0581986"><ele>783.3333333333333</ele><time>2026-04-26T11:04:23.358Z</time></trkpt><trkpt lat="44.4444304" lon="8.0582901"><ele>782.6666666666667</ele><time>2026-04-26T11:04:24.347Z</time></trkpt><trkpt lat="44.444595" lon="8.058371"><ele>782.0</ele><time>2026-04-26T11:04:25.35Z</time></trkpt><trkpt lat="44.4447641" lon="8.0584569"><ele>786.0</ele><time>2026-04-26T11:04:26.351Z</time></trkpt><trkpt lat="44.4449224" lon="8.0585646"><ele>790.0</ele><time>2026-04-26T11:04:27.35Z</time></trkpt><trkpt lat="44.4450514" lon="8.058713"><ele>794.0</ele><time>2026-04-26T11:04:28.358Z</time></trkpt><trkpt lat="44.4451587" lon="8.0589039"><ele>794.0</ele><time>2026-04-26T11:04:29.342Z</time></trkpt><trkpt lat="44.445245" lon="8.0590658"><ele>794.0</ele><time>2026-04-26T11:04:30.343Z</time></trkpt><trkpt lat="44.4453288" lon="8.0591711"><ele>794.0</ele><time>2026-04-26T11:04:31.355Z</time></trkpt><trkpt lat="44.4454432" lon="8.0592442"><ele>794.0</ele><time>2026-04-26T11:04:32.347Z</time></trkpt><trkpt lat="44.4455871" lon="8.0592543"><ele>792.0</ele><time>2026-04-26T11:04:33.347Z</time></trkpt><trkpt lat="44.4457523" lon="8.0592208"><ele>790.0</ele><time>2026-04-26T11:04:34.345Z</time></trkpt><trkpt lat="44.4459227" lon="8.0591876"><ele>788.0</ele><time>2026-04-26T11:04:35.348Z</time></trkpt><trkpt lat="44.4460898" lon="8.0591556"><ele>788.0</ele><time>2026-04-26T11:04:36.358Z</time></trkpt><trkpt lat="44.4462366" lon="8.0591547"><ele>788.0</ele><time>2026-04-26T11:04:37.353Z</time></trkpt><trkpt lat="44.446374" lon="8.0591928"><ele>788.0</ele><time>2026-04-26T11:04:38.352Z</time></trkpt><trkpt lat="44.4464921" lon="8.0592652"><ele>788.0</ele><time>2026-04-26T11:04:39.343Z</time></trkpt><trkpt lat="44.4465721" lon="8.0593163"><ele>788.4</ele><time>2026-04-26T11:04:40.35Z</time></trkpt><trkpt lat="44.4466452" lon="8.0593032"><ele>788.8</ele><time>2026-04-26T11:04:42.349Z</time></trkpt><trkpt lat="44.4467015" lon="8.0592272"><ele>789.2</ele><time>2026-04-26T11:04:44.348Z</time></trkpt><trkpt lat="44.4467423" lon="8.0591054"><ele>789.6</ele><time>2026-04-26T11:04:45.353Z</time></trkpt><trkpt lat="44.4467616" lon="8.0589517"><ele>790.0</ele><time>2026-04-26T11:04:46.342Z</time></trkpt><trkpt lat="44.4467981" lon="8.058779"><ele>790.0</ele><time>2026-04-26T11:04:47.346Z</time></trkpt><trkpt lat="44.446868" lon="8.0585912"><ele>790.0</ele><time>2026-04-26T11:04:48.351Z</time></trkpt><trkpt lat="44.4469566" lon="8.0584154"><ele>790.0</ele><time>2026-04-26T11:04:49.34Z</time></trkpt><trkpt lat="44.4470717" lon="8.0582572"><ele>786.0</ele><time>2026-04-26T11:04:50.346Z</time></trkpt><trkpt lat="44.4472207" lon="8.0581187"><ele>782.0</ele><time>2026-04-26T11:04:51.349Z</time></trkpt><trkpt lat="44.4473747" lon="8.0579696"><ele>778.0</ele><time>2026-04-26T11:04:52.346Z</time></trkpt><trkpt lat="44.4475334" lon="8.0578043"><ele>778.0</ele><time>2026-04-26T11:04:53.336Z</time></trkpt><trkpt lat="44.4476967" lon="8.0576211"><ele>778.0</ele><time>2026-04-26T11:04:54.342Z</time></trkpt><trkpt lat="44.4478515" lon="8.0574242"><ele>778.0</ele><time>2026-04-26T11:04:55.342Z</time></trkpt><trkpt lat="44.4480031" lon="8.0572292"><ele>774.6666666666666</ele><time>2026-04-26T11:04:56.335Z</time></trkpt><trkpt lat="44.4481542" lon="8.0570488"><ele>771.3333333333333</ele><time>2026-04-26T11:04:57.341Z</time></trkpt><trkpt lat="44.4483083" lon="8.0568764"><ele>768.0</ele><time>2026-04-26T11:04:58.339Z</time></trkpt><trkpt lat="44.4484612" lon="8.0567109"><ele>764.3333333333334</ele><time>2026-04-26T11:04:59.345Z</time></trkpt><trkpt lat="44.4486399" lon="8.0565792"><ele>760.6666666666667</ele><time>2026-04-26T11:05:00.343Z</time></trkpt><trkpt lat="44.4488282" lon="8.0564686"><ele>757.0</ele><time>2026-04-26T11:05:01.342Z</time></trkpt><trkpt lat="44.4490305" lon="8.056394"><ele>757.0</ele><time>2026-04-26T11:05:02.345Z</time></trkpt><trkpt lat="44.4492215" lon="8.0563464"><ele>757.0</ele><time>2026-04-26T11:05:03.338Z</time></trkpt><trkpt lat="44.449416" lon="8.0562817"><ele>757.0</ele><time>2026-04-26T11:05:04.341Z</time></trkpt><trkpt lat="44.4496094" lon="8.0561836"><ele>758.0</ele><time>2026-04-26T11:05:05.347Z</time></trkpt><trkpt lat="44.4498065" lon="8.0560677"><ele>759.0</ele><time>2026-04-26T11:05:06.342Z</time></trkpt><trkpt lat="44.4500021" lon="8.0559527"><ele>760.0</ele><time>2026-04-26T11:05:07.351Z</time></trkpt><trkpt lat="44.4501929" lon="8.0558388"><ele>759.3333333333334</ele><time>2026-04-26T11:05:08.344Z</time></trkpt><trkpt lat="44.4503669" lon="8.0557063"><ele>758.6666666666666</ele><time>2026-04-26T11:05:09.343Z</time></trkpt><trkpt lat="44.450537" lon="8.055528"><ele>758.0</ele><time>2026-04-26T11:05:10.351Z</time></trkpt><trkpt lat="44.4506748" lon="8.0553181"><ele>758.0</ele><time>2026-04-26T11:05:11.353Z</time></trkpt><trkpt lat="44.4508049" lon="8.0550943"><ele>758.0</ele><time>2026-04-26T11:05:12.36Z</time></trkpt><trkpt lat="44.4509328" lon="8.0548497"><ele>758.0</ele><time>2026-04-26T11:05:13.349Z</time></trkpt><trkpt lat="44.4510292" lon="8.0545865"><ele>756.6666666666666</ele><time>2026-04-26T11:05:14.348Z</time></trkpt><trkpt lat="44.451088" lon="8.0542962"><ele>755.3333333333334</ele><time>2026-04-26T11:05:15.353Z</time></trkpt><trkpt lat="44.4511345" lon="8.054018"><ele>754.0</ele><time>2026-04-26T11:05:16.364Z</time></trkpt><trkpt lat="44.4511696" lon="8.0537492"><ele>753.0</ele><time>2026-04-26T11:05:17.35Z</time></trkpt><trkpt lat="44.4512196" lon="8.0534871"><ele>752.0</ele><time>2026-04-26T11:05:18.358Z</time></trkpt><trkpt lat="44.4513043" lon="8.0532477"><ele>751.0</ele><time>2026-04-26T11:05:19.361Z</time></trkpt><trkpt lat="44.4514212" lon="8.0530348"><ele>753.3333333333334</ele><time>2026-04-26T11:05:20.348Z</time></trkpt><trkpt lat="44.4515447" lon="8.0528188"><ele>755.6666666666666</ele><time>2026-04-26T11:05:21.344Z</time></trkpt><trkpt lat="44.4516581" lon="8.0526027"><ele>758.0</ele><time>2026-04-26T11:05:22.348Z</time></trkpt><trkpt lat="44.4517681" lon="8.0523764"><ele>758.0</ele><time>2026-04-26T11:05:23.349Z</time></trkpt><trkpt lat="44.451842" lon="8.0521314"><ele>758.0</ele><time>2026-04-26T11:05:24.345Z</time></trkpt><trkpt lat="44.4519031" lon="8.0518825"><ele>758.0</ele><time>2026-04-26T11:05:25.349Z</time></trkpt><trkpt lat="44.4519581" lon="8.0516395"><ele>760.6666666666666</ele><time>2026-04-26T11:05:26.348Z</time></trkpt><trkpt lat="44.4520368" lon="8.0514194"><ele>763.3333333333334</ele><time>2026-04-26T11:05:27.345Z</time></trkpt><trkpt lat="44.4521608" lon="8.0512404"><ele>766.0</ele><time>2026-04-26T11:05:28.355Z</time></trkpt><trkpt lat="44.45231" lon="8.0511031"><ele>766.0</ele><time>2026-04-26T11:05:29.354Z</time></trkpt><trkpt lat="44.4524697" lon="8.051012"><ele>766.0</ele><time>2026-04-26T11:05:30.346Z</time></trkpt><trkpt lat="44.4526421" lon="8.0509634"><ele>766.0</ele><time>2026-04-26T11:05:31.362Z</time></trkpt><trkpt lat="44.4528276" lon="8.050959"><ele>769.3333333333334</ele><time>2026-04-26T11:05:32.35Z</time></trkpt><trkpt lat="44.4530009" lon="8.0509495"><ele>772.6666666666667</ele><time>2026-04-26T11:05:33.35Z</time></trkpt><trkpt lat="44.4531801" lon="8.0509201"><ele>776.0</ele><time>2026-04-26T11:05:34.353Z</time></trkpt><trkpt lat="44.4533624" lon="8.0508608"><ele>774.3333333333334</ele><time>2026-04-26T11:05:35.355Z</time></trkpt><trkpt lat="44.4535354" lon="8.0507659"><ele>772.6666666666667</ele><time>2026-04-26T11:05:36.353Z</time></trkpt><trkpt lat="44.4536962" lon="8.0506504"><ele>771.0</ele><time>2026-04-26T11:05:37.356Z</time></trkpt><trkpt lat="44.4538379" lon="8.050508"><ele>771.0</ele><time>2026-04-26T11:05:38.344Z</time></trkpt><trkpt lat="44.453943" lon="8.0503458"><ele>771.0</ele><time>2026-04-26T11:05:39.35Z</time></trkpt><trkpt lat="44.4540278" lon="8.050179"><ele>771.0</ele><time>2026-04-26T11:05:40.347Z</time></trkpt><trkpt lat="44.4541098" lon="8.050021"><ele>771.0</ele><time>2026-04-26T11:05:41.348Z</time></trkpt><trkpt lat="44.4541817" lon="8.0498317"><ele>768.6666666666666</ele><time>2026-04-26T11:05:42.361Z</time></trkpt><trkpt lat="44.4542633" lon="8.0496281"><ele>766.3333333333333</ele><time>2026-04-26T11:05:43.358Z</time></trkpt><trkpt lat="44.4543437" lon="8.0494047"><ele>764.0</ele><time>2026-04-26T11:05:44.357Z</time></trkpt><trkpt lat="44.454428" lon="8.0491583"><ele>765.3333333333333</ele><time>2026-04-26T11:05:45.347Z</time></trkpt><trkpt lat="44.4545244" lon="8.048899"><ele>766.6666666666666</ele><time>2026-04-26T11:05:46.355Z</time></trkpt><trkpt lat="44.4546369" lon="8.0486468"><ele>768.0</ele><time>2026-04-26T11:05:47.356Z</time></trkpt><trkpt lat="44.4547553" lon="8.0483966"><ele>767.0</ele><time>2026-04-26T11:05:48.353Z</time></trkpt><trkpt lat="44.4548719" lon="8.048143"><ele>766.0</ele><time>2026-04-26T11:05:49.346Z</time></trkpt><trkpt lat="44.4549507" lon="8.047878"><ele>765.0</ele><time>2026-04-26T11:05:50.365Z</time></trkpt><trkpt lat="44.4550186" lon="8.0476045"><ele>763.0</ele><time>2026-04-26T11:05:51.352Z</time></trkpt><trkpt lat="44.4550629" lon="8.0473365"><ele>761.0</ele><time>2026-04-26T11:05:52.348Z</time></trkpt><trkpt lat="44.4551097" lon="8.0470799"><ele>759.0</ele><time>2026-04-26T11:05:53.347Z</time></trkpt><trkpt lat="44.4551732" lon="8.0468438"><ele>759.0</ele><time>2026-04-26T11:05:54.346Z</time></trkpt><trkpt lat="44.4552977" lon="8.0466345"><ele>759.0</ele><time>2026-04-26T11:05:55.342Z</time></trkpt><trkpt lat="44.4554485" lon="8.0464882"><ele>759.0</ele><time>2026-04-26T11:05:56.352Z</time></trkpt><trkpt lat="44.4556122" lon="8.0463677"><ele>759.0</ele><time>2026-04-26T11:05:57.343Z</time></trkpt><trkpt lat="44.4557605" lon="8.0462389"><ele>759.0</ele><time>2026-04-26T11:05:58.36Z</time></trkpt><trkpt lat="44.4558978" lon="8.0460742"><ele>759.0</ele><time>2026-04-26T11:05:59.356Z</time></trkpt><trkpt lat="44.4560089" lon="8.0458495"><ele>756.0</ele><time>2026-04-26T11:06:00.353Z</time></trkpt><trkpt lat="44.4561208" lon="8.0455941"><ele>753.0</ele><time>2026-04-26T11:06:01.343Z</time></trkpt><trkpt lat="44.4562433" lon="8.0453181"><ele>750.0</ele><time>2026-04-26T11:06:02.34Z</time></trkpt><trkpt lat="44.4563715" lon="8.0450384"><ele>756.0</ele><time>2026-04-26T11:06:03.353Z</time></trkpt><trkpt lat="44.4565044" lon="8.0447788"><ele>762.0</ele><time>2026-04-26T11:06:04.345Z</time></trkpt><trkpt lat="44.4566347" lon="8.0445255"><ele>762.0</ele><time>2026-04-26T11:06:05.346Z</time></trkpt><trkpt lat="44.4567579" lon="8.0442809"><ele>762.0</ele><time>2026-04-26T11:06:06.341Z</time></trkpt><trkpt lat="44.4568598" lon="8.0440427"><ele>762.0</ele><time>2026-04-26T11:06:07.348Z</time></trkpt><trkpt lat="44.4569238" lon="8.0437913"><ele>763.6666666666666</ele><time>2026-04-26T11:06:08.345Z</time></trkpt><trkpt lat="44.4569781" lon="8.0435267"><ele>765.3333333333333</ele><time>2026-04-26T11:06:09.349Z</time></trkpt><trkpt lat="44.4570598" lon="8.0432786"><ele>767.0</ele><time>2026-04-26T11:06:10.344Z</time></trkpt><trkpt lat="44.457181" lon="8.0430452"><ele>767.0</ele><time>2026-04-26T11:06:11.348Z</time></trkpt><trkpt lat="44.4573157" lon="8.0428194"><ele>767.0</ele><time>2026-04-26T11:06:12.351Z</time></trkpt><trkpt lat="44.4574596" lon="8.0426132"><ele>767.0</ele><time>2026-04-26T11:06:13.347Z</time></trkpt><trkpt lat="44.4576148" lon="8.0424182"><ele>769.3333333333333</ele><time>2026-04-26T11:06:14.348Z</time></trkpt><trkpt lat="44.4577649" lon="8.0422445"><ele>771.6666666666666</ele><time>2026-04-26T11:06:15.35Z</time></trkpt><trkpt lat="44.4579088" lon="8.0420732"><ele>774.0</ele><time>2026-04-26T11:06:16.354Z</time></trkpt><trkpt lat="44.4580365" lon="8.0418721"><ele>774.0</ele><time>2026-04-26T11:06:17.354Z</time></trkpt><trkpt lat="44.4581502" lon="8.041663"><ele>774.0</ele><time>2026-04-26T11:06:18.351Z</time></trkpt><trkpt lat="44.4582525" lon="8.0414163"><ele>774.0</ele><time>2026-04-26T11:06:19.35Z</time></trkpt><trkpt lat="44.4583524" lon="8.04117"><ele>775.0</ele><time>2026-04-26T11:06:20.348Z</time></trkpt><trkpt lat="44.4584177" lon="8.0409001"><ele>776.0</ele><time>2026-04-26T11:06:21.355Z</time></trkpt><trkpt lat="44.4584465" lon="8.040614"><ele>777.0</ele><time>2026-04-26T11:06:22.34Z</time></trkpt><trkpt lat="44.4584651" lon="8.0403389"><ele>778.0</ele><time>2026-04-26T11:06:23.35Z</time></trkpt><trkpt lat="44.4584606" lon="8.0400712"><ele>779.0</ele><time>2026-04-26T11:06:24.347Z</time></trkpt><trkpt lat="44.4584043" lon="8.0398001"><ele>780.0</ele><time>2026-04-26T11:06:25.346Z</time></trkpt><trkpt lat="44.4583227" lon="8.0395297"><ele>783.0</ele><time>2026-04-26T11:06:26.344Z</time></trkpt><trkpt lat="44.4582367" lon="8.0392697"><ele>786.0</ele><time>2026-04-26T11:06:27.35Z</time></trkpt><trkpt lat="44.4581634" lon="8.0390055"><ele>789.0</ele><time>2026-04-26T11:06:28.344Z</time></trkpt><trkpt lat="44.4581204" lon="8.0387509"><ele>789.6666666666667</ele><time>2026-04-26T11:06:29.342Z</time></trkpt><trkpt lat="44.4581204" lon="8.0385221"><ele>790.3333333333334</ele><time>2026-04-26T11:06:30.344Z</time></trkpt><trkpt lat="44.4581727" lon="8.0383266"><ele>791.0</ele><time>2026-04-26T11:06:31.346Z</time></trkpt><trkpt lat="44.4582712" lon="8.0381687"><ele>786.6666666666667</ele><time>2026-04-26T11:06:32.341Z</time></trkpt><trkpt lat="44.4584107" lon="8.038103"><ele>782.3333333333333</ele><time>2026-04-26T11:06:33.345Z</time></trkpt><trkpt lat="44.45857" lon="8.0380873"><ele>778.0</ele><time>2026-04-26T11:06:34.345Z</time></trkpt><trkpt lat="44.4587444" lon="8.0381094"><ele>778.6666666666666</ele><time>2026-04-26T11:06:35.345Z</time></trkpt><trkpt lat="44.4589394" lon="8.0381453"><ele>779.3333333333333</ele><time>2026-04-26T11:06:36.346Z</time></trkpt><trkpt lat="44.4591348" lon="8.0381804"><ele>780.0</ele><time>2026-04-26T11:06:37.355Z</time></trkpt><trkpt lat="44.4593531" lon="8.0381942"><ele>780.0</ele><time>2026-04-26T11:06:38.367Z</time></trkpt><trkpt lat="44.4595675" lon="8.0381477"><ele>780.0</ele><time>2026-04-26T11:06:39.351Z</time></trkpt><trkpt lat="44.4597777" lon="8.0380887"><ele>780.0</ele><time>2026-04-26T11:06:40.351Z</time></trkpt><trkpt lat="44.4599819" lon="8.0379785"><ele>783.0</ele><time>2026-04-26T11:06:41.355Z</time></trkpt><trkpt lat="44.4601808" lon="8.037845"><ele>786.0</ele><time>2026-04-26T11:06:42.347Z</time></trkpt><trkpt lat="44.4603613" lon="8.0376577"><ele>789.0</ele><time>2026-04-26T11:06:43.354Z</time></trkpt><trkpt lat="44.4605268" lon="8.0374318"><ele>791.0</ele><time>2026-04-26T11:06:44.36Z</time></trkpt><trkpt lat="44.4606648" lon="8.0372035"><ele>793.0</ele><time>2026-04-26T11:06:45.351Z</time></trkpt><trkpt lat="44.4607663" lon="8.0369733"><ele>795.0</ele><time>2026-04-26T11:06:46.343Z</time></trkpt><trkpt lat="44.4608565" lon="8.0367661"><ele>791.6666666666667</ele><time>2026-04-26T11:06:47.348Z</time></trkpt><trkpt lat="44.4609418" lon="8.0366027"><ele>788.3333333333334</ele><time>2026-04-26T11:06:48.348Z</time></trkpt><trkpt lat="44.4610668" lon="8.0365021"><ele>785.0</ele><time>2026-04-26T11:06:49.355Z</time></trkpt><trkpt lat="44.4612414" lon="8.036444"><ele>784.0</ele><time>2026-04-26T11:06:50.35Z</time></trkpt><trkpt lat="44.461425" lon="8.0364025"><ele>783.0</ele><time>2026-04-26T11:06:51.351Z</time></trkpt><trkpt lat="44.4616168" lon="8.0363518"><ele>782.0</ele><time>2026-04-26T11:06:52.353Z</time></trkpt><trkpt lat="44.4617899" lon="8.0362771"><ele>782.0</ele><time>2026-04-26T11:06:53.348Z</time></trkpt><trkpt lat="44.461956" lon="8.0361953"><ele>782.0</ele><time>2026-04-26T11:06:54.354Z</time></trkpt><trkpt lat="44.462122" lon="8.0361174"><ele>782.0</ele><time>2026-04-26T11:06:55.35Z</time></trkpt><trkpt lat="44.4622884" lon="8.0360259"><ele>782.6666666666667</ele><time>2026-04-26T11:06:56.346Z</time></trkpt><trkpt lat="44.4624523" lon="8.0359427"><ele>783.3333333333333</ele><time>2026-04-26T11:06:57.348Z</time></trkpt><trkpt lat="44.4626218" lon="8.0358711"><ele>784.0</ele><time>2026-04-26T11:06:58.342Z</time></trkpt><trkpt lat="44.4627869" lon="8.0358207"><ele>778.5</ele><time>2026-04-26T11:06:59.348Z</time></trkpt><trkpt lat="44.4629385" lon="8.0358"><ele>773.0</ele><time>2026-04-26T11:07:00.345Z</time></trkpt><trkpt lat="44.46308" lon="8.0357944"><ele>767.5</ele><time>2026-04-26T11:07:01.349Z</time></trkpt><trkpt lat="44.4632252" lon="8.0357825"><ele>762.0</ele><time>2026-04-26T11:07:02.354Z</time></trkpt><trkpt lat="44.4633661" lon="8.0357391"><ele>762.0</ele><time>2026-04-26T11:07:03.346Z</time></trkpt><trkpt lat="44.4635091" lon="8.0356951"><ele>762.0</ele><time>2026-04-26T11:07:04.346Z</time></trkpt><trkpt lat="44.4636462" lon="8.0356079"><ele>762.0</ele><time>2026-04-26T11:07:05.346Z</time></trkpt><trkpt lat="44.463791" lon="8.0355059"><ele>764.3333333333333</ele><time>2026-04-26T11:07:06.345Z</time></trkpt><trkpt lat="44.4639372" lon="8.0354033"><ele>766.6666666666666</ele><time>2026-04-26T11:07:07.349Z</time></trkpt><trkpt lat="44.4640918" lon="8.0352992"><ele>769.0</ele><time>2026-04-26T11:07:08.348Z</time></trkpt><trkpt lat="44.4642499" lon="8.0352041"><ele>769.0</ele><time>2026-04-26T11:07:09.343Z</time></trkpt><trkpt lat="44.4644023" lon="8.0351098"><ele>769.0</ele><time>2026-04-26T11:07:10.345Z</time></trkpt><trkpt lat="44.4645459" lon="8.0350148"><ele>769.0</ele><time>2026-04-26T11:07:11.348Z</time></trkpt><trkpt lat="44.4646809" lon="8.0349178"><ele>766.6666666666666</ele><time>2026-04-26T11:07:12.348Z</time></trkpt><trkpt lat="44.4648151" lon="8.0348206"><ele>764.3333333333333</ele><time>2026-04-26T11:07:13.348Z</time></trkpt><trkpt lat="44.4649584" lon="8.0347274"><ele>762.0</ele><time>2026-04-26T11:07:14.348Z</time></trkpt><trkpt lat="44.4651052" lon="8.0346263"><ele>762.0</ele><time>2026-04-26T11:07:15.346Z</time></trkpt><trkpt lat="44.4652497" lon="8.0345107"><ele>762.0</ele><time>2026-04-26T11:07:16.355Z</time></trkpt><trkpt lat="44.4653883" lon="8.0343903"><ele>762.0</ele><time>2026-04-26T11:07:17.354Z</time></trkpt><trkpt lat="44.4655151" lon="8.0342539"><ele>762.3333333333334</ele><time>2026-04-26T11:07:18.365Z</time></trkpt><trkpt lat="44.4656444" lon="8.0341037"><ele>762.6666666666667</ele><time>2026-04-26T11:07:19.359Z</time></trkpt><trkpt lat="44.4657736" lon="8.0339483"><ele>763.0</ele><time>2026-04-26T11:07:20.345Z</time></trkpt><trkpt lat="44.4659061" lon="8.0338011"><ele>763.0</ele><time>2026-04-26T11:07:21.345Z</time></trkpt><trkpt lat="44.4660405" lon="8.0336422"><ele>763.0</ele><time>2026-04-26T11:07:22.352Z</time></trkpt><trkpt lat="44.4661981" lon="8.0335114"><ele>763.0</ele><time>2026-04-26T11:07:23.356Z</time></trkpt><trkpt lat="44.4663646" lon="8.0334281"><ele>764.3333333333334</ele><time>2026-04-26T11:07:24.353Z</time></trkpt><trkpt lat="44.4665194" lon="8.0333796"><ele>765.6666666666666</ele><time>2026-04-26T11:07:25.341Z</time></trkpt><trkpt lat="44.4666733" lon="8.0333219"><ele>767.0</ele><time>2026-04-26T11:07:26.354Z</time></trkpt><trkpt lat="44.466829" lon="8.0332518"><ele>767.0</ele><time>2026-04-26T11:07:27.346Z</time></trkpt><trkpt lat="44.4669897" lon="8.0331809"><ele>767.0</ele><time>2026-04-26T11:07:28.356Z</time></trkpt><trkpt lat="44.4671414" lon="8.0331049"><ele>767.0</ele><time>2026-04-26T11:07:29.352Z</time></trkpt><trkpt lat="44.4672876" lon="8.0330316"><ele>771.6666666666666</ele><time>2026-04-26T11:07:30.35Z</time></trkpt><trkpt lat="44.4674258" lon="8.0329514"><ele>776.3333333333333</ele><time>2026-04-26T11:07:31.358Z</time></trkpt><trkpt lat="44.4675665" lon="8.0328583"><ele>781.0</ele><time>2026-04-26T11:07:32.354Z</time></trkpt><trkpt lat="44.4677085" lon="8.0327791"><ele>781.0</ele><time>2026-04-26T11:07:33.355Z</time></trkpt><trkpt lat="44.4678547" lon="8.0326967"><ele>781.0</ele><time>2026-04-26T11:07:34.349Z</time></trkpt><trkpt lat="44.468004" lon="8.0326265"><ele>781.0</ele><time>2026-04-26T11:07:35.352Z</time></trkpt><trkpt lat="44.4681524" lon="8.0325898"><ele>779.75</ele><time>2026-04-26T11:07:36.352Z</time></trkpt><trkpt lat="44.4682969" lon="8.0325697"><ele>778.5</ele><time>2026-04-26T11:07:37.351Z</time></trkpt><trkpt lat="44.4684075" lon="8.0326039"><ele>777.25</ele><time>2026-04-26T11:07:38.357Z</time></trkpt><trkpt lat="44.4685263" lon="8.0326962"><ele>776.0</ele><time>2026-04-26T11:07:39.348Z</time></trkpt><trkpt lat="44.4686043" lon="8.0328578"><ele>776.0</ele><time>2026-04-26T11:07:40.35Z</time></trkpt><trkpt lat="44.4686474" lon="8.0330441"><ele>776.0</ele><time>2026-04-26T11:07:41.361Z</time></trkpt><trkpt lat="44.4686645" lon="8.0332189"><ele>776.0</ele><time>2026-04-26T11:07:42.348Z</time></trkpt><trkpt lat="44.4686665" lon="8.0334042"><ele>776.0</ele><time>2026-04-26T11:07:43.349Z</time></trkpt><trkpt lat="44.4686676" lon="8.0335907"><ele>775.5</ele><time>2026-04-26T11:07:44.366Z</time></trkpt><trkpt lat="44.4686797" lon="8.0337555"><ele>775.0</ele><time>2026-04-26T11:07:45.358Z</time></trkpt><trkpt lat="44.4687068" lon="8.0339025"><ele>774.5</ele><time>2026-04-26T11:07:46.348Z</time></trkpt><trkpt lat="44.4687809" lon="8.0340287"><ele>774.0</ele><time>2026-04-26T11:07:47.348Z</time></trkpt><trkpt lat="44.4688926" lon="8.0341285"><ele>773.25</ele><time>2026-04-26T11:07:48.346Z</time></trkpt><trkpt lat="44.4690034" lon="8.0342211"><ele>772.5</ele><time>2026-04-26T11:07:49.345Z</time></trkpt><trkpt lat="44.4691118" lon="8.0343361"><ele>771.75</ele><time>2026-04-26T11:07:50.347Z</time></trkpt><trkpt lat="44.4692056" lon="8.0344892"><ele>771.0</ele><time>2026-04-26T11:07:51.357Z</time></trkpt><trkpt lat="44.4692814" lon="8.0346819"><ele>771.0</ele><time>2026-04-26T11:07:52.346Z</time></trkpt><trkpt lat="44.4693365" lon="8.034924"><ele>771.0</ele><time>2026-04-26T11:07:53.349Z</time></trkpt><trkpt lat="44.4693791" lon="8.0351786"><ele>771.0</ele><time>2026-04-26T11:07:54.363Z</time></trkpt><trkpt lat="44.4694153" lon="8.0354328"><ele>769.0</ele><time>2026-04-26T11:07:55.349Z</time></trkpt><trkpt lat="44.4694534" lon="8.035698"><ele>767.0</ele><time>2026-04-26T11:07:56.35Z</time></trkpt><trkpt lat="44.4695125" lon="8.0359679"><ele>765.0</ele><time>2026-04-26T11:07:57.357Z</time></trkpt><trkpt lat="44.4695916" lon="8.0362409"><ele>762.0</ele><time>2026-04-26T11:07:58.347Z</time></trkpt><trkpt lat="44.4697096" lon="8.0365041"><ele>759.0</ele><time>2026-04-26T11:07:59.357Z</time></trkpt><trkpt lat="44.4698546" lon="8.0367713"><ele>759.0</ele><time>2026-04-26T11:08:00.351Z</time></trkpt><trkpt lat="44.4700077" lon="8.0370292"><ele>759.0</ele><time>2026-04-26T11:08:01.351Z</time></trkpt><trkpt lat="44.4701545" lon="8.037305"><ele>758.5</ele><time>2026-04-26T11:08:02.355Z</time></trkpt><trkpt lat="44.470303" lon="8.0375818"><ele>758.0</ele><time>2026-04-26T11:08:03.356Z</time></trkpt><trkpt lat="44.4704507" lon="8.0378502"><ele>757.0</ele><time>2026-04-26T11:08:04.349Z</time></trkpt><trkpt lat="44.4706022" lon="8.0381062"><ele>756.0</ele><time>2026-04-26T11:08:05.353Z</time></trkpt><trkpt lat="44.4707703" lon="8.0383351"><ele>756.0</ele><time>2026-04-26T11:08:06.35Z</time></trkpt><trkpt lat="44.4709777" lon="8.0385189"><ele>756.0</ele><time>2026-04-26T11:08:07.354Z</time></trkpt><trkpt lat="44.4711866" lon="8.0386786"><ele>753.5</ele><time>2026-04-26T11:08:08.354Z</time></trkpt><trkpt lat="44.4713999" lon="8.0388296"><ele>751.0</ele><time>2026-04-26T11:08:09.351Z</time></trkpt><trkpt lat="44.471613" lon="8.0389928"><ele>753.5</ele><time>2026-04-26T11:08:10.351Z</time></trkpt><trkpt lat="44.4718146" lon="8.0391846"><ele>756.0</ele><time>2026-04-26T11:08:11.352Z</time></trkpt><trkpt lat="44.4719961" lon="8.0393893"><ele>751.0</ele><time>2026-04-26T11:08:12.369Z</time></trkpt><trkpt lat="44.4721589" lon="8.0396259"><ele>746.0</ele><time>2026-04-26T11:08:13.351Z</time></trkpt><trkpt lat="44.4723125" lon="8.0398492"><ele>750.0</ele><time>2026-04-26T11:08:14.352Z</time></trkpt><trkpt lat="44.4724679" lon="8.0400602"><ele>754.0</ele><time>2026-04-26T11:08:15.352Z</time></trkpt><trkpt lat="44.4726187" lon="8.0402757"><ele>758.0</ele><time>2026-04-26T11:08:16.353Z</time></trkpt><trkpt lat="44.4727726" lon="8.0404893"><ele>758.0</ele><time>2026-04-26T11:08:17.351Z</time></trkpt><trkpt lat="44.472929" lon="8.0407009"><ele>758.0</ele><time>2026-04-26T11:08:18.349Z</time></trkpt><trkpt lat="44.4730841" lon="8.0409185"><ele>758.0</ele><time>2026-04-26T11:08:19.353Z</time></trkpt><trkpt lat="44.4732468" lon="8.0411238"><ele>757.3333333333333</ele><time>2026-04-26T11:08:20.347Z</time></trkpt><trkpt lat="44.4734333" lon="8.041279"><ele>756.6666666666666</ele><time>2026-04-26T11:08:21.363Z</time></trkpt><trkpt lat="44.4736333" lon="8.0414123"><ele>756.0</ele><time>2026-04-26T11:08:22.354Z</time></trkpt><trkpt lat="44.4738431" lon="8.041546"><ele>755.0</ele><time>2026-04-26T11:08:23.352Z</time></trkpt><trkpt lat="44.4740515" lon="8.0416934"><ele>754.0</ele><time>2026-04-26T11:08:24.35Z</time></trkpt><trkpt lat="44.4742512" lon="8.0418577"><ele>754.0</ele><time>2026-04-26T11:08:25.346Z</time></trkpt><trkpt lat="44.4744405" lon="8.0420431"><ele>754.0</ele><time>2026-04-26T11:08:26.352Z</time></trkpt><trkpt lat="44.4746215" lon="8.0422686"><ele>754.0</ele><time>2026-04-26T11:08:27.356Z</time></trkpt><trkpt lat="44.4747948" lon="8.0424982"><ele>754.0</ele><time>2026-04-26T11:08:28.346Z</time></trkpt><trkpt lat="44.4749601" lon="8.0427356"><ele>754.0</ele><time>2026-04-26T11:08:29.348Z</time></trkpt><trkpt lat="44.4751384" lon="8.0429652"><ele>754.0</ele><time>2026-04-26T11:08:30.352Z</time></trkpt><trkpt lat="44.4753138" lon="8.0432057"><ele>750.5</ele><time>2026-04-26T11:08:31.353Z</time></trkpt><trkpt lat="44.4754856" lon="8.0434444"><ele>747.0</ele><time>2026-04-26T11:08:32.363Z</time></trkpt><trkpt lat="44.475658" lon="8.04369"><ele>747.0</ele><time>2026-04-26T11:08:33.352Z</time></trkpt><trkpt lat="44.4758355" lon="8.0439315"><ele>747.0</ele><time>2026-04-26T11:08:34.346Z</time></trkpt><trkpt lat="44.4760219" lon="8.0441581"><ele>745.5</ele><time>2026-04-26T11:08:35.353Z</time></trkpt><trkpt lat="44.4762206" lon="8.0443795"><ele>744.0</ele><time>2026-04-26T11:08:36.35Z</time></trkpt><trkpt lat="44.4764224" lon="8.0445882"><ele>744.0</ele><time>2026-04-26T11:08:37.352Z</time></trkpt><trkpt lat="44.4766265" lon="8.0447903"><ele>744.0</ele><time>2026-04-26T11:08:38.353Z</time></trkpt><trkpt lat="44.4768272" lon="8.0449829"><ele>746.5</ele><time>2026-04-26T11:08:39.352Z</time></trkpt><trkpt lat="44.4770291" lon="8.0451592"><ele>749.0</ele><time>2026-04-26T11:08:40.349Z</time></trkpt><trkpt lat="44.4772371" lon="8.0453094"><ele>749.0</ele><time>2026-04-26T11:08:41.354Z</time></trkpt><trkpt lat="44.4774528" lon="8.0454485"><ele>749.0</ele><time>2026-04-26T11:08:42.343Z</time></trkpt><trkpt lat="44.4776623" lon="8.0455766"><ele>749.0</ele><time>2026-04-26T11:08:43.355Z</time></trkpt><trkpt lat="44.4778685" lon="8.045701"><ele>749.0</ele><time>2026-04-26T11:08:44.346Z</time></trkpt><trkpt lat="44.4780735" lon="8.0458217"><ele>749.0</ele><time>2026-04-26T11:08:45.357Z</time></trkpt><trkpt lat="44.4782664" lon="8.0459369"><ele>750.0</ele><time>2026-04-26T11:08:46.357Z</time></trkpt><trkpt lat="44.4784468" lon="8.0460534"><ele>751.0</ele><time>2026-04-26T11:08:47.354Z</time></trkpt><trkpt lat="44.47863" lon="8.0461336"><ele>752.0</ele><time>2026-04-26T11:08:48.349Z</time></trkpt><trkpt lat="44.4788206" lon="8.0461798"><ele>752.0</ele><time>2026-04-26T11:08:49.353Z</time></trkpt><trkpt lat="44.4790244" lon="8.0461867"><ele>752.0</ele><time>2026-04-26T11:08:50.35Z</time></trkpt><trkpt lat="44.4792256" lon="8.0461698"><ele>752.0</ele><time>2026-04-26T11:08:51.344Z</time></trkpt><trkpt lat="44.4794303" lon="8.0461561"><ele>752.3333333333333</ele><time>2026-04-26T11:08:52.348Z</time></trkpt><trkpt lat="44.4796319" lon="8.0461291"><ele>752.6666666666666</ele><time>2026-04-26T11:08:53.349Z</time></trkpt><trkpt lat="44.4798279" lon="8.0461108"><ele>753.0</ele><time>2026-04-26T11:08:54.367Z</time></trkpt><trkpt lat="44.4800147" lon="8.0460956"><ele>753.0</ele><time>2026-04-26T11:08:55.354Z</time></trkpt><trkpt lat="44.4802131" lon="8.0460829"><ele>753.0</ele><time>2026-04-26T11:08:56.349Z</time></trkpt><trkpt lat="44.4804089" lon="8.0460681"><ele>753.0</ele><time>2026-04-26T11:08:57.368Z</time></trkpt><trkpt lat="44.4805836" lon="8.0460586"><ele>753.0</ele><time>2026-04-26T11:08:58.349Z</time></trkpt><trkpt lat="44.4807502" lon="8.0460568"><ele>753.0</ele><time>2026-04-26T11:08:59.357Z</time></trkpt><trkpt lat="44.480904" lon="8.0460853"><ele>753.0</ele><time>2026-04-26T11:09:00.353Z</time></trkpt><trkpt lat="44.4810475" lon="8.0461588"><ele>753.0</ele><time>2026-04-26T11:09:01.356Z</time></trkpt><trkpt lat="44.4811888" lon="8.0462546"><ele>753.0</ele><time>2026-04-26T11:09:02.348Z</time></trkpt><trkpt lat="44.4813341" lon="8.0463431"><ele>753.0</ele><time>2026-04-26T11:09:03.359Z</time></trkpt><trkpt lat="44.4814807" lon="8.0464333"><ele>752.75</ele><time>2026-04-26T11:09:04.352Z</time></trkpt><trkpt lat="44.4816334" lon="8.046512"><ele>752.5</ele><time>2026-04-26T11:09:05.356Z</time></trkpt><trkpt lat="44.4817767" lon="8.0465212"><ele>752.25</ele><time>2026-04-26T11:09:06.353Z</time></trkpt><trkpt lat="44.4819149" lon="8.0464784"><ele>752.0</ele><time>2026-04-26T11:09:07.352Z</time></trkpt><trkpt lat="44.4820616" lon="8.0463794"><ele>753.3333333333333</ele><time>2026-04-26T11:09:08.348Z</time></trkpt><trkpt lat="44.4822188" lon="8.0462501"><ele>754.6666666666666</ele><time>2026-04-26T11:09:09.349Z</time></trkpt><trkpt lat="44.4824069" lon="8.0461074"><ele>756.0</ele><time>2026-04-26T11:09:10.356Z</time></trkpt><trkpt lat="44.48263" lon="8.0459531"><ele>758.5</ele><time>2026-04-26T11:09:11.354Z</time></trkpt><trkpt lat="44.4828577" lon="8.0457831"><ele>761.0</ele><time>2026-04-26T11:09:12.343Z</time></trkpt><trkpt lat="44.4830698" lon="8.0456265"><ele>761.0</ele><time>2026-04-26T11:09:13.347Z</time></trkpt><trkpt lat="44.4832589" lon="8.0454905"><ele>761.0</ele><time>2026-04-26T11:09:14.354Z</time></trkpt><trkpt lat="44.4834312" lon="8.0454207"><ele>761.0</ele><time>2026-04-26T11:09:15.356Z</time></trkpt><trkpt lat="44.4836094" lon="8.0454434"><ele>764.0</ele><time>2026-04-26T11:09:16.346Z</time></trkpt><trkpt lat="44.4837947" lon="8.0455344"><ele>767.0</ele><time>2026-04-26T11:09:17.35Z</time></trkpt><trkpt lat="44.4839817" lon="8.0456478"><ele>770.0</ele><time>2026-04-26T11:09:18.359Z</time></trkpt><trkpt lat="44.4841476" lon="8.0457351"><ele>770.0</ele><time>2026-04-26T11:09:19.353Z</time></trkpt><trkpt lat="44.484301" lon="8.0457981"><ele>770.0</ele><time>2026-04-26T11:09:20.346Z</time></trkpt><trkpt lat="44.4844218" lon="8.0457942"><ele>770.0</ele><time>2026-04-26T11:09:21.347Z</time></trkpt><trkpt lat="44.4845455" lon="8.0457436"><ele>770.0</ele><time>2026-04-26T11:09:22.344Z</time></trkpt><trkpt lat="44.4846634" lon="8.0456003"><ele>767.6666666666667</ele><time>2026-04-26T11:09:23.347Z</time></trkpt><trkpt lat="44.48477" lon="8.0454019"><ele>765.3333333333334</ele><time>2026-04-26T11:09:24.344Z</time></trkpt><trkpt lat="44.4848573" lon="8.0452199"><ele>763.0</ele><time>2026-04-26T11:09:25.349Z</time></trkpt><trkpt lat="44.484962" lon="8.0450523"><ele>765.6666666666667</ele><time>2026-04-26T11:09:26.36Z</time></trkpt><trkpt lat="44.4851152" lon="8.0449495"><ele>768.3333333333334</ele><time>2026-04-26T11:09:27.344Z</time></trkpt><trkpt lat="44.4853077" lon="8.0449059"><ele>771.0</ele><time>2026-04-26T11:09:28.347Z</time></trkpt><trkpt lat="44.4854916" lon="8.0448631"><ele>772.0</ele><time>2026-04-26T11:09:29.356Z</time></trkpt><trkpt lat="44.4856803" lon="8.0448362"><ele>773.0</ele><time>2026-04-26T11:09:30.347Z</time></trkpt><trkpt lat="44.4858559" lon="8.044803"><ele>774.0</ele><time>2026-04-26T11:09:31.343Z</time></trkpt><trkpt lat="44.4860411" lon="8.0448415"><ele>774.0</ele><time>2026-04-26T11:09:32.344Z</time></trkpt><trkpt lat="44.486234" lon="8.0449155"><ele>774.0</ele><time>2026-04-26T11:09:33.344Z</time></trkpt><trkpt lat="44.4864227" lon="8.0449663"><ele>774.0</ele><time>2026-04-26T11:09:34.353Z</time></trkpt><trkpt lat="44.4866088" lon="8.0450197"><ele>768.0</ele><time>2026-04-26T11:09:35.348Z</time></trkpt><trkpt lat="44.4867647" lon="8.0450735"><ele>762.0</ele><time>2026-04-26T11:09:36.348Z</time></trkpt><trkpt lat="44.4869114" lon="8.0451245"><ele>756.0</ele><time>2026-04-26T11:09:37.346Z</time></trkpt><trkpt lat="44.4870545" lon="8.0450928"><ele>754.3333333333334</ele><time>2026-04-26T11:09:38.347Z</time></trkpt><trkpt lat="44.4871985" lon="8.0450084"><ele>752.6666666666667</ele><time>2026-04-26T11:09:39.339Z</time></trkpt><trkpt lat="44.4873274" lon="8.0449061"><ele>751.0</ele><time>2026-04-26T11:09:40.336Z</time></trkpt><trkpt lat="44.4874721" lon="8.0448063"><ele>751.0</ele><time>2026-04-26T11:09:41.339Z</time></trkpt><trkpt lat="44.48763" lon="8.0448071"><ele>751.0</ele><time>2026-04-26T11:09:42.339Z</time></trkpt><trkpt lat="44.4877662" lon="8.044926"><ele>751.0</ele><time>2026-04-26T11:09:43.339Z</time></trkpt><trkpt lat="44.4878815" lon="8.0450757"><ele>752.0</ele><time>2026-04-26T11:09:44.337Z</time></trkpt><trkpt lat="44.4879647" lon="8.0452308"><ele>753.0</ele><time>2026-04-26T11:09:45.338Z</time></trkpt><trkpt lat="44.4880346" lon="8.0454099"><ele>754.0</ele><time>2026-04-26T11:09:46.343Z</time></trkpt><trkpt lat="44.4881179" lon="8.0455535"><ele>755.0</ele><time>2026-04-26T11:09:47.345Z</time></trkpt><trkpt lat="44.48822" lon="8.0456652"><ele>755.0</ele><time>2026-04-26T11:09:48.356Z</time></trkpt><trkpt lat="44.4883524" lon="8.0457363"><ele>755.0</ele><time>2026-04-26T11:09:49.349Z</time></trkpt><trkpt lat="44.4885066" lon="8.0457594"><ele>755.0</ele><time>2026-04-26T11:09:50.353Z</time></trkpt><trkpt lat="44.4886597" lon="8.0457387"><ele>754.75</ele><time>2026-04-26T11:09:51.347Z</time></trkpt><trkpt lat="44.4887872" lon="8.0457484"><ele>754.5</ele><time>2026-04-26T11:09:52.345Z</time></trkpt><trkpt lat="44.4889157" lon="8.0458152"><ele>754.25</ele><time>2026-04-26T11:09:53.34Z</time></trkpt><trkpt lat="44.4890271" lon="8.0459414"><ele>754.0</ele><time>2026-04-26T11:09:54.339Z</time></trkpt><trkpt lat="44.4891159" lon="8.0461064"><ele>751.25</ele><time>2026-04-26T11:09:55.344Z</time></trkpt><trkpt lat="44.4892048" lon="8.0462671"><ele>748.5</ele><time>2026-04-26T11:09:56.347Z</time></trkpt><trkpt lat="44.4892991" lon="8.0464042"><ele>745.75</ele><time>2026-04-26T11:09:57.35Z</time></trkpt><trkpt lat="44.4894002" lon="8.0465321"><ele>743.0</ele><time>2026-04-26T11:09:58.352Z</time></trkpt><trkpt lat="44.489522" lon="8.0466206"><ele>744.75</ele><time>2026-04-26T11:09:59.351Z</time></trkpt><trkpt lat="44.4896696" lon="8.0466727"><ele>746.5</ele><time>2026-04-26T11:10:00.36Z</time></trkpt><trkpt lat="44.4898047" lon="8.0466426"><ele>748.25</ele><time>2026-04-26T11:10:01.348Z</time></trkpt><trkpt lat="44.4899314" lon="8.0465455"><ele>750.0</ele><time>2026-04-26T11:10:02.346Z</time></trkpt><trkpt lat="44.4900607" lon="8.0464023"><ele>750.0</ele><time>2026-04-26T11:10:03.347Z</time></trkpt><trkpt lat="44.4901869" lon="8.0462615"><ele>750.0</ele><time>2026-04-26T11:10:04.345Z</time></trkpt><trkpt lat="44.4903165" lon="8.0461039"><ele>750.0</ele><time>2026-04-26T11:10:05.343Z</time></trkpt><trkpt lat="44.49042" lon="8.045916"><ele>743.0</ele><time>2026-04-26T11:10:06.348Z</time></trkpt><trkpt lat="44.4904983" lon="8.0456979"><ele>736.0</ele><time>2026-04-26T11:10:07.34Z</time></trkpt><trkpt lat="44.4905808" lon="8.0454698"><ele>729.0</ele><time>2026-04-26T11:10:08.356Z</time></trkpt><trkpt lat="44.490655" lon="8.0452618"><ele>729.0</ele><time>2026-04-26T11:10:09.347Z</time></trkpt><trkpt lat="44.4907277" lon="8.0450934"><ele>729.0</ele><time>2026-04-26T11:10:10.343Z</time></trkpt><trkpt lat="44.4908012" lon="8.0449398"><ele>729.0</ele><time>2026-04-26T11:10:11.349Z</time></trkpt><trkpt lat="44.4908839" lon="8.0448091"><ele>729.0</ele><time>2026-04-26T11:10:12.344Z</time></trkpt><trkpt lat="44.4909899" lon="8.0446951"><ele>729.25</ele><time>2026-04-26T11:10:13.352Z</time></trkpt><trkpt lat="44.491106" lon="8.0446139"><ele>729.5</ele><time>2026-04-26T11:10:14.346Z</time></trkpt><trkpt lat="44.4912335" lon="8.0445535"><ele>729.75</ele><time>2026-04-26T11:10:15.345Z</time></trkpt><trkpt lat="44.4913714" lon="8.0444954"><ele>730.0</ele><time>2026-04-26T11:10:16.348Z</time></trkpt><trkpt lat="44.4915149" lon="8.0444302"><ele>727.5</ele><time>2026-04-26T11:10:17.347Z</time></trkpt><trkpt lat="44.4916465" lon="8.0443521"><ele>725.0</ele><time>2026-04-26T11:10:18.347Z</time></trkpt><trkpt lat="44.4917813" lon="8.0442623"><ele>722.5</ele><time>2026-04-26T11:10:19.339Z</time></trkpt><trkpt lat="44.4919084" lon="8.0441859"><ele>720.0</ele><time>2026-04-26T11:10:20.347Z</time></trkpt><trkpt lat="44.4920181" lon="8.0441177"><ele>718.0</ele><time>2026-04-26T11:10:21.356Z</time></trkpt><trkpt lat="44.4921229" lon="8.0440631"><ele>716.0</ele><time>2026-04-26T11:10:22.352Z</time></trkpt><trkpt lat="44.492212" lon="8.0440209"><ele>714.0</ele><time>2026-04-26T11:10:23.35Z</time></trkpt><trkpt lat="44.4922764" lon="8.0440005"><ele>712.0</ele><time>2026-04-26T11:10:24.355Z</time></trkpt><trkpt lat="44.4923696" lon="8.0439652"><ele>710.0</ele><time>2026-04-26T11:10:26.348Z</time></trkpt><trkpt lat="44.4924425" lon="8.0439692"><ele>708.0</ele><time>2026-04-26T11:10:28.347Z</time></trkpt><trkpt lat="44.4925312" lon="8.0439976"><ele>708.0</ele><time>2026-04-26T11:10:30.345Z</time></trkpt><trkpt lat="44.4926022" lon="8.0439981"><ele>708.0</ele><time>2026-04-26T11:10:31.348Z</time></trkpt><trkpt lat="44.4927004" lon="8.044001"><ele>708.0</ele><time>2026-04-26T11:10:32.345Z</time></trkpt><trkpt lat="44.4928223" lon="8.0439851"><ele>708.0</ele><time>2026-04-26T11:10:33.348Z</time></trkpt><trkpt lat="44.4929589" lon="8.0439691"><ele>708.0</ele><time>2026-04-26T11:10:34.351Z</time></trkpt><trkpt lat="44.4931024" lon="8.0439599"><ele>707.0</ele><time>2026-04-26T11:10:35.351Z</time></trkpt><trkpt lat="44.4932516" lon="8.043965"><ele>706.0</ele><time>2026-04-26T11:10:36.355Z</time></trkpt><trkpt lat="44.4934171" lon="8.0439752"><ele>705.0</ele><time>2026-04-26T11:10:37.353Z</time></trkpt><trkpt lat="44.4935892" lon="8.0439942"><ele>707.0</ele><time>2026-04-26T11:10:38.35Z</time></trkpt><trkpt lat="44.4937609" lon="8.0440447"><ele>709.0</ele><time>2026-04-26T11:10:39.349Z</time></trkpt><trkpt lat="44.4939269" lon="8.0441449"><ele>711.0</ele><time>2026-04-26T11:10:40.342Z</time></trkpt><trkpt lat="44.4940678" lon="8.0442892"><ele>715.0</ele><time>2026-04-26T11:10:41.345Z</time></trkpt><trkpt lat="44.4941989" lon="8.0444623"><ele>719.0</ele><time>2026-04-26T11:10:42.354Z</time></trkpt><trkpt lat="44.4943161" lon="8.0446286"><ele>723.0</ele><time>2026-04-26T11:10:43.349Z</time></trkpt><trkpt lat="44.4944316" lon="8.0447551"><ele>723.0</ele><time>2026-04-26T11:10:44.347Z</time></trkpt><trkpt lat="44.4945534" lon="8.0448597"><ele>723.0</ele><time>2026-04-26T11:10:45.348Z</time></trkpt><trkpt lat="44.4946832" lon="8.0449049"><ele>723.0</ele><time>2026-04-26T11:10:46.345Z</time></trkpt><trkpt lat="44.4948438" lon="8.0449017"><ele>723.0</ele><time>2026-04-26T11:10:47.341Z</time></trkpt><trkpt lat="44.495031" lon="8.0448885"><ele>726.6666666666666</ele><time>2026-04-26T11:10:48.344Z</time></trkpt><trkpt lat="44.4952125" lon="8.044883"><ele>730.3333333333333</ele><time>2026-04-26T11:10:49.343Z</time></trkpt><trkpt lat="44.4953811" lon="8.0448943"><ele>734.0</ele><time>2026-04-26T11:10:50.345Z</time></trkpt><trkpt lat="44.495545" lon="8.0448824"><ele>734.0</ele><time>2026-04-26T11:10:51.346Z</time></trkpt><trkpt lat="44.4956906" lon="8.0447951"><ele>734.0</ele><time>2026-04-26T11:10:52.346Z</time></trkpt><trkpt lat="44.4958123" lon="8.0446928"><ele>734.0</ele><time>2026-04-26T11:10:53.344Z</time></trkpt><trkpt lat="44.4959315" lon="8.0445628"><ele>734.0</ele><time>2026-04-26T11:10:54.346Z</time></trkpt><trkpt lat="44.4960527" lon="8.0444224"><ele>734.0</ele><time>2026-04-26T11:10:55.355Z</time></trkpt><trkpt lat="44.4961501" lon="8.0441912"><ele>734.0</ele><time>2026-04-26T11:10:56.352Z</time></trkpt><trkpt lat="44.4962359" lon="8.0439616"><ele>735.3333333333333</ele><time>2026-04-26T11:10:57.346Z</time></trkpt><trkpt lat="44.4963208" lon="8.0437419"><ele>736.6666666666666</ele><time>2026-04-26T11:10:58.35Z</time></trkpt><trkpt lat="44.4964244" lon="8.0435497"><ele>738.0</ele><time>2026-04-26T11:10:59.35Z</time></trkpt><trkpt lat="44.4965469" lon="8.0433944"><ele>737.6666666666666</ele><time>2026-04-26T11:11:00.347Z</time></trkpt><trkpt lat="44.496693" lon="8.0432874"><ele>737.3333333333333</ele><time>2026-04-26T11:11:01.346Z</time></trkpt><trkpt lat="44.4968715" lon="8.0432252"><ele>737.0</ele><time>2026-04-26T11:11:02.352Z</time></trkpt><trkpt lat="44.4970832" lon="8.043194"><ele>735.0</ele><time>2026-04-26T11:11:03.35Z</time></trkpt><trkpt lat="44.4973073" lon="8.0431664"><ele>733.0</ele><time>2026-04-26T11:11:04.342Z</time></trkpt><trkpt lat="44.4975228" lon="8.0431206"><ele>731.0</ele><time>2026-04-26T11:11:05.35Z</time></trkpt><trkpt lat="44.4977365" lon="8.0430885"><ele>734.0</ele><time>2026-04-26T11:11:06.345Z</time></trkpt><trkpt lat="44.4979332" lon="8.0430592"><ele>737.0</ele><time>2026-04-26T11:11:07.352Z</time></trkpt><trkpt lat="44.4981134" lon="8.0430284"><ele>740.0</ele><time>2026-04-26T11:11:08.345Z</time></trkpt><trkpt lat="44.4982888" lon="8.0429702"><ele>740.0</ele><time>2026-04-26T11:11:09.354Z</time></trkpt><trkpt lat="44.4984467" lon="8.0428451"><ele>740.0</ele><time>2026-04-26T11:11:10.349Z</time></trkpt><trkpt lat="44.4985939" lon="8.0426557"><ele>740.0</ele><time>2026-04-26T11:11:11.352Z</time></trkpt><trkpt lat="44.4987187" lon="8.0424291"><ele>742.0</ele><time>2026-04-26T11:11:12.347Z</time></trkpt><trkpt lat="44.4988435" lon="8.0422109"><ele>744.0</ele><time>2026-04-26T11:11:13.351Z</time></trkpt><trkpt lat="44.4989684" lon="8.0420019"><ele>746.0</ele><time>2026-04-26T11:11:14.349Z</time></trkpt><trkpt lat="44.4991276" lon="8.04185"><ele>746.0</ele><time>2026-04-26T11:11:15.348Z</time></trkpt><trkpt lat="44.4993159" lon="8.0417581"><ele>746.0</ele><time>2026-04-26T11:11:16.348Z</time></trkpt><trkpt lat="44.4995364" lon="8.0417176"><ele>746.0</ele><time>2026-04-26T11:11:17.354Z</time></trkpt><trkpt lat="44.4997514" lon="8.0416879"><ele>746.6666666666666</ele><time>2026-04-26T11:11:18.345Z</time></trkpt><trkpt lat="44.4999724" lon="8.0416376"><ele>747.3333333333334</ele><time>2026-04-26T11:11:19.352Z</time></trkpt><trkpt lat="44.5001843" lon="8.0415804"><ele>748.0</ele><time>2026-04-26T11:11:20.338Z</time></trkpt><trkpt lat="44.5003886" lon="8.0415077"><ele>752.0</ele><time>2026-04-26T11:11:21.352Z</time></trkpt><trkpt lat="44.5006057" lon="8.0414391"><ele>756.0</ele><time>2026-04-26T11:11:22.349Z</time></trkpt><trkpt lat="44.5008141" lon="8.0413678"><ele>760.0</ele><time>2026-04-26T11:11:23.365Z</time></trkpt><trkpt lat="44.5010179" lon="8.0412946"><ele>760.0</ele><time>2026-04-26T11:11:24.351Z</time></trkpt><trkpt lat="44.5012089" lon="8.0412392"><ele>760.0</ele><time>2026-04-26T11:11:25.357Z</time></trkpt><trkpt lat="44.5013877" lon="8.0412295"><ele>760.0</ele><time>2026-04-26T11:11:26.346Z</time></trkpt><trkpt lat="44.5015611" lon="8.0413071"><ele>762.0</ele><time>2026-04-26T11:11:27.358Z</time></trkpt><trkpt lat="44.5017395" lon="8.0414563"><ele>764.0</ele><time>2026-04-26T11:11:28.347Z</time></trkpt><trkpt lat="44.501913" lon="8.0416056"><ele>766.0</ele><time>2026-04-26T11:11:29.348Z</time></trkpt><trkpt lat="44.5020897" lon="8.041749"><ele>766.0</ele><time>2026-04-26T11:11:30.352Z</time></trkpt><trkpt lat="44.5022667" lon="8.0418898"><ele>766.0</ele><time>2026-04-26T11:11:31.346Z</time></trkpt><trkpt lat="44.5024237" lon="8.0420302"><ele>766.0</ele><time>2026-04-26T11:11:32.349Z</time></trkpt><trkpt lat="44.5025719" lon="8.0421426"><ele>766.0</ele><time>2026-04-26T11:11:33.348Z</time></trkpt><trkpt lat="44.5027224" lon="8.0422365"><ele>766.0</ele><time>2026-04-26T11:11:34.348Z</time></trkpt><trkpt lat="44.5028554" lon="8.0422642"><ele>766.0</ele><time>2026-04-26T11:11:35.347Z</time></trkpt><trkpt lat="44.5029884" lon="8.0421766"><ele>766.0</ele><time>2026-04-26T11:11:36.362Z</time></trkpt><trkpt lat="44.503089" lon="8.0420387"><ele>765.0</ele><time>2026-04-26T11:11:37.346Z</time></trkpt><trkpt lat="44.5031685" lon="8.0418355"><ele>764.0</ele><time>2026-04-26T11:11:38.351Z</time></trkpt><trkpt lat="44.503244" lon="8.0416179"><ele>763.0</ele><time>2026-04-26T11:11:39.348Z</time></trkpt><trkpt lat="44.5033249" lon="8.0413738"><ele>767.6666666666667</ele><time>2026-04-26T11:11:40.352Z</time></trkpt><trkpt lat="44.5034237" lon="8.0411374"><ele>772.3333333333334</ele><time>2026-04-26T11:11:41.35Z</time></trkpt><trkpt lat="44.5035414" lon="8.0409018"><ele>777.0</ele><time>2026-04-26T11:11:42.343Z</time></trkpt><trkpt lat="44.5036711" lon="8.040701"><ele>779.0</ele><time>2026-04-26T11:11:43.353Z</time></trkpt><trkpt lat="44.5038326" lon="8.0405692"><ele>781.0</ele><time>2026-04-26T11:11:44.368Z</time></trkpt><trkpt lat="44.504023" lon="8.0404933"><ele>783.0</ele><time>2026-04-26T11:11:45.351Z</time></trkpt><trkpt lat="44.5042312" lon="8.0404865"><ele>783.0</ele><time>2026-04-26T11:11:46.343Z</time></trkpt><trkpt lat="44.5044263" lon="8.0405478"><ele>783.0</ele><time>2026-04-26T11:11:47.344Z</time></trkpt><trkpt lat="44.5046057" lon="8.0406627"><ele>783.0</ele><time>2026-04-26T11:11:48.346Z</time></trkpt><trkpt lat="44.5047808" lon="8.0408149"><ele>780.6666666666667</ele><time>2026-04-26T11:11:49.34Z</time></trkpt><trkpt lat="44.5049395" lon="8.0409548"><ele>778.3333333333334</ele><time>2026-04-26T11:11:50.346Z</time></trkpt><trkpt lat="44.5050853" lon="8.041083"><ele>776.0</ele><time>2026-04-26T11:11:51.345Z</time></trkpt><trkpt lat="44.5052106" lon="8.0411258"><ele>776.0</ele><time>2026-04-26T11:11:52.344Z</time></trkpt><trkpt lat="44.5053343" lon="8.0410835"><ele>776.0</ele><time>2026-04-26T11:11:53.347Z</time></trkpt><trkpt lat="44.5054561" lon="8.0409735"><ele>776.0</ele><time>2026-04-26T11:11:54.342Z</time></trkpt><trkpt lat="44.5055675" lon="8.0408088"><ele>776.0</ele><time>2026-04-26T11:11:55.34Z</time></trkpt><trkpt lat="44.5056808" lon="8.0406117"><ele>778.3333333333334</ele><time>2026-04-26T11:11:56.34Z</time></trkpt><trkpt lat="44.5058055" lon="8.0404249"><ele>780.6666666666667</ele><time>2026-04-26T11:11:57.357Z</time></trkpt><trkpt lat="44.5059346" lon="8.0402465"><ele>783.0</ele><time>2026-04-26T11:11:58.341Z</time></trkpt><trkpt lat="44.5060821" lon="8.0400796"><ele>780.3333333333333</ele><time>2026-04-26T11:11:59.346Z</time></trkpt><trkpt lat="44.5062761" lon="8.0399844"><ele>777.6666666666666</ele><time>2026-04-26T11:12:00.35Z</time></trkpt><trkpt lat="44.5065005" lon="8.0399768"><ele>775.0</ele><time>2026-04-26T11:12:01.357Z</time></trkpt><trkpt lat="44.5067107" lon="8.0399996"><ele>775.0</ele><time>2026-04-26T11:12:02.341Z</time></trkpt><trkpt lat="44.5069275" lon="8.0400043"><ele>775.0</ele><time>2026-04-26T11:12:03.345Z</time></trkpt><trkpt lat="44.5071568" lon="8.0400061"><ele>775.0</ele><time>2026-04-26T11:12:04.342Z</time></trkpt><trkpt lat="44.5073762" lon="8.0400032"><ele>776.6666666666666</ele><time>2026-04-26T11:12:05.351Z</time></trkpt><trkpt lat="44.5075989" lon="8.0399579"><ele>778.3333333333333</ele><time>2026-04-26T11:12:06.346Z</time></trkpt><trkpt lat="44.5078125" lon="8.0398767"><ele>780.0</ele><time>2026-04-26T11:12:07.348Z</time></trkpt><trkpt lat="44.5080241" lon="8.0397996"><ele>780.0</ele><time>2026-04-26T11:12:08.35Z</time></trkpt><trkpt lat="44.5082228" lon="8.0397354"><ele>780.0</ele><time>2026-04-26T11:12:09.341Z</time></trkpt><trkpt lat="44.5084081" lon="8.0397251"><ele>780.0</ele><time>2026-04-26T11:12:10.36Z</time></trkpt><trkpt lat="44.5085816" lon="8.0397808"><ele>780.0</ele><time>2026-04-26T11:12:11.346Z</time></trkpt><trkpt lat="44.5087393" lon="8.0398847"><ele>780.0</ele><time>2026-04-26T11:12:12.344Z</time></trkpt><trkpt lat="44.5088815" lon="8.0400198"><ele>780.0</ele><time>2026-04-26T11:12:13.339Z</time></trkpt><trkpt lat="44.5090199" lon="8.0401616"><ele>776.6666666666667</ele><time>2026-04-26T11:12:14.349Z</time></trkpt><trkpt lat="44.5091679" lon="8.0403156"><ele>773.3333333333334</ele><time>2026-04-26T11:12:15.357Z</time></trkpt><trkpt lat="44.5093246" lon="8.0404765"><ele>770.0</ele><time>2026-04-26T11:12:16.344Z</time></trkpt><trkpt lat="44.5094888" lon="8.0406413"><ele>766.6666666666667</ele><time>2026-04-26T11:12:17.346Z</time></trkpt><trkpt lat="44.5096541" lon="8.0408087"><ele>763.3333333333334</ele><time>2026-04-26T11:12:18.348Z</time></trkpt><trkpt lat="44.5098159" lon="8.0409935"><ele>760.0</ele><time>2026-04-26T11:12:19.35Z</time></trkpt><trkpt lat="44.5099505" lon="8.0412084"><ele>760.0</ele><time>2026-04-26T11:12:20.343Z</time></trkpt><trkpt lat="44.5100683" lon="8.0414399"><ele>760.0</ele><time>2026-04-26T11:12:21.346Z</time></trkpt><trkpt lat="44.5101957" lon="8.0416819"><ele>760.0</ele><time>2026-04-26T11:12:22.358Z</time></trkpt><trkpt lat="44.5103414" lon="8.0419114"><ele>761.6666666666667</ele><time>2026-04-26T11:12:23.348Z</time></trkpt><trkpt lat="44.5105036" lon="8.0421213"><ele>763.3333333333334</ele><time>2026-04-26T11:12:24.349Z</time></trkpt><trkpt lat="44.5106673" lon="8.0423216"><ele>765.0</ele><time>2026-04-26T11:12:25.348Z</time></trkpt><trkpt lat="44.5108249" lon="8.0425228"><ele>765.0</ele><time>2026-04-26T11:12:26.349Z</time></trkpt><trkpt lat="44.5109799" lon="8.04273"><ele>765.0</ele><time>2026-04-26T11:12:27.352Z</time></trkpt><trkpt lat="44.5111405" lon="8.0429263"><ele>765.0</ele><time>2026-04-26T11:12:28.345Z</time></trkpt><trkpt lat="44.5112991" lon="8.0431211"><ele>762.3333333333334</ele><time>2026-04-26T11:12:29.346Z</time></trkpt><trkpt lat="44.511463" lon="8.0433026"><ele>759.6666666666667</ele><time>2026-04-26T11:12:30.35Z</time></trkpt><trkpt lat="44.5116254" lon="8.0434498"><ele>757.0</ele><time>2026-04-26T11:12:31.352Z</time></trkpt><trkpt lat="44.511787" lon="8.0435693"><ele>757.0</ele><time>2026-04-26T11:12:32.349Z</time></trkpt><trkpt lat="44.511953" lon="8.0436733"><ele>757.0</ele><time>2026-04-26T11:12:33.353Z</time></trkpt><trkpt lat="44.5121254" lon="8.0437448"><ele>757.0</ele><time>2026-04-26T11:12:34.36Z</time></trkpt><trkpt lat="44.5123162" lon="8.0438008"><ele>755.0</ele><time>2026-04-26T11:12:35.341Z</time></trkpt><trkpt lat="44.5125156" lon="8.043863"><ele>753.0</ele><time>2026-04-26T11:12:36.347Z</time></trkpt><trkpt lat="44.5127077" lon="8.043936"><ele>751.0</ele><time>2026-04-26T11:12:37.351Z</time></trkpt><trkpt lat="44.5128963" lon="8.0440103"><ele>749.6666666666667</ele><time>2026-04-26T11:12:38.347Z</time></trkpt><trkpt lat="44.5130768" lon="8.0440815"><ele>748.3333333333334</ele><time>2026-04-26T11:12:39.346Z</time></trkpt><trkpt lat="44.5132602" lon="8.0441476"><ele>747.0</ele><time>2026-04-26T11:12:40.349Z</time></trkpt><trkpt lat="44.5134404" lon="8.0441999"><ele>754.0</ele><time>2026-04-26T11:12:41.345Z</time></trkpt><trkpt lat="44.5136275" lon="8.0442223"><ele>761.0</ele><time>2026-04-26T11:12:42.351Z</time></trkpt><trkpt lat="44.5138237" lon="8.0442258"><ele>768.0</ele><time>2026-04-26T11:12:43.35Z</time></trkpt><trkpt lat="44.5140238" lon="8.044238"><ele>768.6666666666667</ele><time>2026-04-26T11:12:44.345Z</time></trkpt><trkpt lat="44.5142183" lon="8.0442448"><ele>769.3333333333334</ele><time>2026-04-26T11:12:45.356Z</time></trkpt><trkpt lat="44.5144244" lon="8.0442556"><ele>770.0</ele><time>2026-04-26T11:12:46.346Z</time></trkpt><trkpt lat="44.5146341" lon="8.0442689"><ele>770.0</ele><time>2026-04-26T11:12:47.346Z</time></trkpt><trkpt lat="44.514844" lon="8.0442944"><ele>770.0</ele><time>2026-04-26T11:12:48.344Z</time></trkpt><trkpt lat="44.5150523" lon="8.0443478"><ele>770.0</ele><time>2026-04-26T11:12:49.356Z</time></trkpt><trkpt lat="44.5152609" lon="8.0443923"><ele>770.6666666666667</ele><time>2026-04-26T11:12:50.348Z</time></trkpt><trkpt lat="44.5154761" lon="8.0444087"><ele>771.3333333333333</ele><time>2026-04-26T11:12:51.345Z</time></trkpt><trkpt lat="44.5156881" lon="8.044369"><ele>772.0</ele><time>2026-04-26T11:12:52.344Z</time></trkpt><trkpt lat="44.5158979" lon="8.0442828"><ele>772.0</ele><time>2026-04-26T11:12:53.349Z</time></trkpt><trkpt lat="44.516103" lon="8.0441618"><ele>772.0</ele><time>2026-04-26T11:12:54.359Z</time></trkpt><trkpt lat="44.5163118" lon="8.0440307"><ele>769.3333333333333</ele><time>2026-04-26T11:12:55.356Z</time></trkpt><trkpt lat="44.5165114" lon="8.0439181"><ele>766.6666666666666</ele><time>2026-04-26T11:12:56.34Z</time></trkpt><trkpt lat="44.5167147" lon="8.0438325"><ele>764.0</ele><time>2026-04-26T11:12:57.349Z</time></trkpt><trkpt lat="44.5169075" lon="8.0438287"><ele>763.3333333333333</ele><time>2026-04-26T11:12:58.35Z</time></trkpt><trkpt lat="44.5170921" lon="8.0438777"><ele>762.6666666666666</ele><time>2026-04-26T11:12:59.348Z</time></trkpt><trkpt lat="44.5172975" lon="8.0439559"><ele>762.0</ele><time>2026-04-26T11:13:00.338Z</time></trkpt><trkpt lat="44.5175002" lon="8.0440649"><ele>763.6666666666666</ele><time>2026-04-26T11:13:01.355Z</time></trkpt><trkpt lat="44.517686" lon="8.0442015"><ele>765.3333333333333</ele><time>2026-04-26T11:13:02.348Z</time></trkpt><trkpt lat="44.517869" lon="8.0443471"><ele>767.0</ele><time>2026-04-26T11:13:03.351Z</time></trkpt><trkpt lat="44.5180578" lon="8.0445093"><ele>767.0</ele><time>2026-04-26T11:13:04.348Z</time></trkpt><trkpt lat="44.5182479" lon="8.0446714"><ele>767.0</ele><time>2026-04-26T11:13:05.35Z</time></trkpt><trkpt lat="44.5184315" lon="8.0448281"><ele>767.0</ele><time>2026-04-26T11:13:06.347Z</time></trkpt><trkpt lat="44.5186199" lon="8.0449808"><ele>768.3333333333333</ele><time>2026-04-26T11:13:07.348Z</time></trkpt><trkpt lat="44.5188005" lon="8.045133"><ele>769.6666666666666</ele><time>2026-04-26T11:13:08.351Z</time></trkpt><trkpt lat="44.5189726" lon="8.0452786"><ele>771.0</ele><time>2026-04-26T11:13:09.353Z</time></trkpt><trkpt lat="44.5191362" lon="8.0454021"><ele>771.0</ele><time>2026-04-26T11:13:10.357Z</time></trkpt><trkpt lat="44.519308" lon="8.0454981"><ele>771.0</ele><time>2026-04-26T11:13:11.347Z</time></trkpt><trkpt lat="44.5194843" lon="8.0455462"><ele>771.0</ele><time>2026-04-26T11:13:12.347Z</time></trkpt><trkpt lat="44.5196686" lon="8.0455896"><ele>769.6666666666666</ele><time>2026-04-26T11:13:13.353Z</time></trkpt><trkpt lat="44.519856" lon="8.0456191"><ele>768.3333333333333</ele><time>2026-04-26T11:13:14.356Z</time></trkpt><trkpt lat="44.5200467" lon="8.0456399"><ele>767.0</ele><time>2026-04-26T11:13:15.342Z</time></trkpt><trkpt lat="44.5202462" lon="8.0456531"><ele>766.6666666666666</ele><time>2026-04-26T11:13:16.348Z</time></trkpt><trkpt lat="44.5204401" lon="8.0456793"><ele>766.3333333333334</ele><time>2026-04-26T11:13:17.357Z</time></trkpt><trkpt lat="44.5206374" lon="8.0457129"><ele>766.0</ele><time>2026-04-26T11:13:18.341Z</time></trkpt><trkpt lat="44.5208244" lon="8.0457393"><ele>766.0</ele><time>2026-04-26T11:13:19.346Z</time></trkpt><trkpt lat="44.5210031" lon="8.0457744"><ele>766.0</ele><time>2026-04-26T11:13:20.348Z</time></trkpt><trkpt lat="44.5211623" lon="8.0458487"><ele>766.0</ele><time>2026-04-26T11:13:21.357Z</time></trkpt><trkpt lat="44.5212975" lon="8.0459755"><ele>766.3333333333334</ele><time>2026-04-26T11:13:22.349Z</time></trkpt><trkpt lat="44.5214231" lon="8.0461358"><ele>766.6666666666666</ele><time>2026-04-26T11:13:23.343Z</time></trkpt><trkpt lat="44.5215419" lon="8.0463245"><ele>767.0</ele><time>2026-04-26T11:13:24.341Z</time></trkpt><trkpt lat="44.5216512" lon="8.0465229"><ele>769.6666666666666</ele><time>2026-04-26T11:13:25.355Z</time></trkpt><trkpt lat="44.5217666" lon="8.0467268"><ele>772.3333333333333</ele><time>2026-04-26T11:13:26.348Z</time></trkpt><trkpt lat="44.5218792" lon="8.0469312"><ele>775.0</ele><time>2026-04-26T11:13:27.35Z</time></trkpt><trkpt lat="44.5219986" lon="8.0471031"><ele>775.6666666666666</ele><time>2026-04-26T11:13:28.346Z</time></trkpt><trkpt lat="44.5221222" lon="8.0472429"><ele>776.3333333333333</ele><time>2026-04-26T11:13:29.344Z</time></trkpt><trkpt lat="44.5222618" lon="8.0473631"><ele>777.0</ele><time>2026-04-26T11:13:30.352Z</time></trkpt><trkpt lat="44.5224095" lon="8.0474781"><ele>777.0</ele><time>2026-04-26T11:13:31.353Z</time></trkpt><trkpt lat="44.5225675" lon="8.0475842"><ele>777.0</ele><time>2026-04-26T11:13:32.35Z</time></trkpt><trkpt lat="44.522724" lon="8.0476876"><ele>777.0</ele><time>2026-04-26T11:13:33.348Z</time></trkpt><trkpt lat="44.5228844" lon="8.0478034"><ele>773.6666666666666</ele><time>2026-04-26T11:13:34.348Z</time></trkpt><trkpt lat="44.5230405" lon="8.0479149"><ele>770.3333333333333</ele><time>2026-04-26T11:13:35.347Z</time></trkpt><trkpt lat="44.5231894" lon="8.0480222"><ele>767.0</ele><time>2026-04-26T11:13:36.348Z</time></trkpt><trkpt lat="44.5233339" lon="8.0481197"><ele>767.0</ele><time>2026-04-26T11:13:37.35Z</time></trkpt><trkpt lat="44.5234786" lon="8.048223"><ele>767.0</ele><time>2026-04-26T11:13:38.347Z</time></trkpt><trkpt lat="44.5236237" lon="8.0483322"><ele>767.0</ele><time>2026-04-26T11:13:39.348Z</time></trkpt><trkpt lat="44.5237675" lon="8.0484254"><ele>768.0</ele><time>2026-04-26T11:13:40.351Z</time></trkpt><trkpt lat="44.5239227" lon="8.0484996"><ele>769.0</ele><time>2026-04-26T11:13:41.345Z</time></trkpt><trkpt lat="44.5240912" lon="8.0485487"><ele>770.0</ele><time>2026-04-26T11:13:42.346Z</time></trkpt><trkpt lat="44.5242594" lon="8.0485852"><ele>770.0</ele><time>2026-04-26T11:13:43.347Z</time></trkpt><trkpt lat="44.524417" lon="8.048633"><ele>770.0</ele><time>2026-04-26T11:13:44.343Z</time></trkpt><trkpt lat="44.5245585" lon="8.048695"><ele>770.0</ele><time>2026-04-26T11:13:45.34Z</time></trkpt><trkpt lat="44.5246948" lon="8.0488096"><ele>769.3333333333334</ele><time>2026-04-26T11:13:46.343Z</time></trkpt><trkpt lat="44.5248253" lon="8.0489351"><ele>768.6666666666667</ele><time>2026-04-26T11:13:47.338Z</time></trkpt><trkpt lat="44.5249706" lon="8.0490725"><ele>768.0</ele><time>2026-04-26T11:13:48.341Z</time></trkpt><trkpt lat="44.5251141" lon="8.0492114"><ele>768.0</ele><time>2026-04-26T11:13:49.348Z</time></trkpt><trkpt lat="44.525256" lon="8.0493446"><ele>768.0</ele><time>2026-04-26T11:13:50.343Z</time></trkpt><trkpt lat="44.5254034" lon="8.0494848"><ele>768.0</ele><time>2026-04-26T11:13:51.347Z</time></trkpt><trkpt lat="44.5255433" lon="8.0496217"><ele>766.3333333333334</ele><time>2026-04-26T11:13:52.346Z</time></trkpt><trkpt lat="44.5256844" lon="8.0497598"><ele>764.6666666666667</ele><time>2026-04-26T11:13:53.351Z</time></trkpt><trkpt lat="44.5258107" lon="8.049891"><ele>763.0</ele><time>2026-04-26T11:13:54.35Z</time></trkpt><trkpt lat="44.5259352" lon="8.0500032"><ele>763.0</ele><time>2026-04-26T11:13:55.35Z</time></trkpt><trkpt lat="44.5260581" lon="8.0501008"><ele>763.0</ele><time>2026-04-26T11:13:56.346Z</time></trkpt><trkpt lat="44.5261776" lon="8.0501711"><ele>763.0</ele><time>2026-04-26T11:13:57.35Z</time></trkpt><trkpt lat="44.5262903" lon="8.0502365"><ele>763.0</ele><time>2026-04-26T11:13:58.347Z</time></trkpt><trkpt lat="44.5264054" lon="8.0502962"><ele>762.25</ele><time>2026-04-26T11:13:59.345Z</time></trkpt><trkpt lat="44.5265345" lon="8.0503499"><ele>761.5</ele><time>2026-04-26T11:14:00.349Z</time></trkpt><trkpt lat="44.5266832" lon="8.0503889"><ele>760.75</ele><time>2026-04-26T11:14:01.349Z</time></trkpt><trkpt lat="44.5268385" lon="8.0504358"><ele>760.0</ele><time>2026-04-26T11:14:02.357Z</time></trkpt><trkpt lat="44.5270147" lon="8.0504718"><ele>756.3333333333334</ele><time>2026-04-26T11:14:03.349Z</time></trkpt><trkpt lat="44.5272101" lon="8.0504856"><ele>752.6666666666666</ele><time>2026-04-26T11:14:04.352Z</time></trkpt><trkpt lat="44.5274078" lon="8.0504791"><ele>749.0</ele><time>2026-04-26T11:14:05.357Z</time></trkpt><trkpt lat="44.5276037" lon="8.0504533"><ele>749.0</ele><time>2026-04-26T11:14:06.349Z</time></trkpt><trkpt lat="44.5277976" lon="8.0504"><ele>749.0</ele><time>2026-04-26T11:14:07.345Z</time></trkpt><trkpt lat="44.5279827" lon="8.0503246"><ele>749.0</ele><time>2026-04-26T11:14:08.351Z</time></trkpt><trkpt lat="44.5281729" lon="8.050242"><ele>749.0</ele><time>2026-04-26T11:14:09.356Z</time></trkpt><trkpt lat="44.5283538" lon="8.0501441"><ele>749.0</ele><time>2026-04-26T11:14:10.342Z</time></trkpt><trkpt lat="44.5285366" lon="8.0500456"><ele>749.0</ele><time>2026-04-26T11:14:11.348Z</time></trkpt><trkpt lat="44.5287066" lon="8.0499387"><ele>746.3333333333333</ele><time>2026-04-26T11:14:12.347Z</time></trkpt><trkpt lat="44.528873" lon="8.0498262"><ele>743.6666666666666</ele><time>2026-04-26T11:14:13.356Z</time></trkpt><trkpt lat="44.5290383" lon="8.0496905"><ele>741.0</ele><time>2026-04-26T11:14:14.345Z</time></trkpt><trkpt lat="44.5292025" lon="8.0495432"><ele>741.0</ele><time>2026-04-26T11:14:15.344Z</time></trkpt><trkpt lat="44.5293658" lon="8.0493797"><ele>741.0</ele><time>2026-04-26T11:14:16.355Z</time></trkpt><trkpt lat="44.5295142" lon="8.0492103"><ele>741.0</ele><time>2026-04-26T11:14:17.349Z</time></trkpt><trkpt lat="44.5296531" lon="8.0490371"><ele>738.6666666666666</ele><time>2026-04-26T11:14:18.355Z</time></trkpt><trkpt lat="44.5297851" lon="8.0488585"><ele>736.3333333333333</ele><time>2026-04-26T11:14:19.348Z</time></trkpt><trkpt lat="44.529919" lon="8.0486897"><ele>734.0</ele><time>2026-04-26T11:14:20.356Z</time></trkpt><trkpt lat="44.5300381" lon="8.0485255"><ele>734.0</ele><time>2026-04-26T11:14:21.349Z</time></trkpt><trkpt lat="44.5301637" lon="8.048362"><ele>734.0</ele><time>2026-04-26T11:14:22.351Z</time></trkpt><trkpt lat="44.5302766" lon="8.0481975"><ele>734.0</ele><time>2026-04-26T11:14:23.355Z</time></trkpt><trkpt lat="44.5303918" lon="8.0480458"><ele>733.0</ele><time>2026-04-26T11:14:24.351Z</time></trkpt><trkpt lat="44.5305073" lon="8.047895"><ele>732.0</ele><time>2026-04-26T11:14:25.353Z</time></trkpt><trkpt lat="44.5306223" lon="8.0477459"><ele>731.0</ele><time>2026-04-26T11:14:26.349Z</time></trkpt><trkpt lat="44.5307503" lon="8.0475957"><ele>727.0</ele><time>2026-04-26T11:14:27.35Z</time></trkpt><trkpt lat="44.5308851" lon="8.0474475"><ele>723.0</ele><time>2026-04-26T11:14:28.355Z</time></trkpt><trkpt lat="44.5310202" lon="8.0473076"><ele>719.0</ele><time>2026-04-26T11:14:29.349Z</time></trkpt><trkpt lat="44.5311695" lon="8.0471886"><ele>721.3333333333333</ele><time>2026-04-26T11:14:30.344Z</time></trkpt><trkpt lat="44.531331" lon="8.0470858"><ele>723.6666666666666</ele><time>2026-04-26T11:14:31.356Z</time></trkpt><trkpt lat="44.5314893" lon="8.0470005"><ele>726.0</ele><time>2026-04-26T11:14:32.352Z</time></trkpt><trkpt lat="44.5316472" lon="8.0469351"><ele>726.0</ele><time>2026-04-26T11:14:33.362Z</time></trkpt><trkpt lat="44.5317912" lon="8.0468767"><ele>726.0</ele><time>2026-04-26T11:14:34.35Z</time></trkpt><trkpt lat="44.5319172" lon="8.0468308"><ele>726.0</ele><time>2026-04-26T11:14:35.345Z</time></trkpt><trkpt lat="44.5320184" lon="8.0468183"><ele>726.0</ele><time>2026-04-26T11:14:36.344Z</time></trkpt><trkpt lat="44.532096" lon="8.0468297"><ele>726.6666666666666</ele><time>2026-04-26T11:14:37.359Z</time></trkpt><trkpt lat="44.5321686" lon="8.0468479"><ele>727.3333333333334</ele><time>2026-04-26T11:14:38.345Z</time></trkpt><trkpt lat="44.5322881" lon="8.0468812"><ele>728.0</ele><time>2026-04-26T11:14:40.353Z</time></trkpt><trkpt lat="44.5323609" lon="8.0468714"><ele>728.6666666666667</ele><time>2026-04-26T11:14:41.357Z</time></trkpt><trkpt lat="44.5324322" lon="8.0468385"><ele>729.3333333333334</ele><time>2026-04-26T11:14:42.357Z</time></trkpt><trkpt lat="44.5325003" lon="8.0467819"><ele>730.0</ele><time>2026-04-26T11:14:43.362Z</time></trkpt><trkpt lat="44.5325653" lon="8.0467239"><ele>730.0</ele><time>2026-04-26T11:14:44.351Z</time></trkpt><trkpt lat="44.5326456" lon="8.0466566"><ele>730.0</ele><time>2026-04-26T11:14:45.343Z</time></trkpt><trkpt lat="44.5327547" lon="8.046599"><ele>730.0</ele><time>2026-04-26T11:14:46.354Z</time></trkpt><trkpt lat="44.5328705" lon="8.0465449"><ele>730.0</ele><time>2026-04-26T11:14:47.353Z</time></trkpt><trkpt lat="44.5330078" lon="8.0464774"><ele>731.75</ele><time>2026-04-26T11:14:48.345Z</time></trkpt><trkpt lat="44.5331364" lon="8.0464043"><ele>733.5</ele><time>2026-04-26T11:14:49.351Z</time></trkpt><trkpt lat="44.5332745" lon="8.0463313"><ele>735.25</ele><time>2026-04-26T11:14:50.345Z</time></trkpt><trkpt lat="44.5334205" lon="8.0462629"><ele>737.0</ele><time>2026-04-26T11:14:51.353Z</time></trkpt><trkpt lat="44.5335778" lon="8.0461866"><ele>734.3333333333333</ele><time>2026-04-26T11:14:52.342Z</time></trkpt><trkpt lat="44.5337442" lon="8.0461116"><ele>731.6666666666666</ele><time>2026-04-26T11:14:53.341Z</time></trkpt><trkpt lat="44.5339075" lon="8.0460301"><ele>729.0</ele><time>2026-04-26T11:14:54.344Z</time></trkpt><trkpt lat="44.5340703" lon="8.0459417"><ele>729.0</ele><time>2026-04-26T11:14:55.356Z</time></trkpt><trkpt lat="44.5342361" lon="8.0458517"><ele>729.0</ele><time>2026-04-26T11:14:56.36Z</time></trkpt><trkpt lat="44.5344098" lon="8.0457719"><ele>729.0</ele><time>2026-04-26T11:14:57.346Z</time></trkpt><trkpt lat="44.5345832" lon="8.0456896"><ele>731.6666666666666</ele><time>2026-04-26T11:14:58.356Z</time></trkpt><trkpt lat="44.5347513" lon="8.0456102"><ele>734.3333333333333</ele><time>2026-04-26T11:14:59.347Z</time></trkpt><trkpt lat="44.5349172" lon="8.0455294"><ele>737.0</ele><time>2026-04-26T11:15:00.345Z</time></trkpt><trkpt lat="44.5350825" lon="8.0454493"><ele>737.0</ele><time>2026-04-26T11:15:01.348Z</time></trkpt><trkpt lat="44.5352515" lon="8.0453608"><ele>737.0</ele><time>2026-04-26T11:15:02.345Z</time></trkpt><trkpt lat="44.5354189" lon="8.0452905"><ele>737.0</ele><time>2026-04-26T11:15:03.336Z</time></trkpt><trkpt lat="44.5355921" lon="8.0452306"><ele>733.3333333333333</ele><time>2026-04-26T11:15:04.342Z</time></trkpt><trkpt lat="44.535772" lon="8.0452045"><ele>729.6666666666666</ele><time>2026-04-26T11:15:05.344Z</time></trkpt><trkpt lat="44.5359597" lon="8.0452076"><ele>726.0</ele><time>2026-04-26T11:15:06.338Z</time></trkpt><trkpt lat="44.5361443" lon="8.045197"><ele>722.6666666666666</ele><time>2026-04-26T11:15:07.346Z</time></trkpt><trkpt lat="44.5363298" lon="8.0451915"><ele>719.3333333333333</ele><time>2026-04-26T11:15:08.351Z</time></trkpt><trkpt lat="44.5365126" lon="8.0451859"><ele>716.0</ele><time>2026-04-26T11:15:09.352Z</time></trkpt><trkpt lat="44.5366962" lon="8.0451895"><ele>716.0</ele><time>2026-04-26T11:15:10.345Z</time></trkpt><trkpt lat="44.536873" lon="8.0452116"><ele>716.0</ele><time>2026-04-26T11:15:11.369Z</time></trkpt><trkpt lat="44.5370638" lon="8.0452631"><ele>716.0</ele><time>2026-04-26T11:15:12.347Z</time></trkpt><trkpt lat="44.5372469" lon="8.0453339"><ele>713.6666666666666</ele><time>2026-04-26T11:15:13.349Z</time></trkpt><trkpt lat="44.5374296" lon="8.0454392"><ele>711.3333333333334</ele><time>2026-04-26T11:15:14.356Z</time></trkpt><trkpt lat="44.5376124" lon="8.0455445"><ele>709.0</ele><time>2026-04-26T11:15:15.353Z</time></trkpt><trkpt lat="44.5377862" lon="8.0456684"><ele>709.3333333333334</ele><time>2026-04-26T11:15:16.34Z</time></trkpt><trkpt lat="44.5379571" lon="8.0457874"><ele>709.6666666666666</ele><time>2026-04-26T11:15:17.345Z</time></trkpt><trkpt lat="44.5381233" lon="8.0459131"><ele>710.0</ele><time>2026-04-26T11:15:18.343Z</time></trkpt><trkpt lat="44.5382823" lon="8.0460495"><ele>710.0</ele><time>2026-04-26T11:15:19.343Z</time></trkpt><trkpt lat="44.5384424" lon="8.0461986"><ele>710.0</ele><time>2026-04-26T11:15:20.357Z</time></trkpt><trkpt lat="44.5386028" lon="8.0463548"><ele>710.0</ele><time>2026-04-26T11:15:21.355Z</time></trkpt><trkpt lat="44.5387646" lon="8.0465229"><ele>712.3333333333333</ele><time>2026-04-26T11:15:22.362Z</time></trkpt><trkpt lat="44.5389281" lon="8.0466921"><ele>714.6666666666666</ele><time>2026-04-26T11:15:23.35Z</time></trkpt><trkpt lat="44.5390903" lon="8.046858"><ele>717.0</ele><time>2026-04-26T11:15:24.347Z</time></trkpt><trkpt lat="44.5392516" lon="8.047016"><ele>717.0</ele><time>2026-04-26T11:15:25.351Z</time></trkpt><trkpt lat="44.5394081" lon="8.0471444"><ele>717.0</ele><time>2026-04-26T11:15:26.347Z</time></trkpt><trkpt lat="44.5395787" lon="8.0472542"><ele>717.0</ele><time>2026-04-26T11:15:27.347Z</time></trkpt><trkpt lat="44.5397651" lon="8.0473415"><ele>718.6666666666666</ele><time>2026-04-26T11:15:28.351Z</time></trkpt><trkpt lat="44.5399513" lon="8.0474139"><ele>720.3333333333333</ele><time>2026-04-26T11:15:29.352Z</time></trkpt><trkpt lat="44.5401484" lon="8.0474787"><ele>722.0</ele><time>2026-04-26T11:15:30.351Z</time></trkpt><trkpt lat="44.5403425" lon="8.0475403"><ele>720.6666666666666</ele><time>2026-04-26T11:15:31.348Z</time></trkpt><trkpt lat="44.540523" lon="8.0476014"><ele>719.3333333333334</ele><time>2026-04-26T11:15:32.341Z</time></trkpt><trkpt lat="44.5406901" lon="8.0476608"><ele>718.0</ele><time>2026-04-26T11:15:33.355Z</time></trkpt><trkpt lat="44.5408177" lon="8.0477384"><ele>718.0</ele><time>2026-04-26T11:15:34.347Z</time></trkpt><trkpt lat="44.5409096" lon="8.0478717"><ele>718.0</ele><time>2026-04-26T11:15:35.361Z</time></trkpt><trkpt lat="44.5409654" lon="8.0480376"><ele>718.0</ele><time>2026-04-26T11:15:36.347Z</time></trkpt><trkpt lat="44.5409668" lon="8.0482345"><ele>718.0</ele><time>2026-04-26T11:15:37.347Z</time></trkpt><trkpt lat="44.540949" lon="8.0484227"><ele>721.3333333333334</ele><time>2026-04-26T11:15:38.341Z</time></trkpt><trkpt lat="44.5408928" lon="8.0486405"><ele>724.6666666666666</ele><time>2026-04-26T11:15:39.345Z</time></trkpt><trkpt lat="44.5408317" lon="8.0488785"><ele>728.0</ele><time>2026-04-26T11:15:40.336Z</time></trkpt><trkpt lat="44.5407767" lon="8.0491451"><ele>728.3333333333333</ele><time>2026-04-26T11:15:41.354Z</time></trkpt><trkpt lat="44.5407207" lon="8.0494358"><ele>728.6666666666666</ele><time>2026-04-26T11:15:42.337Z</time></trkpt><trkpt lat="44.5406621" lon="8.0497436"><ele>729.0</ele><time>2026-04-26T11:15:43.357Z</time></trkpt><trkpt lat="44.5406114" lon="8.050067"><ele>726.3333333333334</ele><time>2026-04-26T11:15:44.37Z</time></trkpt><trkpt lat="44.5405509" lon="8.0503603"><ele>723.6666666666667</ele><time>2026-04-26T11:15:45.357Z</time></trkpt><trkpt lat="44.5404592" lon="8.0506317"><ele>721.0</ele><time>2026-04-26T11:15:46.345Z</time></trkpt><trkpt lat="44.5403536" lon="8.0509062"><ele>723.6666666666667</ele><time>2026-04-26T11:15:47.341Z</time></trkpt><trkpt lat="44.5402538" lon="8.0511758"><ele>726.3333333333334</ele><time>2026-04-26T11:15:48.343Z</time></trkpt><trkpt lat="44.5401523" lon="8.0514446"><ele>729.0</ele><time>2026-04-26T11:15:49.352Z</time></trkpt><trkpt lat="44.5400536" lon="8.0517226"><ele>729.0</ele><time>2026-04-26T11:15:50.342Z</time></trkpt><trkpt lat="44.5399576" lon="8.0519983"><ele>729.0</ele><time>2026-04-26T11:15:51.364Z</time></trkpt><trkpt lat="44.5398619" lon="8.0522588"><ele>729.0</ele><time>2026-04-26T11:15:52.352Z</time></trkpt><trkpt lat="44.5397745" lon="8.0525019"><ele>727.0</ele><time>2026-04-26T11:15:53.349Z</time></trkpt><trkpt lat="44.5397311" lon="8.0527415"><ele>725.0</ele><time>2026-04-26T11:15:54.347Z</time></trkpt><trkpt lat="44.5397357" lon="8.0529916"><ele>723.0</ele><time>2026-04-26T11:15:55.35Z</time></trkpt><trkpt lat="44.5397755" lon="8.0532213"><ele>723.3333333333334</ele><time>2026-04-26T11:15:56.347Z</time></trkpt><trkpt lat="44.5398638" lon="8.0534494"><ele>723.6666666666667</ele><time>2026-04-26T11:15:57.349Z</time></trkpt><trkpt lat="44.539968" lon="8.0536324"><ele>724.0</ele><time>2026-04-26T11:15:58.347Z</time></trkpt><trkpt lat="44.5400922" lon="8.0538037"><ele>724.0</ele><time>2026-04-26T11:15:59.344Z</time></trkpt><trkpt lat="44.5402332" lon="8.0539532"><ele>724.0</ele><time>2026-04-26T11:16:00.357Z</time></trkpt><trkpt lat="44.5403858" lon="8.0541006"><ele>724.0</ele><time>2026-04-26T11:16:01.346Z</time></trkpt><trkpt lat="44.5405451" lon="8.0542567"><ele>722.6666666666667</ele><time>2026-04-26T11:16:02.36Z</time></trkpt><trkpt lat="44.5407018" lon="8.0544244"><ele>721.3333333333334</ele><time>2026-04-26T11:16:03.357Z</time></trkpt><trkpt lat="44.5408294" lon="8.054622"><ele>720.0</ele><time>2026-04-26T11:16:04.347Z</time></trkpt><trkpt lat="44.5409476" lon="8.054866"><ele>719.0</ele><time>2026-04-26T11:16:05.356Z</time></trkpt><trkpt lat="44.5410637" lon="8.0551172"><ele>718.0</ele><time>2026-04-26T11:16:06.357Z</time></trkpt><trkpt lat="44.541185" lon="8.0553683"><ele>717.0</ele><time>2026-04-26T11:16:07.351Z</time></trkpt><trkpt lat="44.5413114" lon="8.0556192"><ele>720.0</ele><time>2026-04-26T11:16:08.376Z</time></trkpt><trkpt lat="44.5414347" lon="8.0558595"><ele>723.0</ele><time>2026-04-26T11:16:09.341Z</time></trkpt><trkpt lat="44.54156" lon="8.0560859"><ele>726.0</ele><time>2026-04-26T11:16:10.353Z</time></trkpt><trkpt lat="44.5417034" lon="8.0562895"><ele>726.0</ele><time>2026-04-26T11:16:11.354Z</time></trkpt><trkpt lat="44.5418753" lon="8.0564661"><ele>726.0</ele><time>2026-04-26T11:16:12.368Z</time></trkpt><trkpt lat="44.5420604" lon="8.056645"><ele>726.0</ele><time>2026-04-26T11:16:13.352Z</time></trkpt><trkpt lat="44.5422358" lon="8.0568121"><ele>726.6666666666666</ele><time>2026-04-26T11:16:14.351Z</time></trkpt><trkpt lat="44.5424099" lon="8.056967"><ele>727.3333333333333</ele><time>2026-04-26T11:16:15.341Z</time></trkpt><trkpt lat="44.542595" lon="8.0570887"><ele>728.0</ele><time>2026-04-26T11:16:16.352Z</time></trkpt><trkpt lat="44.5427908" lon="8.0571789"><ele>725.6666666666666</ele><time>2026-04-26T11:16:17.351Z</time></trkpt><trkpt lat="44.5429906" lon="8.0572429"><ele>723.3333333333334</ele><time>2026-04-26T11:16:18.355Z</time></trkpt><trkpt lat="44.5431965" lon="8.057268"><ele>721.0</ele><time>2026-04-26T11:16:19.338Z</time></trkpt><trkpt lat="44.5434101" lon="8.0572723"><ele>721.0</ele><time>2026-04-26T11:16:20.345Z</time></trkpt><trkpt lat="44.5436226" lon="8.0572589"><ele>721.0</ele><time>2026-04-26T11:16:21.353Z</time></trkpt><trkpt lat="44.5438334" lon="8.057258"><ele>721.0</ele><time>2026-04-26T11:16:22.359Z</time></trkpt><trkpt lat="44.5440453" lon="8.0572544"><ele>721.0</ele><time>2026-04-26T11:16:23.341Z</time></trkpt><trkpt lat="44.5442299" lon="8.0573288"><ele>721.0</ele><time>2026-04-26T11:16:24.353Z</time></trkpt><trkpt lat="44.5443877" lon="8.0574726"><ele>721.0</ele><time>2026-04-26T11:16:25.35Z</time></trkpt><trkpt lat="44.5445558" lon="8.0576502"><ele>721.6666666666667</ele><time>2026-04-26T11:16:26.346Z</time></trkpt><trkpt lat="44.5447241" lon="8.0577889"><ele>722.3333333333334</ele><time>2026-04-26T11:16:27.354Z</time></trkpt><trkpt lat="44.5449084" lon="8.0578987"><ele>723.0</ele><time>2026-04-26T11:16:28.347Z</time></trkpt><trkpt lat="44.5450892" lon="8.0579852"><ele>723.0</ele><time>2026-04-26T11:16:29.346Z</time></trkpt><trkpt lat="44.5452636" lon="8.0580819"><ele>723.0</ele><time>2026-04-26T11:16:30.36Z</time></trkpt><trkpt lat="44.5454222" lon="8.0581942"><ele>723.0</ele><time>2026-04-26T11:16:31.352Z</time></trkpt><trkpt lat="44.5455667" lon="8.0583193"><ele>724.3333333333334</ele><time>2026-04-26T11:16:32.349Z</time></trkpt><trkpt lat="44.5457157" lon="8.0584459"><ele>725.6666666666667</ele><time>2026-04-26T11:16:33.348Z</time></trkpt><trkpt lat="44.5458547" lon="8.0585841"><ele>727.0</ele><time>2026-04-26T11:16:34.356Z</time></trkpt><trkpt lat="44.5459833" lon="8.0587181"><ele>727.0</ele><time>2026-04-26T11:16:35.347Z</time></trkpt><trkpt lat="44.5461109" lon="8.0588523"><ele>727.0</ele><time>2026-04-26T11:16:36.351Z</time></trkpt><trkpt lat="44.5462473" lon="8.0589891"><ele>727.0</ele><time>2026-04-26T11:16:37.346Z</time></trkpt><trkpt lat="44.5463892" lon="8.0591239"><ele>728.0</ele><time>2026-04-26T11:16:38.344Z</time></trkpt><trkpt lat="44.5465255" lon="8.0592439"><ele>729.0</ele><time>2026-04-26T11:16:39.339Z</time></trkpt><trkpt lat="44.5466701" lon="8.0593193"><ele>730.0</ele><time>2026-04-26T11:16:40.361Z</time></trkpt><trkpt lat="44.5468288" lon="8.0593278"><ele>730.0</ele><time>2026-04-26T11:16:41.351Z</time></trkpt><trkpt lat="44.5470179" lon="8.0593131"><ele>730.0</ele><time>2026-04-26T11:16:42.347Z</time></trkpt><trkpt lat="44.5471985" lon="8.059311"><ele>730.0</ele><time>2026-04-26T11:16:43.347Z</time></trkpt><trkpt lat="44.5473888" lon="8.0593634"><ele>730.6666666666667</ele><time>2026-04-26T11:16:44.346Z</time></trkpt><trkpt lat="44.5475799" lon="8.0594253"><ele>731.3333333333334</ele><time>2026-04-26T11:16:45.359Z</time></trkpt><trkpt lat="44.547763" lon="8.059554"><ele>732.0</ele><time>2026-04-26T11:16:46.347Z</time></trkpt><trkpt lat="44.547947" lon="8.0596933"><ele>732.0</ele><time>2026-04-26T11:16:47.344Z</time></trkpt><trkpt lat="44.5481098" lon="8.0598637"><ele>732.0</ele><time>2026-04-26T11:16:48.354Z</time></trkpt><trkpt lat="44.5482567" lon="8.0600373"><ele>732.0</ele><time>2026-04-26T11:16:49.352Z</time></trkpt><trkpt lat="44.5483971" lon="8.0602097"><ele>731.3333333333334</ele><time>2026-04-26T11:16:50.349Z</time></trkpt><trkpt lat="44.5485398" lon="8.0603638"><ele>730.6666666666667</ele><time>2026-04-26T11:16:51.356Z</time></trkpt><trkpt lat="44.5486897" lon="8.0604667"><ele>730.0</ele><time>2026-04-26T11:16:52.341Z</time></trkpt><trkpt lat="44.5488635" lon="8.0605202"><ele>729.0</ele><time>2026-04-26T11:16:53.345Z</time></trkpt><trkpt lat="44.5490533" lon="8.0605272"><ele>728.0</ele><time>2026-04-26T11:16:54.355Z</time></trkpt><trkpt lat="44.5492399" lon="8.060527"><ele>727.0</ele><time>2026-04-26T11:16:55.362Z</time></trkpt><trkpt lat="44.5494186" lon="8.0605572"><ele>726.3333333333334</ele><time>2026-04-26T11:16:56.358Z</time></trkpt><trkpt lat="44.5495635" lon="8.0606703"><ele>725.6666666666666</ele><time>2026-04-26T11:16:57.364Z</time></trkpt><trkpt lat="44.5496825" lon="8.0608119"><ele>725.0</ele><time>2026-04-26T11:16:58.347Z</time></trkpt><trkpt lat="44.5498027" lon="8.0609991"><ele>725.0</ele><time>2026-04-26T11:16:59.352Z</time></trkpt><trkpt lat="44.5498996" lon="8.0612002"><ele>725.0</ele><time>2026-04-26T11:17:00.354Z</time></trkpt><trkpt lat="44.5500131" lon="8.0613752"><ele>725.0</ele><time>2026-04-26T11:17:01.353Z</time></trkpt><trkpt lat="44.550153" lon="8.0615144"><ele>726.3333333333333</ele><time>2026-04-26T11:17:02.369Z</time></trkpt><trkpt lat="44.5503236" lon="8.0616177"><ele>727.6666666666666</ele><time>2026-04-26T11:17:03.351Z</time></trkpt><trkpt lat="44.5505003" lon="8.0616821"><ele>729.0</ele><time>2026-04-26T11:17:04.355Z</time></trkpt><trkpt lat="44.5506965" lon="8.0617084"><ele>729.3333333333334</ele><time>2026-04-26T11:17:05.353Z</time></trkpt><trkpt lat="44.5508866" lon="8.0617508"><ele>729.6666666666667</ele><time>2026-04-26T11:17:06.345Z</time></trkpt><trkpt lat="44.551065" lon="8.0617999"><ele>730.0</ele><time>2026-04-26T11:17:07.34Z</time></trkpt><trkpt lat="44.5512448" lon="8.06186"><ele>728.3333333333334</ele><time>2026-04-26T11:17:08.36Z</time></trkpt><trkpt lat="44.5514001" lon="8.0619657"><ele>726.6666666666666</ele><time>2026-04-26T11:17:09.354Z</time></trkpt><trkpt lat="44.5515551" lon="8.0621178"><ele>725.0</ele><time>2026-04-26T11:17:10.35Z</time></trkpt><trkpt lat="44.5517075" lon="8.0622925"><ele>726.6666666666666</ele><time>2026-04-26T11:17:11.348Z</time></trkpt><trkpt lat="44.5518609" lon="8.0624664"><ele>728.3333333333334</ele><time>2026-04-26T11:17:12.346Z</time></trkpt><trkpt lat="44.5520174" lon="8.0626444"><ele>730.0</ele><time>2026-04-26T11:17:13.355Z</time></trkpt><trkpt lat="44.5521697" lon="8.06282"><ele>730.0</ele><time>2026-04-26T11:17:14.346Z</time></trkpt><trkpt lat="44.5523127" lon="8.0629628"><ele>730.0</ele><time>2026-04-26T11:17:15.342Z</time></trkpt><trkpt lat="44.552453" lon="8.0630748"><ele>730.0</ele><time>2026-04-26T11:17:16.349Z</time></trkpt><trkpt lat="44.5525996" lon="8.063108"><ele>730.0</ele><time>2026-04-26T11:17:17.353Z</time></trkpt><trkpt lat="44.5527754" lon="8.0630735"><ele>730.0</ele><time>2026-04-26T11:17:18.341Z</time></trkpt><trkpt lat="44.5529411" lon="8.0629863"><ele>730.0</ele><time>2026-04-26T11:17:19.341Z</time></trkpt><trkpt lat="44.5531175" lon="8.0628829"><ele>730.6666666666667</ele><time>2026-04-26T11:17:20.348Z</time></trkpt><trkpt lat="44.553296" lon="8.0627822"><ele>731.3333333333334</ele><time>2026-04-26T11:17:21.351Z</time></trkpt><trkpt lat="44.55347" lon="8.0626953"><ele>732.0</ele><time>2026-04-26T11:17:22.345Z</time></trkpt><trkpt lat="44.5536308" lon="8.062606"><ele>731.6666666666666</ele><time>2026-04-26T11:17:23.342Z</time></trkpt><trkpt lat="44.553787" lon="8.0625229"><ele>731.3333333333333</ele><time>2026-04-26T11:17:24.366Z</time></trkpt><trkpt lat="44.5539362" lon="8.0624925"><ele>731.0</ele><time>2026-04-26T11:17:25.346Z</time></trkpt><trkpt lat="44.5540981" lon="8.0625128"><ele>731.0</ele><time>2026-04-26T11:17:26.342Z</time></trkpt><trkpt lat="44.5542432" lon="8.0625572"><ele>731.0</ele><time>2026-04-26T11:17:27.372Z</time></trkpt><trkpt lat="44.5543901" lon="8.0625973"><ele>731.0</ele><time>2026-04-26T11:17:28.353Z</time></trkpt><trkpt lat="44.5545457" lon="8.062622"><ele>732.0</ele><time>2026-04-26T11:17:29.353Z</time></trkpt><trkpt lat="44.5547097" lon="8.0626061"><ele>733.0</ele><time>2026-04-26T11:17:30.365Z</time></trkpt><trkpt lat="44.5548614" lon="8.0625518"><ele>734.0</ele><time>2026-04-26T11:17:31.344Z</time></trkpt><trkpt lat="44.5550067" lon="8.0624457"><ele>731.0</ele><time>2026-04-26T11:17:32.369Z</time></trkpt><trkpt lat="44.555139" lon="8.0623"><ele>728.0</ele><time>2026-04-26T11:17:33.354Z</time></trkpt><trkpt lat="44.5552491" lon="8.062121"><ele>725.0</ele><time>2026-04-26T11:17:34.353Z</time></trkpt><trkpt lat="44.5553507" lon="8.0619196"><ele>729.3333333333333</ele><time>2026-04-26T11:17:35.356Z</time></trkpt><trkpt lat="44.5554427" lon="8.0617164"><ele>733.6666666666666</ele><time>2026-04-26T11:17:36.346Z</time></trkpt><trkpt lat="44.5555313" lon="8.06151"><ele>738.0</ele><time>2026-04-26T11:17:37.357Z</time></trkpt><trkpt lat="44.555613" lon="8.0613214"><ele>738.0</ele><time>2026-04-26T11:17:38.35Z</time></trkpt><trkpt lat="44.5556927" lon="8.0611353"><ele>738.0</ele><time>2026-04-26T11:17:39.343Z</time></trkpt><trkpt lat="44.5557698" lon="8.0609553"><ele>738.0</ele><time>2026-04-26T11:17:40.348Z</time></trkpt><trkpt lat="44.5558441" lon="8.0607826"><ele>738.0</ele><time>2026-04-26T11:17:41.341Z</time></trkpt><trkpt lat="44.5559334" lon="8.0606445"><ele>736.0</ele><time>2026-04-26T11:17:42.352Z</time></trkpt><trkpt lat="44.5560346" lon="8.0605188"><ele>734.0</ele><time>2026-04-26T11:17:43.353Z</time></trkpt><trkpt lat="44.5561553" lon="8.060432"><ele>732.0</ele><time>2026-04-26T11:17:44.345Z</time></trkpt><trkpt lat="44.5562866" lon="8.0603688"><ele>730.0</ele><time>2026-04-26T11:17:45.345Z</time></trkpt><trkpt lat="44.5563999" lon="8.0603206"><ele>730.0</ele><time>2026-04-26T11:17:46.348Z</time></trkpt><trkpt lat="44.5565198" lon="8.0602832"><ele>730.0</ele><time>2026-04-26T11:17:47.348Z</time></trkpt><trkpt lat="44.5566376" lon="8.0602531"><ele>730.0</ele><time>2026-04-26T11:17:48.344Z</time></trkpt><trkpt lat="44.5567509" lon="8.0602074"><ele>730.0</ele><time>2026-04-26T11:17:49.348Z</time></trkpt><trkpt lat="44.5568627" lon="8.0601569"><ele>730.0</ele><time>2026-04-26T11:17:50.349Z</time></trkpt><trkpt lat="44.5569772" lon="8.0601089"><ele>730.0</ele><time>2026-04-26T11:17:51.343Z</time></trkpt><trkpt lat="44.5570897" lon="8.0600536"><ele>730.0</ele><time>2026-04-26T11:17:52.358Z</time></trkpt><trkpt lat="44.5572005" lon="8.0599847"><ele>730.0</ele><time>2026-04-26T11:17:53.349Z</time></trkpt><trkpt lat="44.5573073" lon="8.0599164"><ele>728.25</ele><time>2026-04-26T11:17:54.341Z</time></trkpt><trkpt lat="44.5574209" lon="8.059858"><ele>726.5</ele><time>2026-04-26T11:17:55.343Z</time></trkpt><trkpt lat="44.5575296" lon="8.0598007"><ele>724.75</ele><time>2026-04-26T11:17:56.352Z</time></trkpt><trkpt lat="44.5576314" lon="8.0597414"><ele>723.0</ele><time>2026-04-26T11:17:57.366Z</time></trkpt><trkpt lat="44.5577336" lon="8.0596855"><ele>723.0</ele><time>2026-04-26T11:17:58.349Z</time></trkpt><trkpt lat="44.5578349" lon="8.059647"><ele>723.0</ele><time>2026-04-26T11:17:59.373Z</time></trkpt><trkpt lat="44.5579432" lon="8.0596354"><ele>723.0</ele><time>2026-04-26T11:18:00.343Z</time></trkpt><trkpt lat="44.5580553" lon="8.0596322"><ele>723.0</ele><time>2026-04-26T11:18:01.355Z</time></trkpt><trkpt lat="44.5581651" lon="8.0596413"><ele>723.0</ele><time>2026-04-26T11:18:02.352Z</time></trkpt><trkpt lat="44.558237" lon="8.0596436"><ele>721.8333333333334</ele><time>2026-04-26T11:18:03.36Z</time></trkpt><trkpt lat="44.558309" lon="8.0596211"><ele>720.6666666666666</ele><time>2026-04-26T11:18:06.37Z</time></trkpt><trkpt lat="44.5582786" lon="8.0595281"><ele>719.5</ele><time>2026-04-26T11:18:09.346Z</time></trkpt><trkpt lat="44.5582382" lon="8.0594116"><ele>718.3333333333333</ele><time>2026-04-26T11:18:11.35Z</time></trkpt><trkpt lat="44.5582576" lon="8.059309"><ele>717.1666666666666</ele><time>2026-04-26T11:18:12.353Z</time></trkpt><trkpt lat="44.5582947" lon="8.0591916"><ele>716.0</ele><time>2026-04-26T11:18:13.349Z</time></trkpt><trkpt lat="44.5583665" lon="8.0590784"><ele>716.0</ele><time>2026-04-26T11:18:14.347Z</time></trkpt><trkpt lat="44.5584679" lon="8.0589901"><ele>716.0</ele><time>2026-04-26T11:18:15.37Z</time></trkpt><trkpt lat="44.5585801" lon="8.0589272"><ele>716.0</ele><time>2026-04-26T11:18:16.348Z</time></trkpt><trkpt lat="44.5586969" lon="8.058847"><ele>716.0</ele><time>2026-04-26T11:18:17.339Z</time></trkpt><trkpt lat="44.5588102" lon="8.0587301"><ele>718.3333333333333</ele><time>2026-04-26T11:18:18.348Z</time></trkpt><trkpt lat="44.5589204" lon="8.0585869"><ele>720.6666666666666</ele><time>2026-04-26T11:18:19.34Z</time></trkpt><trkpt lat="44.5590291" lon="8.0584239"><ele>723.0</ele><time>2026-04-26T11:18:20.344Z</time></trkpt><trkpt lat="44.5591282" lon="8.0582567"><ele>723.0</ele><time>2026-04-26T11:18:21.349Z</time></trkpt><trkpt lat="44.5592127" lon="8.0580731"><ele>723.0</ele><time>2026-04-26T11:18:22.348Z</time></trkpt><trkpt lat="44.5592978" lon="8.057879"><ele>723.0</ele><time>2026-04-26T11:18:23.341Z</time></trkpt><trkpt lat="44.5593849" lon="8.0576814"><ele>723.0</ele><time>2026-04-26T11:18:24.344Z</time></trkpt><trkpt lat="44.5594607" lon="8.0574996"><ele>723.0</ele><time>2026-04-26T11:18:25.347Z</time></trkpt><trkpt lat="44.55953" lon="8.0573194"><ele>723.0</ele><time>2026-04-26T11:18:26.342Z</time></trkpt><trkpt lat="44.5595529" lon="8.0571609"><ele>723.0</ele><time>2026-04-26T11:18:27.34Z</time></trkpt><trkpt lat="44.5595302" lon="8.0570057"><ele>723.0</ele><time>2026-04-26T11:18:28.369Z</time></trkpt><trkpt lat="44.5594763" lon="8.0568147"><ele>723.0</ele><time>2026-04-26T11:18:29.338Z</time></trkpt><trkpt lat="44.5593955" lon="8.0566351"><ele>723.0</ele><time>2026-04-26T11:18:30.346Z</time></trkpt><trkpt lat="44.5593163" lon="8.0564399"><ele>723.0</ele><time>2026-04-26T11:18:31.352Z</time></trkpt><trkpt lat="44.5592614" lon="8.056233"><ele>723.0</ele><time>2026-04-26T11:18:32.339Z</time></trkpt><trkpt lat="44.5592362" lon="8.0560243"><ele>723.0</ele><time>2026-04-26T11:18:33.339Z</time></trkpt><trkpt lat="44.5592438" lon="8.0558235"><ele>723.75</ele><time>2026-04-26T11:18:34.343Z</time></trkpt><trkpt lat="44.5592437" lon="8.0556311"><ele>724.5</ele><time>2026-04-26T11:18:35.34Z</time></trkpt><trkpt lat="44.55922" lon="8.0554245"><ele>725.25</ele><time>2026-04-26T11:18:36.351Z</time></trkpt><trkpt lat="44.5591466" lon="8.0552203"><ele>726.0</ele><time>2026-04-26T11:18:37.347Z</time></trkpt><trkpt lat="44.5590559" lon="8.0550113"><ele>725.3333333333334</ele><time>2026-04-26T11:18:38.347Z</time></trkpt><trkpt lat="44.5589636" lon="8.0548059"><ele>724.6666666666667</ele><time>2026-04-26T11:18:39.347Z</time></trkpt><trkpt lat="44.5588934" lon="8.0546012"><ele>724.0</ele><time>2026-04-26T11:18:40.358Z</time></trkpt><trkpt lat="44.5588558" lon="8.0543803"><ele>724.0</ele><time>2026-04-26T11:18:41.344Z</time></trkpt><trkpt lat="44.5588325" lon="8.0541419"><ele>724.0</ele><time>2026-04-26T11:18:42.346Z</time></trkpt><trkpt lat="44.5588143" lon="8.0539149"><ele>724.0</ele><time>2026-04-26T11:18:43.35Z</time></trkpt><trkpt lat="44.5587593" lon="8.0537015"><ele>716.6666666666667</ele><time>2026-04-26T11:18:44.35Z</time></trkpt><trkpt lat="44.5586938" lon="8.053496"><ele>709.3333333333334</ele><time>2026-04-26T11:18:45.344Z</time></trkpt><trkpt lat="44.558624" lon="8.0532809"><ele>702.0</ele><time>2026-04-26T11:18:46.35Z</time></trkpt><trkpt lat="44.5585835" lon="8.0530582"><ele>701.3333333333334</ele><time>2026-04-26T11:18:47.346Z</time></trkpt><trkpt lat="44.5585779" lon="8.0528066"><ele>700.6666666666667</ele><time>2026-04-26T11:18:48.351Z</time></trkpt><trkpt lat="44.5585764" lon="8.0525613"><ele>700.0</ele><time>2026-04-26T11:18:49.348Z</time></trkpt><trkpt lat="44.5585725" lon="8.0523063"><ele>697.6666666666667</ele><time>2026-04-26T11:18:50.35Z</time></trkpt><trkpt lat="44.5585743" lon="8.0520578"><ele>695.3333333333334</ele><time>2026-04-26T11:18:51.338Z</time></trkpt><trkpt lat="44.5586024" lon="8.0518164"><ele>693.0</ele><time>2026-04-26T11:18:52.34Z</time></trkpt><trkpt lat="44.5586704" lon="8.0516068"><ele>694.5</ele><time>2026-04-26T11:18:53.348Z</time></trkpt><trkpt lat="44.5587548" lon="8.0514128"><ele>696.0</ele><time>2026-04-26T11:18:54.348Z</time></trkpt><trkpt lat="44.5588217" lon="8.0512467"><ele>697.5</ele><time>2026-04-26T11:18:55.357Z</time></trkpt><trkpt lat="44.5588459" lon="8.0510943"><ele>699.0</ele><time>2026-04-26T11:18:56.345Z</time></trkpt><trkpt lat="44.5588225" lon="8.050926"><ele>698.75</ele><time>2026-04-26T11:18:57.35Z</time></trkpt><trkpt lat="44.5587531" lon="8.0507587"><ele>698.5</ele><time>2026-04-26T11:18:58.351Z</time></trkpt><trkpt lat="44.5586664" lon="8.0506177"><ele>698.25</ele><time>2026-04-26T11:18:59.347Z</time></trkpt><trkpt lat="44.5585558" lon="8.0504697"><ele>698.0</ele><time>2026-04-26T11:19:00.337Z</time></trkpt><trkpt lat="44.5584371" lon="8.0503398"><ele>697.75</ele><time>2026-04-26T11:19:01.338Z</time></trkpt><trkpt lat="44.5583347" lon="8.0502127"><ele>697.5</ele><time>2026-04-26T11:19:02.345Z</time></trkpt><trkpt lat="44.5582784" lon="8.0500594"><ele>697.25</ele><time>2026-04-26T11:19:03.345Z</time></trkpt><trkpt lat="44.5582795" lon="8.0498892"><ele>697.0</ele><time>2026-04-26T11:19:04.346Z</time></trkpt><trkpt lat="44.5583393" lon="8.0497407"><ele>693.0</ele><time>2026-04-26T11:19:05.344Z</time></trkpt><trkpt lat="44.5584432" lon="8.0495476"><ele>689.0</ele><time>2026-04-26T11:19:06.341Z</time></trkpt><trkpt lat="44.5585762" lon="8.0493589"><ele>685.0</ele><time>2026-04-26T11:19:07.354Z</time></trkpt><trkpt lat="44.5586985" lon="8.0491667"><ele>686.3333333333334</ele><time>2026-04-26T11:19:08.341Z</time></trkpt><trkpt lat="44.5588167" lon="8.0489581"><ele>687.6666666666666</ele><time>2026-04-26T11:19:09.344Z</time></trkpt><trkpt lat="44.5589385" lon="8.0487446"><ele>689.0</ele><time>2026-04-26T11:19:10.34Z</time></trkpt><trkpt lat="44.5590517" lon="8.0485235"><ele>689.0</ele><time>2026-04-26T11:19:11.333Z</time></trkpt><trkpt lat="44.5591563" lon="8.0482976"><ele>689.0</ele><time>2026-04-26T11:19:12.336Z</time></trkpt><trkpt lat="44.5592645" lon="8.0480721"><ele>689.0</ele><time>2026-04-26T11:19:13.344Z</time></trkpt><trkpt lat="44.5593696" lon="8.0478563"><ele>686.3333333333333</ele><time>2026-04-26T11:19:14.344Z</time></trkpt><trkpt lat="44.5594637" lon="8.0476499"><ele>683.6666666666666</ele><time>2026-04-26T11:19:15.341Z</time></trkpt><trkpt lat="44.5595151" lon="8.0474279"><ele>681.0</ele><time>2026-04-26T11:19:16.341Z</time></trkpt><trkpt lat="44.5595382" lon="8.0471831"><ele>677.6666666666666</ele><time>2026-04-26T11:19:17.339Z</time></trkpt><trkpt lat="44.5595279" lon="8.0469311"><ele>674.3333333333333</ele><time>2026-04-26T11:19:18.343Z</time></trkpt><trkpt lat="44.5594937" lon="8.0466756"><ele>671.0</ele><time>2026-04-26T11:19:19.351Z</time></trkpt><trkpt lat="44.5594442" lon="8.0464236"><ele>671.0</ele><time>2026-04-26T11:19:20.341Z</time></trkpt><trkpt lat="44.5593974" lon="8.0461676"><ele>671.0</ele><time>2026-04-26T11:19:21.352Z</time></trkpt><trkpt lat="44.5593536" lon="8.0459224"><ele>671.0</ele><time>2026-04-26T11:19:22.347Z</time></trkpt><trkpt lat="44.5592921" lon="8.045689"><ele>673.0</ele><time>2026-04-26T11:19:23.347Z</time></trkpt><trkpt lat="44.5591989" lon="8.0454851"><ele>675.0</ele><time>2026-04-26T11:19:24.348Z</time></trkpt><trkpt lat="44.5591164" lon="8.0452915"><ele>677.0</ele><time>2026-04-26T11:19:25.353Z</time></trkpt><trkpt lat="44.5590836" lon="8.045103"><ele>672.6666666666666</ele><time>2026-04-26T11:19:26.359Z</time></trkpt><trkpt lat="44.5591107" lon="8.0449031"><ele>668.3333333333334</ele><time>2026-04-26T11:19:27.339Z</time></trkpt><trkpt lat="44.5591627" lon="8.0447023"><ele>664.0</ele><time>2026-04-26T11:19:28.346Z</time></trkpt><trkpt lat="44.5592172" lon="8.0444881"><ele>664.0</ele><time>2026-04-26T11:19:29.34Z</time></trkpt><trkpt lat="44.5593027" lon="8.04429"><ele>664.0</ele><time>2026-04-26T11:19:30.345Z</time></trkpt><trkpt lat="44.5594115" lon="8.0441238"><ele>664.0</ele><time>2026-04-26T11:19:31.34Z</time></trkpt><trkpt lat="44.5595021" lon="8.0439536"><ele>664.3333333333334</ele><time>2026-04-26T11:19:32.34Z</time></trkpt><trkpt lat="44.5595749" lon="8.0437411"><ele>664.6666666666666</ele><time>2026-04-26T11:19:33.341Z</time></trkpt><trkpt lat="44.559618" lon="8.0435064"><ele>665.0</ele><time>2026-04-26T11:19:34.338Z</time></trkpt><trkpt lat="44.5596241" lon="8.0432574"><ele>663.0</ele><time>2026-04-26T11:19:35.341Z</time></trkpt><trkpt lat="44.5596162" lon="8.043016"><ele>661.0</ele><time>2026-04-26T11:19:36.352Z</time></trkpt><trkpt lat="44.5596149" lon="8.0427671"><ele>659.0</ele><time>2026-04-26T11:19:37.346Z</time></trkpt><trkpt lat="44.5596433" lon="8.0425027"><ele>656.6666666666666</ele><time>2026-04-26T11:19:38.349Z</time></trkpt><trkpt lat="44.5596878" lon="8.0422601"><ele>654.3333333333334</ele><time>2026-04-26T11:19:39.343Z</time></trkpt><trkpt lat="44.5597393" lon="8.0420307"><ele>652.0</ele><time>2026-04-26T11:19:40.35Z</time></trkpt><trkpt lat="44.5598334" lon="8.0418095"><ele>648.6666666666667</ele><time>2026-04-26T11:19:41.351Z</time></trkpt><trkpt lat="44.5599477" lon="8.0415854"><ele>645.3333333333334</ele><time>2026-04-26T11:19:42.348Z</time></trkpt><trkpt lat="44.5600495" lon="8.0413611"><ele>642.0</ele><time>2026-04-26T11:19:43.357Z</time></trkpt><trkpt lat="44.5601609" lon="8.0411524"><ele>642.0</ele><time>2026-04-26T11:19:44.342Z</time></trkpt><trkpt lat="44.5602477" lon="8.0409417"><ele>642.0</ele><time>2026-04-26T11:19:45.347Z</time></trkpt><trkpt lat="44.5603128" lon="8.0407162"><ele>642.0</ele><time>2026-04-26T11:19:46.346Z</time></trkpt><trkpt lat="44.5603565" lon="8.0404674"><ele>641.3333333333334</ele><time>2026-04-26T11:19:47.342Z</time></trkpt><trkpt lat="44.5603748" lon="8.0402071"><ele>640.6666666666667</ele><time>2026-04-26T11:19:48.357Z</time></trkpt><trkpt lat="44.5603863" lon="8.0399429"><ele>640.0</ele><time>2026-04-26T11:19:49.357Z</time></trkpt><trkpt lat="44.5604064" lon="8.0396717"><ele>640.0</ele><time>2026-04-26T11:19:50.345Z</time></trkpt><trkpt lat="44.5604442" lon="8.039393"><ele>640.0</ele><time>2026-04-26T11:19:51.344Z</time></trkpt><trkpt lat="44.5605042" lon="8.0391278"><ele>640.0</ele><time>2026-04-26T11:19:52.361Z</time></trkpt><trkpt lat="44.5605771" lon="8.0388766"><ele>640.0</ele><time>2026-04-26T11:19:53.356Z</time></trkpt><trkpt lat="44.5606576" lon="8.0386281"><ele>640.0</ele><time>2026-04-26T11:19:54.349Z</time></trkpt><trkpt lat="44.5607362" lon="8.0383754"><ele>640.0</ele><time>2026-04-26T11:19:55.354Z</time></trkpt><trkpt lat="44.5608087" lon="8.0381311"><ele>640.3333333333334</ele><time>2026-04-26T11:19:56.349Z</time></trkpt><trkpt lat="44.5608937" lon="8.0378946"><ele>640.6666666666666</ele><time>2026-04-26T11:19:57.352Z</time></trkpt><trkpt lat="44.5609762" lon="8.0376525"><ele>641.0</ele><time>2026-04-26T11:19:58.347Z</time></trkpt><trkpt lat="44.5610564" lon="8.0374079"><ele>639.6666666666666</ele><time>2026-04-26T11:19:59.345Z</time></trkpt><trkpt lat="44.5611371" lon="8.0371578"><ele>638.3333333333334</ele><time>2026-04-26T11:20:00.351Z</time></trkpt><trkpt lat="44.5612163" lon="8.0369086"><ele>637.0</ele><time>2026-04-26T11:20:01.374Z</time></trkpt><trkpt lat="44.5613044" lon="8.036649"><ele>638.6666666666667</ele><time>2026-04-26T11:20:02.353Z</time></trkpt><trkpt lat="44.5613911" lon="8.0363968"><ele>640.3333333333334</ele><time>2026-04-26T11:20:03.347Z</time></trkpt><trkpt lat="44.5614762" lon="8.0361496"><ele>642.0</ele><time>2026-04-26T11:20:04.347Z</time></trkpt><trkpt lat="44.5615596" lon="8.0359058"><ele>642.6666666666666</ele><time>2026-04-26T11:20:05.341Z</time></trkpt><trkpt lat="44.5616373" lon="8.0356683"><ele>643.3333333333333</ele><time>2026-04-26T11:20:06.353Z</time></trkpt><trkpt lat="44.561698" lon="8.0354415"><ele>644.0</ele><time>2026-04-26T11:20:07.342Z</time></trkpt><trkpt lat="44.5617343" lon="8.0352104"><ele>644.0</ele><time>2026-04-26T11:20:08.348Z</time></trkpt><trkpt lat="44.5617402" lon="8.034983"><ele>644.0</ele><time>2026-04-26T11:20:09.347Z</time></trkpt><trkpt lat="44.561708" lon="8.034753"><ele>644.0</ele><time>2026-04-26T11:20:10.345Z</time></trkpt><trkpt lat="44.5616789" lon="8.0345296"><ele>643.25</ele><time>2026-04-26T11:20:11.348Z</time></trkpt><trkpt lat="44.5616708" lon="8.0343461"><ele>642.5</ele><time>2026-04-26T11:20:12.346Z</time></trkpt><trkpt lat="44.5617343" lon="8.0341799"><ele>641.75</ele><time>2026-04-26T11:20:13.34Z</time></trkpt><trkpt lat="44.5618236" lon="8.0340394"><ele>641.0</ele><time>2026-04-26T11:20:14.347Z</time></trkpt><trkpt lat="44.5619477" lon="8.033934"><ele>640.6666666666666</ele><time>2026-04-26T11:20:15.336Z</time></trkpt><trkpt lat="44.5620888" lon="8.0338393"><ele>640.3333333333334</ele><time>2026-04-26T11:20:16.339Z</time></trkpt><trkpt lat="44.5622389" lon="8.0337326"><ele>640.0</ele><time>2026-04-26T11:20:17.364Z</time></trkpt><trkpt lat="44.5623789" lon="8.0336089"><ele>640.0</ele><time>2026-04-26T11:20:18.346Z</time></trkpt><trkpt lat="44.5625059" lon="8.0334786"><ele>640.0</ele><time>2026-04-26T11:20:19.345Z</time></trkpt><trkpt lat="44.5626151" lon="8.0333276"><ele>640.0</ele><time>2026-04-26T11:20:20.348Z</time></trkpt><trkpt lat="44.5627003" lon="8.0331526"><ele>639.5</ele><time>2026-04-26T11:20:21.339Z</time></trkpt><trkpt lat="44.5627557" lon="8.032965"><ele>639.0</ele><time>2026-04-26T11:20:22.346Z</time></trkpt><trkpt lat="44.5628155" lon="8.0327902"><ele>638.5</ele><time>2026-04-26T11:20:23.35Z</time></trkpt><trkpt lat="44.5628744" lon="8.0326242"><ele>638.0</ele><time>2026-04-26T11:20:24.341Z</time></trkpt><trkpt lat="44.5629278" lon="8.0324668"><ele>638.0</ele><time>2026-04-26T11:20:25.343Z</time></trkpt><trkpt lat="44.5630089" lon="8.0323216"><ele>638.0</ele><time>2026-04-26T11:20:26.348Z</time></trkpt><trkpt lat="44.5631049" lon="8.0321949"><ele>638.0</ele><time>2026-04-26T11:20:27.344Z</time></trkpt><trkpt lat="44.5632196" lon="8.0320797"><ele>638.0</ele><time>2026-04-26T11:20:28.355Z</time></trkpt><trkpt lat="44.5633256" lon="8.0319544"><ele>638.0</ele><time>2026-04-26T11:20:29.344Z</time></trkpt><trkpt lat="44.5634374" lon="8.0318168"><ele>638.0</ele><time>2026-04-26T11:20:30.337Z</time></trkpt><trkpt lat="44.5635261" lon="8.0316359"><ele>638.0</ele><time>2026-04-26T11:20:31.35Z</time></trkpt><trkpt lat="44.5635976" lon="8.0314252"><ele>638.3333333333333</ele><time>2026-04-26T11:20:32.37Z</time></trkpt><trkpt lat="44.5636564" lon="8.0312303"><ele>638.6666666666666</ele><time>2026-04-26T11:20:33.347Z</time></trkpt><trkpt lat="44.5637038" lon="8.0310095"><ele>639.0</ele><time>2026-04-26T11:20:34.338Z</time></trkpt><trkpt lat="44.5637572" lon="8.0308083"><ele>637.0</ele><time>2026-04-26T11:20:35.342Z</time></trkpt><trkpt lat="44.5637923" lon="8.030619"><ele>635.0</ele><time>2026-04-26T11:20:36.349Z</time></trkpt><trkpt lat="44.5637963" lon="8.0304414"><ele>633.0</ele><time>2026-04-26T11:20:37.347Z</time></trkpt><trkpt lat="44.563756" lon="8.0302599"><ele>631.0</ele><time>2026-04-26T11:20:38.355Z</time></trkpt><trkpt lat="44.5636741" lon="8.0300683"><ele>627.3333333333334</ele><time>2026-04-26T11:20:39.342Z</time></trkpt><trkpt lat="44.5635843" lon="8.0298704"><ele>623.6666666666666</ele><time>2026-04-26T11:20:40.35Z</time></trkpt><trkpt lat="44.5634895" lon="8.0296565"><ele>620.0</ele><time>2026-04-26T11:20:41.348Z</time></trkpt><trkpt lat="44.563398" lon="8.0294409"><ele>620.0</ele><time>2026-04-26T11:20:42.336Z</time></trkpt><trkpt lat="44.5633021" lon="8.0292599"><ele>620.0</ele><time>2026-04-26T11:20:43.355Z</time></trkpt><trkpt lat="44.5632056" lon="8.0291294"><ele>620.0</ele><time>2026-04-26T11:20:44.343Z</time></trkpt><trkpt lat="44.5630868" lon="8.0290373"><ele>620.0</ele><time>2026-04-26T11:20:45.349Z</time></trkpt><trkpt lat="44.5629729" lon="8.0289396"><ele>617.0</ele><time>2026-04-26T11:20:46.349Z</time></trkpt><trkpt lat="44.5628905" lon="8.0288129"><ele>614.0</ele><time>2026-04-26T11:20:47.348Z</time></trkpt><trkpt lat="44.5628786" lon="8.0286415"><ele>611.0</ele><time>2026-04-26T11:20:48.347Z</time></trkpt><trkpt lat="44.5628988" lon="8.0284516"><ele>608.0</ele><time>2026-04-26T11:20:49.347Z</time></trkpt><trkpt lat="44.5629269" lon="8.0282998"><ele>608.0</ele><time>2026-04-26T11:20:50.352Z</time></trkpt><trkpt lat="44.5629801" lon="8.0282238"><ele>608.0</ele><time>2026-04-26T11:20:51.341Z</time></trkpt><trkpt lat="44.5630875" lon="8.0282627"><ele>608.0</ele><time>2026-04-26T11:20:52.343Z</time></trkpt><trkpt lat="44.5631874" lon="8.0283583"><ele>608.0</ele><time>2026-04-26T11:20:53.341Z</time></trkpt><trkpt lat="44.5632681" lon="8.0284697"><ele>608.0</ele><time>2026-04-26T11:20:54.349Z</time></trkpt><trkpt lat="44.5633565" lon="8.0285479"><ele>608.0</ele><time>2026-04-26T11:20:55.34Z</time></trkpt><trkpt lat="44.5634308" lon="8.0285795"><ele>608.0</ele><time>2026-04-26T11:20:56.349Z</time></trkpt><trkpt lat="44.5634919" lon="8.0285246"><ele>608.0</ele><time>2026-04-26T11:20:57.345Z</time></trkpt><trkpt lat="44.5635372" lon="8.0284014"><ele>608.0</ele><time>2026-04-26T11:20:58.349Z</time></trkpt><trkpt lat="44.5635396" lon="8.0282874"><ele>608.0</ele><time>2026-04-26T11:20:59.348Z</time></trkpt><trkpt lat="44.5634561" lon="8.0281532"><ele>605.3333333333333</ele><time>2026-04-26T11:21:00.337Z</time></trkpt><trkpt lat="44.5633451" lon="8.0279818"><ele>602.6666666666666</ele><time>2026-04-26T11:21:01.342Z</time></trkpt><trkpt lat="44.5632225" lon="8.0278174"><ele>600.0</ele><time>2026-04-26T11:21:02.357Z</time></trkpt><trkpt lat="44.5631006" lon="8.0276494"><ele>600.0</ele><time>2026-04-26T11:21:03.342Z</time></trkpt><trkpt lat="44.5629909" lon="8.0274986"><ele>600.0</ele><time>2026-04-26T11:21:04.337Z</time></trkpt><trkpt lat="44.5629105" lon="8.0273612"><ele>600.0</ele><time>2026-04-26T11:21:05.339Z</time></trkpt><trkpt lat="44.5628768" lon="8.0272042"><ele>600.0</ele><time>2026-04-26T11:21:06.348Z</time></trkpt><trkpt lat="44.5629129" lon="8.0270913"><ele>597.25</ele><time>2026-04-26T11:21:07.349Z</time></trkpt><trkpt lat="44.562992" lon="8.0269768"><ele>594.5</ele><time>2026-04-26T11:21:08.341Z</time></trkpt><trkpt lat="44.5631078" lon="8.0269602"><ele>591.75</ele><time>2026-04-26T11:21:09.348Z</time></trkpt><trkpt lat="44.5632541" lon="8.0270083"><ele>589.0</ele><time>2026-04-26T11:21:10.344Z</time></trkpt><trkpt lat="44.5633951" lon="8.0270973"><ele>589.0</ele><time>2026-04-26T11:21:11.352Z</time></trkpt><trkpt lat="44.5635336" lon="8.0272027"><ele>589.0</ele><time>2026-04-26T11:21:12.351Z</time></trkpt><trkpt lat="44.5636541" lon="8.027227"><ele>589.0</ele><time>2026-04-26T11:21:13.35Z</time></trkpt><trkpt lat="44.5637525" lon="8.0272197"><ele>589.0</ele><time>2026-04-26T11:21:14.338Z</time></trkpt><trkpt lat="44.5638375" lon="8.0271266"><ele>587.0</ele><time>2026-04-26T11:21:15.34Z</time></trkpt><trkpt lat="44.5638857" lon="8.0269628"><ele>585.0</ele><time>2026-04-26T11:21:16.349Z</time></trkpt><trkpt lat="44.5639218" lon="8.0267778"><ele>583.0</ele><time>2026-04-26T11:21:17.345Z</time></trkpt><trkpt lat="44.5639449" lon="8.0265729"><ele>581.0</ele><time>2026-04-26T11:21:18.355Z</time></trkpt><trkpt lat="44.5639452" lon="8.0263826"><ele>579.3333333333333</ele><time>2026-04-26T11:21:19.35Z</time></trkpt><trkpt lat="44.5639154" lon="8.0261786"><ele>577.6666666666666</ele><time>2026-04-26T11:21:20.361Z</time></trkpt><trkpt lat="44.5638292" lon="8.0259742"><ele>576.0</ele><time>2026-04-26T11:21:21.346Z</time></trkpt><trkpt lat="44.5637346" lon="8.0257602"><ele>576.3333333333334</ele><time>2026-04-26T11:21:22.347Z</time></trkpt><trkpt lat="44.5636388" lon="8.0255593"><ele>576.6666666666667</ele><time>2026-04-26T11:21:23.346Z</time></trkpt><trkpt lat="44.5635349" lon="8.0253544"><ele>577.0</ele><time>2026-04-26T11:21:24.357Z</time></trkpt><trkpt lat="44.5634142" lon="8.0251886"><ele>577.0</ele><time>2026-04-26T11:21:25.349Z</time></trkpt><trkpt lat="44.5632759" lon="8.0250711"><ele>577.0</ele><time>2026-04-26T11:21:26.343Z</time></trkpt><trkpt lat="44.5631455" lon="8.0249645"><ele>577.0</ele><time>2026-04-26T11:21:27.353Z</time></trkpt><trkpt lat="44.5630498" lon="8.0248597"><ele>577.0</ele><time>2026-04-26T11:21:28.35Z</time></trkpt><trkpt lat="44.56302" lon="8.024735"><ele>574.6</ele><time>2026-04-26T11:21:29.35Z</time></trkpt><trkpt lat="44.5630498" lon="8.0246052"><ele>572.2</ele><time>2026-04-26T11:21:30.345Z</time></trkpt><trkpt lat="44.5631163" lon="8.0245422"><ele>569.8</ele><time>2026-04-26T11:21:31.36Z</time></trkpt><trkpt lat="44.5632258" lon="8.0245593"><ele>567.4</ele><time>2026-04-26T11:21:32.351Z</time></trkpt><trkpt lat="44.5633513" lon="8.0246157"><ele>565.0</ele><time>2026-04-26T11:21:33.344Z</time></trkpt><trkpt lat="44.563474" lon="8.0246872"><ele>565.0</ele><time>2026-04-26T11:21:34.357Z</time></trkpt><trkpt lat="44.5636257" lon="8.0247739"><ele>565.0</ele><time>2026-04-26T11:21:35.344Z</time></trkpt><trkpt lat="44.5637982" lon="8.0248537"><ele>565.0</ele><time>2026-04-26T11:21:36.358Z</time></trkpt><trkpt lat="44.5639772" lon="8.0249166"><ele>565.3333333333334</ele><time>2026-04-26T11:21:37.341Z</time></trkpt><trkpt lat="44.5641592" lon="8.0249759"><ele>565.6666666666666</ele><time>2026-04-26T11:21:38.341Z</time></trkpt><trkpt lat="44.5643309" lon="8.0250283"><ele>566.0</ele><time>2026-04-26T11:21:39.347Z</time></trkpt><trkpt lat="44.5644844" lon="8.0250841"><ele>564.6</ele><time>2026-04-26T11:21:40.348Z</time></trkpt><trkpt lat="44.5646083" lon="8.0251218"><ele>563.2</ele><time>2026-04-26T11:21:41.361Z</time></trkpt><trkpt lat="44.5647141" lon="8.0251415"><ele>561.8</ele><time>2026-04-26T11:21:42.355Z</time></trkpt><trkpt lat="44.5648022" lon="8.0250919"><ele>560.4</ele><time>2026-04-26T11:21:43.336Z</time></trkpt><trkpt lat="44.5648469" lon="8.0249843"><ele>559.0</ele><time>2026-04-26T11:21:44.339Z</time></trkpt><trkpt lat="44.5648247" lon="8.024833"><ele>558.6666666666667</ele><time>2026-04-26T11:21:45.341Z</time></trkpt><trkpt lat="44.5647469" lon="8.0246827"><ele>558.3333333333334</ele><time>2026-04-26T11:21:46.344Z</time></trkpt><trkpt lat="44.5646378" lon="8.024493"><ele>558.0</ele><time>2026-04-26T11:21:47.344Z</time></trkpt><trkpt lat="44.5645179" lon="8.0242865"><ele>553.3333333333334</ele><time>2026-04-26T11:21:48.341Z</time></trkpt><trkpt lat="44.5644042" lon="8.0240889"><ele>548.6666666666667</ele><time>2026-04-26T11:21:49.352Z</time></trkpt><trkpt lat="44.564297" lon="8.0239057"><ele>544.0</ele><time>2026-04-26T11:21:50.344Z</time></trkpt><trkpt lat="44.5641937" lon="8.0237284"><ele>544.0</ele><time>2026-04-26T11:21:51.349Z</time></trkpt><trkpt lat="44.5640702" lon="8.0235779"><ele>544.0</ele><time>2026-04-26T11:21:52.371Z</time></trkpt><trkpt lat="44.5639322" lon="8.0234833"><ele>544.0</ele><time>2026-04-26T11:21:53.345Z</time></trkpt><trkpt lat="44.5637721" lon="8.023409"><ele>546.6666666666667</ele><time>2026-04-26T11:21:54.348Z</time></trkpt><trkpt lat="44.5636047" lon="8.0233234"><ele>549.3333333333334</ele><time>2026-04-26T11:21:55.349Z</time></trkpt><trkpt lat="44.5634528" lon="8.0232347"><ele>552.0</ele><time>2026-04-26T11:21:56.347Z</time></trkpt><trkpt lat="44.5633041" lon="8.0231164"><ele>546.3333333333334</ele><time>2026-04-26T11:21:57.366Z</time></trkpt><trkpt lat="44.5631597" lon="8.0229992"><ele>540.6666666666667</ele><time>2026-04-26T11:21:58.341Z</time></trkpt><trkpt lat="44.5630127" lon="8.0229011"><ele>535.0</ele><time>2026-04-26T11:21:59.343Z</time></trkpt><trkpt lat="44.5628857" lon="8.022827"><ele>534.2</ele><time>2026-04-26T11:22:00.348Z</time></trkpt><trkpt lat="44.5627796" lon="8.0227551"><ele>533.4</ele><time>2026-04-26T11:22:01.34Z</time></trkpt><trkpt lat="44.5627199" lon="8.0226474"><ele>532.6</ele><time>2026-04-26T11:22:02.359Z</time></trkpt><trkpt lat="44.5627151" lon="8.0225229"><ele>531.8</ele><time>2026-04-26T11:22:03.356Z</time></trkpt><trkpt lat="44.5627705" lon="8.0224356"><ele>531.0</ele><time>2026-04-26T11:22:04.344Z</time></trkpt><trkpt lat="44.5628534" lon="8.0223867"><ele>532.0</ele><time>2026-04-26T11:22:05.352Z</time></trkpt><trkpt lat="44.5629663" lon="8.022417"><ele>533.0</ele><time>2026-04-26T11:22:06.345Z</time></trkpt><trkpt lat="44.5631012" lon="8.0225167"><ele>534.0</ele><time>2026-04-26T11:22:07.348Z</time></trkpt><trkpt lat="44.56324" lon="8.0226285"><ele>535.0</ele><time>2026-04-26T11:22:08.339Z</time></trkpt><trkpt lat="44.5633906" lon="8.0227269"><ele>535.0</ele><time>2026-04-26T11:22:09.339Z</time></trkpt><trkpt lat="44.5635525" lon="8.0228241"><ele>535.0</ele><time>2026-04-26T11:22:10.355Z</time></trkpt><trkpt lat="44.5637203" lon="8.0229111"><ele>535.0</ele><time>2026-04-26T11:22:11.353Z</time></trkpt><trkpt lat="44.5638975" lon="8.0229706"><ele>533.3333333333334</ele><time>2026-04-26T11:22:12.344Z</time></trkpt><trkpt lat="44.5640796" lon="8.0229839"><ele>531.6666666666666</ele><time>2026-04-26T11:22:13.341Z</time></trkpt><trkpt lat="44.5642706" lon="8.0229645"><ele>530.0</ele><time>2026-04-26T11:22:14.337Z</time></trkpt><trkpt lat="44.5644685" lon="8.022933"><ele>528.3333333333333</ele><time>2026-04-26T11:22:15.337Z</time></trkpt><trkpt lat="44.564654" lon="8.0228956"><ele>526.6666666666666</ele><time>2026-04-26T11:22:16.333Z</time></trkpt><trkpt lat="44.5648457" lon="8.0228609"><ele>525.0</ele><time>2026-04-26T11:22:17.343Z</time></trkpt><trkpt lat="44.5650234" lon="8.022836"><ele>525.0</ele><time>2026-04-26T11:22:18.351Z</time></trkpt><trkpt lat="44.5651973" lon="8.0228474"><ele>525.0</ele><time>2026-04-26T11:22:19.361Z</time></trkpt><trkpt lat="44.5653808" lon="8.0229262"><ele>525.0</ele><time>2026-04-26T11:22:20.341Z</time></trkpt><trkpt lat="44.5655701" lon="8.0230186"><ele>524.0</ele><time>2026-04-26T11:22:21.349Z</time></trkpt><trkpt lat="44.5657535" lon="8.023122"><ele>523.0</ele><time>2026-04-26T11:22:22.342Z</time></trkpt><trkpt lat="44.5659426" lon="8.0232377"><ele>522.0</ele><time>2026-04-26T11:22:23.35Z</time></trkpt><trkpt lat="44.5661316" lon="8.0233518"><ele>518.3333333333334</ele><time>2026-04-26T11:22:24.355Z</time></trkpt><trkpt lat="44.5663195" lon="8.0234639"><ele>514.6666666666667</ele><time>2026-04-26T11:22:25.351Z</time></trkpt><trkpt lat="44.5665039" lon="8.0235896"><ele>511.0</ele><time>2026-04-26T11:22:26.337Z</time></trkpt><trkpt lat="44.5666916" lon="8.0237153"><ele>511.0</ele><time>2026-04-26T11:22:27.339Z</time></trkpt><trkpt lat="44.5668753" lon="8.0238522"><ele>511.0</ele><time>2026-04-26T11:22:28.347Z</time></trkpt><trkpt lat="44.5670622" lon="8.0239888"><ele>511.0</ele><time>2026-04-26T11:22:29.349Z</time></trkpt><trkpt lat="44.5672498" lon="8.0241288"><ele>509.0</ele><time>2026-04-26T11:22:30.347Z</time></trkpt><trkpt lat="44.5674276" lon="8.0242656"><ele>507.0</ele><time>2026-04-26T11:22:31.364Z</time></trkpt><trkpt lat="44.5675675" lon="8.0243761"><ele>505.0</ele><time>2026-04-26T11:22:32.345Z</time></trkpt><trkpt lat="44.5676892" lon="8.0244668"><ele>505.0</ele><time>2026-04-26T11:22:33.349Z</time></trkpt><trkpt lat="44.567805" lon="8.0245364"><ele>505.0</ele><time>2026-04-26T11:22:34.348Z</time></trkpt><trkpt lat="44.5679074" lon="8.0245681"><ele>505.0</ele><time>2026-04-26T11:22:35.356Z</time></trkpt><trkpt lat="44.5680195" lon="8.0245431"><ele>505.0</ele><time>2026-04-26T11:22:36.336Z</time></trkpt><trkpt lat="44.5680989" lon="8.0244494"><ele>505.0</ele><time>2026-04-26T11:22:37.336Z</time></trkpt><trkpt lat="44.5681068" lon="8.0243452"><ele>500.6666666666667</ele><time>2026-04-26T11:22:38.337Z</time></trkpt><trkpt lat="44.5680514" lon="8.0241842"><ele>496.33333333333337</ele><time>2026-04-26T11:22:39.357Z</time></trkpt><trkpt lat="44.5679677" lon="8.023982"><ele>492.0</ele><time>2026-04-26T11:22:40.359Z</time></trkpt><trkpt lat="44.5678838" lon="8.0237727"><ele>491.66666666666663</ele><time>2026-04-26T11:22:41.345Z</time></trkpt><trkpt lat="44.5677849" lon="8.0235582"><ele>491.3333333333333</ele><time>2026-04-26T11:22:42.345Z</time></trkpt><trkpt lat="44.56771" lon="8.0233543"><ele>491.0</ele><time>2026-04-26T11:22:43.344Z</time></trkpt><trkpt lat="44.5676566" lon="8.0231495"><ele>491.0</ele><time>2026-04-26T11:22:44.347Z</time></trkpt><trkpt lat="44.5676606" lon="8.0229302"><ele>491.0</ele><time>2026-04-26T11:22:45.337Z</time></trkpt><trkpt lat="44.567685" lon="8.0227111"><ele>491.0</ele><time>2026-04-26T11:22:46.345Z</time></trkpt><trkpt lat="44.5676993" lon="8.0224846"><ele>489.0</ele><time>2026-04-26T11:22:47.353Z</time></trkpt><trkpt lat="44.5677009" lon="8.0222484"><ele>487.0</ele><time>2026-04-26T11:22:48.382Z</time></trkpt><trkpt lat="44.5676591" lon="8.022005"><ele>485.0</ele><time>2026-04-26T11:22:49.352Z</time></trkpt><trkpt lat="44.5675799" lon="8.0217517"><ele>482.0</ele><time>2026-04-26T11:22:50.343Z</time></trkpt><trkpt lat="44.5674819" lon="8.0215008"><ele>479.0</ele><time>2026-04-26T11:22:51.363Z</time></trkpt><trkpt lat="44.5673928" lon="8.0212574"><ele>476.0</ele><time>2026-04-26T11:22:52.353Z</time></trkpt><trkpt lat="44.5673253" lon="8.0209828"><ele>472.0</ele><time>2026-04-26T11:22:53.344Z</time></trkpt><trkpt lat="44.5672799" lon="8.0207037"><ele>468.0</ele><time>2026-04-26T11:22:54.343Z</time></trkpt><trkpt lat="44.5672538" lon="8.0204372"><ele>464.0</ele><time>2026-04-26T11:22:55.34Z</time></trkpt><trkpt lat="44.5672202" lon="8.0201546"><ele>461.0</ele><time>2026-04-26T11:22:56.353Z</time></trkpt><trkpt lat="44.5671892" lon="8.0198839"><ele>458.0</ele><time>2026-04-26T11:22:57.352Z</time></trkpt><trkpt lat="44.5671527" lon="8.0196117"><ele>455.0</ele><time>2026-04-26T11:22:58.348Z</time></trkpt><trkpt lat="44.5671052" lon="8.0193401"><ele>454.3333333333333</ele><time>2026-04-26T11:22:59.354Z</time></trkpt><trkpt lat="44.5670291" lon="8.0190925"><ele>453.66666666666663</ele><time>2026-04-26T11:23:00.351Z</time></trkpt><trkpt lat="44.5669375" lon="8.01885"><ele>453.0</ele><time>2026-04-26T11:23:01.351Z</time></trkpt><trkpt lat="44.5668397" lon="8.0186118"><ele>454.66666666666663</ele><time>2026-04-26T11:23:02.338Z</time></trkpt><trkpt lat="44.5667448" lon="8.0183882"><ele>456.3333333333333</ele><time>2026-04-26T11:23:03.346Z</time></trkpt><trkpt lat="44.5666409" lon="8.0181755"><ele>458.0</ele><time>2026-04-26T11:23:04.36Z</time></trkpt><trkpt lat="44.5665172" lon="8.0179774"><ele>455.0</ele><time>2026-04-26T11:23:05.353Z</time></trkpt><trkpt lat="44.5663757" lon="8.0178034"><ele>452.0</ele><time>2026-04-26T11:23:06.345Z</time></trkpt><trkpt lat="44.5662027" lon="8.0176587"><ele>449.0</ele><time>2026-04-26T11:23:07.344Z</time></trkpt><trkpt lat="44.5660387" lon="8.0175143"><ele>447.66666666666663</ele><time>2026-04-26T11:23:08.334Z</time></trkpt><trkpt lat="44.5658631" lon="8.0173669"><ele>446.33333333333337</ele><time>2026-04-26T11:23:09.347Z</time></trkpt><trkpt lat="44.5656947" lon="8.0172273"><ele>445.0</ele><time>2026-04-26T11:23:10.341Z</time></trkpt><trkpt lat="44.5655404" lon="8.0170865"><ele>445.0</ele><time>2026-04-26T11:23:11.342Z</time></trkpt><trkpt lat="44.5653969" lon="8.0169597"><ele>445.0</ele><time>2026-04-26T11:23:12.338Z</time></trkpt><trkpt lat="44.5652465" lon="8.0168582"><ele>445.0</ele><time>2026-04-26T11:23:13.348Z</time></trkpt><trkpt lat="44.5650848" lon="8.0168017"><ele>442.6666666666667</ele><time>2026-04-26T11:23:14.338Z</time></trkpt><trkpt lat="44.5648997" lon="8.0167635"><ele>440.33333333333337</ele><time>2026-04-26T11:23:15.343Z</time></trkpt><trkpt lat="44.5647087" lon="8.0167199"><ele>438.0</ele><time>2026-04-26T11:23:16.353Z</time></trkpt><trkpt lat="44.5645092" lon="8.0166684"><ele>436.0</ele><time>2026-04-26T11:23:17.353Z</time></trkpt><trkpt lat="44.5643209" lon="8.0166278"><ele>434.0</ele><time>2026-04-26T11:23:18.336Z</time></trkpt><trkpt lat="44.5641336" lon="8.0165902"><ele>432.0</ele><time>2026-04-26T11:23:19.378Z</time></trkpt><trkpt lat="44.5639637" lon="8.0165275"><ele>432.0</ele><time>2026-04-26T11:23:20.342Z</time></trkpt><trkpt lat="44.5638159" lon="8.0163899"><ele>432.0</ele><time>2026-04-26T11:23:21.349Z</time></trkpt><trkpt lat="44.5637057" lon="8.0161851"><ele>432.0</ele><time>2026-04-26T11:23:22.351Z</time></trkpt><trkpt lat="44.5636234" lon="8.0159624"><ele>430.66666666666663</ele><time>2026-04-26T11:23:23.345Z</time></trkpt><trkpt lat="44.5635251" lon="8.0157239"><ele>429.3333333333333</ele><time>2026-04-26T11:23:24.346Z</time></trkpt><trkpt lat="44.5634417" lon="8.0154649"><ele>428.0</ele><time>2026-04-26T11:23:25.352Z</time></trkpt><trkpt lat="44.5633751" lon="8.015192"><ele>428.66666666666663</ele><time>2026-04-26T11:23:26.349Z</time></trkpt><trkpt lat="44.5633115" lon="8.0149016"><ele>429.33333333333337</ele><time>2026-04-26T11:23:27.34Z</time></trkpt><trkpt lat="44.5632378" lon="8.0146133"><ele>430.0</ele><time>2026-04-26T11:23:28.35Z</time></trkpt><trkpt lat="44.5631679" lon="8.014325"><ele>431.6666666666667</ele><time>2026-04-26T11:23:29.344Z</time></trkpt><trkpt lat="44.5630939" lon="8.0140341"><ele>433.33333333333337</ele><time>2026-04-26T11:23:30.345Z</time></trkpt><trkpt lat="44.5630321" lon="8.0137391"><ele>435.0</ele><time>2026-04-26T11:23:31.346Z</time></trkpt><trkpt lat="44.563005" lon="8.0134598"><ele>436.66666666666663</ele><time>2026-04-26T11:23:32.358Z</time></trkpt><trkpt lat="44.562989" lon="8.0131907"><ele>438.3333333333333</ele><time>2026-04-26T11:23:33.357Z</time></trkpt><trkpt lat="44.5629648" lon="8.0129298"><ele>440.0</ele><time>2026-04-26T11:23:34.344Z</time></trkpt><trkpt lat="44.5629073" lon="8.0126669"><ele>434.3333333333333</ele><time>2026-04-26T11:23:35.346Z</time></trkpt><trkpt lat="44.5628167" lon="8.0124158"><ele>428.66666666666663</ele><time>2026-04-26T11:23:36.345Z</time></trkpt><trkpt lat="44.5627305" lon="8.0121379"><ele>423.0</ele><time>2026-04-26T11:23:37.338Z</time></trkpt><trkpt lat="44.5626439" lon="8.0118556"><ele>424.5</ele><time>2026-04-26T11:23:38.341Z</time></trkpt><trkpt lat="44.5625599" lon="8.0115664"><ele>426.0</ele><time>2026-04-26T11:23:39.345Z</time></trkpt><trkpt lat="44.5624691" lon="8.0112716"><ele>426.0</ele><time>2026-04-26T11:23:40.338Z</time></trkpt><trkpt lat="44.5623988" lon="8.0109637"><ele>426.0</ele><time>2026-04-26T11:23:41.351Z</time></trkpt><trkpt lat="44.5623443" lon="8.0106392"><ele>428.0</ele><time>2026-04-26T11:23:42.342Z</time></trkpt><trkpt lat="44.5622873" lon="8.0103137"><ele>430.0</ele><time>2026-04-26T11:23:43.34Z</time></trkpt><trkpt lat="44.5622322" lon="8.0100039"><ele>431.5</ele><time>2026-04-26T11:23:44.347Z</time></trkpt><trkpt lat="44.5621635" lon="8.0096976"><ele>433.0</ele><time>2026-04-26T11:23:45.346Z</time></trkpt><trkpt lat="44.5620844" lon="8.0094055"><ele>426.33333333333337</ele><time>2026-04-26T11:23:46.34Z</time></trkpt><trkpt lat="44.5620256" lon="8.009122"><ele>419.66666666666663</ele><time>2026-04-26T11:23:47.349Z</time></trkpt><trkpt lat="44.5620016" lon="8.0088575"><ele>413.0</ele><time>2026-04-26T11:23:48.345Z</time></trkpt><trkpt lat="44.5620208" lon="8.0085875"><ele>417.3333333333333</ele><time>2026-04-26T11:23:49.336Z</time></trkpt><trkpt lat="44.5620605" lon="8.008323"><ele>421.66666666666663</ele><time>2026-04-26T11:23:50.333Z</time></trkpt><trkpt lat="44.5620972" lon="8.0080511"><ele>426.0</ele><time>2026-04-26T11:23:51.337Z</time></trkpt><trkpt lat="44.5621328" lon="8.0077792"><ele>426.0</ele><time>2026-04-26T11:23:52.341Z</time></trkpt><trkpt lat="44.5621611" lon="8.0075418"><ele>426.0</ele><time>2026-04-26T11:23:53.343Z</time></trkpt><trkpt lat="44.5621751" lon="8.0073092"><ele>426.0</ele><time>2026-04-26T11:23:54.361Z</time></trkpt><trkpt lat="44.5621552" lon="8.0070772"><ele>425.66666666666663</ele><time>2026-04-26T11:23:55.339Z</time></trkpt><trkpt lat="44.5621051" lon="8.0068381"><ele>425.3333333333333</ele><time>2026-04-26T11:23:56.34Z</time></trkpt><trkpt lat="44.5620152" lon="8.0065959"><ele>425.0</ele><time>2026-04-26T11:23:57.34Z</time></trkpt><trkpt lat="44.5619017" lon="8.0063349"><ele>422.5</ele><time>2026-04-26T11:23:58.332Z</time></trkpt><trkpt lat="44.5617948" lon="8.0060529"><ele>420.0</ele><time>2026-04-26T11:23:59.346Z</time></trkpt><trkpt lat="44.5616962" lon="8.0057709"><ele>426.0</ele><time>2026-04-26T11:24:00.347Z</time></trkpt><trkpt lat="44.5616002" lon="8.0054831"><ele>432.0</ele><time>2026-04-26T11:24:01.332Z</time></trkpt><trkpt lat="44.561505" lon="8.0051821"><ele>438.0</ele><time>2026-04-26T11:24:02.339Z</time></trkpt><trkpt lat="44.561414" lon="8.0048915"><ele>444.0</ele><time>2026-04-26T11:24:03.34Z</time></trkpt><trkpt lat="44.5613246" lon="8.0045993"><ele>444.0</ele><time>2026-04-26T11:24:04.35Z</time></trkpt><trkpt lat="44.5612339" lon="8.0043056"><ele>444.0</ele><time>2026-04-26T11:24:05.335Z</time></trkpt><trkpt lat="44.5611425" lon="8.0040145"><ele>433.0</ele><time>2026-04-26T11:24:06.332Z</time></trkpt><trkpt lat="44.561047" lon="8.003725"><ele>422.0</ele><time>2026-04-26T11:24:07.345Z</time></trkpt><trkpt lat="44.5609351" lon="8.0034459"><ele>429.5</ele><time>2026-04-26T11:24:08.339Z</time></trkpt><trkpt lat="44.5608101" lon="8.0031719"><ele>437.0</ele><time>2026-04-26T11:24:09.332Z</time></trkpt><trkpt lat="44.5606788" lon="8.0029008"><ele>437.0</ele><time>2026-04-26T11:24:10.345Z</time></trkpt><trkpt lat="44.5605492" lon="8.0026186"><ele>437.0</ele><time>2026-04-26T11:24:11.355Z</time></trkpt><trkpt lat="44.5604223" lon="8.0023433"><ele>424.5</ele><time>2026-04-26T11:24:12.343Z</time></trkpt><trkpt lat="44.560293" lon="8.0020611"><ele>412.0</ele><time>2026-04-26T11:24:13.35Z</time></trkpt><trkpt lat="44.5601638" lon="8.0017908"><ele>417.5</ele><time>2026-04-26T11:24:14.352Z</time></trkpt><trkpt lat="44.5600311" lon="8.0015236"><ele>423.0</ele><time>2026-04-26T11:24:15.348Z</time></trkpt><trkpt lat="44.5599098" lon="8.0012616"><ele>423.0</ele><time>2026-04-26T11:24:16.352Z</time></trkpt><trkpt lat="44.5598172" lon="8.0009896"><ele>423.0</ele><time>2026-04-26T11:24:17.341Z</time></trkpt><trkpt lat="44.5597565" lon="8.0006803"><ele>423.0</ele><time>2026-04-26T11:24:18.345Z</time></trkpt><trkpt lat="44.5597085" lon="8.0003792"><ele>427.0</ele><time>2026-04-26T11:24:19.346Z</time></trkpt><trkpt lat="44.5596478" lon="8.0000857"><ele>431.0</ele><time>2026-04-26T11:24:20.334Z</time></trkpt><trkpt lat="44.5595816" lon="7.9997953"><ele>435.0</ele><time>2026-04-26T11:24:21.358Z</time></trkpt><trkpt lat="44.5594953" lon="7.9995208"><ele>421.5</ele><time>2026-04-26T11:24:22.337Z</time></trkpt><trkpt lat="44.559386" lon="7.9992384"><ele>408.0</ele><time>2026-04-26T11:24:23.341Z</time></trkpt><trkpt lat="44.559281" lon="7.9989425"><ele>408.0</ele><time>2026-04-26T11:24:24.337Z</time></trkpt><trkpt lat="44.5591831" lon="7.9986327"><ele>408.0</ele><time>2026-04-26T11:24:25.349Z</time></trkpt><trkpt lat="44.5591115" lon="7.9983231"><ele>411.0</ele><time>2026-04-26T11:24:26.344Z</time></trkpt><trkpt lat="44.5590327" lon="7.9979905"><ele>414.0</ele><time>2026-04-26T11:24:27.338Z</time></trkpt><trkpt lat="44.5589488" lon="7.9976614"><ele>417.5</ele><time>2026-04-26T11:24:28.344Z</time></trkpt><trkpt lat="44.5588587" lon="7.9973426"><ele>421.0</ele><time>2026-04-26T11:24:29.347Z</time></trkpt><trkpt lat="44.5587598" lon="7.9970248"><ele>410.5</ele><time>2026-04-26T11:24:30.343Z</time></trkpt><trkpt lat="44.558653" lon="7.9967263"><ele>400.0</ele><time>2026-04-26T11:24:31.348Z</time></trkpt><trkpt lat="44.5585552" lon="7.9964362"><ele>400.0</ele><time>2026-04-26T11:24:32.333Z</time></trkpt><trkpt lat="44.5584617" lon="7.9961552"><ele>400.0</ele><time>2026-04-26T11:24:33.346Z</time></trkpt><trkpt lat="44.5583488" lon="7.995878"><ele>400.0</ele><time>2026-04-26T11:24:34.353Z</time></trkpt><trkpt lat="44.5582279" lon="7.9956053"><ele>406.0</ele><time>2026-04-26T11:24:35.334Z</time></trkpt><trkpt lat="44.558108" lon="7.9953308"><ele>412.0</ele><time>2026-04-26T11:24:36.345Z</time></trkpt><trkpt lat="44.5579902" lon="7.9950579"><ele>417.5</ele><time>2026-04-26T11:24:37.348Z</time></trkpt><trkpt lat="44.5578783" lon="7.9947862"><ele>423.0</ele><time>2026-04-26T11:24:38.338Z</time></trkpt><trkpt lat="44.557765" lon="7.9945071"><ele>410.0</ele><time>2026-04-26T11:24:39.351Z</time></trkpt><trkpt lat="44.5576623" lon="7.9942202"><ele>397.0</ele><time>2026-04-26T11:24:40.334Z</time></trkpt><trkpt lat="44.5575674" lon="7.9939249"><ele>397.0</ele><time>2026-04-26T11:24:41.34Z</time></trkpt><trkpt lat="44.5574926" lon="7.9936237"><ele>397.0</ele><time>2026-04-26T11:24:42.349Z</time></trkpt><trkpt lat="44.5574203" lon="7.9933326"><ele>397.0</ele><time>2026-04-26T11:24:43.342Z</time></trkpt><trkpt lat="44.5573362" lon="7.9930535"><ele>399.0</ele><time>2026-04-26T11:24:44.338Z</time></trkpt><trkpt lat="44.5572315" lon="7.9927982"><ele>401.0</ele><time>2026-04-26T11:24:45.351Z</time></trkpt><trkpt lat="44.5571154" lon="7.9925536"><ele>403.0</ele><time>2026-04-26T11:24:46.351Z</time></trkpt><trkpt lat="44.5569898" lon="7.992348"><ele>396.0</ele><time>2026-04-26T11:24:47.334Z</time></trkpt><trkpt lat="44.5568612" lon="7.9921785"><ele>389.0</ele><time>2026-04-26T11:24:48.337Z</time></trkpt><trkpt lat="44.5566967" lon="7.9920405"><ele>382.0</ele><time>2026-04-26T11:24:49.343Z</time></trkpt><trkpt lat="44.5565151" lon="7.9919208"><ele>382.0</ele><time>2026-04-26T11:24:50.344Z</time></trkpt><trkpt lat="44.5563275" lon="7.9918119"><ele>382.0</ele><time>2026-04-26T11:24:51.336Z</time></trkpt><trkpt lat="44.5561263" lon="7.9916825"><ele>382.0</ele><time>2026-04-26T11:24:52.336Z</time></trkpt><trkpt lat="44.5559192" lon="7.9915452"><ele>381.5</ele><time>2026-04-26T11:24:53.344Z</time></trkpt><trkpt lat="44.5557109" lon="7.9914046"><ele>381.0</ele><time>2026-04-26T11:24:54.361Z</time></trkpt><trkpt lat="44.5555035" lon="7.9912676"><ele>378.0</ele><time>2026-04-26T11:24:55.336Z</time></trkpt><trkpt lat="44.5552939" lon="7.9911243"><ele>375.0</ele><time>2026-04-26T11:24:56.331Z</time></trkpt><trkpt lat="44.5550825" lon="7.9909725"><ele>377.5</ele><time>2026-04-26T11:24:57.342Z</time></trkpt><trkpt lat="44.5548675" lon="7.9908235"><ele>380.0</ele><time>2026-04-26T11:24:58.336Z</time></trkpt><trkpt lat="44.5546513" lon="7.9906811"><ele>377.5</ele><time>2026-04-26T11:24:59.35Z</time></trkpt><trkpt lat="44.5544393" lon="7.9905378"><ele>375.0</ele><time>2026-04-26T11:25:00.334Z</time></trkpt><trkpt lat="44.5542253" lon="7.9904021"><ele>375.0</ele><time>2026-04-26T11:25:01.341Z</time></trkpt><trkpt lat="44.5540119" lon="7.9902673"><ele>375.0</ele><time>2026-04-26T11:25:02.34Z</time></trkpt><trkpt lat="44.5537913" lon="7.9901271"><ele>375.5</ele><time>2026-04-26T11:25:03.34Z</time></trkpt><trkpt lat="44.5535764" lon="7.9899749"><ele>376.0</ele><time>2026-04-26T11:25:04.351Z</time></trkpt><trkpt lat="44.5533589" lon="7.9898285"><ele>376.0</ele><time>2026-04-26T11:25:05.338Z</time></trkpt><trkpt lat="44.5531489" lon="7.9896933"><ele>376.0</ele><time>2026-04-26T11:25:06.335Z</time></trkpt><trkpt lat="44.5529349" lon="7.9895617"><ele>377.3333333333333</ele><time>2026-04-26T11:25:07.348Z</time></trkpt><trkpt lat="44.5527335" lon="7.9894241"><ele>378.6666666666667</ele><time>2026-04-26T11:25:08.352Z</time></trkpt><trkpt lat="44.5525319" lon="7.9892938"><ele>380.0</ele><time>2026-04-26T11:25:09.356Z</time></trkpt><trkpt lat="44.552336" lon="7.9891572"><ele>380.0</ele><time>2026-04-26T11:25:10.338Z</time></trkpt><trkpt lat="44.552134" lon="7.9890228"><ele>380.0</ele><time>2026-04-26T11:25:11.338Z</time></trkpt><trkpt lat="44.5519255" lon="7.9888979"><ele>375.6666666666667</ele><time>2026-04-26T11:25:12.338Z</time></trkpt><trkpt lat="44.5517197" lon="7.9887767"><ele>371.3333333333333</ele><time>2026-04-26T11:25:13.343Z</time></trkpt><trkpt lat="44.5515172" lon="7.9886513"><ele>367.0</ele><time>2026-04-26T11:25:14.346Z</time></trkpt><trkpt lat="44.5513178" lon="7.9885277"><ele>366.66666666666663</ele><time>2026-04-26T11:25:15.35Z</time></trkpt><trkpt lat="44.5511291" lon="7.9884042"><ele>366.3333333333333</ele><time>2026-04-26T11:25:16.338Z</time></trkpt><trkpt lat="44.5509543" lon="7.9882949"><ele>366.0</ele><time>2026-04-26T11:25:17.347Z</time></trkpt><trkpt lat="44.5508171" lon="7.9881753"><ele>366.0</ele><time>2026-04-26T11:25:18.338Z</time></trkpt><trkpt lat="44.5507179" lon="7.9880141"><ele>366.0</ele><time>2026-04-26T11:25:19.343Z</time></trkpt><trkpt lat="44.5506586" lon="7.9878101"><ele>366.0</ele><time>2026-04-26T11:25:20.341Z</time></trkpt><trkpt lat="44.5505991" lon="7.9875677"><ele>364.6666666666667</ele><time>2026-04-26T11:25:21.339Z</time></trkpt><trkpt lat="44.5505429" lon="7.9873475"><ele>363.33333333333337</ele><time>2026-04-26T11:25:22.336Z</time></trkpt><trkpt lat="44.5504713" lon="7.987156"><ele>362.0</ele><time>2026-04-26T11:25:23.347Z</time></trkpt><trkpt lat="44.5503831" lon="7.9870056"><ele>364.6666666666667</ele><time>2026-04-26T11:25:24.343Z</time></trkpt><trkpt lat="44.5502603" lon="7.9869133"><ele>367.3333333333333</ele><time>2026-04-26T11:25:25.346Z</time></trkpt><trkpt lat="44.550091" lon="7.9868826"><ele>370.0</ele><time>2026-04-26T11:25:26.335Z</time></trkpt><trkpt lat="44.5498996" lon="7.9868647"><ele>370.0</ele><time>2026-04-26T11:25:27.342Z</time></trkpt><trkpt lat="44.5497134" lon="7.9868068"><ele>370.0</ele><time>2026-04-26T11:25:28.349Z</time></trkpt><trkpt lat="44.5495408" lon="7.9867508"><ele>370.0</ele><time>2026-04-26T11:25:29.35Z</time></trkpt><trkpt lat="44.5494091" lon="7.9866495"><ele>369.5</ele><time>2026-04-26T11:25:30.341Z</time></trkpt><trkpt lat="44.5493045" lon="7.9865326"><ele>369.0</ele><time>2026-04-26T11:25:31.34Z</time></trkpt><trkpt lat="44.5492201" lon="7.9863607"><ele>368.5</ele><time>2026-04-26T11:25:32.346Z</time></trkpt><trkpt lat="44.5491379" lon="7.9861697"><ele>368.0</ele><time>2026-04-26T11:25:33.338Z</time></trkpt><trkpt lat="44.5490517" lon="7.9859602"><ele>367.0</ele><time>2026-04-26T11:25:34.339Z</time></trkpt><trkpt lat="44.5489381" lon="7.9857593"><ele>366.0</ele><time>2026-04-26T11:25:35.336Z</time></trkpt><trkpt lat="44.5488239" lon="7.9855671"><ele>365.0</ele><time>2026-04-26T11:25:36.343Z</time></trkpt><trkpt lat="44.548705" lon="7.9854228"><ele>365.0</ele><time>2026-04-26T11:25:37.341Z</time></trkpt><trkpt lat="44.548572" lon="7.9853242"><ele>365.0</ele><time>2026-04-26T11:25:38.343Z</time></trkpt><trkpt lat="44.5484064" lon="7.9852858"><ele>365.0</ele><time>2026-04-26T11:25:39.365Z</time></trkpt><trkpt lat="44.5482155" lon="7.9852847"><ele>365.0</ele><time>2026-04-26T11:25:40.344Z</time></trkpt><trkpt lat="44.5480193" lon="7.9853194"><ele>365.0</ele><time>2026-04-26T11:25:41.353Z</time></trkpt><trkpt lat="44.5478194" lon="7.9853522"><ele>365.0</ele><time>2026-04-26T11:25:42.336Z</time></trkpt><trkpt lat="44.5476222" lon="7.9853898"><ele>364.6666666666667</ele><time>2026-04-26T11:25:43.345Z</time></trkpt><trkpt lat="44.5474352" lon="7.9854222"><ele>364.3333333333333</ele><time>2026-04-26T11:25:44.346Z</time></trkpt><trkpt lat="44.5472566" lon="7.9854579"><ele>364.0</ele><time>2026-04-26T11:25:45.349Z</time></trkpt><trkpt lat="44.5470847" lon="7.9854785"><ele>363.0</ele><time>2026-04-26T11:25:46.351Z</time></trkpt><trkpt lat="44.5469236" lon="7.985435"><ele>362.0</ele><time>2026-04-26T11:25:47.347Z</time></trkpt><trkpt lat="44.5467751" lon="7.9853059"><ele>361.0</ele><time>2026-04-26T11:25:48.337Z</time></trkpt><trkpt lat="44.5466221" lon="7.9851649"><ele>359.0</ele><time>2026-04-26T11:25:49.352Z</time></trkpt><trkpt lat="44.5464616" lon="7.9850099"><ele>357.0</ele><time>2026-04-26T11:25:50.343Z</time></trkpt><trkpt lat="44.5462956" lon="7.9848477"><ele>355.0</ele><time>2026-04-26T11:25:51.345Z</time></trkpt><trkpt lat="44.5461099" lon="7.984687"><ele>353.3333333333333</ele><time>2026-04-26T11:25:52.343Z</time></trkpt><trkpt lat="44.5459228" lon="7.9845339"><ele>351.6666666666667</ele><time>2026-04-26T11:25:53.341Z</time></trkpt><trkpt lat="44.545728" lon="7.9843684"><ele>350.0</ele><time>2026-04-26T11:25:54.341Z</time></trkpt><trkpt lat="44.5455218" lon="7.984196"><ele>351.5</ele><time>2026-04-26T11:25:55.346Z</time></trkpt><trkpt lat="44.5453084" lon="7.9840238"><ele>353.0</ele><time>2026-04-26T11:25:56.342Z</time></trkpt><trkpt lat="44.5450894" lon="7.983839"><ele>353.0</ele><time>2026-04-26T11:25:57.339Z</time></trkpt><trkpt lat="44.5448778" lon="7.9836649"><ele>353.0</ele><time>2026-04-26T11:25:58.342Z</time></trkpt><trkpt lat="44.5446734" lon="7.9835021"><ele>353.0</ele><time>2026-04-26T11:25:59.337Z</time></trkpt><trkpt lat="44.5444839" lon="7.9833295"><ele>353.0</ele><time>2026-04-26T11:26:00.343Z</time></trkpt><trkpt lat="44.5443031" lon="7.9831371"><ele>353.0</ele><time>2026-04-26T11:26:01.341Z</time></trkpt><trkpt lat="44.544131" lon="7.9829154"><ele>353.0</ele><time>2026-04-26T11:26:02.347Z</time></trkpt><trkpt lat="44.5439604" lon="7.9826697"><ele>351.0</ele><time>2026-04-26T11:26:03.366Z</time></trkpt><trkpt lat="44.5437832" lon="7.9824131"><ele>349.0</ele><time>2026-04-26T11:26:04.341Z</time></trkpt><trkpt lat="44.5436137" lon="7.9821757"><ele>349.0</ele><time>2026-04-26T11:26:05.349Z</time></trkpt><trkpt lat="44.5434606" lon="7.9819542"><ele>349.0</ele><time>2026-04-26T11:26:06.335Z</time></trkpt><trkpt lat="44.5433341" lon="7.9817482"><ele>349.0</ele><time>2026-04-26T11:26:07.345Z</time></trkpt><trkpt lat="44.5432099" lon="7.9815891"><ele>348.5</ele><time>2026-04-26T11:26:08.342Z</time></trkpt><trkpt lat="44.5430919" lon="7.9814941"><ele>348.0</ele><time>2026-04-26T11:26:09.358Z</time></trkpt><trkpt lat="44.5429638" lon="7.9814334"><ele>347.5</ele><time>2026-04-26T11:26:10.346Z</time></trkpt><trkpt lat="44.5428309" lon="7.9814842"><ele>347.0</ele><time>2026-04-26T11:26:11.342Z</time></trkpt><trkpt lat="44.5426704" lon="7.9815908"><ele>350.33333333333337</ele><time>2026-04-26T11:26:12.338Z</time></trkpt><trkpt lat="44.5425112" lon="7.9817047"><ele>353.6666666666667</ele><time>2026-04-26T11:26:13.357Z</time></trkpt><trkpt lat="44.542344" lon="7.9817737"><ele>357.0</ele><time>2026-04-26T11:26:14.339Z</time></trkpt><trkpt lat="44.5421576" lon="7.9818063"><ele>360.3333333333333</ele><time>2026-04-26T11:26:15.336Z</time></trkpt><trkpt lat="44.541958" lon="7.9818035"><ele>363.66666666666663</ele><time>2026-04-26T11:26:16.337Z</time></trkpt><trkpt lat="44.5417585" lon="7.9818023"><ele>367.0</ele><time>2026-04-26T11:26:17.345Z</time></trkpt><trkpt lat="44.5415546" lon="7.9817753"><ele>367.0</ele><time>2026-04-26T11:26:18.347Z</time></trkpt><trkpt lat="44.5413501" lon="7.981708"><ele>367.0</ele><time>2026-04-26T11:26:19.346Z</time></trkpt><trkpt lat="44.5411625" lon="7.9815996"><ele>367.0</ele><time>2026-04-26T11:26:20.371Z</time></trkpt><trkpt lat="44.5409787" lon="7.9814513"><ele>362.66666666666663</ele><time>2026-04-26T11:26:21.351Z</time></trkpt><trkpt lat="44.540794" lon="7.9812951"><ele>358.3333333333333</ele><time>2026-04-26T11:26:22.349Z</time></trkpt><trkpt lat="44.5405999" lon="7.98115"><ele>354.0</ele><time>2026-04-26T11:26:23.344Z</time></trkpt><trkpt lat="44.5404008" lon="7.9810127"><ele>352.3333333333333</ele><time>2026-04-26T11:26:24.345Z</time></trkpt><trkpt lat="44.5402115" lon="7.9808724"><ele>350.66666666666663</ele><time>2026-04-26T11:26:25.344Z</time></trkpt><trkpt lat="44.5400323" lon="7.980733"><ele>349.0</ele><time>2026-04-26T11:26:26.341Z</time></trkpt><trkpt lat="44.5398693" lon="7.98057"><ele>349.0</ele><time>2026-04-26T11:26:27.355Z</time></trkpt><trkpt lat="44.5397305" lon="7.9803606"><ele>349.0</ele><time>2026-04-26T11:26:28.342Z</time></trkpt><trkpt lat="44.5396005" lon="7.9801363"><ele>349.0</ele><time>2026-04-26T11:26:29.339Z</time></trkpt><trkpt lat="44.5394569" lon="7.9799357"><ele>349.3333333333333</ele><time>2026-04-26T11:26:30.348Z</time></trkpt><trkpt lat="44.5392862" lon="7.9797759"><ele>349.6666666666667</ele><time>2026-04-26T11:26:31.335Z</time></trkpt><trkpt lat="44.5391049" lon="7.9796447"><ele>350.0</ele><time>2026-04-26T11:26:32.344Z</time></trkpt><trkpt lat="44.538923" lon="7.9795084"><ele>350.0</ele><time>2026-04-26T11:26:33.336Z</time></trkpt><trkpt lat="44.5387453" lon="7.9793689"><ele>350.0</ele><time>2026-04-26T11:26:34.34Z</time></trkpt><trkpt lat="44.5385673" lon="7.9792231"><ele>350.0</ele><time>2026-04-26T11:26:35.35Z</time></trkpt><trkpt lat="44.5384124" lon="7.9790505"><ele>351.0</ele><time>2026-04-26T11:26:36.348Z</time></trkpt><trkpt lat="44.5382755" lon="7.9788388"><ele>352.0</ele><time>2026-04-26T11:26:37.347Z</time></trkpt><trkpt lat="44.5381419" lon="7.9786167"><ele>353.0</ele><time>2026-04-26T11:26:38.342Z</time></trkpt><trkpt lat="44.5380039" lon="7.9783859"><ele>354.0</ele><time>2026-04-26T11:26:39.355Z</time></trkpt><trkpt lat="44.5378693" lon="7.9781351"><ele>355.0</ele><time>2026-04-26T11:26:40.356Z</time></trkpt><trkpt lat="44.5377432" lon="7.977869"><ele>355.0</ele><time>2026-04-26T11:26:41.348Z</time></trkpt><trkpt lat="44.537634" lon="7.9775764"><ele>355.0</ele><time>2026-04-26T11:26:42.34Z</time></trkpt><trkpt lat="44.5375245" lon="7.9772818"><ele>347.5</ele><time>2026-04-26T11:26:43.328Z</time></trkpt><trkpt lat="44.5373999" lon="7.976982"><ele>340.0</ele><time>2026-04-26T11:26:44.343Z</time></trkpt><trkpt lat="44.5372787" lon="7.9766747"><ele>334.5</ele><time>2026-04-26T11:26:45.331Z</time></trkpt><trkpt lat="44.537165" lon="7.9763754"><ele>329.0</ele><time>2026-04-26T11:26:46.339Z</time></trkpt><trkpt lat="44.5370526" lon="7.9760708"><ele>332.33333333333337</ele><time>2026-04-26T11:26:47.339Z</time></trkpt><trkpt lat="44.5369545" lon="7.9757713"><ele>335.6666666666667</ele><time>2026-04-26T11:26:48.339Z</time></trkpt><trkpt lat="44.5368645" lon="7.9755017"><ele>339.0</ele><time>2026-04-26T11:26:49.339Z</time></trkpt><trkpt lat="44.5367677" lon="7.9752411"><ele>335.6666666666667</ele><time>2026-04-26T11:26:50.346Z</time></trkpt><trkpt lat="44.5366566" lon="7.9749795"><ele>332.33333333333337</ele><time>2026-04-26T11:26:51.345Z</time></trkpt><trkpt lat="44.5365427" lon="7.974714"><ele>329.0</ele><time>2026-04-26T11:26:52.345Z</time></trkpt><trkpt lat="44.5364212" lon="7.9744408"><ele>328.5</ele><time>2026-04-26T11:26:53.339Z</time></trkpt><trkpt lat="44.5363101" lon="7.9741644"><ele>328.0</ele><time>2026-04-26T11:26:54.351Z</time></trkpt><trkpt lat="44.5361884" lon="7.9738799"><ele>328.0</ele><time>2026-04-26T11:26:55.372Z</time></trkpt><trkpt lat="44.5360612" lon="7.9735947"><ele>328.0</ele><time>2026-04-26T11:26:56.339Z</time></trkpt><trkpt lat="44.5359364" lon="7.9733043"><ele>326.5</ele><time>2026-04-26T11:26:57.343Z</time></trkpt><trkpt lat="44.5358098" lon="7.9730137"><ele>325.0</ele><time>2026-04-26T11:26:58.352Z</time></trkpt><trkpt lat="44.5356812" lon="7.9727297"><ele>325.66666666666663</ele><time>2026-04-26T11:26:59.34Z</time></trkpt><trkpt lat="44.5355612" lon="7.9724549"><ele>326.3333333333333</ele><time>2026-04-26T11:27:00.357Z</time></trkpt><trkpt lat="44.5354501" lon="7.9721951"><ele>327.0</ele><time>2026-04-26T11:27:01.341Z</time></trkpt><trkpt lat="44.535346" lon="7.9719559"><ele>325.6666666666667</ele><time>2026-04-26T11:27:02.352Z</time></trkpt><trkpt lat="44.5352381" lon="7.9717285"><ele>324.33333333333337</ele><time>2026-04-26T11:27:03.344Z</time></trkpt><trkpt lat="44.5351138" lon="7.9715358"><ele>323.0</ele><time>2026-04-26T11:27:04.338Z</time></trkpt><trkpt lat="44.5349621" lon="7.9713591"><ele>322.6666666666667</ele><time>2026-04-26T11:27:05.334Z</time></trkpt><trkpt lat="44.5348106" lon="7.9711897"><ele>322.3333333333333</ele><time>2026-04-26T11:27:06.343Z</time></trkpt><trkpt lat="44.5346779" lon="7.9710186"><ele>322.0</ele><time>2026-04-26T11:27:07.34Z</time></trkpt><trkpt lat="44.5345889" lon="7.9708126"><ele>320.66666666666663</ele><time>2026-04-26T11:27:08.349Z</time></trkpt><trkpt lat="44.5345275" lon="7.9705491"><ele>319.3333333333333</ele><time>2026-04-26T11:27:09.347Z</time></trkpt><trkpt lat="44.53449" lon="7.9702966"><ele>318.0</ele><time>2026-04-26T11:27:10.336Z</time></trkpt><trkpt lat="44.5344426" lon="7.9700139"><ele>318.0</ele><time>2026-04-26T11:27:11.336Z</time></trkpt><trkpt lat="44.534381" lon="7.9697201"><ele>318.0</ele><time>2026-04-26T11:27:12.343Z</time></trkpt><trkpt lat="44.5343141" lon="7.9694233"><ele>318.0</ele><time>2026-04-26T11:27:13.336Z</time></trkpt><trkpt lat="44.5342531" lon="7.9691297"><ele>318.0</ele><time>2026-04-26T11:27:14.354Z</time></trkpt><trkpt lat="44.5342012" lon="7.968858"><ele>318.0</ele><time>2026-04-26T11:27:15.333Z</time></trkpt><trkpt lat="44.5341484" lon="7.9686019"><ele>318.0</ele><time>2026-04-26T11:27:16.34Z</time></trkpt><trkpt lat="44.534115" lon="7.9683569"><ele>319.0</ele><time>2026-04-26T11:27:17.344Z</time></trkpt><trkpt lat="44.5340951" lon="7.9681193"><ele>320.0</ele><time>2026-04-26T11:27:18.332Z</time></trkpt><trkpt lat="44.5340722" lon="7.9678836"><ele>321.0</ele><time>2026-04-26T11:27:19.345Z</time></trkpt><trkpt lat="44.5340386" lon="7.9676668"><ele>322.6666666666667</ele><time>2026-04-26T11:27:20.348Z</time></trkpt><trkpt lat="44.533963" lon="7.9674798"><ele>324.33333333333337</ele><time>2026-04-26T11:27:21.336Z</time></trkpt><trkpt lat="44.5338501" lon="7.9673039"><ele>326.0</ele><time>2026-04-26T11:27:22.342Z</time></trkpt><trkpt lat="44.5337141" lon="7.9671472"><ele>321.6666666666667</ele><time>2026-04-26T11:27:23.342Z</time></trkpt><trkpt lat="44.533564" lon="7.9670169"><ele>317.3333333333333</ele><time>2026-04-26T11:27:24.335Z</time></trkpt><trkpt lat="44.5333904" lon="7.9669242"><ele>313.0</ele><time>2026-04-26T11:27:25.327Z</time></trkpt><trkpt lat="44.5332035" lon="7.966869"><ele>313.0</ele><time>2026-04-26T11:27:26.345Z</time></trkpt><trkpt lat="44.5330132" lon="7.9668489"><ele>313.0</ele><time>2026-04-26T11:27:27.344Z</time></trkpt><trkpt lat="44.5328309" lon="7.9668403"><ele>313.0</ele><time>2026-04-26T11:27:28.339Z</time></trkpt><trkpt lat="44.5326668" lon="7.9667616"><ele>311.25</ele><time>2026-04-26T11:27:29.349Z</time></trkpt><trkpt lat="44.5325255" lon="7.9666406"><ele>309.5</ele><time>2026-04-26T11:27:30.34Z</time></trkpt><trkpt lat="44.5324167" lon="7.9665063"><ele>307.75</ele><time>2026-04-26T11:27:31.352Z</time></trkpt><trkpt lat="44.5323362" lon="7.9663914"><ele>306.0</ele><time>2026-04-26T11:27:32.343Z</time></trkpt><trkpt lat="44.5322956" lon="7.9662901"><ele>306.0</ele><time>2026-04-26T11:27:33.339Z</time></trkpt><trkpt lat="44.5322852" lon="7.9662027"><ele>306.0</ele><time>2026-04-26T11:27:34.333Z</time></trkpt><trkpt lat="44.5323195" lon="7.9660405"><ele>306.0</ele><time>2026-04-26T11:27:36.345Z</time></trkpt><trkpt lat="44.5323727" lon="7.9659164"><ele>306.0</ele><time>2026-04-26T11:27:37.343Z</time></trkpt><trkpt lat="44.5324374" lon="7.9657666"><ele>306.0</ele><time>2026-04-26T11:27:38.345Z</time></trkpt><trkpt lat="44.5325149" lon="7.9655886"><ele>306.0</ele><time>2026-04-26T11:27:39.349Z</time></trkpt><trkpt lat="44.5325972" lon="7.965387"><ele>306.0</ele><time>2026-04-26T11:27:40.345Z</time></trkpt><trkpt lat="44.5326838" lon="7.9651761"><ele>306.0</ele><time>2026-04-26T11:27:41.339Z</time></trkpt><trkpt lat="44.5327688" lon="7.96497"><ele>306.0</ele><time>2026-04-26T11:27:42.347Z</time></trkpt><trkpt lat="44.5328565" lon="7.964751"><ele>306.0</ele><time>2026-04-26T11:27:43.337Z</time></trkpt><trkpt lat="44.532939" lon="7.9645196"><ele>306.0</ele><time>2026-04-26T11:27:44.349Z</time></trkpt><trkpt lat="44.5330198" lon="7.9642774"><ele>307.3333333333333</ele><time>2026-04-26T11:27:45.341Z</time></trkpt><trkpt lat="44.5330966" lon="7.9640279"><ele>308.66666666666663</ele><time>2026-04-26T11:27:46.349Z</time></trkpt><trkpt lat="44.5331664" lon="7.9637656"><ele>310.0</ele><time>2026-04-26T11:27:47.353Z</time></trkpt><trkpt lat="44.5332347" lon="7.9635311"><ele>309.5</ele><time>2026-04-26T11:27:48.334Z</time></trkpt><trkpt lat="44.5332927" lon="7.9633219"><ele>309.0</ele><time>2026-04-26T11:27:49.342Z</time></trkpt><trkpt lat="44.5333443" lon="7.9631625"><ele>308.5</ele><time>2026-04-26T11:27:50.337Z</time></trkpt><trkpt lat="44.5333878" lon="7.9630086"><ele>308.0</ele><time>2026-04-26T11:27:51.333Z</time></trkpt><trkpt lat="44.5334353" lon="7.9628332"><ele>308.0</ele><time>2026-04-26T11:27:52.361Z</time></trkpt><trkpt lat="44.5334806" lon="7.9626326"><ele>308.0</ele><time>2026-04-26T11:27:53.342Z</time></trkpt><trkpt lat="44.533531" lon="7.9624167"><ele>308.0</ele><time>2026-04-26T11:27:54.346Z</time></trkpt><trkpt lat="44.5335644" lon="7.9622038"><ele>307.33333333333337</ele><time>2026-04-26T11:27:55.335Z</time></trkpt><trkpt lat="44.5335862" lon="7.9619571"><ele>306.6666666666667</ele><time>2026-04-26T11:27:56.336Z</time></trkpt><trkpt lat="44.5336022" lon="7.9616814"><ele>306.0</ele><time>2026-04-26T11:27:57.34Z</time></trkpt><trkpt lat="44.5336166" lon="7.9613982"><ele>305.3333333333333</ele><time>2026-04-26T11:27:58.334Z</time></trkpt><trkpt lat="44.5336314" lon="7.9611082"><ele>304.66666666666663</ele><time>2026-04-26T11:27:59.341Z</time></trkpt><trkpt lat="44.5336415" lon="7.9608148"><ele>304.0</ele><time>2026-04-26T11:28:00.345Z</time></trkpt><trkpt lat="44.5336518" lon="7.960514"><ele>303.3333333333333</ele><time>2026-04-26T11:28:01.343Z</time></trkpt><trkpt lat="44.5336675" lon="7.9602245"><ele>302.6666666666667</ele><time>2026-04-26T11:28:02.355Z</time></trkpt><trkpt lat="44.5336774" lon="7.9599428"><ele>302.0</ele><time>2026-04-26T11:28:03.351Z</time></trkpt><trkpt lat="44.5336843" lon="7.9596648"><ele>300.6666666666667</ele><time>2026-04-26T11:28:04.352Z</time></trkpt><trkpt lat="44.5336835" lon="7.9593707"><ele>299.3333333333333</ele><time>2026-04-26T11:28:05.342Z</time></trkpt><trkpt lat="44.5336686" lon="7.9590909"><ele>298.0</ele><time>2026-04-26T11:28:06.335Z</time></trkpt><trkpt lat="44.5336494" lon="7.9588129"><ele>298.0</ele><time>2026-04-26T11:28:07.345Z</time></trkpt><trkpt lat="44.5336306" lon="7.958543"><ele>298.0</ele><time>2026-04-26T11:28:08.353Z</time></trkpt><trkpt lat="44.5336092" lon="7.958281"><ele>298.0</ele><time>2026-04-26T11:28:09.349Z</time></trkpt><trkpt lat="44.5335895" lon="7.9580267"><ele>298.0</ele><time>2026-04-26T11:28:10.346Z</time></trkpt><trkpt lat="44.5335652" lon="7.9577957"><ele>298.0</ele><time>2026-04-26T11:28:11.351Z</time></trkpt><trkpt lat="44.5335496" lon="7.9575861"><ele>298.0</ele><time>2026-04-26T11:28:12.344Z</time></trkpt><trkpt lat="44.5335373" lon="7.9574038"><ele>298.0</ele><time>2026-04-26T11:28:13.349Z</time></trkpt><trkpt lat="44.5335388" lon="7.9572571"><ele>298.6</ele><time>2026-04-26T11:28:14.355Z</time></trkpt><trkpt lat="44.5335333" lon="7.9571317"><ele>299.20000000000005</ele><time>2026-04-26T11:28:15.353Z</time></trkpt><trkpt lat="44.5335113" lon="7.9570199"><ele>299.8</ele><time>2026-04-26T11:28:16.343Z</time></trkpt><trkpt lat="44.5334549" lon="7.9568826"><ele>300.40000000000003</ele><time>2026-04-26T11:28:17.333Z</time></trkpt><trkpt lat="44.5334047" lon="7.9566932"><ele>301.0</ele><time>2026-04-26T11:28:18.353Z</time></trkpt><trkpt lat="44.5333598" lon="7.9565"><ele>301.3333333333333</ele><time>2026-04-26T11:28:19.344Z</time></trkpt><trkpt lat="44.5333166" lon="7.9562977"><ele>301.6666666666667</ele><time>2026-04-26T11:28:20.34Z</time></trkpt><trkpt lat="44.5332717" lon="7.9560873"><ele>302.0</ele><time>2026-04-26T11:28:21.343Z</time></trkpt><trkpt lat="44.5332189" lon="7.9558614"><ele>302.0</ele><time>2026-04-26T11:28:22.338Z</time></trkpt><trkpt lat="44.5331643" lon="7.9556427"><ele>302.0</ele><time>2026-04-26T11:28:23.345Z</time></trkpt><trkpt lat="44.5331134" lon="7.955422"><ele>302.0</ele><time>2026-04-26T11:28:24.352Z</time></trkpt><trkpt lat="44.5330711" lon="7.9552132"><ele>301.5</ele><time>2026-04-26T11:28:25.342Z</time></trkpt><trkpt lat="44.5330283" lon="7.9550146"><ele>301.0</ele><time>2026-04-26T11:28:26.335Z</time></trkpt><trkpt lat="44.5329865" lon="7.9548166"><ele>300.5</ele><time>2026-04-26T11:28:27.342Z</time></trkpt><trkpt lat="44.5329499" lon="7.9546365"><ele>300.0</ele><time>2026-04-26T11:28:28.337Z</time></trkpt><trkpt lat="44.5329132" lon="7.9544564"><ele>298.75</ele><time>2026-04-26T11:28:29.331Z</time></trkpt><trkpt lat="44.5328809" lon="7.9542866"><ele>297.5</ele><time>2026-04-26T11:28:30.378Z</time></trkpt><trkpt lat="44.5328412" lon="7.9541159"><ele>296.25</ele><time>2026-04-26T11:28:31.356Z</time></trkpt><trkpt lat="44.5327995" lon="7.9539445"><ele>295.0</ele><time>2026-04-26T11:28:32.342Z</time></trkpt><trkpt lat="44.5327586" lon="7.953776"><ele>295.0</ele><time>2026-04-26T11:28:33.341Z</time></trkpt><trkpt lat="44.5327188" lon="7.9536115"><ele>295.0</ele><time>2026-04-26T11:28:34.341Z</time></trkpt><trkpt lat="44.5326783" lon="7.953452"><ele>295.0</ele><time>2026-04-26T11:28:35.339Z</time></trkpt><trkpt lat="44.5326333" lon="7.9532965"><ele>295.0</ele><time>2026-04-26T11:28:36.338Z</time></trkpt><trkpt lat="44.5325945" lon="7.9531309"><ele>295.0</ele><time>2026-04-26T11:28:37.349Z</time></trkpt><trkpt lat="44.5325492" lon="7.9529617"><ele>295.0</ele><time>2026-04-26T11:28:38.335Z</time></trkpt><trkpt lat="44.5325063" lon="7.9527965"><ele>295.0</ele><time>2026-04-26T11:28:39.347Z</time></trkpt><trkpt lat="44.5324614" lon="7.9526303"><ele>295.0</ele><time>2026-04-26T11:28:40.334Z</time></trkpt><trkpt lat="44.5324174" lon="7.952461"><ele>295.0</ele><time>2026-04-26T11:28:41.343Z</time></trkpt><trkpt lat="44.5323769" lon="7.9522898"><ele>295.0</ele><time>2026-04-26T11:28:42.343Z</time></trkpt><trkpt lat="44.5323403" lon="7.9521163"><ele>295.0</ele><time>2026-04-26T11:28:43.352Z</time></trkpt><trkpt lat="44.5322997" lon="7.9519443"><ele>295.0</ele><time>2026-04-26T11:28:44.343Z</time></trkpt><trkpt lat="44.5322497" lon="7.9517684"><ele>295.0</ele><time>2026-04-26T11:28:45.351Z</time></trkpt><trkpt lat="44.5322017" lon="7.9515848"><ele>295.0</ele><time>2026-04-26T11:28:46.352Z</time></trkpt><trkpt lat="44.5321556" lon="7.9513989"><ele>295.0</ele><time>2026-04-26T11:28:47.342Z</time></trkpt><trkpt lat="44.5321134" lon="7.9512206"><ele>295.0</ele><time>2026-04-26T11:28:48.335Z</time></trkpt><trkpt lat="44.5320829" lon="7.9510405"><ele>295.0</ele><time>2026-04-26T11:28:49.34Z</time></trkpt><trkpt lat="44.5320629" lon="7.9508573"><ele>295.0</ele><time>2026-04-26T11:28:50.338Z</time></trkpt><trkpt lat="44.5320581" lon="7.9506697"><ele>295.0</ele><time>2026-04-26T11:28:51.342Z</time></trkpt><trkpt lat="44.5320551" lon="7.9504814"><ele>295.0</ele><time>2026-04-26T11:28:52.34Z</time></trkpt><trkpt lat="44.532059" lon="7.9503095"><ele>295.0</ele><time>2026-04-26T11:28:53.351Z</time></trkpt><trkpt lat="44.5320583" lon="7.9501523"><ele>295.0</ele><time>2026-04-26T11:28:54.34Z</time></trkpt><trkpt lat="44.5320554" lon="7.950009"><ele>295.0</ele><time>2026-04-26T11:28:55.341Z</time></trkpt><trkpt lat="44.5320425" lon="7.9498886"><ele>295.0</ele><time>2026-04-26T11:28:56.352Z</time></trkpt><trkpt lat="44.532005" lon="7.9497897"><ele>295.0</ele><time>2026-04-26T11:28:57.34Z</time></trkpt><trkpt lat="44.5319327" lon="7.9496939"><ele>294.0</ele><time>2026-04-26T11:28:58.342Z</time></trkpt><trkpt lat="44.5318326" lon="7.949593"><ele>293.0</ele><time>2026-04-26T11:28:59.342Z</time></trkpt><trkpt lat="44.5317047" lon="7.9495084"><ele>292.0</ele><time>2026-04-26T11:29:00.338Z</time></trkpt><trkpt lat="44.531566" lon="7.9494605"><ele>291.0</ele><time>2026-04-26T11:29:01.33Z</time></trkpt><trkpt lat="44.5314411" lon="7.9494405"><ele>291.0</ele><time>2026-04-26T11:29:02.351Z</time></trkpt><trkpt lat="44.5313167" lon="7.9494266"><ele>291.0</ele><time>2026-04-26T11:29:03.339Z</time></trkpt><trkpt lat="44.5311883" lon="7.9493988"><ele>291.0</ele><time>2026-04-26T11:29:04.362Z</time></trkpt><trkpt lat="44.5310735" lon="7.9493809"><ele>291.0</ele><time>2026-04-26T11:29:05.341Z</time></trkpt><trkpt lat="44.530971" lon="7.9493747"><ele>290.6</ele><time>2026-04-26T11:29:06.342Z</time></trkpt><trkpt lat="44.5308945" lon="7.9493766"><ele>290.20000000000005</ele><time>2026-04-26T11:29:07.342Z</time></trkpt><trkpt lat="44.530789" lon="7.949374"><ele>289.79999999999995</ele><time>2026-04-26T11:29:09.352Z</time></trkpt><trkpt lat="44.5307259" lon="7.9492664"><ele>289.4</ele><time>2026-04-26T11:29:11.349Z</time></trkpt><trkpt lat="44.530734" lon="7.9491676"><ele>289.0</ele><time>2026-04-26T11:29:12.36Z</time></trkpt><trkpt lat="44.5307611" lon="7.949032"><ele>289.0</ele><time>2026-04-26T11:29:13.338Z</time></trkpt><trkpt lat="44.5307837" lon="7.9488662"><ele>289.0</ele><time>2026-04-26T11:29:14.366Z</time></trkpt><trkpt lat="44.5307944" lon="7.9486915"><ele>289.0</ele><time>2026-04-26T11:29:15.344Z</time></trkpt><trkpt lat="44.5308152" lon="7.9485036"><ele>289.0</ele><time>2026-04-26T11:29:16.382Z</time></trkpt><trkpt lat="44.5308286" lon="7.948303"><ele>289.0</ele><time>2026-04-26T11:29:17.339Z</time></trkpt><trkpt lat="44.5308454" lon="7.9480889"><ele>289.0</ele><time>2026-04-26T11:29:18.349Z</time></trkpt><trkpt lat="44.5308751" lon="7.9478778"><ele>289.0</ele><time>2026-04-26T11:29:19.341Z</time></trkpt><trkpt lat="44.5308978" lon="7.9476709"><ele>288.25</ele><time>2026-04-26T11:29:20.338Z</time></trkpt><trkpt lat="44.5309194" lon="7.94748"><ele>287.5</ele><time>2026-04-26T11:29:21.344Z</time></trkpt><trkpt lat="44.5309376" lon="7.9472886"><ele>286.75</ele><time>2026-04-26T11:29:22.343Z</time></trkpt><trkpt lat="44.530965" lon="7.9470912"><ele>286.0</ele><time>2026-04-26T11:29:23.348Z</time></trkpt><trkpt lat="44.5309875" lon="7.9468957"><ele>286.25</ele><time>2026-04-26T11:29:24.339Z</time></trkpt><trkpt lat="44.5310024" lon="7.9466939"><ele>286.5</ele><time>2026-04-26T11:29:25.346Z</time></trkpt><trkpt lat="44.5310205" lon="7.9464998"><ele>286.75</ele><time>2026-04-26T11:29:26.339Z</time></trkpt><trkpt lat="44.5310375" lon="7.9463091"><ele>287.0</ele><time>2026-04-26T11:29:27.347Z</time></trkpt><trkpt lat="44.5310556" lon="7.9461306"><ele>287.0</ele><time>2026-04-26T11:29:28.34Z</time></trkpt><trkpt lat="44.5310654" lon="7.9459692"><ele>287.0</ele><time>2026-04-26T11:29:29.342Z</time></trkpt><trkpt lat="44.5310744" lon="7.9458347"><ele>287.0</ele><time>2026-04-26T11:29:30.345Z</time></trkpt><trkpt lat="44.531087" lon="7.9457117"><ele>287.0</ele><time>2026-04-26T11:29:31.34Z</time></trkpt><trkpt lat="44.531104" lon="7.9456025"><ele>287.0</ele><time>2026-04-26T11:29:32.346Z</time></trkpt><trkpt lat="44.5311327" lon="7.9454777"><ele>286.75</ele><time>2026-04-26T11:29:34.341Z</time></trkpt><trkpt lat="44.5311643" lon="7.9453612"><ele>286.5</ele><time>2026-04-26T11:29:39.34Z</time></trkpt><trkpt lat="44.531335" lon="7.9453778"><ele>286.25</ele><time>2026-04-26T11:29:41.348Z</time></trkpt><trkpt lat="44.5314484" lon="7.945426"><ele>286.0</ele><time>2026-04-26T11:29:42.346Z</time></trkpt><trkpt lat="44.5315597" lon="7.9454808"><ele>285.5</ele><time>2026-04-26T11:29:43.354Z</time></trkpt><trkpt lat="44.5316768" lon="7.9455328"><ele>285.0</ele><time>2026-04-26T11:29:44.343Z</time></trkpt><trkpt lat="44.5317993" lon="7.945569"><ele>284.5</ele><time>2026-04-26T11:29:45.347Z</time></trkpt><trkpt lat="44.5319261" lon="7.9456104"><ele>284.0</ele><time>2026-04-26T11:29:46.344Z</time></trkpt><trkpt lat="44.5320509" lon="7.9456436"><ele>284.59999999999997</ele><time>2026-04-26T11:29:47.35Z</time></trkpt><trkpt lat="44.5321697" lon="7.9456793"><ele>285.2</ele><time>2026-04-26T11:29:48.333Z</time></trkpt><trkpt lat="44.5322638" lon="7.9457104"><ele>285.79999999999995</ele><time>2026-04-26T11:29:49.353Z</time></trkpt><trkpt lat="44.5323323" lon="7.9457202"><ele>286.4</ele><time>2026-04-26T11:29:50.342Z</time></trkpt><trkpt lat="44.532396" lon="7.9456835"><ele>287.0</ele><time>2026-04-26T11:29:51.337Z</time></trkpt><trkpt lat="44.5324425" lon="7.9454909"><ele>287.0</ele><time>2026-04-26T11:29:53.349Z</time></trkpt><trkpt lat="44.5324546" lon="7.9453613"><ele>287.0</ele><time>2026-04-26T11:29:54.344Z</time></trkpt><trkpt lat="44.5324535" lon="7.9451718"><ele>287.0</ele><time>2026-04-26T11:29:55.357Z</time></trkpt><trkpt lat="44.5324579" lon="7.9449571"><ele>287.0</ele><time>2026-04-26T11:29:56.351Z</time></trkpt><trkpt lat="44.5324559" lon="7.9447365"><ele>286.33333333333337</ele><time>2026-04-26T11:29:57.339Z</time></trkpt><trkpt lat="44.5324672" lon="7.9445144"><ele>285.6666666666667</ele><time>2026-04-26T11:29:58.342Z</time></trkpt><trkpt lat="44.5324717" lon="7.9442808"><ele>285.0</ele><time>2026-04-26T11:29:59.338Z</time></trkpt><trkpt lat="44.5324782" lon="7.9440454"><ele>284.6666666666667</ele><time>2026-04-26T11:30:00.348Z</time></trkpt><trkpt lat="44.5324883" lon="7.9438049"><ele>284.33333333333337</ele><time>2026-04-26T11:30:01.349Z</time></trkpt><trkpt lat="44.5325019" lon="7.9435679"><ele>284.0</ele><time>2026-04-26T11:30:02.351Z</time></trkpt><trkpt lat="44.532514" lon="7.9433333"><ele>284.0</ele><time>2026-04-26T11:30:03.342Z</time></trkpt><trkpt lat="44.5325187" lon="7.9430892"><ele>284.0</ele><time>2026-04-26T11:30:04.342Z</time></trkpt><trkpt lat="44.5325197" lon="7.9428474"><ele>284.0</ele><time>2026-04-26T11:30:05.337Z</time></trkpt><trkpt lat="44.5325324" lon="7.9426146"><ele>283.6666666666667</ele><time>2026-04-26T11:30:06.338Z</time></trkpt><trkpt lat="44.532535" lon="7.9423814"><ele>283.3333333333333</ele><time>2026-04-26T11:30:07.352Z</time></trkpt><trkpt lat="44.532538" lon="7.9421642"><ele>283.0</ele><time>2026-04-26T11:30:08.372Z</time></trkpt><trkpt lat="44.5325419" lon="7.941959"><ele>283.0</ele><time>2026-04-26T11:30:09.356Z</time></trkpt><trkpt lat="44.532544" lon="7.9417531"><ele>283.0</ele><time>2026-04-26T11:30:10.342Z</time></trkpt><trkpt lat="44.5325612" lon="7.9415373"><ele>283.0</ele><time>2026-04-26T11:30:11.344Z</time></trkpt><trkpt lat="44.5325938" lon="7.9413023"><ele>282.66666666666663</ele><time>2026-04-26T11:30:12.363Z</time></trkpt><trkpt lat="44.5326444" lon="7.941074"><ele>282.3333333333333</ele><time>2026-04-26T11:30:13.357Z</time></trkpt><trkpt lat="44.5327124" lon="7.9408492"><ele>282.0</ele><time>2026-04-26T11:30:14.337Z</time></trkpt><trkpt lat="44.5327995" lon="7.9406448"><ele>281.6666666666667</ele><time>2026-04-26T11:30:15.34Z</time></trkpt><trkpt lat="44.5329259" lon="7.9404384"><ele>281.33333333333337</ele><time>2026-04-26T11:30:16.339Z</time></trkpt><trkpt lat="44.5330725" lon="7.9402231"><ele>281.0</ele><time>2026-04-26T11:30:17.363Z</time></trkpt><trkpt lat="44.5332102" lon="7.9400207"><ele>281.0</ele><time>2026-04-26T11:30:18.334Z</time></trkpt><trkpt lat="44.5333387" lon="7.9398377"><ele>281.0</ele><time>2026-04-26T11:30:19.33Z</time></trkpt><trkpt lat="44.5334608" lon="7.9396646"><ele>281.0</ele><time>2026-04-26T11:30:20.339Z</time></trkpt><trkpt lat="44.5335729" lon="7.939487"><ele>281.0</ele><time>2026-04-26T11:30:21.364Z</time></trkpt><trkpt lat="44.5336908" lon="7.9393086"><ele>281.0</ele><time>2026-04-26T11:30:22.35Z</time></trkpt><trkpt lat="44.5338117" lon="7.9391374"><ele>281.0</ele><time>2026-04-26T11:30:23.354Z</time></trkpt><trkpt lat="44.5339324" lon="7.9389613"><ele>280.6666666666667</ele><time>2026-04-26T11:30:24.341Z</time></trkpt><trkpt lat="44.5340509" lon="7.9387807"><ele>280.3333333333333</ele><time>2026-04-26T11:30:25.346Z</time></trkpt><trkpt lat="44.5341629" lon="7.9386063"><ele>280.0</ele><time>2026-04-26T11:30:26.349Z</time></trkpt><trkpt lat="44.534274" lon="7.9384411"><ele>279.66666666666663</ele><time>2026-04-26T11:30:27.354Z</time></trkpt><trkpt lat="44.5343854" lon="7.9382757"><ele>279.3333333333333</ele><time>2026-04-26T11:30:28.345Z</time></trkpt><trkpt lat="44.5344942" lon="7.9381091"><ele>279.0</ele><time>2026-04-26T11:30:29.349Z</time></trkpt><trkpt lat="44.534597" lon="7.9379393"><ele>279.0</ele><time>2026-04-26T11:30:30.344Z</time></trkpt><trkpt lat="44.534698" lon="7.9377729"><ele>279.0</ele><time>2026-04-26T11:30:31.342Z</time></trkpt><trkpt lat="44.5348012" lon="7.9376185"><ele>279.0</ele><time>2026-04-26T11:30:32.343Z</time></trkpt><trkpt lat="44.5348995" lon="7.937477"><ele>279.0</ele><time>2026-04-26T11:30:33.354Z</time></trkpt><trkpt lat="44.5349975" lon="7.9373336"><ele>278.75</ele><time>2026-04-26T11:30:34.347Z</time></trkpt><trkpt lat="44.5350932" lon="7.937194"><ele>278.5</ele><time>2026-04-26T11:30:35.345Z</time></trkpt><trkpt lat="44.5351889" lon="7.9370454"><ele>278.25</ele><time>2026-04-26T11:30:36.35Z</time></trkpt><trkpt lat="44.5352916" lon="7.9369002"><ele>278.0</ele><time>2026-04-26T11:30:37.348Z</time></trkpt><trkpt lat="44.5353951" lon="7.9367506"><ele>277.0</ele><time>2026-04-26T11:30:38.339Z</time></trkpt><trkpt lat="44.535501" lon="7.9365981"><ele>276.0</ele><time>2026-04-26T11:30:39.34Z</time></trkpt><trkpt lat="44.5356035" lon="7.9364411"><ele>275.0</ele><time>2026-04-26T11:30:40.342Z</time></trkpt><trkpt lat="44.5356978" lon="7.9362994"><ele>274.0</ele><time>2026-04-26T11:30:41.34Z</time></trkpt><trkpt lat="44.5357861" lon="7.9361658"><ele>274.0</ele><time>2026-04-26T11:30:42.347Z</time></trkpt><trkpt lat="44.5358687" lon="7.9360382"><ele>274.0</ele><time>2026-04-26T11:30:43.337Z</time></trkpt><trkpt lat="44.535946" lon="7.9359266"><ele>274.0</ele><time>2026-04-26T11:30:44.343Z</time></trkpt><trkpt lat="44.5360178" lon="7.9358171"><ele>274.0</ele><time>2026-04-26T11:30:45.345Z</time></trkpt><trkpt lat="44.5360825" lon="7.9357191"><ele>274.0</ele><time>2026-04-26T11:30:46.353Z</time></trkpt><trkpt lat="44.5361439" lon="7.9356349"><ele>273.8333333333333</ele><time>2026-04-26T11:30:47.337Z</time></trkpt><trkpt lat="44.5362072" lon="7.9355641"><ele>273.66666666666663</ele><time>2026-04-26T11:30:48.34Z</time></trkpt><trkpt lat="44.5362657" lon="7.9354961"><ele>273.5</ele><time>2026-04-26T11:30:49.36Z</time></trkpt><trkpt lat="44.5363331" lon="7.9354322"><ele>273.3333333333333</ele><time>2026-04-26T11:30:50.348Z</time></trkpt><trkpt lat="44.5364053" lon="7.9353429"><ele>273.1666666666667</ele><time>2026-04-26T11:30:51.345Z</time></trkpt><trkpt lat="44.5364701" lon="7.9352342"><ele>273.0</ele><time>2026-04-26T11:30:52.34Z</time></trkpt><trkpt lat="44.5365266" lon="7.9350882"><ele>272.75</ele><time>2026-04-26T11:30:53.34Z</time></trkpt><trkpt lat="44.5365941" lon="7.9349255"><ele>272.5</ele><time>2026-04-26T11:30:54.345Z</time></trkpt><trkpt lat="44.5366838" lon="7.9347729"><ele>272.25</ele><time>2026-04-26T11:30:55.341Z</time></trkpt><trkpt lat="44.5367927" lon="7.9346143"><ele>272.0</ele><time>2026-04-26T11:30:56.351Z</time></trkpt><trkpt lat="44.5369081" lon="7.9344471"><ele>272.0</ele><time>2026-04-26T11:30:57.345Z</time></trkpt><trkpt lat="44.5370315" lon="7.9342639"><ele>272.0</ele><time>2026-04-26T11:30:58.351Z</time></trkpt><trkpt lat="44.537177" lon="7.934045"><ele>272.0</ele><time>2026-04-26T11:30:59.346Z</time></trkpt><trkpt lat="44.5373508" lon="7.9337914"><ele>271.5</ele><time>2026-04-26T11:31:00.339Z</time></trkpt><trkpt lat="44.5375551" lon="7.933551"><ele>271.0</ele><time>2026-04-26T11:31:01.34Z</time></trkpt><trkpt lat="44.5377561" lon="7.9332999"><ele>272.5</ele><time>2026-04-26T11:31:02.342Z</time></trkpt><trkpt lat="44.5379564" lon="7.9330628"><ele>274.0</ele><time>2026-04-26T11:31:03.34Z</time></trkpt><trkpt lat="44.5381468" lon="7.9328346"><ele>274.0</ele><time>2026-04-26T11:31:04.352Z</time></trkpt><trkpt lat="44.5383384" lon="7.9326069"><ele>274.0</ele><time>2026-04-26T11:31:05.341Z</time></trkpt><trkpt lat="44.5385243" lon="7.9323809"><ele>275.5</ele><time>2026-04-26T11:31:06.34Z</time></trkpt><trkpt lat="44.5387096" lon="7.9321639"><ele>277.0</ele><time>2026-04-26T11:31:07.352Z</time></trkpt><trkpt lat="44.5388877" lon="7.9319572"><ele>277.0</ele><time>2026-04-26T11:31:08.337Z</time></trkpt><trkpt lat="44.5390578" lon="7.9317613"><ele>277.0</ele><time>2026-04-26T11:31:09.331Z</time></trkpt><trkpt lat="44.5392253" lon="7.9315766"><ele>277.0</ele><time>2026-04-26T11:31:10.354Z</time></trkpt><trkpt lat="44.5393858" lon="7.9313946"><ele>276.0</ele><time>2026-04-26T11:31:11.352Z</time></trkpt><trkpt lat="44.5395373" lon="7.9312137"><ele>275.0</ele><time>2026-04-26T11:31:12.335Z</time></trkpt><trkpt lat="44.5396911" lon="7.9310407"><ele>274.0</ele><time>2026-04-26T11:31:13.349Z</time></trkpt><trkpt lat="44.5398447" lon="7.9308707"><ele>271.0</ele><time>2026-04-26T11:31:14.341Z</time></trkpt><trkpt lat="44.5399935" lon="7.9307022"><ele>268.0</ele><time>2026-04-26T11:31:15.343Z</time></trkpt><trkpt lat="44.5401452" lon="7.9305286"><ele>265.0</ele><time>2026-04-26T11:31:16.338Z</time></trkpt><trkpt lat="44.5402918" lon="7.930353"><ele>264.3333333333333</ele><time>2026-04-26T11:31:17.341Z</time></trkpt><trkpt lat="44.5404413" lon="7.9301727"><ele>263.6666666666667</ele><time>2026-04-26T11:31:18.343Z</time></trkpt><trkpt lat="44.540594" lon="7.9299952"><ele>263.0</ele><time>2026-04-26T11:31:19.381Z</time></trkpt><trkpt lat="44.5407488" lon="7.9298158"><ele>263.0</ele><time>2026-04-26T11:31:20.341Z</time></trkpt><trkpt lat="44.5409064" lon="7.9296377"><ele>263.0</ele><time>2026-04-26T11:31:21.368Z</time></trkpt><trkpt lat="44.5410658" lon="7.9294483"><ele>263.0</ele><time>2026-04-26T11:31:22.354Z</time></trkpt><trkpt lat="44.541223" lon="7.9292625"><ele>263.33333333333337</ele><time>2026-04-26T11:31:23.347Z</time></trkpt><trkpt lat="44.5413815" lon="7.9290812"><ele>263.6666666666667</ele><time>2026-04-26T11:31:24.343Z</time></trkpt><trkpt lat="44.5415424" lon="7.9289121"><ele>264.0</ele><time>2026-04-26T11:31:25.347Z</time></trkpt><trkpt lat="44.541707" lon="7.9287427"><ele>264.0</ele><time>2026-04-26T11:31:26.338Z</time></trkpt><trkpt lat="44.541882" lon="7.928566"><ele>264.0</ele><time>2026-04-26T11:31:27.338Z</time></trkpt><trkpt lat="44.5420733" lon="7.9283922"><ele>264.0</ele><time>2026-04-26T11:31:28.339Z</time></trkpt><trkpt lat="44.5422623" lon="7.9282265"><ele>263.0</ele><time>2026-04-26T11:31:29.344Z</time></trkpt><trkpt lat="44.5424562" lon="7.9280699"><ele>262.0</ele><time>2026-04-26T11:31:30.334Z</time></trkpt><trkpt lat="44.5426521" lon="7.9279153"><ele>261.0</ele><time>2026-04-26T11:31:31.341Z</time></trkpt><trkpt lat="44.5428483" lon="7.9277634"><ele>262.3333333333333</ele><time>2026-04-26T11:31:32.337Z</time></trkpt><trkpt lat="44.5430398" lon="7.9276089"><ele>263.66666666666663</ele><time>2026-04-26T11:31:33.344Z</time></trkpt><trkpt lat="44.5432303" lon="7.9274587"><ele>265.0</ele><time>2026-04-26T11:31:34.349Z</time></trkpt><trkpt lat="44.5434207" lon="7.9273064"><ele>265.0</ele><time>2026-04-26T11:31:35.351Z</time></trkpt><trkpt lat="44.5436133" lon="7.927157"><ele>265.0</ele><time>2026-04-26T11:31:36.351Z</time></trkpt><trkpt lat="44.5438057" lon="7.9270035"><ele>265.0</ele><time>2026-04-26T11:31:37.335Z</time></trkpt><trkpt lat="44.5439949" lon="7.9268532"><ele>265.0</ele><time>2026-04-26T11:31:38.331Z</time></trkpt><trkpt lat="44.5441887" lon="7.9267034"><ele>265.0</ele><time>2026-04-26T11:31:39.345Z</time></trkpt><trkpt lat="44.5443824" lon="7.9265517"><ele>265.0</ele><time>2026-04-26T11:31:40.367Z</time></trkpt><trkpt lat="44.5445763" lon="7.9263989"><ele>266.5</ele><time>2026-04-26T11:31:41.355Z</time></trkpt><trkpt lat="44.544773" lon="7.9262394"><ele>268.0</ele><time>2026-04-26T11:31:42.344Z</time></trkpt><trkpt lat="44.5449696" lon="7.9260839"><ele>268.0</ele><time>2026-04-26T11:31:43.334Z</time></trkpt><trkpt lat="44.5451672" lon="7.925926"><ele>268.0</ele><time>2026-04-26T11:31:44.339Z</time></trkpt><trkpt lat="44.5453716" lon="7.9257722"><ele>268.0</ele><time>2026-04-26T11:31:45.346Z</time></trkpt><trkpt lat="44.5455757" lon="7.925625"><ele>268.0</ele><time>2026-04-26T11:31:46.349Z</time></trkpt><trkpt lat="44.5457768" lon="7.9254827"><ele>268.0</ele><time>2026-04-26T11:31:47.338Z</time></trkpt><trkpt lat="44.5459795" lon="7.925336"><ele>268.0</ele><time>2026-04-26T11:31:48.349Z</time></trkpt><trkpt lat="44.5461833" lon="7.9251819"><ele>263.66666666666663</ele><time>2026-04-26T11:31:49.338Z</time></trkpt><trkpt lat="44.5463796" lon="7.9250276"><ele>259.3333333333333</ele><time>2026-04-26T11:31:50.339Z</time></trkpt><trkpt lat="44.5465722" lon="7.9248673"><ele>255.0</ele><time>2026-04-26T11:31:51.349Z</time></trkpt><trkpt lat="44.546763" lon="7.9247133"><ele>255.0</ele><time>2026-04-26T11:31:52.34Z</time></trkpt><trkpt lat="44.5469429" lon="7.9245585"><ele>255.0</ele><time>2026-04-26T11:31:53.343Z</time></trkpt><trkpt lat="44.5471118" lon="7.9244202"><ele>255.0</ele><time>2026-04-26T11:31:54.345Z</time></trkpt><trkpt lat="44.5472721" lon="7.9242912"><ele>253.33333333333331</ele><time>2026-04-26T11:31:55.355Z</time></trkpt><trkpt lat="44.5474274" lon="7.924158"><ele>251.66666666666666</ele><time>2026-04-26T11:31:56.363Z</time></trkpt><trkpt lat="44.5475804" lon="7.924045"><ele>250.0</ele><time>2026-04-26T11:31:57.34Z</time></trkpt><trkpt lat="44.5477325" lon="7.9239526"><ele>250.0</ele><time>2026-04-26T11:31:58.34Z</time></trkpt><trkpt lat="44.5478743" lon="7.9238565"><ele>250.0</ele><time>2026-04-26T11:31:59.345Z</time></trkpt><trkpt lat="44.5480115" lon="7.9237403"><ele>250.0</ele><time>2026-04-26T11:32:00.342Z</time></trkpt><trkpt lat="44.5481513" lon="7.9235996"><ele>249.66666666666666</ele><time>2026-04-26T11:32:01.368Z</time></trkpt><trkpt lat="44.5483065" lon="7.9234614"><ele>249.33333333333331</ele><time>2026-04-26T11:32:02.34Z</time></trkpt><trkpt lat="44.548482" lon="7.9233327"><ele>249.0</ele><time>2026-04-26T11:32:03.344Z</time></trkpt><trkpt lat="44.5486523" lon="7.923203"><ele>247.33333333333331</ele><time>2026-04-26T11:32:04.337Z</time></trkpt><trkpt lat="44.5488319" lon="7.9230832"><ele>245.66666666666666</ele><time>2026-04-26T11:32:05.342Z</time></trkpt><trkpt lat="44.5490101" lon="7.9229712"><ele>244.0</ele><time>2026-04-26T11:32:06.356Z</time></trkpt><trkpt lat="44.5491947" lon="7.9228567"><ele>244.0</ele><time>2026-04-26T11:32:07.356Z</time></trkpt><trkpt lat="44.5493875" lon="7.9227473"><ele>244.0</ele><time>2026-04-26T11:32:08.364Z</time></trkpt><trkpt lat="44.5495795" lon="7.9226379"><ele>244.0</ele><time>2026-04-26T11:32:09.371Z</time></trkpt><trkpt lat="44.5497838" lon="7.9225433"><ele>243.66666666666666</ele><time>2026-04-26T11:32:10.352Z</time></trkpt><trkpt lat="44.5499914" lon="7.9224431"><ele>243.33333333333331</ele><time>2026-04-26T11:32:11.34Z</time></trkpt><trkpt lat="44.5502042" lon="7.9223547"><ele>243.0</ele><time>2026-04-26T11:32:12.337Z</time></trkpt><trkpt lat="44.5504229" lon="7.9222686"><ele>243.0</ele><time>2026-04-26T11:32:13.355Z</time></trkpt><trkpt lat="44.5506511" lon="7.9221922"><ele>243.0</ele><time>2026-04-26T11:32:14.365Z</time></trkpt><trkpt lat="44.5508848" lon="7.9221241"><ele>243.0</ele><time>2026-04-26T11:32:15.336Z</time></trkpt><trkpt lat="44.551125" lon="7.9220633"><ele>243.0</ele><time>2026-04-26T11:32:16.359Z</time></trkpt><trkpt lat="44.5513741" lon="7.9220045"><ele>243.0</ele><time>2026-04-26T11:32:17.342Z</time></trkpt><trkpt lat="44.5516229" lon="7.921957"><ele>243.0</ele><time>2026-04-26T11:32:18.339Z</time></trkpt><trkpt lat="44.5518772" lon="7.9219164"><ele>242.5</ele><time>2026-04-26T11:32:19.345Z</time></trkpt><trkpt lat="44.5521324" lon="7.921884"><ele>242.0</ele><time>2026-04-26T11:32:20.347Z</time></trkpt><trkpt lat="44.5523835" lon="7.9218612"><ele>242.0</ele><time>2026-04-26T11:32:21.343Z</time></trkpt><trkpt lat="44.5526507" lon="7.9218493"><ele>242.0</ele><time>2026-04-26T11:32:22.345Z</time></trkpt><trkpt lat="44.5529216" lon="7.9218518"><ele>240.5</ele><time>2026-04-26T11:32:23.34Z</time></trkpt><trkpt lat="44.5531937" lon="7.9218674"><ele>239.0</ele><time>2026-04-26T11:32:24.356Z</time></trkpt><trkpt lat="44.5534681" lon="7.9218926"><ele>238.5</ele><time>2026-04-26T11:32:25.342Z</time></trkpt><trkpt lat="44.5537375" lon="7.921928"><ele>238.0</ele><time>2026-04-26T11:32:26.345Z</time></trkpt><trkpt lat="44.5540058" lon="7.9219772"><ele>238.0</ele><time>2026-04-26T11:32:27.344Z</time></trkpt><trkpt lat="44.5542753" lon="7.9220218"><ele>238.0</ele><time>2026-04-26T11:32:28.345Z</time></trkpt><trkpt lat="44.5545401" lon="7.9220749"><ele>237.0</ele><time>2026-04-26T11:32:29.352Z</time></trkpt><trkpt lat="44.5548069" lon="7.9221222"><ele>236.0</ele><time>2026-04-26T11:32:30.344Z</time></trkpt><trkpt lat="44.5550739" lon="7.9221665"><ele>236.0</ele><time>2026-04-26T11:32:31.339Z</time></trkpt><trkpt lat="44.5553356" lon="7.922213"><ele>236.0</ele><time>2026-04-26T11:32:32.352Z</time></trkpt><trkpt lat="44.5556048" lon="7.9222555"><ele>236.0</ele><time>2026-04-26T11:32:33.346Z</time></trkpt><trkpt lat="44.5558747" lon="7.9222917"><ele>236.0</ele><time>2026-04-26T11:32:34.343Z</time></trkpt><trkpt lat="44.5561467" lon="7.9223334"><ele>236.0</ele><time>2026-04-26T11:32:35.346Z</time></trkpt><trkpt lat="44.5564157" lon="7.9223769"><ele>236.0</ele><time>2026-04-26T11:32:36.344Z</time></trkpt><trkpt lat="44.5566888" lon="7.9224212"><ele>236.0</ele><time>2026-04-26T11:32:37.349Z</time></trkpt><trkpt lat="44.5569613" lon="7.9224689"><ele>236.0</ele><time>2026-04-26T11:32:38.357Z</time></trkpt><trkpt lat="44.557233" lon="7.9225113"><ele>235.5</ele><time>2026-04-26T11:32:39.346Z</time></trkpt><trkpt lat="44.5575079" lon="7.922561"><ele>235.0</ele><time>2026-04-26T11:32:40.354Z</time></trkpt><trkpt lat="44.5577833" lon="7.9226063"><ele>233.5</ele><time>2026-04-26T11:32:41.335Z</time></trkpt><trkpt lat="44.558061" lon="7.9226572"><ele>232.0</ele><time>2026-04-26T11:32:42.353Z</time></trkpt><trkpt lat="44.5583437" lon="7.9227134"><ele>232.0</ele><time>2026-04-26T11:32:43.345Z</time></trkpt><trkpt lat="44.5586219" lon="7.9227638"><ele>232.0</ele><time>2026-04-26T11:32:44.346Z</time></trkpt><trkpt lat="44.5588984" lon="7.9228061"><ele>230.5</ele><time>2026-04-26T11:32:45.351Z</time></trkpt><trkpt lat="44.5591715" lon="7.9228483"><ele>229.0</ele><time>2026-04-26T11:32:46.356Z</time></trkpt><trkpt lat="44.559454" lon="7.9228749"><ele>229.0</ele><time>2026-04-26T11:32:47.34Z</time></trkpt><trkpt lat="44.559734" lon="7.9228901"><ele>229.0</ele><time>2026-04-26T11:32:48.339Z</time></trkpt><trkpt lat="44.5600135" lon="7.922893"><ele>229.0</ele><time>2026-04-26T11:32:49.346Z</time></trkpt><trkpt lat="44.5602917" lon="7.922875"><ele>229.0</ele><time>2026-04-26T11:32:50.346Z</time></trkpt><trkpt lat="44.5605767" lon="7.922848"><ele>229.5</ele><time>2026-04-26T11:32:51.34Z</time></trkpt><trkpt lat="44.5608566" lon="7.9228164"><ele>230.0</ele><time>2026-04-26T11:32:52.365Z</time></trkpt><trkpt lat="44.561138" lon="7.9227703"><ele>230.5</ele><time>2026-04-26T11:32:53.349Z</time></trkpt><trkpt lat="44.5614138" lon="7.9227268"><ele>231.0</ele><time>2026-04-26T11:32:54.343Z</time></trkpt><trkpt lat="44.5616832" lon="7.9226612"><ele>231.0</ele><time>2026-04-26T11:32:55.341Z</time></trkpt><trkpt lat="44.5619474" lon="7.9225872"><ele>231.0</ele><time>2026-04-26T11:32:56.385Z</time></trkpt><trkpt lat="44.5622134" lon="7.9225038"><ele>231.5</ele><time>2026-04-26T11:32:57.355Z</time></trkpt><trkpt lat="44.5624741" lon="7.9224174"><ele>232.0</ele><time>2026-04-26T11:32:58.358Z</time></trkpt><trkpt lat="44.5627237" lon="7.9223245"><ele>232.0</ele><time>2026-04-26T11:32:59.337Z</time></trkpt><trkpt lat="44.5629638" lon="7.9222135"><ele>232.0</ele><time>2026-04-26T11:33:00.355Z</time></trkpt><trkpt lat="44.5632023" lon="7.9220944"><ele>232.0</ele><time>2026-04-26T11:33:01.346Z</time></trkpt><trkpt lat="44.563438" lon="7.9219632"><ele>232.0</ele><time>2026-04-26T11:33:02.359Z</time></trkpt><trkpt lat="44.563674" lon="7.9218182"><ele>232.5</ele><time>2026-04-26T11:33:03.345Z</time></trkpt><trkpt lat="44.5639114" lon="7.9216623"><ele>233.0</ele><time>2026-04-26T11:33:04.343Z</time></trkpt><trkpt lat="44.5641403" lon="7.9215047"><ele>233.0</ele><time>2026-04-26T11:33:05.346Z</time></trkpt><trkpt lat="44.5643661" lon="7.92133"><ele>233.0</ele><time>2026-04-26T11:33:06.343Z</time></trkpt><trkpt lat="44.564587" lon="7.9211547"><ele>234.0</ele><time>2026-04-26T11:33:07.341Z</time></trkpt><trkpt lat="44.5648083" lon="7.9209785"><ele>235.0</ele><time>2026-04-26T11:33:08.345Z</time></trkpt><trkpt lat="44.5650184" lon="7.9208094"><ele>232.66666666666666</ele><time>2026-04-26T11:33:09.336Z</time></trkpt><trkpt lat="44.5652182" lon="7.920653"><ele>230.33333333333331</ele><time>2026-04-26T11:33:10.353Z</time></trkpt><trkpt lat="44.5653774" lon="7.9205263"><ele>228.0</ele><time>2026-04-26T11:33:11.344Z</time></trkpt><trkpt lat="44.5655081" lon="7.9204243"><ele>227.33333333333331</ele><time>2026-04-26T11:33:12.342Z</time></trkpt><trkpt lat="44.5656406" lon="7.9203272"><ele>226.66666666666666</ele><time>2026-04-26T11:33:13.351Z</time></trkpt><trkpt lat="44.5657813" lon="7.9202258"><ele>226.0</ele><time>2026-04-26T11:33:14.338Z</time></trkpt><trkpt lat="44.565936" lon="7.9201182"><ele>225.66666666666666</ele><time>2026-04-26T11:33:15.357Z</time></trkpt><trkpt lat="44.5660913" lon="7.9199953"><ele>225.33333333333331</ele><time>2026-04-26T11:33:16.339Z</time></trkpt><trkpt lat="44.5662509" lon="7.9198595"><ele>225.0</ele><time>2026-04-26T11:33:17.338Z</time></trkpt><trkpt lat="44.5664311" lon="7.919724"><ele>225.66666666666669</ele><time>2026-04-26T11:33:18.347Z</time></trkpt><trkpt lat="44.5666273" lon="7.9195773"><ele>226.33333333333334</ele><time>2026-04-26T11:33:19.343Z</time></trkpt><trkpt lat="44.566827" lon="7.9194281"><ele>227.0</ele><time>2026-04-26T11:33:20.352Z</time></trkpt><trkpt lat="44.5670283" lon="7.9192823"><ele>228.0</ele><time>2026-04-26T11:33:21.342Z</time></trkpt><trkpt lat="44.5672358" lon="7.919138"><ele>229.0</ele><time>2026-04-26T11:33:22.344Z</time></trkpt><trkpt lat="44.5674431" lon="7.9189885"><ele>229.0</ele><time>2026-04-26T11:33:23.331Z</time></trkpt><trkpt lat="44.5676413" lon="7.9188356"><ele>229.0</ele><time>2026-04-26T11:33:24.341Z</time></trkpt><trkpt lat="44.5678246" lon="7.9186939"><ele>229.0</ele><time>2026-04-26T11:33:25.342Z</time></trkpt><trkpt lat="44.5679947" lon="7.9185641"><ele>228.33333333333331</ele><time>2026-04-26T11:33:26.345Z</time></trkpt><trkpt lat="44.5681606" lon="7.9184327"><ele>227.66666666666669</ele><time>2026-04-26T11:33:27.337Z</time></trkpt><trkpt lat="44.5683239" lon="7.9183053"><ele>227.0</ele><time>2026-04-26T11:33:28.349Z</time></trkpt><trkpt lat="44.568485" lon="7.9181745"><ele>227.0</ele><time>2026-04-26T11:33:29.346Z</time></trkpt><trkpt lat="44.5686292" lon="7.9180467"><ele>227.0</ele><time>2026-04-26T11:33:30.336Z</time></trkpt><trkpt lat="44.568752" lon="7.9179192"><ele>227.0</ele><time>2026-04-26T11:33:31.34Z</time></trkpt><trkpt lat="44.568864" lon="7.9178083"><ele>226.25</ele><time>2026-04-26T11:33:32.346Z</time></trkpt><trkpt lat="44.5689535" lon="7.9177007"><ele>225.5</ele><time>2026-04-26T11:33:33.35Z</time></trkpt><trkpt lat="44.5690459" lon="7.9176274"><ele>224.75</ele><time>2026-04-26T11:33:34.343Z</time></trkpt><trkpt lat="44.5691453" lon="7.9175713"><ele>224.0</ele><time>2026-04-26T11:33:35.343Z</time></trkpt><trkpt lat="44.5692831" lon="7.9175252"><ele>224.0</ele><time>2026-04-26T11:33:36.34Z</time></trkpt><trkpt lat="44.5694525" lon="7.9175358"><ele>224.0</ele><time>2026-04-26T11:33:37.338Z</time></trkpt><trkpt lat="44.5696549" lon="7.9175488"><ele>224.0</ele><time>2026-04-26T11:33:38.349Z</time></trkpt><trkpt lat="44.5698795" lon="7.9175462"><ele>224.66666666666669</ele><time>2026-04-26T11:33:39.356Z</time></trkpt><trkpt lat="44.5701025" lon="7.9175334"><ele>225.33333333333331</ele><time>2026-04-26T11:33:40.346Z</time></trkpt><trkpt lat="44.5703252" lon="7.9175069"><ele>226.0</ele><time>2026-04-26T11:33:41.337Z</time></trkpt><trkpt lat="44.5705465" lon="7.9174521"><ele>227.0</ele><time>2026-04-26T11:33:42.353Z</time></trkpt><trkpt lat="44.570773" lon="7.9173972"><ele>228.0</ele><time>2026-04-26T11:33:43.35Z</time></trkpt><trkpt lat="44.571006" lon="7.9173465"><ele>229.0</ele><time>2026-04-26T11:33:44.336Z</time></trkpt><trkpt lat="44.5712284" lon="7.9173161"><ele>230.0</ele><time>2026-04-26T11:33:45.34Z</time></trkpt><trkpt lat="44.5714431" lon="7.9172995"><ele>231.0</ele><time>2026-04-26T11:33:46.342Z</time></trkpt><trkpt lat="44.5716242" lon="7.9172815"><ele>231.0</ele><time>2026-04-26T11:33:47.336Z</time></trkpt><trkpt lat="44.571783" lon="7.9172793"><ele>231.0</ele><time>2026-04-26T11:33:48.337Z</time></trkpt><trkpt lat="44.5719145" lon="7.9172601"><ele>231.0</ele><time>2026-04-26T11:33:49.34Z</time></trkpt><trkpt lat="44.5720478" lon="7.917233"><ele>231.0</ele><time>2026-04-26T11:33:50.342Z</time></trkpt><trkpt lat="44.5721819" lon="7.9172125"><ele>231.33333333333331</ele><time>2026-04-26T11:33:51.337Z</time></trkpt><trkpt lat="44.5723313" lon="7.9171876"><ele>231.66666666666666</ele><time>2026-04-26T11:33:52.339Z</time></trkpt><trkpt lat="44.5724746" lon="7.9171398"><ele>232.0</ele><time>2026-04-26T11:33:53.336Z</time></trkpt><trkpt lat="44.5726347" lon="7.9170971"><ele>232.0</ele><time>2026-04-26T11:33:54.348Z</time></trkpt><trkpt lat="44.572796" lon="7.9170476"><ele>232.0</ele><time>2026-04-26T11:33:55.345Z</time></trkpt><trkpt lat="44.5729559" lon="7.9170078"><ele>232.0</ele><time>2026-04-26T11:33:56.356Z</time></trkpt><trkpt lat="44.5731256" lon="7.9169584"><ele>232.0</ele><time>2026-04-26T11:33:57.351Z</time></trkpt><trkpt lat="44.5733084" lon="7.9169184"><ele>232.0</ele><time>2026-04-26T11:33:58.336Z</time></trkpt><trkpt lat="44.5734999" lon="7.9168909"><ele>232.0</ele><time>2026-04-26T11:33:59.342Z</time></trkpt><trkpt lat="44.573691" lon="7.9168476"><ele>232.33333333333331</ele><time>2026-04-26T11:34:00.333Z</time></trkpt><trkpt lat="44.5738836" lon="7.9168099"><ele>232.66666666666669</ele><time>2026-04-26T11:34:01.34Z</time></trkpt><trkpt lat="44.574076" lon="7.9167707"><ele>233.0</ele><time>2026-04-26T11:34:02.338Z</time></trkpt><trkpt lat="44.574267" lon="7.916731"><ele>231.0</ele><time>2026-04-26T11:34:03.337Z</time></trkpt><trkpt lat="44.5744634" lon="7.9166897"><ele>229.0</ele><time>2026-04-26T11:34:04.347Z</time></trkpt><trkpt lat="44.5746563" lon="7.9166503"><ele>227.0</ele><time>2026-04-26T11:34:05.345Z</time></trkpt><trkpt lat="44.5748452" lon="7.9166157"><ele>227.0</ele><time>2026-04-26T11:34:06.34Z</time></trkpt><trkpt lat="44.5750272" lon="7.9165563"><ele>227.0</ele><time>2026-04-26T11:34:07.338Z</time></trkpt><trkpt lat="44.5752111" lon="7.9164427"><ele>227.0</ele><time>2026-04-26T11:34:08.347Z</time></trkpt><trkpt lat="44.5753782" lon="7.9162831"><ele>228.0</ele><time>2026-04-26T11:34:09.359Z</time></trkpt><trkpt lat="44.5755224" lon="7.9160726"><ele>229.0</ele><time>2026-04-26T11:34:10.358Z</time></trkpt><trkpt lat="44.5756788" lon="7.9158705"><ele>230.0</ele><time>2026-04-26T11:34:11.336Z</time></trkpt><trkpt lat="44.5758314" lon="7.9156671"><ele>230.0</ele><time>2026-04-26T11:34:12.361Z</time></trkpt><trkpt lat="44.5759863" lon="7.9154753"><ele>230.0</ele><time>2026-04-26T11:34:13.341Z</time></trkpt><trkpt lat="44.5761419" lon="7.9152825"><ele>230.0</ele><time>2026-04-26T11:34:14.34Z</time></trkpt><trkpt lat="44.5762882" lon="7.9151009"><ele>230.25</ele><time>2026-04-26T11:34:15.337Z</time></trkpt><trkpt lat="44.576428" lon="7.9149335"><ele>230.5</ele><time>2026-04-26T11:34:16.35Z</time></trkpt><trkpt lat="44.5765394" lon="7.9148035"><ele>230.75</ele><time>2026-04-26T11:34:17.35Z</time></trkpt><trkpt lat="44.576626" lon="7.9146888"><ele>231.0</ele><time>2026-04-26T11:34:18.351Z</time></trkpt><trkpt lat="44.5767118" lon="7.914587"><ele>231.0</ele><time>2026-04-26T11:34:19.342Z</time></trkpt><trkpt lat="44.5768038" lon="7.9144598"><ele>231.0</ele><time>2026-04-26T11:34:20.364Z</time></trkpt><trkpt lat="44.5769281" lon="7.9143011"><ele>231.0</ele><time>2026-04-26T11:34:21.344Z</time></trkpt><trkpt lat="44.577064" lon="7.9141347"><ele>232.0</ele><time>2026-04-26T11:34:22.34Z</time></trkpt><trkpt lat="44.5772059" lon="7.9139572"><ele>233.0</ele><time>2026-04-26T11:34:23.343Z</time></trkpt><trkpt lat="44.5773452" lon="7.9137937"><ele>234.0</ele><time>2026-04-26T11:34:24.342Z</time></trkpt><trkpt lat="44.5774653" lon="7.913635"><ele>234.0</ele><time>2026-04-26T11:34:25.357Z</time></trkpt><trkpt lat="44.5775931" lon="7.9134767"><ele>234.0</ele><time>2026-04-26T11:34:26.364Z</time></trkpt><trkpt lat="44.5777246" lon="7.9133135"><ele>234.0</ele><time>2026-04-26T11:34:27.388Z</time></trkpt><trkpt lat="44.5778591" lon="7.9131493"><ele>234.0</ele><time>2026-04-26T11:34:28.339Z</time></trkpt><trkpt lat="44.5779965" lon="7.9129917"><ele>234.0</ele><time>2026-04-26T11:34:29.351Z</time></trkpt><trkpt lat="44.5781428" lon="7.9128219"><ele>234.0</ele><time>2026-04-26T11:34:30.354Z</time></trkpt><trkpt lat="44.5782831" lon="7.9126597"><ele>233.33333333333331</ele><time>2026-04-26T11:34:31.356Z</time></trkpt><trkpt lat="44.5784167" lon="7.9125002"><ele>232.66666666666666</ele><time>2026-04-26T11:34:32.334Z</time></trkpt><trkpt lat="44.5785527" lon="7.9123301"><ele>232.0</ele><time>2026-04-26T11:34:33.335Z</time></trkpt><trkpt lat="44.578699" lon="7.9121496"><ele>232.0</ele><time>2026-04-26T11:34:34.335Z</time></trkpt><trkpt lat="44.5788443" lon="7.9119541"><ele>232.0</ele><time>2026-04-26T11:34:35.345Z</time></trkpt><trkpt lat="44.5789978" lon="7.9117509"><ele>232.0</ele><time>2026-04-26T11:34:36.346Z</time></trkpt><trkpt lat="44.5791526" lon="7.9115452"><ele>231.66666666666666</ele><time>2026-04-26T11:34:37.351Z</time></trkpt><trkpt lat="44.579313" lon="7.9113398"><ele>231.33333333333331</ele><time>2026-04-26T11:34:38.339Z</time></trkpt><trkpt lat="44.5794754" lon="7.9111343"><ele>231.0</ele><time>2026-04-26T11:34:39.357Z</time></trkpt><trkpt lat="44.5796502" lon="7.9109197"><ele>229.0</ele><time>2026-04-26T11:34:40.343Z</time></trkpt><trkpt lat="44.5798289" lon="7.9106965"><ele>227.0</ele><time>2026-04-26T11:34:41.344Z</time></trkpt><trkpt lat="44.5800056" lon="7.9104758"><ele>227.0</ele><time>2026-04-26T11:34:42.339Z</time></trkpt><trkpt lat="44.5801706" lon="7.9102797"><ele>227.0</ele><time>2026-04-26T11:34:43.339Z</time></trkpt><trkpt lat="44.5803156" lon="7.9101015"><ele>227.0</ele><time>2026-04-26T11:34:44.333Z</time></trkpt><trkpt lat="44.5804456" lon="7.9099391"><ele>226.75</ele><time>2026-04-26T11:34:45.339Z</time></trkpt><trkpt lat="44.5805629" lon="7.909777"><ele>226.5</ele><time>2026-04-26T11:34:46.337Z</time></trkpt><trkpt lat="44.5806378" lon="7.909625"><ele>226.25</ele><time>2026-04-26T11:34:47.35Z</time></trkpt><trkpt lat="44.5806923" lon="7.9094669"><ele>226.0</ele><time>2026-04-26T11:34:48.345Z</time></trkpt><trkpt lat="44.5807404" lon="7.9093223"><ele>225.83333333333331</ele><time>2026-04-26T11:34:49.344Z</time></trkpt><trkpt lat="44.5808173" lon="7.9092285"><ele>225.66666666666666</ele><time>2026-04-26T11:34:50.353Z</time></trkpt><trkpt lat="44.5809037" lon="7.9091611"><ele>225.5</ele><time>2026-04-26T11:34:51.333Z</time></trkpt><trkpt lat="44.5809903" lon="7.9090859"><ele>225.33333333333331</ele><time>2026-04-26T11:34:52.337Z</time></trkpt><trkpt lat="44.5810436" lon="7.9090092"><ele>225.16666666666666</ele><time>2026-04-26T11:34:53.353Z</time></trkpt><trkpt lat="44.5810721" lon="7.9089253"><ele>225.0</ele><time>2026-04-26T11:34:54.34Z</time></trkpt><trkpt lat="44.5810934" lon="7.9088356"><ele>225.0</ele><time>2026-04-26T11:34:55.339Z</time></trkpt><trkpt lat="44.5811246" lon="7.9087338"><ele>225.0</ele><time>2026-04-26T11:34:56.336Z</time></trkpt><trkpt lat="44.5811733" lon="7.9086298"><ele>225.0</ele><time>2026-04-26T11:34:57.341Z</time></trkpt><trkpt lat="44.5812428" lon="7.9085323"><ele>225.0</ele><time>2026-04-26T11:34:58.339Z</time></trkpt><trkpt lat="44.5813278" lon="7.908428"><ele>225.0</ele><time>2026-04-26T11:34:59.347Z</time></trkpt><trkpt lat="44.5814258" lon="7.9083024"><ele>224.33333333333331</ele><time>2026-04-26T11:35:00.337Z</time></trkpt><trkpt lat="44.5815393" lon="7.9081627"><ele>223.66666666666666</ele><time>2026-04-26T11:35:01.328Z</time></trkpt><trkpt lat="44.5816597" lon="7.9080101"><ele>223.0</ele><time>2026-04-26T11:35:02.341Z</time></trkpt><trkpt lat="44.5817792" lon="7.9078293"><ele>223.0</ele><time>2026-04-26T11:35:03.348Z</time></trkpt><trkpt lat="44.5819101" lon="7.9076347"><ele>223.0</ele><time>2026-04-26T11:35:04.336Z</time></trkpt><trkpt lat="44.5820479" lon="7.9074076"><ele>223.0</ele><time>2026-04-26T11:35:05.331Z</time></trkpt><trkpt lat="44.5821855" lon="7.9071586"><ele>223.5</ele><time>2026-04-26T11:35:06.356Z</time></trkpt><trkpt lat="44.5823303" lon="7.9068962"><ele>224.0</ele><time>2026-04-26T11:35:07.336Z</time></trkpt><trkpt lat="44.5824797" lon="7.9066305"><ele>224.0</ele><time>2026-04-26T11:35:08.344Z</time></trkpt><trkpt lat="44.5826393" lon="7.9063492"><ele>224.0</ele><time>2026-04-26T11:35:09.339Z</time></trkpt><trkpt lat="44.582802" lon="7.9060616"><ele>225.0</ele><time>2026-04-26T11:35:10.335Z</time></trkpt><trkpt lat="44.5829555" lon="7.9057747"><ele>226.0</ele><time>2026-04-26T11:35:11.355Z</time></trkpt><trkpt lat="44.5831071" lon="7.905483"><ele>226.0</ele><time>2026-04-26T11:35:12.339Z</time></trkpt><trkpt lat="44.5832659" lon="7.9051862"><ele>226.0</ele><time>2026-04-26T11:35:13.348Z</time></trkpt><trkpt lat="44.5834296" lon="7.904889"><ele>225.5</ele><time>2026-04-26T11:35:14.348Z</time></trkpt><trkpt lat="44.5835871" lon="7.9045919"><ele>225.0</ele><time>2026-04-26T11:35:15.345Z</time></trkpt><trkpt lat="44.5837381" lon="7.9043044"><ele>227.5</ele><time>2026-04-26T11:35:16.346Z</time></trkpt><trkpt lat="44.5838822" lon="7.9040143"><ele>230.0</ele><time>2026-04-26T11:35:17.345Z</time></trkpt><trkpt lat="44.5840187" lon="7.9037174"><ele>230.0</ele><time>2026-04-26T11:35:18.353Z</time></trkpt><trkpt lat="44.584165" lon="7.9034178"><ele>230.0</ele><time>2026-04-26T11:35:19.342Z</time></trkpt><trkpt lat="44.584317" lon="7.9031294"><ele>230.5</ele><time>2026-04-26T11:35:20.354Z</time></trkpt><trkpt lat="44.5844713" lon="7.9028568"><ele>231.0</ele><time>2026-04-26T11:35:21.367Z</time></trkpt><trkpt lat="44.5846236" lon="7.9025831"><ele>230.5</ele><time>2026-04-26T11:35:22.342Z</time></trkpt><trkpt lat="44.5847778" lon="7.9023074"><ele>230.0</ele><time>2026-04-26T11:35:23.355Z</time></trkpt><trkpt lat="44.5849356" lon="7.9020353"><ele>230.0</ele><time>2026-04-26T11:35:24.348Z</time></trkpt><trkpt lat="44.5850989" lon="7.9017499"><ele>230.0</ele><time>2026-04-26T11:35:25.342Z</time></trkpt><trkpt lat="44.5852696" lon="7.9014665"><ele>228.5</ele><time>2026-04-26T11:35:26.355Z</time></trkpt><trkpt lat="44.5854419" lon="7.9011825"><ele>227.0</ele><time>2026-04-26T11:35:27.37Z</time></trkpt><trkpt lat="44.5856187" lon="7.9008828"><ele>226.0</ele><time>2026-04-26T11:35:28.35Z</time></trkpt><trkpt lat="44.5857931" lon="7.9005807"><ele>225.0</ele><time>2026-04-26T11:35:29.351Z</time></trkpt><trkpt lat="44.5859668" lon="7.9002639"><ele>224.0</ele><time>2026-04-26T11:35:30.33Z</time></trkpt><trkpt lat="44.5861428" lon="7.8999373"><ele>223.0</ele><time>2026-04-26T11:35:31.355Z</time></trkpt><trkpt lat="44.5863208" lon="7.8996092"><ele>222.0</ele><time>2026-04-26T11:35:32.347Z</time></trkpt><trkpt lat="44.5865028" lon="7.8992805"><ele>221.0</ele><time>2026-04-26T11:35:33.348Z</time></trkpt><trkpt lat="44.5866903" lon="7.8989438"><ele>221.0</ele><time>2026-04-26T11:35:34.344Z</time></trkpt><trkpt lat="44.5868772" lon="7.8986036"><ele>221.0</ele><time>2026-04-26T11:35:35.341Z</time></trkpt><trkpt lat="44.5870608" lon="7.8982638"><ele>221.0</ele><time>2026-04-26T11:35:36.342Z</time></trkpt><trkpt lat="44.5872465" lon="7.8979354"><ele>221.0</ele><time>2026-04-26T11:35:37.347Z</time></trkpt><trkpt lat="44.5874244" lon="7.8976213"><ele>220.5</ele><time>2026-04-26T11:35:38.351Z</time></trkpt><trkpt lat="44.5876032" lon="7.8973079"><ele>220.0</ele><time>2026-04-26T11:35:39.367Z</time></trkpt><trkpt lat="44.5877801" lon="7.8970009"><ele>220.5</ele><time>2026-04-26T11:35:40.356Z</time></trkpt><trkpt lat="44.5879528" lon="7.896691"><ele>221.0</ele><time>2026-04-26T11:35:41.359Z</time></trkpt><trkpt lat="44.5881269" lon="7.8963883"><ele>221.0</ele><time>2026-04-26T11:35:42.336Z</time></trkpt><trkpt lat="44.5883043" lon="7.8960982"><ele>221.0</ele><time>2026-04-26T11:35:43.353Z</time></trkpt><trkpt lat="44.5884947" lon="7.8958171"><ele>219.5</ele><time>2026-04-26T11:35:44.348Z</time></trkpt><trkpt lat="44.5886977" lon="7.895567"><ele>218.0</ele><time>2026-04-26T11:35:45.367Z</time></trkpt><trkpt lat="44.5889151" lon="7.8953315"><ele>218.0</ele><time>2026-04-26T11:35:46.342Z</time></trkpt><trkpt lat="44.5891407" lon="7.8951172"><ele>218.0</ele><time>2026-04-26T11:35:47.365Z</time></trkpt><trkpt lat="44.5893741" lon="7.8949212"><ele>217.5</ele><time>2026-04-26T11:35:48.342Z</time></trkpt><trkpt lat="44.5896143" lon="7.8947627"><ele>217.0</ele><time>2026-04-26T11:35:49.35Z</time></trkpt><trkpt lat="44.5898626" lon="7.8946432"><ele>217.0</ele><time>2026-04-26T11:35:50.357Z</time></trkpt><trkpt lat="44.5901179" lon="7.8945227"><ele>217.0</ele><time>2026-04-26T11:35:51.348Z</time></trkpt><trkpt lat="44.5903857" lon="7.8944215"><ele>217.0</ele><time>2026-04-26T11:35:52.339Z</time></trkpt><trkpt lat="44.5906478" lon="7.8943476"><ele>217.0</ele><time>2026-04-26T11:35:53.351Z</time></trkpt><trkpt lat="44.5909143" lon="7.8942812"><ele>217.0</ele><time>2026-04-26T11:35:54.345Z</time></trkpt><trkpt lat="44.5911816" lon="7.8942207"><ele>217.0</ele><time>2026-04-26T11:35:55.345Z</time></trkpt><trkpt lat="44.5914522" lon="7.8941465"><ele>217.0</ele><time>2026-04-26T11:35:56.342Z</time></trkpt><trkpt lat="44.5917137" lon="7.8940798"><ele>217.0</ele><time>2026-04-26T11:35:57.34Z</time></trkpt><trkpt lat="44.5919609" lon="7.8940236"><ele>216.5</ele><time>2026-04-26T11:35:58.341Z</time></trkpt><trkpt lat="44.5922008" lon="7.8939671"><ele>216.0</ele><time>2026-04-26T11:35:59.348Z</time></trkpt><trkpt lat="44.5924354" lon="7.893931"><ele>216.0</ele><time>2026-04-26T11:36:00.345Z</time></trkpt><trkpt lat="44.5926722" lon="7.8939334"><ele>216.0</ele><time>2026-04-26T11:36:01.339Z</time></trkpt><trkpt lat="44.5929043" lon="7.8939625"><ele>216.5</ele><time>2026-04-26T11:36:02.352Z</time></trkpt><trkpt lat="44.5931412" lon="7.8940197"><ele>217.0</ele><time>2026-04-26T11:36:03.345Z</time></trkpt><trkpt lat="44.5933741" lon="7.8940865"><ele>217.0</ele><time>2026-04-26T11:36:04.339Z</time></trkpt><trkpt lat="44.593594" lon="7.8941353"><ele>217.0</ele><time>2026-04-26T11:36:05.362Z</time></trkpt><trkpt lat="44.5938156" lon="7.8941149"><ele>217.0</ele><time>2026-04-26T11:36:06.348Z</time></trkpt><trkpt lat="44.5940371" lon="7.8940679"><ele>216.0</ele><time>2026-04-26T11:36:07.353Z</time></trkpt><trkpt lat="44.5942507" lon="7.893955"><ele>215.0</ele><time>2026-04-26T11:36:08.339Z</time></trkpt><trkpt lat="44.5944592" lon="7.8938499"><ele>216.66666666666669</ele><time>2026-04-26T11:36:09.346Z</time></trkpt><trkpt lat="44.5946583" lon="7.8937417"><ele>218.33333333333331</ele><time>2026-04-26T11:36:10.345Z</time></trkpt><trkpt lat="44.59484" lon="7.8936509"><ele>220.0</ele><time>2026-04-26T11:36:11.354Z</time></trkpt><trkpt lat="44.5950069" lon="7.8935708"><ele>220.0</ele><time>2026-04-26T11:36:12.345Z</time></trkpt><trkpt lat="44.5951637" lon="7.8934862"><ele>220.0</ele><time>2026-04-26T11:36:13.34Z</time></trkpt><trkpt lat="44.5953073" lon="7.893425"><ele>220.0</ele><time>2026-04-26T11:36:14.338Z</time></trkpt><trkpt lat="44.5954603" lon="7.8933935"><ele>220.66666666666666</ele><time>2026-04-26T11:36:15.34Z</time></trkpt><trkpt lat="44.5956277" lon="7.8933846"><ele>221.33333333333331</ele><time>2026-04-26T11:36:16.337Z</time></trkpt><trkpt lat="44.5957934" lon="7.8933916"><ele>222.0</ele><time>2026-04-26T11:36:17.346Z</time></trkpt><trkpt lat="44.5959532" lon="7.893389"><ele>222.0</ele><time>2026-04-26T11:36:18.344Z</time></trkpt><trkpt lat="44.5960899" lon="7.8933761"><ele>222.0</ele><time>2026-04-26T11:36:19.355Z</time></trkpt><trkpt lat="44.5962277" lon="7.8933447"><ele>222.0</ele><time>2026-04-26T11:36:20.337Z</time></trkpt><trkpt lat="44.5963658" lon="7.8932895"><ele>222.0</ele><time>2026-04-26T11:36:21.343Z</time></trkpt><trkpt lat="44.5964899" lon="7.8932029"><ele>223.0</ele><time>2026-04-26T11:36:22.336Z</time></trkpt><trkpt lat="44.5966056" lon="7.893086"><ele>224.0</ele><time>2026-04-26T11:36:23.337Z</time></trkpt><trkpt lat="44.5967162" lon="7.8929615"><ele>225.0</ele><time>2026-04-26T11:36:24.347Z</time></trkpt><trkpt lat="44.5968053" lon="7.8928288"><ele>226.0</ele><time>2026-04-26T11:36:25.345Z</time></trkpt><trkpt lat="44.5968807" lon="7.8926855"><ele>226.0</ele><time>2026-04-26T11:36:26.342Z</time></trkpt><trkpt lat="44.596942" lon="7.8925439"><ele>226.00000000000003</ele><time>2026-04-26T11:36:27.345Z</time></trkpt><trkpt lat="44.5969935" lon="7.892405"><ele>226.00000000000003</ele><time>2026-04-26T11:36:28.346Z</time></trkpt><trkpt lat="44.5970412" lon="7.892286"><ele>226.0</ele><time>2026-04-26T11:36:29.343Z</time></trkpt><trkpt lat="44.5970988" lon="7.8921852"><ele>226.0</ele><time>2026-04-26T11:36:30.348Z</time></trkpt><trkpt lat="44.5971598" lon="7.8920961"><ele>226.0</ele><time>2026-04-26T11:36:31.344Z</time></trkpt><trkpt lat="44.5972389" lon="7.8920253"><ele>226.0</ele><time>2026-04-26T11:36:32.336Z</time></trkpt><trkpt lat="44.5973456" lon="7.8919666"><ele>226.0</ele><time>2026-04-26T11:36:33.35Z</time></trkpt><trkpt lat="44.5974702" lon="7.8919427"><ele>226.0</ele><time>2026-04-26T11:36:34.341Z</time></trkpt><trkpt lat="44.5976016" lon="7.8919477"><ele>226.0</ele><time>2026-04-26T11:36:35.356Z</time></trkpt><trkpt lat="44.5977258" lon="7.8919888"><ele>226.0</ele><time>2026-04-26T11:36:36.343Z</time></trkpt><trkpt lat="44.5978528" lon="7.8920471"><ele>226.0</ele><time>2026-04-26T11:36:37.353Z</time></trkpt><trkpt lat="44.5979884" lon="7.8921046"><ele>226.0</ele><time>2026-04-26T11:36:38.355Z</time></trkpt><trkpt lat="44.5981322" lon="7.8921706"><ele>226.33333333333331</ele><time>2026-04-26T11:36:39.338Z</time></trkpt><trkpt lat="44.598283" lon="7.8922248"><ele>226.66666666666669</ele><time>2026-04-26T11:36:40.346Z</time></trkpt><trkpt lat="44.5984469" lon="7.8922556"><ele>227.0</ele><time>2026-04-26T11:36:41.354Z</time></trkpt><trkpt lat="44.5986152" lon="7.8922408"><ele>228.0</ele><time>2026-04-26T11:36:42.357Z</time></trkpt><trkpt lat="44.5987899" lon="7.8922038"><ele>229.0</ele><time>2026-04-26T11:36:43.35Z</time></trkpt><trkpt lat="44.5989917" lon="7.8921214"><ele>230.0</ele><time>2026-04-26T11:36:44.356Z</time></trkpt><trkpt lat="44.5992414" lon="7.8920028"><ele>232.0</ele><time>2026-04-26T11:36:45.36Z</time></trkpt><trkpt lat="44.599523" lon="7.8918853"><ele>234.0</ele><time>2026-04-26T11:36:46.35Z</time></trkpt><trkpt lat="44.5998006" lon="7.8917819"><ele>231.5</ele><time>2026-04-26T11:36:47.338Z</time></trkpt><trkpt lat="44.600066" lon="7.8916907"><ele>229.0</ele><time>2026-04-26T11:36:48.351Z</time></trkpt><trkpt lat="44.6003232" lon="7.891601"><ele>229.5</ele><time>2026-04-26T11:36:49.354Z</time></trkpt><trkpt lat="44.6005641" lon="7.8915065"><ele>230.0</ele><time>2026-04-26T11:36:50.342Z</time></trkpt><trkpt lat="44.600806" lon="7.8914184"><ele>230.0</ele><time>2026-04-26T11:36:51.347Z</time></trkpt><trkpt lat="44.6010484" lon="7.8913134"><ele>230.0</ele><time>2026-04-26T11:36:52.338Z</time></trkpt><trkpt lat="44.6012856" lon="7.8912032"><ele>231.5</ele><time>2026-04-26T11:36:53.349Z</time></trkpt><trkpt lat="44.6015084" lon="7.8910635"><ele>233.0</ele><time>2026-04-26T11:36:54.358Z</time></trkpt><trkpt lat="44.6017185" lon="7.8908989"><ele>232.5</ele><time>2026-04-26T11:36:55.35Z</time></trkpt><trkpt lat="44.6019401" lon="7.8907025"><ele>232.0</ele><time>2026-04-26T11:36:56.348Z</time></trkpt><trkpt lat="44.6021549" lon="7.8905039"><ele>232.0</ele><time>2026-04-26T11:36:57.348Z</time></trkpt><trkpt lat="44.6023755" lon="7.8903062"><ele>232.0</ele><time>2026-04-26T11:36:58.342Z</time></trkpt><trkpt lat="44.6026039" lon="7.8900963"><ele>232.5</ele><time>2026-04-26T11:36:59.351Z</time></trkpt><trkpt lat="44.6028319" lon="7.8898911"><ele>233.0</ele><time>2026-04-26T11:37:00.342Z</time></trkpt><trkpt lat="44.6030536" lon="7.8896885"><ele>233.0</ele><time>2026-04-26T11:37:01.344Z</time></trkpt><trkpt lat="44.6032753" lon="7.8894851"><ele>233.0</ele><time>2026-04-26T11:37:02.344Z</time></trkpt><trkpt lat="44.6034968" lon="7.8892881"><ele>233.5</ele><time>2026-04-26T11:37:03.343Z</time></trkpt><trkpt lat="44.6037237" lon="7.8890866"><ele>234.0</ele><time>2026-04-26T11:37:04.342Z</time></trkpt><trkpt lat="44.6039458" lon="7.8888784"><ele>234.0</ele><time>2026-04-26T11:37:05.345Z</time></trkpt><trkpt lat="44.60417" lon="7.8886743"><ele>234.0</ele><time>2026-04-26T11:37:06.347Z</time></trkpt><trkpt lat="44.6043921" lon="7.8884696"><ele>232.5</ele><time>2026-04-26T11:37:07.341Z</time></trkpt><trkpt lat="44.6046149" lon="7.8882695"><ele>231.0</ele><time>2026-04-26T11:37:08.352Z</time></trkpt><trkpt lat="44.6048387" lon="7.8880665"><ele>231.0</ele><time>2026-04-26T11:37:09.352Z</time></trkpt><trkpt lat="44.6050646" lon="7.8878587"><ele>231.0</ele><time>2026-04-26T11:37:10.348Z</time></trkpt><trkpt lat="44.6052892" lon="7.8876488"><ele>229.5</ele><time>2026-04-26T11:37:11.339Z</time></trkpt><trkpt lat="44.605517" lon="7.8874472"><ele>228.0</ele><time>2026-04-26T11:37:12.344Z</time></trkpt><trkpt lat="44.6057418" lon="7.8872467"><ele>228.0</ele><time>2026-04-26T11:37:13.341Z</time></trkpt><trkpt lat="44.6059794" lon="7.8870529"><ele>228.0</ele><time>2026-04-26T11:37:14.352Z</time></trkpt><trkpt lat="44.6062233" lon="7.8868743"><ele>226.0</ele><time>2026-04-26T11:37:15.344Z</time></trkpt><trkpt lat="44.6064743" lon="7.8867111"><ele>224.0</ele><time>2026-04-26T11:37:16.347Z</time></trkpt><trkpt lat="44.6067371" lon="7.886548"><ele>223.0</ele><time>2026-04-26T11:37:17.346Z</time></trkpt><trkpt lat="44.6070029" lon="7.886389"><ele>222.0</ele><time>2026-04-26T11:37:18.342Z</time></trkpt><trkpt lat="44.6072793" lon="7.8862418"><ele>222.0</ele><time>2026-04-26T11:37:19.343Z</time></trkpt><trkpt lat="44.6075515" lon="7.8860921"><ele>222.0</ele><time>2026-04-26T11:37:20.346Z</time></trkpt><trkpt lat="44.6078257" lon="7.8859389"><ele>221.5</ele><time>2026-04-26T11:37:21.349Z</time></trkpt><trkpt lat="44.6081013" lon="7.8857923"><ele>221.0</ele><time>2026-04-26T11:37:22.337Z</time></trkpt><trkpt lat="44.6083734" lon="7.8856415"><ele>220.5</ele><time>2026-04-26T11:37:23.358Z</time></trkpt><trkpt lat="44.6086595" lon="7.8854948"><ele>220.0</ele><time>2026-04-26T11:37:24.339Z</time></trkpt><trkpt lat="44.6089493" lon="7.8853459"><ele>220.0</ele><time>2026-04-26T11:37:25.368Z</time></trkpt><trkpt lat="44.6092413" lon="7.8851955"><ele>220.0</ele><time>2026-04-26T11:37:26.349Z</time></trkpt><trkpt lat="44.6095315" lon="7.88504"><ele>217.5</ele><time>2026-04-26T11:37:27.34Z</time></trkpt><trkpt lat="44.6098266" lon="7.8848821"><ele>215.0</ele><time>2026-04-26T11:37:28.342Z</time></trkpt><trkpt lat="44.610124" lon="7.8847233"><ele>212.0</ele><time>2026-04-26T11:37:29.346Z</time></trkpt><trkpt lat="44.610421" lon="7.8845707"><ele>209.0</ele><time>2026-04-26T11:37:30.335Z</time></trkpt><trkpt lat="44.61072" lon="7.884413"><ele>207.5</ele><time>2026-04-26T11:37:31.358Z</time></trkpt><trkpt lat="44.6110142" lon="7.8842582"><ele>206.0</ele><time>2026-04-26T11:37:32.345Z</time></trkpt><trkpt lat="44.6113117" lon="7.8841017"><ele>205.0</ele><time>2026-04-26T11:37:33.349Z</time></trkpt><trkpt lat="44.6116122" lon="7.8839372"><ele>204.0</ele><time>2026-04-26T11:37:34.352Z</time></trkpt><trkpt lat="44.6119043" lon="7.8837742"><ele>204.5</ele><time>2026-04-26T11:37:35.358Z</time></trkpt><trkpt lat="44.6121981" lon="7.8836204"><ele>205.0</ele><time>2026-04-26T11:37:36.337Z</time></trkpt><trkpt lat="44.6124868" lon="7.8834667"><ele>205.0</ele><time>2026-04-26T11:37:37.359Z</time></trkpt><trkpt lat="44.6127756" lon="7.8833126"><ele>205.0</ele><time>2026-04-26T11:37:38.352Z</time></trkpt><trkpt lat="44.6130596" lon="7.8831547"><ele>205.0</ele><time>2026-04-26T11:37:39.349Z</time></trkpt><trkpt lat="44.6133471" lon="7.8830013"><ele>205.0</ele><time>2026-04-26T11:37:40.345Z</time></trkpt><trkpt lat="44.6136314" lon="7.8828468"><ele>204.5</ele><time>2026-04-26T11:37:41.343Z</time></trkpt><trkpt lat="44.6139145" lon="7.8826906"><ele>204.0</ele><time>2026-04-26T11:37:42.339Z</time></trkpt><trkpt lat="44.6141969" lon="7.8825296"><ele>203.0</ele><time>2026-04-26T11:37:43.373Z</time></trkpt><trkpt lat="44.6144843" lon="7.8823763"><ele>202.0</ele><time>2026-04-26T11:37:44.346Z</time></trkpt><trkpt lat="44.6147703" lon="7.8822156"><ele>202.5</ele><time>2026-04-26T11:37:45.365Z</time></trkpt><trkpt lat="44.6150598" lon="7.8820572"><ele>203.0</ele><time>2026-04-26T11:37:46.347Z</time></trkpt><trkpt lat="44.6153498" lon="7.8818987"><ele>204.0</ele><time>2026-04-26T11:37:47.35Z</time></trkpt><trkpt lat="44.6156365" lon="7.8817428"><ele>205.0</ele><time>2026-04-26T11:37:48.343Z</time></trkpt><trkpt lat="44.6159231" lon="7.8815859"><ele>205.5</ele><time>2026-04-26T11:37:49.349Z</time></trkpt><trkpt lat="44.6162126" lon="7.8814354"><ele>206.0</ele><time>2026-04-26T11:37:50.337Z</time></trkpt><trkpt lat="44.6165025" lon="7.8812873"><ele>206.0</ele><time>2026-04-26T11:37:51.362Z</time></trkpt><trkpt lat="44.6167909" lon="7.8811359"><ele>206.0</ele><time>2026-04-26T11:37:52.348Z</time></trkpt><trkpt lat="44.6170798" lon="7.8809785"><ele>204.5</ele><time>2026-04-26T11:37:53.347Z</time></trkpt><trkpt lat="44.617364" lon="7.8808296"><ele>203.0</ele><time>2026-04-26T11:37:54.35Z</time></trkpt><trkpt lat="44.617646" lon="7.8806737"><ele>203.5</ele><time>2026-04-26T11:37:55.345Z</time></trkpt><trkpt lat="44.6179285" lon="7.8805216"><ele>204.0</ele><time>2026-04-26T11:37:56.349Z</time></trkpt><trkpt lat="44.6182081" lon="7.8803717"><ele>204.0</ele><time>2026-04-26T11:37:57.333Z</time></trkpt><trkpt lat="44.6184859" lon="7.8802252"><ele>204.0</ele><time>2026-04-26T11:37:58.336Z</time></trkpt><trkpt lat="44.6187663" lon="7.8800913"><ele>204.0</ele><time>2026-04-26T11:37:59.34Z</time></trkpt><trkpt lat="44.6190496" lon="7.8800019"><ele>204.0</ele><time>2026-04-26T11:38:00.351Z</time></trkpt><trkpt lat="44.6193308" lon="7.879966"><ele>204.0</ele><time>2026-04-26T11:38:01.345Z</time></trkpt><trkpt lat="44.6196199" lon="7.8799613"><ele>204.0</ele><time>2026-04-26T11:38:02.343Z</time></trkpt><trkpt lat="44.6198994" lon="7.8799876"><ele>204.0</ele><time>2026-04-26T11:38:03.341Z</time></trkpt><trkpt lat="44.6201781" lon="7.8800319"><ele>204.0</ele><time>2026-04-26T11:38:04.341Z</time></trkpt><trkpt lat="44.6204691" lon="7.8800735"><ele>201.5</ele><time>2026-04-26T11:38:05.343Z</time></trkpt><trkpt lat="44.6207654" lon="7.8801186"><ele>199.0</ele><time>2026-04-26T11:38:06.343Z</time></trkpt><trkpt lat="44.6210684" lon="7.8801681"><ele>202.5</ele><time>2026-04-26T11:38:07.33Z</time></trkpt><trkpt lat="44.6213722" lon="7.8802108"><ele>206.0</ele><time>2026-04-26T11:38:08.355Z</time></trkpt><trkpt lat="44.6216796" lon="7.8802568"><ele>206.5</ele><time>2026-04-26T11:38:09.341Z</time></trkpt><trkpt lat="44.6219836" lon="7.8802991"><ele>207.0</ele><time>2026-04-26T11:38:10.338Z</time></trkpt><trkpt lat="44.6222851" lon="7.880339"><ele>207.0</ele><time>2026-04-26T11:38:11.344Z</time></trkpt><trkpt lat="44.6225901" lon="7.8803872"><ele>207.0</ele><time>2026-04-26T11:38:12.336Z</time></trkpt><trkpt lat="44.6228942" lon="7.880433"><ele>209.0</ele><time>2026-04-26T11:38:13.34Z</time></trkpt><trkpt lat="44.62319" lon="7.8804736"><ele>211.0</ele><time>2026-04-26T11:38:14.35Z</time></trkpt><trkpt lat="44.6234819" lon="7.8805212"><ele>210.0</ele><time>2026-04-26T11:38:15.334Z</time></trkpt><trkpt lat="44.6237698" lon="7.8805674"><ele>209.0</ele><time>2026-04-26T11:38:16.353Z</time></trkpt><trkpt lat="44.6240567" lon="7.8805905"><ele>209.0</ele><time>2026-04-26T11:38:17.338Z</time></trkpt><trkpt lat="44.6243389" lon="7.880591"><ele>209.0</ele><time>2026-04-26T11:38:18.336Z</time></trkpt><trkpt lat="44.6246216" lon="7.8805266"><ele>207.0</ele><time>2026-04-26T11:38:19.344Z</time></trkpt><trkpt lat="44.6249025" lon="7.8804161"><ele>205.0</ele><time>2026-04-26T11:38:20.35Z</time></trkpt><trkpt lat="44.6251599" lon="7.880277"><ele>202.5</ele><time>2026-04-26T11:38:21.359Z</time></trkpt><trkpt lat="44.6254234" lon="7.880078"><ele>200.0</ele><time>2026-04-26T11:38:22.344Z</time></trkpt><trkpt lat="44.625685" lon="7.8798715"><ele>200.0</ele><time>2026-04-26T11:38:23.356Z</time></trkpt><trkpt lat="44.6259531" lon="7.8796614"><ele>200.0</ele><time>2026-04-26T11:38:24.348Z</time></trkpt><trkpt lat="44.626223" lon="7.8794458"><ele>199.0</ele><time>2026-04-26T11:38:25.35Z</time></trkpt><trkpt lat="44.6264941" lon="7.8792363"><ele>198.0</ele><time>2026-04-26T11:38:26.345Z</time></trkpt><trkpt lat="44.6267649" lon="7.8790236"><ele>201.0</ele><time>2026-04-26T11:38:27.352Z</time></trkpt><trkpt lat="44.6270359" lon="7.8788042"><ele>204.0</ele><time>2026-04-26T11:38:28.344Z</time></trkpt><trkpt lat="44.6273102" lon="7.8785749"><ele>206.0</ele><time>2026-04-26T11:38:29.36Z</time></trkpt><trkpt lat="44.6275894" lon="7.878358"><ele>208.0</ele><time>2026-04-26T11:38:30.353Z</time></trkpt><trkpt lat="44.6278664" lon="7.8781373"><ele>208.5</ele><time>2026-04-26T11:38:31.362Z</time></trkpt><trkpt lat="44.6281432" lon="7.8779091"><ele>209.0</ele><time>2026-04-26T11:38:32.352Z</time></trkpt><trkpt lat="44.6284152" lon="7.8776853"><ele>210.0</ele><time>2026-04-26T11:38:33.347Z</time></trkpt><trkpt lat="44.6286866" lon="7.8774693"><ele>211.0</ele><time>2026-04-26T11:38:34.331Z</time></trkpt><trkpt lat="44.6289593" lon="7.8772523"><ele>211.0</ele><time>2026-04-26T11:38:35.344Z</time></trkpt><trkpt lat="44.6292295" lon="7.8770337"><ele>211.0</ele><time>2026-04-26T11:38:36.352Z</time></trkpt><trkpt lat="44.6294956" lon="7.8768244"><ele>211.5</ele><time>2026-04-26T11:38:37.359Z</time></trkpt><trkpt lat="44.629763" lon="7.8766152"><ele>212.0</ele><time>2026-04-26T11:38:38.363Z</time></trkpt><trkpt lat="44.6300325" lon="7.8764025"><ele>212.0</ele><time>2026-04-26T11:38:39.356Z</time></trkpt><trkpt lat="44.6302989" lon="7.8761876"><ele>212.0</ele><time>2026-04-26T11:38:40.344Z</time></trkpt><trkpt lat="44.6305642" lon="7.8759742"><ele>211.5</ele><time>2026-04-26T11:38:41.348Z</time></trkpt><trkpt lat="44.630825" lon="7.8757608"><ele>211.0</ele><time>2026-04-26T11:38:42.352Z</time></trkpt><trkpt lat="44.6310847" lon="7.8755459"><ele>210.5</ele><time>2026-04-26T11:38:43.343Z</time></trkpt><trkpt lat="44.6313366" lon="7.87531"><ele>210.0</ele><time>2026-04-26T11:38:44.339Z</time></trkpt><trkpt lat="44.6315706" lon="7.8750392"><ele>210.0</ele><time>2026-04-26T11:38:45.351Z</time></trkpt><trkpt lat="44.6317906" lon="7.8747391"><ele>210.0</ele><time>2026-04-26T11:38:46.344Z</time></trkpt><trkpt lat="44.6320184" lon="7.8744414"><ele>210.0</ele><time>2026-04-26T11:38:47.335Z</time></trkpt><trkpt lat="44.6322462" lon="7.874135"><ele>210.0</ele><time>2026-04-26T11:38:48.348Z</time></trkpt><trkpt lat="44.6324735" lon="7.8738251"><ele>210.0</ele><time>2026-04-26T11:38:49.335Z</time></trkpt><trkpt lat="44.6327036" lon="7.8735277"><ele>210.0</ele><time>2026-04-26T11:38:50.353Z</time></trkpt><trkpt lat="44.6329373" lon="7.8732208"><ele>210.5</ele><time>2026-04-26T11:38:51.341Z</time></trkpt><trkpt lat="44.6331671" lon="7.8729098"><ele>211.0</ele><time>2026-04-26T11:38:52.354Z</time></trkpt><trkpt lat="44.6333995" lon="7.8726"><ele>212.5</ele><time>2026-04-26T11:38:53.355Z</time></trkpt><trkpt lat="44.6336304" lon="7.8722982"><ele>214.0</ele><time>2026-04-26T11:38:54.345Z</time></trkpt><trkpt lat="44.6338615" lon="7.8720095"><ele>217.0</ele><time>2026-04-26T11:38:55.347Z</time></trkpt><trkpt lat="44.6340894" lon="7.8717181"><ele>220.0</ele><time>2026-04-26T11:38:56.345Z</time></trkpt><trkpt lat="44.6343073" lon="7.871437"><ele>221.5</ele><time>2026-04-26T11:38:57.347Z</time></trkpt><trkpt lat="44.6345053" lon="7.8711786"><ele>223.0</ele><time>2026-04-26T11:38:58.335Z</time></trkpt><trkpt lat="44.634694" lon="7.8709303"><ele>223.33333333333331</ele><time>2026-04-26T11:38:59.343Z</time></trkpt><trkpt lat="44.6348586" lon="7.8707017"><ele>223.66666666666669</ele><time>2026-04-26T11:39:00.333Z</time></trkpt><trkpt lat="44.6350047" lon="7.8705089"><ele>224.0</ele><time>2026-04-26T11:39:01.342Z</time></trkpt><trkpt lat="44.6351433" lon="7.8703306"><ele>224.0</ele><time>2026-04-26T11:39:02.337Z</time></trkpt><trkpt lat="44.6352618" lon="7.8701623"><ele>224.0</ele><time>2026-04-26T11:39:03.338Z</time></trkpt><trkpt lat="44.6353738" lon="7.8700245"><ele>224.0</ele><time>2026-04-26T11:39:04.355Z</time></trkpt><trkpt lat="44.6354794" lon="7.8699245"><ele>224.0</ele><time>2026-04-26T11:39:05.339Z</time></trkpt><trkpt lat="44.6355883" lon="7.8698536"><ele>225.0</ele><time>2026-04-26T11:39:06.358Z</time></trkpt></trkseg><trkseg><trkpt lat="45.0332243" lon="7.5128363"><ele>352.7</ele><time>2026-04-26T18:11:15.868Z</time></trkpt></trkseg></trk></gpx>